<?xml version='1.0' encoding='UTF-8'?><gpx version="1.1" creator="JPX - https://github.com/jenetics/jpx" xmlns="http://www.topografix.com/GPX/1/1"><trk><trkseg><trkpt lat="47.22437876666667" lon="10.861461033333335"><ele>753.0</ele><time>2026-05-01T05:08:48.771Z</time></trkpt><trkpt lat="47.22444658333334" lon="10.861422483333335"><ele>753.0</ele><time>2026-05-01T05:08:49.787Z</time></trkpt><trkpt lat="47.22454063333333" lon="10.861384433333335"><ele>753.0</ele><time>2026-05-01T05:08:50.791Z</time></trkpt><trkpt lat="47.224657549999996" lon="10.861343616666666"><ele>753.0</ele><time>2026-05-01T05:08:51.79Z</time></trkpt><trkpt lat="47.22479356666666" lon="10.861292833333335"><ele>753.0</ele><time>2026-05-01T05:08:52.781Z</time></trkpt><trkpt lat="47.2249457" lon="10.861232983333332"><ele>758.0</ele><time>2026-05-01T05:08:53.785Z</time></trkpt><trkpt lat="47.22511741666667" lon="10.861163383333333"><ele>763.0</ele><time>2026-05-01T05:08:54.786Z</time></trkpt><trkpt lat="47.22531285421467" lon="10.861115058744355"><ele>768.0</ele><time>2026-05-01T05:08:55.781Z</time></trkpt><trkpt lat="47.225516319642495" lon="10.86104106831075"><ele>770.0</ele><time>2026-05-01T05:08:56.773Z</time></trkpt><trkpt lat="47.22573575734184" lon="10.860961269541239"><ele>772.0</ele><time>2026-05-01T05:08:57.791Z</time></trkpt><trkpt lat="47.225967320296185" lon="10.860879665251716"><ele>755.5</ele><time>2026-05-01T05:08:58.793Z</time></trkpt><trkpt lat="47.22620306850833" lon="10.860789255937313"><ele>739.0</ele><time>2026-05-01T05:08:59.785Z</time></trkpt><trkpt lat="47.22643028321188" lon="10.860672848086727"><ele>741.0</ele><time>2026-05-01T05:09:00.79Z</time></trkpt><trkpt lat="47.22663168344714" lon="10.860513290140666"><ele>743.0</ele><time>2026-05-01T05:09:01.792Z</time></trkpt><trkpt lat="47.22680587212547" lon="10.860310653918532"><ele>736.5</ele><time>2026-05-01T05:09:02.77Z</time></trkpt><trkpt lat="47.226966096880155" lon="10.860073891112076"><ele>730.0</ele><time>2026-05-01T05:09:03.794Z</time></trkpt><trkpt lat="47.227093784633404" lon="10.859789791528366"><ele>730.0</ele><time>2026-05-01T05:09:04.773Z</time></trkpt><trkpt lat="47.22720372362554" lon="10.859473853438857"><ele>730.0</ele><time>2026-05-01T05:09:05.771Z</time></trkpt><trkpt lat="47.22730065000001" lon="10.859139583333334"><ele>737.5</ele><time>2026-05-01T05:09:06.791Z</time></trkpt><trkpt lat="47.227421033333336" lon="10.85881205"><ele>745.0</ele><time>2026-05-01T05:09:07.776Z</time></trkpt><trkpt lat="47.227579443299874" lon="10.858509142925357"><ele>740.0</ele><time>2026-05-01T05:09:08.78Z</time></trkpt><trkpt lat="47.22774961281741" lon="10.85822294600395"><ele>735.0</ele><time>2026-05-01T05:09:09.788Z</time></trkpt><trkpt lat="47.22793386756798" lon="10.857959614841281"><ele>735.0</ele><time>2026-05-01T05:09:10.776Z</time></trkpt><trkpt lat="47.228125700698904" lon="10.85772355795623"><ele>735.0</ele><time>2026-05-01T05:09:11.774Z</time></trkpt><trkpt lat="47.22831359549409" lon="10.857520266896305"><ele>735.0</ele><time>2026-05-01T05:09:12.792Z</time></trkpt><trkpt lat="47.2284979804183" lon="10.857349178646775"><ele>735.0</ele><time>2026-05-01T05:09:13.78Z</time></trkpt><trkpt lat="47.22867427453886" lon="10.857191071397772"><ele>735.0</ele><time>2026-05-01T05:09:14.784Z</time></trkpt><trkpt lat="47.228828400000005" lon="10.857024816666668"><ele>735.6666666666666</ele><time>2026-05-01T05:09:15.791Z</time></trkpt><trkpt lat="47.228981833333336" lon="10.856898866666667"><ele>736.3333333333333</ele><time>2026-05-01T05:09:16.793Z</time></trkpt><trkpt lat="47.229126933333326" lon="10.856773966666667"><ele>737.0</ele><time>2026-05-01T05:09:17.788Z</time></trkpt><trkpt lat="47.22925871666666" lon="10.856650433333336"><ele>734.6666666666666</ele><time>2026-05-01T05:09:18.789Z</time></trkpt><trkpt lat="47.22937978333333" lon="10.856523750000001"><ele>732.3333333333334</ele><time>2026-05-01T05:09:19.777Z</time></trkpt><trkpt lat="47.2295003" lon="10.856386866666666"><ele>730.0</ele><time>2026-05-01T05:09:20.774Z</time></trkpt><trkpt lat="47.22962136666666" lon="10.856241083333334"><ele>730.0</ele><time>2026-05-01T05:09:21.789Z</time></trkpt><trkpt lat="47.229739833333326" lon="10.856085916666666"><ele>730.0</ele><time>2026-05-01T05:09:22.782Z</time></trkpt><trkpt lat="47.22985475000001" lon="10.855926266666666"><ele>730.0</ele><time>2026-05-01T05:09:23.784Z</time></trkpt><trkpt lat="47.22995993333333" lon="10.855772899999998"><ele>730.75</ele><time>2026-05-01T05:09:24.791Z</time></trkpt><trkpt lat="47.23005691666667" lon="10.855625266666667"><ele>731.5</ele><time>2026-05-01T05:09:25.797Z</time></trkpt><trkpt lat="47.23013706666667" lon="10.855490466666666"><ele>732.25</ele><time>2026-05-01T05:09:26.772Z</time></trkpt><trkpt lat="47.23020379999999" lon="10.85537615"><ele>733.0</ele><time>2026-05-01T05:09:27.822Z</time></trkpt><trkpt lat="47.23026601666667" lon="10.855288666666668"><ele>733.0</ele><time>2026-05-01T05:09:28.793Z</time></trkpt><trkpt lat="47.230337150000004" lon="10.855232266666667"><ele>733.0</ele><time>2026-05-01T05:09:29.774Z</time></trkpt><trkpt lat="47.230422100000006" lon="10.855195433333332"><ele>733.0</ele><time>2026-05-01T05:09:30.791Z</time></trkpt><trkpt lat="47.23050305" lon="10.855157366666667"><ele>733.0</ele><time>2026-05-01T05:09:31.795Z</time></trkpt><trkpt lat="47.23056036666667" lon="10.855094583333335"><ele>733.0</ele><time>2026-05-01T05:09:32.771Z</time></trkpt><trkpt lat="47.2305935" lon="10.855003700000001"><ele>733.0</ele><time>2026-05-01T05:09:33.791Z</time></trkpt><trkpt lat="47.23060373333333" lon="10.854884900000002"><ele>733.2</ele><time>2026-05-01T05:09:34.792Z</time></trkpt><trkpt lat="47.2306062" lon="10.854748883333333"><ele>733.4</ele><time>2026-05-01T05:09:35.774Z</time></trkpt><trkpt lat="47.2305981764261" lon="10.854577684221734"><ele>733.6</ele><time>2026-05-01T05:09:36.81Z</time></trkpt><trkpt lat="47.230664383333334" lon="10.854452633333334"><ele>733.8000000000001</ele><time>2026-05-01T05:09:37.775Z</time></trkpt><trkpt lat="47.23071963333333" lon="10.854303633333334"><ele>734.0</ele><time>2026-05-01T05:09:38.783Z</time></trkpt><trkpt lat="47.230780866666656" lon="10.8541398"><ele>734.5</ele><time>2026-05-01T05:09:39.788Z</time></trkpt><trkpt lat="47.230843233333324" lon="10.853958633333331"><ele>735.0</ele><time>2026-05-01T05:09:40.792Z</time></trkpt><trkpt lat="47.23090175000001" lon="10.853763800000001"><ele>735.5</ele><time>2026-05-01T05:09:41.774Z</time></trkpt><trkpt lat="47.230962299999995" lon="10.853556983333332"><ele>736.0</ele><time>2026-05-01T05:09:42.788Z</time></trkpt><trkpt lat="47.23102706666667" lon="10.8533367"><ele>736.6666666666667</ele><time>2026-05-01T05:09:43.774Z</time></trkpt><trkpt lat="47.23109748333333" lon="10.853103083333334"><ele>737.3333333333334</ele><time>2026-05-01T05:09:44.774Z</time></trkpt><trkpt lat="47.23115323333333" lon="10.852852499999997"><ele>738.0</ele><time>2026-05-01T05:09:45.79Z</time></trkpt><trkpt lat="47.231232497559276" lon="10.852617015212234"><ele>736.6666666666666</ele><time>2026-05-01T05:09:46.774Z</time></trkpt><trkpt lat="47.23130311356445" lon="10.852380130954195"><ele>735.3333333333333</ele><time>2026-05-01T05:09:47.788Z</time></trkpt><trkpt lat="47.23137804712677" lon="10.852136250476452"><ele>734.0</ele><time>2026-05-01T05:09:48.788Z</time></trkpt><trkpt lat="47.231458180765806" lon="10.851881754486566"><ele>733.6666666666666</ele><time>2026-05-01T05:09:49.795Z</time></trkpt><trkpt lat="47.231533066666664" lon="10.851611616666665"><ele>733.3333333333334</ele><time>2026-05-01T05:09:50.784Z</time></trkpt><trkpt lat="47.23163528333333" lon="10.851346799999998"><ele>733.0</ele><time>2026-05-01T05:09:51.79Z</time></trkpt><trkpt lat="47.231743916666666" lon="10.851079016666665"><ele>734.3333333333334</ele><time>2026-05-01T05:09:52.793Z</time></trkpt><trkpt lat="47.231876108807185" lon="10.850828712751742"><ele>735.6666666666666</ele><time>2026-05-01T05:09:53.774Z</time></trkpt><trkpt lat="47.23200540988289" lon="10.85057188361429"><ele>737.0</ele><time>2026-05-01T05:09:54.79Z</time></trkpt><trkpt lat="47.23214015862999" lon="10.85031572073962"><ele>736.6666666666666</ele><time>2026-05-01T05:09:55.794Z</time></trkpt><trkpt lat="47.23228663278158" lon="10.850067624971693"><ele>736.3333333333334</ele><time>2026-05-01T05:09:56.774Z</time></trkpt><trkpt lat="47.23243701064751" lon="10.84982779291647"><ele>736.0</ele><time>2026-05-01T05:09:57.79Z</time></trkpt><trkpt lat="47.232581033333325" lon="10.849587416666669"><ele>732.3333333333334</ele><time>2026-05-01T05:09:58.795Z</time></trkpt><trkpt lat="47.232739800000004" lon="10.849379583333333"><ele>728.6666666666666</ele><time>2026-05-01T05:09:59.774Z</time></trkpt><trkpt lat="47.23290018333334" lon="10.849179566666663"><ele>725.0</ele><time>2026-05-01T05:10:00.791Z</time></trkpt><trkpt lat="47.23306525" lon="10.848992549999998"><ele>723.3333333333333</ele><time>2026-05-01T05:10:01.797Z</time></trkpt><trkpt lat="47.23323886666667" lon="10.8488097"><ele>721.6666666666666</ele><time>2026-05-01T05:10:02.774Z</time></trkpt><trkpt lat="47.23342054999999" lon="10.848632033333335"><ele>720.0</ele><time>2026-05-01T05:10:03.775Z</time></trkpt><trkpt lat="47.23360681666666" lon="10.848464650000002"><ele>720.0</ele><time>2026-05-01T05:10:04.774Z</time></trkpt><trkpt lat="47.23379629999999" lon="10.848311"><ele>720.0</ele><time>2026-05-01T05:10:05.774Z</time></trkpt><trkpt lat="47.23398913333334" lon="10.848167483333336"><ele>720.0</ele><time>2026-05-01T05:10:06.788Z</time></trkpt><trkpt lat="47.23418888333334" lon="10.848033716666665"><ele>720.0</ele><time>2026-05-01T05:10:07.773Z</time></trkpt><trkpt lat="47.23439485" lon="10.847915483333335"><ele>720.0</ele><time>2026-05-01T05:10:08.774Z</time></trkpt><trkpt lat="47.234601583333344" lon="10.847806766666668"><ele>720.0</ele><time>2026-05-01T05:10:09.788Z</time></trkpt><trkpt lat="47.23480988333334" lon="10.847708383333334"><ele>712.3333333333334</ele><time>2026-05-01T05:10:10.794Z</time></trkpt><trkpt lat="47.23502313333333" lon="10.847626583333334"><ele>704.6666666666667</ele><time>2026-05-01T05:10:11.774Z</time></trkpt><trkpt lat="47.23523745000001" lon="10.847564233333332"><ele>697.0</ele><time>2026-05-01T05:10:12.773Z</time></trkpt><trkpt lat="47.235453899999996" lon="10.8475165"><ele>690.6666666666667</ele><time>2026-05-01T05:10:13.793Z</time></trkpt><trkpt lat="47.23566905" lon="10.847477066666666"><ele>684.3333333333334</ele><time>2026-05-01T05:10:14.774Z</time></trkpt><trkpt lat="47.23588543333334" lon="10.84744735"><ele>678.0</ele><time>2026-05-01T05:10:15.793Z</time></trkpt><trkpt lat="47.236099816666666" lon="10.847426950000001"><ele>678.0</ele><time>2026-05-01T05:10:16.774Z</time></trkpt><trkpt lat="47.236309433333325" lon="10.84742128333333"><ele>678.0</ele><time>2026-05-01T05:10:17.793Z</time></trkpt><trkpt lat="47.23651663333334" lon="10.847427899999998"><ele>678.0</ele><time>2026-05-01T05:10:18.791Z</time></trkpt><trkpt lat="47.2367213" lon="10.847443099999998"><ele>678.0</ele><time>2026-05-01T05:10:19.784Z</time></trkpt><trkpt lat="47.236926399999994" lon="10.847466933333331"><ele>678.0</ele><time>2026-05-01T05:10:20.773Z</time></trkpt><trkpt lat="47.23713536666667" lon="10.847505133333334"><ele>678.0</ele><time>2026-05-01T05:10:21.787Z</time></trkpt><trkpt lat="47.237344366666676" lon="10.847539283333333"><ele>679.0</ele><time>2026-05-01T05:10:22.78Z</time></trkpt><trkpt lat="47.23755645" lon="10.847576"><ele>680.0</ele><time>2026-05-01T05:10:23.774Z</time></trkpt><trkpt lat="47.23777096666666" lon="10.84761605"><ele>681.0</ele><time>2026-05-01T05:10:24.791Z</time></trkpt><trkpt lat="47.23798528333334" lon="10.84765415"><ele>683.6666666666666</ele><time>2026-05-01T05:10:25.793Z</time></trkpt><trkpt lat="47.238199699999996" lon="10.847693516666666"><ele>686.3333333333333</ele><time>2026-05-01T05:10:26.79Z</time></trkpt><trkpt lat="47.2384185" lon="10.847737166666667"><ele>689.0</ele><time>2026-05-01T05:10:27.788Z</time></trkpt><trkpt lat="47.23864012290054" lon="10.84775935204119"><ele>689.0</ele><time>2026-05-01T05:10:28.775Z</time></trkpt><trkpt lat="47.23886188333333" lon="10.847837366666665"><ele>689.0</ele><time>2026-05-01T05:10:29.774Z</time></trkpt><trkpt lat="47.23908836666666" lon="10.847889233333335"><ele>692.5</ele><time>2026-05-01T05:10:30.788Z</time></trkpt><trkpt lat="47.2393185618577" lon="10.847911545990527"><ele>696.0</ele><time>2026-05-01T05:10:31.78Z</time></trkpt><trkpt lat="47.23954402608901" lon="10.847950445079276"><ele>696.0</ele><time>2026-05-01T05:10:32.773Z</time></trkpt><trkpt lat="47.23976832940684" lon="10.84798568513223"><ele>696.0</ele><time>2026-05-01T05:10:33.791Z</time></trkpt><trkpt lat="47.23998845679344" lon="10.848020281753735"><ele>696.0</ele><time>2026-05-01T05:10:34.794Z</time></trkpt><trkpt lat="47.24020475000001" lon="10.848105100000001"><ele>697.0</ele><time>2026-05-01T05:10:35.78Z</time></trkpt><trkpt lat="47.240425666666674" lon="10.848158583333333"><ele>698.0</ele><time>2026-05-01T05:10:36.788Z</time></trkpt><trkpt lat="47.24064643333333" lon="10.848228483333333"><ele>703.0</ele><time>2026-05-01T05:10:37.788Z</time></trkpt><trkpt lat="47.24086623333333" lon="10.848307299999998"><ele>708.0</ele><time>2026-05-01T05:10:38.784Z</time></trkpt><trkpt lat="47.24108866666667" lon="10.848400483333334"><ele>705.0</ele><time>2026-05-01T05:10:39.792Z</time></trkpt><trkpt lat="47.24131193333333" lon="10.848506233333335"><ele>702.0</ele><time>2026-05-01T05:10:40.788Z</time></trkpt><trkpt lat="47.2415336" lon="10.848629750000002"><ele>708.5</ele><time>2026-05-01T05:10:41.774Z</time></trkpt><trkpt lat="47.24175711666667" lon="10.848768"><ele>715.0</ele><time>2026-05-01T05:10:42.788Z</time></trkpt><trkpt lat="47.241989166666656" lon="10.848927866666669"><ele>715.0</ele><time>2026-05-01T05:10:43.776Z</time></trkpt><trkpt lat="47.24223023333334" lon="10.84911761666667"><ele>715.0</ele><time>2026-05-01T05:10:44.777Z</time></trkpt><trkpt lat="47.24249331535806" lon="10.849297578593374"><ele>715.5</ele><time>2026-05-01T05:10:45.793Z</time></trkpt><trkpt lat="47.242737616666666" lon="10.8495755"><ele>716.0</ele><time>2026-05-01T05:10:46.795Z</time></trkpt><trkpt lat="47.24299471666666" lon="10.849850216666667"><ele>716.5</ele><time>2026-05-01T05:10:47.785Z</time></trkpt><trkpt lat="47.24325481666667" lon="10.850149749999998"><ele>717.0</ele><time>2026-05-01T05:10:48.791Z</time></trkpt><trkpt lat="47.24351893333334" lon="10.850459716666668"><ele>717.0</ele><time>2026-05-01T05:10:49.794Z</time></trkpt><trkpt lat="47.243787149999996" lon="10.850774433333333"><ele>717.0</ele><time>2026-05-01T05:10:50.786Z</time></trkpt><trkpt lat="47.24405386666667" lon="10.851092249999999"><ele>716.5</ele><time>2026-05-01T05:10:51.788Z</time></trkpt><trkpt lat="47.2443169" lon="10.851420516666666"><ele>716.0</ele><time>2026-05-01T05:10:52.794Z</time></trkpt><trkpt lat="47.244573966666664" lon="10.85175685"><ele>718.5</ele><time>2026-05-01T05:10:53.787Z</time></trkpt><trkpt lat="47.24482663333333" lon="10.852096333333334"><ele>721.0</ele><time>2026-05-01T05:10:54.789Z</time></trkpt><trkpt lat="47.24507789999999" lon="10.852437449999998"><ele>717.0</ele><time>2026-05-01T05:10:55.795Z</time></trkpt><trkpt lat="47.245324" lon="10.852778883333334"><ele>713.0</ele><time>2026-05-01T05:10:56.78Z</time></trkpt><trkpt lat="47.24556420000001" lon="10.853122166666665"><ele>716.0</ele><time>2026-05-01T05:10:57.787Z</time></trkpt><trkpt lat="47.24580113333333" lon="10.853462066666669"><ele>719.0</ele><time>2026-05-01T05:10:58.78Z</time></trkpt><trkpt lat="47.24603763333332" lon="10.853798316666667"><ele>719.0</ele><time>2026-05-01T05:10:59.772Z</time></trkpt><trkpt lat="47.24627035" lon="10.854130699999999"><ele>719.0</ele><time>2026-05-01T05:11:00.792Z</time></trkpt><trkpt lat="47.24651224999999" lon="10.854461233333332"><ele>723.5</ele><time>2026-05-01T05:11:01.793Z</time></trkpt><trkpt lat="47.24675381666666" lon="10.854777733333334"><ele>728.0</ele><time>2026-05-01T05:11:02.774Z</time></trkpt><trkpt lat="47.24700083333334" lon="10.855089200000002"><ele>725.5</ele><time>2026-05-01T05:11:03.823Z</time></trkpt><trkpt lat="47.247256533333335" lon="10.855391233333334"><ele>723.0</ele><time>2026-05-01T05:11:04.775Z</time></trkpt><trkpt lat="47.24752053333333" lon="10.855680966666668"><ele>711.0</ele><time>2026-05-01T05:11:05.788Z</time></trkpt><trkpt lat="47.24778941666667" lon="10.855967816666665"><ele>699.0</ele><time>2026-05-01T05:11:06.788Z</time></trkpt><trkpt lat="47.248065033333326" lon="10.856241483333335"><ele>708.0</ele><time>2026-05-01T05:11:07.794Z</time></trkpt><trkpt lat="47.248344683333336" lon="10.856506549999999"><ele>717.0</ele><time>2026-05-01T05:11:08.771Z</time></trkpt><trkpt lat="47.24862558333333" lon="10.856765183333335"><ele>715.5</ele><time>2026-05-01T05:11:09.79Z</time></trkpt><trkpt lat="47.24890875" lon="10.85701765"><ele>714.0</ele><time>2026-05-01T05:11:10.797Z</time></trkpt><trkpt lat="47.249192066666666" lon="10.857266816666666"><ele>714.0</ele><time>2026-05-01T05:11:11.779Z</time></trkpt><trkpt lat="47.249471616666675" lon="10.857515399999999"><ele>714.0</ele><time>2026-05-01T05:11:12.797Z</time></trkpt><trkpt lat="47.24974735000001" lon="10.857770016666667"><ele>708.5</ele><time>2026-05-01T05:11:13.777Z</time></trkpt><trkpt lat="47.250020083333325" lon="10.858031233333334"><ele>703.0</ele><time>2026-05-01T05:11:14.784Z</time></trkpt><trkpt lat="47.250283483333334" lon="10.858308299999997"><ele>701.5</ele><time>2026-05-01T05:11:15.793Z</time></trkpt><trkpt lat="47.25053979999999" lon="10.8585982"><ele>700.0</ele><time>2026-05-01T05:11:16.794Z</time></trkpt><trkpt lat="47.25078603333333" lon="10.858902149999999"><ele>700.0</ele><time>2026-05-01T05:11:17.776Z</time></trkpt><trkpt lat="47.251021800000004" lon="10.859219266666665"><ele>700.0</ele><time>2026-05-01T05:11:18.792Z</time></trkpt><trkpt lat="47.25125023333333" lon="10.859550283333332"><ele>697.0</ele><time>2026-05-01T05:11:19.796Z</time></trkpt><trkpt lat="47.2514703" lon="10.859888166666666"><ele>694.0</ele><time>2026-05-01T05:11:20.771Z</time></trkpt><trkpt lat="47.25168131666666" lon="10.860236766666667"><ele>694.0</ele><time>2026-05-01T05:11:21.789Z</time></trkpt><trkpt lat="47.251882433333336" lon="10.860598499999998"><ele>694.0</ele><time>2026-05-01T05:11:22.779Z</time></trkpt><trkpt lat="47.25207733333333" lon="10.860970166666668"><ele>686.0</ele><time>2026-05-01T05:11:23.772Z</time></trkpt><trkpt lat="47.25226425000001" lon="10.861350933333332"><ele>678.0</ele><time>2026-05-01T05:11:24.795Z</time></trkpt><trkpt lat="47.25244473333334" lon="10.861737416666664"><ele>690.0</ele><time>2026-05-01T05:11:25.793Z</time></trkpt><trkpt lat="47.25262026666666" lon="10.8621332"><ele>702.0</ele><time>2026-05-01T05:11:26.772Z</time></trkpt><trkpt lat="47.25279421666668" lon="10.862528516666664"><ele>707.5</ele><time>2026-05-01T05:11:27.791Z</time></trkpt><trkpt lat="47.25296674999999" lon="10.862925666666667"><ele>713.0</ele><time>2026-05-01T05:11:28.777Z</time></trkpt><trkpt lat="47.2531413" lon="10.863322383333331"><ele>708.0</ele><time>2026-05-01T05:11:29.775Z</time></trkpt><trkpt lat="47.25331913333333" lon="10.863721400000001"><ele>703.0</ele><time>2026-05-01T05:11:30.795Z</time></trkpt><trkpt lat="47.2535021" lon="10.864114733333334"><ele>696.5</ele><time>2026-05-01T05:11:31.796Z</time></trkpt><trkpt lat="47.25369081666666" lon="10.864504700000001"><ele>690.0</ele><time>2026-05-01T05:11:32.786Z</time></trkpt><trkpt lat="47.25388775" lon="10.864893016666667"><ele>690.5</ele><time>2026-05-01T05:11:33.791Z</time></trkpt><trkpt lat="47.25408948333334" lon="10.86527391666667"><ele>691.0</ele><time>2026-05-01T05:11:34.795Z</time></trkpt><trkpt lat="47.25429503333333" lon="10.86564985"><ele>685.0</ele><time>2026-05-01T05:11:35.821Z</time></trkpt><trkpt lat="47.2545062" lon="10.866022033333337"><ele>679.0</ele><time>2026-05-01T05:11:36.791Z</time></trkpt><trkpt lat="47.25472255" lon="10.866391133333332"><ele>680.0</ele><time>2026-05-01T05:11:37.79Z</time></trkpt><trkpt lat="47.25494234999999" lon="10.866752466666666"><ele>681.0</ele><time>2026-05-01T05:11:38.772Z</time></trkpt><trkpt lat="47.25516698333333" lon="10.867109833333332"><ele>681.0</ele><time>2026-05-01T05:11:39.775Z</time></trkpt><trkpt lat="47.255393683333324" lon="10.86746165"><ele>681.0</ele><time>2026-05-01T05:11:40.777Z</time></trkpt><trkpt lat="47.25562733333333" lon="10.8678096"><ele>682.0</ele><time>2026-05-01T05:11:41.772Z</time></trkpt><trkpt lat="47.25586613333333" lon="10.868148983333334"><ele>683.0</ele><time>2026-05-01T05:11:42.792Z</time></trkpt><trkpt lat="47.25610676666667" lon="10.868479983333335"><ele>683.0</ele><time>2026-05-01T05:11:43.772Z</time></trkpt><trkpt lat="47.25634783333333" lon="10.868803916666664"><ele>683.0</ele><time>2026-05-01T05:11:44.775Z</time></trkpt><trkpt lat="47.25659085" lon="10.869130183333333"><ele>679.5</ele><time>2026-05-01T05:11:45.792Z</time></trkpt><trkpt lat="47.25683458333333" lon="10.869451849999999"><ele>676.0</ele><time>2026-05-01T05:11:46.773Z</time></trkpt><trkpt lat="47.25707846666666" lon="10.869773166666667"><ele>677.0</ele><time>2026-05-01T05:11:47.771Z</time></trkpt><trkpt lat="47.2573197" lon="10.870101499999999"><ele>678.0</ele><time>2026-05-01T05:11:48.774Z</time></trkpt><trkpt lat="47.257558700000004" lon="10.870436083333335"><ele>678.0</ele><time>2026-05-01T05:11:49.771Z</time></trkpt><trkpt lat="47.25779261666667" lon="10.870774633333333"><ele>678.0</ele><time>2026-05-01T05:11:50.784Z</time></trkpt><trkpt lat="47.25802171666666" lon="10.871119533333335"><ele>678.5</ele><time>2026-05-01T05:11:51.788Z</time></trkpt><trkpt lat="47.25824380000001" lon="10.871470766666668"><ele>679.0</ele><time>2026-05-01T05:11:52.773Z</time></trkpt><trkpt lat="47.25846" lon="10.871830900000003"><ele>673.0</ele><time>2026-05-01T05:11:53.784Z</time></trkpt><trkpt lat="47.2586699" lon="10.8721953"><ele>667.0</ele><time>2026-05-01T05:11:54.792Z</time></trkpt><trkpt lat="47.25887393333334" lon="10.872571850000002"><ele>670.0</ele><time>2026-05-01T05:11:55.794Z</time></trkpt><trkpt lat="47.2590566" lon="10.872962333333332"><ele>673.0</ele><time>2026-05-01T05:11:56.772Z</time></trkpt><trkpt lat="47.25920665" lon="10.873350733333332"><ele>669.5</ele><time>2026-05-01T05:11:57.774Z</time></trkpt><trkpt lat="47.25938524646403" lon="10.873689319942345"><ele>666.0</ele><time>2026-05-01T05:11:58.777Z</time></trkpt><trkpt lat="47.259541081370294" lon="10.874031385464104"><ele>669.0</ele><time>2026-05-01T05:11:59.789Z</time></trkpt><trkpt lat="47.259681400456316" lon="10.874359022662752"><ele>672.0</ele><time>2026-05-01T05:12:00.791Z</time></trkpt><trkpt lat="47.25982009306153" lon="10.874689249068966"><ele>667.5</ele><time>2026-05-01T05:12:01.794Z</time></trkpt><trkpt lat="47.25999339406718" lon="10.875121435599997"><ele>663.0</ele><time>2026-05-01T05:12:02.792Z</time></trkpt><trkpt lat="47.260158950514366" lon="10.87555411271206"><ele>661.0</ele><time>2026-05-01T05:12:03.795Z</time></trkpt><trkpt lat="47.26032700609952" lon="10.87603503971543"><ele>659.0</ele><time>2026-05-01T05:12:04.793Z</time></trkpt><trkpt lat="47.260512613485815" lon="10.876583070840422"><ele>663.5</ele><time>2026-05-01T05:12:05.772Z</time></trkpt><trkpt lat="47.260671159396566" lon="10.877069618267265"><ele>668.0</ele><time>2026-05-01T05:12:06.789Z</time></trkpt><trkpt lat="47.26081361678403" lon="10.877517632166256"><ele>665.0</ele><time>2026-05-01T05:12:07.811Z</time></trkpt><trkpt lat="47.26095495439895" lon="10.877956991988976"><ele>662.0</ele><time>2026-05-01T05:12:08.784Z</time></trkpt><trkpt lat="47.26109437811188" lon="10.878390082828409"><ele>659.5</ele><time>2026-05-01T05:12:09.792Z</time></trkpt><trkpt lat="47.261232062570016" lon="10.878822724411503"><ele>657.0</ele><time>2026-05-01T05:12:10.794Z</time></trkpt><trkpt lat="47.26136233333333" lon="10.879252916666667"><ele>661.5</ele><time>2026-05-01T05:12:11.781Z</time></trkpt><trkpt lat="47.26149948547888" lon="10.87966095117749"><ele>666.0</ele><time>2026-05-01T05:12:12.788Z</time></trkpt><trkpt lat="47.26163266344258" lon="10.880076391983827"><ele>666.0</ele><time>2026-05-01T05:12:13.775Z</time></trkpt><trkpt lat="47.26176405469999" lon="10.88051654270942"><ele>666.0</ele><time>2026-05-01T05:12:14.772Z</time></trkpt><trkpt lat="47.261893640167564" lon="10.88097551306996"><ele>664.5</ele><time>2026-05-01T05:12:15.771Z</time></trkpt><trkpt lat="47.262051766547415" lon="10.881438588452689"><ele>663.0</ele><time>2026-05-01T05:12:16.775Z</time></trkpt><trkpt lat="47.26221721865099" lon="10.881903133486713"><ele>664.0</ele><time>2026-05-01T05:12:17.785Z</time></trkpt><trkpt lat="47.26225638798561" lon="10.882169099187413"><ele>665.0</ele><time>2026-05-01T05:12:18.792Z</time></trkpt><trkpt lat="47.262359426696726" lon="10.882568862957873"><ele>662.0</ele><time>2026-05-01T05:12:19.796Z</time></trkpt><trkpt lat="47.2625264457023" lon="10.883000726810186"><ele>659.0</ele><time>2026-05-01T05:12:20.781Z</time></trkpt><trkpt lat="47.262685198298485" lon="10.883420616898484"><ele>659.0</ele><time>2026-05-01T05:12:21.791Z</time></trkpt><trkpt lat="47.262834916127055" lon="10.883837519289047"><ele>659.0</ele><time>2026-05-01T05:12:22.777Z</time></trkpt><trkpt lat="47.26296444068413" lon="10.884256513249056"><ele>662.0</ele><time>2026-05-01T05:12:23.772Z</time></trkpt><trkpt lat="47.26309829966908" lon="10.884700304169533"><ele>665.0</ele><time>2026-05-01T05:12:24.791Z</time></trkpt><trkpt lat="47.26323527510777" lon="10.885162780794904"><ele>667.0</ele><time>2026-05-01T05:12:25.781Z</time></trkpt><trkpt lat="47.263375651633446" lon="10.885643331794888"><ele>669.0</ele><time>2026-05-01T05:12:26.775Z</time></trkpt><trkpt lat="47.263516010142474" lon="10.886141268467256"><ele>669.0</ele><time>2026-05-01T05:12:27.792Z</time></trkpt><trkpt lat="47.26365242529071" lon="10.88663993803138"><ele>669.0</ele><time>2026-05-01T05:12:28.777Z</time></trkpt><trkpt lat="47.26378008333333" lon="10.887143516666667"><ele>664.5</ele><time>2026-05-01T05:12:29.789Z</time></trkpt><trkpt lat="47.26395085000001" lon="10.887620133333334"><ele>660.0</ele><time>2026-05-01T05:12:30.792Z</time></trkpt><trkpt lat="47.26406441666666" lon="10.887770266666667"><ele>660.0</ele><time>2026-05-01T05:12:31.794Z</time></trkpt><trkpt lat="47.264101749999995" lon="10.888007566666666"><ele>660.0</ele><time>2026-05-01T05:12:32.773Z</time></trkpt><trkpt lat="47.264181099999995" lon="10.888333383333334"><ele>660.0</ele><time>2026-05-01T05:12:33.788Z</time></trkpt><trkpt lat="47.26424440000001" lon="10.888676866666668"><ele>660.5</ele><time>2026-05-01T05:12:34.773Z</time></trkpt><trkpt lat="47.26431491666668" lon="10.8890161"><ele>661.0</ele><time>2026-05-01T05:12:35.786Z</time></trkpt><trkpt lat="47.264385999999995" lon="10.889342883333333"><ele>662.0</ele><time>2026-05-01T05:12:36.789Z</time></trkpt><trkpt lat="47.26445648333333" lon="10.889669816666666"><ele>663.0</ele><time>2026-05-01T05:12:37.777Z</time></trkpt><trkpt lat="47.26453301666667" lon="10.890002799999998"><ele>660.5</ele><time>2026-05-01T05:12:38.772Z</time></trkpt><trkpt lat="47.26460496666667" lon="10.890344816666667"><ele>658.0</ele><time>2026-05-01T05:12:39.817Z</time></trkpt><trkpt lat="47.264677966666675" lon="10.890694283333335"><ele>657.0</ele><time>2026-05-01T05:12:40.785Z</time></trkpt><trkpt lat="47.26475093333334" lon="10.891050533333337"><ele>656.0</ele><time>2026-05-01T05:12:41.772Z</time></trkpt><trkpt lat="47.26482183333333" lon="10.891403483333333"><ele>659.5</ele><time>2026-05-01T05:12:42.79Z</time></trkpt><trkpt lat="47.264894999999996" lon="10.891755866666665"><ele>663.0</ele><time>2026-05-01T05:12:43.776Z</time></trkpt><trkpt lat="47.26497214999999" lon="10.892104883333333"><ele>663.0</ele><time>2026-05-01T05:12:44.772Z</time></trkpt><trkpt lat="47.26504895" lon="10.892449233333332"><ele>663.0</ele><time>2026-05-01T05:12:45.789Z</time></trkpt><trkpt lat="47.26512506666666" lon="10.892789133333334"><ele>661.0</ele><time>2026-05-01T05:12:46.774Z</time></trkpt><trkpt lat="47.265205699999996" lon="10.893125716666669"><ele>659.0</ele><time>2026-05-01T05:12:47.78Z</time></trkpt><trkpt lat="47.2652835" lon="10.89346675"><ele>657.5</ele><time>2026-05-01T05:12:48.801Z</time></trkpt><trkpt lat="47.26536313333333" lon="10.89379835"><ele>656.0</ele><time>2026-05-01T05:12:49.794Z</time></trkpt><trkpt lat="47.26544645" lon="10.894128350000003"><ele>657.0</ele><time>2026-05-01T05:12:50.774Z</time></trkpt><trkpt lat="47.265529799999996" lon="10.894456866666665"><ele>658.0</ele><time>2026-05-01T05:12:51.792Z</time></trkpt><trkpt lat="47.26561131666667" lon="10.894782833333332"><ele>658.6666666666667</ele><time>2026-05-01T05:12:52.772Z</time></trkpt><trkpt lat="47.265693516666666" lon="10.89509705"><ele>659.3333333333334</ele><time>2026-05-01T05:12:53.785Z</time></trkpt><trkpt lat="47.26577138333334" lon="10.895395933333335"><ele>660.0</ele><time>2026-05-01T05:12:54.792Z</time></trkpt><trkpt lat="47.26584533333333" lon="10.895675850000002"><ele>658.3333333333334</ele><time>2026-05-01T05:12:55.794Z</time></trkpt><trkpt lat="47.26591669999999" lon="10.895939933333333"><ele>656.6666666666667</ele><time>2026-05-01T05:12:56.777Z</time></trkpt><trkpt lat="47.26598701666667" lon="10.896187950000002"><ele>655.0</ele><time>2026-05-01T05:12:57.792Z</time></trkpt><trkpt lat="47.26605261666667" lon="10.89641795"><ele>655.0</ele><time>2026-05-01T05:12:58.794Z</time></trkpt><trkpt lat="47.26611788333333" lon="10.89663595"><ele>655.0</ele><time>2026-05-01T05:12:59.772Z</time></trkpt><trkpt lat="47.26617965" lon="10.896843466666667"><ele>655.0</ele><time>2026-05-01T05:13:00.789Z</time></trkpt><trkpt lat="47.26623858333334" lon="10.897040983333333"><ele>654.75</ele><time>2026-05-01T05:13:01.794Z</time></trkpt><trkpt lat="47.26629668333333" lon="10.897237050000001"><ele>654.5</ele><time>2026-05-01T05:13:02.778Z</time></trkpt><trkpt lat="47.26635593333333" lon="10.897438849999999"><ele>654.25</ele><time>2026-05-01T05:13:03.792Z</time></trkpt><trkpt lat="47.26641721666667" lon="10.897640249999998"><ele>654.0</ele><time>2026-05-01T05:13:04.773Z</time></trkpt><trkpt lat="47.26648061666667" lon="10.8978386"><ele>654.75</ele><time>2026-05-01T05:13:05.778Z</time></trkpt><trkpt lat="47.26654635" lon="10.898039516666666"><ele>655.5</ele><time>2026-05-01T05:13:06.789Z</time></trkpt><trkpt lat="47.26661093333333" lon="10.89823675"><ele>656.25</ele><time>2026-05-01T05:13:07.772Z</time></trkpt><trkpt lat="47.26667491666667" lon="10.898433966666667"><ele>657.0</ele><time>2026-05-01T05:13:08.785Z</time></trkpt><trkpt lat="47.26673801666667" lon="10.898635633333333"><ele>657.0</ele><time>2026-05-01T05:13:09.791Z</time></trkpt><trkpt lat="47.26680086666667" lon="10.898834866666666"><ele>657.0</ele><time>2026-05-01T05:13:10.795Z</time></trkpt><trkpt lat="47.2668648" lon="10.899034183333333"><ele>657.0</ele><time>2026-05-01T05:13:11.773Z</time></trkpt><trkpt lat="47.26692928333333" lon="10.899231883333336"><ele>657.0</ele><time>2026-05-01T05:13:12.791Z</time></trkpt><trkpt lat="47.26699628333334" lon="10.89942775"><ele>656.0</ele><time>2026-05-01T05:13:13.795Z</time></trkpt><trkpt lat="47.26706275" lon="10.899625399999998"><ele>655.0</ele><time>2026-05-01T05:13:14.78Z</time></trkpt><trkpt lat="47.26712811666666" lon="10.899823733333335"><ele>654.0</ele><time>2026-05-01T05:13:15.776Z</time></trkpt><trkpt lat="47.26719608333333" lon="10.900022833333333"><ele>655.0</ele><time>2026-05-01T05:13:16.794Z</time></trkpt><trkpt lat="47.26726801666667" lon="10.900225049999998"><ele>656.0</ele><time>2026-05-01T05:13:17.791Z</time></trkpt><trkpt lat="47.26734038333334" lon="10.900438366666666"><ele>657.0</ele><time>2026-05-01T05:13:18.774Z</time></trkpt><trkpt lat="47.26741901666666" lon="10.900661283333333"><ele>659.0</ele><time>2026-05-01T05:13:19.774Z</time></trkpt><trkpt lat="47.2675022" lon="10.90088825"><ele>661.0</ele><time>2026-05-01T05:13:20.775Z</time></trkpt><trkpt lat="47.2675821" lon="10.901115666666664"><ele>663.0</ele><time>2026-05-01T05:13:21.789Z</time></trkpt><trkpt lat="47.26766083333333" lon="10.901343733333333"><ele>663.0</ele><time>2026-05-01T05:13:22.777Z</time></trkpt><trkpt lat="47.267739" lon="10.901568333333334"><ele>663.0</ele><time>2026-05-01T05:13:23.775Z</time></trkpt><trkpt lat="47.2678201" lon="10.901788266666665"><ele>663.0</ele><time>2026-05-01T05:13:24.775Z</time></trkpt><trkpt lat="47.267903350000005" lon="10.902004199999999"><ele>662.6666666666666</ele><time>2026-05-01T05:13:25.778Z</time></trkpt><trkpt lat="47.26798685" lon="10.902218983333334"><ele>662.3333333333333</ele><time>2026-05-01T05:13:26.78Z</time></trkpt><trkpt lat="47.26806929999999" lon="10.902433933333334"><ele>662.0</ele><time>2026-05-01T05:13:27.793Z</time></trkpt><trkpt lat="47.26814939999999" lon="10.902648516666666"><ele>662.0</ele><time>2026-05-01T05:13:28.793Z</time></trkpt><trkpt lat="47.26823008333334" lon="10.902862699999998"><ele>662.0</ele><time>2026-05-01T05:13:29.794Z</time></trkpt><trkpt lat="47.26831035000001" lon="10.90308125"><ele>662.0</ele><time>2026-05-01T05:13:30.793Z</time></trkpt><trkpt lat="47.26839065000001" lon="10.9033048"><ele>660.3333333333333</ele><time>2026-05-01T05:13:31.796Z</time></trkpt><trkpt lat="47.26846950000001" lon="10.903528866666667"><ele>658.6666666666666</ele><time>2026-05-01T05:13:32.773Z</time></trkpt><trkpt lat="47.268542666666654" lon="10.903757599999999"><ele>657.0</ele><time>2026-05-01T05:13:33.791Z</time></trkpt><trkpt lat="47.268620083333325" lon="10.903985566666666"><ele>657.0</ele><time>2026-05-01T05:13:34.794Z</time></trkpt><trkpt lat="47.268709233333325" lon="10.904210399999998"><ele>657.0</ele><time>2026-05-01T05:13:35.775Z</time></trkpt><trkpt lat="47.26880678333334" lon="10.904441766666666"><ele>657.0</ele><time>2026-05-01T05:13:36.789Z</time></trkpt><trkpt lat="47.26890125" lon="10.904678566666666"><ele>660.3333333333334</ele><time>2026-05-01T05:13:37.774Z</time></trkpt><trkpt lat="47.26899196666667" lon="10.904913966666667"><ele>663.6666666666667</ele><time>2026-05-01T05:13:38.793Z</time></trkpt><trkpt lat="47.2690783" lon="10.905152050000002"><ele>667.0</ele><time>2026-05-01T05:13:39.789Z</time></trkpt><trkpt lat="47.269160250000006" lon="10.905391583333335"><ele>667.0</ele><time>2026-05-01T05:13:40.794Z</time></trkpt><trkpt lat="47.26924819999999" lon="10.905634233333334"><ele>667.0</ele><time>2026-05-01T05:13:41.785Z</time></trkpt><trkpt lat="47.26932631666667" lon="10.905890066666666"><ele>667.0</ele><time>2026-05-01T05:13:42.789Z</time></trkpt><trkpt lat="47.2694003" lon="10.906151816666666"><ele>665.0</ele><time>2026-05-01T05:13:43.782Z</time></trkpt><trkpt lat="47.26947816666667" lon="10.906406933333335"><ele>663.0</ele><time>2026-05-01T05:13:44.773Z</time></trkpt><trkpt lat="47.269554866666674" lon="10.906650649999998"><ele>661.0</ele><time>2026-05-01T05:13:45.793Z</time></trkpt><trkpt lat="47.26960906666666" lon="10.906883349999998"><ele>661.0</ele><time>2026-05-01T05:13:46.773Z</time></trkpt><trkpt lat="47.2696495" lon="10.907108433333335"><ele>661.0</ele><time>2026-05-01T05:13:47.79Z</time></trkpt><trkpt lat="47.26968825" lon="10.907329366666666"><ele>661.0</ele><time>2026-05-01T05:13:48.792Z</time></trkpt><trkpt lat="47.26972694999999" lon="10.907550066666667"><ele>661.3333333333334</ele><time>2026-05-01T05:13:49.778Z</time></trkpt><trkpt lat="47.26976570000001" lon="10.907770999999999"><ele>661.6666666666666</ele><time>2026-05-01T05:13:50.786Z</time></trkpt><trkpt lat="47.26980445000001" lon="10.907991933333335"><ele>662.0</ele><time>2026-05-01T05:13:51.774Z</time></trkpt><trkpt lat="47.2698432" lon="10.908212866666668"><ele>662.0</ele><time>2026-05-01T05:13:52.789Z</time></trkpt><trkpt lat="47.269881983333335" lon="10.908434016666668"><ele>662.0</ele><time>2026-05-01T05:13:53.786Z</time></trkpt><trkpt lat="47.26992068333334" lon="10.908654733333332"><ele>662.0</ele><time>2026-05-01T05:13:54.789Z</time></trkpt><trkpt lat="47.26995943333333" lon="10.908875666666665"><ele>662.0</ele><time>2026-05-01T05:13:55.778Z</time></trkpt><trkpt lat="47.26999818333334" lon="10.909096616666666"><ele>662.0</ele><time>2026-05-01T05:13:56.781Z</time></trkpt><trkpt lat="47.270036916666676" lon="10.909317566666669"><ele>662.0</ele><time>2026-05-01T05:13:57.789Z</time></trkpt><trkpt lat="47.27007566666666" lon="10.909538516666665"><ele>661.0</ele><time>2026-05-01T05:13:58.777Z</time></trkpt><trkpt lat="47.270114416666665" lon="10.909759466666666"><ele>660.0</ele><time>2026-05-01T05:13:59.773Z</time></trkpt><trkpt lat="47.27015316666666" lon="10.909980416666667"><ele>659.0</ele><time>2026-05-01T05:14:00.791Z</time></trkpt><trkpt lat="47.27019194999999" lon="10.910201583333333"><ele>659.0</ele><time>2026-05-01T05:14:01.782Z</time></trkpt><trkpt lat="47.270230649999995" lon="10.910422316666665"><ele>659.0</ele><time>2026-05-01T05:14:02.786Z</time></trkpt><trkpt lat="47.27026940000001" lon="10.910643266666666"><ele>659.0</ele><time>2026-05-01T05:14:03.789Z</time></trkpt><trkpt lat="47.27030818333333" lon="10.910864433333332"><ele>657.6666666666666</ele><time>2026-05-01T05:14:04.775Z</time></trkpt><trkpt lat="47.270346933333336" lon="10.911085383333333"><ele>656.3333333333334</ele><time>2026-05-01T05:14:05.789Z</time></trkpt><trkpt lat="47.27038563333334" lon="10.911306116666665"><ele>655.0</ele><time>2026-05-01T05:14:06.789Z</time></trkpt><trkpt lat="47.27042435" lon="10.91152685"><ele>654.3333333333334</ele><time>2026-05-01T05:14:07.771Z</time></trkpt><trkpt lat="47.27046313333333" lon="10.911748016666666"><ele>653.6666666666666</ele><time>2026-05-01T05:14:08.774Z</time></trkpt><trkpt lat="47.27050188333333" lon="10.911968966666665"><ele>653.0</ele><time>2026-05-01T05:14:09.789Z</time></trkpt><trkpt lat="47.27054063333333" lon="10.912189916666666"><ele>653.0</ele><time>2026-05-01T05:14:10.785Z</time></trkpt><trkpt lat="47.27057933333334" lon="10.91241065"><ele>653.0</ele><time>2026-05-01T05:14:11.775Z</time></trkpt><trkpt lat="47.27091293333333" lon="10.914190583333333"><ele>655.5</ele><time>2026-05-01T05:14:12.789Z</time></trkpt><trkpt lat="47.27086565" lon="10.914713316666667"><ele>658.0</ele><time>2026-05-01T05:14:13.778Z</time></trkpt><trkpt lat="47.2709065" lon="10.915012899999999"><ele>656.0</ele><time>2026-05-01T05:14:14.773Z</time></trkpt><trkpt lat="47.270949" lon="10.915299733333333"><ele>654.0</ele><time>2026-05-01T05:14:15.796Z</time></trkpt><trkpt lat="47.27099448333333" lon="10.915578550000001"><ele>652.0</ele><time>2026-05-01T05:14:16.793Z</time></trkpt><trkpt lat="47.27104606666667" lon="10.915848999999998"><ele>651.3333333333334</ele><time>2026-05-01T05:14:17.771Z</time></trkpt><trkpt lat="47.27110028333333" lon="10.916118400000002"><ele>650.6666666666666</ele><time>2026-05-01T05:14:18.788Z</time></trkpt><trkpt lat="47.27115925" lon="10.916383549999999"><ele>650.0</ele><time>2026-05-01T05:14:19.794Z</time></trkpt><trkpt lat="47.27121771666666" lon="10.916647333333332"><ele>649.0</ele><time>2026-05-01T05:14:20.785Z</time></trkpt><trkpt lat="47.27128096666667" lon="10.916908666666664"><ele>648.0</ele><time>2026-05-01T05:14:21.789Z</time></trkpt><trkpt lat="47.271342316666676" lon="10.917169883333333"><ele>647.0</ele><time>2026-05-01T05:14:22.773Z</time></trkpt><trkpt lat="47.27140808333334" lon="10.917429583333334"><ele>650.0</ele><time>2026-05-01T05:14:23.771Z</time></trkpt><trkpt lat="47.27147493333334" lon="10.917688883333335"><ele>653.0</ele><time>2026-05-01T05:14:24.814Z</time></trkpt><trkpt lat="47.27154361666667" lon="10.917948983333334"><ele>656.0</ele><time>2026-05-01T05:14:25.78Z</time></trkpt><trkpt lat="47.27161351666667" lon="10.918210783333333"><ele>654.3333333333333</ele><time>2026-05-01T05:14:26.77Z</time></trkpt><trkpt lat="47.271683166666655" lon="10.91847405"><ele>652.6666666666666</ele><time>2026-05-01T05:14:27.794Z</time></trkpt><trkpt lat="47.271754683333334" lon="10.918735499999999"><ele>651.0</ele><time>2026-05-01T05:14:28.773Z</time></trkpt><trkpt lat="47.271825199999995" lon="10.918996783333334"><ele>650.6666666666666</ele><time>2026-05-01T05:14:29.793Z</time></trkpt><trkpt lat="47.271889816666665" lon="10.919259683333333"><ele>650.3333333333333</ele><time>2026-05-01T05:14:30.79Z</time></trkpt><trkpt lat="47.27195271666666" lon="10.919526133333333"><ele>650.0</ele><time>2026-05-01T05:14:31.797Z</time></trkpt><trkpt lat="47.272015833333334" lon="10.9197916"><ele>650.0</ele><time>2026-05-01T05:14:32.774Z</time></trkpt><trkpt lat="47.27207906666666" lon="10.920053683333334"><ele>650.0</ele><time>2026-05-01T05:14:33.789Z</time></trkpt><trkpt lat="47.27214071666668" lon="10.920319533333334"><ele>650.0</ele><time>2026-05-01T05:14:34.773Z</time></trkpt><trkpt lat="47.27219491666666" lon="10.920594483333332"><ele>651.6666666666666</ele><time>2026-05-01T05:14:35.786Z</time></trkpt><trkpt lat="47.27224711666666" lon="10.920871783333332"><ele>653.3333333333334</ele><time>2026-05-01T05:14:36.789Z</time></trkpt><trkpt lat="47.27230323333334" lon="10.921144566666666"><ele>655.0</ele><time>2026-05-01T05:14:37.772Z</time></trkpt><trkpt lat="47.27235705" lon="10.92141688333333"><ele>655.0</ele><time>2026-05-01T05:14:38.773Z</time></trkpt><trkpt lat="47.27240781666666" lon="10.92169075"><ele>655.0</ele><time>2026-05-01T05:14:39.79Z</time></trkpt><trkpt lat="47.27245419999999" lon="10.921966533333332"><ele>655.0</ele><time>2026-05-01T05:14:40.772Z</time></trkpt><trkpt lat="47.272497933333334" lon="10.922243366666667"><ele>652.3333333333334</ele><time>2026-05-01T05:14:41.782Z</time></trkpt><trkpt lat="47.2725402" lon="10.922524300000001"><ele>649.6666666666666</ele><time>2026-05-01T05:14:42.773Z</time></trkpt><trkpt lat="47.272583233333336" lon="10.9228055"><ele>647.0</ele><time>2026-05-01T05:14:43.795Z</time></trkpt><trkpt lat="47.27262081666666" lon="10.923089016666665"><ele>647.0</ele><time>2026-05-01T05:14:44.776Z</time></trkpt><trkpt lat="47.27265976666666" lon="10.923370933333336"><ele>647.0</ele><time>2026-05-01T05:14:45.79Z</time></trkpt><trkpt lat="47.272696849999996" lon="10.923653866666665"><ele>647.0</ele><time>2026-05-01T05:14:46.795Z</time></trkpt><trkpt lat="47.272730550000006" lon="10.9239384"><ele>647.0</ele><time>2026-05-01T05:14:47.775Z</time></trkpt><trkpt lat="47.272762416666666" lon="10.9242237"><ele>647.0</ele><time>2026-05-01T05:14:48.789Z</time></trkpt><trkpt lat="47.272787799999996" lon="10.924508383333333"><ele>647.0</ele><time>2026-05-01T05:14:49.795Z</time></trkpt><trkpt lat="47.27281166666667" lon="10.924792166666668"><ele>647.3333333333333</ele><time>2026-05-01T05:14:50.771Z</time></trkpt><trkpt lat="47.272837033333325" lon="10.925074483333333"><ele>647.6666666666666</ele><time>2026-05-01T05:14:51.776Z</time></trkpt><trkpt lat="47.27285711666667" lon="10.925354966666665"><ele>648.0</ele><time>2026-05-01T05:14:52.78Z</time></trkpt><trkpt lat="47.272873733333334" lon="10.925636533333334"><ele>647.0</ele><time>2026-05-01T05:14:53.773Z</time></trkpt><trkpt lat="47.27288883333334" lon="10.925921249999998"><ele>646.0</ele><time>2026-05-01T05:14:54.789Z</time></trkpt><trkpt lat="47.27290419999999" lon="10.926206983333335"><ele>645.0</ele><time>2026-05-01T05:14:55.773Z</time></trkpt><trkpt lat="47.27291480000001" lon="10.926492866666667"><ele>645.0</ele><time>2026-05-01T05:14:56.776Z</time></trkpt><trkpt lat="47.272923283333334" lon="10.926778683333335"><ele>645.0</ele><time>2026-05-01T05:14:57.789Z</time></trkpt><trkpt lat="47.27292773333334" lon="10.927062866666667"><ele>645.0</ele><time>2026-05-01T05:14:58.789Z</time></trkpt><trkpt lat="47.27292953333334" lon="10.927346483333332"><ele>644.6666666666666</ele><time>2026-05-01T05:14:59.794Z</time></trkpt><trkpt lat="47.272928016666675" lon="10.92762905"><ele>644.3333333333333</ele><time>2026-05-01T05:15:00.771Z</time></trkpt><trkpt lat="47.27292581666667" lon="10.927912683333332"><ele>644.0</ele><time>2026-05-01T05:15:01.772Z</time></trkpt><trkpt lat="47.272919416666674" lon="10.928196283333333"><ele>644.3333333333333</ele><time>2026-05-01T05:15:02.787Z</time></trkpt><trkpt lat="47.27290926666666" lon="10.92848335"><ele>644.6666666666666</ele><time>2026-05-01T05:15:03.789Z</time></trkpt><trkpt lat="47.27289886666667" lon="10.928767266666666"><ele>645.0</ele><time>2026-05-01T05:15:04.794Z</time></trkpt><trkpt lat="47.272886316666664" lon="10.929051283333337"><ele>644.6666666666666</ele><time>2026-05-01T05:15:05.773Z</time></trkpt><trkpt lat="47.27287471666667" lon="10.929332116666668"><ele>644.3333333333333</ele><time>2026-05-01T05:15:06.79Z</time></trkpt><trkpt lat="47.27286215000001" lon="10.929613466666668"><ele>644.0</ele><time>2026-05-01T05:15:07.773Z</time></trkpt><trkpt lat="47.27284858333334" lon="10.929893550000001"><ele>644.3333333333333</ele><time>2026-05-01T05:15:08.774Z</time></trkpt><trkpt lat="47.272831399999994" lon="10.93017145"><ele>644.6666666666666</ele><time>2026-05-01T05:15:09.79Z</time></trkpt><trkpt lat="47.27281646666667" lon="10.930447766666669"><ele>645.0</ele><time>2026-05-01T05:15:10.794Z</time></trkpt><trkpt lat="47.272801216666664" lon="10.93072305"><ele>645.0</ele><time>2026-05-01T05:15:11.773Z</time></trkpt><trkpt lat="47.272786133333334" lon="10.930999366666667"><ele>645.0</ele><time>2026-05-01T05:15:12.789Z</time></trkpt><trkpt lat="47.272771733333336" lon="10.931274499999999"><ele>645.0</ele><time>2026-05-01T05:15:13.779Z</time></trkpt><trkpt lat="47.27275851666667" lon="10.931551083333332"><ele>644.3333333333334</ele><time>2026-05-01T05:15:14.795Z</time></trkpt><trkpt lat="47.27274978333333" lon="10.931826899999999"><ele>643.6666666666667</ele><time>2026-05-01T05:15:15.789Z</time></trkpt><trkpt lat="47.272740750000004" lon="10.932102200000001"><ele>643.0</ele><time>2026-05-01T05:15:16.794Z</time></trkpt><trkpt lat="47.27273613333333" lon="10.932377833333332"><ele>643.6666666666667</ele><time>2026-05-01T05:15:17.773Z</time></trkpt><trkpt lat="47.27274121666666" lon="10.932655283333334"><ele>644.3333333333334</ele><time>2026-05-01T05:15:18.789Z</time></trkpt><trkpt lat="47.27274983333333" lon="10.932936949999998"><ele>645.0</ele><time>2026-05-01T05:15:19.779Z</time></trkpt><trkpt lat="47.27276226666666" lon="10.933216366666667"><ele>644.0</ele><time>2026-05-01T05:15:20.774Z</time></trkpt><trkpt lat="47.27277774999999" lon="10.933494316666668"><ele>643.0</ele><time>2026-05-01T05:15:21.79Z</time></trkpt><trkpt lat="47.272796016666675" lon="10.933773866666668"><ele>642.0</ele><time>2026-05-01T05:15:22.771Z</time></trkpt><trkpt lat="47.27282056666667" lon="10.934052616666667"><ele>643.3333333333334</ele><time>2026-05-01T05:15:23.781Z</time></trkpt><trkpt lat="47.272849099999995" lon="10.934331333333333"><ele>644.6666666666667</ele><time>2026-05-01T05:15:24.79Z</time></trkpt><trkpt lat="47.27288010000001" lon="10.934612399999999"><ele>646.0</ele><time>2026-05-01T05:15:25.773Z</time></trkpt><trkpt lat="47.272912966666674" lon="10.934892683333333"><ele>646.0</ele><time>2026-05-01T05:15:26.776Z</time></trkpt><trkpt lat="47.272947633333324" lon="10.93516975"><ele>646.0</ele><time>2026-05-01T05:15:27.794Z</time></trkpt><trkpt lat="47.27298358333334" lon="10.935452549999999"><ele>646.0</ele><time>2026-05-01T05:15:28.773Z</time></trkpt><trkpt lat="47.273021066666665" lon="10.935732533333331"><ele>645.6666666666667</ele><time>2026-05-01T05:15:29.776Z</time></trkpt><trkpt lat="47.2730586" lon="10.936015533333332"><ele>645.3333333333334</ele><time>2026-05-01T05:15:30.79Z</time></trkpt><trkpt lat="47.2730934" lon="10.936301299999997"><ele>645.0</ele><time>2026-05-01T05:15:31.794Z</time></trkpt><trkpt lat="47.27312801666667" lon="10.936588749999999"><ele>644.0</ele><time>2026-05-01T05:15:32.783Z</time></trkpt><trkpt lat="47.27316055" lon="10.936873066666665"><ele>643.0</ele><time>2026-05-01T05:15:33.792Z</time></trkpt><trkpt lat="47.273190400000004" lon="10.937157933333333"><ele>642.0</ele><time>2026-05-01T05:15:34.78Z</time></trkpt><trkpt lat="47.273217800000005" lon="10.93744513333333"><ele>641.3333333333334</ele><time>2026-05-01T05:15:35.786Z</time></trkpt><trkpt lat="47.27324331666667" lon="10.937732333333333"><ele>640.6666666666667</ele><time>2026-05-01T05:15:36.79Z</time></trkpt><trkpt lat="47.273264350000005" lon="10.93802123333333"><ele>640.0</ele><time>2026-05-01T05:15:37.784Z</time></trkpt><trkpt lat="47.273283383333336" lon="10.938307833333333"><ele>641.0</ele><time>2026-05-01T05:15:38.773Z</time></trkpt><trkpt lat="47.27329795" lon="10.938595283333333"><ele>642.0</ele><time>2026-05-01T05:15:39.789Z</time></trkpt><trkpt lat="47.273309616666666" lon="10.938882216666665"><ele>643.0</ele><time>2026-05-01T05:15:40.795Z</time></trkpt><trkpt lat="47.27331891666666" lon="10.939170283333333"><ele>643.6666666666667</ele><time>2026-05-01T05:15:41.78Z</time></trkpt><trkpt lat="47.273326499999996" lon="10.939459350000002"><ele>644.3333333333334</ele><time>2026-05-01T05:15:42.79Z</time></trkpt><trkpt lat="47.27333156666667" lon="10.939749483333332"><ele>645.0</ele><time>2026-05-01T05:15:43.772Z</time></trkpt><trkpt lat="47.27333355000001" lon="10.9400364"><ele>644.6666666666666</ele><time>2026-05-01T05:15:44.782Z</time></trkpt><trkpt lat="47.27332861666667" lon="10.940325"><ele>644.3333333333333</ele><time>2026-05-01T05:15:45.79Z</time></trkpt><trkpt lat="47.27332218333333" lon="10.94061745"><ele>644.0</ele><time>2026-05-01T05:15:46.792Z</time></trkpt><trkpt lat="47.27331081666666" lon="10.94090605"><ele>645.3333333333333</ele><time>2026-05-01T05:15:47.793Z</time></trkpt><trkpt lat="47.27329711666666" lon="10.941196716666665"><ele>646.6666666666666</ele><time>2026-05-01T05:15:48.79Z</time></trkpt><trkpt lat="47.273280133333344" lon="10.941489166666669"><ele>648.0</ele><time>2026-05-01T05:15:49.773Z</time></trkpt><trkpt lat="47.273260933333326" lon="10.941776599999999"><ele>648.0</ele><time>2026-05-01T05:15:50.773Z</time></trkpt><trkpt lat="47.273237" lon="10.9420646"><ele>648.0</ele><time>2026-05-01T05:15:51.795Z</time></trkpt><trkpt lat="47.27320996666668" lon="10.942351533333333"><ele>648.0</ele><time>2026-05-01T05:15:52.787Z</time></trkpt><trkpt lat="47.273183249999995" lon="10.942639333333334"><ele>648.0</ele><time>2026-05-01T05:15:53.776Z</time></trkpt><trkpt lat="47.27315293333333" lon="10.942924566666667"><ele>648.0</ele><time>2026-05-01T05:15:54.79Z</time></trkpt><trkpt lat="47.27311803333333" lon="10.943211416666669"><ele>648.0</ele><time>2026-05-01T05:15:55.773Z</time></trkpt><trkpt lat="47.27307958333334" lon="10.943498833333335"><ele>647.6666666666666</ele><time>2026-05-01T05:15:56.771Z</time></trkpt><trkpt lat="47.27304146666667" lon="10.943782066666666"><ele>647.3333333333333</ele><time>2026-05-01T05:15:57.79Z</time></trkpt><trkpt lat="47.27299936666667" lon="10.944064466666669"><ele>647.0</ele><time>2026-05-01T05:15:58.777Z</time></trkpt><trkpt lat="47.27295291666666" lon="10.94434685"><ele>647.0</ele><time>2026-05-01T05:15:59.773Z</time></trkpt><trkpt lat="47.27290386666667" lon="10.944624849999999"><ele>647.0</ele><time>2026-05-01T05:16:00.802Z</time></trkpt><trkpt lat="47.272855083333326" lon="10.944900283333334"><ele>647.0</ele><time>2026-05-01T05:16:01.808Z</time></trkpt><trkpt lat="47.27280341666666" lon="10.945176583333334"><ele>646.3333333333333</ele><time>2026-05-01T05:16:02.786Z</time></trkpt><trkpt lat="47.27274966666668" lon="10.94545115"><ele>645.6666666666666</ele><time>2026-05-01T05:16:03.792Z</time></trkpt><trkpt lat="47.27269618333334" lon="10.945725233333334"><ele>645.0</ele><time>2026-05-01T05:16:04.772Z</time></trkpt><trkpt lat="47.2726433" lon="10.945998516666668"><ele>645.0</ele><time>2026-05-01T05:16:05.79Z</time></trkpt><trkpt lat="47.27259023333333" lon="10.946272983333333"><ele>645.0</ele><time>2026-05-01T05:16:06.789Z</time></trkpt><trkpt lat="47.272536966666664" lon="10.946549016666665"><ele>645.0</ele><time>2026-05-01T05:16:07.773Z</time></trkpt><trkpt lat="47.272482450000005" lon="10.946824666666664"><ele>645.3333333333334</ele><time>2026-05-01T05:16:08.776Z</time></trkpt><trkpt lat="47.27242943333334" lon="10.947102116666667"><ele>645.6666666666667</ele><time>2026-05-01T05:16:09.79Z</time></trkpt><trkpt lat="47.27238268333333" lon="10.947377116666667"><ele>646.0</ele><time>2026-05-01T05:16:10.784Z</time></trkpt><trkpt lat="47.27233911666667" lon="10.947655983333334"><ele>645.6666666666667</ele><time>2026-05-01T05:16:11.773Z</time></trkpt><trkpt lat="47.27230115000001" lon="10.947935183333334"><ele>645.3333333333334</ele><time>2026-05-01T05:16:12.79Z</time></trkpt><trkpt lat="47.272268" lon="10.948214433333332"><ele>645.0</ele><time>2026-05-01T05:16:13.773Z</time></trkpt><trkpt lat="47.272240016666665" lon="10.948494716666668"><ele>645.0</ele><time>2026-05-01T05:16:14.795Z</time></trkpt><trkpt lat="47.272218766666676" lon="10.948775000000001"><ele>645.0</ele><time>2026-05-01T05:16:15.79Z</time></trkpt><trkpt lat="47.27220091666666" lon="10.949058433333335"><ele>645.0</ele><time>2026-05-01T05:16:16.797Z</time></trkpt><trkpt lat="47.272188533333335" lon="10.949340749999998"><ele>644.6666666666666</ele><time>2026-05-01T05:16:17.776Z</time></trkpt><trkpt lat="47.2721811" lon="10.949623783333335"><ele>644.3333333333333</ele><time>2026-05-01T05:16:18.777Z</time></trkpt><trkpt lat="47.272178749999995" lon="10.949909166666666"><ele>644.0</ele><time>2026-05-01T05:16:19.787Z</time></trkpt><trkpt lat="47.27218116666666" lon="10.950193933333333"><ele>644.0</ele><time>2026-05-01T05:16:20.786Z</time></trkpt><trkpt lat="47.27218773333334" lon="10.95047915"><ele>644.0</ele><time>2026-05-01T05:16:21.789Z</time></trkpt><trkpt lat="47.27219923333334" lon="10.950765950000001"><ele>644.0</ele><time>2026-05-01T05:16:22.774Z</time></trkpt><trkpt lat="47.27221513333334" lon="10.951050433333334"><ele>644.0</ele><time>2026-05-01T05:16:23.802Z</time></trkpt><trkpt lat="47.272240833333335" lon="10.951330433333332"><ele>644.0</ele><time>2026-05-01T05:16:24.791Z</time></trkpt><trkpt lat="47.27227211666667" lon="10.951612766666663"><ele>644.0</ele><time>2026-05-01T05:16:25.794Z</time></trkpt><trkpt lat="47.27230716666666" lon="10.951894733333331"><ele>643.3333333333333</ele><time>2026-05-01T05:16:26.776Z</time></trkpt><trkpt lat="47.27234683333332" lon="10.952176066666668"><ele>642.6666666666666</ele><time>2026-05-01T05:16:27.775Z</time></trkpt><trkpt lat="47.272391816666676" lon="10.952455783333335"><ele>642.0</ele><time>2026-05-01T05:16:28.781Z</time></trkpt><trkpt lat="47.27244043333333" lon="10.952735566666668"><ele>642.0</ele><time>2026-05-01T05:16:29.795Z</time></trkpt><trkpt lat="47.27249368333334" lon="10.9530111"><ele>642.0</ele><time>2026-05-01T05:16:30.79Z</time></trkpt><trkpt lat="47.27255279999999" lon="10.953285716666668"><ele>642.0</ele><time>2026-05-01T05:16:31.773Z</time></trkpt><trkpt lat="47.27261688333333" lon="10.953561933333333"><ele>642.0</ele><time>2026-05-01T05:16:32.776Z</time></trkpt><trkpt lat="47.2726886" lon="10.953834916666667"><ele>642.0</ele><time>2026-05-01T05:16:33.793Z</time></trkpt><trkpt lat="47.27276711666667" lon="10.954102516666667"><ele>642.0</ele><time>2026-05-01T05:16:34.795Z</time></trkpt><trkpt lat="47.27285131666666" lon="10.954367816666668"><ele>642.3333333333334</ele><time>2026-05-01T05:16:35.78Z</time></trkpt><trkpt lat="47.272937133333336" lon="10.954628649999998"><ele>642.6666666666667</ele><time>2026-05-01T05:16:36.773Z</time></trkpt><trkpt lat="47.273027" lon="10.954887599999998"><ele>643.0</ele><time>2026-05-01T05:16:37.773Z</time></trkpt><trkpt lat="47.273121933333336" lon="10.955142816666667"><ele>643.0</ele><time>2026-05-01T05:16:38.771Z</time></trkpt><trkpt lat="47.27322243333333" lon="10.955391200000001"><ele>643.0</ele><time>2026-05-01T05:16:39.775Z</time></trkpt><trkpt lat="47.27332633333334" lon="10.955634300000002"><ele>643.0</ele><time>2026-05-01T05:16:40.797Z</time></trkpt><trkpt lat="47.2734336" lon="10.955869883333332"><ele>643.0</ele><time>2026-05-01T05:16:41.772Z</time></trkpt><trkpt lat="47.27354436666666" lon="10.9561"><ele>643.0</ele><time>2026-05-01T05:16:42.772Z</time></trkpt><trkpt lat="47.27365928333334" lon="10.956324133333332"><ele>643.0</ele><time>2026-05-01T05:16:43.78Z</time></trkpt><trkpt lat="47.27377853333334" lon="10.95655095"><ele>643.0</ele><time>2026-05-01T05:16:44.773Z</time></trkpt><trkpt lat="47.27389889999999" lon="10.956770066666666"><ele>643.0</ele><time>2026-05-01T05:16:45.792Z</time></trkpt><trkpt lat="47.274024633333326" lon="10.956984616666666"><ele>643.0</ele><time>2026-05-01T05:16:46.78Z</time></trkpt><trkpt lat="47.27415836666667" lon="10.957194983333332"><ele>643.0</ele><time>2026-05-01T05:16:47.793Z</time></trkpt><trkpt lat="47.274293050000004" lon="10.957399216666666"><ele>643.0</ele><time>2026-05-01T05:16:48.792Z</time></trkpt><trkpt lat="47.27443305" lon="10.957600099999997"><ele>643.0</ele><time>2026-05-01T05:16:49.795Z</time></trkpt><trkpt lat="47.2745731" lon="10.957797533333334"><ele>643.0</ele><time>2026-05-01T05:16:50.792Z</time></trkpt><trkpt lat="47.27471393333333" lon="10.957995283333332"><ele>643.0</ele><time>2026-05-01T05:16:51.774Z</time></trkpt><trkpt lat="47.27485421666667" lon="10.958189166666667"><ele>643.0</ele><time>2026-05-01T05:16:52.777Z</time></trkpt><trkpt lat="47.274997150000004" lon="10.958382433333334"><ele>642.6666666666667</ele><time>2026-05-01T05:16:53.79Z</time></trkpt><trkpt lat="47.27515611551699" lon="10.95854700807158"><ele>642.3333333333334</ele><time>2026-05-01T05:16:54.792Z</time></trkpt><trkpt lat="47.275306796486426" lon="10.95872852706315"><ele>642.0</ele><time>2026-05-01T05:16:55.804Z</time></trkpt><trkpt lat="47.27545693200679" lon="10.958908214258749"><ele>642.0</ele><time>2026-05-01T05:16:56.775Z</time></trkpt><trkpt lat="47.27561089011588" lon="10.959086775075438"><ele>642.0</ele><time>2026-05-01T05:16:57.79Z</time></trkpt><trkpt lat="47.275764310588094" lon="10.95926471329688"><ele>642.0</ele><time>2026-05-01T05:16:58.795Z</time></trkpt><trkpt lat="47.275906600000006" lon="10.959461633333333"><ele>641.3333333333334</ele><time>2026-05-01T05:16:59.784Z</time></trkpt><trkpt lat="47.27606198333333" lon="10.959636"><ele>640.6666666666667</ele><time>2026-05-01T05:17:00.793Z</time></trkpt><trkpt lat="47.27621493333333" lon="10.959808549999998"><ele>640.0</ele><time>2026-05-01T05:17:01.795Z</time></trkpt><trkpt lat="47.276368500000004" lon="10.959986800000001"><ele>641.3333333333334</ele><time>2026-05-01T05:17:02.787Z</time></trkpt><trkpt lat="47.27651835" lon="10.96016955"><ele>642.6666666666666</ele><time>2026-05-01T05:17:03.774Z</time></trkpt><trkpt lat="47.276668216666664" lon="10.960356449999999"><ele>644.0</ele><time>2026-05-01T05:17:04.782Z</time></trkpt><trkpt lat="47.276819800000006" lon="10.960553266666667"><ele>644.0</ele><time>2026-05-01T05:17:05.774Z</time></trkpt><trkpt lat="47.27697459999999" lon="10.960766583333333"><ele>644.0</ele><time>2026-05-01T05:17:06.79Z</time></trkpt><trkpt lat="47.27713045" lon="10.960996733333333"><ele>644.0</ele><time>2026-05-01T05:17:07.782Z</time></trkpt><trkpt lat="47.27728975" lon="10.961242533333332"><ele>645.0</ele><time>2026-05-01T05:17:08.783Z</time></trkpt><trkpt lat="47.27745558333333" lon="10.9615035"><ele>646.0</ele><time>2026-05-01T05:17:09.79Z</time></trkpt><trkpt lat="47.27762696666667" lon="10.961784933333336"><ele>646.5</ele><time>2026-05-01T05:17:10.772Z</time></trkpt><trkpt lat="47.27779998333334" lon="10.9620935"><ele>647.0</ele><time>2026-05-01T05:17:11.775Z</time></trkpt><trkpt lat="47.27797296666666" lon="10.962425399999999"><ele>644.5</ele><time>2026-05-01T05:17:12.79Z</time></trkpt><trkpt lat="47.27814695" lon="10.962787866666666"><ele>642.0</ele><time>2026-05-01T05:17:13.787Z</time></trkpt><trkpt lat="47.27831801666667" lon="10.963171266666667"><ele>641.0</ele><time>2026-05-01T05:17:14.787Z</time></trkpt><trkpt lat="47.27848041666666" lon="10.963562616666666"><ele>640.0</ele><time>2026-05-01T05:17:15.79Z</time></trkpt><trkpt lat="47.27863116666667" lon="10.963960716666667"><ele>640.0</ele><time>2026-05-01T05:17:16.795Z</time></trkpt><trkpt lat="47.27877495" lon="10.964361816666667"><ele>640.0</ele><time>2026-05-01T05:17:17.773Z</time></trkpt><trkpt lat="47.27891678333334" lon="10.964760866666664"><ele>640.0</ele><time>2026-05-01T05:17:18.791Z</time></trkpt><trkpt lat="47.2790592" lon="10.965156750000002"><ele>640.0</ele><time>2026-05-01T05:17:19.783Z</time></trkpt><trkpt lat="47.27920276666667" lon="10.96555395"><ele>638.0</ele><time>2026-05-01T05:17:20.793Z</time></trkpt><trkpt lat="47.279347599999994" lon="10.96595125"><ele>636.0</ele><time>2026-05-01T05:17:21.79Z</time></trkpt><trkpt lat="47.27949741666666" lon="10.966341250000001"><ele>637.0</ele><time>2026-05-01T05:17:22.785Z</time></trkpt><trkpt lat="47.279651066666666" lon="10.966725483333335"><ele>638.0</ele><time>2026-05-01T05:17:23.775Z</time></trkpt><trkpt lat="47.27980848333333" lon="10.967106816666668"><ele>637.5</ele><time>2026-05-01T05:17:24.793Z</time></trkpt><trkpt lat="47.27996908333333" lon="10.967481233333334"><ele>637.0</ele><time>2026-05-01T05:17:25.795Z</time></trkpt><trkpt lat="47.280131833333336" lon="10.967852083333332"><ele>637.0</ele><time>2026-05-01T05:17:26.774Z</time></trkpt><trkpt lat="47.28029788333333" lon="10.968220483333335"><ele>637.0</ele><time>2026-05-01T05:17:27.797Z</time></trkpt><trkpt lat="47.280471516666665" lon="10.968584483333332"><ele>637.5</ele><time>2026-05-01T05:17:28.78Z</time></trkpt><trkpt lat="47.2806505" lon="10.968944050000001"><ele>638.0</ele><time>2026-05-01T05:17:29.774Z</time></trkpt><trkpt lat="47.2808309" lon="10.969298516666667"><ele>638.0</ele><time>2026-05-01T05:17:30.793Z</time></trkpt><trkpt lat="47.28101095" lon="10.969653133333335"><ele>638.0</ele><time>2026-05-01T05:17:31.795Z</time></trkpt><trkpt lat="47.28119103333333" lon="10.970010583333332"><ele>639.0</ele><time>2026-05-01T05:17:32.791Z</time></trkpt><trkpt lat="47.281368199999996" lon="10.97036905"><ele>640.0</ele><time>2026-05-01T05:17:33.791Z</time></trkpt><trkpt lat="47.281545466666664" lon="10.970729883333336"><ele>640.0</ele><time>2026-05-01T05:17:34.797Z</time></trkpt><trkpt lat="47.28171875" lon="10.971095683333333"><ele>640.0</ele><time>2026-05-01T05:17:35.774Z</time></trkpt><trkpt lat="47.28188968333334" lon="10.971464266666667"><ele>638.5</ele><time>2026-05-01T05:17:36.815Z</time></trkpt><trkpt lat="47.282058516666666" lon="10.971835116666668"><ele>637.0</ele><time>2026-05-01T05:17:37.781Z</time></trkpt><trkpt lat="47.282222383333334" lon="10.972209983333336"><ele>641.5</ele><time>2026-05-01T05:17:38.78Z</time></trkpt><trkpt lat="47.28237915" lon="10.972585583333334"><ele>646.0</ele><time>2026-05-01T05:17:39.79Z</time></trkpt><trkpt lat="47.28252935" lon="10.972969133333335"><ele>642.5</ele><time>2026-05-01T05:17:40.795Z</time></trkpt><trkpt lat="47.28267640000001" lon="10.973358883333333"><ele>639.0</ele><time>2026-05-01T05:17:41.778Z</time></trkpt><trkpt lat="47.2828197" lon="10.973756083333335"><ele>639.0</ele><time>2026-05-01T05:17:42.792Z</time></trkpt><trkpt lat="47.282960083333336" lon="10.974150650000002"><ele>639.0</ele><time>2026-05-01T05:17:43.774Z</time></trkpt><trkpt lat="47.28309731666666" lon="10.974544299999998"><ele>638.0</ele><time>2026-05-01T05:17:44.774Z</time></trkpt><trkpt lat="47.28323056666667" lon="10.974940766666668"><ele>637.0</ele><time>2026-05-01T05:17:45.79Z</time></trkpt><trkpt lat="47.2833606" lon="10.975341583333332"><ele>637.0</ele><time>2026-05-01T05:17:46.795Z</time></trkpt><trkpt lat="47.28348536666667" lon="10.975747516666669"><ele>637.0</ele><time>2026-05-01T05:17:47.787Z</time></trkpt><trkpt lat="47.28360275" lon="10.976154350000002"><ele>637.0</ele><time>2026-05-01T05:17:48.791Z</time></trkpt><trkpt lat="47.28371448333334" lon="10.976566883333332"><ele>637.0</ele><time>2026-05-01T05:17:49.774Z</time></trkpt><trkpt lat="47.283819750000006" lon="10.976983566666668"><ele>637.0</ele><time>2026-05-01T05:17:50.775Z</time></trkpt><trkpt lat="47.283920766666675" lon="10.977401266666666"><ele>637.0</ele><time>2026-05-01T05:17:51.79Z</time></trkpt><trkpt lat="47.2840167" lon="10.977821283333332"><ele>637.5</ele><time>2026-05-01T05:17:52.775Z</time></trkpt><trkpt lat="47.284106400000006" lon="10.978244233333333"><ele>638.0</ele><time>2026-05-01T05:17:53.781Z</time></trkpt><trkpt lat="47.2841937" lon="10.978669649999999"><ele>638.0</ele><time>2026-05-01T05:17:54.777Z</time></trkpt><trkpt lat="47.2842744" lon="10.979097116666665"><ele>638.0</ele><time>2026-05-01T05:17:55.773Z</time></trkpt><trkpt lat="47.284356583333334" lon="10.979530133333332"><ele>637.5</ele><time>2026-05-01T05:17:56.786Z</time></trkpt><trkpt lat="47.28443346666666" lon="10.979963283333333"><ele>637.0</ele><time>2026-05-01T05:17:57.788Z</time></trkpt><trkpt lat="47.28450455000001" lon="10.980398199999998"><ele>636.5</ele><time>2026-05-01T05:17:58.774Z</time></trkpt><trkpt lat="47.28456731666667" lon="10.980837766666665"><ele>636.0</ele><time>2026-05-01T05:17:59.804Z</time></trkpt><trkpt lat="47.284628000000005" lon="10.981279949999998"><ele>635.5</ele><time>2026-05-01T05:18:00.786Z</time></trkpt><trkpt lat="47.284686516666675" lon="10.98172268333333"><ele>635.0</ele><time>2026-05-01T05:18:01.792Z</time></trkpt><trkpt lat="47.284742683333334" lon="10.98216795"><ele>634.5</ele><time>2026-05-01T05:18:02.787Z</time></trkpt><trkpt lat="47.28479730000001" lon="10.982613966666667"><ele>634.0</ele><time>2026-05-01T05:18:03.797Z</time></trkpt><trkpt lat="47.28484973333334" lon="10.983060833333331"><ele>635.5</ele><time>2026-05-01T05:18:04.791Z</time></trkpt><trkpt lat="47.284902116666665" lon="10.983505833333334"><ele>637.0</ele><time>2026-05-01T05:18:05.787Z</time></trkpt><trkpt lat="47.284951766666666" lon="10.983949616666667"><ele>637.0</ele><time>2026-05-01T05:18:06.786Z</time></trkpt><trkpt lat="47.28500505" lon="10.984393483333333"><ele>637.0</ele><time>2026-05-01T05:18:07.774Z</time></trkpt><trkpt lat="47.285056749999995" lon="10.984836766666668"><ele>636.0</ele><time>2026-05-01T05:18:08.789Z</time></trkpt><trkpt lat="47.285109883333334" lon="10.985278733333333"><ele>635.0</ele><time>2026-05-01T05:18:09.787Z</time></trkpt><trkpt lat="47.28516416666666" lon="10.985719066666665"><ele>635.5</ele><time>2026-05-01T05:18:10.792Z</time></trkpt><trkpt lat="47.285218533333335" lon="10.986157066666665"><ele>636.0</ele><time>2026-05-01T05:18:11.786Z</time></trkpt><trkpt lat="47.28527528333334" lon="10.986592433333334"><ele>635.5</ele><time>2026-05-01T05:18:12.787Z</time></trkpt><trkpt lat="47.285334666666664" lon="10.987025133333335"><ele>635.0</ele><time>2026-05-01T05:18:13.791Z</time></trkpt><trkpt lat="47.285396516666665" lon="10.987452883333333"><ele>634.0</ele><time>2026-05-01T05:18:14.787Z</time></trkpt><trkpt lat="47.28545975" lon="10.987877733333335"><ele>633.0</ele><time>2026-05-01T05:18:15.786Z</time></trkpt><trkpt lat="47.28552338333334" lon="10.9883012"><ele>633.0</ele><time>2026-05-01T05:18:16.79Z</time></trkpt><trkpt lat="47.285588216666675" lon="10.988726049999999"><ele>633.0</ele><time>2026-05-01T05:18:17.795Z</time></trkpt><trkpt lat="47.2856534" lon="10.989149066666668"><ele>634.5</ele><time>2026-05-01T05:18:18.788Z</time></trkpt><trkpt lat="47.28572196666667" lon="10.989570816666665"><ele>636.0</ele><time>2026-05-01T05:18:19.794Z</time></trkpt><trkpt lat="47.285793749999996" lon="10.989991633333332"><ele>637.5</ele><time>2026-05-01T05:18:20.787Z</time></trkpt><trkpt lat="47.285865616666655" lon="10.990414416666665"><ele>639.0</ele><time>2026-05-01T05:18:21.788Z</time></trkpt><trkpt lat="47.28593908333334" lon="10.990836583333332"><ele>639.0</ele><time>2026-05-01T05:18:22.772Z</time></trkpt><trkpt lat="47.28601480000001" lon="10.991259983333336"><ele>639.0</ele><time>2026-05-01T05:18:23.789Z</time></trkpt><trkpt lat="47.286091400000004" lon="10.991680683333334"><ele>638.5</ele><time>2026-05-01T05:18:24.787Z</time></trkpt><trkpt lat="47.28616666666667" lon="10.992103650000002"><ele>638.0</ele><time>2026-05-01T05:18:25.792Z</time></trkpt><trkpt lat="47.28623965" lon="10.992527466666663"><ele>637.5</ele><time>2026-05-01T05:18:26.793Z</time></trkpt><trkpt lat="47.28631225000001" lon="10.992950016666668"><ele>637.0</ele><time>2026-05-01T05:18:27.787Z</time></trkpt><trkpt lat="47.28638655" lon="10.993370983333334"><ele>637.5</ele><time>2026-05-01T05:18:28.793Z</time></trkpt><trkpt lat="47.286463283333326" lon="10.993791366666668"><ele>638.0</ele><time>2026-05-01T05:18:29.791Z</time></trkpt><trkpt lat="47.286538416666666" lon="10.994212483333333"><ele>638.5</ele><time>2026-05-01T05:18:30.789Z</time></trkpt><trkpt lat="47.28661371666667" lon="10.994633666666669"><ele>639.0</ele><time>2026-05-01T05:18:31.813Z</time></trkpt><trkpt lat="47.28669271666666" lon="10.995052516666666"><ele>639.0</ele><time>2026-05-01T05:18:32.787Z</time></trkpt><trkpt lat="47.28677116666666" lon="10.995472416666667"><ele>639.0</ele><time>2026-05-01T05:18:33.788Z</time></trkpt><trkpt lat="47.28684836666667" lon="10.995889450000002"><ele>638.0</ele><time>2026-05-01T05:18:34.774Z</time></trkpt><trkpt lat="47.28692435" lon="10.996308683333332"><ele>637.0</ele><time>2026-05-01T05:18:35.787Z</time></trkpt><trkpt lat="47.287000850000005" lon="10.996725833333334"><ele>637.0</ele><time>2026-05-01T05:18:36.786Z</time></trkpt><trkpt lat="47.28707418333333" lon="10.997140950000002"><ele>637.0</ele><time>2026-05-01T05:18:37.775Z</time></trkpt><trkpt lat="47.28714873333333" lon="10.997556066666666"><ele>636.0</ele><time>2026-05-01T05:18:38.786Z</time></trkpt><trkpt lat="47.28722506666666" lon="10.99797115"><ele>635.0</ele><time>2026-05-01T05:18:39.789Z</time></trkpt><trkpt lat="47.287299299999994" lon="10.998386716666667"><ele>635.0</ele><time>2026-05-01T05:18:40.782Z</time></trkpt><trkpt lat="47.28737233333333" lon="10.998802633333332"><ele>635.0</ele><time>2026-05-01T05:18:41.787Z</time></trkpt><trkpt lat="47.28744616666666" lon="10.999217199999999"><ele>635.0</ele><time>2026-05-01T05:18:42.787Z</time></trkpt><trkpt lat="47.28751963333334" lon="10.999635133333335"><ele>635.0</ele><time>2026-05-01T05:18:43.773Z</time></trkpt><trkpt lat="47.28759298333333" lon="11.000051083333334"><ele>635.0</ele><time>2026-05-01T05:18:44.788Z</time></trkpt><trkpt lat="47.28766851666666" lon="11.000466433333333"><ele>635.0</ele><time>2026-05-01T05:18:45.787Z</time></trkpt><trkpt lat="47.28774270000001" lon="11.000882466666667"><ele>633.5</ele><time>2026-05-01T05:18:46.774Z</time></trkpt><trkpt lat="47.287817" lon="11.001294983333333"><ele>632.0</ele><time>2026-05-01T05:18:47.789Z</time></trkpt><trkpt lat="47.28789113333334" lon="11.001708133333333"><ele>631.5</ele><time>2026-05-01T05:18:48.787Z</time></trkpt><trkpt lat="47.28796428333333" lon="11.00212215"><ele>631.0</ele><time>2026-05-01T05:18:49.782Z</time></trkpt><trkpt lat="47.288037100000004" lon="11.002535266666667"><ele>632.5</ele><time>2026-05-01T05:18:50.786Z</time></trkpt><trkpt lat="47.28810923333334" lon="11.002949566666667"><ele>634.0</ele><time>2026-05-01T05:18:51.791Z</time></trkpt><trkpt lat="47.28818254999999" lon="11.003360566666666"><ele>634.0</ele><time>2026-05-01T05:18:52.773Z</time></trkpt><trkpt lat="47.288254566666666" lon="11.003768749999999"><ele>634.0</ele><time>2026-05-01T05:18:53.79Z</time></trkpt><trkpt lat="47.28832576666667" lon="11.004175783333336"><ele>632.5</ele><time>2026-05-01T05:18:54.778Z</time></trkpt><trkpt lat="47.288399" lon="11.004579733333333"><ele>631.0</ele><time>2026-05-01T05:18:55.794Z</time></trkpt><trkpt lat="47.28847593333333" lon="11.004985983333333"><ele>631.5</ele><time>2026-05-01T05:18:56.787Z</time></trkpt><trkpt lat="47.288556866666674" lon="11.005385650000001"><ele>632.0</ele><time>2026-05-01T05:18:57.792Z</time></trkpt><trkpt lat="47.28863733333333" lon="11.005785533333334"><ele>632.0</ele><time>2026-05-01T05:18:58.774Z</time></trkpt><trkpt lat="47.28871253333333" lon="11.006187766666669"><ele>632.0</ele><time>2026-05-01T05:18:59.786Z</time></trkpt><trkpt lat="47.28878561666667" lon="11.006591833333333"><ele>632.0</ele><time>2026-05-01T05:19:00.788Z</time></trkpt><trkpt lat="47.288860066666665" lon="11.006996699999998"><ele>632.0</ele><time>2026-05-01T05:19:01.791Z</time></trkpt><trkpt lat="47.2889362" lon="11.007407616666669"><ele>633.0</ele><time>2026-05-01T05:19:02.791Z</time></trkpt><trkpt lat="47.28901156666667" lon="11.007819216666666"><ele>634.0</ele><time>2026-05-01T05:19:03.792Z</time></trkpt><trkpt lat="47.289084450000004" lon="11.008236499999999"><ele>634.0</ele><time>2026-05-01T05:19:04.774Z</time></trkpt><trkpt lat="47.28915885" lon="11.008655133333333"><ele>634.0</ele><time>2026-05-01T05:19:05.787Z</time></trkpt><trkpt lat="47.289235516666665" lon="11.009070833333332"><ele>633.5</ele><time>2026-05-01T05:19:06.789Z</time></trkpt><trkpt lat="47.2893116" lon="11.009490783333336"><ele>633.0</ele><time>2026-05-01T05:19:07.793Z</time></trkpt><trkpt lat="47.28938763333334" lon="11.00990535"><ele>632.5</ele><time>2026-05-01T05:19:08.787Z</time></trkpt><trkpt lat="47.289464583333334" lon="11.01032055"><ele>632.0</ele><time>2026-05-01T05:19:09.788Z</time></trkpt><trkpt lat="47.28954105" lon="11.010733333333333"><ele>630.5</ele><time>2026-05-01T05:19:10.792Z</time></trkpt><trkpt lat="47.2896142" lon="11.011148749999998"><ele>629.0</ele><time>2026-05-01T05:19:11.772Z</time></trkpt><trkpt lat="47.28968511666667" lon="11.011559499999999"><ele>630.5</ele><time>2026-05-01T05:19:12.795Z</time></trkpt><trkpt lat="47.28976076666666" lon="11.011971233333334"><ele>632.0</ele><time>2026-05-01T05:19:13.792Z</time></trkpt><trkpt lat="47.2898434" lon="11.0123735"><ele>632.0</ele><time>2026-05-01T05:19:14.788Z</time></trkpt><trkpt lat="47.28993083333333" lon="11.012776983333334"><ele>632.0</ele><time>2026-05-01T05:19:15.788Z</time></trkpt><trkpt lat="47.29002116666667" lon="11.013180933333334"><ele>631.5</ele><time>2026-05-01T05:19:16.795Z</time></trkpt><trkpt lat="47.29011171666666" lon="11.013589733333333"><ele>631.0</ele><time>2026-05-01T05:19:17.789Z</time></trkpt><trkpt lat="47.290204849999995" lon="11.0140039"><ele>630.0</ele><time>2026-05-01T05:19:18.788Z</time></trkpt><trkpt lat="47.29030395" lon="11.014416183333333"><ele>629.0</ele><time>2026-05-01T05:19:19.793Z</time></trkpt><trkpt lat="47.290403266666665" lon="11.014830616666664"><ele>629.5</ele><time>2026-05-01T05:19:20.786Z</time></trkpt><trkpt lat="47.290508116666665" lon="11.015245316666668"><ele>630.0</ele><time>2026-05-01T05:19:21.788Z</time></trkpt><trkpt lat="47.290612716666665" lon="11.015657899999999"><ele>630.0</ele><time>2026-05-01T05:19:22.794Z</time></trkpt><trkpt lat="47.29071966666667" lon="11.0160721"><ele>630.0</ele><time>2026-05-01T05:19:23.795Z</time></trkpt><trkpt lat="47.29082608333333" lon="11.016489216666665"><ele>630.5</ele><time>2026-05-01T05:19:24.791Z</time></trkpt><trkpt lat="47.29093593333334" lon="11.016903983333334"><ele>631.0</ele><time>2026-05-01T05:19:25.774Z</time></trkpt><trkpt lat="47.29104768333333" lon="11.017319249999998"><ele>631.5</ele><time>2026-05-01T05:19:26.787Z</time></trkpt><trkpt lat="47.2911648" lon="11.017735066666667"><ele>632.0</ele><time>2026-05-01T05:19:27.789Z</time></trkpt><trkpt lat="47.29128098333334" lon="11.018147066666666"><ele>632.5</ele><time>2026-05-01T05:19:28.792Z</time></trkpt><trkpt lat="47.2914001" lon="11.018564916666666"><ele>633.0</ele><time>2026-05-01T05:19:29.786Z</time></trkpt><trkpt lat="47.29152193333333" lon="11.018981966666669"><ele>631.0</ele><time>2026-05-01T05:19:30.791Z</time></trkpt><trkpt lat="47.291645" lon="11.019396533333335"><ele>629.0</ele><time>2026-05-01T05:19:31.793Z</time></trkpt><trkpt lat="47.29176661666667" lon="11.019809683333335"><ele>629.0</ele><time>2026-05-01T05:19:32.787Z</time></trkpt><trkpt lat="47.2918927" lon="11.0202202"><ele>629.0</ele><time>2026-05-01T05:19:33.788Z</time></trkpt><trkpt lat="47.29202175" lon="11.020627000000003"><ele>629.5</ele><time>2026-05-01T05:19:34.777Z</time></trkpt><trkpt lat="47.29215261666667" lon="11.02103045"><ele>630.0</ele><time>2026-05-01T05:19:35.805Z</time></trkpt><trkpt lat="47.29228463333334" lon="11.021435000000002"><ele>630.5</ele><time>2026-05-01T05:19:36.774Z</time></trkpt><trkpt lat="47.2924164" lon="11.021838700000002"><ele>631.0</ele><time>2026-05-01T05:19:37.793Z</time></trkpt><trkpt lat="47.29254556666667" lon="11.022244616666667"><ele>630.5</ele><time>2026-05-01T05:19:38.773Z</time></trkpt><trkpt lat="47.29267301666667" lon="11.02264886666667"><ele>630.0</ele><time>2026-05-01T05:19:39.777Z</time></trkpt><trkpt lat="47.29279628333333" lon="11.023053650000001"><ele>630.0</ele><time>2026-05-01T05:19:40.792Z</time></trkpt><trkpt lat="47.29291526666666" lon="11.023462616666665"><ele>630.0</ele><time>2026-05-01T05:19:41.792Z</time></trkpt><trkpt lat="47.293028549999995" lon="11.023874983333332"><ele>630.5</ele><time>2026-05-01T05:19:42.788Z</time></trkpt><trkpt lat="47.29313968333332" lon="11.024291766666666"><ele>631.0</ele><time>2026-05-01T05:19:43.774Z</time></trkpt><trkpt lat="47.293240749999995" lon="11.024710983333334"><ele>629.5</ele><time>2026-05-01T05:19:44.785Z</time></trkpt><trkpt lat="47.29333363333334" lon="11.025135616666667"><ele>628.0</ele><time>2026-05-01T05:19:45.787Z</time></trkpt><trkpt lat="47.29342168333332" lon="11.02556095"><ele>630.0</ele><time>2026-05-01T05:19:46.797Z</time></trkpt><trkpt lat="47.29350169999999" lon="11.025990233333335"><ele>632.0</ele><time>2026-05-01T05:19:47.792Z</time></trkpt><trkpt lat="47.293576650000006" lon="11.026420766666668"><ele>631.5</ele><time>2026-05-01T05:19:48.788Z</time></trkpt><trkpt lat="47.29364753333333" lon="11.026852366666667"><ele>631.0</ele><time>2026-05-01T05:19:49.792Z</time></trkpt><trkpt lat="47.29371160000001" lon="11.02728635"><ele>630.0</ele><time>2026-05-01T05:19:50.787Z</time></trkpt><trkpt lat="47.293769383333334" lon="11.027723183333334"><ele>629.0</ele><time>2026-05-01T05:19:51.788Z</time></trkpt><trkpt lat="47.29382203333333" lon="11.028160533333335"><ele>629.5</ele><time>2026-05-01T05:19:52.775Z</time></trkpt><trkpt lat="47.29387153333334" lon="11.028598416666666"><ele>630.0</ele><time>2026-05-01T05:19:53.793Z</time></trkpt><trkpt lat="47.293918783333325" lon="11.029038299999998"><ele>630.5</ele><time>2026-05-01T05:19:54.789Z</time></trkpt><trkpt lat="47.29396941666668" lon="11.029479033333333"><ele>631.0</ele><time>2026-05-01T05:19:55.792Z</time></trkpt><trkpt lat="47.29402216666667" lon="11.0299184"><ele>630.0</ele><time>2026-05-01T05:19:56.787Z</time></trkpt><trkpt lat="47.29407388333334" lon="11.030360633333332"><ele>629.0</ele><time>2026-05-01T05:19:57.791Z</time></trkpt><trkpt lat="47.29412348333334" lon="11.030801683333335"><ele>628.5</ele><time>2026-05-01T05:19:58.781Z</time></trkpt><trkpt lat="47.29417371666667" lon="11.0312409"><ele>628.0</ele><time>2026-05-01T05:19:59.786Z</time></trkpt><trkpt lat="47.29422391666667" lon="11.031679200000001"><ele>628.0</ele><time>2026-05-01T05:20:00.791Z</time></trkpt><trkpt lat="47.29427771666666" lon="11.032115216666668"><ele>628.0</ele><time>2026-05-01T05:20:01.793Z</time></trkpt><trkpt lat="47.29433373333333" lon="11.032551133333333"><ele>628.0</ele><time>2026-05-01T05:20:02.797Z</time></trkpt><trkpt lat="47.29438911666666" lon="11.032984416666666"><ele>628.0</ele><time>2026-05-01T05:20:03.788Z</time></trkpt><trkpt lat="47.29444494999999" lon="11.033415783333332"><ele>628.0</ele><time>2026-05-01T05:20:04.793Z</time></trkpt><trkpt lat="47.29449803333333" lon="11.033848149999999"><ele>628.0</ele><time>2026-05-01T05:20:05.792Z</time></trkpt><trkpt lat="47.29454673333333" lon="11.034280583333336"><ele>628.0</ele><time>2026-05-01T05:20:06.789Z</time></trkpt><trkpt lat="47.29459751666666" lon="11.034713416666667"><ele>628.0</ele><time>2026-05-01T05:20:07.784Z</time></trkpt><trkpt lat="47.29465055000001" lon="11.035136133333332"><ele>628.0</ele><time>2026-05-01T05:20:08.789Z</time></trkpt><trkpt lat="47.294708333333325" lon="11.035559883333333"><ele>628.0</ele><time>2026-05-01T05:20:09.788Z</time></trkpt><trkpt lat="47.29477319999999" lon="11.035981333333334"><ele>629.5</ele><time>2026-05-01T05:20:10.791Z</time></trkpt><trkpt lat="47.29484178333334" lon="11.036399383333332"><ele>631.0</ele><time>2026-05-01T05:20:11.789Z</time></trkpt><trkpt lat="47.294909249999996" lon="11.036818833333333"><ele>631.0</ele><time>2026-05-01T05:20:12.792Z</time></trkpt><trkpt lat="47.29497931666666" lon="11.037234483333334"><ele>631.0</ele><time>2026-05-01T05:20:13.793Z</time></trkpt><trkpt lat="47.2950484" lon="11.0376488"><ele>629.5</ele><time>2026-05-01T05:20:14.787Z</time></trkpt><trkpt lat="47.295118" lon="11.038061716666666"><ele>628.0</ele><time>2026-05-01T05:20:15.789Z</time></trkpt><trkpt lat="47.2951869" lon="11.038471699999999"><ele>628.0</ele><time>2026-05-01T05:20:16.782Z</time></trkpt><trkpt lat="47.29525951666666" lon="11.03888088333333"><ele>628.0</ele><time>2026-05-01T05:20:17.791Z</time></trkpt><trkpt lat="47.29533121666667" lon="11.0392874"><ele>628.0</ele><time>2026-05-01T05:20:18.787Z</time></trkpt><trkpt lat="47.295405550000005" lon="11.039694466666667"><ele>628.0</ele><time>2026-05-01T05:20:19.773Z</time></trkpt><trkpt lat="47.29548093333333" lon="11.040099666666666"><ele>626.5</ele><time>2026-05-01T05:20:20.787Z</time></trkpt><trkpt lat="47.29555658333334" lon="11.040499583333334"><ele>625.0</ele><time>2026-05-01T05:20:21.791Z</time></trkpt><trkpt lat="47.29563620000001" lon="11.040898283333336"><ele>625.0</ele><time>2026-05-01T05:20:22.794Z</time></trkpt><trkpt lat="47.295715050000005" lon="11.041300366666668"><ele>625.0</ele><time>2026-05-01T05:20:23.787Z</time></trkpt><trkpt lat="47.29578968333333" lon="11.041707866666664"><ele>626.0</ele><time>2026-05-01T05:20:24.787Z</time></trkpt><trkpt lat="47.29586393333334" lon="11.0421183"><ele>627.0</ele><time>2026-05-01T05:20:25.783Z</time></trkpt><trkpt lat="47.295936883333326" lon="11.04253495"><ele>627.0</ele><time>2026-05-01T05:20:26.807Z</time></trkpt><trkpt lat="47.29600653333334" lon="11.042959066666667"><ele>627.0</ele><time>2026-05-01T05:20:27.788Z</time></trkpt><trkpt lat="47.29607080000001" lon="11.043384483333332"><ele>626.5</ele><time>2026-05-01T05:20:28.772Z</time></trkpt><trkpt lat="47.29612938333334" lon="11.04381435"><ele>626.0</ele><time>2026-05-01T05:20:29.787Z</time></trkpt><trkpt lat="47.29617868333333" lon="11.04424571666667"><ele>626.0</ele><time>2026-05-01T05:20:30.793Z</time></trkpt><trkpt lat="47.29622405" lon="11.044679450000002"><ele>626.0</ele><time>2026-05-01T05:20:31.792Z</time></trkpt><trkpt lat="47.296263066666675" lon="11.045115400000002"><ele>626.0</ele><time>2026-05-01T05:20:32.791Z</time></trkpt><trkpt lat="47.29629423333334" lon="11.045551833333333"><ele>626.0</ele><time>2026-05-01T05:20:33.787Z</time></trkpt><trkpt lat="47.296318099999986" lon="11.045991366666666"><ele>626.0</ele><time>2026-05-01T05:20:34.772Z</time></trkpt><trkpt lat="47.29633663333334" lon="11.046431016666668"><ele>626.0</ele><time>2026-05-01T05:20:35.794Z</time></trkpt><trkpt lat="47.29634998333332" lon="11.046868866666667"><ele>626.5</ele><time>2026-05-01T05:20:36.787Z</time></trkpt><trkpt lat="47.29635831666666" lon="11.047310683333334"><ele>627.0</ele><time>2026-05-01T05:20:37.793Z</time></trkpt><trkpt lat="47.296363883333335" lon="11.047750350000001"><ele>626.5</ele><time>2026-05-01T05:20:38.787Z</time></trkpt><trkpt lat="47.29636723333333" lon="11.048187716666666"><ele>626.0</ele><time>2026-05-01T05:20:39.792Z</time></trkpt><trkpt lat="47.29637138333332" lon="11.0486251"><ele>626.0</ele><time>2026-05-01T05:20:40.792Z</time></trkpt><trkpt lat="47.296378483333335" lon="11.049061266666667"><ele>626.0</ele><time>2026-05-01T05:20:41.787Z</time></trkpt><trkpt lat="47.29639098333334" lon="11.049497599999999"><ele>625.5</ele><time>2026-05-01T05:20:42.792Z</time></trkpt><trkpt lat="47.29641316666666" lon="11.0499355"><ele>625.0</ele><time>2026-05-01T05:20:43.792Z</time></trkpt><trkpt lat="47.29644445" lon="11.050372433333333"><ele>626.0</ele><time>2026-05-01T05:20:44.773Z</time></trkpt><trkpt lat="47.29648606666666" lon="11.050809283333335"><ele>627.0</ele><time>2026-05-01T05:20:45.791Z</time></trkpt><trkpt lat="47.29654059999999" lon="11.051242066666669"><ele>626.5</ele><time>2026-05-01T05:20:46.792Z</time></trkpt><trkpt lat="47.296607233333326" lon="11.051671849999998"><ele>626.0</ele><time>2026-05-01T05:20:47.773Z</time></trkpt><trkpt lat="47.29668558333333" lon="11.052096133333336"><ele>626.0</ele><time>2026-05-01T05:20:48.793Z</time></trkpt><trkpt lat="47.29677548333334" lon="11.052515266666667"><ele>626.0</ele><time>2026-05-01T05:20:49.793Z</time></trkpt><trkpt lat="47.29688171666667" lon="11.052928316666666"><ele>626.5</ele><time>2026-05-01T05:20:50.787Z</time></trkpt><trkpt lat="47.29699563333334" lon="11.053336233333335"><ele>627.0</ele><time>2026-05-01T05:20:51.788Z</time></trkpt><trkpt lat="47.297118233333336" lon="11.053738783333332"><ele>627.5</ele><time>2026-05-01T05:20:52.794Z</time></trkpt><trkpt lat="47.297249783333335" lon="11.054134483333334"><ele>628.0</ele><time>2026-05-01T05:20:53.788Z</time></trkpt><trkpt lat="47.29738551666666" lon="11.054526066666664"><ele>627.5</ele><time>2026-05-01T05:20:54.787Z</time></trkpt><trkpt lat="47.29752811666667" lon="11.054916083333334"><ele>627.0</ele><time>2026-05-01T05:20:55.773Z</time></trkpt><trkpt lat="47.29767398333334" lon="11.055301766666664"><ele>627.0</ele><time>2026-05-01T05:20:56.789Z</time></trkpt><trkpt lat="47.297820349999995" lon="11.055692616666667"><ele>627.0</ele><time>2026-05-01T05:20:57.789Z</time></trkpt><trkpt lat="47.297966066666675" lon="11.056084733333332"><ele>625.5</ele><time>2026-05-01T05:20:58.777Z</time></trkpt><trkpt lat="47.29811386666667" lon="11.056474816666665"><ele>624.0</ele><time>2026-05-01T05:20:59.79Z</time></trkpt><trkpt lat="47.29826098333333" lon="11.056865866666666"><ele>624.0</ele><time>2026-05-01T05:21:00.786Z</time></trkpt><trkpt lat="47.298407616666665" lon="11.057256066666664"><ele>624.0</ele><time>2026-05-01T05:21:01.773Z</time></trkpt><trkpt lat="47.29855526666667" lon="11.05764495"><ele>623.5</ele><time>2026-05-01T05:21:02.788Z</time></trkpt><trkpt lat="47.29870371666666" lon="11.058035583333332"><ele>623.0</ele><time>2026-05-01T05:21:03.788Z</time></trkpt><trkpt lat="47.29885061666667" lon="11.058426566666666"><ele>624.5</ele><time>2026-05-01T05:21:04.773Z</time></trkpt><trkpt lat="47.29899821666666" lon="11.058815083333332"><ele>626.0</ele><time>2026-05-01T05:21:05.791Z</time></trkpt><trkpt lat="47.29914566666666" lon="11.059203733333336"><ele>626.5</ele><time>2026-05-01T05:21:06.785Z</time></trkpt><trkpt lat="47.29929275" lon="11.059594816666667"><ele>627.0</ele><time>2026-05-01T05:21:07.774Z</time></trkpt><trkpt lat="47.29943818333333" lon="11.059986716666666"><ele>628.0</ele><time>2026-05-01T05:21:08.79Z</time></trkpt><trkpt lat="47.29958131666667" lon="11.060378266666664"><ele>629.0</ele><time>2026-05-01T05:21:09.779Z</time></trkpt><trkpt lat="47.29972115" lon="11.060771900000002"><ele>627.0</ele><time>2026-05-01T05:21:10.774Z</time></trkpt><trkpt lat="47.29986135000001" lon="11.06116785"><ele>625.0</ele><time>2026-05-01T05:21:11.803Z</time></trkpt><trkpt lat="47.29999966666666" lon="11.061567083333333"><ele>625.5</ele><time>2026-05-01T05:21:12.79Z</time></trkpt><trkpt lat="47.30013211666666" lon="11.061968433333334"><ele>626.0</ele><time>2026-05-01T05:21:13.773Z</time></trkpt><trkpt lat="47.30026151666666" lon="11.062373833333334"><ele>627.5</ele><time>2026-05-01T05:21:14.787Z</time></trkpt><trkpt lat="47.300384150000006" lon="11.062782683333335"><ele>629.0</ele><time>2026-05-01T05:21:15.776Z</time></trkpt><trkpt lat="47.300502800000004" lon="11.063195383333333"><ele>626.5</ele><time>2026-05-01T05:21:16.771Z</time></trkpt><trkpt lat="47.300616383333335" lon="11.063609916666666"><ele>624.0</ele><time>2026-05-01T05:21:17.791Z</time></trkpt><trkpt lat="47.30072189999999" lon="11.064026266666666"><ele>624.0</ele><time>2026-05-01T05:21:18.791Z</time></trkpt><trkpt lat="47.300823199999996" lon="11.064441633333336"><ele>624.0</ele><time>2026-05-01T05:21:19.775Z</time></trkpt><trkpt lat="47.3009274" lon="11.064857866666667"><ele>624.5</ele><time>2026-05-01T05:21:20.791Z</time></trkpt><trkpt lat="47.30102480000001" lon="11.0652738"><ele>625.0</ele><time>2026-05-01T05:21:21.791Z</time></trkpt><trkpt lat="47.301109749999995" lon="11.065691083333336"><ele>625.0</ele><time>2026-05-01T05:21:22.798Z</time></trkpt><trkpt lat="47.30119" lon="11.066107583333334"><ele>625.0</ele><time>2026-05-01T05:21:23.788Z</time></trkpt><trkpt lat="47.30126371666667" lon="11.066529383333334"><ele>624.5</ele><time>2026-05-01T05:21:24.787Z</time></trkpt><trkpt lat="47.30133106666667" lon="11.066951116666665"><ele>624.0</ele><time>2026-05-01T05:21:25.794Z</time></trkpt><trkpt lat="47.3013936" lon="11.067376300000001"><ele>626.0</ele><time>2026-05-01T05:21:26.789Z</time></trkpt><trkpt lat="47.30145241666668" lon="11.067798616666668"><ele>628.0</ele><time>2026-05-01T05:21:27.793Z</time></trkpt><trkpt lat="47.301504683333334" lon="11.068215649999997"><ele>626.0</ele><time>2026-05-01T05:21:28.773Z</time></trkpt><trkpt lat="47.30155488333333" lon="11.06863855"><ele>624.0</ele><time>2026-05-01T05:21:29.787Z</time></trkpt><trkpt lat="47.3016037" lon="11.069065100000001"><ele>624.0</ele><time>2026-05-01T05:21:30.79Z</time></trkpt><trkpt lat="47.30164771666667" lon="11.069494950000001"><ele>624.0</ele><time>2026-05-01T05:21:31.792Z</time></trkpt><trkpt lat="47.301690816666664" lon="11.069926649999998"><ele>624.5</ele><time>2026-05-01T05:21:32.788Z</time></trkpt><trkpt lat="47.301733399999996" lon="11.070373016666668"><ele>625.0</ele><time>2026-05-01T05:21:33.791Z</time></trkpt><trkpt lat="47.30178011666666" lon="11.070818816666668"><ele>624.0</ele><time>2026-05-01T05:21:34.809Z</time></trkpt><trkpt lat="47.30182598333334" lon="11.071258016666665"><ele>623.0</ele><time>2026-05-01T05:21:35.79Z</time></trkpt><trkpt lat="47.301866450000006" lon="11.071699733333332"><ele>622.5</ele><time>2026-05-01T05:21:36.78Z</time></trkpt><trkpt lat="47.301907216666656" lon="11.072143850000002"><ele>622.0</ele><time>2026-05-01T05:21:37.827Z</time></trkpt><trkpt lat="47.30194918333333" lon="11.072586933333332"><ele>621.5</ele><time>2026-05-01T05:21:38.808Z</time></trkpt><trkpt lat="47.301990350000004" lon="11.073031866666668"><ele>621.0</ele><time>2026-05-01T05:21:39.822Z</time></trkpt><trkpt lat="47.30202826666667" lon="11.073474316666667"><ele>621.0</ele><time>2026-05-01T05:21:40.798Z</time></trkpt><trkpt lat="47.302062583333324" lon="11.07392175"><ele>621.0</ele><time>2026-05-01T05:21:41.776Z</time></trkpt><trkpt lat="47.302097383333326" lon="11.074370566666667"><ele>620.5</ele><time>2026-05-01T05:21:42.792Z</time></trkpt><trkpt lat="47.30213288333332" lon="11.074819333333334"><ele>620.0</ele><time>2026-05-01T05:21:43.824Z</time></trkpt><trkpt lat="47.302168833333326" lon="11.075265466666666"><ele>620.0</ele><time>2026-05-01T05:21:44.777Z</time></trkpt><trkpt lat="47.30220866666667" lon="11.07571525"><ele>620.0</ele><time>2026-05-01T05:21:45.782Z</time></trkpt><trkpt lat="47.3022494" lon="11.076164416666666"><ele>622.0</ele><time>2026-05-01T05:21:46.801Z</time></trkpt><trkpt lat="47.30229173333334" lon="11.076611516666665"><ele>624.0</ele><time>2026-05-01T05:21:47.771Z</time></trkpt><trkpt lat="47.302336266666664" lon="11.077057049999999"><ele>624.0</ele><time>2026-05-01T05:21:48.78Z</time></trkpt><trkpt lat="47.30238404999999" lon="11.077501066666667"><ele>624.0</ele><time>2026-05-01T05:21:49.796Z</time></trkpt><trkpt lat="47.302434283333334" lon="11.077943216666664"><ele>623.5</ele><time>2026-05-01T05:21:50.78Z</time></trkpt><trkpt lat="47.302489200000004" lon="11.078382833333334"><ele>623.0</ele><time>2026-05-01T05:21:51.786Z</time></trkpt><trkpt lat="47.30254871666666" lon="11.0788201"><ele>622.0</ele><time>2026-05-01T05:21:52.797Z</time></trkpt><trkpt lat="47.302615233333334" lon="11.079253283333331"><ele>621.0</ele><time>2026-05-01T05:21:53.774Z</time></trkpt><trkpt lat="47.302688216666674" lon="11.079687283333334"><ele>621.0</ele><time>2026-05-01T05:21:54.783Z</time></trkpt><trkpt lat="47.30276789999999" lon="11.080118933333333"><ele>621.0</ele><time>2026-05-01T05:21:55.796Z</time></trkpt><trkpt lat="47.302855866666675" lon="11.080549350000002"><ele>620.0</ele><time>2026-05-01T05:21:56.776Z</time></trkpt><trkpt lat="47.302947333333336" lon="11.0809769"><ele>619.0</ele><time>2026-05-01T05:21:57.784Z</time></trkpt><trkpt lat="47.30304133333334" lon="11.081401433333333"><ele>621.5</ele><time>2026-05-01T05:21:58.796Z</time></trkpt><trkpt lat="47.30313866666667" lon="11.081822816666666"><ele>624.0</ele><time>2026-05-01T05:21:59.776Z</time></trkpt><trkpt lat="47.30323798333333" lon="11.082242616666667"><ele>623.5</ele><time>2026-05-01T05:22:00.781Z</time></trkpt><trkpt lat="47.30333748333334" lon="11.082662599999999"><ele>623.0</ele><time>2026-05-01T05:22:01.798Z</time></trkpt><trkpt lat="47.30343639999999" lon="11.083079816666668"><ele>622.5</ele><time>2026-05-01T05:22:02.774Z</time></trkpt><trkpt lat="47.303536550000004" lon="11.083494816666667"><ele>622.0</ele><time>2026-05-01T05:22:03.781Z</time></trkpt><trkpt lat="47.3036432" lon="11.083905133333333"><ele>621.0</ele><time>2026-05-01T05:22:04.799Z</time></trkpt><trkpt lat="47.303758716666664" lon="11.084308183333334"><ele>620.0</ele><time>2026-05-01T05:22:05.781Z</time></trkpt><trkpt lat="47.30387983333333" lon="11.084707600000002"><ele>620.5</ele><time>2026-05-01T05:22:06.786Z</time></trkpt><trkpt lat="47.304003516666675" lon="11.085104866666665"><ele>621.0</ele><time>2026-05-01T05:22:07.807Z</time></trkpt><trkpt lat="47.304135166666676" lon="11.085500133333335"><ele>620.0</ele><time>2026-05-01T05:22:08.774Z</time></trkpt><trkpt lat="47.304269700000006" lon="11.085890400000002"><ele>619.0</ele><time>2026-05-01T05:22:09.784Z</time></trkpt><trkpt lat="47.30441046666667" lon="11.086280583333332"><ele>619.0</ele><time>2026-05-01T05:22:10.773Z</time></trkpt><trkpt lat="47.30455708333334" lon="11.086668383333333"><ele>619.0</ele><time>2026-05-01T05:22:11.777Z</time></trkpt><trkpt lat="47.30470593333333" lon="11.087049166666668"><ele>619.0</ele><time>2026-05-01T05:22:12.783Z</time></trkpt><trkpt lat="47.304858349999996" lon="11.087429899999998"><ele>619.0</ele><time>2026-05-01T05:22:13.796Z</time></trkpt><trkpt lat="47.30501048333334" lon="11.0878121"><ele>619.0</ele><time>2026-05-01T05:22:14.775Z</time></trkpt><trkpt lat="47.305161433333325" lon="11.088195583333333"><ele>619.0</ele><time>2026-05-01T05:22:15.792Z</time></trkpt><trkpt lat="47.30531221666667" lon="11.088578800000002"><ele>618.5</ele><time>2026-05-01T05:22:16.796Z</time></trkpt><trkpt lat="47.30546355" lon="11.088962949999999"><ele>618.0</ele><time>2026-05-01T05:22:17.777Z</time></trkpt><trkpt lat="47.30561698333333" lon="11.089344950000001"><ele>617.0</ele><time>2026-05-01T05:22:18.781Z</time></trkpt><trkpt lat="47.30576896666666" lon="11.089726383333334"><ele>616.0</ele><time>2026-05-01T05:22:19.798Z</time></trkpt><trkpt lat="47.30592051666666" lon="11.0901072"><ele>616.0</ele><time>2026-05-01T05:22:20.777Z</time></trkpt><trkpt lat="47.30607161666667" lon="11.09048875"><ele>616.0</ele><time>2026-05-01T05:22:21.781Z</time></trkpt><trkpt lat="47.306220483333334" lon="11.090870216666668"><ele>616.0</ele><time>2026-05-01T05:22:22.796Z</time></trkpt><trkpt lat="47.30636859999999" lon="11.091250166666669"><ele>616.0</ele><time>2026-05-01T05:22:23.775Z</time></trkpt><trkpt lat="47.30651593333334" lon="11.091631033333332"><ele>617.5</ele><time>2026-05-01T05:22:24.793Z</time></trkpt><trkpt lat="47.3066649" lon="11.092012050000003"><ele>619.0</ele><time>2026-05-01T05:22:25.796Z</time></trkpt><trkpt lat="47.30681553333334" lon="11.0923916"><ele>619.0</ele><time>2026-05-01T05:22:26.775Z</time></trkpt><trkpt lat="47.306968016666666" lon="11.092770450000002"><ele>619.0</ele><time>2026-05-01T05:22:27.789Z</time></trkpt><trkpt lat="47.307118949999996" lon="11.09315005"><ele>620.0</ele><time>2026-05-01T05:22:28.8Z</time></trkpt><trkpt lat="47.30726931666667" lon="11.093527733333334"><ele>621.0</ele><time>2026-05-01T05:22:29.795Z</time></trkpt><trkpt lat="47.307420216666664" lon="11.0939081"><ele>620.5</ele><time>2026-05-01T05:22:30.783Z</time></trkpt><trkpt lat="47.30756988333333" lon="11.094290399999998"><ele>620.0</ele><time>2026-05-01T05:22:31.8Z</time></trkpt><trkpt lat="47.30771753333334" lon="11.094672133333331"><ele>619.0</ele><time>2026-05-01T05:22:32.778Z</time></trkpt><trkpt lat="47.30786731666667" lon="11.095055833333333"><ele>618.0</ele><time>2026-05-01T05:22:33.788Z</time></trkpt><trkpt lat="47.308016099999996" lon="11.09544245"><ele>618.0</ele><time>2026-05-01T05:22:34.798Z</time></trkpt><trkpt lat="47.308163933333326" lon="11.095829383333333"><ele>618.0</ele><time>2026-05-01T05:22:35.782Z</time></trkpt><trkpt lat="47.30831296666667" lon="11.096219583333333"><ele>619.0</ele><time>2026-05-01T05:22:36.784Z</time></trkpt><trkpt lat="47.308457733333334" lon="11.0966098"><ele>620.0</ele><time>2026-05-01T05:22:37.796Z</time></trkpt><trkpt lat="47.308601550000006" lon="11.097000900000001"><ele>620.0</ele><time>2026-05-01T05:22:38.786Z</time></trkpt><trkpt lat="47.308744633333326" lon="11.097395933333333"><ele>620.0</ele><time>2026-05-01T05:22:39.783Z</time></trkpt><trkpt lat="47.30888361666666" lon="11.097792683333335"><ele>619.0</ele><time>2026-05-01T05:22:40.796Z</time></trkpt><trkpt lat="47.30902345" lon="11.098190983333332"><ele>618.0</ele><time>2026-05-01T05:22:41.777Z</time></trkpt><trkpt lat="47.309160850000005" lon="11.098589966666667"><ele>618.0</ele><time>2026-05-01T05:22:42.776Z</time></trkpt><trkpt lat="47.30929405" lon="11.098993166666666"><ele>618.0</ele><time>2026-05-01T05:22:43.798Z</time></trkpt><trkpt lat="47.30942579999999" lon="11.099392583333334"><ele>617.5</ele><time>2026-05-01T05:22:44.775Z</time></trkpt><trkpt lat="47.30955761666667" lon="11.099791349999999"><ele>617.0</ele><time>2026-05-01T05:22:45.783Z</time></trkpt><trkpt lat="47.30969064999999" lon="11.100192199999999"><ele>617.0</ele><time>2026-05-01T05:22:46.798Z</time></trkpt><trkpt lat="47.309821416666665" lon="11.100595133333336"><ele>617.0</ele><time>2026-05-01T05:22:47.833Z</time></trkpt><trkpt lat="47.30994906666667" lon="11.100999850000001"><ele>617.0</ele><time>2026-05-01T05:22:48.781Z</time></trkpt><trkpt lat="47.310075483333335" lon="11.101406200000001"><ele>617.0</ele><time>2026-05-01T05:22:49.796Z</time></trkpt><trkpt lat="47.31020351666666" lon="11.101812816666666"><ele>617.5</ele><time>2026-05-01T05:22:50.784Z</time></trkpt><trkpt lat="47.31032936666667" lon="11.102220250000002"><ele>618.0</ele><time>2026-05-01T05:22:51.777Z</time></trkpt><trkpt lat="47.31045525" lon="11.102628049999998"><ele>619.0</ele><time>2026-05-01T05:22:52.796Z</time></trkpt><trkpt lat="47.31058053333334" lon="11.103040416666667"><ele>620.0</ele><time>2026-05-01T05:22:53.775Z</time></trkpt><trkpt lat="47.31070363333333" lon="11.103457800000001"><ele>621.0</ele><time>2026-05-01T05:22:54.784Z</time></trkpt><trkpt lat="47.310825083333334" lon="11.10387326666667"><ele>622.0</ele><time>2026-05-01T05:22:55.777Z</time></trkpt><trkpt lat="47.310943783333336" lon="11.104284050000002"><ele>622.0</ele><time>2026-05-01T05:22:56.775Z</time></trkpt><trkpt lat="47.31105468333333" lon="11.104693816666666"><ele>622.0</ele><time>2026-05-01T05:22:57.782Z</time></trkpt><trkpt lat="47.31115894999999" lon="11.105104833333332"><ele>622.0</ele><time>2026-05-01T05:22:58.796Z</time></trkpt><trkpt lat="47.31125828333333" lon="11.10552175"><ele>622.0</ele><time>2026-05-01T05:22:59.776Z</time></trkpt><trkpt lat="47.31134541666667" lon="11.105941633333334"><ele>622.0</ele><time>2026-05-01T05:23:00.794Z</time></trkpt><trkpt lat="47.31141853333334" lon="11.106365416666666"><ele>622.0</ele><time>2026-05-01T05:23:01.796Z</time></trkpt><trkpt lat="47.31147993333334" lon="11.106790783333334"><ele>621.0</ele><time>2026-05-01T05:23:02.775Z</time></trkpt><trkpt lat="47.31153473333334" lon="11.107218116666665"><ele>620.0</ele><time>2026-05-01T05:23:03.78Z</time></trkpt><trkpt lat="47.311586750000004" lon="11.107644333333333"><ele>619.5</ele><time>2026-05-01T05:23:04.787Z</time></trkpt><trkpt lat="47.31162978333334" lon="11.108074166666665"><ele>619.0</ele><time>2026-05-01T05:23:05.783Z</time></trkpt><trkpt lat="47.31166628333334" lon="11.108503666666664"><ele>618.5</ele><time>2026-05-01T05:23:06.795Z</time></trkpt><trkpt lat="47.31169221666667" lon="11.108932750000001"><ele>618.0</ele><time>2026-05-01T05:23:07.776Z</time></trkpt><trkpt lat="47.31170699999999" lon="11.109362933333333"><ele>618.0</ele><time>2026-05-01T05:23:08.818Z</time></trkpt><trkpt lat="47.31171078333334" lon="11.109791933333335"><ele>618.0</ele><time>2026-05-01T05:23:09.817Z</time></trkpt><trkpt lat="47.31170323333334" lon="11.110221033333334"><ele>618.0</ele><time>2026-05-01T05:23:10.793Z</time></trkpt><trkpt lat="47.31168656666667" lon="11.110650933333334"><ele>618.0</ele><time>2026-05-01T05:23:11.785Z</time></trkpt><trkpt lat="47.31165953333334" lon="11.11107885"><ele>618.0</ele><time>2026-05-01T05:23:12.787Z</time></trkpt><trkpt lat="47.31162391666667" lon="11.111507783333332"><ele>618.0</ele><time>2026-05-01T05:23:13.777Z</time></trkpt><trkpt lat="47.31157880000001" lon="11.111934499999998"><ele>618.5</ele><time>2026-05-01T05:23:14.773Z</time></trkpt><trkpt lat="47.311522066666676" lon="11.112353700000002"><ele>619.0</ele><time>2026-05-01T05:23:15.786Z</time></trkpt><trkpt lat="47.311455499999994" lon="11.112774933333332"><ele>617.5</ele><time>2026-05-01T05:23:16.792Z</time></trkpt><trkpt lat="47.31137871666667" lon="11.113193816666668"><ele>616.0</ele><time>2026-05-01T05:23:17.785Z</time></trkpt><trkpt lat="47.3112892" lon="11.113616000000002"><ele>616.0</ele><time>2026-05-01T05:23:18.794Z</time></trkpt><trkpt lat="47.3111903" lon="11.114035316666664"><ele>616.0</ele><time>2026-05-01T05:23:19.813Z</time></trkpt><trkpt lat="47.3110817" lon="11.114450833333335"><ele>616.0</ele><time>2026-05-01T05:23:20.787Z</time></trkpt><trkpt lat="47.310966949999994" lon="11.114866916666665"><ele>616.0</ele><time>2026-05-01T05:23:21.786Z</time></trkpt><trkpt lat="47.31084448333333" lon="11.115280733333336"><ele>616.5</ele><time>2026-05-01T05:23:22.776Z</time></trkpt><trkpt lat="47.31071141666666" lon="11.1156894"><ele>617.0</ele><time>2026-05-01T05:23:23.785Z</time></trkpt><trkpt lat="47.310565600000004" lon="11.116090283333332"><ele>615.5</ele><time>2026-05-01T05:23:24.787Z</time></trkpt><trkpt lat="47.310405949999996" lon="11.116483583333336"><ele>614.0</ele><time>2026-05-01T05:23:25.794Z</time></trkpt><trkpt lat="47.310237" lon="11.116867133333335"><ele>614.0</ele><time>2026-05-01T05:23:26.786Z</time></trkpt><trkpt lat="47.31005641666667" lon="11.117238516666665"><ele>614.0</ele><time>2026-05-01T05:23:27.792Z</time></trkpt><trkpt lat="47.309867366666666" lon="11.1175966"><ele>614.5</ele><time>2026-05-01T05:23:28.782Z</time></trkpt><trkpt lat="47.30966831666667" lon="11.117946066666665"><ele>615.0</ele><time>2026-05-01T05:23:29.789Z</time></trkpt><trkpt lat="47.3094582" lon="11.118280533333333"><ele>616.0</ele><time>2026-05-01T05:23:30.786Z</time></trkpt><trkpt lat="47.30923923333333" lon="11.1185961"><ele>617.0</ele><time>2026-05-01T05:23:31.772Z</time></trkpt><trkpt lat="47.30901006666666" lon="11.118899533333336"><ele>616.0</ele><time>2026-05-01T05:23:32.786Z</time></trkpt><trkpt lat="47.308775399999995" lon="11.119192983333335"><ele>615.0</ele><time>2026-05-01T05:23:33.786Z</time></trkpt><trkpt lat="47.30853668333333" lon="11.119476366666667"><ele>615.0</ele><time>2026-05-01T05:23:34.776Z</time></trkpt><trkpt lat="47.30829158333332" lon="11.1197479"><ele>615.0</ele><time>2026-05-01T05:23:35.786Z</time></trkpt><trkpt lat="47.3080401" lon="11.120007850000002"><ele>614.0</ele><time>2026-05-01T05:23:36.787Z</time></trkpt><trkpt lat="47.307782683333336" lon="11.120257683333334"><ele>613.0</ele><time>2026-05-01T05:23:37.786Z</time></trkpt><trkpt lat="47.30752061666667" lon="11.120493266666665"><ele>613.0</ele><time>2026-05-01T05:23:38.785Z</time></trkpt><trkpt lat="47.307252766666664" lon="11.120713783333334"><ele>613.0</ele><time>2026-05-01T05:23:39.786Z</time></trkpt><trkpt lat="47.306981083333326" lon="11.120918416666665"><ele>613.5</ele><time>2026-05-01T05:23:40.791Z</time></trkpt><trkpt lat="47.30670405" lon="11.121108083333334"><ele>614.0</ele><time>2026-05-01T05:23:41.785Z</time></trkpt><trkpt lat="47.30642396666667" lon="11.121280983333335"><ele>614.5</ele><time>2026-05-01T05:23:42.789Z</time></trkpt><trkpt lat="47.30614005" lon="11.121440283333335"><ele>615.0</ele><time>2026-05-01T05:23:43.791Z</time></trkpt><trkpt lat="47.305853766666665" lon="11.121591416666668"><ele>614.5</ele><time>2026-05-01T05:23:44.785Z</time></trkpt><trkpt lat="47.30556616666666" lon="11.121738149999999"><ele>614.0</ele><time>2026-05-01T05:23:45.787Z</time></trkpt><trkpt lat="47.30527838333334" lon="11.121879166666666"><ele>614.0</ele><time>2026-05-01T05:23:46.772Z</time></trkpt><trkpt lat="47.30499066666666" lon="11.12201965"><ele>614.0</ele><time>2026-05-01T05:23:47.785Z</time></trkpt><trkpt lat="47.30470633333333" lon="11.122166216666669"><ele>614.5</ele><time>2026-05-01T05:23:48.789Z</time></trkpt><trkpt lat="47.30442491666666" lon="11.122319566666665"><ele>615.0</ele><time>2026-05-01T05:23:49.774Z</time></trkpt><trkpt lat="47.30414698333334" lon="11.122477016666668"><ele>613.5</ele><time>2026-05-01T05:23:50.785Z</time></trkpt><trkpt lat="47.30387351666667" lon="11.12264125"><ele>612.0</ele><time>2026-05-01T05:23:51.792Z</time></trkpt><trkpt lat="47.30360273333334" lon="11.1228179"><ele>612.0</ele><time>2026-05-01T05:23:52.793Z</time></trkpt><trkpt lat="47.30333555000001" lon="11.12301043333333"><ele>612.0</ele><time>2026-05-01T05:23:53.788Z</time></trkpt><trkpt lat="47.30307358333333" lon="11.123218933333332"><ele>613.5</ele><time>2026-05-01T05:23:54.788Z</time></trkpt><trkpt lat="47.30281773333333" lon="11.12343855"><ele>615.0</ele><time>2026-05-01T05:23:55.792Z</time></trkpt><trkpt lat="47.30256746666667" lon="11.12366865"><ele>615.0</ele><time>2026-05-01T05:23:56.789Z</time></trkpt><trkpt lat="47.30232323333333" lon="11.12390815"><ele>615.0</ele><time>2026-05-01T05:23:57.771Z</time></trkpt><trkpt lat="47.302081799999996" lon="11.124159766666665"><ele>614.5</ele><time>2026-05-01T05:23:58.795Z</time></trkpt><trkpt lat="47.30184663333333" lon="11.124420816666667"><ele>614.0</ele><time>2026-05-01T05:23:59.79Z</time></trkpt><trkpt lat="47.30161639999999" lon="11.124695266666667"><ele>614.5</ele><time>2026-05-01T05:24:00.796Z</time></trkpt><trkpt lat="47.30139478333334" lon="11.124982966666668"><ele>615.0</ele><time>2026-05-01T05:24:01.792Z</time></trkpt><trkpt lat="47.30117546666668" lon="11.12527631666667"><ele>615.0</ele><time>2026-05-01T05:24:02.786Z</time></trkpt><trkpt lat="47.30096306666666" lon="11.125578449999999"><ele>615.0</ele><time>2026-05-01T05:24:03.787Z</time></trkpt><trkpt lat="47.300758300000005" lon="11.125892233333332"><ele>614.5</ele><time>2026-05-01T05:24:04.774Z</time></trkpt><trkpt lat="47.300562033333335" lon="11.126215799999999"><ele>614.0</ele><time>2026-05-01T05:24:05.786Z</time></trkpt><trkpt lat="47.30036831666666" lon="11.1265455"><ele>614.5</ele><time>2026-05-01T05:24:06.786Z</time></trkpt><trkpt lat="47.30018176666667" lon="11.126884700000002"><ele>615.0</ele><time>2026-05-01T05:24:07.794Z</time></trkpt><trkpt lat="47.30000598333333" lon="11.127234566666669"><ele>615.0</ele><time>2026-05-01T05:24:08.8Z</time></trkpt><trkpt lat="47.29983408333333" lon="11.127589183333336"><ele>615.0</ele><time>2026-05-01T05:24:09.773Z</time></trkpt><trkpt lat="47.29966898333334" lon="11.12795195"><ele>613.5</ele><time>2026-05-01T05:24:10.791Z</time></trkpt><trkpt lat="47.29950788333334" lon="11.128314266666667"><ele>612.0</ele><time>2026-05-01T05:24:11.784Z</time></trkpt><trkpt lat="47.29934855" lon="11.128679383333335"><ele>612.0</ele><time>2026-05-01T05:24:12.792Z</time></trkpt><trkpt lat="47.29919236666666" lon="11.129045699999997"><ele>612.0</ele><time>2026-05-01T05:24:13.796Z</time></trkpt><trkpt lat="47.2990367" lon="11.129410416666667"><ele>611.5</ele><time>2026-05-01T05:24:14.785Z</time></trkpt><trkpt lat="47.298878349999995" lon="11.129775983333332"><ele>611.0</ele><time>2026-05-01T05:24:15.786Z</time></trkpt><trkpt lat="47.29872138333334" lon="11.130139383333335"><ele>611.0</ele><time>2026-05-01T05:24:16.775Z</time></trkpt><trkpt lat="47.29856326666666" lon="11.130504933333334"><ele>611.0</ele><time>2026-05-01T05:24:17.792Z</time></trkpt><trkpt lat="47.29840491666667" lon="11.130870866666664"><ele>611.0</ele><time>2026-05-01T05:24:18.787Z</time></trkpt><trkpt lat="47.29824706666666" lon="11.131236933333332"><ele>611.0</ele><time>2026-05-01T05:24:19.791Z</time></trkpt><trkpt lat="47.29809063333334" lon="11.131602200000001"><ele>609.5</ele><time>2026-05-01T05:24:20.785Z</time></trkpt><trkpt lat="47.297935666666675" lon="11.131965666666668"><ele>608.0</ele><time>2026-05-01T05:24:21.794Z</time></trkpt><trkpt lat="47.29778055" lon="11.132330466666668"><ele>609.0</ele><time>2026-05-01T05:24:22.794Z</time></trkpt><trkpt lat="47.29762453333333" lon="11.13269775"><ele>610.0</ele><time>2026-05-01T05:24:23.804Z</time></trkpt><trkpt lat="47.29746964999999" lon="11.133063850000001"><ele>610.0</ele><time>2026-05-01T05:24:24.787Z</time></trkpt><trkpt lat="47.29731534999999" lon="11.133425783333331"><ele>610.0</ele><time>2026-05-01T05:24:25.795Z</time></trkpt><trkpt lat="47.2971609" lon="11.133789650000002"><ele>610.0</ele><time>2026-05-01T05:24:26.785Z</time></trkpt><trkpt lat="47.29700545000001" lon="11.134154966666665"><ele>610.0</ele><time>2026-05-01T05:24:27.774Z</time></trkpt><trkpt lat="47.29684768333333" lon="11.134518199999999"><ele>610.0</ele><time>2026-05-01T05:24:28.774Z</time></trkpt><trkpt lat="47.29669178333334" lon="11.134884816666666"><ele>610.0</ele><time>2026-05-01T05:24:29.788Z</time></trkpt><trkpt lat="47.29653745000001" lon="11.135254083333331"><ele>610.5</ele><time>2026-05-01T05:24:30.788Z</time></trkpt><trkpt lat="47.296381950000004" lon="11.135623183333333"><ele>611.0</ele><time>2026-05-01T05:24:31.792Z</time></trkpt><trkpt lat="47.296227699999996" lon="11.135994950000002"><ele>611.0</ele><time>2026-05-01T05:24:32.774Z</time></trkpt><trkpt lat="47.29607623333333" lon="11.1363678"><ele>611.0</ele><time>2026-05-01T05:24:33.787Z</time></trkpt><trkpt lat="47.29592573333333" lon="11.136742266666667"><ele>611.0</ele><time>2026-05-01T05:24:34.791Z</time></trkpt><trkpt lat="47.29577365" lon="11.137119449999998"><ele>611.0</ele><time>2026-05-01T05:24:35.788Z</time></trkpt><trkpt lat="47.29562056666667" lon="11.137494083333335"><ele>610.5</ele><time>2026-05-01T05:24:36.786Z</time></trkpt><trkpt lat="47.29546371666667" lon="11.137865299999998"><ele>610.0</ele><time>2026-05-01T05:24:37.792Z</time></trkpt><trkpt lat="47.295304599999994" lon="11.138234983333332"><ele>610.0</ele><time>2026-05-01T05:24:38.789Z</time></trkpt><trkpt lat="47.29514398333333" lon="11.138606266666665"><ele>610.0</ele><time>2026-05-01T05:24:39.787Z</time></trkpt><trkpt lat="47.29498533333334" lon="11.13897585"><ele>610.0</ele><time>2026-05-01T05:24:40.793Z</time></trkpt><trkpt lat="47.294827500000004" lon="11.139343599999998"><ele>610.0</ele><time>2026-05-01T05:24:41.793Z</time></trkpt><trkpt lat="47.294669649999996" lon="11.139712916666667"><ele>610.0</ele><time>2026-05-01T05:24:42.789Z</time></trkpt><trkpt lat="47.29451341666666" lon="11.140085299999997"><ele>610.0</ele><time>2026-05-01T05:24:43.791Z</time></trkpt><trkpt lat="47.294356966666655" lon="11.140456200000001"><ele>610.5</ele><time>2026-05-01T05:24:44.785Z</time></trkpt><trkpt lat="47.29419983333334" lon="11.140825050000002"><ele>611.0</ele><time>2026-05-01T05:24:45.779Z</time></trkpt><trkpt lat="47.29404233333333" lon="11.141193800000002"><ele>609.5</ele><time>2026-05-01T05:24:46.794Z</time></trkpt><trkpt lat="47.29388523333334" lon="11.141564266666666"><ele>608.0</ele><time>2026-05-01T05:24:47.786Z</time></trkpt><trkpt lat="47.29372911666666" lon="11.141933016666666"><ele>608.0</ele><time>2026-05-01T05:24:48.788Z</time></trkpt><trkpt lat="47.29356800000001" lon="11.142301816666667"><ele>608.0</ele><time>2026-05-01T05:24:49.792Z</time></trkpt><trkpt lat="47.29340725" lon="11.142672266666667"><ele>608.5</ele><time>2026-05-01T05:24:50.794Z</time></trkpt><trkpt lat="47.293247983333345" lon="11.143046066666665"><ele>609.0</ele><time>2026-05-01T05:24:51.787Z</time></trkpt><trkpt lat="47.29308296666667" lon="11.143423916666666"><ele>608.5</ele><time>2026-05-01T05:24:52.792Z</time></trkpt><trkpt lat="47.29291301666667" lon="11.143817383333332"><ele>608.0</ele><time>2026-05-01T05:24:53.787Z</time></trkpt><trkpt lat="47.29274446666667" lon="11.144218500000001"><ele>608.0</ele><time>2026-05-01T05:24:54.792Z</time></trkpt><trkpt lat="47.29257725000001" lon="11.144614966666666"><ele>608.0</ele><time>2026-05-01T05:24:55.814Z</time></trkpt><trkpt lat="47.29240975" lon="11.145002433333332"><ele>608.0</ele><time>2026-05-01T05:24:56.785Z</time></trkpt><trkpt lat="47.29224433333334" lon="11.145387083333333"><ele>608.0</ele><time>2026-05-01T05:24:57.791Z</time></trkpt><trkpt lat="47.29208153333334" lon="11.1457702"><ele>608.0</ele><time>2026-05-01T05:24:58.792Z</time></trkpt><trkpt lat="47.29191646666666" lon="11.146153483333334"><ele>608.0</ele><time>2026-05-01T05:24:59.787Z</time></trkpt><trkpt lat="47.29175343333333" lon="11.1465329"><ele>608.0</ele><time>2026-05-01T05:25:00.787Z</time></trkpt><trkpt lat="47.29159023333334" lon="11.146910099999998"><ele>608.0</ele><time>2026-05-01T05:25:01.792Z</time></trkpt><trkpt lat="47.291427283333334" lon="11.147288733333335"><ele>608.0</ele><time>2026-05-01T05:25:02.788Z</time></trkpt><trkpt lat="47.29126493333333" lon="11.14766655"><ele>608.0</ele><time>2026-05-01T05:25:03.776Z</time></trkpt><trkpt lat="47.29110346666666" lon="11.14804625"><ele>608.5</ele><time>2026-05-01T05:25:04.791Z</time></trkpt><trkpt lat="47.290942616666676" lon="11.148425866666665"><ele>609.0</ele><time>2026-05-01T05:25:05.786Z</time></trkpt><trkpt lat="47.29078163333333" lon="11.148806783333336"><ele>609.0</ele><time>2026-05-01T05:25:06.787Z</time></trkpt><trkpt lat="47.29061818333333" lon="11.149191233333333"><ele>609.0</ele><time>2026-05-01T05:25:07.773Z</time></trkpt><trkpt lat="47.290453666666664" lon="11.149572816666668"><ele>608.5</ele><time>2026-05-01T05:25:08.785Z</time></trkpt><trkpt lat="47.29028615000001" lon="11.149950550000002"><ele>608.0</ele><time>2026-05-01T05:25:09.787Z</time></trkpt><trkpt lat="47.29011806666667" lon="11.150324566666665"><ele>608.0</ele><time>2026-05-01T05:25:10.794Z</time></trkpt><trkpt lat="47.28995298333333" lon="11.150701533333333"><ele>608.0</ele><time>2026-05-01T05:25:11.787Z</time></trkpt><trkpt lat="47.289785916666666" lon="11.151076933333332"><ele>608.0</ele><time>2026-05-01T05:25:12.791Z</time></trkpt><trkpt lat="47.28961768333334" lon="11.15145535"><ele>608.0</ele><time>2026-05-01T05:25:13.784Z</time></trkpt><trkpt lat="47.28945111666667" lon="11.151836883333333"><ele>608.5</ele><time>2026-05-01T05:25:14.787Z</time></trkpt><trkpt lat="47.28928783333334" lon="11.152219099999998"><ele>609.0</ele><time>2026-05-01T05:25:15.787Z</time></trkpt><trkpt lat="47.2891229" lon="11.152600133333332"><ele>609.0</ele><time>2026-05-01T05:25:16.792Z</time></trkpt><trkpt lat="47.28895765" lon="11.152981516666667"><ele>609.0</ele><time>2026-05-01T05:25:17.773Z</time></trkpt><trkpt lat="47.2887924" lon="11.153360850000002"><ele>608.0</ele><time>2026-05-01T05:25:18.792Z</time></trkpt><trkpt lat="47.288629449999995" lon="11.153736133333332"><ele>607.0</ele><time>2026-05-01T05:25:19.795Z</time></trkpt><trkpt lat="47.2884686" lon="11.154109516666665"><ele>607.0</ele><time>2026-05-01T05:25:20.787Z</time></trkpt><trkpt lat="47.28831051666666" lon="11.154482966666668"><ele>607.0</ele><time>2026-05-01T05:25:21.787Z</time></trkpt><trkpt lat="47.2881526" lon="11.154855183333332"><ele>607.5</ele><time>2026-05-01T05:25:22.773Z</time></trkpt><trkpt lat="47.28799646666666" lon="11.155223566666665"><ele>608.0</ele><time>2026-05-01T05:25:23.785Z</time></trkpt><trkpt lat="47.28784076666667" lon="11.155590683333333"><ele>607.0</ele><time>2026-05-01T05:25:24.792Z</time></trkpt><trkpt lat="47.287683666666666" lon="11.155958166666668"><ele>606.0</ele><time>2026-05-01T05:25:25.771Z</time></trkpt><trkpt lat="47.2875308" lon="11.156324683333333"><ele>606.0</ele><time>2026-05-01T05:25:26.793Z</time></trkpt><trkpt lat="47.28738334999999" lon="11.1566942"><ele>606.0</ele><time>2026-05-01T05:25:27.793Z</time></trkpt><trkpt lat="47.28723846666667" lon="11.157063466666667"><ele>606.0</ele><time>2026-05-01T05:25:28.773Z</time></trkpt><trkpt lat="47.28709130000001" lon="11.157437366666667"><ele>606.0</ele><time>2026-05-01T05:25:29.785Z</time></trkpt><trkpt lat="47.286947116666674" lon="11.157810483333334"><ele>606.0</ele><time>2026-05-01T05:25:30.787Z</time></trkpt><trkpt lat="47.28680438333334" lon="11.158184366666667"><ele>606.0</ele><time>2026-05-01T05:25:31.775Z</time></trkpt><trkpt lat="47.28666476666667" lon="11.158558349999998"><ele>606.0</ele><time>2026-05-01T05:25:32.784Z</time></trkpt><trkpt lat="47.286529016666655" lon="11.1589342"><ele>606.0</ele><time>2026-05-01T05:25:33.788Z</time></trkpt><trkpt lat="47.28639733333333" lon="11.159314866666666"><ele>606.0</ele><time>2026-05-01T05:25:34.792Z</time></trkpt><trkpt lat="47.28627163333334" lon="11.159702650000002"><ele>606.0</ele><time>2026-05-01T05:25:35.785Z</time></trkpt><trkpt lat="47.28615283333333" lon="11.160097733333334"><ele>606.0</ele><time>2026-05-01T05:25:36.794Z</time></trkpt><trkpt lat="47.2860397" lon="11.160498366666664"><ele>606.0</ele><time>2026-05-01T05:25:37.793Z</time></trkpt><trkpt lat="47.2859293" lon="11.160902933333334"><ele>606.0</ele><time>2026-05-01T05:25:38.787Z</time></trkpt><trkpt lat="47.28581796666667" lon="11.161315316666666"><ele>606.0</ele><time>2026-05-01T05:25:39.792Z</time></trkpt><trkpt lat="47.285714066666664" lon="11.161733533333331"><ele>606.0</ele><time>2026-05-01T05:25:40.777Z</time></trkpt><trkpt lat="47.28562010000001" lon="11.162156033333334"><ele>606.0</ele><time>2026-05-01T05:25:41.785Z</time></trkpt><trkpt lat="47.28553516666666" lon="11.162585449999998"><ele>606.0</ele><time>2026-05-01T05:25:42.79Z</time></trkpt><trkpt lat="47.285459483333334" lon="11.163019166666666"><ele>606.0</ele><time>2026-05-01T05:25:43.792Z</time></trkpt><trkpt lat="47.28538948333333" lon="11.16345585"><ele>606.0</ele><time>2026-05-01T05:25:44.786Z</time></trkpt><trkpt lat="47.28532221666666" lon="11.163892133333333"><ele>606.0</ele><time>2026-05-01T05:25:45.789Z</time></trkpt><trkpt lat="47.28525989999999" lon="11.164331783333333"><ele>606.0</ele><time>2026-05-01T05:25:46.792Z</time></trkpt><trkpt lat="47.28520391666666" lon="11.164770366666668"><ele>606.0</ele><time>2026-05-01T05:25:47.787Z</time></trkpt><trkpt lat="47.28515349999999" lon="11.165209166666665"><ele>606.0</ele><time>2026-05-01T05:25:48.787Z</time></trkpt><trkpt lat="47.28510296666666" lon="11.165649983333333"><ele>606.0</ele><time>2026-05-01T05:25:49.792Z</time></trkpt><trkpt lat="47.28505351666666" lon="11.166089566666669"><ele>606.5</ele><time>2026-05-01T05:25:50.788Z</time></trkpt><trkpt lat="47.28501163333333" lon="11.166530416666667"><ele>607.0</ele><time>2026-05-01T05:25:51.787Z</time></trkpt><trkpt lat="47.284978766666676" lon="11.166971633333334"><ele>606.5</ele><time>2026-05-01T05:25:52.794Z</time></trkpt><trkpt lat="47.28495411666666" lon="11.16741421666667"><ele>606.0</ele><time>2026-05-01T05:25:53.788Z</time></trkpt><trkpt lat="47.284936249999994" lon="11.16785145"><ele>606.0</ele><time>2026-05-01T05:25:54.788Z</time></trkpt><trkpt lat="47.28492753333333" lon="11.168292816666668"><ele>606.0</ele><time>2026-05-01T05:25:55.792Z</time></trkpt><trkpt lat="47.28492221666667" lon="11.168735116666669"><ele>607.5</ele><time>2026-05-01T05:25:56.786Z</time></trkpt><trkpt lat="47.28492516666667" lon="11.169173049999998"><ele>609.0</ele><time>2026-05-01T05:25:57.789Z</time></trkpt><trkpt lat="47.28493405" lon="11.169609783333332"><ele>607.5</ele><time>2026-05-01T05:25:58.794Z</time></trkpt><trkpt lat="47.284947300000006" lon="11.170042966666665"><ele>606.0</ele><time>2026-05-01T05:25:59.804Z</time></trkpt><trkpt lat="47.2849659" lon="11.170475016666668"><ele>605.0</ele><time>2026-05-01T05:26:00.787Z</time></trkpt><trkpt lat="47.28499311666666" lon="11.170906833333333"><ele>604.0</ele><time>2026-05-01T05:26:01.791Z</time></trkpt><trkpt lat="47.28502386666667" lon="11.171336899999998"><ele>604.0</ele><time>2026-05-01T05:26:02.789Z</time></trkpt><trkpt lat="47.28506099999999" lon="11.1717648"><ele>604.0</ele><time>2026-05-01T05:26:03.783Z</time></trkpt><trkpt lat="47.28509938333333" lon="11.172195683333333"><ele>603.5</ele><time>2026-05-01T05:26:04.77Z</time></trkpt><trkpt lat="47.28514101666667" lon="11.172626050000002"><ele>603.0</ele><time>2026-05-01T05:26:05.793Z</time></trkpt><trkpt lat="47.28518405" lon="11.173052816666665"><ele>603.5</ele><time>2026-05-01T05:26:06.788Z</time></trkpt><trkpt lat="47.28523005" lon="11.173476550000002"><ele>604.0</ele><time>2026-05-01T05:26:07.773Z</time></trkpt><trkpt lat="47.28527811666666" lon="11.173900933333334"><ele>603.5</ele><time>2026-05-01T05:26:08.784Z</time></trkpt><trkpt lat="47.28533009999999" lon="11.174325233333331"><ele>603.0</ele><time>2026-05-01T05:26:09.787Z</time></trkpt><trkpt lat="47.2853829" lon="11.174749799999999"><ele>603.5</ele><time>2026-05-01T05:26:10.796Z</time></trkpt><trkpt lat="47.28543585" lon="11.175173416666665"><ele>604.0</ele><time>2026-05-01T05:26:11.786Z</time></trkpt><trkpt lat="47.285490566666674" lon="11.175597666666667"><ele>604.5</ele><time>2026-05-01T05:26:12.789Z</time></trkpt><trkpt lat="47.28554340000001" lon="11.176022766666666"><ele>605.0</ele><time>2026-05-01T05:26:13.793Z</time></trkpt><trkpt lat="47.28559788333334" lon="11.176448033333335"><ele>605.5</ele><time>2026-05-01T05:26:14.788Z</time></trkpt><trkpt lat="47.28565101666666" lon="11.176876816666667"><ele>606.0</ele><time>2026-05-01T05:26:15.787Z</time></trkpt><trkpt lat="47.28570535000001" lon="11.17730455"><ele>606.0</ele><time>2026-05-01T05:26:16.794Z</time></trkpt><trkpt lat="47.28575741666667" lon="11.1777334"><ele>606.0</ele><time>2026-05-01T05:26:17.773Z</time></trkpt><trkpt lat="47.28580548333332" lon="11.178162500000001"><ele>606.5</ele><time>2026-05-01T05:26:18.781Z</time></trkpt><trkpt lat="47.285848249999994" lon="11.178593333333334"><ele>607.0</ele><time>2026-05-01T05:26:19.792Z</time></trkpt><trkpt lat="47.28588748333333" lon="11.17902495"><ele>606.0</ele><time>2026-05-01T05:26:20.786Z</time></trkpt><trkpt lat="47.28591885000001" lon="11.179455283333334"><ele>605.0</ele><time>2026-05-01T05:26:21.779Z</time></trkpt><trkpt lat="47.285940499999995" lon="11.179888833333333"><ele>605.0</ele><time>2026-05-01T05:26:22.794Z</time></trkpt><trkpt lat="47.28595518333333" lon="11.180325133333334"><ele>605.0</ele><time>2026-05-01T05:26:23.786Z</time></trkpt><trkpt lat="47.28596094999999" lon="11.180761733333336"><ele>605.0</ele><time>2026-05-01T05:26:24.79Z</time></trkpt><trkpt lat="47.28595955" lon="11.181197599999999"><ele>605.0</ele><time>2026-05-01T05:26:25.792Z</time></trkpt><trkpt lat="47.28594423333334" lon="11.181633866666667"><ele>605.0</ele><time>2026-05-01T05:26:26.773Z</time></trkpt><trkpt lat="47.28591773333333" lon="11.182064066666664"><ele>605.0</ele><time>2026-05-01T05:26:27.789Z</time></trkpt><trkpt lat="47.28588493333333" lon="11.182494799999999"><ele>605.0</ele><time>2026-05-01T05:26:28.792Z</time></trkpt><trkpt lat="47.285843716666676" lon="11.182920866666665"><ele>605.0</ele><time>2026-05-01T05:26:29.787Z</time></trkpt><trkpt lat="47.285790766666665" lon="11.183348049999998"><ele>605.0</ele><time>2026-05-01T05:26:30.789Z</time></trkpt><trkpt lat="47.28572836666667" lon="11.183771799999999"><ele>605.0</ele><time>2026-05-01T05:26:31.814Z</time></trkpt><trkpt lat="47.28565523333334" lon="11.184192383333334"><ele>604.0</ele><time>2026-05-01T05:26:32.79Z</time></trkpt><trkpt lat="47.28557300000001" lon="11.184606716666668"><ele>603.0</ele><time>2026-05-01T05:26:33.787Z</time></trkpt><trkpt lat="47.28548128333333" lon="11.1850176"><ele>603.0</ele><time>2026-05-01T05:26:34.792Z</time></trkpt><trkpt lat="47.285381733333324" lon="11.185428200000002"><ele>603.0</ele><time>2026-05-01T05:26:35.775Z</time></trkpt><trkpt lat="47.28527426666666" lon="11.185832683333336"><ele>603.0</ele><time>2026-05-01T05:26:36.788Z</time></trkpt><trkpt lat="47.285157149999996" lon="11.186232333333331"><ele>603.0</ele><time>2026-05-01T05:26:37.8Z</time></trkpt><trkpt lat="47.28503023333332" lon="11.186625566666667"><ele>603.0</ele><time>2026-05-01T05:26:38.786Z</time></trkpt><trkpt lat="47.28489748333333" lon="11.187013116666666"><ele>603.0</ele><time>2026-05-01T05:26:39.787Z</time></trkpt><trkpt lat="47.284755700000005" lon="11.187393899999998"><ele>603.0</ele><time>2026-05-01T05:26:40.784Z</time></trkpt><trkpt lat="47.28460718333334" lon="11.187769783333334"><ele>603.0</ele><time>2026-05-01T05:26:41.787Z</time></trkpt><trkpt lat="47.28445098333333" lon="11.188140233333334"><ele>603.5</ele><time>2026-05-01T05:26:42.793Z</time></trkpt><trkpt lat="47.28429346666667" lon="11.188506266666666"><ele>604.0</ele><time>2026-05-01T05:26:43.773Z</time></trkpt><trkpt lat="47.284134433333335" lon="11.188868999999999"><ele>604.5</ele><time>2026-05-01T05:26:44.806Z</time></trkpt><trkpt lat="47.28397096666666" lon="11.189232216666667"><ele>605.0</ele><time>2026-05-01T05:26:45.787Z</time></trkpt><trkpt lat="47.283806983333335" lon="11.189593933333333"><ele>604.5</ele><time>2026-05-01T05:26:46.792Z</time></trkpt><trkpt lat="47.283646266666665" lon="11.18996315"><ele>604.0</ele><time>2026-05-01T05:26:47.787Z</time></trkpt><trkpt lat="47.283485549999995" lon="11.190330883333337"><ele>605.0</ele><time>2026-05-01T05:26:48.788Z</time></trkpt><trkpt lat="47.28332506666667" lon="11.190700883333333"><ele>606.0</ele><time>2026-05-01T05:26:49.784Z</time></trkpt><trkpt lat="47.28316383333334" lon="11.191071183333333"><ele>606.0</ele><time>2026-05-01T05:26:50.786Z</time></trkpt><trkpt lat="47.28300423333333" lon="11.191438133333333"><ele>606.0</ele><time>2026-05-01T05:26:51.787Z</time></trkpt><trkpt lat="47.282844383333334" lon="11.191805183333335"><ele>606.0</ele><time>2026-05-01T05:26:52.793Z</time></trkpt><trkpt lat="47.28268501666666" lon="11.1921689"><ele>606.0</ele><time>2026-05-01T05:26:53.79Z</time></trkpt><trkpt lat="47.2825246" lon="11.192530583333333"><ele>606.5</ele><time>2026-05-01T05:26:54.787Z</time></trkpt><trkpt lat="47.28236685" lon="11.192890283333336"><ele>607.0</ele><time>2026-05-01T05:26:55.794Z</time></trkpt><trkpt lat="47.282211249999996" lon="11.193254200000002"><ele>606.0</ele><time>2026-05-01T05:26:56.786Z</time></trkpt><trkpt lat="47.28205653333333" lon="11.193617983333336"><ele>605.0</ele><time>2026-05-01T05:26:57.788Z</time></trkpt><trkpt lat="47.28190326666667" lon="11.193983133333331"><ele>605.0</ele><time>2026-05-01T05:26:58.773Z</time></trkpt><trkpt lat="47.28175435" lon="11.1943455"><ele>605.0</ele><time>2026-05-01T05:26:59.785Z</time></trkpt><trkpt lat="47.28160703333333" lon="11.19470485"><ele>606.0</ele><time>2026-05-01T05:27:00.789Z</time></trkpt><trkpt lat="47.28145821666667" lon="11.1950682"><ele>607.0</ele><time>2026-05-01T05:27:01.792Z</time></trkpt><trkpt lat="47.28130901666667" lon="11.195433983333333"><ele>604.0</ele><time>2026-05-01T05:27:02.79Z</time></trkpt><trkpt lat="47.28115918333334" lon="11.195799883333331"><ele>601.0</ele><time>2026-05-01T05:27:03.793Z</time></trkpt><trkpt lat="47.2810121" lon="11.196170866666668"><ele>602.0</ele><time>2026-05-01T05:27:04.792Z</time></trkpt><trkpt lat="47.280867183333335" lon="11.196544566666667"><ele>603.0</ele><time>2026-05-01T05:27:05.789Z</time></trkpt><trkpt lat="47.280721250000006" lon="11.196922199999998"><ele>602.0</ele><time>2026-05-01T05:27:06.787Z</time></trkpt><trkpt lat="47.28057704999999" lon="11.197304866666665"><ele>601.0</ele><time>2026-05-01T05:27:07.783Z</time></trkpt><trkpt lat="47.28043506666666" lon="11.197686866666666"><ele>601.0</ele><time>2026-05-01T05:27:08.785Z</time></trkpt><trkpt lat="47.28029801666666" lon="11.198069266666668"><ele>601.0</ele><time>2026-05-01T05:27:09.787Z</time></trkpt><trkpt lat="47.28015991666666" lon="11.198453816666666"><ele>601.0</ele><time>2026-05-01T05:27:10.792Z</time></trkpt><trkpt lat="47.28002423333334" lon="11.198840466666665"><ele>601.0</ele><time>2026-05-01T05:27:11.787Z</time></trkpt><trkpt lat="47.2798881" lon="11.199227050000003"><ele>601.5</ele><time>2026-05-01T05:27:12.794Z</time></trkpt><trkpt lat="47.27975305" lon="11.199612483333333"><ele>602.0</ele><time>2026-05-01T05:27:13.793Z</time></trkpt><trkpt lat="47.27961738333333" lon="11.200001233333335"><ele>602.5</ele><time>2026-05-01T05:27:14.785Z</time></trkpt><trkpt lat="47.279483766666665" lon="11.20039085"><ele>603.0</ele><time>2026-05-01T05:27:15.786Z</time></trkpt><trkpt lat="47.279351999999996" lon="11.200780333333334"><ele>603.0</ele><time>2026-05-01T05:27:16.783Z</time></trkpt><trkpt lat="47.27922168333333" lon="11.20117145"><ele>603.0</ele><time>2026-05-01T05:27:17.787Z</time></trkpt><trkpt lat="47.2790925" lon="11.201561883333333"><ele>603.0</ele><time>2026-05-01T05:27:18.788Z</time></trkpt><trkpt lat="47.278965600000014" lon="11.201958016666667"><ele>603.0</ele><time>2026-05-01T05:27:19.792Z</time></trkpt><trkpt lat="47.2788402" lon="11.202352733333331"><ele>601.5</ele><time>2026-05-01T05:27:20.792Z</time></trkpt><trkpt lat="47.27871601666667" lon="11.202744900000003"><ele>600.0</ele><time>2026-05-01T05:27:21.79Z</time></trkpt><trkpt lat="47.27859496666667" lon="11.203139516666665"><ele>601.0</ele><time>2026-05-01T05:27:22.793Z</time></trkpt><trkpt lat="47.27847641666667" lon="11.203537733333334"><ele>602.0</ele><time>2026-05-01T05:27:23.795Z</time></trkpt><trkpt lat="47.27835926666667" lon="11.203934416666666"><ele>602.0</ele><time>2026-05-01T05:27:24.793Z</time></trkpt><trkpt lat="47.278243283333325" lon="11.204337950000003"><ele>602.0</ele><time>2026-05-01T05:27:25.782Z</time></trkpt><trkpt lat="47.27812703333334" lon="11.204737250000003"><ele>601.0</ele><time>2026-05-01T05:27:26.785Z</time></trkpt><trkpt lat="47.278011183333334" lon="11.205138966666667"><ele>600.0</ele><time>2026-05-01T05:27:27.788Z</time></trkpt><trkpt lat="47.277896549999994" lon="11.205542966666668"><ele>600.0</ele><time>2026-05-01T05:27:28.793Z</time></trkpt><trkpt lat="47.277783183333334" lon="11.205948716666668"><ele>600.0</ele><time>2026-05-01T05:27:29.79Z</time></trkpt><trkpt lat="47.277672550000005" lon="11.206353933333332"><ele>600.0</ele><time>2026-05-01T05:27:30.783Z</time></trkpt><trkpt lat="47.27756063333332" lon="11.206757750000001"><ele>600.0</ele><time>2026-05-01T05:27:31.792Z</time></trkpt><trkpt lat="47.2774487" lon="11.207160383333333"><ele>601.0</ele><time>2026-05-01T05:27:32.786Z</time></trkpt><trkpt lat="47.27733893333335" lon="11.207565366666664"><ele>602.0</ele><time>2026-05-01T05:27:33.79Z</time></trkpt><trkpt lat="47.277230949999996" lon="11.207970583333333"><ele>601.0</ele><time>2026-05-01T05:27:34.782Z</time></trkpt><trkpt lat="47.27712495000001" lon="11.208377616666665"><ele>600.0</ele><time>2026-05-01T05:27:35.804Z</time></trkpt><trkpt lat="47.27701910000001" lon="11.208782616666667"><ele>600.5</ele><time>2026-05-01T05:27:36.787Z</time></trkpt><trkpt lat="47.27691386666667" lon="11.209188183333334"><ele>601.0</ele><time>2026-05-01T05:27:37.792Z</time></trkpt><trkpt lat="47.27681065" lon="11.209593400000003"><ele>600.5</ele><time>2026-05-01T05:27:38.795Z</time></trkpt><trkpt lat="47.27670836666666" lon="11.209999616666668"><ele>600.0</ele><time>2026-05-01T05:27:39.781Z</time></trkpt><trkpt lat="47.2766053" lon="11.210405533333336"><ele>600.0</ele><time>2026-05-01T05:27:40.776Z</time></trkpt><trkpt lat="47.27650284999999" lon="11.210810983333332"><ele>600.0</ele><time>2026-05-01T05:27:41.788Z</time></trkpt><trkpt lat="47.27640043333334" lon="11.211217616666666"><ele>599.5</ele><time>2026-05-01T05:27:42.774Z</time></trkpt><trkpt lat="47.27629828333333" lon="11.211623483333335"><ele>599.0</ele><time>2026-05-01T05:27:43.789Z</time></trkpt><trkpt lat="47.27619708333334" lon="11.212028066666669"><ele>600.5</ele><time>2026-05-01T05:27:44.778Z</time></trkpt><trkpt lat="47.27609545" lon="11.212430816666666"><ele>602.0</ele><time>2026-05-01T05:27:45.787Z</time></trkpt><trkpt lat="47.275993850000006" lon="11.21283275"><ele>603.5</ele><time>2026-05-01T05:27:46.792Z</time></trkpt><trkpt lat="47.27589428333334" lon="11.213234083333335"><ele>605.0</ele><time>2026-05-01T05:27:47.787Z</time></trkpt><trkpt lat="47.27579463333333" lon="11.213637133333334"><ele>603.5</ele><time>2026-05-01T05:27:48.774Z</time></trkpt><trkpt lat="47.27569544999999" lon="11.214039600000001"><ele>602.0</ele><time>2026-05-01T05:27:49.792Z</time></trkpt><trkpt lat="47.27559670000001" lon="11.214438583333333"><ele>599.5</ele><time>2026-05-01T05:27:50.787Z</time></trkpt><trkpt lat="47.27549630000001" lon="11.214834183333334"><ele>597.0</ele><time>2026-05-01T05:27:51.788Z</time></trkpt><trkpt lat="47.27539296666667" lon="11.215230916666666"><ele>597.0</ele><time>2026-05-01T05:27:52.783Z</time></trkpt><trkpt lat="47.2752905" lon="11.215622616666666"><ele>597.0</ele><time>2026-05-01T05:27:53.793Z</time></trkpt><trkpt lat="47.27518595" lon="11.21601615"><ele>598.5</ele><time>2026-05-01T05:27:54.787Z</time></trkpt><trkpt lat="47.275084050000004" lon="11.216409916666665"><ele>600.0</ele><time>2026-05-01T05:27:55.792Z</time></trkpt><trkpt lat="47.27498188333334" lon="11.216801983333335"><ele>600.0</ele><time>2026-05-01T05:27:56.786Z</time></trkpt><trkpt lat="47.27487826666667" lon="11.217190500000001"><ele>600.0</ele><time>2026-05-01T05:27:57.777Z</time></trkpt><trkpt lat="47.27477218333333" lon="11.217577166666668"><ele>598.5</ele><time>2026-05-01T05:27:58.792Z</time></trkpt><trkpt lat="47.27466673333333" lon="11.2179623"><ele>597.0</ele><time>2026-05-01T05:27:59.793Z</time></trkpt><trkpt lat="47.274557900000005" lon="11.218347316666666"><ele>597.0</ele><time>2026-05-01T05:28:00.788Z</time></trkpt><trkpt lat="47.27444609999999" lon="11.218727766666666"><ele>597.0</ele><time>2026-05-01T05:28:01.773Z</time></trkpt><trkpt lat="47.27433226666667" lon="11.219103666666667"><ele>597.5</ele><time>2026-05-01T05:28:02.772Z</time></trkpt><trkpt lat="47.27421445" lon="11.219479049999999"><ele>598.0</ele><time>2026-05-01T05:28:03.789Z</time></trkpt><trkpt lat="47.274094433333325" lon="11.219851400000001"><ele>598.0</ele><time>2026-05-01T05:28:04.791Z</time></trkpt><trkpt lat="47.273971366666665" lon="11.220222933333332"><ele>598.0</ele><time>2026-05-01T05:28:05.788Z</time></trkpt><trkpt lat="47.273843883333335" lon="11.2205941"><ele>597.0</ele><time>2026-05-01T05:28:06.792Z</time></trkpt><trkpt lat="47.27371236666666" lon="11.220966483333333"><ele>596.0</ele><time>2026-05-01T05:28:07.814Z</time></trkpt><trkpt lat="47.27357905" lon="11.221343783333335"><ele>597.0</ele><time>2026-05-01T05:28:08.794Z</time></trkpt><trkpt lat="47.27344240000001" lon="11.221717983333335"><ele>598.0</ele><time>2026-05-01T05:28:09.789Z</time></trkpt><trkpt lat="47.27330055000001" lon="11.222092116666666"><ele>599.0</ele><time>2026-05-01T05:28:10.792Z</time></trkpt><trkpt lat="47.273150766666674" lon="11.222467066666667"><ele>600.0</ele><time>2026-05-01T05:28:11.784Z</time></trkpt><trkpt lat="47.27299575000001" lon="11.222839316666667"><ele>599.5</ele><time>2026-05-01T05:28:12.792Z</time></trkpt><trkpt lat="47.272837066666675" lon="11.223205833333335"><ele>599.0</ele><time>2026-05-01T05:28:13.794Z</time></trkpt><trkpt lat="47.27267608333333" lon="11.223566100000001"><ele>599.0</ele><time>2026-05-01T05:28:14.791Z</time></trkpt><trkpt lat="47.2725101" lon="11.22392195"><ele>599.0</ele><time>2026-05-01T05:28:15.795Z</time></trkpt><trkpt lat="47.27234258333333" lon="11.224273566666666"><ele>599.0</ele><time>2026-05-01T05:28:16.784Z</time></trkpt><trkpt lat="47.27217171666666" lon="11.224622916666664"><ele>599.0</ele><time>2026-05-01T05:28:17.787Z</time></trkpt><trkpt lat="47.27199526666667" lon="11.224965233333334"><ele>599.0</ele><time>2026-05-01T05:28:18.787Z</time></trkpt><trkpt lat="47.271816699999995" lon="11.225302966666668"><ele>599.0</ele><time>2026-05-01T05:28:19.792Z</time></trkpt><trkpt lat="47.27163545" lon="11.22564325"><ele>598.5</ele><time>2026-05-01T05:28:20.789Z</time></trkpt><trkpt lat="47.27145146666667" lon="11.225977799999999"><ele>598.0</ele><time>2026-05-01T05:28:21.786Z</time></trkpt><trkpt lat="47.271264183333344" lon="11.226306633333335"><ele>599.5</ele><time>2026-05-01T05:28:22.792Z</time></trkpt><trkpt lat="47.2710718" lon="11.226634149999999"><ele>601.0</ele><time>2026-05-01T05:28:23.786Z</time></trkpt><trkpt lat="47.270875499999995" lon="11.226953800000002"><ele>601.0</ele><time>2026-05-01T05:28:24.794Z</time></trkpt><trkpt lat="47.27067811666668" lon="11.227263249999998"><ele>601.0</ele><time>2026-05-01T05:28:25.795Z</time></trkpt><trkpt lat="47.27047983333333" lon="11.227563366666667"><ele>601.0</ele><time>2026-05-01T05:28:26.786Z</time></trkpt><trkpt lat="47.2702842" lon="11.227849183333335"><ele>601.0</ele><time>2026-05-01T05:28:27.788Z</time></trkpt><trkpt lat="47.27009188333333" lon="11.228123850000001"><ele>601.5</ele><time>2026-05-01T05:28:28.777Z</time></trkpt><trkpt lat="47.269898883333326" lon="11.228389683333335"><ele>602.0</ele><time>2026-05-01T05:28:29.786Z</time></trkpt><trkpt lat="47.269707266666664" lon="11.228644666666666"><ele>600.0</ele><time>2026-05-01T05:28:30.787Z</time></trkpt><trkpt lat="47.269516366666664" lon="11.228890716666667"><ele>598.0</ele><time>2026-05-01T05:28:31.792Z</time></trkpt><trkpt lat="47.2693265" lon="11.229130033333336"><ele>598.0</ele><time>2026-05-01T05:28:32.787Z</time></trkpt><trkpt lat="47.26914043333333" lon="11.229363166666667"><ele>598.0</ele><time>2026-05-01T05:28:33.791Z</time></trkpt><trkpt lat="47.26895208333334" lon="11.229589333333335"><ele>598.0</ele><time>2026-05-01T05:28:34.773Z</time></trkpt><trkpt lat="47.26876175000001" lon="11.229813116666666"><ele>598.0</ele><time>2026-05-01T05:28:35.786Z</time></trkpt><trkpt lat="47.26857253333333" lon="11.230035083333332"><ele>598.0</ele><time>2026-05-01T05:28:36.786Z</time></trkpt><trkpt lat="47.26838181666667" lon="11.230255366666665"><ele>598.0</ele><time>2026-05-01T05:28:37.773Z</time></trkpt><trkpt lat="47.268189050000004" lon="11.23047455"><ele>596.5</ele><time>2026-05-01T05:28:38.787Z</time></trkpt><trkpt lat="47.267995199999994" lon="11.230692366666664"><ele>595.0</ele><time>2026-05-01T05:28:39.794Z</time></trkpt><trkpt lat="47.2678026" lon="11.230907366666669"><ele>595.0</ele><time>2026-05-01T05:28:40.776Z</time></trkpt><trkpt lat="47.26761178333334" lon="11.231121000000002"><ele>595.0</ele><time>2026-05-01T05:28:41.787Z</time></trkpt><trkpt lat="47.267420533333336" lon="11.2313359"><ele>595.0</ele><time>2026-05-01T05:28:42.774Z</time></trkpt><trkpt lat="47.26722759999999" lon="11.231546933333334"><ele>595.0</ele><time>2026-05-01T05:28:43.776Z</time></trkpt><trkpt lat="47.26703756666667" lon="11.231762433333332"><ele>595.0</ele><time>2026-05-01T05:28:44.786Z</time></trkpt><trkpt lat="47.2668491" lon="11.231980916666664"><ele>595.0</ele><time>2026-05-01T05:28:45.787Z</time></trkpt><trkpt lat="47.266662499999995" lon="11.232203016666665"><ele>595.5</ele><time>2026-05-01T05:28:46.773Z</time></trkpt><trkpt lat="47.26647883333334" lon="11.232432883333335"><ele>596.0</ele><time>2026-05-01T05:28:47.788Z</time></trkpt><trkpt lat="47.266296700000005" lon="11.232661966666667"><ele>596.0</ele><time>2026-05-01T05:28:48.795Z</time></trkpt><trkpt lat="47.26611795" lon="11.232894216666665"><ele>596.0</ele><time>2026-05-01T05:28:49.792Z</time></trkpt><trkpt lat="47.2659404" lon="11.2331329"><ele>596.5</ele><time>2026-05-01T05:28:50.786Z</time></trkpt><trkpt lat="47.2657649" lon="11.233377183333335"><ele>597.0</ele><time>2026-05-01T05:28:51.787Z</time></trkpt><trkpt lat="47.265592299999994" lon="11.233625066666665"><ele>597.0</ele><time>2026-05-01T05:28:52.776Z</time></trkpt><trkpt lat="47.265421550000006" lon="11.233873249999998"><ele>597.0</ele><time>2026-05-01T05:28:53.788Z</time></trkpt><trkpt lat="47.26525409999999" lon="11.234125566666668"><ele>597.0</ele><time>2026-05-01T05:28:54.787Z</time></trkpt><trkpt lat="47.26508805" lon="11.234380516666667"><ele>597.0</ele><time>2026-05-01T05:28:55.772Z</time></trkpt><trkpt lat="47.264924166666674" lon="11.234639633333332"><ele>597.0</ele><time>2026-05-01T05:28:56.785Z</time></trkpt><trkpt lat="47.264763499999994" lon="11.234906316666665"><ele>597.0</ele><time>2026-05-01T05:28:57.791Z</time></trkpt><trkpt lat="47.26460556666666" lon="11.235179283333332"><ele>597.0</ele><time>2026-05-01T05:28:58.792Z</time></trkpt><trkpt lat="47.2644508" lon="11.23546055"><ele>597.0</ele><time>2026-05-01T05:28:59.789Z</time></trkpt><trkpt lat="47.26429946666668" lon="11.235747716666667"><ele>598.0</ele><time>2026-05-01T05:29:00.788Z</time></trkpt><trkpt lat="47.26414915" lon="11.23603845"><ele>599.0</ele><time>2026-05-01T05:29:01.793Z</time></trkpt><trkpt lat="47.264001916666665" lon="11.236333083333333"><ele>597.0</ele><time>2026-05-01T05:29:02.787Z</time></trkpt><trkpt lat="47.26385775" lon="11.23663185"><ele>595.0</ele><time>2026-05-01T05:29:03.787Z</time></trkpt><trkpt lat="47.26371521666667" lon="11.236936483333333"><ele>595.0</ele><time>2026-05-01T05:29:04.792Z</time></trkpt><trkpt lat="47.26357705" lon="11.237247466666668"><ele>595.0</ele><time>2026-05-01T05:29:05.786Z</time></trkpt><trkpt lat="47.2634428" lon="11.237562633333333"><ele>596.0</ele><time>2026-05-01T05:29:06.784Z</time></trkpt><trkpt lat="47.26331480000001" lon="11.237881883333333"><ele>597.0</ele><time>2026-05-01T05:29:07.773Z</time></trkpt><trkpt lat="47.2631874" lon="11.238203733333334"><ele>597.5</ele><time>2026-05-01T05:29:08.786Z</time></trkpt><trkpt lat="47.26306343333334" lon="11.238527366666665"><ele>598.0</ele><time>2026-05-01T05:29:09.79Z</time></trkpt><trkpt lat="47.26294466666666" lon="11.238853716666666"><ele>597.5</ele><time>2026-05-01T05:29:10.773Z</time></trkpt><trkpt lat="47.2628295" lon="11.239183833333334"><ele>597.0</ele><time>2026-05-01T05:29:11.804Z</time></trkpt><trkpt lat="47.26271716666667" lon="11.239518683333332"><ele>596.5</ele><time>2026-05-01T05:29:12.788Z</time></trkpt><trkpt lat="47.262608183333334" lon="11.23985685"><ele>596.0</ele><time>2026-05-01T05:29:13.773Z</time></trkpt><trkpt lat="47.26250395" lon="11.240199733333334"><ele>596.0</ele><time>2026-05-01T05:29:14.789Z</time></trkpt><trkpt lat="47.26240524999999" lon="11.24054315"><ele>596.0</ele><time>2026-05-01T05:29:15.782Z</time></trkpt><trkpt lat="47.26230983333333" lon="11.240889133333335"><ele>600.5</ele><time>2026-05-01T05:29:16.773Z</time></trkpt><trkpt lat="47.26221881666667" lon="11.241238066666664"><ele>605.0</ele><time>2026-05-01T05:29:17.787Z</time></trkpt><trkpt lat="47.26213228333332" lon="11.241591116666665"><ele>605.0</ele><time>2026-05-01T05:29:18.787Z</time></trkpt><trkpt lat="47.26205043333333" lon="11.241941966666664"><ele>605.0</ele><time>2026-05-01T05:29:19.774Z</time></trkpt><trkpt lat="47.26196955" lon="11.242293566666667"><ele>603.5</ele><time>2026-05-01T05:29:20.771Z</time></trkpt><trkpt lat="47.26188953333334" lon="11.242647600000002"><ele>602.0</ele><time>2026-05-01T05:29:21.788Z</time></trkpt><trkpt lat="47.26181643333333" lon="11.243003883333332"><ele>598.0</ele><time>2026-05-01T05:29:22.793Z</time></trkpt><trkpt lat="47.261750533333334" lon="11.243358983333334"><ele>594.0</ele><time>2026-05-01T05:29:23.786Z</time></trkpt><trkpt lat="47.26169063333333" lon="11.243716983333334"><ele>593.0</ele><time>2026-05-01T05:29:24.787Z</time></trkpt><trkpt lat="47.261635866666666" lon="11.244076683333333"><ele>592.0</ele><time>2026-05-01T05:29:25.773Z</time></trkpt><trkpt lat="47.26158415" lon="11.244437750000001"><ele>593.0</ele><time>2026-05-01T05:29:26.786Z</time></trkpt><trkpt lat="47.26153745" lon="11.244803433333333"><ele>594.0</ele><time>2026-05-01T05:29:27.793Z</time></trkpt><trkpt lat="47.2615005" lon="11.245168683333334"><ele>594.0</ele><time>2026-05-01T05:29:28.773Z</time></trkpt><trkpt lat="47.26147148333333" lon="11.24553265"><ele>594.0</ele><time>2026-05-01T05:29:29.795Z</time></trkpt><trkpt lat="47.26144806666666" lon="11.245897483333332"><ele>601.0</ele><time>2026-05-01T05:29:30.79Z</time></trkpt><trkpt lat="47.26143353333334" lon="11.246261350000003"><ele>608.0</ele><time>2026-05-01T05:29:31.792Z</time></trkpt><trkpt lat="47.26142568333333" lon="11.246624633333331"><ele>608.0</ele><time>2026-05-01T05:29:32.794Z</time></trkpt><trkpt lat="47.26142438333333" lon="11.246987283333333"><ele>608.0</ele><time>2026-05-01T05:29:33.789Z</time></trkpt><trkpt lat="47.26143153333334" lon="11.247346833333332"><ele>603.0</ele><time>2026-05-01T05:29:34.792Z</time></trkpt><trkpt lat="47.26144496666668" lon="11.247704283333332"><ele>598.0</ele><time>2026-05-01T05:29:35.786Z</time></trkpt><trkpt lat="47.26146863333334" lon="11.248060233333334"><ele>594.5</ele><time>2026-05-01T05:29:36.79Z</time></trkpt><trkpt lat="47.26150173333334" lon="11.248414466666668"><ele>591.0</ele><time>2026-05-01T05:29:37.776Z</time></trkpt><trkpt lat="47.26154165" lon="11.248766233333333"><ele>591.5</ele><time>2026-05-01T05:29:38.795Z</time></trkpt><trkpt lat="47.26159148333333" lon="11.249116166666665"><ele>592.0</ele><time>2026-05-01T05:29:39.792Z</time></trkpt><trkpt lat="47.261646533333334" lon="11.249462966666666"><ele>591.0</ele><time>2026-05-01T05:29:40.772Z</time></trkpt><trkpt lat="47.2617034" lon="11.249808683333335"><ele>590.0</ele><time>2026-05-01T05:29:41.786Z</time></trkpt><trkpt lat="47.26176613333333" lon="11.250155433333335"><ele>590.0</ele><time>2026-05-01T05:29:42.791Z</time></trkpt><trkpt lat="47.261836166666676" lon="11.250497250000002"><ele>590.0</ele><time>2026-05-01T05:29:43.815Z</time></trkpt><trkpt lat="47.26191478333333" lon="11.250829116666665"><ele>590.5</ele><time>2026-05-01T05:29:44.786Z</time></trkpt><trkpt lat="47.26199976666667" lon="11.251159816666664"><ele>591.0</ele><time>2026-05-01T05:29:45.79Z</time></trkpt><trkpt lat="47.262093166666666" lon="11.251487449999997"><ele>592.0</ele><time>2026-05-01T05:29:46.792Z</time></trkpt><trkpt lat="47.2621922" lon="11.251813733333332"><ele>593.0</ele><time>2026-05-01T05:29:47.787Z</time></trkpt><trkpt lat="47.26229575000001" lon="11.252141133333334"><ele>594.5</ele><time>2026-05-01T05:29:48.787Z</time></trkpt><trkpt lat="47.26240381666666" lon="11.252467933333334"><ele>596.0</ele><time>2026-05-01T05:29:49.773Z</time></trkpt><trkpt lat="47.26251736666666" lon="11.252794283333333"><ele>596.0</ele><time>2026-05-01T05:29:50.786Z</time></trkpt><trkpt lat="47.26263491666667" lon="11.253118633333335"><ele>596.0</ele><time>2026-05-01T05:29:51.789Z</time></trkpt><trkpt lat="47.26275665" lon="11.253444566666666"><ele>595.0</ele><time>2026-05-01T05:29:52.784Z</time></trkpt><trkpt lat="47.26287885" lon="11.25377145"><ele>594.0</ele><time>2026-05-01T05:29:53.786Z</time></trkpt><trkpt lat="47.26300253333334" lon="11.254099383333335"><ele>596.5</ele><time>2026-05-01T05:29:54.792Z</time></trkpt><trkpt lat="47.26312655" lon="11.254429550000003"><ele>599.0</ele><time>2026-05-01T05:29:55.792Z</time></trkpt><trkpt lat="47.26324875" lon="11.2547629"><ele>597.0</ele><time>2026-05-01T05:29:56.79Z</time></trkpt><trkpt lat="47.2633661" lon="11.255096083333333"><ele>595.0</ele><time>2026-05-01T05:29:57.788Z</time></trkpt><trkpt lat="47.26348203333334" lon="11.255430716666668"><ele>592.5</ele><time>2026-05-01T05:29:58.772Z</time></trkpt><trkpt lat="47.26359898333333" lon="11.255765199999999"><ele>590.0</ele><time>2026-05-01T05:29:59.79Z</time></trkpt><trkpt lat="47.26371071666667" lon="11.256098466666666"><ele>590.0</ele><time>2026-05-01T05:30:00.787Z</time></trkpt><trkpt lat="47.26381753333333" lon="11.256430983333333"><ele>590.0</ele><time>2026-05-01T05:30:01.785Z</time></trkpt><trkpt lat="47.26391655000001" lon="11.256765266666665"><ele>592.5</ele><time>2026-05-01T05:30:02.787Z</time></trkpt><trkpt lat="47.264010583333324" lon="11.257100816666666"><ele>595.0</ele><time>2026-05-01T05:30:03.787Z</time></trkpt><trkpt lat="47.264098950000005" lon="11.2574357"><ele>595.0</ele><time>2026-05-01T05:30:04.773Z</time></trkpt><trkpt lat="47.26418136666666" lon="11.257772350000002"><ele>595.0</ele><time>2026-05-01T05:30:05.791Z</time></trkpt><trkpt lat="47.26425848333333" lon="11.258109783333335"><ele>594.5</ele><time>2026-05-01T05:30:06.787Z</time></trkpt><trkpt lat="47.26433285" lon="11.25844875"><ele>594.0</ele><time>2026-05-01T05:30:07.793Z</time></trkpt><trkpt lat="47.264402999999994" lon="11.25878735"><ele>594.0</ele><time>2026-05-01T05:30:08.79Z</time></trkpt><trkpt lat="47.26446958333333" lon="11.259125950000001"><ele>594.0</ele><time>2026-05-01T05:30:09.787Z</time></trkpt><trkpt lat="47.26453043333333" lon="11.259466000000002"><ele>594.0</ele><time>2026-05-01T05:30:10.771Z</time></trkpt><trkpt lat="47.26458768333333" lon="11.259806616666667"><ele>594.0</ele><time>2026-05-01T05:30:11.789Z</time></trkpt><trkpt lat="47.26464115" lon="11.260149433333334"><ele>594.0</ele><time>2026-05-01T05:30:12.791Z</time></trkpt><trkpt lat="47.26469000000001" lon="11.26049715"><ele>594.0</ele><time>2026-05-01T05:30:13.793Z</time></trkpt><trkpt lat="47.26473216666667" lon="11.260848033333332"><ele>594.0</ele><time>2026-05-01T05:30:14.795Z</time></trkpt><trkpt lat="47.26476928333333" lon="11.261199616666666"><ele>594.0</ele><time>2026-05-01T05:30:15.796Z</time></trkpt><trkpt lat="47.26480231666666" lon="11.261550150000001"><ele>595.5</ele><time>2026-05-01T05:30:16.771Z</time></trkpt><trkpt lat="47.264832116666675" lon="11.2619035"><ele>597.0</ele><time>2026-05-01T05:30:17.79Z</time></trkpt><trkpt lat="47.264855866666664" lon="11.262264633333332"><ele>595.5</ele><time>2026-05-01T05:30:18.789Z</time></trkpt><trkpt lat="47.26487638333333" lon="11.262625916666664"><ele>594.0</ele><time>2026-05-01T05:30:19.796Z</time></trkpt><trkpt lat="47.264894749999996" lon="11.262988383333335"><ele>593.0</ele><time>2026-05-01T05:30:20.786Z</time></trkpt><trkpt lat="47.26490656666666" lon="11.263352616666669"><ele>592.0</ele><time>2026-05-01T05:30:21.787Z</time></trkpt><trkpt lat="47.264912216666666" lon="11.263716949999997"><ele>592.5</ele><time>2026-05-01T05:30:22.795Z</time></trkpt><trkpt lat="47.26491381666667" lon="11.264084500000003"><ele>593.0</ele><time>2026-05-01T05:30:23.795Z</time></trkpt><trkpt lat="47.26491411666665" lon="11.264450333333333"><ele>592.5</ele><time>2026-05-01T05:30:24.775Z</time></trkpt><trkpt lat="47.264911566666655" lon="11.2648128"><ele>592.0</ele><time>2026-05-01T05:30:25.793Z</time></trkpt><trkpt lat="47.264905899999995" lon="11.265181199999999"><ele>592.0</ele><time>2026-05-01T05:30:26.792Z</time></trkpt><trkpt lat="47.26489548333333" lon="11.265549633333334"><ele>592.0</ele><time>2026-05-01T05:30:27.791Z</time></trkpt><trkpt lat="47.26488448333333" lon="11.265913183333332"><ele>591.5</ele><time>2026-05-01T05:30:28.795Z</time></trkpt><trkpt lat="47.26487314999999" lon="11.266277833333334"><ele>591.0</ele><time>2026-05-01T05:30:29.789Z</time></trkpt><trkpt lat="47.26486226666666" lon="11.2666436"><ele>591.0</ele><time>2026-05-01T05:30:30.792Z</time></trkpt><trkpt lat="47.26485211666666" lon="11.267010066666668"><ele>591.0</ele><time>2026-05-01T05:30:31.793Z</time></trkpt><trkpt lat="47.26484176666666" lon="11.267378283333334"><ele>590.5</ele><time>2026-05-01T05:30:32.772Z</time></trkpt><trkpt lat="47.264832350000006" lon="11.267747499999999"><ele>590.0</ele><time>2026-05-01T05:30:33.794Z</time></trkpt><trkpt lat="47.26482295000001" lon="11.268113283333332"><ele>592.0</ele><time>2026-05-01T05:30:34.793Z</time></trkpt><trkpt lat="47.26481596666666" lon="11.268479666666666"><ele>594.0</ele><time>2026-05-01T05:30:35.774Z</time></trkpt><trkpt lat="47.26481026666667" lon="11.268844916666668"><ele>593.5</ele><time>2026-05-01T05:30:36.794Z</time></trkpt><trkpt lat="47.264807299999994" lon="11.269206716666668"><ele>593.0</ele><time>2026-05-01T05:30:37.793Z</time></trkpt><trkpt lat="47.264807483333335" lon="11.269569583333334"><ele>592.5</ele><time>2026-05-01T05:30:38.774Z</time></trkpt><trkpt lat="47.26480958333334" lon="11.26993335"><ele>592.0</ele><time>2026-05-01T05:30:39.794Z</time></trkpt><trkpt lat="47.26481535" lon="11.270296116666668"><ele>591.5</ele><time>2026-05-01T05:30:40.792Z</time></trkpt><trkpt lat="47.26482616666667" lon="11.27066015"><ele>591.0</ele><time>2026-05-01T05:30:41.774Z</time></trkpt><trkpt lat="47.26483953333333" lon="11.271023199999998"><ele>591.0</ele><time>2026-05-01T05:30:42.775Z</time></trkpt><trkpt lat="47.264857016666674" lon="11.2713843"><ele>591.0</ele><time>2026-05-01T05:30:43.792Z</time></trkpt><trkpt lat="47.26487693333334" lon="11.271742283333333"><ele>590.5</ele><time>2026-05-01T05:30:44.774Z</time></trkpt><trkpt lat="47.26490021666667" lon="11.272096383333333"><ele>590.0</ele><time>2026-05-01T05:30:45.792Z</time></trkpt><trkpt lat="47.26492809999999" lon="11.272450733333335"><ele>590.0</ele><time>2026-05-01T05:30:46.783Z</time></trkpt><trkpt lat="47.26495628333333" lon="11.27280465"><ele>590.0</ele><time>2026-05-01T05:30:47.775Z</time></trkpt><trkpt lat="47.26498706666666" lon="11.273157016666667"><ele>589.5</ele><time>2026-05-01T05:30:48.791Z</time></trkpt><trkpt lat="47.265017366666676" lon="11.273507316666667"><ele>589.0</ele><time>2026-05-01T05:30:49.792Z</time></trkpt><trkpt lat="47.265046600000005" lon="11.27385605"><ele>589.0</ele><time>2026-05-01T05:30:50.776Z</time></trkpt><trkpt lat="47.2650757" lon="11.274199316666666"><ele>589.0</ele><time>2026-05-01T05:30:51.791Z</time></trkpt><trkpt lat="47.265105016666666" lon="11.27454518333333"><ele>587.5</ele><time>2026-05-01T05:30:52.793Z</time></trkpt><trkpt lat="47.26513503333334" lon="11.274891600000002"><ele>586.0</ele><time>2026-05-01T05:30:53.774Z</time></trkpt><trkpt lat="47.265164683333325" lon="11.275234250000002"><ele>586.0</ele><time>2026-05-01T05:30:54.791Z</time></trkpt><trkpt lat="47.265196216666666" lon="11.275573450000003"><ele>586.0</ele><time>2026-05-01T05:30:55.775Z</time></trkpt><trkpt lat="47.265226733333336" lon="11.275913883333331"><ele>586.0</ele><time>2026-05-01T05:30:56.779Z</time></trkpt><trkpt lat="47.265253733333346" lon="11.276255766666669"><ele>586.0</ele><time>2026-05-01T05:30:57.776Z</time></trkpt><trkpt lat="47.26527705" lon="11.276600800000002"><ele>586.0</ele><time>2026-05-01T05:30:58.794Z</time></trkpt><trkpt lat="47.265294383333334" lon="11.276942566666666"><ele>586.0</ele><time>2026-05-01T05:30:59.776Z</time></trkpt><trkpt lat="47.26530916666667" lon="11.277284116666666"><ele>585.5</ele><time>2026-05-01T05:31:00.793Z</time></trkpt><trkpt lat="47.26532201666667" lon="11.277627916666665"><ele>585.0</ele><time>2026-05-01T05:31:01.796Z</time></trkpt><trkpt lat="47.26533063333333" lon="11.277973300000001"><ele>586.5</ele><time>2026-05-01T05:31:02.774Z</time></trkpt><trkpt lat="47.265334683333336" lon="11.278315683333334"><ele>588.0</ele><time>2026-05-01T05:31:03.793Z</time></trkpt><trkpt lat="47.26533713333333" lon="11.278661116666669"><ele>588.5</ele><time>2026-05-01T05:31:04.773Z</time></trkpt><trkpt lat="47.265333866666666" lon="11.27900353333333"><ele>589.0</ele><time>2026-05-01T05:31:05.797Z</time></trkpt><trkpt lat="47.26532448333334" lon="11.279344983333331"><ele>589.0</ele><time>2026-05-01T05:31:06.794Z</time></trkpt><trkpt lat="47.26530791666668" lon="11.279691300000001"><ele>589.0</ele><time>2026-05-01T05:31:07.793Z</time></trkpt><trkpt lat="47.26528409999999" lon="11.280042816666667"><ele>589.0</ele><time>2026-05-01T05:31:08.774Z</time></trkpt><trkpt lat="47.2652544" lon="11.280395266666668"><ele>589.0</ele><time>2026-05-01T05:31:09.793Z</time></trkpt><trkpt lat="47.265215749999996" lon="11.280751816666669"><ele>589.0</ele><time>2026-05-01T05:31:10.775Z</time></trkpt><trkpt lat="47.26516924999999" lon="11.281109183333335"><ele>589.0</ele><time>2026-05-01T05:31:11.774Z</time></trkpt><trkpt lat="47.26511595" lon="11.281467933333333"><ele>588.0</ele><time>2026-05-01T05:31:12.792Z</time></trkpt><trkpt lat="47.2650578" lon="11.281825116666667"><ele>587.0</ele><time>2026-05-01T05:31:13.792Z</time></trkpt><trkpt lat="47.26499116666667" lon="11.282181933333334"><ele>587.5</ele><time>2026-05-01T05:31:14.787Z</time></trkpt><trkpt lat="47.26491553333333" lon="11.282538250000002"><ele>588.0</ele><time>2026-05-01T05:31:15.792Z</time></trkpt><trkpt lat="47.26483183333333" lon="11.282892499999997"><ele>585.5</ele><time>2026-05-01T05:31:16.795Z</time></trkpt><trkpt lat="47.264741833333325" lon="11.283242683333333"><ele>583.0</ele><time>2026-05-01T05:31:17.773Z</time></trkpt><trkpt lat="47.264646033333335" lon="11.283591699999999"><ele>584.5</ele><time>2026-05-01T05:31:18.792Z</time></trkpt><trkpt lat="47.264547549999996" lon="11.28393735"><ele>586.0</ele><time>2026-05-01T05:31:19.786Z</time></trkpt><trkpt lat="47.26444863333333" lon="11.284275616666665"><ele>586.0</ele><time>2026-05-01T05:31:20.774Z</time></trkpt><trkpt lat="47.264345950000006" lon="11.284603416666668"><ele>586.0</ele><time>2026-05-01T05:31:21.791Z</time></trkpt><trkpt lat="47.26424731666666" lon="11.28492505"><ele>587.0</ele><time>2026-05-01T05:31:22.793Z</time></trkpt><trkpt lat="47.26414866666667" lon="11.285243183333334"><ele>588.0</ele><time>2026-05-01T05:31:23.785Z</time></trkpt><trkpt lat="47.26404625000001" lon="11.285563716666665"><ele>587.0</ele><time>2026-05-01T05:31:24.791Z</time></trkpt><trkpt lat="47.2639424" lon="11.285885883333334"><ele>586.0</ele><time>2026-05-01T05:31:25.793Z</time></trkpt><trkpt lat="47.263840066666674" lon="11.28620805"><ele>585.0</ele><time>2026-05-01T05:31:26.774Z</time></trkpt><trkpt lat="47.2637372" lon="11.286531400000001"><ele>584.0</ele><time>2026-05-01T05:31:27.792Z</time></trkpt><trkpt lat="47.2636378" lon="11.286855533333334"><ele>584.0</ele><time>2026-05-01T05:31:28.788Z</time></trkpt><trkpt lat="47.26354150000001" lon="11.28717943333333"><ele>584.0</ele><time>2026-05-01T05:31:29.77Z</time></trkpt><trkpt lat="47.26344980000001" lon="11.28750865"><ele>584.5</ele><time>2026-05-01T05:31:30.791Z</time></trkpt><trkpt lat="47.26336345" lon="11.287843816666667"><ele>585.0</ele><time>2026-05-01T05:31:31.793Z</time></trkpt><trkpt lat="47.26328459999999" lon="11.288181733333333"><ele>586.0</ele><time>2026-05-01T05:31:32.79Z</time></trkpt><trkpt lat="47.26320988333334" lon="11.2885253"><ele>587.0</ele><time>2026-05-01T05:31:33.793Z</time></trkpt><trkpt lat="47.26314151666667" lon="11.288869766666668"><ele>586.0</ele><time>2026-05-01T05:31:34.795Z</time></trkpt><trkpt lat="47.263080183333344" lon="11.289216533333335"><ele>585.0</ele><time>2026-05-01T05:31:35.774Z</time></trkpt><trkpt lat="47.26302449999999" lon="11.289566583333333"><ele>586.0</ele><time>2026-05-01T05:31:36.791Z</time></trkpt><trkpt lat="47.26297388333334" lon="11.289918"><ele>587.0</ele><time>2026-05-01T05:31:37.787Z</time></trkpt><trkpt lat="47.26292998333333" lon="11.290270566666667"><ele>587.5</ele><time>2026-05-01T05:31:38.777Z</time></trkpt><trkpt lat="47.26289285" lon="11.29062371666667"><ele>588.0</ele><time>2026-05-01T05:31:39.791Z</time></trkpt><trkpt lat="47.262863716666665" lon="11.290978316666667"><ele>588.0</ele><time>2026-05-01T05:31:40.793Z</time></trkpt><trkpt lat="47.262841183333336" lon="11.29133325"><ele>588.0</ele><time>2026-05-01T05:31:41.795Z</time></trkpt><trkpt lat="47.262824116666664" lon="11.291690100000002"><ele>586.5</ele><time>2026-05-01T05:31:42.791Z</time></trkpt><trkpt lat="47.262812616666665" lon="11.292046333333333"><ele>585.0</ele><time>2026-05-01T05:31:43.792Z</time></trkpt><trkpt lat="47.26280756666667" lon="11.292404683333332"><ele>584.5</ele><time>2026-05-01T05:31:44.774Z</time></trkpt><trkpt lat="47.262807666666674" lon="11.292760516666666"><ele>584.0</ele><time>2026-05-01T05:31:45.792Z</time></trkpt><trkpt lat="47.262812133333334" lon="11.293118466666666"><ele>585.0</ele><time>2026-05-01T05:31:46.78Z</time></trkpt><trkpt lat="47.26282164999999" lon="11.29348013333333"><ele>586.0</ele><time>2026-05-01T05:31:47.78Z</time></trkpt><trkpt lat="47.26283358333333" lon="11.293839616666666"><ele>584.5</ele><time>2026-05-01T05:31:48.792Z</time></trkpt><trkpt lat="47.26284706666667" lon="11.294198333333334"><ele>583.0</ele><time>2026-05-01T05:31:49.793Z</time></trkpt><trkpt lat="47.26286493333334" lon="11.294554833333331"><ele>583.5</ele><time>2026-05-01T05:31:50.774Z</time></trkpt><trkpt lat="47.26288825" lon="11.294912066666665"><ele>584.0</ele><time>2026-05-01T05:31:51.794Z</time></trkpt><trkpt lat="47.26291283333333" lon="11.295264516666668"><ele>584.0</ele><time>2026-05-01T05:31:52.793Z</time></trkpt><trkpt lat="47.26293988333334" lon="11.295619033333333"><ele>584.0</ele><time>2026-05-01T05:31:53.773Z</time></trkpt><trkpt lat="47.262966616666674" lon="11.295970616666667"><ele>584.0</ele><time>2026-05-01T05:31:54.791Z</time></trkpt><trkpt lat="47.26299203333333" lon="11.296324516666667"><ele>584.0</ele><time>2026-05-01T05:31:55.794Z</time></trkpt><trkpt lat="47.26301931666667" lon="11.2966785"><ele>584.0</ele><time>2026-05-01T05:31:56.772Z</time></trkpt><trkpt lat="47.263046900000006" lon="11.29703515"><ele>584.0</ele><time>2026-05-01T05:31:57.792Z</time></trkpt><trkpt lat="47.26307246666667" lon="11.297391850000002"><ele>584.0</ele><time>2026-05-01T05:31:58.793Z</time></trkpt><trkpt lat="47.26309634999999" lon="11.297748233333333"><ele>584.0</ele><time>2026-05-01T05:31:59.774Z</time></trkpt><trkpt lat="47.26312111666666" lon="11.298101533333332"><ele>584.0</ele><time>2026-05-01T05:32:00.788Z</time></trkpt><trkpt lat="47.26314741666666" lon="11.298453033333333"><ele>584.0</ele><time>2026-05-01T05:32:01.793Z</time></trkpt><trkpt lat="47.26317323333333" lon="11.29880635"><ele>585.0</ele><time>2026-05-01T05:32:02.773Z</time></trkpt><trkpt lat="47.26320016666667" lon="11.299160083333334"><ele>586.0</ele><time>2026-05-01T05:32:03.794Z</time></trkpt><trkpt lat="47.26322761666667" lon="11.299515516666668"><ele>586.5</ele><time>2026-05-01T05:32:04.793Z</time></trkpt><trkpt lat="47.26325449999999" lon="11.299870316666667"><ele>587.0</ele><time>2026-05-01T05:32:05.774Z</time></trkpt><trkpt lat="47.26328063333334" lon="11.300223516666666"><ele>587.0</ele><time>2026-05-01T05:32:06.791Z</time></trkpt><trkpt lat="47.26330708333333" lon="11.300577816666664"><ele>587.0</ele><time>2026-05-01T05:32:07.794Z</time></trkpt><trkpt lat="47.26333373333334" lon="11.300932433333331"><ele>586.5</ele><time>2026-05-01T05:32:08.783Z</time></trkpt><trkpt lat="47.26335808333333" lon="11.301285466666664"><ele>586.0</ele><time>2026-05-01T05:32:09.792Z</time></trkpt><trkpt lat="47.26338601666666" lon="11.301635733333335"><ele>585.0</ele><time>2026-05-01T05:32:10.792Z</time></trkpt><trkpt lat="47.26341349999999" lon="11.301989949999998"><ele>584.0</ele><time>2026-05-01T05:32:11.774Z</time></trkpt><trkpt lat="47.26343969999999" lon="11.302343983333333"><ele>583.5</ele><time>2026-05-01T05:32:12.795Z</time></trkpt><trkpt lat="47.263465849999996" lon="11.302698383333333"><ele>583.0</ele><time>2026-05-01T05:32:13.792Z</time></trkpt><trkpt lat="47.263491683333335" lon="11.30304765"><ele>583.0</ele><time>2026-05-01T05:32:14.782Z</time></trkpt><trkpt lat="47.26351605" lon="11.303391849999999"><ele>583.0</ele><time>2026-05-01T05:32:15.791Z</time></trkpt><trkpt lat="47.263542300000005" lon="11.303737716666667"><ele>582.0</ele><time>2026-05-01T05:32:16.792Z</time></trkpt><trkpt lat="47.263571500000005" lon="11.3040854"><ele>581.0</ele><time>2026-05-01T05:32:17.773Z</time></trkpt><trkpt lat="47.263598383333324" lon="11.304432583333334"><ele>581.5</ele><time>2026-05-01T05:32:18.789Z</time></trkpt><trkpt lat="47.26362266666666" lon="11.304773466666665"><ele>582.0</ele><time>2026-05-01T05:32:19.792Z</time></trkpt><trkpt lat="47.26364763333333" lon="11.305114416666667"><ele>582.0</ele><time>2026-05-01T05:32:20.773Z</time></trkpt><trkpt lat="47.26367476666666" lon="11.305456233333333"><ele>582.0</ele><time>2026-05-01T05:32:21.791Z</time></trkpt><trkpt lat="47.263699716666665" lon="11.305799733333334"><ele>582.0</ele><time>2026-05-01T05:32:22.793Z</time></trkpt><trkpt lat="47.26372431666667" lon="11.306143"><ele>582.0</ele><time>2026-05-01T05:32:23.775Z</time></trkpt><trkpt lat="47.26374954999999" lon="11.306483766666666"><ele>582.0</ele><time>2026-05-01T05:32:24.792Z</time></trkpt><trkpt lat="47.26377523333334" lon="11.306827066666665"><ele>582.0</ele><time>2026-05-01T05:32:25.793Z</time></trkpt><trkpt lat="47.26379878333334" lon="11.307171066666667"><ele>581.5</ele><time>2026-05-01T05:32:26.774Z</time></trkpt><trkpt lat="47.26382113333334" lon="11.30751275"><ele>581.0</ele><time>2026-05-01T05:32:27.792Z</time></trkpt><trkpt lat="47.263845333333336" lon="11.30785555"><ele>580.0</ele><time>2026-05-01T05:32:28.789Z</time></trkpt><trkpt lat="47.26387115000001" lon="11.308202316666666"><ele>579.0</ele><time>2026-05-01T05:32:29.772Z</time></trkpt><trkpt lat="47.26389521666667" lon="11.308544516666666"><ele>579.0</ele><time>2026-05-01T05:32:30.791Z</time></trkpt><trkpt lat="47.263919766666675" lon="11.308885416666666"><ele>579.0</ele><time>2026-05-01T05:32:31.776Z</time></trkpt><trkpt lat="47.26394311666667" lon="11.309227733333335"><ele>579.5</ele><time>2026-05-01T05:32:32.779Z</time></trkpt><trkpt lat="47.26396645" lon="11.3095686"><ele>580.0</ele><time>2026-05-01T05:32:33.807Z</time></trkpt><trkpt lat="47.26399235" lon="11.309911083333335"><ele>580.0</ele><time>2026-05-01T05:32:34.792Z</time></trkpt><trkpt lat="47.26401835" lon="11.310259949999999"><ele>580.0</ele><time>2026-05-01T05:32:35.774Z</time></trkpt><trkpt lat="47.26404158333333" lon="11.310609083333334"><ele>581.0</ele><time>2026-05-01T05:32:36.775Z</time></trkpt><trkpt lat="47.26406321666666" lon="11.310960066666667"><ele>582.0</ele><time>2026-05-01T05:32:37.794Z</time></trkpt><trkpt lat="47.26408476666667" lon="11.311312683333332"><ele>583.0</ele><time>2026-05-01T05:32:38.775Z</time></trkpt><trkpt lat="47.26410248333334" lon="11.31166305"><ele>584.0</ele><time>2026-05-01T05:32:39.792Z</time></trkpt><trkpt lat="47.26410845" lon="11.312016133333335"><ele>584.0</ele><time>2026-05-01T05:32:40.774Z</time></trkpt><trkpt lat="47.264115" lon="11.312373950000001"><ele>584.0</ele><time>2026-05-01T05:32:41.794Z</time></trkpt><trkpt lat="47.26411698333333" lon="11.312732950000001"><ele>582.5</ele><time>2026-05-01T05:32:42.792Z</time></trkpt><trkpt lat="47.26411111666666" lon="11.313091599999998"><ele>581.0</ele><time>2026-05-01T05:32:43.794Z</time></trkpt><trkpt lat="47.26409846666667" lon="11.313449883333332"><ele>581.0</ele><time>2026-05-01T05:32:44.774Z</time></trkpt><trkpt lat="47.26408268333333" lon="11.31380825"><ele>581.0</ele><time>2026-05-01T05:32:45.791Z</time></trkpt><trkpt lat="47.26405748333333" lon="11.314171216666667"><ele>581.5</ele><time>2026-05-01T05:32:46.792Z</time></trkpt><trkpt lat="47.264023849999994" lon="11.31453068333333"><ele>582.0</ele><time>2026-05-01T05:32:47.773Z</time></trkpt><trkpt lat="47.2639859" lon="11.314886233333333"><ele>582.0</ele><time>2026-05-01T05:32:48.793Z</time></trkpt><trkpt lat="47.26393913333333" lon="11.315241516666667"><ele>582.0</ele><time>2026-05-01T05:32:49.793Z</time></trkpt><trkpt lat="47.26388400000001" lon="11.315592833333335"><ele>581.0</ele><time>2026-05-01T05:32:50.799Z</time></trkpt><trkpt lat="47.26382166666667" lon="11.315943266666666"><ele>580.0</ele><time>2026-05-01T05:32:51.775Z</time></trkpt><trkpt lat="47.263752866666664" lon="11.316288349999999"><ele>580.0</ele><time>2026-05-01T05:32:52.774Z</time></trkpt><trkpt lat="47.263675600000006" lon="11.316629033333333"><ele>580.0</ele><time>2026-05-01T05:32:53.771Z</time></trkpt><trkpt lat="47.263591749999996" lon="11.316967516666669"><ele>580.5</ele><time>2026-05-01T05:32:54.791Z</time></trkpt><trkpt lat="47.263500883333336" lon="11.317303416666666"><ele>581.0</ele><time>2026-05-01T05:32:55.815Z</time></trkpt><trkpt lat="47.26340293333333" lon="11.317632716666667"><ele>581.0</ele><time>2026-05-01T05:32:56.774Z</time></trkpt><trkpt lat="47.26329793333333" lon="11.317960799999998"><ele>581.0</ele><time>2026-05-01T05:32:57.795Z</time></trkpt><trkpt lat="47.263186766666664" lon="11.318281916666669"><ele>581.0</ele><time>2026-05-01T05:32:58.797Z</time></trkpt><trkpt lat="47.263070516666666" lon="11.318590466666667"><ele>581.0</ele><time>2026-05-01T05:32:59.788Z</time></trkpt><trkpt lat="47.26294871666668" lon="11.318894599999998"><ele>581.5</ele><time>2026-05-01T05:33:00.791Z</time></trkpt><trkpt lat="47.26281885" lon="11.319193283333334"><ele>582.0</ele><time>2026-05-01T05:33:01.793Z</time></trkpt><trkpt lat="47.2626838" lon="11.319484116666668"><ele>581.5</ele><time>2026-05-01T05:33:02.776Z</time></trkpt><trkpt lat="47.262542033333325" lon="11.319767616666667"><ele>581.0</ele><time>2026-05-01T05:33:03.792Z</time></trkpt><trkpt lat="47.26239568333334" lon="11.320046500000002"><ele>581.0</ele><time>2026-05-01T05:33:04.784Z</time></trkpt><trkpt lat="47.26224676666667" lon="11.320314"><ele>581.0</ele><time>2026-05-01T05:33:05.774Z</time></trkpt><trkpt lat="47.262091383333335" lon="11.320578616666667"><ele>581.5</ele><time>2026-05-01T05:33:06.792Z</time></trkpt><trkpt lat="47.261932816666665" lon="11.320834816666666"><ele>582.0</ele><time>2026-05-01T05:33:07.774Z</time></trkpt><trkpt lat="47.2617688" lon="11.3210818"><ele>582.0</ele><time>2026-05-01T05:33:08.783Z</time></trkpt><trkpt lat="47.26159954999999" lon="11.321324416666668"><ele>582.0</ele><time>2026-05-01T05:33:09.775Z</time></trkpt><trkpt lat="47.26142948333332" lon="11.321560583333333"><ele>583.0</ele><time>2026-05-01T05:33:10.793Z</time></trkpt><trkpt lat="47.26125468333333" lon="11.3217865"><ele>584.0</ele><time>2026-05-01T05:33:11.774Z</time></trkpt><trkpt lat="47.261075633333334" lon="11.322010166666665"><ele>584.0</ele><time>2026-05-01T05:33:12.792Z</time></trkpt><trkpt lat="47.26089655000001" lon="11.322228500000001"><ele>584.0</ele><time>2026-05-01T05:33:13.785Z</time></trkpt><trkpt lat="47.26071301666666" lon="11.322442733333332"><ele>583.5</ele><time>2026-05-01T05:33:14.791Z</time></trkpt><trkpt lat="47.260522266666676" lon="11.322654916666666"><ele>583.0</ele><time>2026-05-01T05:33:15.791Z</time></trkpt><trkpt lat="47.26033003333333" lon="11.3228629"><ele>582.0</ele><time>2026-05-01T05:33:16.78Z</time></trkpt><trkpt lat="47.26013495" lon="11.323071666666666"><ele>581.0</ele><time>2026-05-01T05:33:17.784Z</time></trkpt><trkpt lat="47.25993635" lon="11.323281433333333"><ele>580.0</ele><time>2026-05-01T05:33:18.791Z</time></trkpt><trkpt lat="47.25973851666666" lon="11.323489266666664"><ele>579.0</ele><time>2026-05-01T05:33:19.793Z</time></trkpt><trkpt lat="47.25953938333334" lon="11.323696399999998"><ele>579.0</ele><time>2026-05-01T05:33:20.774Z</time></trkpt><trkpt lat="47.25933973333334" lon="11.323906733333335"><ele>579.0</ele><time>2026-05-01T05:33:21.792Z</time></trkpt><trkpt lat="47.259140849999994" lon="11.324113833333334"><ele>578.0</ele><time>2026-05-01T05:33:22.784Z</time></trkpt><trkpt lat="47.258941400000005" lon="11.324319866666666"><ele>577.0</ele><time>2026-05-01T05:33:23.789Z</time></trkpt><trkpt lat="47.25874340000001" lon="11.324529416666666"><ele>577.5</ele><time>2026-05-01T05:33:24.791Z</time></trkpt><trkpt lat="47.25854726666666" lon="11.32473645"><ele>578.0</ele><time>2026-05-01T05:33:25.793Z</time></trkpt><trkpt lat="47.25835096666666" lon="11.324942583333332"><ele>578.0</ele><time>2026-05-01T05:33:26.774Z</time></trkpt><trkpt lat="47.258157166666656" lon="11.325151233333335"><ele>578.0</ele><time>2026-05-01T05:33:27.794Z</time></trkpt><trkpt lat="47.257961949999995" lon="11.325359849999998"><ele>579.0</ele><time>2026-05-01T05:33:28.794Z</time></trkpt><trkpt lat="47.25777273333333" lon="11.325572633333335"><ele>580.0</ele><time>2026-05-01T05:33:29.774Z</time></trkpt><trkpt lat="47.25758385000001" lon="11.32578785"><ele>580.0</ele><time>2026-05-01T05:33:30.794Z</time></trkpt><trkpt lat="47.2573978" lon="11.326003416666667"><ele>580.0</ele><time>2026-05-01T05:33:31.795Z</time></trkpt><trkpt lat="47.25721703333334" lon="11.326225366666664"><ele>580.5</ele><time>2026-05-01T05:33:32.789Z</time></trkpt><trkpt lat="47.25703976666667" lon="11.326455"><ele>581.0</ele><time>2026-05-01T05:33:33.793Z</time></trkpt><trkpt lat="47.25686965" lon="11.326690766666664"><ele>581.0</ele><time>2026-05-01T05:33:34.793Z</time></trkpt><trkpt lat="47.25670515" lon="11.326932716666667"><ele>581.0</ele><time>2026-05-01T05:33:35.774Z</time></trkpt><trkpt lat="47.25654616666667" lon="11.327182599999999"><ele>581.5</ele><time>2026-05-01T05:33:36.788Z</time></trkpt><trkpt lat="47.25639163333333" lon="11.327438133333333"><ele>582.0</ele><time>2026-05-01T05:33:37.803Z</time></trkpt><trkpt lat="47.256238266666664" lon="11.3276988"><ele>582.0</ele><time>2026-05-01T05:33:38.775Z</time></trkpt><trkpt lat="47.256089216666666" lon="11.327963599999999"><ele>582.0</ele><time>2026-05-01T05:33:39.792Z</time></trkpt><trkpt lat="47.25594485" lon="11.328235666666668"><ele>581.5</ele><time>2026-05-01T05:33:40.795Z</time></trkpt><trkpt lat="47.25580408333334" lon="11.328515283333335"><ele>581.0</ele><time>2026-05-01T05:33:41.774Z</time></trkpt><trkpt lat="47.25566681666666" lon="11.328803883333334"><ele>582.0</ele><time>2026-05-01T05:33:42.792Z</time></trkpt><trkpt lat="47.25553476666667" lon="11.329102"><ele>583.0</ele><time>2026-05-01T05:33:43.793Z</time></trkpt><trkpt lat="47.255409616666675" lon="11.329408216666664"><ele>583.0</ele><time>2026-05-01T05:33:44.774Z</time></trkpt><trkpt lat="47.255289899999994" lon="11.329718566666669"><ele>583.0</ele><time>2026-05-01T05:33:45.792Z</time></trkpt><trkpt lat="47.25517675" lon="11.3300333"><ele>582.5</ele><time>2026-05-01T05:33:46.779Z</time></trkpt><trkpt lat="47.25506409999999" lon="11.330354783333332"><ele>582.0</ele><time>2026-05-01T05:33:47.774Z</time></trkpt><trkpt lat="47.25495275" lon="11.330678599999999"><ele>581.5</ele><time>2026-05-01T05:33:48.793Z</time></trkpt><trkpt lat="47.254839516666664" lon="11.331003216666666"><ele>581.0</ele><time>2026-05-01T05:33:49.792Z</time></trkpt><trkpt lat="47.25472636666666" lon="11.331329133333336"><ele>581.5</ele><time>2026-05-01T05:33:50.789Z</time></trkpt><trkpt lat="47.254616983333335" lon="11.331657933333334"><ele>582.0</ele><time>2026-05-01T05:33:51.792Z</time></trkpt><trkpt lat="47.25450473333334" lon="11.331988166666667"><ele>582.0</ele><time>2026-05-01T05:33:52.793Z</time></trkpt><trkpt lat="47.25439096666667" lon="11.332314533333331"><ele>582.0</ele><time>2026-05-01T05:33:53.783Z</time></trkpt><trkpt lat="47.25428138333333" lon="11.332640766666668"><ele>582.0</ele><time>2026-05-01T05:33:54.792Z</time></trkpt><trkpt lat="47.25416803333333" lon="11.332971633333333"><ele>582.0</ele><time>2026-05-01T05:33:55.776Z</time></trkpt><trkpt lat="47.25405281666667" lon="11.333305833333334"><ele>583.0</ele><time>2026-05-01T05:33:56.783Z</time></trkpt><trkpt lat="47.25393569999999" lon="11.333642316666664"><ele>584.0</ele><time>2026-05-01T05:33:57.792Z</time></trkpt><trkpt lat="47.253820566666676" lon="11.333979483333332"><ele>584.5</ele><time>2026-05-01T05:33:58.772Z</time></trkpt><trkpt lat="47.25370495000001" lon="11.334315766666668"><ele>585.0</ele><time>2026-05-01T05:33:59.775Z</time></trkpt><trkpt lat="47.25359023333334" lon="11.3346523"><ele>585.0</ele><time>2026-05-01T05:34:00.792Z</time></trkpt><trkpt lat="47.25347526666666" lon="11.334990316666664"><ele>585.0</ele><time>2026-05-01T05:34:01.792Z</time></trkpt><trkpt lat="47.25335996666666" lon="11.335326583333332"><ele>584.0</ele><time>2026-05-01T05:34:02.776Z</time></trkpt><trkpt lat="47.25324435000001" lon="11.335664466666666"><ele>583.0</ele><time>2026-05-01T05:34:03.791Z</time></trkpt><trkpt lat="47.25312838333332" lon="11.336000416666666"><ele>583.0</ele><time>2026-05-01T05:34:04.773Z</time></trkpt><trkpt lat="47.25301113333333" lon="11.336335550000001"><ele>583.0</ele><time>2026-05-01T05:34:05.774Z</time></trkpt><trkpt lat="47.25289540000001" lon="11.336673350000002"><ele>583.0</ele><time>2026-05-01T05:34:06.791Z</time></trkpt><trkpt lat="47.25278363333334" lon="11.337016066666669"><ele>583.0</ele><time>2026-05-01T05:34:07.774Z</time></trkpt><trkpt lat="47.25267945" lon="11.337364566666668"><ele>583.0</ele><time>2026-05-01T05:34:08.779Z</time></trkpt><trkpt lat="47.25257866666668" lon="11.3377117"><ele>583.0</ele><time>2026-05-01T05:34:09.791Z</time></trkpt><trkpt lat="47.252481733333326" lon="11.338062433333333"><ele>582.5</ele><time>2026-05-01T05:34:10.794Z</time></trkpt><trkpt lat="47.25239414999999" lon="11.338416433333336"><ele>582.0</ele><time>2026-05-01T05:34:11.776Z</time></trkpt><trkpt lat="47.25231318333334" lon="11.338772850000003"><ele>588.0</ele><time>2026-05-01T05:34:12.775Z</time></trkpt><trkpt lat="47.25223559999999" lon="11.339128116666666"><ele>594.0</ele><time>2026-05-01T05:34:13.78Z</time></trkpt><trkpt lat="47.2521618" lon="11.339482133333336"><ele>594.0</ele><time>2026-05-01T05:34:14.774Z</time></trkpt><trkpt lat="47.25209776666667" lon="11.339840350000001"><ele>594.0</ele><time>2026-05-01T05:34:15.791Z</time></trkpt><trkpt lat="47.25204368333334" lon="11.340198866666668"><ele>594.5</ele><time>2026-05-01T05:34:16.774Z</time></trkpt><trkpt lat="47.2519991" lon="11.340556050000002"><ele>595.0</ele><time>2026-05-01T05:34:17.772Z</time></trkpt><trkpt lat="47.25196408333333" lon="11.340915216666668"><ele>595.0</ele><time>2026-05-01T05:34:18.794Z</time></trkpt><trkpt lat="47.25193720000001" lon="11.341273116666665"><ele>595.0</ele><time>2026-05-01T05:34:19.792Z</time></trkpt><trkpt lat="47.25191793333333" lon="11.34162908333333"><ele>592.0</ele><time>2026-05-01T05:34:20.774Z</time></trkpt><trkpt lat="47.25190630000001" lon="11.34198403333333"><ele>589.0</ele><time>2026-05-01T05:34:21.791Z</time></trkpt><trkpt lat="47.25190181666667" lon="11.342333049999997"><ele>587.5</ele><time>2026-05-01T05:34:22.796Z</time></trkpt><trkpt lat="47.25190336666667" lon="11.3426808"><ele>586.0</ele><time>2026-05-01T05:34:23.774Z</time></trkpt><trkpt lat="47.251911233333345" lon="11.343027483333334"><ele>585.5</ele><time>2026-05-01T05:34:24.794Z</time></trkpt><trkpt lat="47.25193073333333" lon="11.343374766666667"><ele>585.0</ele><time>2026-05-01T05:34:25.793Z</time></trkpt><trkpt lat="47.25195686666666" lon="11.343720266666667"><ele>587.5</ele><time>2026-05-01T05:34:26.795Z</time></trkpt><trkpt lat="47.25199309999999" lon="11.344065416666668"><ele>590.0</ele><time>2026-05-01T05:34:27.784Z</time></trkpt><trkpt lat="47.25203598333333" lon="11.344407416666664"><ele>595.5</ele><time>2026-05-01T05:34:28.793Z</time></trkpt><trkpt lat="47.25208548333333" lon="11.34474855"><ele>601.0</ele><time>2026-05-01T05:34:29.774Z</time></trkpt><trkpt lat="47.25214286666666" lon="11.34508795"><ele>601.0</ele><time>2026-05-01T05:34:30.794Z</time></trkpt><trkpt lat="47.25220563333334" lon="11.345426650000002"><ele>601.0</ele><time>2026-05-01T05:34:31.818Z</time></trkpt><trkpt lat="47.25227311666666" lon="11.345760649999999"><ele>590.0</ele><time>2026-05-01T05:34:32.772Z</time></trkpt><trkpt lat="47.25235025" lon="11.346094683333334"><ele>579.0</ele><time>2026-05-01T05:34:33.791Z</time></trkpt><trkpt lat="47.25243161666667" lon="11.346425116666667"><ele>579.0</ele><time>2026-05-01T05:34:34.794Z</time></trkpt><trkpt lat="47.252513516666674" lon="11.346751600000001"><ele>579.0</ele><time>2026-05-01T05:34:35.788Z</time></trkpt><trkpt lat="47.252599399999994" lon="11.347076433333331"><ele>579.0</ele><time>2026-05-01T05:34:36.793Z</time></trkpt><trkpt lat="47.2526889" lon="11.347401100000003"><ele>579.0</ele><time>2026-05-01T05:34:37.774Z</time></trkpt><trkpt lat="47.25278088333332" lon="11.347724633333334"><ele>579.0</ele><time>2026-05-01T05:34:38.774Z</time></trkpt><trkpt lat="47.25287616666666" lon="11.3480485"><ele>579.0</ele><time>2026-05-01T05:34:39.793Z</time></trkpt><trkpt lat="47.252970966666666" lon="11.348374000000002"><ele>579.0</ele><time>2026-05-01T05:34:40.784Z</time></trkpt><trkpt lat="47.25306916666667" lon="11.348698183333333"><ele>579.0</ele><time>2026-05-01T05:34:41.774Z</time></trkpt><trkpt lat="47.253165016666664" lon="11.34902385"><ele>579.0</ele><time>2026-05-01T05:34:42.792Z</time></trkpt><trkpt lat="47.25325948333334" lon="11.349350866666668"><ele>579.0</ele><time>2026-05-01T05:34:43.776Z</time></trkpt><trkpt lat="47.25335284999999" lon="11.349676600000002"><ele>579.0</ele><time>2026-05-01T05:34:44.778Z</time></trkpt><trkpt lat="47.253446116666666" lon="11.350002133333332"><ele>579.0</ele><time>2026-05-01T05:34:45.794Z</time></trkpt><trkpt lat="47.25353761666667" lon="11.350330633333332"><ele>579.0</ele><time>2026-05-01T05:34:46.793Z</time></trkpt><trkpt lat="47.2536273" lon="11.350660466666666"><ele>579.0</ele><time>2026-05-01T05:34:47.774Z</time></trkpt><trkpt lat="47.25371526666666" lon="11.350993200000001"><ele>579.0</ele><time>2026-05-01T05:34:48.793Z</time></trkpt><trkpt lat="47.25380181666666" lon="11.351329466666668"><ele>579.0</ele><time>2026-05-01T05:34:49.785Z</time></trkpt><trkpt lat="47.253885933333336" lon="11.351664333333334"><ele>578.5</ele><time>2026-05-01T05:34:50.774Z</time></trkpt><trkpt lat="47.253965116666656" lon="11.352004216666666"><ele>578.0</ele><time>2026-05-01T05:34:51.791Z</time></trkpt><trkpt lat="47.254039666666664" lon="11.352344683333333"><ele>578.0</ele><time>2026-05-01T05:34:52.794Z</time></trkpt><trkpt lat="47.254110383333334" lon="11.352686333333335"><ele>578.0</ele><time>2026-05-01T05:34:53.774Z</time></trkpt><trkpt lat="47.25417304999999" lon="11.353033333333332"><ele>578.5</ele><time>2026-05-01T05:34:54.775Z</time></trkpt><trkpt lat="47.25422534999999" lon="11.353385150000001"><ele>579.0</ele><time>2026-05-01T05:34:55.793Z</time></trkpt><trkpt lat="47.25427018333333" lon="11.353738449999998"><ele>578.5</ele><time>2026-05-01T05:34:56.774Z</time></trkpt><trkpt lat="47.254309250000006" lon="11.354092416666667"><ele>578.0</ele><time>2026-05-01T05:34:57.792Z</time></trkpt><trkpt lat="47.25434194999999" lon="11.354447633333333"><ele>577.5</ele><time>2026-05-01T05:34:58.781Z</time></trkpt><trkpt lat="47.25436843333333" lon="11.354802016666667"><ele>577.0</ele><time>2026-05-01T05:34:59.8Z</time></trkpt><trkpt lat="47.25438773333334" lon="11.355157999999998"><ele>577.0</ele><time>2026-05-01T05:35:00.775Z</time></trkpt><trkpt lat="47.25439963333333" lon="11.355513850000001"><ele>577.0</ele><time>2026-05-01T05:35:01.793Z</time></trkpt><trkpt lat="47.25440305000001" lon="11.35586795"><ele>578.0</ele><time>2026-05-01T05:35:02.772Z</time></trkpt><trkpt lat="47.25440021666667" lon="11.356223833333335"><ele>579.0</ele><time>2026-05-01T05:35:03.794Z</time></trkpt><trkpt lat="47.25439108333334" lon="11.3565803"><ele>580.0</ele><time>2026-05-01T05:35:04.794Z</time></trkpt><trkpt lat="47.254374133333336" lon="11.35693575"><ele>581.0</ele><time>2026-05-01T05:35:05.772Z</time></trkpt><trkpt lat="47.2543513" lon="11.357290066666666"><ele>581.0</ele><time>2026-05-01T05:35:06.792Z</time></trkpt><trkpt lat="47.254324033333326" lon="11.357642483333333"><ele>581.0</ele><time>2026-05-01T05:35:07.772Z</time></trkpt><trkpt lat="47.254290283333326" lon="11.357992666666666"><ele>581.0</ele><time>2026-05-01T05:35:08.773Z</time></trkpt><trkpt lat="47.25425021666666" lon="11.358343666666666"><ele>581.0</ele><time>2026-05-01T05:35:09.795Z</time></trkpt><trkpt lat="47.25420395" lon="11.358692533333333"><ele>580.0</ele><time>2026-05-01T05:35:10.796Z</time></trkpt><trkpt lat="47.25415471666667" lon="11.359038933333332"><ele>579.0</ele><time>2026-05-01T05:35:11.774Z</time></trkpt><trkpt lat="47.25410261666666" lon="11.359387366666665"><ele>578.5</ele><time>2026-05-01T05:35:12.789Z</time></trkpt><trkpt lat="47.254045733333335" lon="11.359730583333333"><ele>578.0</ele><time>2026-05-01T05:35:13.793Z</time></trkpt><trkpt lat="47.253984533333345" lon="11.36007515"><ele>578.5</ele><time>2026-05-01T05:35:14.77Z</time></trkpt><trkpt lat="47.253919716666665" lon="11.360417749999998"><ele>579.0</ele><time>2026-05-01T05:35:15.791Z</time></trkpt><trkpt lat="47.253851966666666" lon="11.360760183333332"><ele>579.0</ele><time>2026-05-01T05:35:16.774Z</time></trkpt><trkpt lat="47.25378089999999" lon="11.361101599999998"><ele>579.0</ele><time>2026-05-01T05:35:17.792Z</time></trkpt><trkpt lat="47.25370973333333" lon="11.361442066666665"><ele>579.0</ele><time>2026-05-01T05:35:18.791Z</time></trkpt><trkpt lat="47.253636549999996" lon="11.361780083333334"><ele>579.0</ele><time>2026-05-01T05:35:19.794Z</time></trkpt><trkpt lat="47.25356523333333" lon="11.362119633333334"><ele>579.0</ele><time>2026-05-01T05:35:20.774Z</time></trkpt><trkpt lat="47.253497216666666" lon="11.362458933333334"><ele>579.0</ele><time>2026-05-01T05:35:21.792Z</time></trkpt><trkpt lat="47.25342855" lon="11.362793266666666"><ele>577.5</ele><time>2026-05-01T05:35:22.794Z</time></trkpt><trkpt lat="47.25335386666667" lon="11.363128749999998"><ele>576.0</ele><time>2026-05-01T05:35:23.77Z</time></trkpt><trkpt lat="47.25327843333333" lon="11.363462833333331"><ele>576.0</ele><time>2026-05-01T05:35:24.794Z</time></trkpt><trkpt lat="47.25320148333333" lon="11.36379925"><ele>576.0</ele><time>2026-05-01T05:35:25.794Z</time></trkpt><trkpt lat="47.253123816666665" lon="11.364137516666664"><ele>577.5</ele><time>2026-05-01T05:35:26.774Z</time></trkpt><trkpt lat="47.25304339999999" lon="11.364472933333332"><ele>579.0</ele><time>2026-05-01T05:35:27.792Z</time></trkpt><trkpt lat="47.25296538333333" lon="11.36480935"><ele>579.0</ele><time>2026-05-01T05:35:28.793Z</time></trkpt><trkpt lat="47.25288435000001" lon="11.365146733333331"><ele>579.0</ele><time>2026-05-01T05:35:29.783Z</time></trkpt><trkpt lat="47.25280030000001" lon="11.365483116666667"><ele>578.0</ele><time>2026-05-01T05:35:30.792Z</time></trkpt><trkpt lat="47.25271901666667" lon="11.365817083333331"><ele>577.0</ele><time>2026-05-01T05:35:31.793Z</time></trkpt><trkpt lat="47.25263906666667" lon="11.366152283333333"><ele>576.5</ele><time>2026-05-01T05:35:32.773Z</time></trkpt><trkpt lat="47.25256041666667" lon="11.366490050000001"><ele>576.0</ele><time>2026-05-01T05:35:33.792Z</time></trkpt><trkpt lat="47.25248475" lon="11.366826616666666"><ele>576.0</ele><time>2026-05-01T05:35:34.793Z</time></trkpt><trkpt lat="47.25241168333334" lon="11.367160833333331"><ele>576.0</ele><time>2026-05-01T05:35:35.805Z</time></trkpt><trkpt lat="47.25234553333333" lon="11.367498049999998"><ele>576.5</ele><time>2026-05-01T05:35:36.791Z</time></trkpt><trkpt lat="47.252288516666674" lon="11.367837133333333"><ele>577.0</ele><time>2026-05-01T05:35:37.794Z</time></trkpt><trkpt lat="47.25224341666667" lon="11.368171716666664"><ele>578.5</ele><time>2026-05-01T05:35:38.771Z</time></trkpt><trkpt lat="47.25221368333334" lon="11.368505433333333"><ele>580.0</ele><time>2026-05-01T05:35:39.791Z</time></trkpt><trkpt lat="47.25220145" lon="11.3688465"><ele>580.5</ele><time>2026-05-01T05:35:40.782Z</time></trkpt><trkpt lat="47.25220528333333" lon="11.36919055"><ele>581.0</ele><time>2026-05-01T05:35:41.774Z</time></trkpt><trkpt lat="47.25222101666666" lon="11.369533850000002"><ele>582.0</ele><time>2026-05-01T05:35:42.792Z</time></trkpt><trkpt lat="47.252243933333325" lon="11.369882016666669"><ele>583.0</ele><time>2026-05-01T05:35:43.773Z</time></trkpt><trkpt lat="47.25227511666667" lon="11.370229533333335"><ele>580.0</ele><time>2026-05-01T05:35:44.778Z</time></trkpt><trkpt lat="47.25231528333333" lon="11.370574866666669"><ele>577.0</ele><time>2026-05-01T05:35:45.792Z</time></trkpt><trkpt lat="47.25236498333334" lon="11.370919316666667"><ele>577.0</ele><time>2026-05-01T05:35:46.795Z</time></trkpt><trkpt lat="47.25241691666667" lon="11.371263700000002"><ele>577.0</ele><time>2026-05-01T05:35:47.776Z</time></trkpt><trkpt lat="47.252468483333324" lon="11.371604216666666"><ele>578.0</ele><time>2026-05-01T05:35:48.775Z</time></trkpt><trkpt lat="47.2525207" lon="11.371943233333331"><ele>579.0</ele><time>2026-05-01T05:35:49.778Z</time></trkpt><trkpt lat="47.25257515" lon="11.372278950000002"><ele>579.5</ele><time>2026-05-01T05:35:50.773Z</time></trkpt><trkpt lat="47.25262983333334" lon="11.372614266666668"><ele>580.0</ele><time>2026-05-01T05:35:51.792Z</time></trkpt><trkpt lat="47.252681333333335" lon="11.372949566666666"><ele>583.5</ele><time>2026-05-01T05:35:52.772Z</time></trkpt><trkpt lat="47.2527319" lon="11.373285050000002"><ele>587.0</ele><time>2026-05-01T05:35:53.794Z</time></trkpt><trkpt lat="47.25278494999999" lon="11.373623666666667"><ele>594.0</ele><time>2026-05-01T05:35:54.792Z</time></trkpt><trkpt lat="47.25284088333333" lon="11.373962166666669"><ele>601.0</ele><time>2026-05-01T05:35:55.793Z</time></trkpt><trkpt lat="47.252898733333325" lon="11.374304233333332"><ele>601.0</ele><time>2026-05-01T05:35:56.774Z</time></trkpt><trkpt lat="47.25295565" lon="11.374648366666667"><ele>601.0</ele><time>2026-05-01T05:35:57.794Z</time></trkpt><trkpt lat="47.25301256666666" lon="11.3749924"><ele>606.0</ele><time>2026-05-01T05:35:58.775Z</time></trkpt><trkpt lat="47.253069700000005" lon="11.375336566666665"><ele>611.0</ele><time>2026-05-01T05:35:59.773Z</time></trkpt><trkpt lat="47.2531267" lon="11.375681450000004"><ele>601.0</ele><time>2026-05-01T05:36:00.792Z</time></trkpt><trkpt lat="47.25318208333333" lon="11.376024099999999"><ele>591.0</ele><time>2026-05-01T05:36:01.772Z</time></trkpt><trkpt lat="47.253237549999994" lon="11.3763693"><ele>591.0</ele><time>2026-05-01T05:36:02.774Z</time></trkpt><trkpt lat="47.25329176666668" lon="11.376717066666666"><ele>591.0</ele><time>2026-05-01T05:36:03.797Z</time></trkpt><trkpt lat="47.253346900000004" lon="11.377068233333333"><ele>597.5</ele><time>2026-05-01T05:36:04.771Z</time></trkpt><trkpt lat="47.253399216666665" lon="11.377418250000002"><ele>604.0</ele><time>2026-05-01T05:36:05.771Z</time></trkpt><trkpt lat="47.25344281666666" lon="11.377768333333332"><ele>609.5</ele><time>2026-05-01T05:36:06.791Z</time></trkpt><trkpt lat="47.253479133333336" lon="11.3781191"><ele>615.0</ele><time>2026-05-01T05:36:07.787Z</time></trkpt><trkpt lat="47.25350446666666" lon="11.378474866666666"><ele>615.0</ele><time>2026-05-01T05:36:08.774Z</time></trkpt><trkpt lat="47.25351643333334" lon="11.378829399999999"><ele>615.0</ele><time>2026-05-01T05:36:09.793Z</time></trkpt><trkpt lat="47.253510066666664" lon="11.379184383333332"><ele>616.0</ele><time>2026-05-01T05:36:10.793Z</time></trkpt><trkpt lat="47.253485066666656" lon="11.379540566666666"><ele>617.0</ele><time>2026-05-01T05:36:11.785Z</time></trkpt><trkpt lat="47.25344773333333" lon="11.37989576666667"><ele>617.5</ele><time>2026-05-01T05:36:12.772Z</time></trkpt><trkpt lat="47.2534015" lon="11.3802463"><ele>618.0</ele><time>2026-05-01T05:36:13.793Z</time></trkpt><trkpt lat="47.253344850000005" lon="11.380596933333333"><ele>616.0</ele><time>2026-05-01T05:36:14.774Z</time></trkpt><trkpt lat="47.253282850000005" lon="11.380944116666667"><ele>614.0</ele><time>2026-05-01T05:36:15.794Z</time></trkpt><trkpt lat="47.253217616666674" lon="11.381290766666666"><ele>610.5</ele><time>2026-05-01T05:36:16.784Z</time></trkpt><trkpt lat="47.25315179999999" lon="11.381638066666667"><ele>607.0</ele><time>2026-05-01T05:36:17.773Z</time></trkpt><trkpt lat="47.253088899999995" lon="11.381987749999999"><ele>629.5</ele><time>2026-05-01T05:36:18.774Z</time></trkpt><trkpt lat="47.253030566666666" lon="11.38233895"><ele>652.0</ele><time>2026-05-01T05:36:19.793Z</time></trkpt><trkpt lat="47.252980433333335" lon="11.382696466666667"><ele>657.5</ele><time>2026-05-01T05:36:20.777Z</time></trkpt><trkpt lat="47.25294173333333" lon="11.383058566666667"><ele>663.0</ele><time>2026-05-01T05:36:21.793Z</time></trkpt><trkpt lat="47.25291413333333" lon="11.383423249999998"><ele>663.0</ele><time>2026-05-01T05:36:22.772Z</time></trkpt><trkpt lat="47.25289983333334" lon="11.383790183333335"><ele>663.0</ele><time>2026-05-01T05:36:23.773Z</time></trkpt><trkpt lat="47.252900849999996" lon="11.384158433333335"><ele>661.0</ele><time>2026-05-01T05:36:24.791Z</time></trkpt><trkpt lat="47.25291394999999" lon="11.384525"><ele>659.0</ele><time>2026-05-01T05:36:25.785Z</time></trkpt><trkpt lat="47.25293443333333" lon="11.384873816666667"><ele>659.0</ele><time>2026-05-01T05:36:26.774Z</time></trkpt><trkpt lat="47.252962533333324" lon="11.3852154"><ele>659.0</ele><time>2026-05-01T05:36:27.794Z</time></trkpt><trkpt lat="47.252997199999996" lon="11.385555966666669"><ele>659.0</ele><time>2026-05-01T05:36:28.792Z</time></trkpt><trkpt lat="47.253034966666675" lon="11.385902066666665"><ele>659.0</ele><time>2026-05-01T05:36:29.798Z</time></trkpt><trkpt lat="47.25307370000001" lon="11.386248716666667"><ele>667.0</ele><time>2026-05-01T05:36:30.792Z</time></trkpt><trkpt lat="47.25311441666666" lon="11.386602750000002"><ele>675.0</ele><time>2026-05-01T05:36:31.793Z</time></trkpt><trkpt lat="47.25315260000001" lon="11.386956866666667"><ele>644.0</ele><time>2026-05-01T05:36:32.772Z</time></trkpt><trkpt lat="47.25319061666667" lon="11.387309333333334"><ele>613.0</ele><time>2026-05-01T05:36:33.792Z</time></trkpt><trkpt lat="47.253215649999994" lon="11.387666666666666"><ele>616.5</ele><time>2026-05-01T05:36:34.783Z</time></trkpt><trkpt lat="47.253226416666664" lon="11.38802185"><ele>620.0</ele><time>2026-05-01T05:36:35.785Z</time></trkpt><trkpt lat="47.25321855000001" lon="11.388372983333332"><ele>620.0</ele><time>2026-05-01T05:36:36.793Z</time></trkpt><trkpt lat="47.253191866666675" lon="11.388719933333334"><ele>620.0</ele><time>2026-05-01T05:36:37.774Z</time></trkpt><trkpt lat="47.253146416666674" lon="11.389064499999998"><ele>627.0</ele><time>2026-05-01T05:36:38.774Z</time></trkpt><trkpt lat="47.25308236666667" lon="11.389403716666667"><ele>634.0</ele><time>2026-05-01T05:36:39.795Z</time></trkpt><trkpt lat="47.253004233333336" lon="11.389731966666668"><ele>634.0</ele><time>2026-05-01T05:36:40.796Z</time></trkpt><trkpt lat="47.25291158333333" lon="11.390051799999998"><ele>634.0</ele><time>2026-05-01T05:36:41.773Z</time></trkpt><trkpt lat="47.25280323333333" lon="11.390363216666668"><ele>629.0</ele><time>2026-05-01T05:36:42.792Z</time></trkpt><trkpt lat="47.25268131666667" lon="11.390662116666665"><ele>624.0</ele><time>2026-05-01T05:36:43.793Z</time></trkpt><trkpt lat="47.25254265" lon="11.390947133333334"><ele>624.0</ele><time>2026-05-01T05:36:44.782Z</time></trkpt><trkpt lat="47.25238688333334" lon="11.391213733333332"><ele>624.0</ele><time>2026-05-01T05:36:45.794Z</time></trkpt><trkpt lat="47.25221795000001" lon="11.391462083333334"><ele>634.0</ele><time>2026-05-01T05:36:46.793Z</time></trkpt><trkpt lat="47.2520405" lon="11.391693783333336"><ele>644.0</ele><time>2026-05-01T05:36:47.774Z</time></trkpt><trkpt lat="47.25185993333333" lon="11.391909466666666"><ele>644.0</ele><time>2026-05-01T05:36:48.788Z</time></trkpt><trkpt lat="47.25166853333334" lon="11.392102050000002"><ele>644.0</ele><time>2026-05-01T05:36:49.793Z</time></trkpt><trkpt lat="47.251458783333334" lon="11.392276816666666"><ele>641.0</ele><time>2026-05-01T05:36:50.773Z</time></trkpt><trkpt lat="47.25123905" lon="11.392439983333334"><ele>638.0</ele><time>2026-05-01T05:36:51.791Z</time></trkpt><trkpt lat="47.25101901666667" lon="11.392596216666668"><ele>638.0</ele><time>2026-05-01T05:36:52.774Z</time></trkpt><trkpt lat="47.25080186666667" lon="11.3927494"><ele>638.0</ele><time>2026-05-01T05:36:53.782Z</time></trkpt><trkpt lat="47.25057645" lon="11.392902133333333"><ele>633.5</ele><time>2026-05-01T05:36:54.791Z</time></trkpt><trkpt lat="47.250350049999994" lon="11.39305361666667"><ele>629.0</ele><time>2026-05-01T05:36:55.794Z</time></trkpt><trkpt lat="47.250129316666666" lon="11.393204800000001"><ele>629.0</ele><time>2026-05-01T05:36:56.773Z</time></trkpt><trkpt lat="47.24991188333333" lon="11.393357883333332"><ele>629.0</ele><time>2026-05-01T05:36:57.792Z</time></trkpt><trkpt lat="47.249696483333345" lon="11.393511"><ele>631.0</ele><time>2026-05-01T05:36:58.793Z</time></trkpt><trkpt lat="47.24948401666667" lon="11.393663333333333"><ele>633.0</ele><time>2026-05-01T05:36:59.772Z</time></trkpt><trkpt lat="47.249270433333336" lon="11.393814483333331"><ele>632.5</ele><time>2026-05-01T05:37:00.792Z</time></trkpt><trkpt lat="47.249053999999994" lon="11.3939633"><ele>632.0</ele><time>2026-05-01T05:37:01.793Z</time></trkpt><trkpt lat="47.24883570000001" lon="11.394108516666666"><ele>639.0</ele><time>2026-05-01T05:37:02.774Z</time></trkpt><trkpt lat="47.248616316666656" lon="11.394246566666668"><ele>646.0</ele><time>2026-05-01T05:37:03.791Z</time></trkpt><trkpt lat="47.2483939" lon="11.394371583333335"><ele>646.0</ele><time>2026-05-01T05:37:04.806Z</time></trkpt><trkpt lat="47.2481687" lon="11.394474416666666"><ele>646.0</ele><time>2026-05-01T05:37:05.788Z</time></trkpt><trkpt lat="47.24793291666666" lon="11.394548383333332"><ele>660.0</ele><time>2026-05-01T05:37:06.835Z</time></trkpt><trkpt lat="47.247650416666666" lon="11.394575066666667"><ele>674.0</ele><time>2026-05-01T05:37:07.814Z</time></trkpt><trkpt lat="47.24733736666667" lon="11.394585333333335"><ele>675.5</ele><time>2026-05-01T05:37:08.828Z</time></trkpt><trkpt lat="47.24702731666666" lon="11.394604683333334"><ele>677.0</ele><time>2026-05-01T05:37:09.81Z</time></trkpt><trkpt lat="47.246711683333324" lon="11.394649499999998"><ele>664.5</ele><time>2026-05-01T05:37:10.8Z</time></trkpt><trkpt lat="47.24639636666667" lon="11.394717633333334"><ele>652.0</ele><time>2026-05-01T05:37:11.805Z</time></trkpt><trkpt lat="47.24608136666667" lon="11.3947857"><ele>652.0</ele><time>2026-05-01T05:37:12.786Z</time></trkpt><trkpt lat="47.24576605000001" lon="11.39485383333333"><ele>652.0</ele><time>2026-05-01T05:37:13.799Z</time></trkpt><trkpt lat="47.24565671666666" lon="11.3946343"><ele>649.5</ele><time>2026-05-01T05:37:15.78Z</time></trkpt><trkpt lat="47.24549783333333" lon="11.394344633333333"><ele>647.0</ele><time>2026-05-01T05:37:16.773Z</time></trkpt><trkpt lat="47.245304149999996" lon="11.394091199999998"><ele>654.5</ele><time>2026-05-01T05:37:17.777Z</time></trkpt><trkpt lat="47.24512708333333" lon="11.393786783333335"><ele>662.0</ele><time>2026-05-01T05:37:18.784Z</time></trkpt><trkpt lat="47.244971050000004" lon="11.393493300000001"><ele>662.0</ele><time>2026-05-01T05:37:19.772Z</time></trkpt><trkpt lat="47.24484210000001" lon="11.393202966666667"><ele>662.0</ele><time>2026-05-01T05:37:20.778Z</time></trkpt><trkpt lat="47.244704666666664" lon="11.392931216666668"><ele>661.0</ele><time>2026-05-01T05:37:21.786Z</time></trkpt><trkpt lat="47.24455461666666" lon="11.392680949999999"><ele>660.0</ele><time>2026-05-01T05:37:22.798Z</time></trkpt><trkpt lat="47.244388300000004" lon="11.392459650000001"><ele>660.0</ele><time>2026-05-01T05:37:23.783Z</time></trkpt><trkpt lat="47.24422085" lon="11.392260783333331"><ele>660.0</ele><time>2026-05-01T05:37:24.796Z</time></trkpt><trkpt lat="47.24405853333332" lon="11.392080849999997"><ele>660.0</ele><time>2026-05-01T05:37:25.798Z</time></trkpt><trkpt lat="47.24390718333334" lon="11.39191205"><ele>662.6666666666666</ele><time>2026-05-01T05:37:26.777Z</time></trkpt><trkpt lat="47.24375055" lon="11.391759766666667"><ele>665.3333333333333</ele><time>2026-05-01T05:37:27.789Z</time></trkpt><trkpt lat="47.24359163333334" lon="11.391612433333334"><ele>668.0</ele><time>2026-05-01T05:37:28.799Z</time></trkpt><trkpt lat="47.24342790000001" lon="11.391465983333335"><ele>673.0</ele><time>2026-05-01T05:37:29.773Z</time></trkpt><trkpt lat="47.243259733333325" lon="11.391319183333334"><ele>678.0</ele><time>2026-05-01T05:37:30.784Z</time></trkpt><trkpt lat="47.24308216666667" lon="11.391183183333332"><ele>683.0</ele><time>2026-05-01T05:37:31.802Z</time></trkpt><trkpt lat="47.24290213333334" lon="11.391060783333334"><ele>683.0</ele><time>2026-05-01T05:37:32.778Z</time></trkpt><trkpt lat="47.24272125000001" lon="11.390941883333333"><ele>683.0</ele><time>2026-05-01T05:37:33.792Z</time></trkpt><trkpt lat="47.242544200000005" lon="11.390835866666665"><ele>683.0</ele><time>2026-05-01T05:37:34.801Z</time></trkpt><trkpt lat="47.24236658333333" lon="11.390739933333334"><ele>685.3333333333333</ele><time>2026-05-01T05:37:35.79Z</time></trkpt><trkpt lat="47.24218348333334" lon="11.390652966666668"><ele>687.6666666666666</ele><time>2026-05-01T05:37:36.787Z</time></trkpt><trkpt lat="47.24200438333334" lon="11.390578283333332"><ele>690.0</ele><time>2026-05-01T05:37:37.803Z</time></trkpt><trkpt lat="47.241824216666664" lon="11.390506916666666"><ele>690.0</ele><time>2026-05-01T05:37:38.792Z</time></trkpt><trkpt lat="47.24164163333333" lon="11.390438133333335"><ele>690.0</ele><time>2026-05-01T05:37:39.784Z</time></trkpt><trkpt lat="47.24145641666667" lon="11.390375366666667"><ele>690.0</ele><time>2026-05-01T05:37:40.799Z</time></trkpt><trkpt lat="47.24127695000001" lon="11.39032406666667"><ele>689.0</ele><time>2026-05-01T05:37:41.782Z</time></trkpt><trkpt lat="47.24111103333333" lon="11.390287866666664"><ele>688.0</ele><time>2026-05-01T05:37:42.791Z</time></trkpt><trkpt lat="47.240955983333336" lon="11.390256166666665"><ele>687.0</ele><time>2026-05-01T05:37:43.827Z</time></trkpt><trkpt lat="47.240807983333326" lon="11.390236300000002"><ele>687.0</ele><time>2026-05-01T05:37:44.782Z</time></trkpt><trkpt lat="47.2406728" lon="11.390221899999998"><ele>687.0</ele><time>2026-05-01T05:37:45.783Z</time></trkpt><trkpt lat="47.240555816666664" lon="11.390199800000001"><ele>687.0</ele><time>2026-05-01T05:37:46.778Z</time></trkpt><trkpt lat="47.24046363333334" lon="11.390153100000001"><ele>687.0</ele><time>2026-05-01T05:37:47.791Z</time></trkpt><trkpt lat="47.24039805" lon="11.390069750000002"><ele>687.0</ele><time>2026-05-01T05:37:48.788Z</time></trkpt><trkpt lat="47.24036686666666" lon="11.389948433333332"><ele>687.0</ele><time>2026-05-01T05:37:49.774Z</time></trkpt><trkpt lat="47.24038158333333" lon="11.389817850000002"><ele>687.0</ele><time>2026-05-01T05:37:50.782Z</time></trkpt><trkpt lat="47.24043895" lon="11.389708833333334"><ele>687.0</ele><time>2026-05-01T05:37:51.79Z</time></trkpt><trkpt lat="47.24052448333333" lon="11.389651783333333"><ele>687.0</ele><time>2026-05-01T05:37:52.798Z</time></trkpt><trkpt lat="47.24062073333333" lon="11.389656533333333"><ele>687.0</ele><time>2026-05-01T05:37:53.776Z</time></trkpt><trkpt lat="47.240727" lon="11.389699516666667"><ele>687.0</ele><time>2026-05-01T05:37:54.788Z</time></trkpt><trkpt lat="47.240850483333325" lon="11.38975495"><ele>687.0</ele><time>2026-05-01T05:37:55.8Z</time></trkpt><trkpt lat="47.24097823333333" lon="11.389812733333335"><ele>687.0</ele><time>2026-05-01T05:37:56.775Z</time></trkpt><trkpt lat="47.2410918" lon="11.389868183333332"><ele>687.0</ele><time>2026-05-01T05:37:57.788Z</time></trkpt><trkpt lat="47.2412079" lon="11.389930900000001"><ele>687.0</ele><time>2026-05-01T05:37:58.803Z</time></trkpt><trkpt lat="47.2413319" lon="11.389997516666664"><ele>687.0</ele><time>2026-05-01T05:37:59.781Z</time></trkpt><trkpt lat="47.24146016666667" lon="11.390062466666665"><ele>687.0</ele><time>2026-05-01T05:38:00.803Z</time></trkpt><trkpt lat="47.24158263333334" lon="11.390116266666666"><ele>687.0</ele><time>2026-05-01T05:38:01.799Z</time></trkpt><trkpt lat="47.24169516666666" lon="11.390160483333334"><ele>687.6</ele><time>2026-05-01T05:38:02.784Z</time></trkpt><trkpt lat="47.241796533333336" lon="11.390201200000002"><ele>688.2</ele><time>2026-05-01T05:38:03.785Z</time></trkpt><trkpt lat="47.241881799999994" lon="11.390242033333335"><ele>688.8</ele><time>2026-05-01T05:38:04.774Z</time></trkpt><trkpt lat="47.24194636666666" lon="11.390276633333334"><ele>689.4</ele><time>2026-05-01T05:38:05.783Z</time></trkpt><trkpt lat="47.2420708066158" lon="11.390282758144686"><ele>690.0</ele><time>2026-05-01T05:38:07.798Z</time></trkpt><trkpt lat="47.24208928475679" lon="11.390184653074478"><ele>690.0</ele><time>2026-05-01T05:38:08.783Z</time></trkpt><trkpt lat="47.24204676666667" lon="11.3900958"><ele>690.0</ele><time>2026-05-01T05:38:09.785Z</time></trkpt><trkpt lat="47.24198915" lon="11.390004099999999"><ele>690.0</ele><time>2026-05-01T05:38:10.772Z</time></trkpt><trkpt lat="47.241897916666666" lon="11.389900150000003"><ele>690.0</ele><time>2026-05-01T05:38:11.789Z</time></trkpt><trkpt lat="47.24178416666667" lon="11.38978063333333"><ele>690.0</ele><time>2026-05-01T05:38:12.786Z</time></trkpt><trkpt lat="47.241645816666676" lon="11.389652416666667"><ele>692.6666666666666</ele><time>2026-05-01T05:38:13.8Z</time></trkpt><trkpt lat="47.24149373333333" lon="11.389529916666667"><ele>695.3333333333333</ele><time>2026-05-01T05:38:14.778Z</time></trkpt><trkpt lat="47.24135" lon="11.389421416666668"><ele>698.0</ele><time>2026-05-01T05:38:15.793Z</time></trkpt><trkpt lat="47.24121831666666" lon="11.38932445"><ele>698.0</ele><time>2026-05-01T05:38:16.774Z</time></trkpt><trkpt lat="47.24109788333333" lon="11.389233083333332"><ele>698.0</ele><time>2026-05-01T05:38:17.778Z</time></trkpt><trkpt lat="47.24097963333334" lon="11.389143816666667"><ele>698.0</ele><time>2026-05-01T05:38:18.777Z</time></trkpt><trkpt lat="47.24085681666667" lon="11.389054033333332"><ele>698.0</ele><time>2026-05-01T05:38:19.798Z</time></trkpt><trkpt lat="47.240721666666666" lon="11.388967783333332"><ele>696.0</ele><time>2026-05-01T05:38:20.778Z</time></trkpt><trkpt lat="47.24057041666667" lon="11.38889285"><ele>694.0</ele><time>2026-05-01T05:38:21.786Z</time></trkpt><trkpt lat="47.24040241666667" lon="11.388834833333332"><ele>692.0</ele><time>2026-05-01T05:38:22.801Z</time></trkpt><trkpt lat="47.24021896666666" lon="11.388790966666667"><ele>693.0</ele><time>2026-05-01T05:38:23.783Z</time></trkpt><trkpt lat="47.24002491666667" lon="11.388748433333335"><ele>694.0</ele><time>2026-05-01T05:38:24.796Z</time></trkpt><trkpt lat="47.23982676666667" lon="11.388690816666669"><ele>695.0</ele><time>2026-05-01T05:38:25.799Z</time></trkpt><trkpt lat="47.239632383333344" lon="11.388612566666666"><ele>695.0</ele><time>2026-05-01T05:38:26.778Z</time></trkpt><trkpt lat="47.239446933333326" lon="11.388523799999998"><ele>695.0</ele><time>2026-05-01T05:38:27.775Z</time></trkpt><trkpt lat="47.23927574999999" lon="11.388434083333335"><ele>695.0</ele><time>2026-05-01T05:38:28.801Z</time></trkpt><trkpt lat="47.23912038333333" lon="11.388336083333334"><ele>695.0</ele><time>2026-05-01T05:38:29.778Z</time></trkpt><trkpt lat="47.238976216666664" lon="11.388227133333332"><ele>695.0</ele><time>2026-05-01T05:38:30.785Z</time></trkpt><trkpt lat="47.238840616666664" lon="11.3881097"><ele>695.0</ele><time>2026-05-01T05:38:31.801Z</time></trkpt><trkpt lat="47.23870423333333" lon="11.387982066666666"><ele>697.0</ele><time>2026-05-01T05:38:32.778Z</time></trkpt><trkpt lat="47.238564433333345" lon="11.387845616666667"><ele>699.0</ele><time>2026-05-01T05:38:33.784Z</time></trkpt><trkpt lat="47.23841721666666" lon="11.38769775"><ele>701.0</ele><time>2026-05-01T05:38:34.801Z</time></trkpt><trkpt lat="47.23826341666666" lon="11.387547133333332"><ele>695.0</ele><time>2026-05-01T05:38:35.783Z</time></trkpt><trkpt lat="47.238119499999996" lon="11.387410616666667"><ele>689.0</ele><time>2026-05-01T05:38:36.784Z</time></trkpt><trkpt lat="47.237991166666674" lon="11.387289633333333"><ele>683.0</ele><time>2026-05-01T05:38:37.802Z</time></trkpt><trkpt lat="47.237882883333334" lon="11.3871945"><ele>686.1666666666666</ele><time>2026-05-01T05:38:38.778Z</time></trkpt><trkpt lat="47.23779819999999" lon="11.387113533333334"><ele>689.3333333333333</ele><time>2026-05-01T05:38:39.786Z</time></trkpt><trkpt lat="47.237740699999996" lon="11.387023716666667"><ele>692.5</ele><time>2026-05-01T05:38:40.799Z</time></trkpt><trkpt lat="47.237688216666655" lon="11.38695175"><ele>695.6666666666666</ele><time>2026-05-01T05:38:41.783Z</time></trkpt><trkpt lat="47.23762061666667" lon="11.386919900000002"><ele>698.8333333333334</ele><time>2026-05-01T05:38:42.776Z</time></trkpt><trkpt lat="47.23754520000001" lon="11.386940233333332"><ele>702.0</ele><time>2026-05-01T05:38:43.799Z</time></trkpt><trkpt lat="47.23745786666667" lon="11.386976566666666"><ele>702.0</ele><time>2026-05-01T05:38:44.783Z</time></trkpt><trkpt lat="47.23734281666666" lon="11.386977816666668"><ele>702.0</ele><time>2026-05-01T05:38:45.784Z</time></trkpt><trkpt lat="47.23720998333333" lon="11.38693291666667"><ele>702.0</ele><time>2026-05-01T05:38:46.783Z</time></trkpt><trkpt lat="47.237070849999995" lon="11.386845766666665"><ele>702.0</ele><time>2026-05-01T05:38:47.805Z</time></trkpt><trkpt lat="47.23691965" lon="11.386716200000002"><ele>699.3333333333334</ele><time>2026-05-01T05:38:48.785Z</time></trkpt><trkpt lat="47.23677461619252" lon="11.386532356988022"><ele>696.6666666666667</ele><time>2026-05-01T05:38:49.799Z</time></trkpt><trkpt lat="47.23660343178694" lon="11.386372464353771"><ele>694.0</ele><time>2026-05-01T05:38:50.783Z</time></trkpt><trkpt lat="47.23641202264383" lon="11.386219288549551"><ele>702.5</ele><time>2026-05-01T05:38:51.781Z</time></trkpt><trkpt lat="47.23620726644404" lon="11.386081710708126"><ele>711.0</ele><time>2026-05-01T05:38:52.801Z</time></trkpt><trkpt lat="47.23599280395881" lon="11.385970096128291"><ele>711.0</ele><time>2026-05-01T05:38:53.776Z</time></trkpt><trkpt lat="47.23576735913326" lon="11.385874993192445"><ele>711.0</ele><time>2026-05-01T05:38:54.796Z</time></trkpt><trkpt lat="47.23552785434744" lon="11.38579740331435"><ele>707.5</ele><time>2026-05-01T05:38:55.799Z</time></trkpt><trkpt lat="47.23529267981338" lon="11.385726843119466"><ele>704.0</ele><time>2026-05-01T05:38:56.776Z</time></trkpt><trkpt lat="47.235074963609186" lon="11.385662280673065"><ele>704.0</ele><time>2026-05-01T05:38:57.789Z</time></trkpt><trkpt lat="47.23488181866187" lon="11.385604658689832"><ele>704.0</ele><time>2026-05-01T05:38:58.772Z</time></trkpt><trkpt lat="47.23470829967384" lon="11.38555218866438"><ele>704.0</ele><time>2026-05-01T05:38:59.778Z</time></trkpt><trkpt lat="47.23453287605728" lon="11.385499144940944"><ele>711.3333333333333</ele><time>2026-05-01T05:39:00.775Z</time></trkpt><trkpt lat="47.234333748073574" lon="11.385442047598385"><ele>718.6666666666666</ele><time>2026-05-01T05:39:01.773Z</time></trkpt><trkpt lat="47.23411313640623" lon="11.385384259269806"><ele>726.0</ele><time>2026-05-01T05:39:02.783Z</time></trkpt><trkpt lat="47.23387806599699" lon="11.385354018380662"><ele>727.0</ele><time>2026-05-01T05:39:03.773Z</time></trkpt><trkpt lat="47.23363678333333" lon="11.385369616666667"><ele>728.0</ele><time>2026-05-01T05:39:04.8Z</time></trkpt><trkpt lat="47.233397883333325" lon="11.385385166666666"><ele>728.0</ele><time>2026-05-01T05:39:05.774Z</time></trkpt><trkpt lat="47.23317181666666" lon="11.385411516666665"><ele>728.0</ele><time>2026-05-01T05:39:06.787Z</time></trkpt><trkpt lat="47.232961633333325" lon="11.385434733333334"><ele>728.0</ele><time>2026-05-01T05:39:07.799Z</time></trkpt><trkpt lat="47.232764883333324" lon="11.385451733333333"><ele>728.3333333333333</ele><time>2026-05-01T05:39:08.778Z</time></trkpt><trkpt lat="47.23257981666667" lon="11.385471466666669"><ele>728.6666666666666</ele><time>2026-05-01T05:39:09.779Z</time></trkpt><trkpt lat="47.23240503333333" lon="11.385494799999998"><ele>729.0</ele><time>2026-05-01T05:39:10.799Z</time></trkpt><trkpt lat="47.23223735" lon="11.385514133333333"><ele>717.0</ele><time>2026-05-01T05:39:11.783Z</time></trkpt><trkpt lat="47.232071566666676" lon="11.385534500000002"><ele>705.0</ele><time>2026-05-01T05:39:12.775Z</time></trkpt><trkpt lat="47.23191048333333" lon="11.385557433333334"><ele>693.0</ele><time>2026-05-01T05:39:13.799Z</time></trkpt><trkpt lat="47.231757316666666" lon="11.385578616666663"><ele>693.0</ele><time>2026-05-01T05:39:14.791Z</time></trkpt><trkpt lat="47.23161196666666" lon="11.3855935"><ele>693.0</ele><time>2026-05-01T05:39:15.784Z</time></trkpt><trkpt lat="47.231467366666664" lon="11.385590933333333"><ele>693.0</ele><time>2026-05-01T05:39:16.776Z</time></trkpt><trkpt lat="47.231323116666665" lon="11.385557100000002"><ele>693.0</ele><time>2026-05-01T05:39:17.778Z</time></trkpt><trkpt lat="47.23119618298613" lon="11.38544924132723"><ele>699.3333333333334</ele><time>2026-05-01T05:39:18.775Z</time></trkpt><trkpt lat="47.23106409309847" lon="11.385335890804663"><ele>705.6666666666667</ele><time>2026-05-01T05:39:19.827Z</time></trkpt><trkpt lat="47.230932800097385" lon="11.385218534138215"><ele>712.0</ele><time>2026-05-01T05:39:20.783Z</time></trkpt><trkpt lat="47.23079687544929" lon="11.385096232142898"><ele>712.0</ele><time>2026-05-01T05:39:21.773Z</time></trkpt><trkpt lat="47.23066397397912" lon="11.384975672650153"><ele>712.0</ele><time>2026-05-01T05:39:22.801Z</time></trkpt><trkpt lat="47.230537621166484" lon="11.384861053211631"><ele>712.0</ele><time>2026-05-01T05:39:23.786Z</time></trkpt><trkpt lat="47.230420532229076" lon="11.384755587314773"><ele>712.0</ele><time>2026-05-01T05:39:24.786Z</time></trkpt><trkpt lat="47.23030115522488" lon="11.384677783050039"><ele>709.25</ele><time>2026-05-01T05:39:25.778Z</time></trkpt><trkpt lat="47.23017823019062" lon="11.384662052245199"><ele>706.5</ele><time>2026-05-01T05:39:26.778Z</time></trkpt><trkpt lat="47.2300655" lon="11.384749083333334"><ele>703.75</ele><time>2026-05-01T05:39:27.786Z</time></trkpt><trkpt lat="47.22995949999999" lon="11.384840316666669"><ele>701.0</ele><time>2026-05-01T05:39:28.8Z</time></trkpt><trkpt lat="47.229861833333345" lon="11.3849645"><ele>701.25</ele><time>2026-05-01T05:39:29.776Z</time></trkpt><trkpt lat="47.229782416666666" lon="11.385114083333333"><ele>701.5</ele><time>2026-05-01T05:39:30.794Z</time></trkpt><trkpt lat="47.22973408333334" lon="11.385291883333332"><ele>701.75</ele><time>2026-05-01T05:39:31.799Z</time></trkpt><trkpt lat="47.2297234" lon="11.385492683333332"><ele>702.0</ele><time>2026-05-01T05:39:32.778Z</time></trkpt><trkpt lat="47.22974171666666" lon="11.385724816666668"><ele>702.0</ele><time>2026-05-01T05:39:33.788Z</time></trkpt><trkpt lat="47.229771799999995" lon="11.385975399999998"><ele>702.0</ele><time>2026-05-01T05:39:34.799Z</time></trkpt><trkpt lat="47.229798550000005" lon="11.386216316666667"><ele>702.0</ele><time>2026-05-01T05:39:35.785Z</time></trkpt><trkpt lat="47.229811783333325" lon="11.386437233333332"><ele>701.75</ele><time>2026-05-01T05:39:36.784Z</time></trkpt><trkpt lat="47.22979423333333" lon="11.386642166666665"><ele>701.5</ele><time>2026-05-01T05:39:37.799Z</time></trkpt><trkpt lat="47.22974425" lon="11.386834333333336"><ele>701.25</ele><time>2026-05-01T05:39:38.776Z</time></trkpt><trkpt lat="47.229665383333334" lon="11.387015266666666"><ele>701.0</ele><time>2026-05-01T05:39:39.792Z</time></trkpt><trkpt lat="47.22956009999999" lon="11.387165283333331"><ele>697.75</ele><time>2026-05-01T05:39:40.774Z</time></trkpt><trkpt lat="47.22943243333334" lon="11.3872661"><ele>694.5</ele><time>2026-05-01T05:39:41.783Z</time></trkpt><trkpt lat="47.22928878333334" lon="11.387304933333334"><ele>691.25</ele><time>2026-05-01T05:39:42.785Z</time></trkpt><trkpt lat="47.229137200000004" lon="11.387295733333334"><ele>688.0</ele><time>2026-05-01T05:39:43.805Z</time></trkpt><trkpt lat="47.228987183333324" lon="11.387272533333332"><ele>687.25</ele><time>2026-05-01T05:39:44.783Z</time></trkpt><trkpt lat="47.22884391666666" lon="11.3872539"><ele>686.5</ele><time>2026-05-01T05:39:45.784Z</time></trkpt><trkpt lat="47.22870798333333" lon="11.387235433333336"><ele>685.75</ele><time>2026-05-01T05:39:46.774Z</time></trkpt><trkpt lat="47.22857426666666" lon="11.387211266666668"><ele>685.0</ele><time>2026-05-01T05:39:47.778Z</time></trkpt><trkpt lat="47.22844218333333" lon="11.387168283333331"><ele>687.5</ele><time>2026-05-01T05:39:48.784Z</time></trkpt><trkpt lat="47.228319799999994" lon="11.387093233333333"><ele>690.0</ele><time>2026-05-01T05:39:49.801Z</time></trkpt><trkpt lat="47.228212433333326" lon="11.386993050000001"><ele>692.5</ele><time>2026-05-01T05:39:50.776Z</time></trkpt><trkpt lat="47.22811831666666" lon="11.386886016666665"><ele>695.0</ele><time>2026-05-01T05:39:51.795Z</time></trkpt><trkpt lat="47.22803091666666" lon="11.386776383333332"><ele>695.0</ele><time>2026-05-01T05:39:52.803Z</time></trkpt><trkpt lat="47.22793906666667" lon="11.386667250000002"><ele>695.0</ele><time>2026-05-01T05:39:53.778Z</time></trkpt><trkpt lat="47.227838999999996" lon="11.386555266666667"><ele>695.0</ele><time>2026-05-01T05:39:54.784Z</time></trkpt><trkpt lat="47.22773583333333" lon="11.3864446"><ele>695.0</ele><time>2026-05-01T05:39:55.801Z</time></trkpt><trkpt lat="47.22762495" lon="11.386339033333336"><ele>699.0</ele><time>2026-05-01T05:39:56.783Z</time></trkpt><trkpt lat="47.22750668333333" lon="11.386240416666666"><ele>703.0</ele><time>2026-05-01T05:39:57.785Z</time></trkpt><trkpt lat="47.2273858" lon="11.386153833333333"><ele>707.0</ele><time>2026-05-01T05:39:58.801Z</time></trkpt><trkpt lat="47.22726036666666" lon="11.38607411666667"><ele>711.0</ele><time>2026-05-01T05:39:59.783Z</time></trkpt><trkpt lat="47.227135266666664" lon="11.385995183333334"><ele>712.0</ele><time>2026-05-01T05:40:00.796Z</time></trkpt><trkpt lat="47.227014866666664" lon="11.3859194"><ele>713.0</ele><time>2026-05-01T05:40:01.799Z</time></trkpt><trkpt lat="47.22690351666667" lon="11.385845416666667"><ele>714.0</ele><time>2026-05-01T05:40:02.784Z</time></trkpt><trkpt lat="47.22679706666666" lon="11.385787433333332"><ele>715.0</ele><time>2026-05-01T05:40:03.775Z</time></trkpt><trkpt lat="47.22669071666666" lon="11.385756566666666"><ele>715.0</ele><time>2026-05-01T05:40:04.773Z</time></trkpt><trkpt lat="47.226582549999996" lon="11.385751533333332"><ele>715.0</ele><time>2026-05-01T05:40:05.783Z</time></trkpt><trkpt lat="47.22647881666666" lon="11.385790533333333"><ele>715.0</ele><time>2026-05-01T05:40:06.784Z</time></trkpt><trkpt lat="47.22637896666667" lon="11.3858698"><ele>715.0</ele><time>2026-05-01T05:40:07.772Z</time></trkpt><trkpt lat="47.22628456666666" lon="11.385975666666665"><ele>715.0</ele><time>2026-05-01T05:40:08.783Z</time></trkpt><trkpt lat="47.22619585" lon="11.386096799999999"><ele>710.5</ele><time>2026-05-01T05:40:09.791Z</time></trkpt><trkpt lat="47.226106816666665" lon="11.386220616666668"><ele>706.0</ele><time>2026-05-01T05:40:10.801Z</time></trkpt><trkpt lat="47.22601728333334" lon="11.386345433333334"><ele>701.5</ele><time>2026-05-01T05:40:11.783Z</time></trkpt><trkpt lat="47.225932650000004" lon="11.386458216666666"><ele>697.0</ele><time>2026-05-01T05:40:12.786Z</time></trkpt><trkpt lat="47.22583595" lon="11.386542583333336"><ele>697.0</ele><time>2026-05-01T05:40:13.799Z</time></trkpt><trkpt lat="47.225726" lon="11.386583216666667"><ele>697.0</ele><time>2026-05-01T05:40:14.786Z</time></trkpt><trkpt lat="47.22560411666667" lon="11.38659778333333"><ele>697.0</ele><time>2026-05-01T05:40:15.785Z</time></trkpt><trkpt lat="47.225470550000004" lon="11.386608533333332"><ele>697.0</ele><time>2026-05-01T05:40:16.799Z</time></trkpt><trkpt lat="47.22532818333334" lon="11.386620966666666"><ele>703.6666666666667</ele><time>2026-05-01T05:40:17.783Z</time></trkpt><trkpt lat="47.22517695" lon="11.386633733333335"><ele>710.3333333333334</ele><time>2026-05-01T05:40:18.778Z</time></trkpt><trkpt lat="47.22502376666666" lon="11.386644133333334"><ele>717.0</ele><time>2026-05-01T05:40:19.801Z</time></trkpt><trkpt lat="47.22487028333333" lon="11.386663933333333"><ele>723.25</ele><time>2026-05-01T05:40:20.783Z</time></trkpt><trkpt lat="47.224723116666674" lon="11.386683399999999"><ele>729.5</ele><time>2026-05-01T05:40:21.784Z</time></trkpt><trkpt lat="47.22458503333334" lon="11.38670428333333"><ele>735.75</ele><time>2026-05-01T05:40:22.781Z</time></trkpt><trkpt lat="47.22445276666667" lon="11.386744216666665"><ele>742.0</ele><time>2026-05-01T05:40:23.806Z</time></trkpt><trkpt lat="47.22432558333333" lon="11.3868114"><ele>742.0</ele><time>2026-05-01T05:40:24.79Z</time></trkpt><trkpt lat="47.22419835000001" lon="11.386898966666667"><ele>742.0</ele><time>2026-05-01T05:40:25.771Z</time></trkpt><trkpt lat="47.22407428333333" lon="11.387007466666667"><ele>742.0</ele><time>2026-05-01T05:40:26.783Z</time></trkpt><trkpt lat="47.22395303333332" lon="11.38712665"><ele>742.0</ele><time>2026-05-01T05:40:27.783Z</time></trkpt><trkpt lat="47.22382848333333" lon="11.387247716666666"><ele>737.0</ele><time>2026-05-01T05:40:28.803Z</time></trkpt><trkpt lat="47.22369678333333" lon="11.387363533333334"><ele>732.0</ele><time>2026-05-01T05:40:29.788Z</time></trkpt><trkpt lat="47.223557016666675" lon="11.387461916666666"><ele>727.0</ele><time>2026-05-01T05:40:30.808Z</time></trkpt><trkpt lat="47.22340975000001" lon="11.38754035"><ele>727.0</ele><time>2026-05-01T05:40:31.777Z</time></trkpt><trkpt lat="47.22326698333333" lon="11.387595166666665"><ele>727.0</ele><time>2026-05-01T05:40:32.778Z</time></trkpt><trkpt lat="47.22313545000001" lon="11.387634400000001"><ele>727.0</ele><time>2026-05-01T05:40:33.788Z</time></trkpt><trkpt lat="47.22300425" lon="11.387662883333334"><ele>727.0</ele><time>2026-05-01T05:40:34.773Z</time></trkpt><trkpt lat="47.222878916666666" lon="11.387689016666666"><ele>726.75</ele><time>2026-05-01T05:40:35.783Z</time></trkpt><trkpt lat="47.2227564" lon="11.387706083333333"><ele>726.5</ele><time>2026-05-01T05:40:36.793Z</time></trkpt><trkpt lat="47.2226294" lon="11.387701816666668"><ele>726.25</ele><time>2026-05-01T05:40:37.8Z</time></trkpt><trkpt lat="47.22250094999999" lon="11.387670949999999"><ele>726.0</ele><time>2026-05-01T05:40:38.791Z</time></trkpt><trkpt lat="47.2223901278345" lon="11.387585937764658"><ele>725.0</ele><time>2026-05-01T05:40:39.789Z</time></trkpt><trkpt lat="47.22228303385121" lon="11.387527969754885"><ele>724.0</ele><time>2026-05-01T05:40:40.798Z</time></trkpt><trkpt lat="47.222178" lon="11.3874929"><ele>723.0</ele><time>2026-05-01T05:40:41.775Z</time></trkpt><trkpt lat="47.222077516666666" lon="11.387434883333333"><ele>722.0</ele><time>2026-05-01T05:40:42.785Z</time></trkpt><trkpt lat="47.221975633333344" lon="11.387381683333334"><ele>721.0</ele><time>2026-05-01T05:40:43.799Z</time></trkpt><trkpt lat="47.22187321666667" lon="11.38734455"><ele>721.0</ele><time>2026-05-01T05:40:44.783Z</time></trkpt><trkpt lat="47.22176991666667" lon="11.387336533333334"><ele>721.0</ele><time>2026-05-01T05:40:45.79Z</time></trkpt><trkpt lat="47.22166526666666" lon="11.387367516666666"><ele>721.0</ele><time>2026-05-01T05:40:46.801Z</time></trkpt><trkpt lat="47.221551166666664" lon="11.38745351666667"><ele>721.0</ele><time>2026-05-01T05:40:47.782Z</time></trkpt><trkpt lat="47.22142633333333" lon="11.387599516666667"><ele>718.3333333333334</ele><time>2026-05-01T05:40:48.774Z</time></trkpt><trkpt lat="47.221278" lon="11.387789416666665"><ele>715.6666666666666</ele><time>2026-05-01T05:40:49.8Z</time></trkpt><trkpt lat="47.22110011666667" lon="11.387998766666666"><ele>713.0</ele><time>2026-05-01T05:40:50.783Z</time></trkpt><trkpt lat="47.22092015" lon="11.388192966666667"><ele>713.0</ele><time>2026-05-01T05:40:51.789Z</time></trkpt><trkpt lat="47.22075601666667" lon="11.38836965"><ele>713.0</ele><time>2026-05-01T05:40:52.8Z</time></trkpt><trkpt lat="47.22060376666666" lon="11.388534583333334"><ele>713.0</ele><time>2026-05-01T05:40:53.783Z</time></trkpt><trkpt lat="47.220471849999996" lon="11.388678833333332"><ele>713.25</ele><time>2026-05-01T05:40:54.793Z</time></trkpt><trkpt lat="47.22035616666667" lon="11.388807283333332"><ele>713.5</ele><time>2026-05-01T05:40:55.825Z</time></trkpt><trkpt lat="47.220251866666665" lon="11.388922950000003"><ele>713.75</ele><time>2026-05-01T05:40:56.783Z</time></trkpt><trkpt lat="47.22015258333333" lon="11.3890329"><ele>714.0</ele><time>2026-05-01T05:40:57.787Z</time></trkpt><trkpt lat="47.220049083333336" lon="11.389146850000001"><ele>714.0</ele><time>2026-05-01T05:40:58.799Z</time></trkpt><trkpt lat="47.21993668333333" lon="11.389255966666667"><ele>714.0</ele><time>2026-05-01T05:40:59.786Z</time></trkpt><trkpt lat="47.21981478333334" lon="11.389348016666668"><ele>714.0</ele><time>2026-05-01T05:41:00.785Z</time></trkpt><trkpt lat="47.21968716666667" lon="11.389411516666666"><ele>714.0</ele><time>2026-05-01T05:41:01.8Z</time></trkpt><trkpt lat="47.21955173333334" lon="11.38944348333333"><ele>712.75</ele><time>2026-05-01T05:41:02.795Z</time></trkpt><trkpt lat="47.21941493333333" lon="11.389446083333333"><ele>711.5</ele><time>2026-05-01T05:41:03.793Z</time></trkpt><trkpt lat="47.21928164999999" lon="11.389417866666667"><ele>710.25</ele><time>2026-05-01T05:41:04.8Z</time></trkpt><trkpt lat="47.21915983180956" lon="11.389333177087673"><ele>709.0</ele><time>2026-05-01T05:41:05.784Z</time></trkpt><trkpt lat="47.219047573237894" lon="11.389246375575635"><ele>709.25</ele><time>2026-05-01T05:41:06.784Z</time></trkpt><trkpt lat="47.21894448447796" lon="11.389142863656794"><ele>709.5</ele><time>2026-05-01T05:41:07.799Z</time></trkpt><trkpt lat="47.21885375192316" lon="11.389021137911646"><ele>709.75</ele><time>2026-05-01T05:41:08.784Z</time></trkpt><trkpt lat="47.21878083690417" lon="11.388880578751127"><ele>710.0</ele><time>2026-05-01T05:41:09.785Z</time></trkpt><trkpt lat="47.21872146048135" lon="11.388734210961175"><ele>710.0</ele><time>2026-05-01T05:41:10.801Z</time></trkpt><trkpt lat="47.21867502243215" lon="11.388567603226868"><ele>710.0</ele><time>2026-05-01T05:41:11.771Z</time></trkpt><trkpt lat="47.21862671656934" lon="11.388401511908963"><ele>710.0</ele><time>2026-05-01T05:41:12.791Z</time></trkpt><trkpt lat="47.21854891666667" lon="11.388254416666665"><ele>710.0</ele><time>2026-05-01T05:41:13.799Z</time></trkpt><trkpt lat="47.21846458333333" lon="11.38811915"><ele>710.0</ele><time>2026-05-01T05:41:14.784Z</time></trkpt><trkpt lat="47.21835321666667" lon="11.388020933333333"><ele>710.0</ele><time>2026-05-01T05:41:15.784Z</time></trkpt><trkpt lat="47.21822359999999" lon="11.387949949999998"><ele>710.0</ele><time>2026-05-01T05:41:16.802Z</time></trkpt><trkpt lat="47.21808315" lon="11.387911666666666"><ele>710.0</ele><time>2026-05-01T05:41:17.783Z</time></trkpt><trkpt lat="47.21793371666666" lon="11.38789665"><ele>719.3333333333333</ele><time>2026-05-01T05:41:18.793Z</time></trkpt><trkpt lat="47.21777996666666" lon="11.387884566666665"><ele>728.6666666666666</ele><time>2026-05-01T05:41:19.801Z</time></trkpt><trkpt lat="47.21762773333333" lon="11.387875766666665"><ele>738.0</ele><time>2026-05-01T05:41:20.787Z</time></trkpt><trkpt lat="47.21748116666666" lon="11.387870566666667"><ele>738.0</ele><time>2026-05-01T05:41:21.776Z</time></trkpt><trkpt lat="47.21734535000001" lon="11.387866650000001"><ele>738.0</ele><time>2026-05-01T05:41:22.774Z</time></trkpt><trkpt lat="47.21721048333334" lon="11.387863283333337"><ele>738.0</ele><time>2026-05-01T05:41:23.783Z</time></trkpt><trkpt lat="47.217070899999996" lon="11.387858716666665"><ele>738.0</ele><time>2026-05-01T05:41:24.786Z</time></trkpt><trkpt lat="47.216929833333346" lon="11.387848833333331"><ele>734.5</ele><time>2026-05-01T05:41:25.8Z</time></trkpt><trkpt lat="47.21679313333334" lon="11.387825566666669"><ele>731.0</ele><time>2026-05-01T05:41:26.783Z</time></trkpt><trkpt lat="47.21665718333333" lon="11.387791149999998"><ele>727.5</ele><time>2026-05-01T05:41:27.797Z</time></trkpt><trkpt lat="47.21653617129457" lon="11.38770399705205"><ele>724.0</ele><time>2026-05-01T05:41:28.802Z</time></trkpt><trkpt lat="47.216427529455736" lon="11.387610377662915"><ele>721.0</ele><time>2026-05-01T05:41:29.782Z</time></trkpt><trkpt lat="47.21633130634619" lon="11.38750267736103"><ele>718.0</ele><time>2026-05-01T05:41:30.793Z</time></trkpt><trkpt lat="47.21623238826017" lon="11.387400499887713"><ele>715.0</ele><time>2026-05-01T05:41:31.799Z</time></trkpt><trkpt lat="47.21612291666667" lon="11.387325533333335"><ele>712.0</ele><time>2026-05-01T05:41:32.79Z</time></trkpt><trkpt lat="47.21601701666666" lon="11.387247716666666"><ele>712.0</ele><time>2026-05-01T05:41:33.785Z</time></trkpt><trkpt lat="47.21590188333333" lon="11.387204266666668"><ele>712.0</ele><time>2026-05-01T05:41:34.808Z</time></trkpt><trkpt lat="47.21578196666666" lon="11.38719968333333"><ele>712.0</ele><time>2026-05-01T05:41:35.783Z</time></trkpt><trkpt lat="47.21566046666667" lon="11.387226366666667"><ele>712.0</ele><time>2026-05-01T05:41:36.796Z</time></trkpt><trkpt lat="47.21553795" lon="11.387253433333335"><ele>712.0</ele><time>2026-05-01T05:41:37.799Z</time></trkpt><trkpt lat="47.215405116666666" lon="11.387275650000001"><ele>712.0</ele><time>2026-05-01T05:41:38.783Z</time></trkpt><trkpt lat="47.21526733333334" lon="11.387303083333332"><ele>712.0</ele><time>2026-05-01T05:41:39.793Z</time></trkpt><trkpt lat="47.21512713333333" lon="11.387327950000001"><ele>712.0</ele><time>2026-05-01T05:41:40.773Z</time></trkpt><trkpt lat="47.21498686666666" lon="11.38735141666667"><ele>712.0</ele><time>2026-05-01T05:41:41.784Z</time></trkpt><trkpt lat="47.21484355" lon="11.387378866666666"><ele>712.0</ele><time>2026-05-01T05:41:42.789Z</time></trkpt><trkpt lat="47.214697949999994" lon="11.387409633333334"><ele>712.0</ele><time>2026-05-01T05:41:43.802Z</time></trkpt><trkpt lat="47.214553666666674" lon="11.387432983333335"><ele>712.0</ele><time>2026-05-01T05:41:44.786Z</time></trkpt><trkpt lat="47.21441231666666" lon="11.3874553"><ele>714.0</ele><time>2026-05-01T05:41:45.791Z</time></trkpt><trkpt lat="47.214272316666666" lon="11.387483066666668"><ele>716.0</ele><time>2026-05-01T05:41:46.8Z</time></trkpt><trkpt lat="47.2141315" lon="11.387511949999999"><ele>718.0</ele><time>2026-05-01T05:41:47.784Z</time></trkpt><trkpt lat="47.213987566666674" lon="11.387539533333333"><ele>720.0</ele><time>2026-05-01T05:41:48.785Z</time></trkpt><trkpt lat="47.213846333333336" lon="11.387569766666665"><ele>720.25</ele><time>2026-05-01T05:41:49.799Z</time></trkpt><trkpt lat="47.2137091" lon="11.387597516666665"><ele>720.5</ele><time>2026-05-01T05:41:50.784Z</time></trkpt><trkpt lat="47.21357623333333" lon="11.387622116666668"><ele>720.75</ele><time>2026-05-01T05:41:51.788Z</time></trkpt><trkpt lat="47.21344596666666" lon="11.387647266666665"><ele>721.0</ele><time>2026-05-01T05:41:52.8Z</time></trkpt><trkpt lat="47.21331440000001" lon="11.387673166666666"><ele>721.0</ele><time>2026-05-01T05:41:53.784Z</time></trkpt><trkpt lat="47.21318616666668" lon="11.387698499999999"><ele>721.0</ele><time>2026-05-01T05:41:54.779Z</time></trkpt><trkpt lat="47.21305778333333" lon="11.387723516666664"><ele>721.0</ele><time>2026-05-01T05:41:55.8Z</time></trkpt><trkpt lat="47.21293426666666" lon="11.387748333333331"><ele>721.0</ele><time>2026-05-01T05:41:56.789Z</time></trkpt><trkpt lat="47.21281286666667" lon="11.387769033333331"><ele>720.25</ele><time>2026-05-01T05:41:57.776Z</time></trkpt><trkpt lat="47.2126943" lon="11.387787733333335"><ele>719.5</ele><time>2026-05-01T05:41:58.78Z</time></trkpt><trkpt lat="47.21257598333333" lon="11.38779575"><ele>718.75</ele><time>2026-05-01T05:41:59.806Z</time></trkpt><trkpt lat="47.21246071666666" lon="11.38777985"><ele>718.0</ele><time>2026-05-01T05:42:00.785Z</time></trkpt><trkpt lat="47.21235358333333" lon="11.387725283333335"><ele>717.8</ele><time>2026-05-01T05:42:01.801Z</time></trkpt><trkpt lat="47.212255500000005" lon="11.387637016666668"><ele>717.5999999999999</ele><time>2026-05-01T05:42:02.785Z</time></trkpt><trkpt lat="47.21216871666667" lon="11.387535166666666"><ele>717.4000000000001</ele><time>2026-05-01T05:42:03.781Z</time></trkpt><trkpt lat="47.212084450000006" lon="11.3874324"><ele>717.2</ele><time>2026-05-01T05:42:04.802Z</time></trkpt><trkpt lat="47.2119873" lon="11.38735138333333"><ele>717.0</ele><time>2026-05-01T05:42:05.784Z</time></trkpt><trkpt lat="47.21187781666666" lon="11.387306933333331"><ele>717.0</ele><time>2026-05-01T05:42:06.798Z</time></trkpt><trkpt lat="47.21176253333333" lon="11.387294200000001"><ele>717.0</ele><time>2026-05-01T05:42:07.777Z</time></trkpt><trkpt lat="47.211646666666674" lon="11.387321333333334"><ele>717.0</ele><time>2026-05-01T05:42:08.78Z</time></trkpt><trkpt lat="47.2115276" lon="11.387399550000001"><ele>717.0</ele><time>2026-05-01T05:42:09.791Z</time></trkpt><trkpt lat="47.21141526666667" lon="11.387498266666668"><ele>719.25</ele><time>2026-05-01T05:42:10.784Z</time></trkpt><trkpt lat="47.211312433333326" lon="11.387603200000001"><ele>721.5</ele><time>2026-05-01T05:42:11.783Z</time></trkpt><trkpt lat="47.21121926666667" lon="11.387707233333332"><ele>723.75</ele><time>2026-05-01T05:42:12.776Z</time></trkpt><trkpt lat="47.21112204999999" lon="11.387807983333333"><ele>726.0</ele><time>2026-05-01T05:42:13.801Z</time></trkpt><trkpt lat="47.21102081666667" lon="11.387922216666668"><ele>720.5</ele><time>2026-05-01T05:42:14.783Z</time></trkpt><trkpt lat="47.21093336666666" lon="11.388057583333334"><ele>715.0</ele><time>2026-05-01T05:42:15.776Z</time></trkpt><trkpt lat="47.21086368333334" lon="11.38821015"><ele>709.5</ele><time>2026-05-01T05:42:16.8Z</time></trkpt><trkpt lat="47.210823383333334" lon="11.388379816666669"><ele>704.0</ele><time>2026-05-01T05:42:17.783Z</time></trkpt><trkpt lat="47.210816650000005" lon="11.388559383333332"><ele>704.0</ele><time>2026-05-01T05:42:18.786Z</time></trkpt><trkpt lat="47.21082605" lon="11.38873775"><ele>704.0</ele><time>2026-05-01T05:42:19.801Z</time></trkpt><trkpt lat="47.21085111666667" lon="11.3889124"><ele>704.0</ele><time>2026-05-01T05:42:20.784Z</time></trkpt><trkpt lat="47.210878699999995" lon="11.389084716666666"><ele>704.0</ele><time>2026-05-01T05:42:21.79Z</time></trkpt><trkpt lat="47.210903783333336" lon="11.389252749999997"><ele>700.25</ele><time>2026-05-01T05:42:22.801Z</time></trkpt><trkpt lat="47.21093118333333" lon="11.389429949999998"><ele>696.5</ele><time>2026-05-01T05:42:23.783Z</time></trkpt><trkpt lat="47.21096186666667" lon="11.389618333333333"><ele>692.75</ele><time>2026-05-01T05:42:24.775Z</time></trkpt><trkpt lat="47.210992983333334" lon="11.3898219"><ele>689.0</ele><time>2026-05-01T05:42:25.8Z</time></trkpt><trkpt lat="47.211025333333325" lon="11.390025983333333"><ele>689.0</ele><time>2026-05-01T05:42:26.792Z</time></trkpt><trkpt lat="47.21105394999999" lon="11.3902208"><ele>689.0</ele><time>2026-05-01T05:42:27.785Z</time></trkpt><trkpt lat="47.211082" lon="11.3904166"><ele>689.0</ele><time>2026-05-01T05:42:28.782Z</time></trkpt><trkpt lat="47.21111395" lon="11.390610983333334"><ele>689.0</ele><time>2026-05-01T05:42:29.784Z</time></trkpt><trkpt lat="47.21114883333333" lon="11.390807466666669"><ele>691.25</ele><time>2026-05-01T05:42:30.794Z</time></trkpt><trkpt lat="47.21118455000001" lon="11.391000516666667"><ele>693.5</ele><time>2026-05-01T05:42:31.825Z</time></trkpt><trkpt lat="47.211217850000004" lon="11.391191816666668"><ele>695.75</ele><time>2026-05-01T05:42:32.784Z</time></trkpt><trkpt lat="47.21125676666667" lon="11.391402266666669"><ele>698.0</ele><time>2026-05-01T05:42:33.793Z</time></trkpt><trkpt lat="47.2113022" lon="11.391660733333334"><ele>702.5</ele><time>2026-05-01T05:42:34.8Z</time></trkpt><trkpt lat="47.21134851666667" lon="11.3919668"><ele>707.0</ele><time>2026-05-01T05:42:35.784Z</time></trkpt><trkpt lat="47.21139403333333" lon="11.392316200000002"><ele>714.0</ele><time>2026-05-01T05:42:36.785Z</time></trkpt><trkpt lat="47.21144040000001" lon="11.392682966666667"><ele>721.0</ele><time>2026-05-01T05:42:37.8Z</time></trkpt><trkpt lat="47.21148195000001" lon="11.393028383333334"><ele>721.0</ele><time>2026-05-01T05:42:38.784Z</time></trkpt><trkpt lat="47.211527666666676" lon="11.393344816666668"><ele>721.0</ele><time>2026-05-01T05:42:39.786Z</time></trkpt><trkpt lat="47.2115731" lon="11.393635549999999"><ele>721.0</ele><time>2026-05-01T05:42:40.8Z</time></trkpt><trkpt lat="47.21161246666667" lon="11.393891883333332"><ele>721.0</ele><time>2026-05-01T05:42:41.784Z</time></trkpt><trkpt lat="47.211631999999994" lon="11.39411115"><ele>721.0</ele><time>2026-05-01T05:42:42.776Z</time></trkpt><trkpt lat="47.21161146666667" lon="11.394291666666668"><ele>721.0</ele><time>2026-05-01T05:42:43.802Z</time></trkpt><trkpt lat="47.21154386666667" lon="11.394441983333335"><ele>721.0</ele><time>2026-05-01T05:42:44.784Z</time></trkpt><trkpt lat="47.2114411" lon="11.394584816666667"><ele>736.6666666666667</ele><time>2026-05-01T05:42:45.787Z</time></trkpt><trkpt lat="47.21131388333333" lon="11.394744949999998"><ele>752.3333333333334</ele><time>2026-05-01T05:42:46.772Z</time></trkpt><trkpt lat="47.21117843333334" lon="11.394938433333335"><ele>768.0</ele><time>2026-05-01T05:42:47.794Z</time></trkpt><trkpt lat="47.211059250000005" lon="11.395173"><ele>768.0</ele><time>2026-05-01T05:42:48.785Z</time></trkpt><trkpt lat="47.210970983333326" lon="11.395442966666668"><ele>768.0</ele><time>2026-05-01T05:42:49.8Z</time></trkpt><trkpt lat="47.21089801666667" lon="11.3957103"><ele>768.0</ele><time>2026-05-01T05:42:50.792Z</time></trkpt><trkpt lat="47.210823266666665" lon="11.395939266666668"><ele>770.5</ele><time>2026-05-01T05:42:51.776Z</time></trkpt><trkpt lat="47.21073381666667" lon="11.396112833333332"><ele>773.0</ele><time>2026-05-01T05:42:52.8Z</time></trkpt><trkpt lat="47.21062103333333" lon="11.396226000000002"><ele>775.5</ele><time>2026-05-01T05:42:53.784Z</time></trkpt><trkpt lat="47.210484316666665" lon="11.396294699999999"><ele>778.0</ele><time>2026-05-01T05:42:54.804Z</time></trkpt><trkpt lat="47.210324543736384" lon="11.396309680931399"><ele>781.6666666666666</ele><time>2026-05-01T05:42:55.8Z</time></trkpt><trkpt lat="47.210151890474826" lon="11.396353537696546"><ele>785.3333333333333</ele><time>2026-05-01T05:42:56.773Z</time></trkpt><trkpt lat="47.20997614805146" lon="11.39643464166786"><ele>789.0</ele><time>2026-05-01T05:42:57.786Z</time></trkpt><trkpt lat="47.20980806666667" lon="11.396561616666666"><ele>789.0</ele><time>2026-05-01T05:42:58.775Z</time></trkpt><trkpt lat="47.20964995" lon="11.396697866666667"><ele>789.0</ele><time>2026-05-01T05:42:59.783Z</time></trkpt><trkpt lat="47.20951388333333" lon="11.396886016666667"><ele>789.0</ele><time>2026-05-01T05:43:00.785Z</time></trkpt><trkpt lat="47.20939621666666" lon="11.397122283333331"><ele>778.3333333333334</ele><time>2026-05-01T05:43:01.799Z</time></trkpt><trkpt lat="47.20928416666667" lon="11.397369483333334"><ele>767.6666666666667</ele><time>2026-05-01T05:43:02.783Z</time></trkpt><trkpt lat="47.2091805" lon="11.397606616666668"><ele>757.0</ele><time>2026-05-01T05:43:03.795Z</time></trkpt><trkpt lat="47.209085099999996" lon="11.397825"><ele>757.6666666666667</ele><time>2026-05-01T05:43:04.8Z</time></trkpt><trkpt lat="47.20898998333334" lon="11.398013399999998"><ele>758.3333333333334</ele><time>2026-05-01T05:43:05.783Z</time></trkpt><trkpt lat="47.20888266666666" lon="11.398156633333334"><ele>759.0</ele><time>2026-05-01T05:43:06.785Z</time></trkpt><trkpt lat="47.20874546666667" lon="11.39825675"><ele>759.0</ele><time>2026-05-01T05:43:07.772Z</time></trkpt><trkpt lat="47.20857801029479" lon="11.398311350235225"><ele>759.0</ele><time>2026-05-01T05:43:08.783Z</time></trkpt><trkpt lat="47.20841125" lon="11.398413283333333"><ele>759.0</ele><time>2026-05-01T05:43:09.782Z</time></trkpt><trkpt lat="47.2082311" lon="11.398489916666664"><ele>764.0</ele><time>2026-05-01T05:43:10.8Z</time></trkpt><trkpt lat="47.20804145" lon="11.398560466666666"><ele>769.0</ele><time>2026-05-01T05:43:11.796Z</time></trkpt><trkpt lat="47.20784669826521" lon="11.39860089022873"><ele>774.0</ele><time>2026-05-01T05:43:12.798Z</time></trkpt><trkpt lat="47.2076653832879" lon="11.398654961739352"><ele>774.0</ele><time>2026-05-01T05:43:13.8Z</time></trkpt><trkpt lat="47.207498152161214" lon="11.39870237150259"><ele>774.0</ele><time>2026-05-01T05:43:14.784Z</time></trkpt><trkpt lat="47.207346750000006" lon="11.398766466666666"><ele>774.0</ele><time>2026-05-01T05:43:15.784Z</time></trkpt><trkpt lat="47.20719733333334" lon="11.398771333333332"><ele>771.0</ele><time>2026-05-01T05:43:16.773Z</time></trkpt><trkpt lat="47.207058613889714" lon="11.398692366354656"><ele>768.0</ele><time>2026-05-01T05:43:17.787Z</time></trkpt><trkpt lat="47.20693319647132" lon="11.398567962590386"><ele>765.0</ele><time>2026-05-01T05:43:18.783Z</time></trkpt><trkpt lat="47.206788100169035" lon="11.39844116430439"><ele>765.0</ele><time>2026-05-01T05:43:19.771Z</time></trkpt><trkpt lat="47.20662460306814" lon="11.398389240821693"><ele>765.0</ele><time>2026-05-01T05:43:20.788Z</time></trkpt><trkpt lat="47.20645389212352" lon="11.398384513968995"><ele>765.0</ele><time>2026-05-01T05:43:21.791Z</time></trkpt><trkpt lat="47.206278583333344" lon="11.398382883639902"><ele>762.75</ele><time>2026-05-01T05:43:22.782Z</time></trkpt><trkpt lat="47.20611068333333" lon="11.398382883643341"><ele>760.5</ele><time>2026-05-01T05:43:23.775Z</time></trkpt><trkpt lat="47.20595729830351" lon="11.398381639583981"><ele>758.25</ele><time>2026-05-01T05:43:24.785Z</time></trkpt><trkpt lat="47.20582990879558" lon="11.3983746962292"><ele>756.0</ele><time>2026-05-01T05:43:25.773Z</time></trkpt><trkpt lat="47.20573639927191" lon="11.398327443938989"><ele>755.25</ele><time>2026-05-01T05:43:26.775Z</time></trkpt><trkpt lat="47.20565456666667" lon="11.398235433333333"><ele>754.5</ele><time>2026-05-01T05:43:27.79Z</time></trkpt><trkpt lat="47.20563391666666" lon="11.398073083333335"><ele>753.75</ele><time>2026-05-01T05:43:28.781Z</time></trkpt><trkpt lat="47.20565701666666" lon="11.3978927"><ele>753.0</ele><time>2026-05-01T05:43:29.774Z</time></trkpt><trkpt lat="47.20568206666666" lon="11.39770555"><ele>753.0</ele><time>2026-05-01T05:43:30.782Z</time></trkpt><trkpt lat="47.205671383333346" lon="11.39751175"><ele>753.0</ele><time>2026-05-01T05:43:31.785Z</time></trkpt><trkpt lat="47.20561206666666" lon="11.397328016666666"><ele>753.0</ele><time>2026-05-01T05:43:32.777Z</time></trkpt><trkpt lat="47.20550343333333" lon="11.397180466666669"><ele>753.0</ele><time>2026-05-01T05:43:33.789Z</time></trkpt><trkpt lat="47.205358966666665" lon="11.397058666666664"><ele>768.6666666666667</ele><time>2026-05-01T05:43:34.772Z</time></trkpt><trkpt lat="47.20521003333334" lon="11.396947299999999"><ele>784.3333333333334</ele><time>2026-05-01T05:43:35.806Z</time></trkpt><trkpt lat="47.20506555" lon="11.396856"><ele>800.0</ele><time>2026-05-01T05:43:36.786Z</time></trkpt><trkpt lat="47.20491618333333" lon="11.396817166666665"><ele>797.3333333333334</ele><time>2026-05-01T05:43:37.795Z</time></trkpt><trkpt lat="47.20476513333333" lon="11.396845166666667"><ele>794.6666666666667</ele><time>2026-05-01T05:43:38.786Z</time></trkpt><trkpt lat="47.204607900000006" lon="11.396912550000001"><ele>792.0</ele><time>2026-05-01T05:43:39.778Z</time></trkpt><trkpt lat="47.20443791666666" lon="11.396972533333333"><ele>792.0</ele><time>2026-05-01T05:43:40.783Z</time></trkpt><trkpt lat="47.204259766666674" lon="11.3969944"><ele>792.0</ele><time>2026-05-01T05:43:41.775Z</time></trkpt><trkpt lat="47.20407706666666" lon="11.396989150000003"><ele>792.0</ele><time>2026-05-01T05:43:42.798Z</time></trkpt><trkpt lat="47.203894149999996" lon="11.396969116666666"><ele>791.6666666666667</ele><time>2026-05-01T05:43:43.786Z</time></trkpt><trkpt lat="47.2037228" lon="11.3969217"><ele>791.3333333333334</ele><time>2026-05-01T05:43:44.78Z</time></trkpt><trkpt lat="47.20357816666666" lon="11.396834283333332"><ele>791.0</ele><time>2026-05-01T05:43:45.789Z</time></trkpt><trkpt lat="47.20344873333334" lon="11.396753200000001"><ele>791.0</ele><time>2026-05-01T05:43:46.773Z</time></trkpt><trkpt lat="47.20330581666667" lon="11.396723783333334"><ele>791.0</ele><time>2026-05-01T05:43:47.781Z</time></trkpt><trkpt lat="47.2031439" lon="11.396741283333332"><ele>791.0</ele><time>2026-05-01T05:43:48.786Z</time></trkpt><trkpt lat="47.2029682" lon="11.39679255"><ele>794.0</ele><time>2026-05-01T05:43:49.794Z</time></trkpt><trkpt lat="47.20277998333333" lon="11.3968631"><ele>797.0</ele><time>2026-05-01T05:43:50.775Z</time></trkpt><trkpt lat="47.20258576666667" lon="11.396937116666669"><ele>800.0</ele><time>2026-05-01T05:43:51.787Z</time></trkpt><trkpt lat="47.20240291666667" lon="11.39700883333333"><ele>806.3333333333334</ele><time>2026-05-01T05:43:52.785Z</time></trkpt><trkpt lat="47.20223148333333" lon="11.397060716666665"><ele>812.6666666666667</ele><time>2026-05-01T05:43:53.785Z</time></trkpt><trkpt lat="47.20206840000001" lon="11.397075400000002"><ele>819.0</ele><time>2026-05-01T05:43:54.791Z</time></trkpt><trkpt lat="47.20191455000001" lon="11.397075400000002"><ele>819.0</ele><time>2026-05-01T05:43:55.793Z</time></trkpt><trkpt lat="47.20176947544225" lon="11.397065222157055"><ele>819.0</ele><time>2026-05-01T05:43:56.773Z</time></trkpt><trkpt lat="47.2016482" lon="11.397148333333332"><ele>819.0</ele><time>2026-05-01T05:43:57.791Z</time></trkpt><trkpt lat="47.20153516666666" lon="11.3972611"><ele>819.0</ele><time>2026-05-01T05:43:58.786Z</time></trkpt><trkpt lat="47.20142968333333" lon="11.39740955"><ele>822.75</ele><time>2026-05-01T05:43:59.775Z</time></trkpt><trkpt lat="47.20133451666667" lon="11.397573316666668"><ele>826.5</ele><time>2026-05-01T05:44:00.784Z</time></trkpt><trkpt lat="47.20124296666666" lon="11.397713933333334"><ele>830.25</ele><time>2026-05-01T05:44:01.791Z</time></trkpt><trkpt lat="47.201133383333335" lon="11.397823483333333"><ele>834.0</ele><time>2026-05-01T05:44:02.783Z</time></trkpt><trkpt lat="47.20101148333333" lon="11.3979351"><ele>826.0</ele><time>2026-05-01T05:44:03.791Z</time></trkpt><trkpt lat="47.20091005" lon="11.39809005"><ele>818.0</ele><time>2026-05-01T05:44:04.794Z</time></trkpt><trkpt lat="47.2008401" lon="11.398283583333333"><ele>810.0</ele><time>2026-05-01T05:44:05.775Z</time></trkpt><trkpt lat="47.2007997" lon="11.398508699999999"><ele>810.0</ele><time>2026-05-01T05:44:06.792Z</time></trkpt><trkpt lat="47.20076556666666" lon="11.398752216666665"><ele>810.0</ele><time>2026-05-01T05:44:07.826Z</time></trkpt><trkpt lat="47.20070966666667" lon="11.398989583333332"><ele>810.0</ele><time>2026-05-01T05:44:08.783Z</time></trkpt><trkpt lat="47.20064653333334" lon="11.399227333333332"><ele>823.6666666666667</ele><time>2026-05-01T05:44:09.776Z</time></trkpt><trkpt lat="47.20061175000001" lon="11.399474249999999"><ele>837.3333333333334</ele><time>2026-05-01T05:44:10.793Z</time></trkpt><trkpt lat="47.200608483333326" lon="11.3997218"><ele>851.0</ele><time>2026-05-01T05:44:11.784Z</time></trkpt><trkpt lat="47.20060283333334" lon="11.399965933333332"><ele>853.6666666666667</ele><time>2026-05-01T05:44:12.792Z</time></trkpt><trkpt lat="47.2005794" lon="11.400200883333332"><ele>856.3333333333333</ele><time>2026-05-01T05:44:13.796Z</time></trkpt><trkpt lat="47.20057383333333" lon="11.400421833333333"><ele>859.0</ele><time>2026-05-01T05:44:14.798Z</time></trkpt><trkpt lat="47.20060276666667" lon="11.400633599999999"><ele>861.0</ele><time>2026-05-01T05:44:15.79Z</time></trkpt><trkpt lat="47.20064015" lon="11.400829516666667"><ele>863.0</ele><time>2026-05-01T05:44:16.785Z</time></trkpt><trkpt lat="47.20064405" lon="11.401019316666668"><ele>865.0</ele><time>2026-05-01T05:44:17.775Z</time></trkpt><trkpt lat="47.20057436799056" lon="11.4012009905198"><ele>867.0</ele><time>2026-05-01T05:44:18.785Z</time></trkpt><trkpt lat="47.20050846666667" lon="11.401423483333334"><ele>854.3333333333333</ele><time>2026-05-01T05:44:19.791Z</time></trkpt><trkpt lat="47.20042026666666" lon="11.40164245"><ele>841.6666666666666</ele><time>2026-05-01T05:44:20.783Z</time></trkpt><trkpt lat="47.20033203333334" lon="11.401857033333332"><ele>829.0</ele><time>2026-05-01T05:44:21.785Z</time></trkpt><trkpt lat="47.20023668333334" lon="11.402023866666665"><ele>829.0</ele><time>2026-05-01T05:44:22.794Z</time></trkpt><trkpt lat="47.20012001666667" lon="11.402132466666668"><ele>829.0</ele><time>2026-05-01T05:44:23.773Z</time></trkpt><trkpt lat="47.19998043333333" lon="11.402197366666666"><ele>829.0</ele><time>2026-05-01T05:44:24.783Z</time></trkpt><trkpt lat="47.1998205" lon="11.402243916666665"><ele>829.0</ele><time>2026-05-01T05:44:25.786Z</time></trkpt><trkpt lat="47.19965135000001" lon="11.402294516666666"><ele>823.6666666666666</ele><time>2026-05-01T05:44:26.775Z</time></trkpt><trkpt lat="47.19947218333334" lon="11.402352466666665"><ele>818.3333333333333</ele><time>2026-05-01T05:44:27.785Z</time></trkpt><trkpt lat="47.19928108333333" lon="11.40241273333333"><ele>813.0</ele><time>2026-05-01T05:44:28.78Z</time></trkpt><trkpt lat="47.1990813" lon="11.402473633333333"><ele>815.3333333333333</ele><time>2026-05-01T05:44:29.785Z</time></trkpt><trkpt lat="47.19887704999999" lon="11.402537983333332"><ele>817.6666666666666</ele><time>2026-05-01T05:44:30.784Z</time></trkpt><trkpt lat="47.19867768333334" lon="11.402601616666669"><ele>820.0</ele><time>2026-05-01T05:44:31.794Z</time></trkpt><trkpt lat="47.19850071666667" lon="11.402663016666667"><ele>820.0</ele><time>2026-05-01T05:44:32.775Z</time></trkpt><trkpt lat="47.19834420000001" lon="11.402708316666667"><ele>820.0</ele><time>2026-05-01T05:44:33.784Z</time></trkpt><trkpt lat="47.198208449999996" lon="11.402733383333334"><ele>820.0</ele><time>2026-05-01T05:44:34.773Z</time></trkpt><trkpt lat="47.19808606666667" lon="11.402724450000001"><ele>820.0</ele><time>2026-05-01T05:44:35.775Z</time></trkpt><trkpt lat="47.19796811666667" lon="11.402643733333333"><ele>818.25</ele><time>2026-05-01T05:44:36.785Z</time></trkpt><trkpt lat="47.19785386666668" lon="11.402518433333334"><ele>816.5</ele><time>2026-05-01T05:44:37.784Z</time></trkpt><trkpt lat="47.1977432" lon="11.402392283333333"><ele>814.75</ele><time>2026-05-01T05:44:38.773Z</time></trkpt><trkpt lat="47.19764403333334" lon="11.4022635"><ele>813.0</ele><time>2026-05-01T05:44:39.795Z</time></trkpt><trkpt lat="47.1975813" lon="11.402108683333331"><ele>813.0</ele><time>2026-05-01T05:44:40.786Z</time></trkpt><trkpt lat="47.197595522212644" lon="11.401927838992055"><ele>813.0</ele><time>2026-05-01T05:44:41.784Z</time></trkpt><trkpt lat="47.19764894960222" lon="11.401742418534964"><ele>813.0</ele><time>2026-05-01T05:44:42.792Z</time></trkpt><trkpt lat="47.19770698430725" lon="11.401546419721791"><ele>813.0</ele><time>2026-05-01T05:44:43.774Z</time></trkpt><trkpt lat="47.19775557230517" lon="11.401374094959463"><ele>818.5</ele><time>2026-05-01T05:44:44.777Z</time></trkpt><trkpt lat="47.19776963837474" lon="11.401187550000001"><ele>824.0</ele><time>2026-05-01T05:44:45.784Z</time></trkpt><trkpt lat="47.19771025" lon="11.401023883333334"><ele>829.5</ele><time>2026-05-01T05:44:46.824Z</time></trkpt><trkpt lat="47.19762791666667" lon="11.400896599999998"><ele>835.0</ele><time>2026-05-01T05:44:47.775Z</time></trkpt><trkpt lat="47.19751008333333" lon="11.400830066666666"><ele>835.0</ele><time>2026-05-01T05:44:48.796Z</time></trkpt><trkpt lat="47.19736991666667" lon="11.400816550000002"><ele>835.0</ele><time>2026-05-01T05:44:49.786Z</time></trkpt><trkpt lat="47.19722005" lon="11.400820616666666"><ele>835.0</ele><time>2026-05-01T05:44:50.775Z</time></trkpt><trkpt lat="47.19706916666667" lon="11.400800783333333"><ele>835.0</ele><time>2026-05-01T05:44:51.788Z</time></trkpt><trkpt lat="47.19692768333333" lon="11.40074245"><ele>835.75</ele><time>2026-05-01T05:44:52.774Z</time></trkpt><trkpt lat="47.1967928" lon="11.400699033333334"><ele>836.5</ele><time>2026-05-01T05:44:53.788Z</time></trkpt><trkpt lat="47.196665233333334" lon="11.400728233333332"><ele>837.25</ele><time>2026-05-01T05:44:54.784Z</time></trkpt><trkpt lat="47.196563983333334" lon="11.4008378"><ele>838.0</ele><time>2026-05-01T05:44:55.794Z</time></trkpt><trkpt lat="47.196496133333326" lon="11.401007283333335"><ele>836.0</ele><time>2026-05-01T05:44:56.786Z</time></trkpt><trkpt lat="47.19644851666666" lon="11.401201333333331"><ele>834.0</ele><time>2026-05-01T05:44:57.792Z</time></trkpt><trkpt lat="47.19638406666667" lon="11.40137105"><ele>832.0</ele><time>2026-05-01T05:44:58.783Z</time></trkpt><trkpt lat="47.196285116666665" lon="11.401498966666667"><ele>830.0</ele><time>2026-05-01T05:44:59.775Z</time></trkpt><trkpt lat="47.19615211666666" lon="11.40157395"><ele>830.0</ele><time>2026-05-01T05:45:00.784Z</time></trkpt><trkpt lat="47.195995666666676" lon="11.401601716666669"><ele>830.0</ele><time>2026-05-01T05:45:01.786Z</time></trkpt><trkpt lat="47.19582811666667" lon="11.40160588333333"><ele>830.0</ele><time>2026-05-01T05:45:02.786Z</time></trkpt><trkpt lat="47.19565735" lon="11.401573166666665"><ele>829.6666666666667</ele><time>2026-05-01T05:45:03.785Z</time></trkpt><trkpt lat="47.19547640000001" lon="11.401514366666666"><ele>829.3333333333333</ele><time>2026-05-01T05:45:04.785Z</time></trkpt><trkpt lat="47.195289599999995" lon="11.401454283333333"><ele>829.0</ele><time>2026-05-01T05:45:05.775Z</time></trkpt><trkpt lat="47.19510675" lon="11.401395300000003"><ele>835.3333333333333</ele><time>2026-05-01T05:45:06.783Z</time></trkpt><trkpt lat="47.19493083333333" lon="11.401325883333334"><ele>841.6666666666667</ele><time>2026-05-01T05:45:07.782Z</time></trkpt><trkpt lat="47.19476173333334" lon="11.401234616666667"><ele>848.0</ele><time>2026-05-01T05:45:08.775Z</time></trkpt><trkpt lat="47.19460028333333" lon="11.401116766666668"><ele>848.0</ele><time>2026-05-01T05:45:09.784Z</time></trkpt><trkpt lat="47.19444494999999" lon="11.400989000000001"><ele>848.0</ele><time>2026-05-01T05:45:10.793Z</time></trkpt><trkpt lat="47.19429663333334" lon="11.400868733333335"><ele>848.0</ele><time>2026-05-01T05:45:11.775Z</time></trkpt><trkpt lat="47.19415923333332" lon="11.400764333333333"><ele>848.0</ele><time>2026-05-01T05:45:12.785Z</time></trkpt><trkpt lat="47.194020050000006" lon="11.400692583333333"><ele>848.0</ele><time>2026-05-01T05:45:13.784Z</time></trkpt><trkpt lat="47.19387266666666" lon="11.400665399999998"><ele>848.0</ele><time>2026-05-01T05:45:14.786Z</time></trkpt><trkpt lat="47.193723500000004" lon="11.400697816666664"><ele>848.0</ele><time>2026-05-01T05:45:15.78Z</time></trkpt><trkpt lat="47.19357998333333" lon="11.400798116666666"><ele>853.0</ele><time>2026-05-01T05:45:16.794Z</time></trkpt><trkpt lat="47.19345738333333" lon="11.400953150000003"><ele>858.0</ele><time>2026-05-01T05:45:17.775Z</time></trkpt><trkpt lat="47.19335826666667" lon="11.401133233333333"><ele>863.0</ele><time>2026-05-01T05:45:18.798Z</time></trkpt><trkpt lat="47.19328746666667" lon="11.401317966666666"><ele>860.5</ele><time>2026-05-01T05:45:19.786Z</time></trkpt><trkpt lat="47.19325561666666" lon="11.401510483333334"><ele>858.0</ele><time>2026-05-01T05:45:20.78Z</time></trkpt><trkpt lat="47.193268450000005" lon="11.401713966666666"><ele>855.5</ele><time>2026-05-01T05:45:21.785Z</time></trkpt><trkpt lat="47.19332196666666" lon="11.401915716666666"><ele>853.0</ele><time>2026-05-01T05:45:22.786Z</time></trkpt><trkpt lat="47.19341528333333" lon="11.402097716666667"><ele>857.3333333333333</ele><time>2026-05-01T05:45:23.787Z</time></trkpt><trkpt lat="47.193555100000005" lon="11.402265683333333"><ele>861.6666666666667</ele><time>2026-05-01T05:45:24.787Z</time></trkpt><trkpt lat="47.193712000000005" lon="11.40244255"><ele>866.0</ele><time>2026-05-01T05:45:25.782Z</time></trkpt><trkpt lat="47.19387451666667" lon="11.402632933333333"><ele>868.6666666666667</ele><time>2026-05-01T05:45:26.775Z</time></trkpt><trkpt lat="47.19403291666666" lon="11.402816066666665"><ele>871.3333333333333</ele><time>2026-05-01T05:45:27.774Z</time></trkpt><trkpt lat="47.194179266666666" lon="11.402982699999999"><ele>874.0</ele><time>2026-05-01T05:45:28.781Z</time></trkpt><trkpt lat="47.19430990000001" lon="11.403128166666665"><ele>874.0</ele><time>2026-05-01T05:45:29.785Z</time></trkpt><trkpt lat="47.19443173333334" lon="11.403260066666666"><ele>874.0</ele><time>2026-05-01T05:45:30.784Z</time></trkpt><trkpt lat="47.19454466666666" lon="11.4033875"><ele>874.0</ele><time>2026-05-01T05:45:31.784Z</time></trkpt><trkpt lat="47.19462789999999" lon="11.40353145"><ele>874.0</ele><time>2026-05-01T05:45:32.775Z</time></trkpt><trkpt lat="47.19468973763593" lon="11.403685297588657"><ele>875.25</ele><time>2026-05-01T05:45:33.783Z</time></trkpt><trkpt lat="47.19466803333333" lon="11.40385086666667"><ele>876.5</ele><time>2026-05-01T05:45:34.781Z</time></trkpt><trkpt lat="47.194617533333336" lon="11.404008816666664"><ele>877.75</ele><time>2026-05-01T05:45:35.778Z</time></trkpt><trkpt lat="47.1945356" lon="11.40416775"><ele>879.0</ele><time>2026-05-01T05:45:36.772Z</time></trkpt><trkpt lat="47.19444136666666" lon="11.404342000000002"><ele>879.0</ele><time>2026-05-01T05:45:37.786Z</time></trkpt><trkpt lat="47.1943368" lon="11.404518499999998"><ele>879.0</ele><time>2026-05-01T05:45:38.775Z</time></trkpt><trkpt lat="47.19421893333333" lon="11.404667266666669"><ele>879.0</ele><time>2026-05-01T05:45:39.784Z</time></trkpt><trkpt lat="47.19407758333334" lon="11.404771066666667"><ele>884.6666666666667</ele><time>2026-05-01T05:45:40.794Z</time></trkpt><trkpt lat="47.19392456666666" lon="11.404842766666665"><ele>890.3333333333334</ele><time>2026-05-01T05:45:41.778Z</time></trkpt><trkpt lat="47.19378413333334" lon="11.4049302"><ele>896.0</ele><time>2026-05-01T05:45:42.785Z</time></trkpt><trkpt lat="47.193669799999995" lon="11.405068100000001"><ele>896.0</ele><time>2026-05-01T05:45:43.791Z</time></trkpt><trkpt lat="47.19358221666667" lon="11.405250816666667"><ele>896.0</ele><time>2026-05-01T05:45:44.775Z</time></trkpt><trkpt lat="47.19352776666667" lon="11.4054667"><ele>896.0</ele><time>2026-05-01T05:45:45.795Z</time></trkpt><trkpt lat="47.19349636666667" lon="11.40570403333333"><ele>892.75</ele><time>2026-05-01T05:45:46.791Z</time></trkpt><trkpt lat="47.193475400000004" lon="11.405936616666667"><ele>889.5</ele><time>2026-05-01T05:45:47.787Z</time></trkpt><trkpt lat="47.19345778333333" lon="11.4061523"><ele>886.25</ele><time>2026-05-01T05:45:48.784Z</time></trkpt><trkpt lat="47.193428499999996" lon="11.406343683333333"><ele>883.0</ele><time>2026-05-01T05:45:49.784Z</time></trkpt><trkpt lat="47.19336735" lon="11.406503583333333"><ele>878.5</ele><time>2026-05-01T05:45:50.778Z</time></trkpt><trkpt lat="47.19327163333334" lon="11.406628316666668"><ele>874.0</ele><time>2026-05-01T05:45:51.784Z</time></trkpt><trkpt lat="47.19314961666667" lon="11.406714733333336"><ele>869.5</ele><time>2026-05-01T05:45:52.786Z</time></trkpt><trkpt lat="47.193022283333335" lon="11.406801616666668"><ele>865.0</ele><time>2026-05-01T05:45:53.775Z</time></trkpt><trkpt lat="47.19290273333333" lon="11.406930183333333"><ele>869.6666666666666</ele><time>2026-05-01T05:45:54.776Z</time></trkpt><trkpt lat="47.19279403333333" lon="11.407107333333334"><ele>874.3333333333333</ele><time>2026-05-01T05:45:55.784Z</time></trkpt><trkpt lat="47.192701916666664" lon="11.407295766666667"><ele>879.0</ele><time>2026-05-01T05:45:56.784Z</time></trkpt><trkpt lat="47.19261776666667" lon="11.407463250000001"><ele>879.0</ele><time>2026-05-01T05:45:57.785Z</time></trkpt><trkpt lat="47.192523616666655" lon="11.407587216666665"><ele>879.0</ele><time>2026-05-01T05:45:58.776Z</time></trkpt><trkpt lat="47.19240036666667" lon="11.407646450000001"><ele>879.0</ele><time>2026-05-01T05:45:59.794Z</time></trkpt><trkpt lat="47.19225076666667" lon="11.407662966666665"><ele>879.0</ele><time>2026-05-01T05:46:00.785Z</time></trkpt><trkpt lat="47.19208345" lon="11.407673800000001"><ele>885.0</ele><time>2026-05-01T05:46:01.789Z</time></trkpt><trkpt lat="47.19191708333333" lon="11.407678016666667"><ele>891.0</ele><time>2026-05-01T05:46:02.773Z</time></trkpt><trkpt lat="47.19176145" lon="11.40768325"><ele>897.0</ele><time>2026-05-01T05:46:03.785Z</time></trkpt><trkpt lat="47.19162333333334" lon="11.407702383333332"><ele>901.5</ele><time>2026-05-01T05:46:04.782Z</time></trkpt><trkpt lat="47.19150195" lon="11.407757699999998"><ele>906.0</ele><time>2026-05-01T05:46:05.787Z</time></trkpt><trkpt lat="47.19139966666667" lon="11.407872633333334"><ele>910.5</ele><time>2026-05-01T05:46:06.783Z</time></trkpt><trkpt lat="47.19132993333333" lon="11.4080336"><ele>915.0</ele><time>2026-05-01T05:46:07.784Z</time></trkpt><trkpt lat="47.19129843333334" lon="11.408235933333332"><ele>915.0</ele><time>2026-05-01T05:46:08.783Z</time></trkpt><trkpt lat="47.191288150000005" lon="11.408460366666667"><ele>915.0</ele><time>2026-05-01T05:46:09.784Z</time></trkpt><trkpt lat="47.19128130000001" lon="11.408677933333335"><ele>915.0</ele><time>2026-05-01T05:46:10.775Z</time></trkpt><trkpt lat="47.19127230000001" lon="11.408873750000003"><ele>915.0</ele><time>2026-05-01T05:46:11.774Z</time></trkpt><trkpt lat="47.19124626666667" lon="11.409045716666666"><ele>909.75</ele><time>2026-05-01T05:46:12.792Z</time></trkpt><trkpt lat="47.191179533333326" lon="11.409195216666667"><ele>904.5</ele><time>2026-05-01T05:46:13.793Z</time></trkpt><trkpt lat="47.1910703" lon="11.409294783333333"><ele>899.25</ele><time>2026-05-01T05:46:14.773Z</time></trkpt><trkpt lat="47.1909306059305" lon="11.409311280727216"><ele>894.0</ele><time>2026-05-01T05:46:15.807Z</time></trkpt><trkpt lat="47.19077993333333" lon="11.40936035"><ele>898.0</ele><time>2026-05-01T05:46:16.781Z</time></trkpt><trkpt lat="47.190630516666666" lon="11.409381"><ele>902.0</ele><time>2026-05-01T05:46:17.786Z</time></trkpt><trkpt lat="47.19049686666667" lon="11.409402483333334"><ele>906.0</ele><time>2026-05-01T05:46:18.781Z</time></trkpt><trkpt lat="47.190383149999995" lon="11.40945181666667"><ele>910.0</ele><time>2026-05-01T05:46:19.774Z</time></trkpt><trkpt lat="47.1902932" lon="11.409553683333334"><ele>908.25</ele><time>2026-05-01T05:46:20.791Z</time></trkpt><trkpt lat="47.19023401666667" lon="11.4097072"><ele>906.5</ele><time>2026-05-01T05:46:21.793Z</time></trkpt><trkpt lat="47.1902225" lon="11.409896383333333"><ele>904.75</ele><time>2026-05-01T05:46:22.776Z</time></trkpt><trkpt lat="47.19025941666667" lon="11.410106499999998"><ele>903.0</ele><time>2026-05-01T05:46:23.775Z</time></trkpt><trkpt lat="47.19032099999999" lon="11.410330099999998"><ele>904.5</ele><time>2026-05-01T05:46:24.773Z</time></trkpt><trkpt lat="47.19037172880038" lon="11.410561237380652"><ele>906.0</ele><time>2026-05-01T05:46:25.769Z</time></trkpt><trkpt lat="47.190428055520464" lon="11.410770666341925"><ele>907.5</ele><time>2026-05-01T05:46:26.788Z</time></trkpt><trkpt lat="47.190465416011" lon="11.410954413028906"><ele>909.0</ele><time>2026-05-01T05:46:27.776Z</time></trkpt><trkpt lat="47.190455314537054" lon="11.411113462726837"><ele>909.0</ele><time>2026-05-01T05:46:28.781Z</time></trkpt><trkpt lat="47.19040313020312" lon="11.41124947093294"><ele>909.0</ele><time>2026-05-01T05:46:29.785Z</time></trkpt><trkpt lat="47.19031255902969" lon="11.411343824523584"><ele>909.0</ele><time>2026-05-01T05:46:30.792Z</time></trkpt><trkpt lat="47.19018047886699" lon="11.41140206647078"><ele>909.0</ele><time>2026-05-01T05:46:31.77Z</time></trkpt><trkpt lat="47.190027904115944" lon="11.41146254046385"><ele>911.3333333333333</ele><time>2026-05-01T05:46:32.778Z</time></trkpt><trkpt lat="47.18986884502285" lon="11.411523958725555"><ele>913.6666666666666</ele><time>2026-05-01T05:46:33.797Z</time></trkpt><trkpt lat="47.18970497763713" lon="11.411588746321415"><ele>916.0</ele><time>2026-05-01T05:46:34.791Z</time></trkpt><trkpt lat="47.18955506904218" lon="11.411646247895558"><ele>916.0</ele><time>2026-05-01T05:46:35.786Z</time></trkpt><trkpt lat="47.18941927653457" lon="11.411697806765755"><ele>916.0</ele><time>2026-05-01T05:46:36.784Z</time></trkpt><trkpt lat="47.189295797132495" lon="11.411754716385508"><ele>916.0</ele><time>2026-05-01T05:46:37.772Z</time></trkpt><trkpt lat="47.18917990350308" lon="11.411850491997441"><ele>916.0</ele><time>2026-05-01T05:46:38.779Z</time></trkpt><trkpt lat="47.1890941776994" lon="11.412022500394547"><ele>910.6666666666666</ele><time>2026-05-01T05:46:39.782Z</time></trkpt><trkpt lat="47.18906149792423" lon="11.412243556135206"><ele>905.3333333333333</ele><time>2026-05-01T05:46:40.796Z</time></trkpt><trkpt lat="47.189083" lon="11.412468766666665"><ele>900.0</ele><time>2026-05-01T05:46:41.775Z</time></trkpt><trkpt lat="47.18910266666666" lon="11.412688666666668"><ele>900.0</ele><time>2026-05-01T05:46:42.787Z</time></trkpt><trkpt lat="47.18914865000001" lon="11.412885649999998"><ele>900.0</ele><time>2026-05-01T05:46:43.786Z</time></trkpt><trkpt lat="47.18923540000001" lon="11.413047950000003"><ele>900.0</ele><time>2026-05-01T05:46:44.784Z</time></trkpt><trkpt lat="47.18935603333333" lon="11.4131846"><ele>900.0</ele><time>2026-05-01T05:46:45.791Z</time></trkpt><trkpt lat="47.1894897" lon="11.413316433333334"><ele>902.5</ele><time>2026-05-01T05:46:46.794Z</time></trkpt><trkpt lat="47.18962453333334" lon="11.413451383333332"><ele>905.0</ele><time>2026-05-01T05:46:47.806Z</time></trkpt><trkpt lat="47.189750450000005" lon="11.413576783333333"><ele>907.5</ele><time>2026-05-01T05:46:48.792Z</time></trkpt><trkpt lat="47.18986001666667" lon="11.413679149999998"><ele>910.0</ele><time>2026-05-01T05:46:49.773Z</time></trkpt><trkpt lat="47.18995446666666" lon="11.413781416666666"><ele>909.25</ele><time>2026-05-01T05:46:50.786Z</time></trkpt><trkpt lat="47.190028016666666" lon="11.413920883333333"><ele>908.5</ele><time>2026-05-01T05:46:51.783Z</time></trkpt><trkpt lat="47.19006783333333" lon="11.414086516666668"><ele>907.75</ele><time>2026-05-01T05:46:52.782Z</time></trkpt><trkpt lat="47.1900704" lon="11.414259799999998"><ele>907.0</ele><time>2026-05-01T05:46:53.772Z</time></trkpt><trkpt lat="47.19003636666667" lon="11.414427116666666"><ele>907.0</ele><time>2026-05-01T05:46:54.809Z</time></trkpt><trkpt lat="47.18998121666667" lon="11.414573800000003"><ele>907.0</ele><time>2026-05-01T05:46:55.786Z</time></trkpt><trkpt lat="47.18990838333334" lon="11.414693816666666"><ele>907.0</ele><time>2026-05-01T05:46:56.78Z</time></trkpt><trkpt lat="47.18981816666666" lon="11.414774783333334"><ele>907.0</ele><time>2026-05-01T05:46:57.792Z</time></trkpt><trkpt lat="47.18971461666667" lon="11.414831416666667"><ele>907.0</ele><time>2026-05-01T05:46:58.773Z</time></trkpt><trkpt lat="47.18959155957769" lon="11.41486920419609"><ele>916.3333333333333</ele><time>2026-05-01T05:46:59.788Z</time></trkpt><trkpt lat="47.18947074278151" lon="11.414995320135818"><ele>925.6666666666667</ele><time>2026-05-01T05:47:00.785Z</time></trkpt><trkpt lat="47.18935544224076" lon="11.415196527739148"><ele>935.0</ele><time>2026-05-01T05:47:01.782Z</time></trkpt><trkpt lat="47.18925406666667" lon="11.415421433333332"><ele>928.6666666666667</ele><time>2026-05-01T05:47:02.778Z</time></trkpt><trkpt lat="47.18917096666667" lon="11.4156283"><ele>922.3333333333333</ele><time>2026-05-01T05:47:03.787Z</time></trkpt><trkpt lat="47.18912505" lon="11.415837433333335"><ele>916.0</ele><time>2026-05-01T05:47:04.782Z</time></trkpt><trkpt lat="47.189083016666665" lon="11.416029949999999"><ele>916.25</ele><time>2026-05-01T05:47:05.789Z</time></trkpt><trkpt lat="47.18900806666667" lon="11.416180183333333"><ele>916.5</ele><time>2026-05-01T05:47:06.783Z</time></trkpt><trkpt lat="47.188902283333334" lon="11.416265083333334"><ele>916.75</ele><time>2026-05-01T05:47:07.795Z</time></trkpt><trkpt lat="47.18878173333332" lon="11.416269599999998"><ele>917.0</ele><time>2026-05-01T05:47:08.775Z</time></trkpt><trkpt lat="47.188660833333344" lon="11.416199849999998"><ele>917.0</ele><time>2026-05-01T05:47:09.79Z</time></trkpt><trkpt lat="47.18856085802878" lon="11.416043135978631"><ele>917.0</ele><time>2026-05-01T05:47:10.782Z</time></trkpt><trkpt lat="47.18845323605147" lon="11.415858413134787"><ele>917.0</ele><time>2026-05-01T05:47:11.782Z</time></trkpt><trkpt lat="47.188342073408826" lon="11.415665998295193"><ele>912.0</ele><time>2026-05-01T05:47:12.785Z</time></trkpt><trkpt lat="47.188241095302324" lon="11.415476038206922"><ele>907.0</ele><time>2026-05-01T05:47:13.794Z</time></trkpt><trkpt lat="47.188171615524645" lon="11.415278073483602"><ele>902.0</ele><time>2026-05-01T05:47:14.785Z</time></trkpt><trkpt lat="47.18812836666666" lon="11.41507395"><ele>902.0</ele><time>2026-05-01T05:47:15.792Z</time></trkpt><trkpt lat="47.18812175" lon="11.414854199999999"><ele>902.0</ele><time>2026-05-01T05:47:16.793Z</time></trkpt><trkpt lat="47.18810827081592" lon="11.41463007705546"><ele>902.0</ele><time>2026-05-01T05:47:17.787Z</time></trkpt><trkpt lat="47.1880328790561" lon="11.414444710417413"><ele>902.0</ele><time>2026-05-01T05:47:18.792Z</time></trkpt><trkpt lat="47.18792027564261" lon="11.41431988914296"><ele>907.0</ele><time>2026-05-01T05:47:19.787Z</time></trkpt><trkpt lat="47.1877838" lon="11.414263083333333"><ele>912.0</ele><time>2026-05-01T05:47:20.776Z</time></trkpt><trkpt lat="47.1876616" lon="11.4141962"><ele>917.0</ele><time>2026-05-01T05:47:21.784Z</time></trkpt><trkpt lat="47.187551633333335" lon="11.414104733333334"><ele>922.0</ele><time>2026-05-01T05:47:22.789Z</time></trkpt><trkpt lat="47.187455400000005" lon="11.413968066666667"><ele>923.75</ele><time>2026-05-01T05:47:23.774Z</time></trkpt><trkpt lat="47.187396633333336" lon="11.413787183333334"><ele>925.5</ele><time>2026-05-01T05:47:24.792Z</time></trkpt><trkpt lat="47.18738136666666" lon="11.413581733333334"><ele>927.25</ele><time>2026-05-01T05:47:25.794Z</time></trkpt><trkpt lat="47.18740280000001" lon="11.413382033333335"><ele>929.0</ele><time>2026-05-01T05:47:26.778Z</time></trkpt><trkpt lat="47.18745091666666" lon="11.413207083333335"><ele>929.0</ele><time>2026-05-01T05:47:27.785Z</time></trkpt><trkpt lat="47.187502783333336" lon="11.413041766666668"><ele>929.0</ele><time>2026-05-01T05:47:28.786Z</time></trkpt><trkpt lat="47.18752478333334" lon="11.412871133333331"><ele>929.0</ele><time>2026-05-01T05:47:29.775Z</time></trkpt><trkpt lat="47.187499849999995" lon="11.412703166666665"><ele>929.0</ele><time>2026-05-01T05:47:30.787Z</time></trkpt><trkpt lat="47.187430449999994" lon="11.412556116666668"><ele>926.0</ele><time>2026-05-01T05:47:31.784Z</time></trkpt><trkpt lat="47.18732598130818" lon="11.41242263558747"><ele>923.0</ele><time>2026-05-01T05:47:32.784Z</time></trkpt><trkpt lat="47.187176799999996" lon="11.412360533333334"><ele>920.0</ele><time>2026-05-01T05:47:33.792Z</time></trkpt><trkpt lat="47.187026650000014" lon="11.412283733333334"><ele>920.0</ele><time>2026-05-01T05:47:34.794Z</time></trkpt><trkpt lat="47.18689136666667" lon="11.412206016666667"><ele>920.0</ele><time>2026-05-01T05:47:35.774Z</time></trkpt><trkpt lat="47.186773983333325" lon="11.412102266666666"><ele>920.0</ele><time>2026-05-01T05:47:36.784Z</time></trkpt><trkpt lat="47.186685816666674" lon="11.411943883333333"><ele>920.0</ele><time>2026-05-01T05:47:37.789Z</time></trkpt><trkpt lat="47.186644234616416" lon="11.411723238594076"><ele>927.6666666666667</ele><time>2026-05-01T05:47:38.78Z</time></trkpt><trkpt lat="47.18657558333332" lon="11.411498716666665"><ele>935.3333333333333</ele><time>2026-05-01T05:47:39.792Z</time></trkpt><trkpt lat="47.1865347851048" lon="11.411279557308477"><ele>943.0</ele><time>2026-05-01T05:47:40.782Z</time></trkpt><trkpt lat="47.18645554287821" lon="11.411103909330961"><ele>946.5</ele><time>2026-05-01T05:47:41.784Z</time></trkpt><trkpt lat="47.186343356347145" lon="11.411000367678504"><ele>950.0</ele><time>2026-05-01T05:47:42.776Z</time></trkpt><trkpt lat="47.18621803333334" lon="11.41097875"><ele>953.5</ele><time>2026-05-01T05:47:43.794Z</time></trkpt><trkpt lat="47.186101300000004" lon="11.411005066666666"><ele>957.0</ele><time>2026-05-01T05:47:44.775Z</time></trkpt><trkpt lat="47.185980766666674" lon="11.411096416666666"><ele>957.0</ele><time>2026-05-01T05:47:45.784Z</time></trkpt><trkpt lat="47.18585676666667" lon="11.411221916666667"><ele>957.0</ele><time>2026-05-01T05:47:46.775Z</time></trkpt><trkpt lat="47.185744416666665" lon="11.411346066666665"><ele>957.0</ele><time>2026-05-01T05:47:47.775Z</time></trkpt><trkpt lat="47.185636699999996" lon="11.411447766666667"><ele>957.0</ele><time>2026-05-01T05:47:48.787Z</time></trkpt><trkpt lat="47.18551936666666" lon="11.411507133333336"><ele>954.75</ele><time>2026-05-01T05:47:49.786Z</time></trkpt><trkpt lat="47.18539125" lon="11.411516033333331"><ele>952.5</ele><time>2026-05-01T05:47:50.775Z</time></trkpt><trkpt lat="47.185276812202446" lon="11.411439224610694"><ele>950.25</ele><time>2026-05-01T05:47:51.795Z</time></trkpt><trkpt lat="47.185169825897994" lon="11.411325973501615"><ele>948.0</ele><time>2026-05-01T05:47:52.797Z</time></trkpt><trkpt lat="47.18507737263773" lon="11.411177766429212"><ele>948.0</ele><time>2026-05-01T05:47:53.775Z</time></trkpt><trkpt lat="47.184980592530835" lon="11.411016668190236"><ele>948.0</ele><time>2026-05-01T05:47:54.792Z</time></trkpt><trkpt lat="47.1848587071608" lon="11.410912854848021"><ele>948.0</ele><time>2026-05-01T05:47:55.796Z</time></trkpt><trkpt lat="47.18472420672112" lon="11.410901947507071"><ele>948.0</ele><time>2026-05-01T05:47:56.778Z</time></trkpt><trkpt lat="47.18459168587035" lon="11.41093978731962"><ele>949.0</ele><time>2026-05-01T05:47:57.785Z</time></trkpt><trkpt lat="47.18445353333333" lon="11.411023166666666"><ele>950.0</ele><time>2026-05-01T05:47:58.782Z</time></trkpt><trkpt lat="47.18429633333333" lon="11.4110908"><ele>951.0</ele><time>2026-05-01T05:47:59.777Z</time></trkpt><trkpt lat="47.18412611666666" lon="11.411161816666667"><ele>953.6666666666667</ele><time>2026-05-01T05:48:00.798Z</time></trkpt><trkpt lat="47.183946466666676" lon="11.411238399999998"><ele>956.3333333333334</ele><time>2026-05-01T05:48:01.782Z</time></trkpt><trkpt lat="47.18376491666666" lon="11.411332116666665"><ele>959.0</ele><time>2026-05-01T05:48:02.774Z</time></trkpt><trkpt lat="47.183584866666656" lon="11.411460883333332"><ele>959.0</ele><time>2026-05-01T05:48:03.784Z</time></trkpt><trkpt lat="47.183412133333334" lon="11.411632833333334"><ele>959.0</ele><time>2026-05-01T05:48:04.774Z</time></trkpt><trkpt lat="47.18324556666666" lon="11.41183285"><ele>959.0</ele><time>2026-05-01T05:48:05.773Z</time></trkpt><trkpt lat="47.18308335" lon="11.412041316666667"><ele>960.0</ele><time>2026-05-01T05:48:06.785Z</time></trkpt><trkpt lat="47.18292346666667" lon="11.412247766666667"><ele>961.0</ele><time>2026-05-01T05:48:07.793Z</time></trkpt><trkpt lat="47.18276648333333" lon="11.412450683333335"><ele>962.0</ele><time>2026-05-01T05:48:08.775Z</time></trkpt><trkpt lat="47.18261651666667" lon="11.412645733333333"><ele>962.0</ele><time>2026-05-01T05:48:09.792Z</time></trkpt><trkpt lat="47.18247613333333" lon="11.41282695"><ele>962.0</ele><time>2026-05-01T05:48:10.784Z</time></trkpt><trkpt lat="47.182336366666675" lon="11.413007166666667"><ele>962.0</ele><time>2026-05-01T05:48:11.775Z</time></trkpt><trkpt lat="47.18219998333334" lon="11.413178799999999"><ele>963.0</ele><time>2026-05-01T05:48:12.785Z</time></trkpt><trkpt lat="47.182067666666676" lon="11.413351516666667"><ele>964.0</ele><time>2026-05-01T05:48:13.787Z</time></trkpt><trkpt lat="47.18193625000001" lon="11.413524066666668"><ele>965.0</ele><time>2026-05-01T05:48:14.787Z</time></trkpt><trkpt lat="47.181813183333325" lon="11.413703216666667"><ele>960.6666666666667</ele><time>2026-05-01T05:48:15.784Z</time></trkpt><trkpt lat="47.181704749999994" lon="11.413903966666666"><ele>956.3333333333333</ele><time>2026-05-01T05:48:16.794Z</time></trkpt><trkpt lat="47.18161396666666" lon="11.414132116666666"><ele>952.0</ele><time>2026-05-01T05:48:17.775Z</time></trkpt><trkpt lat="47.1815385" lon="11.414383083333334"><ele>960.0</ele><time>2026-05-01T05:48:18.782Z</time></trkpt><trkpt lat="47.18147820000001" lon="11.414647366666667"><ele>968.0</ele><time>2026-05-01T05:48:19.781Z</time></trkpt><trkpt lat="47.18141843333333" lon="11.414913533333333"><ele>976.0</ele><time>2026-05-01T05:48:20.775Z</time></trkpt><trkpt lat="47.18135098333334" lon="11.415161116666665"><ele>976.0</ele><time>2026-05-01T05:48:21.784Z</time></trkpt><trkpt lat="47.18126325" lon="11.415383999999998"><ele>976.0</ele><time>2026-05-01T05:48:22.794Z</time></trkpt><trkpt lat="47.181146299999995" lon="11.4155836"><ele>976.0</ele><time>2026-05-01T05:48:23.807Z</time></trkpt><trkpt lat="47.18100706666667" lon="11.415756916666664"><ele>978.0</ele><time>2026-05-01T05:48:24.784Z</time></trkpt><trkpt lat="47.180849333333335" lon="11.415909816666664"><ele>980.0</ele><time>2026-05-01T05:48:25.784Z</time></trkpt><trkpt lat="47.18067873333332" lon="11.41605365"><ele>982.0</ele><time>2026-05-01T05:48:26.773Z</time></trkpt><trkpt lat="47.18050461666667" lon="11.416198583333335"><ele>977.3333333333333</ele><time>2026-05-01T05:48:27.781Z</time></trkpt><trkpt lat="47.18033118333333" lon="11.416351683333335"><ele>972.6666666666667</ele><time>2026-05-01T05:48:28.786Z</time></trkpt><trkpt lat="47.180165566666666" lon="11.416502683333333"><ele>968.0</ele><time>2026-05-01T05:48:29.775Z</time></trkpt><trkpt lat="47.18001441666667" lon="11.416643616666667"><ele>968.0</ele><time>2026-05-01T05:48:30.785Z</time></trkpt><trkpt lat="47.17987395000001" lon="11.41677866666667"><ele>968.0</ele><time>2026-05-01T05:48:31.788Z</time></trkpt><trkpt lat="47.179741866666674" lon="11.416904416666668"><ele>968.0</ele><time>2026-05-01T05:48:32.787Z</time></trkpt><trkpt lat="47.179612150000004" lon="11.41701895"><ele>966.3333333333334</ele><time>2026-05-01T05:48:33.784Z</time></trkpt><trkpt lat="47.179473433333335" lon="11.417123599999996"><ele>964.6666666666667</ele><time>2026-05-01T05:48:34.791Z</time></trkpt><trkpt lat="47.17932081666666" lon="11.417220333333335"><ele>963.0</ele><time>2026-05-01T05:48:35.789Z</time></trkpt><trkpt lat="47.1791572" lon="11.417315350000003"><ele>966.6666666666667</ele><time>2026-05-01T05:48:36.789Z</time></trkpt><trkpt lat="47.17898556666667" lon="11.417421000000001"><ele>970.3333333333334</ele><time>2026-05-01T05:48:37.785Z</time></trkpt><trkpt lat="47.178809183333335" lon="11.417528433333333"><ele>974.0</ele><time>2026-05-01T05:48:38.773Z</time></trkpt><trkpt lat="47.17862996666666" lon="11.417636066666667"><ele>974.0</ele><time>2026-05-01T05:48:39.775Z</time></trkpt><trkpt lat="47.178449866666675" lon="11.41774725"><ele>974.0</ele><time>2026-05-01T05:48:40.782Z</time></trkpt><trkpt lat="47.17827323333333" lon="11.41786425"><ele>974.0</ele><time>2026-05-01T05:48:41.778Z</time></trkpt><trkpt lat="47.17809751666667" lon="11.417979466666669"><ele>974.3333333333334</ele><time>2026-05-01T05:48:42.785Z</time></trkpt><trkpt lat="47.17792015" lon="11.418091566666666"><ele>974.6666666666667</ele><time>2026-05-01T05:48:43.785Z</time></trkpt><trkpt lat="47.17774160000001" lon="11.418202699999998"><ele>975.0</ele><time>2026-05-01T05:48:44.778Z</time></trkpt><trkpt lat="47.17756030000001" lon="11.418315450000001"><ele>975.0</ele><time>2026-05-01T05:48:45.795Z</time></trkpt><trkpt lat="47.17737971666667" lon="11.418426466666665"><ele>975.0</ele><time>2026-05-01T05:48:46.782Z</time></trkpt><trkpt lat="47.177197899999996" lon="11.418532999999998"><ele>975.0</ele><time>2026-05-01T05:48:47.776Z</time></trkpt><trkpt lat="47.17701666666667" lon="11.418638300000003"><ele>970.6666666666667</ele><time>2026-05-01T05:48:48.773Z</time></trkpt><trkpt lat="47.176838849999996" lon="11.4187459"><ele>966.3333333333334</ele><time>2026-05-01T05:48:49.787Z</time></trkpt><trkpt lat="47.176662300000004" lon="11.418855233333332"><ele>962.0</ele><time>2026-05-01T05:48:50.792Z</time></trkpt><trkpt lat="47.17648675000001" lon="11.418967433333334"><ele>976.3333333333334</ele><time>2026-05-01T05:48:51.784Z</time></trkpt><trkpt lat="47.17632047728512" lon="11.419064391491176"><ele>990.6666666666667</ele><time>2026-05-01T05:48:52.786Z</time></trkpt><trkpt lat="47.17618808333334" lon="11.419232399999999"><ele>1005.0</ele><time>2026-05-01T05:48:53.787Z</time></trkpt><trkpt lat="47.17607135" lon="11.419425083333332"><ele>997.3333333333333</ele><time>2026-05-01T05:48:54.792Z</time></trkpt><trkpt lat="47.17597991666667" lon="11.419658699999998"><ele>989.6666666666666</ele><time>2026-05-01T05:48:55.784Z</time></trkpt><trkpt lat="47.175901733333326" lon="11.419919966666665"><ele>982.0</ele><time>2026-05-01T05:48:56.778Z</time></trkpt><trkpt lat="47.17582671666668" lon="11.420195116666665"><ele>982.0</ele><time>2026-05-01T05:48:57.777Z</time></trkpt><trkpt lat="47.17574603333335" lon="11.420471383333332"><ele>982.0</ele><time>2026-05-01T05:48:58.794Z</time></trkpt><trkpt lat="47.175666083333326" lon="11.420760616666666"><ele>982.0</ele><time>2026-05-01T05:48:59.788Z</time></trkpt><trkpt lat="47.175584516666675" lon="11.421060566666666"><ele>989.0</ele><time>2026-05-01T05:49:00.786Z</time></trkpt><trkpt lat="47.17549648333333" lon="11.421360233333333"><ele>996.0</ele><time>2026-05-01T05:49:01.782Z</time></trkpt><trkpt lat="47.17540985" lon="11.421655933333334"><ele>1003.0</ele><time>2026-05-01T05:49:02.815Z</time></trkpt><trkpt lat="47.175321399999994" lon="11.4219322"><ele>998.3333333333333</ele><time>2026-05-01T05:49:03.789Z</time></trkpt><trkpt lat="47.17522158333333" lon="11.422174399999998"><ele>993.6666666666667</ele><time>2026-05-01T05:49:04.787Z</time></trkpt><trkpt lat="47.1751264" lon="11.422412983333334"><ele>989.0</ele><time>2026-05-01T05:49:05.776Z</time></trkpt><trkpt lat="47.175053966666674" lon="11.422669616666667"><ele>989.0</ele><time>2026-05-01T05:49:06.785Z</time></trkpt><trkpt lat="47.17501049999999" lon="11.422944033333334"><ele>989.0</ele><time>2026-05-01T05:49:07.785Z</time></trkpt><trkpt lat="47.17499633333334" lon="11.423230166666668"><ele>989.0</ele><time>2026-05-01T05:49:08.784Z</time></trkpt><trkpt lat="47.174995183333344" lon="11.423523916666666"><ele>982.3333333333334</ele><time>2026-05-01T05:49:09.791Z</time></trkpt><trkpt lat="47.17498676666667" lon="11.4238188"><ele>975.6666666666667</ele><time>2026-05-01T05:49:10.791Z</time></trkpt><trkpt lat="47.17494775" lon="11.424104949999998"><ele>969.0</ele><time>2026-05-01T05:49:11.79Z</time></trkpt><trkpt lat="47.174874216666666" lon="11.424377699999999"><ele>972.6666666666667</ele><time>2026-05-01T05:49:12.787Z</time></trkpt><trkpt lat="47.17477355" lon="11.424629433333333"><ele>976.3333333333334</ele><time>2026-05-01T05:49:13.773Z</time></trkpt><trkpt lat="47.174652349999995" lon="11.42486113333333"><ele>980.0</ele><time>2026-05-01T05:49:14.776Z</time></trkpt><trkpt lat="47.17450775000001" lon="11.425065583333332"><ele>980.0</ele><time>2026-05-01T05:49:15.785Z</time></trkpt><trkpt lat="47.17434655" lon="11.425249683333334"><ele>980.0</ele><time>2026-05-01T05:49:16.785Z</time></trkpt><trkpt lat="47.174180166666666" lon="11.425424116666667"><ele>980.0</ele><time>2026-05-01T05:49:17.785Z</time></trkpt><trkpt lat="47.174011400000005" lon="11.425594550000001"><ele>981.0</ele><time>2026-05-01T05:49:18.785Z</time></trkpt><trkpt lat="47.173841366666664" lon="11.425768366666667"><ele>982.0</ele><time>2026-05-01T05:49:19.782Z</time></trkpt><trkpt lat="47.17367135" lon="11.425940466666669"><ele>983.0</ele><time>2026-05-01T05:49:20.787Z</time></trkpt><trkpt lat="47.173503616666665" lon="11.426113833333334"><ele>983.0</ele><time>2026-05-01T05:49:21.785Z</time></trkpt><trkpt lat="47.17333601666666" lon="11.426287583333332"><ele>983.0</ele><time>2026-05-01T05:49:22.776Z</time></trkpt><trkpt lat="47.17316571666667" lon="11.4264616"><ele>983.0</ele><time>2026-05-01T05:49:23.775Z</time></trkpt><trkpt lat="47.17299753333334" lon="11.426638800000001"><ele>986.6666666666667</ele><time>2026-05-01T05:49:24.785Z</time></trkpt><trkpt lat="47.172835649999996" lon="11.426827966666666"><ele>990.3333333333333</ele><time>2026-05-01T05:49:25.794Z</time></trkpt><trkpt lat="47.17268501666667" lon="11.427032933333331"><ele>994.0</ele><time>2026-05-01T05:49:26.776Z</time></trkpt><trkpt lat="47.17254535" lon="11.427251833333333"><ele>986.0</ele><time>2026-05-01T05:49:27.81Z</time></trkpt><trkpt lat="47.17241215" lon="11.4274802"><ele>978.0</ele><time>2026-05-01T05:49:28.784Z</time></trkpt><trkpt lat="47.1722743" lon="11.427705366666665"><ele>970.0</ele><time>2026-05-01T05:49:29.787Z</time></trkpt><trkpt lat="47.17212838333333" lon="11.4279184"><ele>977.3333333333333</ele><time>2026-05-01T05:49:30.791Z</time></trkpt><trkpt lat="47.17196985" lon="11.428112400000002"><ele>984.6666666666667</ele><time>2026-05-01T05:49:31.773Z</time></trkpt><trkpt lat="47.171802933333325" lon="11.428297316666665"><ele>992.0</ele><time>2026-05-01T05:49:32.776Z</time></trkpt><trkpt lat="47.17163828333334" lon="11.428481283333333"><ele>993.3333333333334</ele><time>2026-05-01T05:49:33.785Z</time></trkpt><trkpt lat="47.171476500000004" lon="11.428664233333333"><ele>994.6666666666667</ele><time>2026-05-01T05:49:34.781Z</time></trkpt><trkpt lat="47.171315400000005" lon="11.428845683333336"><ele>996.0</ele><time>2026-05-01T05:49:35.776Z</time></trkpt><trkpt lat="47.17115368333332" lon="11.429030083333336"><ele>996.0</ele><time>2026-05-01T05:49:36.773Z</time></trkpt><trkpt lat="47.170990233333335" lon="11.4292113"><ele>996.0</ele><time>2026-05-01T05:49:37.785Z</time></trkpt><trkpt lat="47.17082751666667" lon="11.429388716666665"><ele>996.0</ele><time>2026-05-01T05:49:38.776Z</time></trkpt><trkpt lat="47.170665316666664" lon="11.429568466666668"><ele>997.3333333333333</ele><time>2026-05-01T05:49:39.787Z</time></trkpt><trkpt lat="47.17050498333333" lon="11.429752916666665"><ele>998.6666666666666</ele><time>2026-05-01T05:49:40.773Z</time></trkpt><trkpt lat="47.17033951666667" lon="11.429935883333334"><ele>1000.0</ele><time>2026-05-01T05:49:41.776Z</time></trkpt><trkpt lat="47.17017145" lon="11.4301197"><ele>1000.0</ele><time>2026-05-01T05:49:42.786Z</time></trkpt><trkpt lat="47.17000581666667" lon="11.430306883333332"><ele>1000.0</ele><time>2026-05-01T05:49:43.777Z</time></trkpt><trkpt lat="47.169839116666665" lon="11.430493316666665"><ele>1000.0</ele><time>2026-05-01T05:49:44.787Z</time></trkpt><trkpt lat="47.16967045" lon="11.430679933333332"><ele>999.3333333333333</ele><time>2026-05-01T05:49:45.776Z</time></trkpt><trkpt lat="47.16950426666668" lon="11.430865216666666"><ele>998.6666666666667</ele><time>2026-05-01T05:49:46.785Z</time></trkpt><trkpt lat="47.16933613333334" lon="11.431049266666665"><ele>998.0</ele><time>2026-05-01T05:49:47.788Z</time></trkpt><trkpt lat="47.169164316666674" lon="11.431232983333333"><ele>997.6666666666667</ele><time>2026-05-01T05:49:48.786Z</time></trkpt><trkpt lat="47.16899378333333" lon="11.431418699999998"><ele>997.3333333333333</ele><time>2026-05-01T05:49:49.787Z</time></trkpt><trkpt lat="47.16882385" lon="11.431605500000002"><ele>997.0</ele><time>2026-05-01T05:49:50.776Z</time></trkpt><trkpt lat="47.16865301666667" lon="11.431793533333334"><ele>997.0</ele><time>2026-05-01T05:49:51.784Z</time></trkpt><trkpt lat="47.168480233333334" lon="11.431984616666666"><ele>997.0</ele><time>2026-05-01T05:49:52.774Z</time></trkpt><trkpt lat="47.168308483333334" lon="11.432176799999997"><ele>997.0</ele><time>2026-05-01T05:49:53.776Z</time></trkpt><trkpt lat="47.16813838333334" lon="11.432368933333331"><ele>1000.0</ele><time>2026-05-01T05:49:54.782Z</time></trkpt><trkpt lat="47.16796825" lon="11.432565783333333"><ele>1003.0</ele><time>2026-05-01T05:49:55.784Z</time></trkpt><trkpt lat="47.167797199999995" lon="11.432758616666668"><ele>1006.0</ele><time>2026-05-01T05:49:56.785Z</time></trkpt><trkpt lat="47.1676268" lon="11.4329506"><ele>1006.0</ele><time>2026-05-01T05:49:57.786Z</time></trkpt><trkpt lat="47.16745478333334" lon="11.433145816666668"><ele>1006.0</ele><time>2026-05-01T05:49:58.795Z</time></trkpt><trkpt lat="47.16728078333333" lon="11.43333745"><ele>1006.0</ele><time>2026-05-01T05:49:59.777Z</time></trkpt><trkpt lat="47.167107349999995" lon="11.43352701666667"><ele>1006.0</ele><time>2026-05-01T05:50:00.785Z</time></trkpt><trkpt lat="47.16693601666666" lon="11.433723183333331"><ele>1006.0</ele><time>2026-05-01T05:50:01.772Z</time></trkpt><trkpt lat="47.166763149999994" lon="11.433921233333335"><ele>1006.0</ele><time>2026-05-01T05:50:02.788Z</time></trkpt><trkpt lat="47.166588983333334" lon="11.434114083333334"><ele>1007.6666666666666</ele><time>2026-05-01T05:50:03.781Z</time></trkpt><trkpt lat="47.16641285" lon="11.434305283333334"><ele>1009.3333333333333</ele><time>2026-05-01T05:50:04.785Z</time></trkpt><trkpt lat="47.166238883333335" lon="11.434497066666665"><ele>1011.0</ele><time>2026-05-01T05:50:05.786Z</time></trkpt><trkpt lat="47.16606775" lon="11.434692116666668"><ele>1011.3333333333333</ele><time>2026-05-01T05:50:06.784Z</time></trkpt><trkpt lat="47.165895333333346" lon="11.4348846"><ele>1011.6666666666666</ele><time>2026-05-01T05:50:07.789Z</time></trkpt><trkpt lat="47.165727383333326" lon="11.435073883333333"><ele>1012.0</ele><time>2026-05-01T05:50:08.781Z</time></trkpt><trkpt lat="47.16556631666667" lon="11.435254483333331"><ele>1012.0</ele><time>2026-05-01T05:50:09.786Z</time></trkpt><trkpt lat="47.16541565" lon="11.435421516666667"><ele>1012.0</ele><time>2026-05-01T05:50:10.785Z</time></trkpt><trkpt lat="47.165277333333336" lon="11.43557835"><ele>1012.0</ele><time>2026-05-01T05:50:11.776Z</time></trkpt><trkpt lat="47.1651473" lon="11.435725883333335"><ele>1008.5</ele><time>2026-05-01T05:50:12.788Z</time></trkpt><trkpt lat="47.165026016666665" lon="11.435859550000004"><ele>1005.0</ele><time>2026-05-01T05:50:13.782Z</time></trkpt><trkpt lat="47.16491241666666" lon="11.435982533333334"><ele>1001.5</ele><time>2026-05-01T05:50:14.785Z</time></trkpt><trkpt lat="47.16480768333332" lon="11.436097133333332"><ele>998.0</ele><time>2026-05-01T05:50:15.791Z</time></trkpt><trkpt lat="47.16471118333334" lon="11.436209083333333"><ele>993.25</ele><time>2026-05-01T05:50:16.785Z</time></trkpt><trkpt lat="47.16460891666667" lon="11.436322816666666"><ele>988.5</ele><time>2026-05-01T05:50:17.788Z</time></trkpt><trkpt lat="47.16450150000001" lon="11.436442666666668"><ele>983.75</ele><time>2026-05-01T05:50:18.773Z</time></trkpt><trkpt lat="47.164393450000006" lon="11.436565150000002"><ele>979.0</ele><time>2026-05-01T05:50:19.773Z</time></trkpt><trkpt lat="47.16428691666667" lon="11.436687666666668"><ele>979.0</ele><time>2026-05-01T05:50:20.776Z</time></trkpt><trkpt lat="47.16418638333333" lon="11.436807716666667"><ele>979.0</ele><time>2026-05-01T05:50:21.791Z</time></trkpt><trkpt lat="47.16409078333333" lon="11.43691635"><ele>979.0</ele><time>2026-05-01T05:50:22.786Z</time></trkpt><trkpt lat="47.163993266666665" lon="11.437009933333332"><ele>979.0</ele><time>2026-05-01T05:50:23.788Z</time></trkpt><trkpt lat="47.163892100000005" lon="11.437096000000002"><ele>976.5</ele><time>2026-05-01T05:50:24.789Z</time></trkpt><trkpt lat="47.16377923333333" lon="11.437152566666668"><ele>974.0</ele><time>2026-05-01T05:50:25.786Z</time></trkpt><trkpt lat="47.16365801666667" lon="11.437170316666666"><ele>971.5</ele><time>2026-05-01T05:50:26.785Z</time></trkpt><trkpt lat="47.16353686666667" lon="11.4371569"><ele>969.0</ele><time>2026-05-01T05:50:27.787Z</time></trkpt><trkpt lat="47.16341598333333" lon="11.437111116666665"><ele>974.5</ele><time>2026-05-01T05:50:28.771Z</time></trkpt><trkpt lat="47.16329103333334" lon="11.43705055"><ele>980.0</ele><time>2026-05-01T05:50:29.786Z</time></trkpt><trkpt lat="47.16316303333333" lon="11.436986666666668"><ele>985.5</ele><time>2026-05-01T05:50:30.795Z</time></trkpt><trkpt lat="47.16303218333334" lon="11.436921600000002"><ele>991.0</ele><time>2026-05-01T05:50:31.785Z</time></trkpt><trkpt lat="47.16290049999999" lon="11.436853966666668"><ele>991.0</ele><time>2026-05-01T05:50:32.788Z</time></trkpt><trkpt lat="47.16276668333334" lon="11.436786066666667"><ele>991.0</ele><time>2026-05-01T05:50:33.785Z</time></trkpt><trkpt lat="47.16263171666667" lon="11.436713733333333"><ele>991.0</ele><time>2026-05-01T05:50:34.787Z</time></trkpt><trkpt lat="47.16249644999999" lon="11.4366495"><ele>991.0</ele><time>2026-05-01T05:50:35.787Z</time></trkpt><trkpt lat="47.16235871666667" lon="11.436625866666668"><ele>998.5</ele><time>2026-05-01T05:50:36.785Z</time></trkpt><trkpt lat="47.16222056666667" lon="11.436668433333333"><ele>1006.0</ele><time>2026-05-01T05:50:37.776Z</time></trkpt><trkpt lat="47.16209115" lon="11.4367628"><ele>1013.5</ele><time>2026-05-01T05:50:38.8Z</time></trkpt><trkpt lat="47.16198131666667" lon="11.436902950000002"><ele>1021.0</ele><time>2026-05-01T05:50:39.787Z</time></trkpt><trkpt lat="47.16191328333333" lon="11.437090433333331"><ele>1014.6666666666666</ele><time>2026-05-01T05:50:40.786Z</time></trkpt><trkpt lat="47.16188456666667" lon="11.437307116666666"><ele>1008.3333333333333</ele><time>2026-05-01T05:50:41.776Z</time></trkpt><trkpt lat="47.1618721" lon="11.437536883333333"><ele>1002.0</ele><time>2026-05-01T05:50:42.787Z</time></trkpt><trkpt lat="47.16185696666667" lon="11.437765833333332"><ele>996.3333333333333</ele><time>2026-05-01T05:50:43.785Z</time></trkpt><trkpt lat="47.16184098333333" lon="11.437995783333333"><ele>990.6666666666666</ele><time>2026-05-01T05:50:44.785Z</time></trkpt><trkpt lat="47.16183446666667" lon="11.438230133333331"><ele>985.0</ele><time>2026-05-01T05:50:45.792Z</time></trkpt><trkpt lat="47.161819" lon="11.438462049999998"><ele>985.0</ele><time>2026-05-01T05:50:46.782Z</time></trkpt><trkpt lat="47.16178658333333" lon="11.4386931"><ele>985.0</ele><time>2026-05-01T05:50:47.775Z</time></trkpt><trkpt lat="47.161731100000004" lon="11.438914033333333"><ele>985.0</ele><time>2026-05-01T05:50:48.785Z</time></trkpt><trkpt lat="47.16165566666667" lon="11.439125633333333"><ele>985.6666666666666</ele><time>2026-05-01T05:50:49.773Z</time></trkpt><trkpt lat="47.16156106666667" lon="11.4393194"><ele>986.3333333333333</ele><time>2026-05-01T05:50:50.787Z</time></trkpt><trkpt lat="47.16144653333334" lon="11.43948795"><ele>987.0</ele><time>2026-05-01T05:50:51.785Z</time></trkpt><trkpt lat="47.161316666666664" lon="11.439634233333333"><ele>982.3333333333333</ele><time>2026-05-01T05:50:52.79Z</time></trkpt><trkpt lat="47.16117551666667" lon="11.439760650000002"><ele>977.6666666666666</ele><time>2026-05-01T05:50:53.787Z</time></trkpt><trkpt lat="47.161021566666676" lon="11.439869466666668"><ele>973.0</ele><time>2026-05-01T05:50:54.787Z</time></trkpt><trkpt lat="47.16085686666667" lon="11.439969716666667"><ele>978.0</ele><time>2026-05-01T05:50:55.788Z</time></trkpt><trkpt lat="47.160688" lon="11.440073216666667"><ele>983.0</ele><time>2026-05-01T05:50:56.773Z</time></trkpt><trkpt lat="47.16051585" lon="11.440184766666668"><ele>988.0</ele><time>2026-05-01T05:50:57.789Z</time></trkpt><trkpt lat="47.16033981666666" lon="11.440301316666668"><ele>988.0</ele><time>2026-05-01T05:50:58.774Z</time></trkpt><trkpt lat="47.16015878333332" lon="11.440419899999998"><ele>988.0</ele><time>2026-05-01T05:50:59.775Z</time></trkpt><trkpt lat="47.159976199999996" lon="11.4405397"><ele>988.0</ele><time>2026-05-01T05:51:00.786Z</time></trkpt><trkpt lat="47.15979219999999" lon="11.440658666666666"><ele>986.6666666666666</ele><time>2026-05-01T05:51:01.773Z</time></trkpt><trkpt lat="47.15960786666666" lon="11.440780383333333"><ele>985.3333333333333</ele><time>2026-05-01T05:51:02.776Z</time></trkpt><trkpt lat="47.159423516666656" lon="11.440905866666666"><ele>984.0</ele><time>2026-05-01T05:51:03.796Z</time></trkpt><trkpt lat="47.15923996666667" lon="11.441042916666667"><ele>984.0</ele><time>2026-05-01T05:51:04.783Z</time></trkpt><trkpt lat="47.15906311666666" lon="11.441200433333332"><ele>984.0</ele><time>2026-05-01T05:51:05.774Z</time></trkpt><trkpt lat="47.15889236666667" lon="11.441373733333334"><ele>984.0</ele><time>2026-05-01T05:51:06.773Z</time></trkpt><trkpt lat="47.15872421666666" lon="11.441548416666668"><ele>983.3333333333333</ele><time>2026-05-01T05:51:07.773Z</time></trkpt><trkpt lat="47.15855745000001" lon="11.441724716666666"><ele>982.6666666666666</ele><time>2026-05-01T05:51:08.789Z</time></trkpt><trkpt lat="47.158387516666664" lon="11.441898966666667"><ele>982.0</ele><time>2026-05-01T05:51:09.773Z</time></trkpt><trkpt lat="47.15821511666666" lon="11.4420745"><ele>984.6666666666666</ele><time>2026-05-01T05:51:10.785Z</time></trkpt><trkpt lat="47.158046" lon="11.442252150000002"><ele>987.3333333333333</ele><time>2026-05-01T05:51:11.774Z</time></trkpt><trkpt lat="47.157879933333334" lon="11.442436033333335"><ele>990.0</ele><time>2026-05-01T05:51:12.773Z</time></trkpt><trkpt lat="47.15771756666666" lon="11.44263455"><ele>990.0</ele><time>2026-05-01T05:51:13.795Z</time></trkpt><trkpt lat="47.157564199999996" lon="11.442847200000003"><ele>990.0</ele><time>2026-05-01T05:51:14.776Z</time></trkpt><trkpt lat="47.15742225000001" lon="11.443073883333334"><ele>990.0</ele><time>2026-05-01T05:51:15.786Z</time></trkpt><trkpt lat="47.15728246666666" lon="11.443303700000001"><ele>992.3333333333333</ele><time>2026-05-01T05:51:16.773Z</time></trkpt><trkpt lat="47.15713323333333" lon="11.443522383333333"><ele>994.6666666666666</ele><time>2026-05-01T05:51:17.774Z</time></trkpt><trkpt lat="47.156968883333334" lon="11.443715783333335"><ele>997.0</ele><time>2026-05-01T05:51:18.785Z</time></trkpt><trkpt lat="47.15679238333334" lon="11.443881583333331"><ele>996.6666666666666</ele><time>2026-05-01T05:51:19.803Z</time></trkpt><trkpt lat="47.15660625000001" lon="11.444032250000003"><ele>996.3333333333333</ele><time>2026-05-01T05:51:20.786Z</time></trkpt><trkpt lat="47.15641515000001" lon="11.4441778"><ele>996.0</ele><time>2026-05-01T05:51:21.792Z</time></trkpt><trkpt lat="47.15622069999999" lon="11.444323866666664"><ele>996.0</ele><time>2026-05-01T05:51:22.783Z</time></trkpt><trkpt lat="47.15602801666667" lon="11.444472216666668"><ele>996.0</ele><time>2026-05-01T05:51:23.776Z</time></trkpt><trkpt lat="47.15583191666666" lon="11.444619350000002"><ele>996.0</ele><time>2026-05-01T05:51:24.785Z</time></trkpt><trkpt lat="47.15563671666667" lon="11.444766916666667"><ele>993.0</ele><time>2026-05-01T05:51:25.787Z</time></trkpt><trkpt lat="47.15544883333333" lon="11.444910733333332"><ele>990.0</ele><time>2026-05-01T05:51:26.782Z</time></trkpt><trkpt lat="47.15527111666667" lon="11.445039633333332"><ele>987.0</ele><time>2026-05-01T05:51:27.795Z</time></trkpt><trkpt lat="47.15509325" lon="11.445147583333334"><ele>987.0</ele><time>2026-05-01T05:51:28.792Z</time></trkpt><trkpt lat="47.154908983333335" lon="11.445237083333332"><ele>987.0</ele><time>2026-05-01T05:51:29.776Z</time></trkpt><trkpt lat="47.154716333333326" lon="11.445300916666667"><ele>987.0</ele><time>2026-05-01T05:51:30.781Z</time></trkpt><trkpt lat="47.154519516666674" lon="11.445347133333334"><ele>988.6666666666667</ele><time>2026-05-01T05:51:31.795Z</time></trkpt><trkpt lat="47.154319866666675" lon="11.445396666666667"><ele>990.3333333333334</ele><time>2026-05-01T05:51:32.785Z</time></trkpt><trkpt lat="47.15411916666667" lon="11.445446083333332"><ele>992.0</ele><time>2026-05-01T05:51:33.785Z</time></trkpt><trkpt lat="47.153915483333336" lon="11.445492933333332"><ele>987.0</ele><time>2026-05-01T05:51:34.773Z</time></trkpt><trkpt lat="47.15370756666666" lon="11.445538700000002"><ele>982.0</ele><time>2026-05-01T05:51:35.808Z</time></trkpt><trkpt lat="47.15349635" lon="11.445585300000001"><ele>977.0</ele><time>2026-05-01T05:51:36.784Z</time></trkpt><trkpt lat="47.153285016666665" lon="11.445632616666668"><ele>980.3333333333334</ele><time>2026-05-01T05:51:37.787Z</time></trkpt><trkpt lat="47.153069366666664" lon="11.445678616666664"><ele>983.6666666666667</ele><time>2026-05-01T05:51:38.787Z</time></trkpt><trkpt lat="47.152849783333345" lon="11.4457223"><ele>987.0</ele><time>2026-05-01T05:51:39.795Z</time></trkpt><trkpt lat="47.152627283333345" lon="11.445765516666667"><ele>987.0</ele><time>2026-05-01T05:51:40.795Z</time></trkpt><trkpt lat="47.15240228333334" lon="11.4458062"><ele>987.0</ele><time>2026-05-01T05:51:41.782Z</time></trkpt><trkpt lat="47.152179333333336" lon="11.445853316666668"><ele>992.5</ele><time>2026-05-01T05:51:42.786Z</time></trkpt><trkpt lat="47.151959850000004" lon="11.445907233333331"><ele>998.0</ele><time>2026-05-01T05:51:43.79Z</time></trkpt><trkpt lat="47.151734966666666" lon="11.445961466666665"><ele>1004.5</ele><time>2026-05-01T05:51:44.781Z</time></trkpt><trkpt lat="47.15151076666666" lon="11.446014700000001"><ele>1011.0</ele><time>2026-05-01T05:51:45.786Z</time></trkpt><trkpt lat="47.15129103333334" lon="11.446073650000002"><ele>1011.0</ele><time>2026-05-01T05:51:46.785Z</time></trkpt><trkpt lat="47.151074183333336" lon="11.446135216666669"><ele>1011.0</ele><time>2026-05-01T05:51:47.785Z</time></trkpt><trkpt lat="47.15085746666667" lon="11.44620325"><ele>1011.0</ele><time>2026-05-01T05:51:48.788Z</time></trkpt><trkpt lat="47.15064566666666" lon="11.446301916666666"><ele>1006.6666666666667</ele><time>2026-05-01T05:51:49.785Z</time></trkpt><trkpt lat="47.15044393333332" lon="11.446434266666664"><ele>1002.3333333333334</ele><time>2026-05-01T05:51:50.774Z</time></trkpt><trkpt lat="47.150245" lon="11.446570633333332"><ele>998.0</ele><time>2026-05-01T05:51:51.777Z</time></trkpt><trkpt lat="47.15004771666666" lon="11.446684583333335"><ele>997.3333333333334</ele><time>2026-05-01T05:51:52.786Z</time></trkpt><trkpt lat="47.14986184999999" lon="11.446778833333333"><ele>996.6666666666667</ele><time>2026-05-01T05:51:53.81Z</time></trkpt><trkpt lat="47.14968435000001" lon="11.446850549999999"><ele>996.0</ele><time>2026-05-01T05:51:54.786Z</time></trkpt><trkpt lat="47.1495145" lon="11.446904483333332"><ele>996.0</ele><time>2026-05-01T05:51:55.787Z</time></trkpt><trkpt lat="47.14934431666667" lon="11.4469456"><ele>996.0</ele><time>2026-05-01T05:51:56.782Z</time></trkpt><trkpt lat="47.14917439117335" lon="11.446942246440212"><ele>996.0</ele><time>2026-05-01T05:51:57.792Z</time></trkpt><trkpt lat="47.1490057755979" lon="11.446953499369945"><ele>999.3333333333333</ele><time>2026-05-01T05:51:58.782Z</time></trkpt><trkpt lat="47.148831920061994" lon="11.44696688561392"><ele>1002.6666666666666</ele><time>2026-05-01T05:51:59.776Z</time></trkpt><trkpt lat="47.14865808963609" lon="11.446981116865208"><ele>1006.0</ele><time>2026-05-01T05:52:00.785Z</time></trkpt><trkpt lat="47.148484016666664" lon="11.4470085"><ele>1006.0</ele><time>2026-05-01T05:52:01.788Z</time></trkpt><trkpt lat="47.148307933333335" lon="11.4469949"><ele>1006.0</ele><time>2026-05-01T05:52:02.785Z</time></trkpt><trkpt lat="47.14813475" lon="11.446956866666667"><ele>1006.0</ele><time>2026-05-01T05:52:03.793Z</time></trkpt><trkpt lat="47.147962416666665" lon="11.446907300000003"><ele>1007.3333333333333</ele><time>2026-05-01T05:52:04.786Z</time></trkpt><trkpt lat="47.147784933333334" lon="11.446880483333333"><ele>1008.6666666666667</ele><time>2026-05-01T05:52:05.789Z</time></trkpt><trkpt lat="47.14760211666667" lon="11.446887166666667"><ele>1010.0</ele><time>2026-05-01T05:52:06.792Z</time></trkpt><trkpt lat="47.1474209" lon="11.446913066666665"><ele>1009.3333333333334</ele><time>2026-05-01T05:52:07.784Z</time></trkpt><trkpt lat="47.147236166666666" lon="11.446937266666664"><ele>1008.6666666666667</ele><time>2026-05-01T05:52:08.787Z</time></trkpt><trkpt lat="47.147051049999995" lon="11.446957783333334"><ele>1008.0</ele><time>2026-05-01T05:52:09.774Z</time></trkpt><trkpt lat="47.14686296666667" lon="11.446984016666665"><ele>1008.0</ele><time>2026-05-01T05:52:10.788Z</time></trkpt><trkpt lat="47.146670426865676" lon="11.44698433145385"><ele>1008.0</ele><time>2026-05-01T05:52:11.788Z</time></trkpt><trkpt lat="47.14647973244281" lon="11.44700415108348"><ele>1008.0</ele><time>2026-05-01T05:52:12.787Z</time></trkpt><trkpt lat="47.146286961390516" lon="11.447021371966839"><ele>1010.0</ele><time>2026-05-01T05:52:13.795Z</time></trkpt><trkpt lat="47.14609263842961" lon="11.447040276714468"><ele>1012.0</ele><time>2026-05-01T05:52:14.776Z</time></trkpt><trkpt lat="47.14589575755405" lon="11.447063029733593"><ele>1014.0</ele><time>2026-05-01T05:52:15.774Z</time></trkpt><trkpt lat="47.14569698078351" lon="11.447082527846696"><ele>1014.0</ele><time>2026-05-01T05:52:16.776Z</time></trkpt><trkpt lat="47.1454959" lon="11.447116633333334"><ele>1014.0</ele><time>2026-05-01T05:52:17.775Z</time></trkpt><trkpt lat="47.14529423333333" lon="11.447088033333333"><ele>1014.0</ele><time>2026-05-01T05:52:18.786Z</time></trkpt><trkpt lat="47.14509553333334" lon="11.447020816666667"><ele>1014.0</ele><time>2026-05-01T05:52:19.785Z</time></trkpt><trkpt lat="47.14490551666666" lon="11.446930550000001"><ele>1014.0</ele><time>2026-05-01T05:52:20.785Z</time></trkpt><trkpt lat="47.14472885000001" lon="11.446843666666666"><ele>1014.0</ele><time>2026-05-01T05:52:21.784Z</time></trkpt><trkpt lat="47.14456113333333" lon="11.446798633333332"><ele>1017.3333333333333</ele><time>2026-05-01T05:52:22.794Z</time></trkpt><trkpt lat="47.14439983333333" lon="11.446798683333336"><ele>1020.6666666666666</ele><time>2026-05-01T05:52:23.774Z</time></trkpt><trkpt lat="47.14423768333332" lon="11.446842699999998"><ele>1024.0</ele><time>2026-05-01T05:52:24.785Z</time></trkpt><trkpt lat="47.14407926666666" lon="11.44694173333333"><ele>1027.3333333333333</ele><time>2026-05-01T05:52:25.789Z</time></trkpt><trkpt lat="47.14392065" lon="11.44706228333333"><ele>1030.6666666666667</ele><time>2026-05-01T05:52:26.775Z</time></trkpt><trkpt lat="47.1437566" lon="11.447157983333334"><ele>1034.0</ele><time>2026-05-01T05:52:27.786Z</time></trkpt><trkpt lat="47.14358236666667" lon="11.447215133333335"><ele>1023.0</ele><time>2026-05-01T05:52:28.782Z</time></trkpt><trkpt lat="47.14340175000001" lon="11.447254483333333"><ele>1012.0</ele><time>2026-05-01T05:52:29.785Z</time></trkpt><trkpt lat="47.14321676666666" lon="11.447292666666666"><ele>1001.0</ele><time>2026-05-01T05:52:30.793Z</time></trkpt><trkpt lat="47.14303478333333" lon="11.447328116666666"><ele>1001.0</ele><time>2026-05-01T05:52:31.787Z</time></trkpt><trkpt lat="47.14286513333333" lon="11.447365100000003"><ele>1001.0</ele><time>2026-05-01T05:52:32.791Z</time></trkpt><trkpt lat="47.14271279999999" lon="11.447417583333333"><ele>1001.0</ele><time>2026-05-01T05:52:33.785Z</time></trkpt><trkpt lat="47.142572066666666" lon="11.4474916"><ele>1001.0</ele><time>2026-05-01T05:52:34.802Z</time></trkpt><trkpt lat="47.14244003333333" lon="11.447591399999999"><ele>1001.0</ele><time>2026-05-01T05:52:35.849Z</time></trkpt><trkpt lat="47.14231275000001" lon="11.447708983333333"><ele>1001.0</ele><time>2026-05-01T05:52:36.81Z</time></trkpt><trkpt lat="47.1421877" lon="11.447843516666667"><ele>1002.6666666666667</ele><time>2026-05-01T05:52:37.79Z</time></trkpt><trkpt lat="47.1420739" lon="11.447995816666666"><ele>1004.3333333333333</ele><time>2026-05-01T05:52:38.803Z</time></trkpt><trkpt lat="47.14197665" lon="11.448170233333334"><ele>1006.0</ele><time>2026-05-01T05:52:39.801Z</time></trkpt><trkpt lat="47.14189281666666" lon="11.448363433333334"><ele>1006.0</ele><time>2026-05-01T05:52:40.797Z</time></trkpt><trkpt lat="47.141823699999996" lon="11.448570233333331"><ele>1006.0</ele><time>2026-05-01T05:52:41.773Z</time></trkpt><trkpt lat="47.14177325" lon="11.448790716666666"><ele>1006.0</ele><time>2026-05-01T05:52:42.784Z</time></trkpt><trkpt lat="47.14173563333333" lon="11.449016716666666"><ele>1006.0</ele><time>2026-05-01T05:52:43.774Z</time></trkpt><trkpt lat="47.1417068" lon="11.449236983333334"><ele>1006.0</ele><time>2026-05-01T05:52:44.774Z</time></trkpt><trkpt lat="47.14166978333333" lon="11.449436299999997"><ele>1006.0</ele><time>2026-05-01T05:52:45.783Z</time></trkpt><trkpt lat="47.14160963333334" lon="11.449614350000003"><ele>1006.0</ele><time>2026-05-01T05:52:46.803Z</time></trkpt><trkpt lat="47.141520716666676" lon="11.449775499999998"><ele>1006.0</ele><time>2026-05-01T05:52:47.773Z</time></trkpt><trkpt lat="47.14140904999999" lon="11.449900099999997"><ele>1006.0</ele><time>2026-05-01T05:52:48.773Z</time></trkpt><trkpt lat="47.141274016666664" lon="11.449980466666666"><ele>1006.0</ele><time>2026-05-01T05:52:49.798Z</time></trkpt><trkpt lat="47.14112633333335" lon="11.45003256666667"><ele>1006.0</ele><time>2026-05-01T05:52:50.774Z</time></trkpt><trkpt lat="47.14097623333333" lon="11.450084433333332"><ele>1006.0</ele><time>2026-05-01T05:52:51.785Z</time></trkpt><trkpt lat="47.140820816666675" lon="11.450138533333332"><ele>1006.0</ele><time>2026-05-01T05:52:52.773Z</time></trkpt><trkpt lat="47.14065713333333" lon="11.450196433333335"><ele>1006.0</ele><time>2026-05-01T05:52:53.773Z</time></trkpt><trkpt lat="47.1404913" lon="11.450257299999999"><ele>1010.0</ele><time>2026-05-01T05:52:54.783Z</time></trkpt><trkpt lat="47.140331366666665" lon="11.450312016666665"><ele>1014.0</ele><time>2026-05-01T05:52:55.779Z</time></trkpt><trkpt lat="47.14017701666666" lon="11.450362183333333"><ele>1018.0</ele><time>2026-05-01T05:52:56.774Z</time></trkpt><trkpt lat="47.14002078333333" lon="11.450388833333333"><ele>1020.3333333333333</ele><time>2026-05-01T05:52:57.776Z</time></trkpt><trkpt lat="47.13986195000001" lon="11.450381916666668"><ele>1022.6666666666667</ele><time>2026-05-01T05:52:58.797Z</time></trkpt><trkpt lat="47.139705500000005" lon="11.45038515"><ele>1025.0</ele><time>2026-05-01T05:52:59.775Z</time></trkpt><trkpt lat="47.13955011666667" lon="11.450425266666665"><ele>1018.3333333333334</ele><time>2026-05-01T05:53:00.784Z</time></trkpt><trkpt lat="47.13940285" lon="11.450508100000002"><ele>1011.6666666666667</ele><time>2026-05-01T05:53:01.797Z</time></trkpt><trkpt lat="47.1392699" lon="11.450625433333334"><ele>1005.0</ele><time>2026-05-01T05:53:02.786Z</time></trkpt><trkpt lat="47.139152749999994" lon="11.450767366666666"><ele>1011.25</ele><time>2026-05-01T05:53:03.783Z</time></trkpt><trkpt lat="47.13904028333333" lon="11.45091175"><ele>1017.5</ele><time>2026-05-01T05:53:04.798Z</time></trkpt><trkpt lat="47.138932666666676" lon="11.451043683333333"><ele>1023.75</ele><time>2026-05-01T05:53:05.773Z</time></trkpt><trkpt lat="47.13883081666666" lon="11.451168966666668"><ele>1030.0</ele><time>2026-05-01T05:53:06.782Z</time></trkpt><trkpt lat="47.13873274999999" lon="11.451287733333334"><ele>1023.25</ele><time>2026-05-01T05:53:07.799Z</time></trkpt><trkpt lat="47.13863626666666" lon="11.451404233333335"><ele>1016.5</ele><time>2026-05-01T05:53:08.786Z</time></trkpt><trkpt lat="47.13853578333333" lon="11.451519266666665"><ele>1009.75</ele><time>2026-05-01T05:53:09.782Z</time></trkpt><trkpt lat="47.138431116666666" lon="11.451631283333333"><ele>1003.0</ele><time>2026-05-01T05:53:10.797Z</time></trkpt><trkpt lat="47.13831841666667" lon="11.451731716666666"><ele>1004.75</ele><time>2026-05-01T05:53:11.776Z</time></trkpt><trkpt lat="47.138202333333325" lon="11.451822216666669"><ele>1006.5</ele><time>2026-05-01T05:53:12.787Z</time></trkpt><trkpt lat="47.13808160000001" lon="11.451901833333332"><ele>1008.25</ele><time>2026-05-01T05:53:13.772Z</time></trkpt><trkpt lat="47.13795776666666" lon="11.451977333333332"><ele>1010.0</ele><time>2026-05-01T05:53:14.772Z</time></trkpt><trkpt lat="47.137833866666675" lon="11.452047283333332"><ele>1010.0</ele><time>2026-05-01T05:53:15.785Z</time></trkpt><trkpt lat="47.13770923333333" lon="11.452114233333335"><ele>1010.0</ele><time>2026-05-01T05:53:16.804Z</time></trkpt><trkpt lat="47.137585533333336" lon="11.452185049999999"><ele>1010.0</ele><time>2026-05-01T05:53:17.772Z</time></trkpt><trkpt lat="47.1374597" lon="11.452255933333333"><ele>1010.0</ele><time>2026-05-01T05:53:18.788Z</time></trkpt><trkpt lat="47.1373311" lon="11.45231955"><ele>1005.75</ele><time>2026-05-01T05:53:19.799Z</time></trkpt><trkpt lat="47.13720048333333" lon="11.452367516666667"><ele>1001.5</ele><time>2026-05-01T05:53:20.78Z</time></trkpt><trkpt lat="47.137059516666675" lon="11.452356916671842"><ele>997.25</ele><time>2026-05-01T05:53:21.783Z</time></trkpt><trkpt lat="47.13692189498757" lon="11.452331778618074"><ele>993.0</ele><time>2026-05-01T05:53:22.797Z</time></trkpt><trkpt lat="47.13678856112637" lon="11.452278528780129"><ele>993.0</ele><time>2026-05-01T05:53:23.774Z</time></trkpt><trkpt lat="47.1366521423511" lon="11.452216388082606"><ele>993.0</ele><time>2026-05-01T05:53:24.783Z</time></trkpt><trkpt lat="47.13651167213722" lon="11.452175682151735"><ele>993.0</ele><time>2026-05-01T05:53:25.799Z</time></trkpt><trkpt lat="47.13637046666666" lon="11.452180416666666"><ele>993.0</ele><time>2026-05-01T05:53:26.775Z</time></trkpt><trkpt lat="47.13622968333334" lon="11.452180333333335"><ele>993.5</ele><time>2026-05-01T05:53:27.794Z</time></trkpt><trkpt lat="47.13608958333333" lon="11.452205883333331"><ele>994.0</ele><time>2026-05-01T05:53:28.797Z</time></trkpt><trkpt lat="47.135952849999995" lon="11.452262333333332"><ele>994.5</ele><time>2026-05-01T05:53:29.773Z</time></trkpt><trkpt lat="47.13582221666667" lon="11.452339666666667"><ele>995.0</ele><time>2026-05-01T05:53:30.783Z</time></trkpt><trkpt lat="47.13569375" lon="11.452425366666667"><ele>995.0</ele><time>2026-05-01T05:53:31.774Z</time></trkpt><trkpt lat="47.13556113333334" lon="11.452497933333333"><ele>995.0</ele><time>2026-05-01T05:53:32.774Z</time></trkpt><trkpt lat="47.135419266666666" lon="11.45255005"><ele>995.0</ele><time>2026-05-01T05:53:33.783Z</time></trkpt><trkpt lat="47.13527006452984" lon="11.452552574219478"><ele>995.0</ele><time>2026-05-01T05:53:34.796Z</time></trkpt><trkpt lat="47.13512173734455" lon="11.452568935588987"><ele>995.0</ele><time>2026-05-01T05:53:35.782Z</time></trkpt><trkpt lat="47.1349753228272" lon="11.452581005601322"><ele>995.0</ele><time>2026-05-01T05:53:36.791Z</time></trkpt><trkpt lat="47.13483615155338" lon="11.452588663478917"><ele>995.0</ele><time>2026-05-01T05:53:37.796Z</time></trkpt><trkpt lat="47.13469951666666" lon="11.452595616635593"><ele>995.0</ele><time>2026-05-01T05:53:38.773Z</time></trkpt><trkpt lat="47.13456079952084" lon="11.452590236596931"><ele>994.0</ele><time>2026-05-01T05:53:39.784Z</time></trkpt><trkpt lat="47.134421274566265" lon="11.452570585532134"><ele>993.0</ele><time>2026-05-01T05:53:40.774Z</time></trkpt><trkpt lat="47.1342840128443" lon="11.452543133184978"><ele>992.0</ele><time>2026-05-01T05:53:41.773Z</time></trkpt><trkpt lat="47.134153708518014" lon="11.452505883617315"><ele>991.0</ele><time>2026-05-01T05:53:42.784Z</time></trkpt><trkpt lat="47.13402391938905" lon="11.45245987372448"><ele>990.0</ele><time>2026-05-01T05:53:43.811Z</time></trkpt><trkpt lat="47.133901350882454" lon="11.452412932207352"><ele>989.0</ele><time>2026-05-01T05:53:44.782Z</time></trkpt><trkpt lat="47.13379875834521" lon="11.452343714715846"><ele>988.0</ele><time>2026-05-01T05:53:45.788Z</time></trkpt><trkpt lat="47.133695299524234" lon="11.452284830593042"><ele>987.0</ele><time>2026-05-01T05:53:46.798Z</time></trkpt><trkpt lat="47.13359582261566" lon="11.452243505385606"><ele>987.0</ele><time>2026-05-01T05:53:47.775Z</time></trkpt><trkpt lat="47.133503993727345" lon="11.452210236874068"><ele>987.0</ele><time>2026-05-01T05:53:48.788Z</time></trkpt><trkpt lat="47.13340829606546" lon="11.452176991867134"><ele>987.0</ele><time>2026-05-01T05:53:49.773Z</time></trkpt><trkpt lat="47.13330733259734" lon="11.452144915479971"><ele>987.0</ele><time>2026-05-01T05:53:50.774Z</time></trkpt><trkpt lat="47.133208812431526" lon="11.452116087757215"><ele>987.0</ele><time>2026-05-01T05:53:51.791Z</time></trkpt><trkpt lat="47.13312170931207" lon="11.452095466428034"><ele>988.6666666666666</ele><time>2026-05-01T05:53:52.798Z</time></trkpt><trkpt lat="47.13304276855684" lon="11.452079222828507"><ele>990.3333333333333</ele><time>2026-05-01T05:53:53.785Z</time></trkpt><trkpt lat="47.13296436666666" lon="11.45207925"><ele>992.0</ele><time>2026-05-01T05:53:54.786Z</time></trkpt><trkpt lat="47.13288153333333" lon="11.452057416666667"><ele>993.6666666666666</ele><time>2026-05-01T05:53:55.8Z</time></trkpt><trkpt lat="47.132794600000004" lon="11.452036833333334"><ele>995.3333333333333</ele><time>2026-05-01T05:53:56.785Z</time></trkpt><trkpt lat="47.132707333333336" lon="11.452032066666668"><ele>997.0</ele><time>2026-05-01T05:53:57.783Z</time></trkpt><trkpt lat="47.132620349999996" lon="11.452047899999998"><ele>997.0</ele><time>2026-05-01T05:53:58.798Z</time></trkpt><trkpt lat="47.132538366666665" lon="11.452078966666665"><ele>997.0</ele><time>2026-05-01T05:53:59.787Z</time></trkpt><trkpt lat="47.13245461666667" lon="11.452124416666667"><ele>997.0</ele><time>2026-05-01T05:54:00.788Z</time></trkpt><trkpt lat="47.1323674" lon="11.452178483333332"><ele>997.0</ele><time>2026-05-01T05:54:01.798Z</time></trkpt><trkpt lat="47.13228058333334" lon="11.4522361"><ele>997.0</ele><time>2026-05-01T05:54:02.786Z</time></trkpt><trkpt lat="47.13219439999999" lon="11.452282316666667"><ele>995.2</ele><time>2026-05-01T05:54:03.788Z</time></trkpt><trkpt lat="47.13211294999999" lon="11.452334216666669"><ele>993.4000000000001</ele><time>2026-05-01T05:54:04.798Z</time></trkpt><trkpt lat="47.132028000000005" lon="11.452384016666668"><ele>991.5999999999999</ele><time>2026-05-01T05:54:05.785Z</time></trkpt><trkpt lat="47.131938866666665" lon="11.452433166666665"><ele>989.8</ele><time>2026-05-01T05:54:06.785Z</time></trkpt><trkpt lat="47.13185023333334" lon="11.452477966666667"><ele>988.0</ele><time>2026-05-01T05:54:07.798Z</time></trkpt><trkpt lat="47.131758033333334" lon="11.452522833333335"><ele>988.0</ele><time>2026-05-01T05:54:08.785Z</time></trkpt><trkpt lat="47.13166918333333" lon="11.452575466666667"><ele>988.0</ele><time>2026-05-01T05:54:09.786Z</time></trkpt><trkpt lat="47.1315817" lon="11.452630949999998"><ele>988.0</ele><time>2026-05-01T05:54:10.776Z</time></trkpt><trkpt lat="47.131489883333344" lon="11.452684600000001"><ele>988.0</ele><time>2026-05-01T05:54:11.785Z</time></trkpt><trkpt lat="47.13139623333333" lon="11.452737283333331"><ele>988.0</ele><time>2026-05-01T05:54:12.786Z</time></trkpt><trkpt lat="47.13130033333333" lon="11.452789216666666"><ele>988.2</ele><time>2026-05-01T05:54:13.799Z</time></trkpt><trkpt lat="47.131207149999994" lon="11.452843733333335"><ele>988.4</ele><time>2026-05-01T05:54:14.773Z</time></trkpt><trkpt lat="47.13111130000001" lon="11.452891316666665"><ele>988.6000000000001</ele><time>2026-05-01T05:54:15.797Z</time></trkpt><trkpt lat="47.13101271666667" lon="11.452935266666668"><ele>988.8000000000001</ele><time>2026-05-01T05:54:16.797Z</time></trkpt><trkpt lat="47.13091535" lon="11.452978916666666"><ele>989.0</ele><time>2026-05-01T05:54:17.775Z</time></trkpt><trkpt lat="47.13082015" lon="11.453017250000002"><ele>989.2</ele><time>2026-05-01T05:54:18.784Z</time></trkpt><trkpt lat="47.130721483333346" lon="11.45304225"><ele>989.4000000000001</ele><time>2026-05-01T05:54:19.774Z</time></trkpt><trkpt lat="47.130620216666664" lon="11.453053616666667"><ele>989.6</ele><time>2026-05-01T05:54:20.774Z</time></trkpt><trkpt lat="47.13051801666668" lon="11.453057366666668"><ele>989.8</ele><time>2026-05-01T05:54:21.785Z</time></trkpt><trkpt lat="47.13041411666667" lon="11.453061449999998"><ele>990.0</ele><time>2026-05-01T05:54:22.815Z</time></trkpt><trkpt lat="47.13031126666666" lon="11.453056533333333"><ele>990.0</ele><time>2026-05-01T05:54:23.773Z</time></trkpt><trkpt lat="47.13021354999999" lon="11.453040466666668"><ele>990.0</ele><time>2026-05-01T05:54:24.773Z</time></trkpt><trkpt lat="47.13011226666666" lon="11.453022516666666"><ele>990.0</ele><time>2026-05-01T05:54:25.798Z</time></trkpt><trkpt lat="47.13000735000001" lon="11.453009349999999"><ele>990.0</ele><time>2026-05-01T05:54:26.775Z</time></trkpt><trkpt lat="47.12990235000001" lon="11.45299995"><ele>990.0</ele><time>2026-05-01T05:54:27.791Z</time></trkpt><trkpt lat="47.1298054" lon="11.452991033333335"><ele>990.2</ele><time>2026-05-01T05:54:28.774Z</time></trkpt><trkpt lat="47.12971116666666" lon="11.452981416666669"><ele>990.4</ele><time>2026-05-01T05:54:29.774Z</time></trkpt><trkpt lat="47.12961623333334" lon="11.452970149999999"><ele>990.5999999999999</ele><time>2026-05-01T05:54:30.785Z</time></trkpt><trkpt lat="47.1295155" lon="11.452949833333331"><ele>990.8</ele><time>2026-05-01T05:54:31.798Z</time></trkpt><trkpt lat="47.129413283333335" lon="11.452938749999998"><ele>991.0</ele><time>2026-05-01T05:54:32.786Z</time></trkpt><trkpt lat="47.1293138" lon="11.452917066666664"><ele>991.0</ele><time>2026-05-01T05:54:33.793Z</time></trkpt><trkpt lat="47.12921291666667" lon="11.452902749999998"><ele>990.9999999999999</ele><time>2026-05-01T05:54:34.797Z</time></trkpt><trkpt lat="47.129112" lon="11.452885883333332"><ele>990.9999999999999</ele><time>2026-05-01T05:54:35.773Z</time></trkpt><trkpt lat="47.129014000000005" lon="11.452872316666665"><ele>991.0</ele><time>2026-05-01T05:54:36.774Z</time></trkpt><trkpt lat="47.12891378333334" lon="11.452861683333333"><ele>991.0</ele><time>2026-05-01T05:54:37.797Z</time></trkpt><trkpt lat="47.12881351666667" lon="11.452850283333332"><ele>990.4</ele><time>2026-05-01T05:54:38.776Z</time></trkpt><trkpt lat="47.1287164" lon="11.45284005"><ele>989.8</ele><time>2026-05-01T05:54:39.79Z</time></trkpt><trkpt lat="47.128617916666656" lon="11.452829183333332"><ele>989.1999999999999</ele><time>2026-05-01T05:54:40.797Z</time></trkpt><trkpt lat="47.12852578333333" lon="11.452811983333334"><ele>988.5999999999999</ele><time>2026-05-01T05:54:41.795Z</time></trkpt><trkpt lat="47.12843138333332" lon="11.45279146666667"><ele>988.0</ele><time>2026-05-01T05:54:42.774Z</time></trkpt><trkpt lat="47.12833144999999" lon="11.4527719"><ele>988.0</ele><time>2026-05-01T05:54:43.798Z</time></trkpt><trkpt lat="47.12823074999999" lon="11.45275225"><ele>988.0</ele><time>2026-05-01T05:54:44.793Z</time></trkpt><trkpt lat="47.12812363333334" lon="11.452732883333331"><ele>988.0</ele><time>2026-05-01T05:54:45.789Z</time></trkpt><trkpt lat="47.12801256666666" lon="11.452705233333333"><ele>988.0</ele><time>2026-05-01T05:54:46.798Z</time></trkpt><trkpt lat="47.12789783333333" lon="11.45266806666667"><ele>988.0</ele><time>2026-05-01T05:54:47.808Z</time></trkpt><trkpt lat="47.127779983333326" lon="11.452626183333333"><ele>988.25</ele><time>2026-05-01T05:54:48.783Z</time></trkpt><trkpt lat="47.12766116666666" lon="11.452571066666666"><ele>988.5</ele><time>2026-05-01T05:54:49.772Z</time></trkpt><trkpt lat="47.12754148333333" lon="11.452504849999999"><ele>988.75</ele><time>2026-05-01T05:54:50.777Z</time></trkpt><trkpt lat="47.12741831666667" lon="11.452434349999999"><ele>989.0</ele><time>2026-05-01T05:54:51.785Z</time></trkpt><trkpt lat="47.12729243333333" lon="11.452364766666669"><ele>989.75</ele><time>2026-05-01T05:54:52.802Z</time></trkpt><trkpt lat="47.12716946666666" lon="11.452299083333331"><ele>990.5</ele><time>2026-05-01T05:54:53.775Z</time></trkpt><trkpt lat="47.127053999999994" lon="11.452238083333334"><ele>991.25</ele><time>2026-05-01T05:54:54.783Z</time></trkpt><trkpt lat="47.12694586666667" lon="11.452180483333333"><ele>992.0</ele><time>2026-05-01T05:54:55.798Z</time></trkpt><trkpt lat="47.126841250000005" lon="11.452126933333334"><ele>992.6</ele><time>2026-05-01T05:54:56.781Z</time></trkpt><trkpt lat="47.12674158333333" lon="11.452076783333332"><ele>993.2</ele><time>2026-05-01T05:54:57.773Z</time></trkpt><trkpt lat="47.126644333333324" lon="11.452023966666665"><ele>993.8</ele><time>2026-05-01T05:54:58.797Z</time></trkpt><trkpt lat="47.12654411666668" lon="11.451960616666668"><ele>994.4</ele><time>2026-05-01T05:54:59.777Z</time></trkpt><trkpt lat="47.12643370000001" lon="11.451896800000002"><ele>995.0</ele><time>2026-05-01T05:55:00.786Z</time></trkpt><trkpt lat="47.12631464999999" lon="11.451831666666665"><ele>995.0</ele><time>2026-05-01T05:55:01.796Z</time></trkpt><trkpt lat="47.126189466666666" lon="11.451768450000001"><ele>995.0</ele><time>2026-05-01T05:55:02.786Z</time></trkpt><trkpt lat="47.126064933333325" lon="11.4517115"><ele>995.0</ele><time>2026-05-01T05:55:03.78Z</time></trkpt><trkpt lat="47.125945249999994" lon="11.451652650000002"><ele>995.0</ele><time>2026-05-01T05:55:04.797Z</time></trkpt><trkpt lat="47.12583049999999" lon="11.451594550000001"><ele>994.0</ele><time>2026-05-01T05:55:05.775Z</time></trkpt><trkpt lat="47.125717900000005" lon="11.451539266666668"><ele>993.0</ele><time>2026-05-01T05:55:06.791Z</time></trkpt><trkpt lat="47.12560018333333" lon="11.451492133333332"><ele>992.0</ele><time>2026-05-01T05:55:07.798Z</time></trkpt><trkpt lat="47.12548221666666" lon="11.451444383333333"><ele>991.0</ele><time>2026-05-01T05:55:08.775Z</time></trkpt><trkpt lat="47.12536334999999" lon="11.451389416666666"><ele>991.0</ele><time>2026-05-01T05:55:09.786Z</time></trkpt><trkpt lat="47.12523803333333" lon="11.451336450000001"><ele>991.0</ele><time>2026-05-01T05:55:10.796Z</time></trkpt><trkpt lat="47.12510661666667" lon="11.451283266666668"><ele>991.0</ele><time>2026-05-01T05:55:11.786Z</time></trkpt><trkpt lat="47.12496943333334" lon="11.451230266666668"><ele>991.0</ele><time>2026-05-01T05:55:12.788Z</time></trkpt><trkpt lat="47.12482633333334" lon="11.451175399999999"><ele>997.0</ele><time>2026-05-01T05:55:13.798Z</time></trkpt><trkpt lat="47.12467835" lon="11.451121083333332"><ele>1003.0</ele><time>2026-05-01T05:55:14.774Z</time></trkpt><trkpt lat="47.1245244" lon="11.451070799999998"><ele>1009.0</ele><time>2026-05-01T05:55:15.782Z</time></trkpt><trkpt lat="47.124365616666665" lon="11.451023033333335"><ele>1009.0</ele><time>2026-05-01T05:55:16.797Z</time></trkpt><trkpt lat="47.12420235" lon="11.450977949999999"><ele>1009.0</ele><time>2026-05-01T05:55:17.777Z</time></trkpt><trkpt lat="47.12403501666666" lon="11.4509373"><ele>1009.0</ele><time>2026-05-01T05:55:18.783Z</time></trkpt><trkpt lat="47.12386588333334" lon="11.450900566666666"><ele>1007.0</ele><time>2026-05-01T05:55:19.811Z</time></trkpt><trkpt lat="47.12369203333333" lon="11.450860066666666"><ele>1005.0</ele><time>2026-05-01T05:55:20.775Z</time></trkpt><trkpt lat="47.123516183333344" lon="11.450813966666665"><ele>1003.0</ele><time>2026-05-01T05:55:21.774Z</time></trkpt><trkpt lat="47.1233398" lon="11.450773833333335"><ele>1001.0</ele><time>2026-05-01T05:55:22.799Z</time></trkpt><trkpt lat="47.12316455" lon="11.450742400000001"><ele>999.0</ele><time>2026-05-01T05:55:23.775Z</time></trkpt><trkpt lat="47.12298825" lon="11.450716550000001"><ele>997.0</ele><time>2026-05-01T05:55:24.79Z</time></trkpt><trkpt lat="47.1228111" lon="11.450692666666665"><ele>997.0</ele><time>2026-05-01T05:55:25.797Z</time></trkpt><trkpt lat="47.12263495" lon="11.4506721"><ele>997.0</ele><time>2026-05-01T05:55:26.777Z</time></trkpt><trkpt lat="47.122458466666664" lon="11.450656883333332"><ele>997.0</ele><time>2026-05-01T05:55:27.792Z</time></trkpt><trkpt lat="47.12228515" lon="11.450643816666664"><ele>998.0</ele><time>2026-05-01T05:55:28.797Z</time></trkpt><trkpt lat="47.122111849999996" lon="11.450638733333333"><ele>999.0</ele><time>2026-05-01T05:55:29.786Z</time></trkpt><trkpt lat="47.12193936666666" lon="11.450636783333335"><ele>1000.0</ele><time>2026-05-01T05:55:30.783Z</time></trkpt><trkpt lat="47.121768599999996" lon="11.450634416666665"><ele>1000.0</ele><time>2026-05-01T05:55:31.799Z</time></trkpt><trkpt lat="47.12159896666667" lon="11.450634149999999"><ele>1000.0</ele><time>2026-05-01T05:55:32.786Z</time></trkpt><trkpt lat="47.12143113333333" lon="11.450633466666668"><ele>1000.0</ele><time>2026-05-01T05:55:33.786Z</time></trkpt><trkpt lat="47.12126356666666" lon="11.450637783333331"><ele>1000.3333333333333</ele><time>2026-05-01T05:55:34.797Z</time></trkpt><trkpt lat="47.121099199999996" lon="11.450644183333333"><ele>1000.6666666666667</ele><time>2026-05-01T05:55:35.791Z</time></trkpt><trkpt lat="47.12093636666667" lon="11.450652733333333"><ele>1001.0</ele><time>2026-05-01T05:55:36.787Z</time></trkpt><trkpt lat="47.12077113333333" lon="11.450662083333334"><ele>1002.0</ele><time>2026-05-01T05:55:37.798Z</time></trkpt><trkpt lat="47.120601883333336" lon="11.450674166666666"><ele>1003.0</ele><time>2026-05-01T05:55:38.773Z</time></trkpt><trkpt lat="47.12043021666667" lon="11.450686583333335"><ele>1004.0</ele><time>2026-05-01T05:55:39.774Z</time></trkpt><trkpt lat="47.12025625" lon="11.450699249999998"><ele>1004.0</ele><time>2026-05-01T05:55:40.8Z</time></trkpt><trkpt lat="47.120083883333336" lon="11.4507178"><ele>1004.0</ele><time>2026-05-01T05:55:41.788Z</time></trkpt><trkpt lat="47.119908550000005" lon="11.450739983333335"><ele>1004.0</ele><time>2026-05-01T05:55:42.786Z</time></trkpt><trkpt lat="47.119729650000004" lon="11.450766949999997"><ele>1004.3333333333334</ele><time>2026-05-01T05:55:43.799Z</time></trkpt><trkpt lat="47.11954866666667" lon="11.450793549999998"><ele>1004.6666666666667</ele><time>2026-05-01T05:55:44.792Z</time></trkpt><trkpt lat="47.119367983333326" lon="11.450821450000001"><ele>1005.0</ele><time>2026-05-01T05:55:45.796Z</time></trkpt><trkpt lat="47.11918503333332" lon="11.450849349999997"><ele>1005.6666666666667</ele><time>2026-05-01T05:55:46.776Z</time></trkpt><trkpt lat="47.11899815" lon="11.4508762"><ele>1006.3333333333334</ele><time>2026-05-01T05:55:47.775Z</time></trkpt><trkpt lat="47.11881271666666" lon="11.450908083333335"><ele>1007.0</ele><time>2026-05-01T05:55:48.783Z</time></trkpt><trkpt lat="47.11862908333333" lon="11.450943033333333"><ele>1007.0</ele><time>2026-05-01T05:55:49.798Z</time></trkpt><trkpt lat="47.11844745" lon="11.450982866666667"><ele>1007.0</ele><time>2026-05-01T05:55:50.773Z</time></trkpt><trkpt lat="47.118264333333336" lon="11.4510222"><ele>1007.0</ele><time>2026-05-01T05:55:51.797Z</time></trkpt><trkpt lat="47.11807919999999" lon="11.451062950000003"><ele>1010.3333333333334</ele><time>2026-05-01T05:55:52.8Z</time></trkpt><trkpt lat="47.117891533333335" lon="11.451107933333333"><ele>1013.6666666666667</ele><time>2026-05-01T05:55:53.777Z</time></trkpt><trkpt lat="47.11770085" lon="11.451157250000003"><ele>1017.0</ele><time>2026-05-01T05:55:54.784Z</time></trkpt><trkpt lat="47.11750658333334" lon="11.4512073"><ele>1018.6666666666667</ele><time>2026-05-01T05:55:55.774Z</time></trkpt><trkpt lat="47.11730841666667" lon="11.451257183333334"><ele>1020.3333333333334</ele><time>2026-05-01T05:55:56.775Z</time></trkpt><trkpt lat="47.11710168333334" lon="11.451314616666666"><ele>1022.0</ele><time>2026-05-01T05:55:57.787Z</time></trkpt><trkpt lat="47.116883433333335" lon="11.45137755"><ele>1017.0</ele><time>2026-05-01T05:55:58.803Z</time></trkpt><trkpt lat="47.116657000000004" lon="11.451440116666666"><ele>1012.0</ele><time>2026-05-01T05:55:59.775Z</time></trkpt><trkpt lat="47.11642513333333" lon="11.4515008"><ele>1012.0</ele><time>2026-05-01T05:56:00.774Z</time></trkpt><trkpt lat="47.116199433333335" lon="11.45155815"><ele>1012.0</ele><time>2026-05-01T05:56:01.797Z</time></trkpt><trkpt lat="47.11598649999999" lon="11.451608199999997"><ele>1012.0</ele><time>2026-05-01T05:56:02.776Z</time></trkpt><trkpt lat="47.1157801" lon="11.4516535"><ele>1014.3333333333333</ele><time>2026-05-01T05:56:03.784Z</time></trkpt><trkpt lat="47.11557071666667" lon="11.451696316666668"><ele>1016.6666666666667</ele><time>2026-05-01T05:56:04.776Z</time></trkpt><trkpt lat="47.115354983333326" lon="11.451733466666667"><ele>1019.0</ele><time>2026-05-01T05:56:05.777Z</time></trkpt><trkpt lat="47.115133633333336" lon="11.451765933333336"><ele>1019.0</ele><time>2026-05-01T05:56:06.782Z</time></trkpt><trkpt lat="47.11491188333333" lon="11.45179"><ele>1019.0</ele><time>2026-05-01T05:56:07.779Z</time></trkpt><trkpt lat="47.114702916666666" lon="11.451807466666667"><ele>1019.0</ele><time>2026-05-01T05:56:08.776Z</time></trkpt><trkpt lat="47.114506299999995" lon="11.451817016666666"><ele>1019.0</ele><time>2026-05-01T05:56:09.793Z</time></trkpt><trkpt lat="47.11431174999999" lon="11.451819350000001"><ele>1019.0</ele><time>2026-05-01T05:56:10.797Z</time></trkpt><trkpt lat="47.11411466666667" lon="11.451817100000001"><ele>1019.0</ele><time>2026-05-01T05:56:11.774Z</time></trkpt><trkpt lat="47.11391893333332" lon="11.451808433333333"><ele>1019.6666666666667</ele><time>2026-05-01T05:56:12.794Z</time></trkpt><trkpt lat="47.11371448333333" lon="11.451798799999999"><ele>1020.3333333333333</ele><time>2026-05-01T05:56:13.797Z</time></trkpt><trkpt lat="47.11349703333333" lon="11.451794"><ele>1021.0</ele><time>2026-05-01T05:56:14.774Z</time></trkpt><trkpt lat="47.11327643333335" lon="11.451789049999999"><ele>1025.0</ele><time>2026-05-01T05:56:15.783Z</time></trkpt><trkpt lat="47.11305231666667" lon="11.451793283333332"><ele>1029.0</ele><time>2026-05-01T05:56:16.78Z</time></trkpt><trkpt lat="47.11282368333334" lon="11.451817916666668"><ele>1029.0</ele><time>2026-05-01T05:56:17.776Z</time></trkpt><trkpt lat="47.11259571666666" lon="11.4518566"><ele>1029.0</ele><time>2026-05-01T05:56:18.782Z</time></trkpt><trkpt lat="47.11236998333334" lon="11.451913016666666"><ele>1035.0</ele><time>2026-05-01T05:56:19.797Z</time></trkpt><trkpt lat="47.11214816666667" lon="11.451989033333332"><ele>1041.0</ele><time>2026-05-01T05:56:20.785Z</time></trkpt><trkpt lat="47.11192866666667" lon="11.452083966666665"><ele>1037.5</ele><time>2026-05-01T05:56:21.784Z</time></trkpt><trkpt lat="47.11171495" lon="11.4521943"><ele>1034.0</ele><time>2026-05-01T05:56:22.797Z</time></trkpt><trkpt lat="47.11150306666667" lon="11.452322783333333"><ele>1034.0</ele><time>2026-05-01T05:56:23.781Z</time></trkpt><trkpt lat="47.11129233333333" lon="11.452468783333332"><ele>1034.0</ele><time>2026-05-01T05:56:24.784Z</time></trkpt><trkpt lat="47.11108681666666" lon="11.452631416666668"><ele>1034.0</ele><time>2026-05-01T05:56:25.778Z</time></trkpt><trkpt lat="47.11088181666668" lon="11.452813666666668"><ele>1034.0</ele><time>2026-05-01T05:56:26.783Z</time></trkpt><trkpt lat="47.11067204999999" lon="11.4530263"><ele>1032.5</ele><time>2026-05-01T05:56:27.788Z</time></trkpt><trkpt lat="47.11045219999999" lon="11.453273283333333"><ele>1031.0</ele><time>2026-05-01T05:56:28.797Z</time></trkpt><trkpt lat="47.1102243" lon="11.45354285"><ele>1036.0</ele><time>2026-05-01T05:56:29.785Z</time></trkpt><trkpt lat="47.109983750000005" lon="11.453819033333332"><ele>1041.0</ele><time>2026-05-01T05:56:30.782Z</time></trkpt><trkpt lat="47.10972951666666" lon="11.454088133333334"><ele>1041.0</ele><time>2026-05-01T05:56:31.797Z</time></trkpt><trkpt lat="47.1094739" lon="11.454350933333336"><ele>1041.0</ele><time>2026-05-01T05:56:32.782Z</time></trkpt><trkpt lat="47.109224399999995" lon="11.454615316666665"><ele>1039.0</ele><time>2026-05-01T05:56:33.783Z</time></trkpt><trkpt lat="47.10898086666666" lon="11.454880833333334"><ele>1037.0</ele><time>2026-05-01T05:56:34.777Z</time></trkpt><trkpt lat="47.10874721666667" lon="11.455136983333333"><ele>1037.0</ele><time>2026-05-01T05:56:35.776Z</time></trkpt><trkpt lat="47.108523633333334" lon="11.455382300000002"><ele>1037.0</ele><time>2026-05-01T05:56:36.791Z</time></trkpt><trkpt lat="47.10830448333333" lon="11.455621983333332"><ele>1036.5</ele><time>2026-05-01T05:56:37.797Z</time></trkpt><trkpt lat="47.10809351666667" lon="11.455860549999999"><ele>1036.0</ele><time>2026-05-01T05:56:38.776Z</time></trkpt><trkpt lat="47.107886433333334" lon="11.456088199999998"><ele>1029.0</ele><time>2026-05-01T05:56:39.792Z</time></trkpt><trkpt lat="47.107685566666675" lon="11.456309183333333"><ele>1022.0</ele><time>2026-05-01T05:56:40.799Z</time></trkpt><trkpt lat="47.107491883333324" lon="11.456527033333336"><ele>1029.0</ele><time>2026-05-01T05:56:41.771Z</time></trkpt><trkpt lat="47.10729998333333" lon="11.456739116666666"><ele>1036.0</ele><time>2026-05-01T05:56:42.792Z</time></trkpt><trkpt lat="47.10711188333333" lon="11.4569485"><ele>1030.5</ele><time>2026-05-01T05:56:43.774Z</time></trkpt><trkpt lat="47.10692353333334" lon="11.457154883333333"><ele>1025.0</ele><time>2026-05-01T05:56:44.776Z</time></trkpt><trkpt lat="47.10673468333333" lon="11.457359866666666"><ele>1034.5</ele><time>2026-05-01T05:56:45.784Z</time></trkpt><trkpt lat="47.106545700000005" lon="11.457565083333334"><ele>1044.0</ele><time>2026-05-01T05:56:46.799Z</time></trkpt><trkpt lat="47.1063553" lon="11.457773750000001"><ele>1035.0</ele><time>2026-05-01T05:56:47.777Z</time></trkpt><trkpt lat="47.10616503333334" lon="11.457984733333333"><ele>1026.0</ele><time>2026-05-01T05:56:48.789Z</time></trkpt><trkpt lat="47.105977" lon="11.458194766666669"><ele>1026.0</ele><time>2026-05-01T05:56:49.799Z</time></trkpt><trkpt lat="47.10578763333333" lon="11.458406933333334"><ele>1026.0</ele><time>2026-05-01T05:56:50.774Z</time></trkpt><trkpt lat="47.1055927" lon="11.458621383333332"><ele>1025.0</ele><time>2026-05-01T05:56:51.785Z</time></trkpt><trkpt lat="47.10539321666667" lon="11.45884125"><ele>1024.0</ele><time>2026-05-01T05:56:52.772Z</time></trkpt><trkpt lat="47.10519186666667" lon="11.459058583333336"><ele>1024.0</ele><time>2026-05-01T05:56:53.783Z</time></trkpt><trkpt lat="47.10499301666667" lon="11.4592734"><ele>1024.0</ele><time>2026-05-01T05:56:54.784Z</time></trkpt><trkpt lat="47.104795816666666" lon="11.459489433333333"><ele>1025.5</ele><time>2026-05-01T05:56:55.773Z</time></trkpt><trkpt lat="47.10459640000001" lon="11.45971035"><ele>1027.0</ele><time>2026-05-01T05:56:56.786Z</time></trkpt><trkpt lat="47.104388699999994" lon="11.459942416666669"><ele>1027.0</ele><time>2026-05-01T05:56:57.775Z</time></trkpt><trkpt lat="47.10417304999999" lon="11.46018585"><ele>1027.0</ele><time>2026-05-01T05:56:58.797Z</time></trkpt><trkpt lat="47.103953366666666" lon="11.460433"><ele>1029.0</ele><time>2026-05-01T05:56:59.776Z</time></trkpt><trkpt lat="47.10373688333334" lon="11.460672583333334"><ele>1031.0</ele><time>2026-05-01T05:57:00.784Z</time></trkpt><trkpt lat="47.10352256666667" lon="11.460905016666667"><ele>1031.0</ele><time>2026-05-01T05:57:01.797Z</time></trkpt><trkpt lat="47.103311266666665" lon="11.46112945"><ele>1031.0</ele><time>2026-05-01T05:57:02.776Z</time></trkpt><trkpt lat="47.10310113333333" lon="11.461347033333334"><ele>1034.0</ele><time>2026-05-01T05:57:03.789Z</time></trkpt><trkpt lat="47.10289483333333" lon="11.4615614"><ele>1037.0</ele><time>2026-05-01T05:57:04.797Z</time></trkpt><trkpt lat="47.10268988333333" lon="11.46176625"><ele>1037.0</ele><time>2026-05-01T05:57:05.777Z</time></trkpt><trkpt lat="47.102491449999995" lon="11.461954916666665"><ele>1037.0</ele><time>2026-05-01T05:57:06.784Z</time></trkpt><trkpt lat="47.10229725000001" lon="11.462119183333336"><ele>1036.3333333333335</ele><time>2026-05-01T05:57:07.797Z</time></trkpt><trkpt lat="47.102107233333335" lon="11.462261466666666"><ele>1035.6666666666667</ele><time>2026-05-01T05:57:08.785Z</time></trkpt><trkpt lat="47.101922483333325" lon="11.462390833333332"><ele>1035.0</ele><time>2026-05-01T05:57:09.783Z</time></trkpt><trkpt lat="47.1017454" lon="11.462506099999999"><ele>1038.6666666666667</ele><time>2026-05-01T05:57:10.796Z</time></trkpt><trkpt lat="47.1015796" lon="11.46260048333333"><ele>1042.3333333333335</ele><time>2026-05-01T05:57:11.777Z</time></trkpt><trkpt lat="47.101420483333335" lon="11.462681083333333"><ele>1046.0</ele><time>2026-05-01T05:57:12.787Z</time></trkpt><trkpt lat="47.101268" lon="11.462755383333334"><ele>1046.0</ele><time>2026-05-01T05:57:13.8Z</time></trkpt><trkpt lat="47.101118533333334" lon="11.462821049999999"><ele>1046.0</ele><time>2026-05-01T05:57:14.789Z</time></trkpt><trkpt lat="47.10097386666666" lon="11.462877616666667"><ele>1046.0</ele><time>2026-05-01T05:57:15.786Z</time></trkpt><trkpt lat="47.10083048333333" lon="11.462928383333335"><ele>1045.0</ele><time>2026-05-01T05:57:16.797Z</time></trkpt><trkpt lat="47.100686950000004" lon="11.46297665"><ele>1044.0</ele><time>2026-05-01T05:57:17.786Z</time></trkpt><trkpt lat="47.1005415" lon="11.463022500000001"><ele>1043.0</ele><time>2026-05-01T05:57:18.785Z</time></trkpt><trkpt lat="47.100396550000006" lon="11.46307025"><ele>1042.0</ele><time>2026-05-01T05:57:19.797Z</time></trkpt><trkpt lat="47.10025998333334" lon="11.463119183333333"><ele>1042.0</ele><time>2026-05-01T05:57:20.775Z</time></trkpt><trkpt lat="47.100128899999994" lon="11.463167066666665"><ele>1042.0</ele><time>2026-05-01T05:57:21.786Z</time></trkpt><trkpt lat="47.100000566666665" lon="11.463219233333334"><ele>1042.0</ele><time>2026-05-01T05:57:22.777Z</time></trkpt><trkpt lat="47.09987705" lon="11.46327355"><ele>1042.0</ele><time>2026-05-01T05:57:23.776Z</time></trkpt><trkpt lat="47.099754433333324" lon="11.46333015"><ele>1047.0</ele><time>2026-05-01T05:57:24.786Z</time></trkpt><trkpt lat="47.09963558333334" lon="11.463382266666667"><ele>1052.0</ele><time>2026-05-01T05:57:25.8Z</time></trkpt><trkpt lat="47.099511516666674" lon="11.463432016666665"><ele>1057.0</ele><time>2026-05-01T05:57:26.775Z</time></trkpt><trkpt lat="47.0993851" lon="11.463486033333334"><ele>1062.0</ele><time>2026-05-01T05:57:27.796Z</time></trkpt><trkpt lat="47.09925571666666" lon="11.463549016666665"><ele>1062.0</ele><time>2026-05-01T05:57:28.797Z</time></trkpt><trkpt lat="47.09912471666667" lon="11.4636136"><ele>1062.0</ele><time>2026-05-01T05:57:29.776Z</time></trkpt><trkpt lat="47.09899111666667" lon="11.463676649999998"><ele>1062.0</ele><time>2026-05-01T05:57:30.786Z</time></trkpt><trkpt lat="47.09886015000001" lon="11.463737316666668"><ele>1062.0</ele><time>2026-05-01T05:57:31.773Z</time></trkpt><trkpt lat="47.0987312" lon="11.463795616666669"><ele>1064.0</ele><time>2026-05-01T05:57:32.786Z</time></trkpt><trkpt lat="47.09860476666666" lon="11.463855616666669"><ele>1066.0</ele><time>2026-05-01T05:57:33.792Z</time></trkpt><trkpt lat="47.09848385" lon="11.46391565"><ele>1068.0</ele><time>2026-05-01T05:57:34.814Z</time></trkpt><trkpt lat="47.09836153333334" lon="11.463981366666667"><ele>1070.0</ele><time>2026-05-01T05:57:35.775Z</time></trkpt><trkpt lat="47.09824155" lon="11.464057583333332"><ele>1070.0</ele><time>2026-05-01T05:57:36.774Z</time></trkpt><trkpt lat="47.09813411666667" lon="11.464138366666669"><ele>1070.0</ele><time>2026-05-01T05:57:37.797Z</time></trkpt><trkpt lat="47.09803356666666" lon="11.464214633333333"><ele>1070.0</ele><time>2026-05-01T05:57:38.792Z</time></trkpt><trkpt lat="47.09793563333333" lon="11.464286716666667"><ele>1070.0</ele><time>2026-05-01T05:57:39.791Z</time></trkpt><trkpt lat="47.09784713333334" lon="11.464358599999997"><ele>1070.0</ele><time>2026-05-01T05:57:40.799Z</time></trkpt><trkpt lat="47.09776765" lon="11.464425516666665"><ele>1070.0</ele><time>2026-05-01T05:57:41.774Z</time></trkpt><trkpt lat="47.09769073333333" lon="11.464487199999999"><ele>1070.0</ele><time>2026-05-01T05:57:42.791Z</time></trkpt><trkpt lat="47.09761619999999" lon="11.464551283333332"><ele>1070.0</ele><time>2026-05-01T05:57:43.798Z</time></trkpt><trkpt lat="47.09753608333333" lon="11.46460878333333"><ele>1070.0</ele><time>2026-05-01T05:57:44.775Z</time></trkpt><trkpt lat="47.09745148333333" lon="11.46466195"><ele>1070.0</ele><time>2026-05-01T05:57:45.796Z</time></trkpt><trkpt lat="47.09735860000001" lon="11.464715416666666"><ele>1066.0</ele><time>2026-05-01T05:57:46.799Z</time></trkpt><trkpt lat="47.09726036666666" lon="11.464765583333334"><ele>1062.0</ele><time>2026-05-01T05:57:47.777Z</time></trkpt><trkpt lat="47.09715693333332" lon="11.464811683333336"><ele>1058.0</ele><time>2026-05-01T05:57:48.774Z</time></trkpt><trkpt lat="47.09704951666666" lon="11.464859066666667"><ele>1054.0</ele><time>2026-05-01T05:57:49.807Z</time></trkpt><trkpt lat="47.09694208333333" lon="11.464903733333331"><ele>1050.0</ele><time>2026-05-01T05:57:50.776Z</time></trkpt><trkpt lat="47.0968334" lon="11.464946016666666"><ele>1050.0</ele><time>2026-05-01T05:57:51.786Z</time></trkpt><trkpt lat="47.09672153333333" lon="11.464985116666666"><ele>1050.0</ele><time>2026-05-01T05:57:52.798Z</time></trkpt><trkpt lat="47.0966062" lon="11.46502856666667"><ele>1050.0</ele><time>2026-05-01T05:57:53.776Z</time></trkpt><trkpt lat="47.096490983333325" lon="11.465068583333334"><ele>1050.0</ele><time>2026-05-01T05:57:54.786Z</time></trkpt><trkpt lat="47.096374399999995" lon="11.465098033333335"><ele>1050.25</ele><time>2026-05-01T05:57:55.8Z</time></trkpt><trkpt lat="47.09625301666667" lon="11.465114816666668"><ele>1050.5</ele><time>2026-05-01T05:57:56.776Z</time></trkpt><trkpt lat="47.096130200000005" lon="11.46512325"><ele>1050.75</ele><time>2026-05-01T05:57:57.787Z</time></trkpt><trkpt lat="47.0960047" lon="11.46512585"><ele>1051.0</ele><time>2026-05-01T05:57:58.799Z</time></trkpt><trkpt lat="47.09588058333334" lon="11.465126516666666"><ele>1051.0</ele><time>2026-05-01T05:57:59.778Z</time></trkpt><trkpt lat="47.09576208333333" lon="11.465121883333332"><ele>1051.0</ele><time>2026-05-01T05:58:00.784Z</time></trkpt><trkpt lat="47.09564796666666" lon="11.46511246666667"><ele>1051.0</ele><time>2026-05-01T05:58:01.799Z</time></trkpt><trkpt lat="47.095535749999996" lon="11.465106733333336"><ele>1051.0</ele><time>2026-05-01T05:58:02.778Z</time></trkpt><trkpt lat="47.095427066666666" lon="11.465104683333335"><ele>1051.2</ele><time>2026-05-01T05:58:03.784Z</time></trkpt><trkpt lat="47.09531785000001" lon="11.465107966666668"><ele>1051.3999999999999</ele><time>2026-05-01T05:58:04.799Z</time></trkpt><trkpt lat="47.09520381666667" lon="11.465124633333334"><ele>1051.6</ele><time>2026-05-01T05:58:05.776Z</time></trkpt><trkpt lat="47.095090983333336" lon="11.465149216666669"><ele>1051.8</ele><time>2026-05-01T05:58:06.784Z</time></trkpt><trkpt lat="47.094988349999994" lon="11.465175766666668"><ele>1052.0</ele><time>2026-05-01T05:58:07.798Z</time></trkpt><trkpt lat="47.094903800000004" lon="11.465208516666666"><ele>1051.0</ele><time>2026-05-01T05:58:08.781Z</time></trkpt><trkpt lat="47.09483301666667" lon="11.4652395"><ele>1050.0</ele><time>2026-05-01T05:58:09.786Z</time></trkpt><trkpt lat="47.09476411666666" lon="11.465270283333332"><ele>1049.0</ele><time>2026-05-01T05:58:10.78Z</time></trkpt><trkpt lat="47.09469161666666" lon="11.465309200000002"><ele>1048.0</ele><time>2026-05-01T05:58:11.776Z</time></trkpt><trkpt lat="47.094625483333324" lon="11.4653476"><ele>1047.0</ele><time>2026-05-01T05:58:12.784Z</time></trkpt><trkpt lat="47.094515900000005" lon="11.465417566666668"><ele>1046.0</ele><time>2026-05-01T05:58:14.777Z</time></trkpt><trkpt lat="47.09441555" lon="11.465444833333333"><ele>1046.0</ele><time>2026-05-01T05:58:16.773Z</time></trkpt><trkpt lat="47.09432175" lon="11.465439649999999"><ele>1046.0</ele><time>2026-05-01T05:58:18.785Z</time></trkpt><trkpt lat="47.094233683333336" lon="11.465515450000003"><ele>1046.0</ele><time>2026-05-01T05:58:20.776Z</time></trkpt><trkpt lat="47.09418386666666" lon="11.465640733333332"><ele>1046.0</ele><time>2026-05-01T05:58:22.8Z</time></trkpt><trkpt lat="47.094089383333326" lon="11.465791100000002"><ele>1046.0</ele><time>2026-05-01T05:58:24.783Z</time></trkpt><trkpt lat="47.094022366666664" lon="11.465874933333335"><ele>1046.0</ele><time>2026-05-01T05:58:25.798Z</time></trkpt><trkpt lat="47.09394935000001" lon="11.465951549999998"><ele>1046.0</ele><time>2026-05-01T05:58:26.776Z</time></trkpt><trkpt lat="47.09388363333334" lon="11.4660223"><ele>1046.0</ele><time>2026-05-01T05:58:27.788Z</time></trkpt><trkpt lat="47.09382245" lon="11.466088666666668"><ele>1046.0</ele><time>2026-05-01T05:58:28.786Z</time></trkpt><trkpt lat="47.09375631666667" lon="11.466156383333336"><ele>1046.0</ele><time>2026-05-01T05:58:29.788Z</time></trkpt><trkpt lat="47.09368745" lon="11.466225516666668"><ele>1046.0</ele><time>2026-05-01T05:58:30.789Z</time></trkpt><trkpt lat="47.09361741666667" lon="11.466293283333334"><ele>1045.6666666666667</ele><time>2026-05-01T05:58:31.786Z</time></trkpt><trkpt lat="47.09354286666667" lon="11.466351750000001"><ele>1045.3333333333335</ele><time>2026-05-01T05:58:32.79Z</time></trkpt><trkpt lat="47.09346581666667" lon="11.466409583333332"><ele>1045.0</ele><time>2026-05-01T05:58:33.775Z</time></trkpt><trkpt lat="47.093387299999996" lon="11.466460066666665"><ele>1044.6666666666667</ele><time>2026-05-01T05:58:34.782Z</time></trkpt><trkpt lat="47.09330979999999" lon="11.466502966666667"><ele>1044.3333333333333</ele><time>2026-05-01T05:58:35.773Z</time></trkpt><trkpt lat="47.093233266666665" lon="11.4665453"><ele>1044.0</ele><time>2026-05-01T05:58:36.774Z</time></trkpt><trkpt lat="47.09315718333334" lon="11.46658745"><ele>1045.3333333333333</ele><time>2026-05-01T05:58:37.784Z</time></trkpt><trkpt lat="47.09308106666667" lon="11.466627"><ele>1046.6666666666667</ele><time>2026-05-01T05:58:38.816Z</time></trkpt><trkpt lat="47.09300773333333" lon="11.466660466666667"><ele>1048.0</ele><time>2026-05-01T05:58:39.792Z</time></trkpt><trkpt lat="47.09293341666666" lon="11.466693883333335"><ele>1049.3333333333335</ele><time>2026-05-01T05:58:40.792Z</time></trkpt><trkpt lat="47.092855" lon="11.466732233333333"><ele>1050.6666666666667</ele><time>2026-05-01T05:58:41.791Z</time></trkpt><trkpt lat="47.092776216666664" lon="11.466764516666668"><ele>1052.0</ele><time>2026-05-01T05:58:42.776Z</time></trkpt><trkpt lat="47.0926974" lon="11.466778633333334"><ele>1052.0</ele><time>2026-05-01T05:58:43.784Z</time></trkpt><trkpt lat="47.092616633333336" lon="11.466790583333333"><ele>1052.0</ele><time>2026-05-01T05:58:44.794Z</time></trkpt><trkpt lat="47.0925274" lon="11.466812533333332"><ele>1052.0</ele><time>2026-05-01T05:58:45.788Z</time></trkpt><trkpt lat="47.092433516666674" lon="11.466827733333332"><ele>1052.0</ele><time>2026-05-01T05:58:46.788Z</time></trkpt><trkpt lat="47.09234436666667" lon="11.466833550000002"><ele>1052.0</ele><time>2026-05-01T05:58:47.793Z</time></trkpt><trkpt lat="47.0922595" lon="11.4668302"><ele>1052.0</ele><time>2026-05-01T05:58:48.789Z</time></trkpt><trkpt lat="47.092175266666665" lon="11.466815016666667"><ele>1052.2</ele><time>2026-05-01T05:58:49.777Z</time></trkpt><trkpt lat="47.09208951666667" lon="11.466794133333332"><ele>1052.4</ele><time>2026-05-01T05:58:50.788Z</time></trkpt><trkpt lat="47.09200346666666" lon="11.466768783333334"><ele>1052.6</ele><time>2026-05-01T05:58:51.784Z</time></trkpt><trkpt lat="47.09191016666667" lon="11.466740350000002"><ele>1052.8</ele><time>2026-05-01T05:58:52.783Z</time></trkpt><trkpt lat="47.091817414344554" lon="11.466683438633057"><ele>1053.0</ele><time>2026-05-01T05:58:53.789Z</time></trkpt><trkpt lat="47.091717307515715" lon="11.466650070965384"><ele>1053.0</ele><time>2026-05-01T05:58:54.788Z</time></trkpt><trkpt lat="47.09161233333332" lon="11.46665015"><ele>1053.0</ele><time>2026-05-01T05:58:55.789Z</time></trkpt><trkpt lat="47.09150485" lon="11.466648383333332"><ele>1053.0</ele><time>2026-05-01T05:58:56.79Z</time></trkpt><trkpt lat="47.09139315" lon="11.466665650000001"><ele>1053.0</ele><time>2026-05-01T05:58:57.789Z</time></trkpt><trkpt lat="47.091277583333344" lon="11.466697383333333"><ele>1053.0</ele><time>2026-05-01T05:58:58.784Z</time></trkpt><trkpt lat="47.091159966666666" lon="11.466731816666668"><ele>1053.25</ele><time>2026-05-01T05:58:59.787Z</time></trkpt><trkpt lat="47.09103923333333" lon="11.466761650000002"><ele>1053.5</ele><time>2026-05-01T05:59:00.775Z</time></trkpt><trkpt lat="47.09091528333333" lon="11.466799133333332"><ele>1053.75</ele><time>2026-05-01T05:59:01.785Z</time></trkpt><trkpt lat="47.09079163333334" lon="11.466841800000003"><ele>1054.0</ele><time>2026-05-01T05:59:02.774Z</time></trkpt><trkpt lat="47.09068216666667" lon="11.466881699999998"><ele>1054.2</ele><time>2026-05-01T05:59:03.797Z</time></trkpt><trkpt lat="47.09057951666667" lon="11.466924283333332"><ele>1054.4</ele><time>2026-05-01T05:59:04.784Z</time></trkpt><trkpt lat="47.0904742" lon="11.466967466666665"><ele>1054.6</ele><time>2026-05-01T05:59:05.791Z</time></trkpt><trkpt lat="47.09037081666667" lon="11.467010349999999"><ele>1054.8</ele><time>2026-05-01T05:59:06.774Z</time></trkpt><trkpt lat="47.09026888333333" lon="11.467052533333334"><ele>1055.0</ele><time>2026-05-01T05:59:07.784Z</time></trkpt><trkpt lat="47.09016636666667" lon="11.467096549999999"><ele>1054.75</ele><time>2026-05-01T05:59:08.789Z</time></trkpt><trkpt lat="47.09005968333333" lon="11.467143633333334"><ele>1054.5</ele><time>2026-05-01T05:59:09.774Z</time></trkpt><trkpt lat="47.0899504" lon="11.467200649999999"><ele>1054.25</ele><time>2026-05-01T05:59:10.785Z</time></trkpt><trkpt lat="47.089834616666664" lon="11.467259916666668"><ele>1054.0</ele><time>2026-05-01T05:59:11.773Z</time></trkpt><trkpt lat="47.089719349999996" lon="11.467323516666667"><ele>1054.0</ele><time>2026-05-01T05:59:12.772Z</time></trkpt><trkpt lat="47.08960011666667" lon="11.467385233333335"><ele>1054.0</ele><time>2026-05-01T05:59:13.784Z</time></trkpt><trkpt lat="47.08948731666666" lon="11.46745085"><ele>1054.0</ele><time>2026-05-01T05:59:14.791Z</time></trkpt><trkpt lat="47.08937146666667" lon="11.467514433333335"><ele>1054.0</ele><time>2026-05-01T05:59:15.789Z</time></trkpt><trkpt lat="47.08923975" lon="11.467573000000002"><ele>1054.0</ele><time>2026-05-01T05:59:16.784Z</time></trkpt><trkpt lat="47.08910365" lon="11.46763645"><ele>1054.0</ele><time>2026-05-01T05:59:17.79Z</time></trkpt><trkpt lat="47.088976966666664" lon="11.467704399999999"><ele>1054.0</ele><time>2026-05-01T05:59:18.791Z</time></trkpt><trkpt lat="47.08884565" lon="11.467775883333335"><ele>1054.0</ele><time>2026-05-01T05:59:19.78Z</time></trkpt><trkpt lat="47.088714333333336" lon="11.467848883333334"><ele>1054.0</ele><time>2026-05-01T05:59:20.775Z</time></trkpt><trkpt lat="47.08858088333333" lon="11.467922433333335"><ele>1054.0</ele><time>2026-05-01T05:59:21.778Z</time></trkpt><trkpt lat="47.0884445" lon="11.467993100000001"><ele>1054.0</ele><time>2026-05-01T05:59:22.784Z</time></trkpt><trkpt lat="47.08831605" lon="11.468061016666665"><ele>1054.0</ele><time>2026-05-01T05:59:23.817Z</time></trkpt><trkpt lat="47.088198399999996" lon="11.468122916666669"><ele>1054.75</ele><time>2026-05-01T05:59:24.794Z</time></trkpt><trkpt lat="47.088090650000005" lon="11.468185316666665"><ele>1055.5</ele><time>2026-05-01T05:59:25.789Z</time></trkpt><trkpt lat="47.08797986666667" lon="11.468252299999998"><ele>1056.25</ele><time>2026-05-01T05:59:26.79Z</time></trkpt><trkpt lat="47.08786683333333" lon="11.468320883333334"><ele>1057.0</ele><time>2026-05-01T05:59:27.773Z</time></trkpt><trkpt lat="47.087749583333334" lon="11.468385350000002"><ele>1057.0</ele><time>2026-05-01T05:59:28.784Z</time></trkpt><trkpt lat="47.08763136666666" lon="11.46845005"><ele>1057.0</ele><time>2026-05-01T05:59:29.788Z</time></trkpt><trkpt lat="47.08751103333334" lon="11.468514433333334"><ele>1057.0</ele><time>2026-05-01T05:59:30.783Z</time></trkpt><trkpt lat="47.08738898333333" lon="11.468577616666668"><ele>1057.0</ele><time>2026-05-01T05:59:31.785Z</time></trkpt><trkpt lat="47.08726123333333" lon="11.468642383333334"><ele>1056.5</ele><time>2026-05-01T05:59:32.788Z</time></trkpt><trkpt lat="47.087131799999995" lon="11.468705733333335"><ele>1056.0</ele><time>2026-05-01T05:59:33.79Z</time></trkpt><trkpt lat="47.087001683333334" lon="11.468767483333332"><ele>1055.5</ele><time>2026-05-01T05:59:34.785Z</time></trkpt><trkpt lat="47.086874216666665" lon="11.468830050000001"><ele>1055.0</ele><time>2026-05-01T05:59:35.809Z</time></trkpt><trkpt lat="47.086748199999995" lon="11.46889615"><ele>1055.0</ele><time>2026-05-01T05:59:36.788Z</time></trkpt><trkpt lat="47.086621133333324" lon="11.4689568"><ele>1055.0</ele><time>2026-05-01T05:59:37.783Z</time></trkpt><trkpt lat="47.08649476666666" lon="11.469018850000001"><ele>1055.0</ele><time>2026-05-01T05:59:38.789Z</time></trkpt><trkpt lat="47.086369" lon="11.469082583333334"><ele>1055.0</ele><time>2026-05-01T05:59:39.784Z</time></trkpt><trkpt lat="47.086239983333336" lon="11.469138200000002"><ele>1055.5</ele><time>2026-05-01T05:59:40.788Z</time></trkpt><trkpt lat="47.08611013333334" lon="11.469184616666666"><ele>1056.0</ele><time>2026-05-01T05:59:41.788Z</time></trkpt><trkpt lat="47.0859798" lon="11.469223216666666"><ele>1056.5</ele><time>2026-05-01T05:59:42.829Z</time></trkpt><trkpt lat="47.08584938333333" lon="11.469258533333335"><ele>1057.0</ele><time>2026-05-01T05:59:43.785Z</time></trkpt><trkpt lat="47.085717933333335" lon="11.469291733333334"><ele>1058.5</ele><time>2026-05-01T05:59:44.782Z</time></trkpt><trkpt lat="47.08558501666666" lon="11.469318849999997"><ele>1060.0</ele><time>2026-05-01T05:59:45.796Z</time></trkpt><trkpt lat="47.085459983333344" lon="11.46934565"><ele>1061.5</ele><time>2026-05-01T05:59:46.783Z</time></trkpt><trkpt lat="47.08533895000001" lon="11.46938716666667"><ele>1063.0</ele><time>2026-05-01T05:59:47.789Z</time></trkpt><trkpt lat="47.08522415000001" lon="11.469450733333334"><ele>1063.0</ele><time>2026-05-01T05:59:48.777Z</time></trkpt><trkpt lat="47.08511483333333" lon="11.469537216666668"><ele>1063.0</ele><time>2026-05-01T05:59:49.796Z</time></trkpt><trkpt lat="47.085016700000004" lon="11.469644616666669"><ele>1063.0</ele><time>2026-05-01T05:59:50.772Z</time></trkpt><trkpt lat="47.08492908333333" lon="11.469774250000002"><ele>1063.0</ele><time>2026-05-01T05:59:51.793Z</time></trkpt><trkpt lat="47.08485143333334" lon="11.469921266666665"><ele>1062.75</ele><time>2026-05-01T05:59:52.783Z</time></trkpt><trkpt lat="47.08478674999999" lon="11.470080433333333"><ele>1062.5</ele><time>2026-05-01T05:59:53.773Z</time></trkpt><trkpt lat="47.08472738333334" lon="11.470243633333332"><ele>1062.25</ele><time>2026-05-01T05:59:54.791Z</time></trkpt><trkpt lat="47.08466620000001" lon="11.470407166666666"><ele>1062.0</ele><time>2026-05-01T05:59:55.782Z</time></trkpt><trkpt lat="47.0846051" lon="11.470570116666666"><ele>1059.75</ele><time>2026-05-01T05:59:56.787Z</time></trkpt><trkpt lat="47.08454185000001" lon="11.470731599999999"><ele>1057.5</ele><time>2026-05-01T05:59:57.774Z</time></trkpt><trkpt lat="47.08447283333333" lon="11.470895583333332"><ele>1055.25</ele><time>2026-05-01T05:59:58.795Z</time></trkpt><trkpt lat="47.08439563333334" lon="11.471054766666668"><ele>1053.0</ele><time>2026-05-01T05:59:59.775Z</time></trkpt><trkpt lat="47.084311283333335" lon="11.471211533333333"><ele>1052.5</ele><time>2026-05-01T06:00:00.79Z</time></trkpt><trkpt lat="47.08422730000001" lon="11.471361000000002"><ele>1052.0</ele><time>2026-05-01T06:00:01.781Z</time></trkpt><trkpt lat="47.084140350000006" lon="11.47149905"><ele>1051.5</ele><time>2026-05-01T06:00:02.773Z</time></trkpt><trkpt lat="47.08405861666667" lon="11.47162465"><ele>1051.0</ele><time>2026-05-01T06:00:03.791Z</time></trkpt><trkpt lat="47.08398005" lon="11.47174075"><ele>1054.2</ele><time>2026-05-01T06:00:04.782Z</time></trkpt><trkpt lat="47.08390481666667" lon="11.471850933333332"><ele>1057.3999999999999</ele><time>2026-05-01T06:00:05.795Z</time></trkpt><trkpt lat="47.083824850000006" lon="11.471956816666667"><ele>1060.6</ele><time>2026-05-01T06:00:06.791Z</time></trkpt><trkpt lat="47.08374826666666" lon="11.47206455"><ele>1063.8</ele><time>2026-05-01T06:00:07.791Z</time></trkpt><trkpt lat="47.083674083333335" lon="11.47217518333333"><ele>1067.0</ele><time>2026-05-01T06:00:08.787Z</time></trkpt><trkpt lat="47.08359699999999" lon="11.472285666666668"><ele>1067.0</ele><time>2026-05-01T06:00:09.788Z</time></trkpt><trkpt lat="47.08351806666666" lon="11.472396"><ele>1067.0</ele><time>2026-05-01T06:00:10.781Z</time></trkpt><trkpt lat="47.08343913333333" lon="11.472511583333334"><ele>1067.0</ele><time>2026-05-01T06:00:11.793Z</time></trkpt><trkpt lat="47.08335605" lon="11.4726296"><ele>1067.0</ele><time>2026-05-01T06:00:12.793Z</time></trkpt><trkpt lat="47.08326863333333" lon="11.472749566666668"><ele>1067.5</ele><time>2026-05-01T06:00:13.785Z</time></trkpt><trkpt lat="47.08318049999999" lon="11.472875966666669"><ele>1068.0</ele><time>2026-05-01T06:00:14.803Z</time></trkpt><trkpt lat="47.083091916666675" lon="11.473007133333331"><ele>1068.5</ele><time>2026-05-01T06:00:15.789Z</time></trkpt><trkpt lat="47.08300295000001" lon="11.47313485"><ele>1069.0</ele><time>2026-05-01T06:00:16.789Z</time></trkpt><trkpt lat="47.08291233333333" lon="11.473260000000002"><ele>1069.0</ele><time>2026-05-01T06:00:17.788Z</time></trkpt><trkpt lat="47.082821233333334" lon="11.473381516666667"><ele>1069.0</ele><time>2026-05-01T06:00:18.79Z</time></trkpt><trkpt lat="47.08272765" lon="11.473501433333334"><ele>1069.0</ele><time>2026-05-01T06:00:19.775Z</time></trkpt><trkpt lat="47.082632233333335" lon="11.4736173"><ele>1069.0</ele><time>2026-05-01T06:00:20.79Z</time></trkpt><trkpt lat="47.08252783333334" lon="11.473731033333335"><ele>1067.5</ele><time>2026-05-01T06:00:21.773Z</time></trkpt><trkpt lat="47.08241806666667" lon="11.473842783333335"><ele>1066.0</ele><time>2026-05-01T06:00:22.783Z</time></trkpt><trkpt lat="47.082304" lon="11.473955083333333"><ele>1064.5</ele><time>2026-05-01T06:00:23.784Z</time></trkpt><trkpt lat="47.08218608333333" lon="11.474066066666667"><ele>1063.0</ele><time>2026-05-01T06:00:24.787Z</time></trkpt><trkpt lat="47.08206440000001" lon="11.474177183333332"><ele>1063.0</ele><time>2026-05-01T06:00:25.777Z</time></trkpt><trkpt lat="47.08193428333334" lon="11.47428365"><ele>1063.0</ele><time>2026-05-01T06:00:26.773Z</time></trkpt><trkpt lat="47.0817998" lon="11.4743802"><ele>1063.0</ele><time>2026-05-01T06:00:27.789Z</time></trkpt><trkpt lat="47.081660616666674" lon="11.474469783333332"><ele>1064.3333333333333</ele><time>2026-05-01T06:00:28.784Z</time></trkpt><trkpt lat="47.08151268333332" lon="11.474562116666666"><ele>1065.6666666666667</ele><time>2026-05-01T06:00:29.788Z</time></trkpt><trkpt lat="47.08135701666667" lon="11.474652083333334"><ele>1067.0</ele><time>2026-05-01T06:00:30.788Z</time></trkpt><trkpt lat="47.08119266666666" lon="11.474745166666665"><ele>1067.0</ele><time>2026-05-01T06:00:31.783Z</time></trkpt><trkpt lat="47.08101533333333" lon="11.474841849999999"><ele>1067.0</ele><time>2026-05-01T06:00:32.788Z</time></trkpt><trkpt lat="47.0808271" lon="11.474948233333336"><ele>1067.0</ele><time>2026-05-01T06:00:33.793Z</time></trkpt><trkpt lat="47.080635216666664" lon="11.475064216666665"><ele>1070.6666666666667</ele><time>2026-05-01T06:00:34.783Z</time></trkpt><trkpt lat="47.08044918333333" lon="11.475208683333335"><ele>1074.3333333333333</ele><time>2026-05-01T06:00:35.788Z</time></trkpt><trkpt lat="47.08027773333333" lon="11.475390433333333"><ele>1078.0</ele><time>2026-05-01T06:00:36.788Z</time></trkpt><trkpt lat="47.080120666666666" lon="11.47559915"><ele>1078.0</ele><time>2026-05-01T06:00:37.783Z</time></trkpt><trkpt lat="47.079971" lon="11.4758194"><ele>1078.0</ele><time>2026-05-01T06:00:38.787Z</time></trkpt><trkpt lat="47.07982451666667" lon="11.4760402"><ele>1078.0</ele><time>2026-05-01T06:00:39.798Z</time></trkpt><trkpt lat="47.07968196666667" lon="11.476255983333331"><ele>1081.3333333333333</ele><time>2026-05-01T06:00:40.797Z</time></trkpt><trkpt lat="47.07954613333333" lon="11.476454416666664"><ele>1084.6666666666667</ele><time>2026-05-01T06:00:41.775Z</time></trkpt><trkpt lat="47.079418583333336" lon="11.476635649999999"><ele>1088.0</ele><time>2026-05-01T06:00:42.776Z</time></trkpt><trkpt lat="47.07930393333333" lon="11.4768029"><ele>1088.0</ele><time>2026-05-01T06:00:43.786Z</time></trkpt><trkpt lat="47.079197750000006" lon="11.476967749999998"><ele>1088.0</ele><time>2026-05-01T06:00:44.789Z</time></trkpt><trkpt lat="47.07910351666666" lon="11.477146783333334"><ele>1088.0</ele><time>2026-05-01T06:00:45.788Z</time></trkpt><trkpt lat="47.079029383333335" lon="11.477351266666668"><ele>1085.0</ele><time>2026-05-01T06:00:46.783Z</time></trkpt><trkpt lat="47.07897296666666" lon="11.477579466666668"><ele>1082.0</ele><time>2026-05-01T06:00:47.794Z</time></trkpt><trkpt lat="47.078928700000006" lon="11.4778255"><ele>1079.0</ele><time>2026-05-01T06:00:48.772Z</time></trkpt><trkpt lat="47.07888903333334" lon="11.478081733333333"><ele>1079.0</ele><time>2026-05-01T06:00:49.795Z</time></trkpt><trkpt lat="47.0788488" lon="11.478346316666666"><ele>1079.0</ele><time>2026-05-01T06:00:50.787Z</time></trkpt><trkpt lat="47.078802916666675" lon="11.4786155"><ele>1079.0</ele><time>2026-05-01T06:00:51.792Z</time></trkpt><trkpt lat="47.07874068333334" lon="11.478875766666667"><ele>1079.0</ele><time>2026-05-01T06:00:52.783Z</time></trkpt><trkpt lat="47.07865496666667" lon="11.479113783333334"><ele>1079.0</ele><time>2026-05-01T06:00:53.791Z</time></trkpt><trkpt lat="47.07855678333333" lon="11.47934005"><ele>1079.0</ele><time>2026-05-01T06:00:54.789Z</time></trkpt><trkpt lat="47.07845495" lon="11.47956365"><ele>1077.0</ele><time>2026-05-01T06:00:55.773Z</time></trkpt><trkpt lat="47.078353366666676" lon="11.479789766666666"><ele>1075.0</ele><time>2026-05-01T06:00:56.786Z</time></trkpt><trkpt lat="47.07825093333333" lon="11.480016633333332"><ele>1073.0</ele><time>2026-05-01T06:00:57.794Z</time></trkpt><trkpt lat="47.078139183333334" lon="11.480237099999998"><ele>1078.3333333333335</ele><time>2026-05-01T06:00:58.796Z</time></trkpt><trkpt lat="47.07802405" lon="11.4804498"><ele>1083.6666666666667</ele><time>2026-05-01T06:00:59.788Z</time></trkpt><trkpt lat="47.077897666666665" lon="11.480651283333334"><ele>1089.0</ele><time>2026-05-01T06:01:00.791Z</time></trkpt><trkpt lat="47.07775403333333" lon="11.480830266666665"><ele>1089.0</ele><time>2026-05-01T06:01:01.793Z</time></trkpt><trkpt lat="47.077595900000006" lon="11.480989683333332"><ele>1089.0</ele><time>2026-05-01T06:01:02.788Z</time></trkpt><trkpt lat="47.077422049999996" lon="11.481127399999998"><ele>1089.0</ele><time>2026-05-01T06:01:03.788Z</time></trkpt><trkpt lat="47.077236416666665" lon="11.481239433333334"><ele>1085.0</ele><time>2026-05-01T06:01:04.796Z</time></trkpt><trkpt lat="47.07704125000001" lon="11.481319833333336"><ele>1081.0</ele><time>2026-05-01T06:01:05.79Z</time></trkpt><trkpt lat="47.07684393333334" lon="11.481383666666668"><ele>1077.0</ele><time>2026-05-01T06:01:06.794Z</time></trkpt><trkpt lat="47.07664321666666" lon="11.481429266666666"><ele>1081.0</ele><time>2026-05-01T06:01:07.796Z</time></trkpt><trkpt lat="47.0764379" lon="11.481454383333334"><ele>1085.0</ele><time>2026-05-01T06:01:08.789Z</time></trkpt><trkpt lat="47.07623746666667" lon="11.481482683333335"><ele>1089.0</ele><time>2026-05-01T06:01:09.789Z</time></trkpt><trkpt lat="47.076039699999995" lon="11.481532350000002"><ele>1089.0</ele><time>2026-05-01T06:01:10.782Z</time></trkpt><trkpt lat="47.07584503333332" lon="11.481614783333335"><ele>1089.0</ele><time>2026-05-01T06:01:11.809Z</time></trkpt><trkpt lat="47.075652720034256" lon="11.481715878946625"><ele>1089.0</ele><time>2026-05-01T06:01:12.79Z</time></trkpt><trkpt lat="47.075478062431465" lon="11.481866772850527"><ele>1087.0</ele><time>2026-05-01T06:01:13.783Z</time></trkpt><trkpt lat="47.07533356666666" lon="11.48204015"><ele>1085.0</ele><time>2026-05-01T06:01:14.793Z</time></trkpt><trkpt lat="47.07518976666667" lon="11.482212866666668"><ele>1083.0</ele><time>2026-05-01T06:01:15.784Z</time></trkpt><trkpt lat="47.075050700000006" lon="11.482397983333332"><ele>1084.0</ele><time>2026-05-01T06:01:16.782Z</time></trkpt><trkpt lat="47.07491373333334" lon="11.482585200000003"><ele>1085.0</ele><time>2026-05-01T06:01:17.788Z</time></trkpt><trkpt lat="47.07477611666666" lon="11.482766033333332"><ele>1086.0</ele><time>2026-05-01T06:01:18.788Z</time></trkpt><trkpt lat="47.07462705" lon="11.482936883333332"><ele>1082.3333333333333</ele><time>2026-05-01T06:01:19.785Z</time></trkpt><trkpt lat="47.074465350000004" lon="11.4830843"><ele>1078.6666666666665</ele><time>2026-05-01T06:01:20.782Z</time></trkpt><trkpt lat="47.0743007" lon="11.483222350000002"><ele>1075.0</ele><time>2026-05-01T06:01:21.789Z</time></trkpt><trkpt lat="47.074135899999995" lon="11.4833577"><ele>1074.3333333333333</ele><time>2026-05-01T06:01:22.785Z</time></trkpt><trkpt lat="47.0739727" lon="11.483498666666666"><ele>1073.6666666666667</ele><time>2026-05-01T06:01:23.786Z</time></trkpt><trkpt lat="47.07381035" lon="11.483638683333334"><ele>1073.0</ele><time>2026-05-01T06:01:24.778Z</time></trkpt><trkpt lat="47.07365573333333" lon="11.483777866666665"><ele>1075.3333333333335</ele><time>2026-05-01T06:01:25.796Z</time></trkpt><trkpt lat="47.073509383333345" lon="11.483912666666667"><ele>1077.6666666666667</ele><time>2026-05-01T06:01:26.788Z</time></trkpt><trkpt lat="47.073373933333336" lon="11.4840374"><ele>1080.0</ele><time>2026-05-01T06:01:27.788Z</time></trkpt><trkpt lat="47.07324066666666" lon="11.484141366666664"><ele>1080.0</ele><time>2026-05-01T06:01:28.783Z</time></trkpt><trkpt lat="47.07311176666667" lon="11.4842283"><ele>1080.0</ele><time>2026-05-01T06:01:29.773Z</time></trkpt><trkpt lat="47.07298373333333" lon="11.4843019"><ele>1080.0</ele><time>2026-05-01T06:01:30.781Z</time></trkpt><trkpt lat="47.07285848333333" lon="11.484361666666667"><ele>1080.0</ele><time>2026-05-01T06:01:31.789Z</time></trkpt><trkpt lat="47.072730050000004" lon="11.484416733333335"><ele>1080.0</ele><time>2026-05-01T06:01:32.788Z</time></trkpt><trkpt lat="47.07260751666666" lon="11.48446835"><ele>1080.0</ele><time>2026-05-01T06:01:33.788Z</time></trkpt><trkpt lat="47.07248890000001" lon="11.484510599999998"><ele>1080.0</ele><time>2026-05-01T06:01:34.796Z</time></trkpt><trkpt lat="47.07236710000001" lon="11.484544983333334"><ele>1080.0</ele><time>2026-05-01T06:01:35.788Z</time></trkpt><trkpt lat="47.07224796666666" lon="11.484582383333334"><ele>1081.0</ele><time>2026-05-01T06:01:36.793Z</time></trkpt><trkpt lat="47.07212806666666" lon="11.484621466666665"><ele>1082.0</ele><time>2026-05-01T06:01:37.797Z</time></trkpt><trkpt lat="47.07200486666667" lon="11.484662983333331"><ele>1083.0</ele><time>2026-05-01T06:01:38.772Z</time></trkpt><trkpt lat="47.071881616666666" lon="11.484709766666667"><ele>1084.0</ele><time>2026-05-01T06:01:39.782Z</time></trkpt><trkpt lat="47.071760083333324" lon="11.484770066666666"><ele>1084.0</ele><time>2026-05-01T06:01:40.782Z</time></trkpt><trkpt lat="47.07163925" lon="11.484843866666665"><ele>1084.0</ele><time>2026-05-01T06:01:41.794Z</time></trkpt><trkpt lat="47.07151761666667" lon="11.484923766666668"><ele>1084.0</ele><time>2026-05-01T06:01:42.794Z</time></trkpt><trkpt lat="47.07139785" lon="11.485001533333332"><ele>1084.0</ele><time>2026-05-01T06:01:43.788Z</time></trkpt><trkpt lat="47.07128956666667" lon="11.48507095"><ele>1083.75</ele><time>2026-05-01T06:01:44.788Z</time></trkpt><trkpt lat="47.071179" lon="11.485136233333332"><ele>1083.5</ele><time>2026-05-01T06:01:45.774Z</time></trkpt><trkpt lat="47.071062916666676" lon="11.485200883333334"><ele>1083.25</ele><time>2026-05-01T06:01:46.783Z</time></trkpt><trkpt lat="47.07095044999999" lon="11.48527656666667"><ele>1083.0</ele><time>2026-05-01T06:01:47.794Z</time></trkpt><trkpt lat="47.07083425000001" lon="11.485345833333334"><ele>1083.5</ele><time>2026-05-01T06:01:48.778Z</time></trkpt><trkpt lat="47.07071513333334" lon="11.485400883333334"><ele>1084.0</ele><time>2026-05-01T06:01:49.797Z</time></trkpt><trkpt lat="47.07059405" lon="11.48545515"><ele>1084.5</ele><time>2026-05-01T06:01:50.79Z</time></trkpt><trkpt lat="47.070473416666665" lon="11.485509233333335"><ele>1085.0</ele><time>2026-05-01T06:01:51.791Z</time></trkpt><trkpt lat="47.07035426666667" lon="11.485560850000002"><ele>1085.25</ele><time>2026-05-01T06:01:52.788Z</time></trkpt><trkpt lat="47.070236233333326" lon="11.485610533333332"><ele>1085.5</ele><time>2026-05-01T06:01:53.788Z</time></trkpt><trkpt lat="47.07012038333334" lon="11.485658533333334"><ele>1085.75</ele><time>2026-05-01T06:01:54.788Z</time></trkpt><trkpt lat="47.07000528333333" lon="11.485709249999998"><ele>1086.0</ele><time>2026-05-01T06:01:55.782Z</time></trkpt><trkpt lat="47.069890766666674" lon="11.485763233333333"><ele>1084.5</ele><time>2026-05-01T06:01:56.789Z</time></trkpt><trkpt lat="47.06976718333334" lon="11.485817699999998"><ele>1083.0</ele><time>2026-05-01T06:01:57.788Z</time></trkpt><trkpt lat="47.069641133333334" lon="11.485877683333335"><ele>1081.5</ele><time>2026-05-01T06:01:58.783Z</time></trkpt><trkpt lat="47.069513083333334" lon="11.485942499999998"><ele>1080.0</ele><time>2026-05-01T06:01:59.788Z</time></trkpt><trkpt lat="47.06937670000001" lon="11.486006683333335"><ele>1080.0</ele><time>2026-05-01T06:02:00.788Z</time></trkpt><trkpt lat="47.06923428333333" lon="11.48606905"><ele>1080.0</ele><time>2026-05-01T06:02:01.777Z</time></trkpt><trkpt lat="47.06908721666667" lon="11.486121883333333"><ele>1080.0</ele><time>2026-05-01T06:02:02.773Z</time></trkpt><trkpt lat="47.06893353333333" lon="11.486155033333333"><ele>1082.6666666666667</ele><time>2026-05-01T06:02:03.788Z</time></trkpt><trkpt lat="47.06877613333333" lon="11.486158466666668"><ele>1085.3333333333335</ele><time>2026-05-01T06:02:04.785Z</time></trkpt><trkpt lat="47.06861696666667" lon="11.486140933333337"><ele>1088.0</ele><time>2026-05-01T06:02:05.787Z</time></trkpt><trkpt lat="47.068454583333335" lon="11.4861103"><ele>1088.0</ele><time>2026-05-01T06:02:06.776Z</time></trkpt><trkpt lat="47.068288116666665" lon="11.486068933333335"><ele>1088.0</ele><time>2026-05-01T06:02:07.8Z</time></trkpt><trkpt lat="47.068118716666675" lon="11.486020799999997"><ele>1088.0</ele><time>2026-05-01T06:02:08.793Z</time></trkpt><trkpt lat="47.067948433333335" lon="11.4859572"><ele>1090.3333333333335</ele><time>2026-05-01T06:02:09.788Z</time></trkpt><trkpt lat="47.06778273333333" lon="11.485889366666665"><ele>1092.6666666666667</ele><time>2026-05-01T06:02:10.783Z</time></trkpt><trkpt lat="47.06762101666666" lon="11.485840099999999"><ele>1095.0</ele><time>2026-05-01T06:02:11.774Z</time></trkpt><trkpt lat="47.06745976666666" lon="11.48582025"><ele>1093.6666666666667</ele><time>2026-05-01T06:02:12.788Z</time></trkpt><trkpt lat="47.067296533333334" lon="11.485826716666669"><ele>1092.3333333333335</ele><time>2026-05-01T06:02:13.782Z</time></trkpt><trkpt lat="47.067134900000006" lon="11.485858466666667"><ele>1091.0</ele><time>2026-05-01T06:02:14.787Z</time></trkpt><trkpt lat="47.06697701666667" lon="11.485904000000001"><ele>1091.0</ele><time>2026-05-01T06:02:15.775Z</time></trkpt><trkpt lat="47.06681571666666" lon="11.4859557"><ele>1091.0</ele><time>2026-05-01T06:02:16.782Z</time></trkpt><trkpt lat="47.06665265" lon="11.486020883333333"><ele>1091.0</ele><time>2026-05-01T06:02:17.791Z</time></trkpt><trkpt lat="47.06649168333333" lon="11.486099683333334"><ele>1092.0</ele><time>2026-05-01T06:02:18.794Z</time></trkpt><trkpt lat="47.066328883333334" lon="11.48619196666667"><ele>1093.0</ele><time>2026-05-01T06:02:19.783Z</time></trkpt><trkpt lat="47.0661703" lon="11.486304783333331"><ele>1094.0</ele><time>2026-05-01T06:02:20.79Z</time></trkpt><trkpt lat="47.06602096666667" lon="11.4864329"><ele>1094.0</ele><time>2026-05-01T06:02:21.788Z</time></trkpt><trkpt lat="47.065887499999995" lon="11.486585849999999"><ele>1094.0</ele><time>2026-05-01T06:02:22.783Z</time></trkpt><trkpt lat="47.0657731" lon="11.48676365"><ele>1094.0</ele><time>2026-05-01T06:02:23.775Z</time></trkpt><trkpt lat="47.06567096666666" lon="11.486953833333333"><ele>1093.6666666666667</ele><time>2026-05-01T06:02:24.773Z</time></trkpt><trkpt lat="47.06557701666667" lon="11.487150333333332"><ele>1093.3333333333333</ele><time>2026-05-01T06:02:25.782Z</time></trkpt><trkpt lat="47.065491800000004" lon="11.487347033333334"><ele>1093.0</ele><time>2026-05-01T06:02:26.788Z</time></trkpt><trkpt lat="47.065410850000006" lon="11.487530250000002"><ele>1093.0</ele><time>2026-05-01T06:02:27.792Z</time></trkpt><trkpt lat="47.06533378333334" lon="11.487693816666667"><ele>1093.0</ele><time>2026-05-01T06:02:28.783Z</time></trkpt><trkpt lat="47.06526303333334" lon="11.487843000000002"><ele>1093.0</ele><time>2026-05-01T06:02:29.793Z</time></trkpt><trkpt lat="47.065187716666664" lon="11.487989133333334"><ele>1093.0</ele><time>2026-05-01T06:02:30.79Z</time></trkpt><trkpt lat="47.06509911666667" lon="11.488122283333333"><ele>1094.75</ele><time>2026-05-01T06:02:31.785Z</time></trkpt><trkpt lat="47.06498948333333" lon="11.488220316666666"><ele>1096.5</ele><time>2026-05-01T06:02:32.773Z</time></trkpt><trkpt lat="47.064863883333324" lon="11.488270533333331"><ele>1098.25</ele><time>2026-05-01T06:02:33.794Z</time></trkpt><trkpt lat="47.06473093333334" lon="11.4882747"><ele>1100.0</ele><time>2026-05-01T06:02:34.78Z</time></trkpt><trkpt lat="47.06460185703715" lon="11.488211931572563"><ele>1100.0</ele><time>2026-05-01T06:02:35.788Z</time></trkpt><trkpt lat="47.06446640598057" lon="11.488149881346711"><ele>1100.0</ele><time>2026-05-01T06:02:36.792Z</time></trkpt><trkpt lat="47.0643307407066" lon="11.488090626427903"><ele>1100.0</ele><time>2026-05-01T06:02:37.791Z</time></trkpt><trkpt lat="47.0641939948677" lon="11.488030075550709"><ele>1100.0</ele><time>2026-05-01T06:02:38.774Z</time></trkpt><trkpt lat="47.06405913080763" lon="11.487964649613955"><ele>1101.5</ele><time>2026-05-01T06:02:39.792Z</time></trkpt><trkpt lat="47.063921700317195" lon="11.487901080503663"><ele>1103.0</ele><time>2026-05-01T06:02:40.783Z</time></trkpt><trkpt lat="47.06379367505347" lon="11.487839064443556"><ele>1104.5</ele><time>2026-05-01T06:02:41.79Z</time></trkpt><trkpt lat="47.06367786271646" lon="11.487778768506187"><ele>1106.0</ele><time>2026-05-01T06:02:42.783Z</time></trkpt><trkpt lat="47.06356893660806" lon="11.487722450486759"><ele>1106.0</ele><time>2026-05-01T06:02:43.784Z</time></trkpt><trkpt lat="47.063462822694696" lon="11.487667586415883"><ele>1106.0</ele><time>2026-05-01T06:02:44.79Z</time></trkpt><trkpt lat="47.06335802212833" lon="11.48760170218678"><ele>1106.0</ele><time>2026-05-01T06:02:45.788Z</time></trkpt><trkpt lat="47.063246615070646" lon="11.487535106237075"><ele>1106.0</ele><time>2026-05-01T06:02:46.783Z</time></trkpt><trkpt lat="47.06312750000001" lon="11.487491933333335"><ele>1108.75</ele><time>2026-05-01T06:02:47.811Z</time></trkpt><trkpt lat="47.06301879999999" lon="11.487413816666667"><ele>1111.5</ele><time>2026-05-01T06:02:48.791Z</time></trkpt><trkpt lat="47.06291174999999" lon="11.487332833333335"><ele>1114.25</ele><time>2026-05-01T06:02:49.783Z</time></trkpt><trkpt lat="47.06279928333333" lon="11.487257066666666"><ele>1117.0</ele><time>2026-05-01T06:02:50.788Z</time></trkpt><trkpt lat="47.0626856" lon="11.487182199999998"><ele>1117.0</ele><time>2026-05-01T06:02:51.784Z</time></trkpt><trkpt lat="47.062569416666676" lon="11.487104700000002"><ele>1117.0</ele><time>2026-05-01T06:02:52.783Z</time></trkpt><trkpt lat="47.06245600634653" lon="11.486994505307674"><ele>1117.0</ele><time>2026-05-01T06:02:53.788Z</time></trkpt><trkpt lat="47.062326377240915" lon="11.486907216944683"><ele>1117.0</ele><time>2026-05-01T06:02:54.788Z</time></trkpt><trkpt lat="47.062190735708086" lon="11.486820200797599"><ele>1117.6666666666665</ele><time>2026-05-01T06:02:55.785Z</time></trkpt><trkpt lat="47.06204924948269" lon="11.48673197107667"><ele>1118.3333333333333</ele><time>2026-05-01T06:02:56.783Z</time></trkpt><trkpt lat="47.06190248289632" lon="11.486644752705077"><ele>1119.0</ele><time>2026-05-01T06:02:57.79Z</time></trkpt><trkpt lat="47.06175218519991" lon="11.486555628092207"><ele>1125.6666666666667</ele><time>2026-05-01T06:02:58.785Z</time></trkpt><trkpt lat="47.06159723486792" lon="11.486465421415085"><ele>1132.3333333333335</ele><time>2026-05-01T06:02:59.796Z</time></trkpt><trkpt lat="47.06143652183073" lon="11.486373731925955"><ele>1139.0</ele><time>2026-05-01T06:03:00.778Z</time></trkpt><trkpt lat="47.06127349691566" lon="11.486278919702523"><ele>1134.6666666666667</ele><time>2026-05-01T06:03:01.784Z</time></trkpt><trkpt lat="47.06110932651815" lon="11.486184177052891"><ele>1130.3333333333333</ele><time>2026-05-01T06:03:02.792Z</time></trkpt><trkpt lat="47.06094063443384" lon="11.486088360924207"><ele>1126.0</ele><time>2026-05-01T06:03:03.789Z</time></trkpt><trkpt lat="47.06077094440008" lon="11.485988915006489"><ele>1122.0</ele><time>2026-05-01T06:03:04.783Z</time></trkpt><trkpt lat="47.060600439375584" lon="11.485888398121894"><ele>1118.0</ele><time>2026-05-01T06:03:05.773Z</time></trkpt><trkpt lat="47.06042718512545" lon="11.485789712745863"><ele>1114.0</ele><time>2026-05-01T06:03:06.795Z</time></trkpt><trkpt lat="47.06025186538238" lon="11.48568579896866"><ele>1114.0</ele><time>2026-05-01T06:03:07.784Z</time></trkpt><trkpt lat="47.0600673637724" lon="11.485583175879178"><ele>1114.0</ele><time>2026-05-01T06:03:08.793Z</time></trkpt><trkpt lat="47.05987176303777" lon="11.485517357193714"><ele>1114.0</ele><time>2026-05-01T06:03:09.794Z</time></trkpt><trkpt lat="47.05966626666667" lon="11.485490316666668"><ele>1114.0</ele><time>2026-05-01T06:03:10.783Z</time></trkpt><trkpt lat="47.05945676666666" lon="11.485448883333333"><ele>1114.0</ele><time>2026-05-01T06:03:11.788Z</time></trkpt><trkpt lat="47.05924421666667" lon="11.48541563333333"><ele>1114.0</ele><time>2026-05-01T06:03:12.788Z</time></trkpt><trkpt lat="47.05903549999999" lon="11.48538733333333"><ele>1116.0</ele><time>2026-05-01T06:03:13.797Z</time></trkpt><trkpt lat="47.05882556666667" lon="11.485359"><ele>1118.0</ele><time>2026-05-01T06:03:14.773Z</time></trkpt><trkpt lat="47.05861795000001" lon="11.48533925"><ele>1120.0</ele><time>2026-05-01T06:03:15.793Z</time></trkpt><trkpt lat="47.05841366666667" lon="11.485334"><ele>1120.6666666666665</ele><time>2026-05-01T06:03:16.783Z</time></trkpt><trkpt lat="47.058215350000005" lon="11.485340366666666"><ele>1121.3333333333333</ele><time>2026-05-01T06:03:17.788Z</time></trkpt><trkpt lat="47.0580282" lon="11.485368766666666"><ele>1122.0</ele><time>2026-05-01T06:03:18.79Z</time></trkpt><trkpt lat="47.05785256666667" lon="11.485403533333331"><ele>1122.0</ele><time>2026-05-01T06:03:19.787Z</time></trkpt><trkpt lat="47.05769913333334" lon="11.485434716666669"><ele>1122.0</ele><time>2026-05-01T06:03:20.788Z</time></trkpt><trkpt lat="47.057562866666665" lon="11.485458000000003"><ele>1122.0</ele><time>2026-05-01T06:03:21.792Z</time></trkpt><trkpt lat="47.05742528333334" lon="11.485478083333332"><ele>1122.0</ele><time>2026-05-01T06:03:22.797Z</time></trkpt><trkpt lat="47.05729088333333" lon="11.485501216666668"><ele>1122.0</ele><time>2026-05-01T06:03:23.795Z</time></trkpt><trkpt lat="47.05715595" lon="11.48552693333333"><ele>1122.0</ele><time>2026-05-01T06:03:24.792Z</time></trkpt><trkpt lat="47.05702513333334" lon="11.4855328"><ele>1122.0</ele><time>2026-05-01T06:03:25.784Z</time></trkpt><trkpt lat="47.056893800000005" lon="11.485513566666668"><ele>1122.0</ele><time>2026-05-01T06:03:26.788Z</time></trkpt><trkpt lat="47.05675554999999" lon="11.48546605"><ele>1122.6666666666667</ele><time>2026-05-01T06:03:27.789Z</time></trkpt><trkpt lat="47.05662276657967" lon="11.485364898722572"><ele>1123.3333333333335</ele><time>2026-05-01T06:03:28.787Z</time></trkpt><trkpt lat="47.05648096078583" lon="11.48527934605264"><ele>1124.0</ele><time>2026-05-01T06:03:29.788Z</time></trkpt><trkpt lat="47.056335373948436" lon="11.485191837345624"><ele>1124.0</ele><time>2026-05-01T06:03:30.793Z</time></trkpt><trkpt lat="47.056184009379315" lon="11.485101486439461"><ele>1124.0</ele><time>2026-05-01T06:03:31.795Z</time></trkpt><trkpt lat="47.05602065" lon="11.485026283333331"><ele>1124.0</ele><time>2026-05-01T06:03:32.791Z</time></trkpt><trkpt lat="47.0558618" lon="11.484922300000003"><ele>1127.3333333333335</ele><time>2026-05-01T06:03:33.788Z</time></trkpt><trkpt lat="47.055697300000006" lon="11.484821466666666"><ele>1130.6666666666667</ele><time>2026-05-01T06:03:34.797Z</time></trkpt><trkpt lat="47.05552771666667" lon="11.484739850000002"><ele>1134.0</ele><time>2026-05-01T06:03:35.788Z</time></trkpt><trkpt lat="47.05535393333332" lon="11.484696566666665"><ele>1134.0</ele><time>2026-05-01T06:03:36.789Z</time></trkpt><trkpt lat="47.05517636666667" lon="11.484693"><ele>1134.0</ele><time>2026-05-01T06:03:37.776Z</time></trkpt><trkpt lat="47.054999349999996" lon="11.484705716666667"><ele>1134.0</ele><time>2026-05-01T06:03:38.784Z</time></trkpt><trkpt lat="47.05482008333333" lon="11.484726033333335"><ele>1131.0</ele><time>2026-05-01T06:03:39.787Z</time></trkpt><trkpt lat="47.05464341666667" lon="11.484761383333334"><ele>1128.0</ele><time>2026-05-01T06:03:40.785Z</time></trkpt><trkpt lat="47.05447145" lon="11.48481865"><ele>1125.0</ele><time>2026-05-01T06:03:41.788Z</time></trkpt><trkpt lat="47.05430101666668" lon="11.484896616666667"><ele>1125.0</ele><time>2026-05-01T06:03:42.792Z</time></trkpt><trkpt lat="47.05413468333333" lon="11.485004683333335"><ele>1125.0</ele><time>2026-05-01T06:03:43.797Z</time></trkpt><trkpt lat="47.053974116666666" lon="11.485134699999998"><ele>1125.0</ele><time>2026-05-01T06:03:44.789Z</time></trkpt><trkpt lat="47.05382034999999" lon="11.48529145"><ele>1132.0</ele><time>2026-05-01T06:03:45.791Z</time></trkpt><trkpt lat="47.053677016666676" lon="11.485471133333332"><ele>1139.0</ele><time>2026-05-01T06:03:46.783Z</time></trkpt><trkpt lat="47.05353508333333" lon="11.485649249999998"><ele>1146.0</ele><time>2026-05-01T06:03:47.788Z</time></trkpt><trkpt lat="47.05338448333333" lon="11.485806466666668"><ele>1147.6666666666667</ele><time>2026-05-01T06:03:48.788Z</time></trkpt><trkpt lat="47.05322071666666" lon="11.485931583333334"><ele>1149.3333333333335</ele><time>2026-05-01T06:03:49.782Z</time></trkpt><trkpt lat="47.053048450000006" lon="11.486022716666666"><ele>1151.0</ele><time>2026-05-01T06:03:50.791Z</time></trkpt><trkpt lat="47.05288098333334" lon="11.4860793"><ele>1151.0</ele><time>2026-05-01T06:03:51.798Z</time></trkpt><trkpt lat="47.05271296666667" lon="11.486101333333334"><ele>1151.0</ele><time>2026-05-01T06:03:52.787Z</time></trkpt><trkpt lat="47.05254286666667" lon="11.486097"><ele>1151.0</ele><time>2026-05-01T06:03:53.792Z</time></trkpt><trkpt lat="47.052381033333326" lon="11.486073083333334"><ele>1147.0</ele><time>2026-05-01T06:03:54.794Z</time></trkpt><trkpt lat="47.0522236" lon="11.4860258"><ele>1143.0</ele><time>2026-05-01T06:03:55.783Z</time></trkpt><trkpt lat="47.05206636666667" lon="11.485954933333336"><ele>1139.0</ele><time>2026-05-01T06:03:56.776Z</time></trkpt><trkpt lat="47.051912533333336" lon="11.48587011666667"><ele>1139.0</ele><time>2026-05-01T06:03:57.79Z</time></trkpt><trkpt lat="47.05176231666666" lon="11.485780233333333"><ele>1139.0</ele><time>2026-05-01T06:03:58.785Z</time></trkpt><trkpt lat="47.05161111666666" lon="11.485689733333333"><ele>1139.0</ele><time>2026-05-01T06:03:59.794Z</time></trkpt><trkpt lat="47.05145756666668" lon="11.485599016666667"><ele>1139.0</ele><time>2026-05-01T06:04:00.773Z</time></trkpt><trkpt lat="47.05129698333334" lon="11.485506616666664"><ele>1139.0</ele><time>2026-05-01T06:04:01.783Z</time></trkpt><trkpt lat="47.05113842755685" lon="11.485391722788771"><ele>1139.0</ele><time>2026-05-01T06:04:02.789Z</time></trkpt><trkpt lat="47.050976071334254" lon="11.485295901327039"><ele>1139.0</ele><time>2026-05-01T06:04:03.792Z</time></trkpt><trkpt lat="47.050813473171466" lon="11.485200862969858"><ele>1139.0</ele><time>2026-05-01T06:04:04.787Z</time></trkpt><trkpt lat="47.050648849999995" lon="11.485129633333335"><ele>1139.0</ele><time>2026-05-01T06:04:05.788Z</time></trkpt><trkpt lat="47.050503750000004" lon="11.485033733333333"><ele>1138.0</ele><time>2026-05-01T06:04:06.788Z</time></trkpt><trkpt lat="47.05035136666667" lon="11.484961883333336"><ele>1137.0</ele><time>2026-05-01T06:04:07.797Z</time></trkpt><trkpt lat="47.05018973333334" lon="11.484918016666667"><ele>1136.0</ele><time>2026-05-01T06:04:08.773Z</time></trkpt><trkpt lat="47.05002691666667" lon="11.484892766666666"><ele>1137.3333333333335</ele><time>2026-05-01T06:04:09.795Z</time></trkpt><trkpt lat="47.0498629" lon="11.484880566666668"><ele>1138.6666666666667</ele><time>2026-05-01T06:04:10.774Z</time></trkpt><trkpt lat="47.049699" lon="11.484869733333333"><ele>1140.0</ele><time>2026-05-01T06:04:11.789Z</time></trkpt><trkpt lat="47.04953560000001" lon="11.48484375"><ele>1140.0</ele><time>2026-05-01T06:04:12.795Z</time></trkpt><trkpt lat="47.049374500000006" lon="11.484802266666668"><ele>1140.0</ele><time>2026-05-01T06:04:13.789Z</time></trkpt><trkpt lat="47.04922246666666" lon="11.484736566666669"><ele>1140.0</ele><time>2026-05-01T06:04:14.792Z</time></trkpt><trkpt lat="47.04907773333333" lon="11.484646716666669"><ele>1143.6666666666667</ele><time>2026-05-01T06:04:15.792Z</time></trkpt><trkpt lat="47.04893518333333" lon="11.484546433333332"><ele>1147.3333333333335</ele><time>2026-05-01T06:04:16.783Z</time></trkpt><trkpt lat="47.04879576666667" lon="11.484435800000002"><ele>1151.0</ele><time>2026-05-01T06:04:17.789Z</time></trkpt><trkpt lat="47.04865228333333" lon="11.484323933333334"><ele>1151.0</ele><time>2026-05-01T06:04:18.783Z</time></trkpt><trkpt lat="47.04850663333333" lon="11.484204733333335"><ele>1151.0</ele><time>2026-05-01T06:04:19.797Z</time></trkpt><trkpt lat="47.04835891666667" lon="11.484077316666665"><ele>1151.0</ele><time>2026-05-01T06:04:20.788Z</time></trkpt><trkpt lat="47.04820670000001" lon="11.483951266666667"><ele>1158.3333333333335</ele><time>2026-05-01T06:04:21.792Z</time></trkpt><trkpt lat="47.04805058333333" lon="11.483834316666664"><ele>1165.6666666666667</ele><time>2026-05-01T06:04:22.784Z</time></trkpt><trkpt lat="47.047885666666666" lon="11.483733283333333"><ele>1173.0</ele><time>2026-05-01T06:04:23.809Z</time></trkpt><trkpt lat="47.04771181666666" lon="11.483660983333335"><ele>1169.6666666666667</ele><time>2026-05-01T06:04:24.792Z</time></trkpt><trkpt lat="47.04753038333334" lon="11.483614716666667"><ele>1166.3333333333335</ele><time>2026-05-01T06:04:25.794Z</time></trkpt><trkpt lat="47.04734436666666" lon="11.483589316666665"><ele>1163.0</ele><time>2026-05-01T06:04:26.788Z</time></trkpt><trkpt lat="47.047162283333336" lon="11.48358185"><ele>1163.0</ele><time>2026-05-01T06:04:27.786Z</time></trkpt><trkpt lat="47.04698871666666" lon="11.483571916666664"><ele>1163.0</ele><time>2026-05-01T06:04:28.794Z</time></trkpt><trkpt lat="47.04682758333334" lon="11.483557583333333"><ele>1163.0</ele><time>2026-05-01T06:04:29.788Z</time></trkpt><trkpt lat="47.04667663333333" lon="11.483542183333334"><ele>1166.0</ele><time>2026-05-01T06:04:30.788Z</time></trkpt><trkpt lat="47.046531083333335" lon="11.483519183333332"><ele>1169.0</ele><time>2026-05-01T06:04:31.784Z</time></trkpt><trkpt lat="47.04638771666667" lon="11.4834966"><ele>1172.0</ele><time>2026-05-01T06:04:32.782Z</time></trkpt><trkpt lat="47.04624893333333" lon="11.48347585"><ele>1175.0</ele><time>2026-05-01T06:04:33.788Z</time></trkpt><trkpt lat="47.04611495" lon="11.483452783333334"><ele>1175.0</ele><time>2026-05-01T06:04:34.783Z</time></trkpt><trkpt lat="47.04598599999999" lon="11.483428683333333"><ele>1175.0</ele><time>2026-05-01T06:04:35.788Z</time></trkpt><trkpt lat="47.04586429999999" lon="11.4834131"><ele>1175.0</ele><time>2026-05-01T06:04:36.777Z</time></trkpt><trkpt lat="47.04574793333333" lon="11.483415749999997"><ele>1175.0</ele><time>2026-05-01T06:04:37.796Z</time></trkpt><trkpt lat="47.04563426666667" lon="11.483433583333333"><ele>1175.8</ele><time>2026-05-01T06:04:38.775Z</time></trkpt><trkpt lat="47.04552653333334" lon="11.483465483333335"><ele>1176.6</ele><time>2026-05-01T06:04:39.788Z</time></trkpt><trkpt lat="47.04542413333334" lon="11.483508749999999"><ele>1177.4</ele><time>2026-05-01T06:04:40.783Z</time></trkpt><trkpt lat="47.04532303333333" lon="11.483560299999999"><ele>1178.2</ele><time>2026-05-01T06:04:41.774Z</time></trkpt><trkpt lat="47.045225" lon="11.48361455"><ele>1179.0</ele><time>2026-05-01T06:04:42.779Z</time></trkpt><trkpt lat="47.04512706666666" lon="11.483665783333333"><ele>1179.0</ele><time>2026-05-01T06:04:43.797Z</time></trkpt><trkpt lat="47.04502588333333" lon="11.483708233333333"><ele>1179.0</ele><time>2026-05-01T06:04:44.792Z</time></trkpt><trkpt lat="47.044918016666664" lon="11.483723933333334"><ele>1179.0</ele><time>2026-05-01T06:04:45.795Z</time></trkpt><trkpt lat="47.044807983333335" lon="11.483714183333333"><ele>1179.0</ele><time>2026-05-01T06:04:46.785Z</time></trkpt><trkpt lat="47.0447102" lon="11.483674799999998"><ele>1179.0</ele><time>2026-05-01T06:04:47.788Z</time></trkpt><trkpt lat="47.04462183333334" lon="11.483605066666666"><ele>1176.0</ele><time>2026-05-01T06:04:48.787Z</time></trkpt><trkpt lat="47.044539216666664" lon="11.483505016666667"><ele>1173.0</ele><time>2026-05-01T06:04:49.783Z</time></trkpt><trkpt lat="47.04446326666666" lon="11.483385533333335"><ele>1170.0</ele><time>2026-05-01T06:04:50.773Z</time></trkpt><trkpt lat="47.04438903333333" lon="11.483258916666667"><ele>1167.0</ele><time>2026-05-01T06:04:51.78Z</time></trkpt><trkpt lat="47.044307333333336" lon="11.483134566666667"><ele>1167.0</ele><time>2026-05-01T06:04:52.783Z</time></trkpt><trkpt lat="47.044217333333336" lon="11.483026983333332"><ele>1167.0</ele><time>2026-05-01T06:04:53.788Z</time></trkpt><trkpt lat="47.044118049999994" lon="11.482933299999997"><ele>1167.0</ele><time>2026-05-01T06:04:54.787Z</time></trkpt><trkpt lat="47.04401216666667" lon="11.482861666666668"><ele>1167.0</ele><time>2026-05-01T06:04:55.788Z</time></trkpt><trkpt lat="47.04390088333333" lon="11.482814916666666"><ele>1165.6</ele><time>2026-05-01T06:04:56.788Z</time></trkpt><trkpt lat="47.0437872" lon="11.482787183333334"><ele>1164.2</ele><time>2026-05-01T06:04:57.795Z</time></trkpt><trkpt lat="47.043673716666675" lon="11.482783300000001"><ele>1162.8</ele><time>2026-05-01T06:04:58.797Z</time></trkpt><trkpt lat="47.04356493333333" lon="11.482789799999999"><ele>1161.4</ele><time>2026-05-01T06:04:59.794Z</time></trkpt><trkpt lat="47.043455449999996" lon="11.482794366666669"><ele>1160.0</ele><time>2026-05-01T06:05:00.779Z</time></trkpt><trkpt lat="47.04334561666666" lon="11.482800933333332"><ele>1160.0</ele><time>2026-05-01T06:05:01.783Z</time></trkpt><trkpt lat="47.0432348" lon="11.482806816666667"><ele>1160.0</ele><time>2026-05-01T06:05:02.788Z</time></trkpt><trkpt lat="47.04312446666666" lon="11.482805983333332"><ele>1160.0</ele><time>2026-05-01T06:05:03.789Z</time></trkpt><trkpt lat="47.04301323333334" lon="11.482804633333334"><ele>1160.0</ele><time>2026-05-01T06:05:04.789Z</time></trkpt><trkpt lat="47.042899233333344" lon="11.482813933333334"><ele>1160.0</ele><time>2026-05-01T06:05:05.788Z</time></trkpt><trkpt lat="47.04278441666667" lon="11.48282295"><ele>1160.0</ele><time>2026-05-01T06:05:06.788Z</time></trkpt><trkpt lat="47.04266668333333" lon="11.482830883333333"><ele>1160.0</ele><time>2026-05-01T06:05:07.784Z</time></trkpt><trkpt lat="47.04254733333333" lon="11.482835466666664"><ele>1160.0</ele><time>2026-05-01T06:05:08.792Z</time></trkpt><trkpt lat="47.04242738333334" lon="11.482835316666668"><ele>1160.0</ele><time>2026-05-01T06:05:09.788Z</time></trkpt><trkpt lat="47.04231276666666" lon="11.482829983333332"><ele>1160.0</ele><time>2026-05-01T06:05:10.797Z</time></trkpt><trkpt lat="47.042200050000005" lon="11.482814250000002"><ele>1160.0</ele><time>2026-05-01T06:05:11.789Z</time></trkpt><trkpt lat="47.042084800000005" lon="11.482792816666665"><ele>1160.0</ele><time>2026-05-01T06:05:12.791Z</time></trkpt><trkpt lat="47.04196466666667" lon="11.482776650000002"><ele>1160.0</ele><time>2026-05-01T06:05:13.777Z</time></trkpt><trkpt lat="47.041837183333335" lon="11.482754133333332"><ele>1160.0</ele><time>2026-05-01T06:05:14.795Z</time></trkpt><trkpt lat="47.041705466666656" lon="11.482726416666667"><ele>1160.0</ele><time>2026-05-01T06:05:15.788Z</time></trkpt><trkpt lat="47.04158463333333" lon="11.4826995"><ele>1160.0</ele><time>2026-05-01T06:05:16.785Z</time></trkpt><trkpt lat="47.04146726666666" lon="11.482669716666665"><ele>1160.0</ele><time>2026-05-01T06:05:17.789Z</time></trkpt><trkpt lat="47.041350349999995" lon="11.48263415"><ele>1161.75</ele><time>2026-05-01T06:05:18.784Z</time></trkpt><trkpt lat="47.041237583333334" lon="11.482593349999998"><ele>1163.5</ele><time>2026-05-01T06:05:19.799Z</time></trkpt><trkpt lat="47.0411239" lon="11.482547233333333"><ele>1165.25</ele><time>2026-05-01T06:05:20.788Z</time></trkpt><trkpt lat="47.04100964999999" lon="11.482497733333332"><ele>1167.0</ele><time>2026-05-01T06:05:21.789Z</time></trkpt><trkpt lat="47.040899599999996" lon="11.482449483333335"><ele>1169.5</ele><time>2026-05-01T06:05:22.786Z</time></trkpt><trkpt lat="47.04079266666666" lon="11.482396383333331"><ele>1172.0</ele><time>2026-05-01T06:05:23.774Z</time></trkpt><trkpt lat="47.04068521666667" lon="11.482339033333336"><ele>1174.5</ele><time>2026-05-01T06:05:24.794Z</time></trkpt><trkpt lat="47.04057676666666" lon="11.4822812"><ele>1177.0</ele><time>2026-05-01T06:05:25.783Z</time></trkpt><trkpt lat="47.04046673333334" lon="11.482228333333335"><ele>1177.0</ele><time>2026-05-01T06:05:26.788Z</time></trkpt><trkpt lat="47.040358166666664" lon="11.482175666666668"><ele>1177.0</ele><time>2026-05-01T06:05:27.774Z</time></trkpt><trkpt lat="47.040244900000005" lon="11.482115316666667"><ele>1177.0</ele><time>2026-05-01T06:05:28.776Z</time></trkpt><trkpt lat="47.040143432814396" lon="11.482019514926163"><ele>1177.0</ele><time>2026-05-01T06:05:29.79Z</time></trkpt><trkpt lat="47.04005091782799" lon="11.48192996628419"><ele>1178.6</ele><time>2026-05-01T06:05:30.775Z</time></trkpt><trkpt lat="47.03997941536959" lon="11.481822740845578"><ele>1180.2</ele><time>2026-05-01T06:05:31.782Z</time></trkpt><trkpt lat="47.03991930227615" lon="11.48170397185396"><ele>1181.8</ele><time>2026-05-01T06:05:32.796Z</time></trkpt><trkpt lat="47.03986671588228" lon="11.481565456580592"><ele>1183.4</ele><time>2026-05-01T06:05:33.792Z</time></trkpt><trkpt lat="47.0398183269655" lon="11.481420766296525"><ele>1185.0</ele><time>2026-05-01T06:05:34.783Z</time></trkpt><trkpt lat="47.039772126061784" lon="11.481268631272687"><ele>1182.5</ele><time>2026-05-01T06:05:35.794Z</time></trkpt><trkpt lat="47.039719480253716" lon="11.481119031513606"><ele>1180.0</ele><time>2026-05-01T06:05:36.773Z</time></trkpt><trkpt lat="47.039665015156395" lon="11.480976958518072"><ele>1177.5</ele><time>2026-05-01T06:05:37.806Z</time></trkpt><trkpt lat="47.039609982424466" lon="11.48083340900486"><ele>1175.0</ele><time>2026-05-01T06:05:38.789Z</time></trkpt><trkpt lat="47.039532433333335" lon="11.480706966666666"><ele>1175.0</ele><time>2026-05-01T06:05:39.794Z</time></trkpt><trkpt lat="47.03948236592301" lon="11.480546655669539"><ele>1175.0</ele><time>2026-05-01T06:05:40.784Z</time></trkpt><trkpt lat="47.03941609150776" lon="11.480394388510577"><ele>1175.0</ele><time>2026-05-01T06:05:41.792Z</time></trkpt><trkpt lat="47.0393474921522" lon="11.480236779824843"><ele>1175.0</ele><time>2026-05-01T06:05:42.791Z</time></trkpt><trkpt lat="47.03926338333334" lon="11.480086600000002"><ele>1174.75</ele><time>2026-05-01T06:05:43.794Z</time></trkpt><trkpt lat="47.039191" lon="11.479921249999999"><ele>1174.5</ele><time>2026-05-01T06:05:44.773Z</time></trkpt><trkpt lat="47.03911726666667" lon="11.479761733333332"><ele>1174.25</ele><time>2026-05-01T06:05:45.794Z</time></trkpt><trkpt lat="47.039043766666666" lon="11.479616383333333"><ele>1174.0</ele><time>2026-05-01T06:05:46.781Z</time></trkpt><trkpt lat="47.03898269684134" lon="11.479477108116482"><ele>1174.5</ele><time>2026-05-01T06:05:47.79Z</time></trkpt><trkpt lat="47.03891385925772" lon="11.479379468546478"><ele>1175.0</ele><time>2026-05-01T06:05:48.791Z</time></trkpt><trkpt lat="47.03883711666668" lon="11.47932755"><ele>1175.5</ele><time>2026-05-01T06:05:49.784Z</time></trkpt><trkpt lat="47.038776483333336" lon="11.479268283333333"><ele>1176.0</ele><time>2026-05-01T06:05:50.793Z</time></trkpt><trkpt lat="47.03871246666666" lon="11.47921725"><ele>1176.5</ele><time>2026-05-01T06:05:51.791Z</time></trkpt><trkpt lat="47.0386425" lon="11.479172816666669"><ele>1177.0</ele><time>2026-05-01T06:05:52.784Z</time></trkpt><trkpt lat="47.038565418012865" lon="11.479115529842275"><ele>1177.0</ele><time>2026-05-01T06:05:53.794Z</time></trkpt><trkpt lat="47.03847534247183" lon="11.479086477755459"><ele>1177.0</ele><time>2026-05-01T06:05:54.783Z</time></trkpt><trkpt lat="47.03837691666666" lon="11.479094816666668"><ele>1177.0</ele><time>2026-05-01T06:05:55.786Z</time></trkpt><trkpt lat="47.03827471666667" lon="11.47908871666667"><ele>1177.0</ele><time>2026-05-01T06:05:56.788Z</time></trkpt><trkpt lat="47.0381685" lon="11.479093583333334"><ele>1177.0</ele><time>2026-05-01T06:05:57.788Z</time></trkpt><trkpt lat="47.038059516666664" lon="11.479102916666667"><ele>1177.25</ele><time>2026-05-01T06:05:58.783Z</time></trkpt><trkpt lat="47.03794686666667" lon="11.479112133333334"><ele>1177.5</ele><time>2026-05-01T06:05:59.809Z</time></trkpt><trkpt lat="47.03782811666667" lon="11.47911785"><ele>1177.75</ele><time>2026-05-01T06:06:00.788Z</time></trkpt><trkpt lat="47.0377063" lon="11.479121083333332"><ele>1178.0</ele><time>2026-05-01T06:06:01.783Z</time></trkpt><trkpt lat="47.03757911666667" lon="11.479129266666666"><ele>1178.25</ele><time>2026-05-01T06:06:02.792Z</time></trkpt><trkpt lat="47.03745065" lon="11.479144899999998"><ele>1178.5</ele><time>2026-05-01T06:06:03.788Z</time></trkpt><trkpt lat="47.037333933333336" lon="11.479176366666664"><ele>1178.75</ele><time>2026-05-01T06:06:04.786Z</time></trkpt><trkpt lat="47.03722453333333" lon="11.4792209"><ele>1179.0</ele><time>2026-05-01T06:06:05.79Z</time></trkpt><trkpt lat="47.037117766666675" lon="11.479278050000001"><ele>1179.0</ele><time>2026-05-01T06:06:06.774Z</time></trkpt><trkpt lat="47.037013916666666" lon="11.479349216666666"><ele>1179.0</ele><time>2026-05-01T06:06:07.786Z</time></trkpt><trkpt lat="47.036916366666674" lon="11.479431949999999"><ele>1179.0</ele><time>2026-05-01T06:06:08.79Z</time></trkpt><trkpt lat="47.03682298333333" lon="11.479527050000002"><ele>1179.0</ele><time>2026-05-01T06:06:09.792Z</time></trkpt><trkpt lat="47.03673139999999" lon="11.479637966666667"><ele>1179.75</ele><time>2026-05-01T06:06:10.785Z</time></trkpt><trkpt lat="47.03663795000001" lon="11.479764433333331"><ele>1180.5</ele><time>2026-05-01T06:06:11.803Z</time></trkpt><trkpt lat="47.03654241666667" lon="11.479892249999999"><ele>1181.25</ele><time>2026-05-01T06:06:12.784Z</time></trkpt><trkpt lat="47.036443866666666" lon="11.480017533333333"><ele>1182.0</ele><time>2026-05-01T06:06:13.789Z</time></trkpt><trkpt lat="47.036342299999994" lon="11.480143850000003"><ele>1182.0</ele><time>2026-05-01T06:06:14.793Z</time></trkpt><trkpt lat="47.03624016666666" lon="11.480274149999998"><ele>1182.0</ele><time>2026-05-01T06:06:15.794Z</time></trkpt><trkpt lat="47.03613776666666" lon="11.480404583333334"><ele>1182.0</ele><time>2026-05-01T06:06:16.782Z</time></trkpt><trkpt lat="47.03603351666667" lon="11.480538966666666"><ele>1182.0</ele><time>2026-05-01T06:06:17.773Z</time></trkpt><trkpt lat="47.035928116666675" lon="11.480681016666665"><ele>1181.75</ele><time>2026-05-01T06:06:18.774Z</time></trkpt><trkpt lat="47.03582758333334" lon="11.480829850000001"><ele>1181.5</ele><time>2026-05-01T06:06:19.783Z</time></trkpt><trkpt lat="47.03573728333334" lon="11.480989366666666"><ele>1181.25</ele><time>2026-05-01T06:06:20.788Z</time></trkpt><trkpt lat="47.03566108333332" lon="11.481157949999998"><ele>1181.0</ele><time>2026-05-01T06:06:21.793Z</time></trkpt><trkpt lat="47.03559765" lon="11.481334850000001"><ele>1184.75</ele><time>2026-05-01T06:06:22.784Z</time></trkpt><trkpt lat="47.035543366666666" lon="11.481510616666666"><ele>1188.5</ele><time>2026-05-01T06:06:23.792Z</time></trkpt><trkpt lat="47.035494150000005" lon="11.481690966666667"><ele>1192.25</ele><time>2026-05-01T06:06:24.788Z</time></trkpt><trkpt lat="47.03544913333334" lon="11.481872533333336"><ele>1196.0</ele><time>2026-05-01T06:06:25.783Z</time></trkpt><trkpt lat="47.03539811666666" lon="11.482047983333333"><ele>1195.5</ele><time>2026-05-01T06:06:26.777Z</time></trkpt><trkpt lat="47.0353358" lon="11.482221250000002"><ele>1195.0</ele><time>2026-05-01T06:06:27.795Z</time></trkpt><trkpt lat="47.03526278333334" lon="11.482389433333333"><ele>1194.5</ele><time>2026-05-01T06:06:28.784Z</time></trkpt><trkpt lat="47.03518068333333" lon="11.482550783333334"><ele>1194.0</ele><time>2026-05-01T06:06:29.79Z</time></trkpt><trkpt lat="47.035089850000006" lon="11.482705783333332"><ele>1194.0</ele><time>2026-05-01T06:06:30.787Z</time></trkpt><trkpt lat="47.03499575000001" lon="11.482860416666664"><ele>1194.0</ele><time>2026-05-01T06:06:31.787Z</time></trkpt><trkpt lat="47.03489711666666" lon="11.483016566666667"><ele>1194.0</ele><time>2026-05-01T06:06:32.789Z</time></trkpt><trkpt lat="47.03480015" lon="11.48317485"><ele>1194.0</ele><time>2026-05-01T06:06:33.788Z</time></trkpt><trkpt lat="47.03470416666667" lon="11.483336716666669"><ele>1195.5</ele><time>2026-05-01T06:06:34.786Z</time></trkpt><trkpt lat="47.0346083" lon="11.48349875"><ele>1197.0</ele><time>2026-05-01T06:06:35.788Z</time></trkpt><trkpt lat="47.03451071666667" lon="11.483659283333335"><ele>1198.5</ele><time>2026-05-01T06:06:36.792Z</time></trkpt><trkpt lat="47.03440723333333" lon="11.483813416666665"><ele>1200.0</ele><time>2026-05-01T06:06:37.787Z</time></trkpt><trkpt lat="47.03429533333333" lon="11.483957316666666"><ele>1200.0</ele><time>2026-05-01T06:06:38.788Z</time></trkpt><trkpt lat="47.03417195" lon="11.484077866666667"><ele>1200.0</ele><time>2026-05-01T06:06:39.789Z</time></trkpt><trkpt lat="47.034044300000005" lon="11.484187200000001"><ele>1200.0</ele><time>2026-05-01T06:06:40.788Z</time></trkpt><trkpt lat="47.03392276666667" lon="11.484306483333334"><ele>1200.0</ele><time>2026-05-01T06:06:41.788Z</time></trkpt><trkpt lat="47.033801966666665" lon="11.484424933333333"><ele>1200.5</ele><time>2026-05-01T06:06:42.79Z</time></trkpt><trkpt lat="47.03368139999999" lon="11.484537983333333"><ele>1201.0</ele><time>2026-05-01T06:06:43.785Z</time></trkpt><trkpt lat="47.033563666666666" lon="11.484651016666664"><ele>1201.5</ele><time>2026-05-01T06:06:44.792Z</time></trkpt><trkpt lat="47.03344873333334" lon="11.484760950000002"><ele>1202.0</ele><time>2026-05-01T06:06:45.793Z</time></trkpt><trkpt lat="47.03333928333333" lon="11.484870766666665"><ele>1210.25</ele><time>2026-05-01T06:06:46.783Z</time></trkpt><trkpt lat="47.033234650000004" lon="11.484981916666667"><ele>1218.5</ele><time>2026-05-01T06:06:47.789Z</time></trkpt><trkpt lat="47.03313535" lon="11.485101266666668"><ele>1226.75</ele><time>2026-05-01T06:06:48.788Z</time></trkpt><trkpt lat="47.03304198333334" lon="11.485230883333333"><ele>1235.0</ele><time>2026-05-01T06:06:49.778Z</time></trkpt><trkpt lat="47.032957599999996" lon="11.485372150000002"><ele>1228.0</ele><time>2026-05-01T06:06:50.783Z</time></trkpt><trkpt lat="47.0328721" lon="11.485519250000001"><ele>1221.0</ele><time>2026-05-01T06:06:51.789Z</time></trkpt><trkpt lat="47.03278873333334" lon="11.485669900000001"><ele>1214.0</ele><time>2026-05-01T06:06:52.783Z</time></trkpt><trkpt lat="47.03270456666667" lon="11.485824633333335"><ele>1207.0</ele><time>2026-05-01T06:06:53.788Z</time></trkpt><trkpt lat="47.03261493333332" lon="11.485979716666668"><ele>1207.0</ele><time>2026-05-01T06:06:54.792Z</time></trkpt><trkpt lat="47.032519900000004" lon="11.486129100000003"><ele>1207.0</ele><time>2026-05-01T06:06:55.797Z</time></trkpt><trkpt lat="47.03241679999999" lon="11.486273333333335"><ele>1207.0</ele><time>2026-05-01T06:06:56.788Z</time></trkpt><trkpt lat="47.03230471666667" lon="11.4864061"><ele>1207.0</ele><time>2026-05-01T06:06:57.789Z</time></trkpt><trkpt lat="47.03218733333333" lon="11.48653778333333"><ele>1207.0</ele><time>2026-05-01T06:06:58.785Z</time></trkpt><trkpt lat="47.032075" lon="11.486680316666666"><ele>1207.0</ele><time>2026-05-01T06:06:59.788Z</time></trkpt><trkpt lat="47.0319639" lon="11.486827233333333"><ele>1207.0</ele><time>2026-05-01T06:07:00.792Z</time></trkpt><trkpt lat="47.031857366666664" lon="11.486981349999999"><ele>1207.0</ele><time>2026-05-01T06:07:01.786Z</time></trkpt><trkpt lat="47.03176315000001" lon="11.487144883333333"><ele>1207.0</ele><time>2026-05-01T06:07:02.788Z</time></trkpt><trkpt lat="47.03166856666666" lon="11.487308816666665"><ele>1207.0</ele><time>2026-05-01T06:07:03.798Z</time></trkpt><trkpt lat="47.031572000000004" lon="11.487466383333334"><ele>1207.0</ele><time>2026-05-01T06:07:04.796Z</time></trkpt><trkpt lat="47.031469766666675" lon="11.487611516666666"><ele>1207.0</ele><time>2026-05-01T06:07:05.788Z</time></trkpt><trkpt lat="47.03135603333333" lon="11.487737666666666"><ele>1210.0</ele><time>2026-05-01T06:07:06.774Z</time></trkpt><trkpt lat="47.031238050000006" lon="11.487853816666666"><ele>1213.0</ele><time>2026-05-01T06:07:07.785Z</time></trkpt><trkpt lat="47.03112096666667" lon="11.487964466666666"><ele>1216.0</ele><time>2026-05-01T06:07:08.778Z</time></trkpt><trkpt lat="47.03100469999999" lon="11.488070666666665"><ele>1219.0</ele><time>2026-05-01T06:07:09.774Z</time></trkpt><trkpt lat="47.03089020000001" lon="11.488180949999999"><ele>1226.75</ele><time>2026-05-01T06:07:10.782Z</time></trkpt><trkpt lat="47.03077485" lon="11.488293549999998"><ele>1234.5</ele><time>2026-05-01T06:07:11.772Z</time></trkpt><trkpt lat="47.030658200000005" lon="11.488407866666668"><ele>1242.25</ele><time>2026-05-01T06:07:12.772Z</time></trkpt><trkpt lat="47.03054636666668" lon="11.488527849999999"><ele>1250.0</ele><time>2026-05-01T06:07:13.787Z</time></trkpt><trkpt lat="47.03044055" lon="11.488655183333334"><ele>1244.75</ele><time>2026-05-01T06:07:14.788Z</time></trkpt><trkpt lat="47.0303385" lon="11.4887921"><ele>1239.5</ele><time>2026-05-01T06:07:15.792Z</time></trkpt><trkpt lat="47.03024318333333" lon="11.488945766666665"><ele>1234.25</ele><time>2026-05-01T06:07:16.783Z</time></trkpt><trkpt lat="47.03015325" lon="11.489108866666667"><ele>1229.0</ele><time>2026-05-01T06:07:17.787Z</time></trkpt><trkpt lat="47.03006486666667" lon="11.489274983333333"><ele>1232.0</ele><time>2026-05-01T06:07:18.789Z</time></trkpt><trkpt lat="47.02997223333333" lon="11.4894435"><ele>1235.0</ele><time>2026-05-01T06:07:19.797Z</time></trkpt><trkpt lat="47.0298695" lon="11.489606783333333"><ele>1238.0</ele><time>2026-05-01T06:07:20.774Z</time></trkpt><trkpt lat="47.02975733333333" lon="11.4897573"><ele>1238.0</ele><time>2026-05-01T06:07:21.794Z</time></trkpt><trkpt lat="47.02964553333333" lon="11.489899150000001"><ele>1238.0</ele><time>2026-05-01T06:07:22.774Z</time></trkpt><trkpt lat="47.02954416666667" lon="11.490041399999999"><ele>1238.0</ele><time>2026-05-01T06:07:23.788Z</time></trkpt><trkpt lat="47.029455183333326" lon="11.490194899999997"><ele>1238.0</ele><time>2026-05-01T06:07:24.792Z</time></trkpt><trkpt lat="47.02937416666667" lon="11.490367466666665"><ele>1231.6666666666667</ele><time>2026-05-01T06:07:25.789Z</time></trkpt><trkpt lat="47.02929803333333" lon="11.490549966666666"><ele>1225.3333333333333</ele><time>2026-05-01T06:07:26.789Z</time></trkpt><trkpt lat="47.02922168333333" lon="11.490740183333331"><ele>1219.0</ele><time>2026-05-01T06:07:27.789Z</time></trkpt><trkpt lat="47.029143483333335" lon="11.490935750000002"><ele>1221.3333333333333</ele><time>2026-05-01T06:07:28.787Z</time></trkpt><trkpt lat="47.02906531666666" lon="11.49113565"><ele>1223.6666666666667</ele><time>2026-05-01T06:07:29.788Z</time></trkpt><trkpt lat="47.028985083333325" lon="11.491335333333332"><ele>1226.0</ele><time>2026-05-01T06:07:30.783Z</time></trkpt><trkpt lat="47.02890398333334" lon="11.491539283333335"><ele>1226.0</ele><time>2026-05-01T06:07:31.797Z</time></trkpt><trkpt lat="47.028821666666666" lon="11.491750349999998"><ele>1226.0</ele><time>2026-05-01T06:07:32.792Z</time></trkpt><trkpt lat="47.02874025" lon="11.49196885"><ele>1226.0</ele><time>2026-05-01T06:07:33.773Z</time></trkpt><trkpt lat="47.02865491666666" lon="11.49218545"><ele>1226.0</ele><time>2026-05-01T06:07:34.783Z</time></trkpt><trkpt lat="47.028567083333336" lon="11.4924067"><ele>1226.0</ele><time>2026-05-01T06:07:35.809Z</time></trkpt><trkpt lat="47.028481416666665" lon="11.4926289"><ele>1226.0</ele><time>2026-05-01T06:07:36.788Z</time></trkpt><trkpt lat="47.02839471666666" lon="11.492853833333333"><ele>1227.3333333333335</ele><time>2026-05-01T06:07:37.774Z</time></trkpt><trkpt lat="47.02830791666667" lon="11.493080083333332"><ele>1228.6666666666667</ele><time>2026-05-01T06:07:38.789Z</time></trkpt><trkpt lat="47.02821961666667" lon="11.493313283333334"><ele>1230.0</ele><time>2026-05-01T06:07:39.787Z</time></trkpt><trkpt lat="47.02813054999999" lon="11.493555733333336"><ele>1229.0</ele><time>2026-05-01T06:07:40.772Z</time></trkpt><trkpt lat="47.028043016666665" lon="11.49380505"><ele>1228.0</ele><time>2026-05-01T06:07:41.791Z</time></trkpt><trkpt lat="47.0279617" lon="11.494063083333332"><ele>1227.0</ele><time>2026-05-01T06:07:42.792Z</time></trkpt><trkpt lat="47.02788661666667" lon="11.494330033333332"><ele>1227.3333333333333</ele><time>2026-05-01T06:07:43.785Z</time></trkpt><trkpt lat="47.02781595" lon="11.494604766666665"><ele>1227.6666666666665</ele><time>2026-05-01T06:07:44.781Z</time></trkpt><trkpt lat="47.02774118333334" lon="11.494879916666667"><ele>1228.0</ele><time>2026-05-01T06:07:45.793Z</time></trkpt><trkpt lat="47.02766871666666" lon="11.495155316666668"><ele>1230.3333333333333</ele><time>2026-05-01T06:07:46.785Z</time></trkpt><trkpt lat="47.02759846666666" lon="11.495433966666667"><ele>1232.6666666666667</ele><time>2026-05-01T06:07:47.774Z</time></trkpt><trkpt lat="47.02752603333334" lon="11.495710916666667"><ele>1235.0</ele><time>2026-05-01T06:07:48.777Z</time></trkpt><trkpt lat="47.027455800000006" lon="11.495982716666667"><ele>1235.0</ele><time>2026-05-01T06:07:49.783Z</time></trkpt><trkpt lat="47.02738738333334" lon="11.496246216666668"><ele>1235.0</ele><time>2026-05-01T06:07:50.792Z</time></trkpt><trkpt lat="47.02732263333334" lon="11.496504516666668"><ele>1235.0</ele><time>2026-05-01T06:07:51.788Z</time></trkpt><trkpt lat="47.02726088333334" lon="11.496752450000002"><ele>1233.3333333333335</ele><time>2026-05-01T06:07:52.784Z</time></trkpt><trkpt lat="47.02721459999999" lon="11.49699735"><ele>1231.6666666666667</ele><time>2026-05-01T06:07:53.774Z</time></trkpt><trkpt lat="47.02719390000001" lon="11.497252783333334"><ele>1230.0</ele><time>2026-05-01T06:07:54.781Z</time></trkpt><trkpt lat="47.02719326666667" lon="11.497517116666664"><ele>1230.0</ele><time>2026-05-01T06:07:55.783Z</time></trkpt><trkpt lat="47.02720445" lon="11.497787983333334"><ele>1230.0</ele><time>2026-05-01T06:07:56.79Z</time></trkpt><trkpt lat="47.02722458333332" lon="11.498064783333332"><ele>1230.0</ele><time>2026-05-01T06:07:57.794Z</time></trkpt><trkpt lat="47.02724258333333" lon="11.498342099999999"><ele>1231.0</ele><time>2026-05-01T06:07:58.796Z</time></trkpt><trkpt lat="47.02724486666666" lon="11.498620183333333"><ele>1232.0</ele><time>2026-05-01T06:07:59.788Z</time></trkpt><trkpt lat="47.0272285" lon="11.498893233333336"><ele>1233.0</ele><time>2026-05-01T06:08:00.787Z</time></trkpt><trkpt lat="47.02720288333334" lon="11.499163566666669"><ele>1235.3333333333333</ele><time>2026-05-01T06:08:01.783Z</time></trkpt><trkpt lat="47.027176183333324" lon="11.499433600000001"><ele>1237.6666666666665</ele><time>2026-05-01T06:08:02.772Z</time></trkpt><trkpt lat="47.02714768333334" lon="11.499702216666666"><ele>1240.0</ele><time>2026-05-01T06:08:03.788Z</time></trkpt><trkpt lat="47.02711673333333" lon="11.49996455"><ele>1241.0</ele><time>2026-05-01T06:08:04.805Z</time></trkpt><trkpt lat="47.02708675" lon="11.500222150000003"><ele>1242.0</ele><time>2026-05-01T06:08:05.807Z</time></trkpt><trkpt lat="47.027058000000004" lon="11.500479016666668"><ele>1243.0</ele><time>2026-05-01T06:08:06.786Z</time></trkpt><trkpt lat="47.027023750000005" lon="11.500731966666669"><ele>1245.6666666666665</ele><time>2026-05-01T06:08:07.811Z</time></trkpt><trkpt lat="47.02697863333333" lon="11.500975366666667"><ele>1248.3333333333333</ele><time>2026-05-01T06:08:08.79Z</time></trkpt><trkpt lat="47.02691456666667" lon="11.50120551666667"><ele>1251.0</ele><time>2026-05-01T06:08:09.809Z</time></trkpt><trkpt lat="47.02682835" lon="11.501419016666668"><ele>1253.0</ele><time>2026-05-01T06:08:10.797Z</time></trkpt><trkpt lat="47.02672213333334" lon="11.501612166666668"><ele>1255.0</ele><time>2026-05-01T06:08:11.777Z</time></trkpt><trkpt lat="47.02659848333333" lon="11.501782199999997"><ele>1257.0</ele><time>2026-05-01T06:08:12.776Z</time></trkpt><trkpt lat="47.02646098333333" lon="11.501930633333332"><ele>1257.0</ele><time>2026-05-01T06:08:13.773Z</time></trkpt><trkpt lat="47.026312833333336" lon="11.502055966666667"><ele>1257.0</ele><time>2026-05-01T06:08:14.775Z</time></trkpt><trkpt lat="47.02615793333333" lon="11.502155233333333"><ele>1257.0</ele><time>2026-05-01T06:08:15.789Z</time></trkpt><trkpt lat="47.02600306666666" lon="11.502227999999999"><ele>1266.5</ele><time>2026-05-01T06:08:16.797Z</time></trkpt><trkpt lat="47.02586196666666" lon="11.502279749999998"><ele>1276.0</ele><time>2026-05-01T06:08:17.775Z</time></trkpt><trkpt lat="47.02573747433156" lon="11.502282538768588"><ele>1285.5</ele><time>2026-05-01T06:08:18.787Z</time></trkpt><trkpt lat="47.02562065000001" lon="11.502313533333332"><ele>1295.0</ele><time>2026-05-01T06:08:19.797Z</time></trkpt><trkpt lat="47.02551104999999" lon="11.502310083333334"><ele>1295.6</ele><time>2026-05-01T06:08:20.783Z</time></trkpt><trkpt lat="47.025409731291866" lon="11.502275279973425"><ele>1296.2</ele><time>2026-05-01T06:08:21.782Z</time></trkpt><trkpt lat="47.02530505658293" lon="11.50226234444283"><ele>1296.8000000000002</ele><time>2026-05-01T06:08:22.771Z</time></trkpt><trkpt lat="47.02519321310506" lon="11.502246304679433"><ele>1297.4</ele><time>2026-05-01T06:08:23.775Z</time></trkpt><trkpt lat="47.02507216875666" lon="11.502233234169518"><ele>1298.0</ele><time>2026-05-01T06:08:24.789Z</time></trkpt><trkpt lat="47.024946279472296" lon="11.50221635717739"><ele>1301.25</ele><time>2026-05-01T06:08:25.797Z</time></trkpt><trkpt lat="47.02481769318811" lon="11.502200771810626"><ele>1304.5</ele><time>2026-05-01T06:08:26.775Z</time></trkpt><trkpt lat="47.02469207505897" lon="11.502180114883817"><ele>1307.75</ele><time>2026-05-01T06:08:27.785Z</time></trkpt><trkpt lat="47.02457297567335" lon="11.502144257656763"><ele>1311.0</ele><time>2026-05-01T06:08:28.797Z</time></trkpt><trkpt lat="47.02446022120279" lon="11.50208997129338"><ele>1310.0</ele><time>2026-05-01T06:08:29.788Z</time></trkpt><trkpt lat="47.02435330433903" lon="11.502025647261524"><ele>1309.0</ele><time>2026-05-01T06:08:30.787Z</time></trkpt><trkpt lat="47.024243958894004" lon="11.501951650964386"><ele>1308.0</ele><time>2026-05-01T06:08:31.798Z</time></trkpt><trkpt lat="47.02412674514215" lon="11.50187233019241"><ele>1307.0</ele><time>2026-05-01T06:08:32.775Z</time></trkpt><trkpt lat="47.02400635302012" lon="11.501791141316911"><ele>1307.0</ele><time>2026-05-01T06:08:33.79Z</time></trkpt><trkpt lat="47.02388392248283" lon="11.501715241822255"><ele>1307.0</ele><time>2026-05-01T06:08:34.778Z</time></trkpt><trkpt lat="47.023744167181555" lon="11.501657078361298"><ele>1307.0</ele><time>2026-05-01T06:08:35.784Z</time></trkpt><trkpt lat="47.02360740775877" lon="11.50163600151613"><ele>1307.0</ele><time>2026-05-01T06:08:36.784Z</time></trkpt><trkpt lat="47.02347833333333" lon="11.501662416666667"><ele>1307.0</ele><time>2026-05-01T06:08:37.772Z</time></trkpt><trkpt lat="47.02335658333333" lon="11.5016884"><ele>1307.0</ele><time>2026-05-01T06:08:38.786Z</time></trkpt><trkpt lat="47.02324028333334" lon="11.501737649999999"><ele>1307.0</ele><time>2026-05-01T06:08:39.798Z</time></trkpt><trkpt lat="47.023127766666654" lon="11.501797399999997"><ele>1307.0</ele><time>2026-05-01T06:08:40.799Z</time></trkpt><trkpt lat="47.023015283333336" lon="11.501855866666665"><ele>1308.25</ele><time>2026-05-01T06:08:41.776Z</time></trkpt><trkpt lat="47.02290446666666" lon="11.501913100000001"><ele>1309.5</ele><time>2026-05-01T06:08:42.788Z</time></trkpt><trkpt lat="47.02279365" lon="11.501969883333333"><ele>1310.75</ele><time>2026-05-01T06:08:43.797Z</time></trkpt><trkpt lat="47.022681600000006" lon="11.50202195"><ele>1312.0</ele><time>2026-05-01T06:08:44.775Z</time></trkpt><trkpt lat="47.022568866666674" lon="11.502076733333334"><ele>1314.25</ele><time>2026-05-01T06:08:45.786Z</time></trkpt><trkpt lat="47.02245849999999" lon="11.502133116666668"><ele>1316.5</ele><time>2026-05-01T06:08:46.797Z</time></trkpt><trkpt lat="47.02234791666666" lon="11.502188966666665"><ele>1318.75</ele><time>2026-05-01T06:08:47.784Z</time></trkpt><trkpt lat="47.02223516666667" lon="11.5022406"><ele>1321.0</ele><time>2026-05-01T06:08:48.773Z</time></trkpt><trkpt lat="47.02212084999999" lon="11.502291600000001"><ele>1321.0</ele><time>2026-05-01T06:08:49.797Z</time></trkpt><trkpt lat="47.02201031666667" lon="11.502341533333333"><ele>1321.0</ele><time>2026-05-01T06:08:50.784Z</time></trkpt><trkpt lat="47.02189928333334" lon="11.502385433333334"><ele>1321.0</ele><time>2026-05-01T06:08:51.785Z</time></trkpt><trkpt lat="47.02178898333333" lon="11.50242715"><ele>1321.0</ele><time>2026-05-01T06:08:52.774Z</time></trkpt><trkpt lat="47.02167796666666" lon="11.502474316666667"><ele>1320.0</ele><time>2026-05-01T06:08:53.775Z</time></trkpt><trkpt lat="47.02157136666666" lon="11.502528516666667"><ele>1319.0</ele><time>2026-05-01T06:08:54.783Z</time></trkpt><trkpt lat="47.0214674" lon="11.502590866666667"><ele>1318.0</ele><time>2026-05-01T06:08:55.797Z</time></trkpt><trkpt lat="47.02136505" lon="11.502665533333333"><ele>1317.0</ele><time>2026-05-01T06:08:56.775Z</time></trkpt><trkpt lat="47.02126119999999" lon="11.502746316666665"><ele>1317.0</ele><time>2026-05-01T06:08:57.783Z</time></trkpt><trkpt lat="47.02115711666667" lon="11.502837183333334"><ele>1317.0</ele><time>2026-05-01T06:08:58.798Z</time></trkpt><trkpt lat="47.02104815" lon="11.5029363"><ele>1317.0</ele><time>2026-05-01T06:08:59.776Z</time></trkpt><trkpt lat="47.02093648333333" lon="11.503046016666667"><ele>1317.0</ele><time>2026-05-01T06:09:00.786Z</time></trkpt><trkpt lat="47.02081955" lon="11.503167616666667"><ele>1315.6666666666667</ele><time>2026-05-01T06:09:01.798Z</time></trkpt><trkpt lat="47.02070261666666" lon="11.503302166666666"><ele>1314.3333333333335</ele><time>2026-05-01T06:09:02.777Z</time></trkpt><trkpt lat="47.02058651666666" lon="11.503453533333335"><ele>1313.0</ele><time>2026-05-01T06:09:03.783Z</time></trkpt><trkpt lat="47.02046751666667" lon="11.50361595"><ele>1315.3333333333335</ele><time>2026-05-01T06:09:04.798Z</time></trkpt><trkpt lat="47.02034723333333" lon="11.50379055"><ele>1317.6666666666667</ele><time>2026-05-01T06:09:05.777Z</time></trkpt><trkpt lat="47.020227216666676" lon="11.503966783333333"><ele>1320.0</ele><time>2026-05-01T06:09:06.781Z</time></trkpt><trkpt lat="47.020104866666664" lon="11.504140233333333"><ele>1320.0</ele><time>2026-05-01T06:09:07.797Z</time></trkpt><trkpt lat="47.01998431666666" lon="11.504314549999998"><ele>1320.0</ele><time>2026-05-01T06:09:08.776Z</time></trkpt><trkpt lat="47.01986531666667" lon="11.504485066666668"><ele>1320.0</ele><time>2026-05-01T06:09:09.784Z</time></trkpt><trkpt lat="47.019750949999995" lon="11.504657783333334"><ele>1319.3333333333333</ele><time>2026-05-01T06:09:10.799Z</time></trkpt><trkpt lat="47.01963115" lon="11.504830466666665"><ele>1318.6666666666665</ele><time>2026-05-01T06:09:11.775Z</time></trkpt><trkpt lat="47.019509299999996" lon="11.504998916666668"><ele>1318.0</ele><time>2026-05-01T06:09:12.785Z</time></trkpt><trkpt lat="47.01938836666667" lon="11.505169683333333"><ele>1318.0</ele><time>2026-05-01T06:09:13.797Z</time></trkpt><trkpt lat="47.01927208333333" lon="11.505336533333333"><ele>1318.0</ele><time>2026-05-01T06:09:14.775Z</time></trkpt><trkpt lat="47.01915836666667" lon="11.5055004"><ele>1318.0</ele><time>2026-05-01T06:09:15.784Z</time></trkpt><trkpt lat="47.01904389999999" lon="11.505659483333334"><ele>1316.6666666666665</ele><time>2026-05-01T06:09:16.797Z</time></trkpt><trkpt lat="47.01893056666666" lon="11.505816316666667"><ele>1315.3333333333333</ele><time>2026-05-01T06:09:17.775Z</time></trkpt><trkpt lat="47.01881538333334" lon="11.505980316666665"><ele>1314.0</ele><time>2026-05-01T06:09:18.783Z</time></trkpt><trkpt lat="47.01869801666667" lon="11.506149650000001"><ele>1317.0</ele><time>2026-05-01T06:09:19.797Z</time></trkpt><trkpt lat="47.01857811666667" lon="11.506324300000003"><ele>1320.0</ele><time>2026-05-01T06:09:20.781Z</time></trkpt><trkpt lat="47.01845623333334" lon="11.50650255"><ele>1323.0</ele><time>2026-05-01T06:09:21.786Z</time></trkpt><trkpt lat="47.01833898333333" lon="11.506686483333333"><ele>1322.0</ele><time>2026-05-01T06:09:22.774Z</time></trkpt><trkpt lat="47.018227933333335" lon="11.506878683333332"><ele>1321.0</ele><time>2026-05-01T06:09:23.775Z</time></trkpt><trkpt lat="47.01812580000001" lon="11.507072500000001"><ele>1320.0</ele><time>2026-05-01T06:09:24.775Z</time></trkpt><trkpt lat="47.01803506666667" lon="11.507253033333333"><ele>1320.0</ele><time>2026-05-01T06:09:25.797Z</time></trkpt><trkpt lat="47.01795271666666" lon="11.50742845"><ele>1320.0</ele><time>2026-05-01T06:09:26.779Z</time></trkpt><trkpt lat="47.01787383333333" lon="11.507600500000002"><ele>1320.0</ele><time>2026-05-01T06:09:27.784Z</time></trkpt><trkpt lat="47.01779781666668" lon="11.507772583333333"><ele>1320.0</ele><time>2026-05-01T06:09:28.798Z</time></trkpt><trkpt lat="47.01771665" lon="11.5079472"><ele>1320.25</ele><time>2026-05-01T06:09:29.795Z</time></trkpt><trkpt lat="47.01763338333334" lon="11.508117566666666"><ele>1320.5</ele><time>2026-05-01T06:09:30.787Z</time></trkpt><trkpt lat="47.01754935" lon="11.508280866666666"><ele>1320.75</ele><time>2026-05-01T06:09:31.798Z</time></trkpt><trkpt lat="47.01746243333334" lon="11.508425233333332"><ele>1321.0</ele><time>2026-05-01T06:09:32.777Z</time></trkpt><trkpt lat="47.01737418333334" lon="11.508551783333333"><ele>1321.0</ele><time>2026-05-01T06:09:33.791Z</time></trkpt><trkpt lat="47.017283833333344" lon="11.508664666666668"><ele>1321.0</ele><time>2026-05-01T06:09:34.798Z</time></trkpt><trkpt lat="47.01718944999999" lon="11.508771133333335"><ele>1321.0</ele><time>2026-05-01T06:09:35.776Z</time></trkpt><trkpt lat="47.017087599999996" lon="11.508873483333332"><ele>1321.0</ele><time>2026-05-01T06:09:36.785Z</time></trkpt><trkpt lat="47.01697758333333" lon="11.508973266666665"><ele>1322.75</ele><time>2026-05-01T06:09:37.797Z</time></trkpt><trkpt lat="47.01686141666668" lon="11.509061416666668"><ele>1324.5</ele><time>2026-05-01T06:09:38.795Z</time></trkpt><trkpt lat="47.01674178333333" lon="11.509138983333331"><ele>1326.25</ele><time>2026-05-01T06:09:39.785Z</time></trkpt><trkpt lat="47.01661983333333" lon="11.509202083333332"><ele>1328.0</ele><time>2026-05-01T06:09:40.799Z</time></trkpt><trkpt lat="47.01649343333333" lon="11.509245566666669"><ele>1328.75</ele><time>2026-05-01T06:09:41.775Z</time></trkpt><trkpt lat="47.01636716666667" lon="11.509279183333335"><ele>1329.5</ele><time>2026-05-01T06:09:42.786Z</time></trkpt><trkpt lat="47.01623868333333" lon="11.509302683333331"><ele>1330.25</ele><time>2026-05-01T06:09:43.816Z</time></trkpt><trkpt lat="47.01610104529776" lon="11.509286087208604"><ele>1331.0</ele><time>2026-05-01T06:09:44.775Z</time></trkpt><trkpt lat="47.015958008331694" lon="11.509276274327531"><ele>1338.0</ele><time>2026-05-01T06:09:45.783Z</time></trkpt><trkpt lat="47.01581454170814" lon="11.509246874428243"><ele>1345.0</ele><time>2026-05-01T06:09:46.795Z</time></trkpt><trkpt lat="47.015666819791264" lon="11.509190214878611"><ele>1352.0</ele><time>2026-05-01T06:09:47.792Z</time></trkpt><trkpt lat="47.015517581063165" lon="11.509117293415754"><ele>1352.0</ele><time>2026-05-01T06:09:48.783Z</time></trkpt><trkpt lat="47.01537397093013" lon="11.509025462677743"><ele>1352.0</ele><time>2026-05-01T06:09:49.796Z</time></trkpt><trkpt lat="47.01523851622903" lon="11.508904491551872"><ele>1352.0</ele><time>2026-05-01T06:09:50.777Z</time></trkpt><trkpt lat="47.01510543997182" lon="11.508770168244956"><ele>1353.75</ele><time>2026-05-01T06:09:51.785Z</time></trkpt><trkpt lat="47.01498412153733" lon="11.508627629801333"><ele>1355.5</ele><time>2026-05-01T06:09:52.796Z</time></trkpt><trkpt lat="47.01487616289624" lon="11.508482332716149"><ele>1357.25</ele><time>2026-05-01T06:09:53.775Z</time></trkpt><trkpt lat="47.01477957079257" lon="11.508338339975873"><ele>1359.0</ele><time>2026-05-01T06:09:54.785Z</time></trkpt><trkpt lat="47.01468632079937" lon="11.508197087850778"><ele>1359.0</ele><time>2026-05-01T06:09:55.797Z</time></trkpt><trkpt lat="47.01459464061033" lon="11.508058213576437"><ele>1359.0</ele><time>2026-05-01T06:09:56.774Z</time></trkpt><trkpt lat="47.014502134754174" lon="11.507920552295078"><ele>1359.0</ele><time>2026-05-01T06:09:57.787Z</time></trkpt><trkpt lat="47.01440271871594" lon="11.507779642850627"><ele>1359.0</ele><time>2026-05-01T06:09:58.798Z</time></trkpt><trkpt lat="47.01429799920312" lon="11.507644120952984"><ele>1358.75</ele><time>2026-05-01T06:09:59.775Z</time></trkpt><trkpt lat="47.01418081414695" lon="11.507519315021645"><ele>1358.5</ele><time>2026-05-01T06:10:00.785Z</time></trkpt><trkpt lat="47.01405372181529" lon="11.5074073271484"><ele>1358.25</ele><time>2026-05-01T06:10:01.797Z</time></trkpt><trkpt lat="47.013919057971776" lon="11.507304810859445"><ele>1358.0</ele><time>2026-05-01T06:10:02.775Z</time></trkpt><trkpt lat="47.01377811809164" lon="11.507218358222403"><ele>1358.0</ele><time>2026-05-01T06:10:03.789Z</time></trkpt><trkpt lat="47.01362892413197" lon="11.507148200497722"><ele>1358.0</ele><time>2026-05-01T06:10:04.796Z</time></trkpt><trkpt lat="47.01347157387299" lon="11.507092773117021"><ele>1358.0</ele><time>2026-05-01T06:10:05.785Z</time></trkpt><trkpt lat="47.013317928353274" lon="11.507045745326293"><ele>1356.3333333333335</ele><time>2026-05-01T06:10:06.785Z</time></trkpt><trkpt lat="47.01316519711843" lon="11.507002219073193"><ele>1354.6666666666667</ele><time>2026-05-01T06:10:07.797Z</time></trkpt><trkpt lat="47.013007416666674" lon="11.506991366666668"><ele>1353.0</ele><time>2026-05-01T06:10:08.774Z</time></trkpt><trkpt lat="47.012853083333326" lon="11.50695215"><ele>1353.0</ele><time>2026-05-01T06:10:09.782Z</time></trkpt><trkpt lat="47.01269638333333" lon="11.506921299999998"><ele>1353.0</ele><time>2026-05-01T06:10:10.803Z</time></trkpt><trkpt lat="47.01253669999999" lon="11.506898950000002"><ele>1353.0</ele><time>2026-05-01T06:10:11.778Z</time></trkpt><trkpt lat="47.01238196666666" lon="11.5068833"><ele>1355.75</ele><time>2026-05-01T06:10:12.79Z</time></trkpt><trkpt lat="47.012236833333326" lon="11.506878183333333"><ele>1358.5</ele><time>2026-05-01T06:10:13.797Z</time></trkpt><trkpt lat="47.01210661666668" lon="11.506877666666666"><ele>1361.25</ele><time>2026-05-01T06:10:14.773Z</time></trkpt><trkpt lat="47.01198716666666" lon="11.5068806"><ele>1364.0</ele><time>2026-05-01T06:10:15.798Z</time></trkpt><trkpt lat="47.01186913333333" lon="11.506889316666665"><ele>1364.0</ele><time>2026-05-01T06:10:16.796Z</time></trkpt><trkpt lat="47.01175123333334" lon="11.50690085"><ele>1364.0</ele><time>2026-05-01T06:10:17.776Z</time></trkpt><trkpt lat="47.01163198333334" lon="11.506911050000001"><ele>1364.0</ele><time>2026-05-01T06:10:18.786Z</time></trkpt><trkpt lat="47.01151486666666" lon="11.506917400000003"><ele>1364.0</ele><time>2026-05-01T06:10:19.774Z</time></trkpt><trkpt lat="47.011400699999996" lon="11.506921966666669"><ele>1368.0</ele><time>2026-05-01T06:10:20.773Z</time></trkpt><trkpt lat="47.011284599999996" lon="11.506925950000001"><ele>1372.0</ele><time>2026-05-01T06:10:21.783Z</time></trkpt><trkpt lat="47.0111669" lon="11.506931583333335"><ele>1376.0</ele><time>2026-05-01T06:10:22.773Z</time></trkpt><trkpt lat="47.01104706666667" lon="11.50693945"><ele>1380.0</ele><time>2026-05-01T06:10:23.776Z</time></trkpt><trkpt lat="47.01092413333334" lon="11.506950216666667"><ele>1380.5</ele><time>2026-05-01T06:10:24.772Z</time></trkpt><trkpt lat="47.01079871666668" lon="11.506965983333336"><ele>1381.0</ele><time>2026-05-01T06:10:25.803Z</time></trkpt><trkpt lat="47.01067383333334" lon="11.506984183333334"><ele>1381.5</ele><time>2026-05-01T06:10:26.778Z</time></trkpt><trkpt lat="47.01055368333334" lon="11.507003833333332"><ele>1382.0</ele><time>2026-05-01T06:10:27.774Z</time></trkpt><trkpt lat="47.01043656666668" lon="11.507020116666668"><ele>1382.0</ele><time>2026-05-01T06:10:28.771Z</time></trkpt><trkpt lat="47.01032081666667" lon="11.507034916666665"><ele>1382.0</ele><time>2026-05-01T06:10:29.776Z</time></trkpt><trkpt lat="47.01020611666666" lon="11.50704815"><ele>1382.0</ele><time>2026-05-01T06:10:30.784Z</time></trkpt><trkpt lat="47.01008598333333" lon="11.507059016666664"><ele>1382.0</ele><time>2026-05-01T06:10:31.772Z</time></trkpt><trkpt lat="47.00996455" lon="11.507060449999997"><ele>1381.25</ele><time>2026-05-01T06:10:32.772Z</time></trkpt><trkpt lat="47.009847549999996" lon="11.507057249999997"><ele>1380.5</ele><time>2026-05-01T06:10:33.795Z</time></trkpt><trkpt lat="47.00972619999999" lon="11.5070597"><ele>1379.75</ele><time>2026-05-01T06:10:34.796Z</time></trkpt><trkpt lat="47.00961016666666" lon="11.5070576"><ele>1379.0</ele><time>2026-05-01T06:10:35.773Z</time></trkpt><trkpt lat="47.009489933333334" lon="11.507051166666667"><ele>1379.0</ele><time>2026-05-01T06:10:36.796Z</time></trkpt><trkpt lat="47.00937421666666" lon="11.507048816666668"><ele>1379.0</ele><time>2026-05-01T06:10:37.799Z</time></trkpt><trkpt lat="47.00925726666666" lon="11.507043516666666"><ele>1379.0</ele><time>2026-05-01T06:10:38.773Z</time></trkpt><trkpt lat="47.00914223333332" lon="11.507038216666668"><ele>1379.0</ele><time>2026-05-01T06:10:39.774Z</time></trkpt><trkpt lat="47.00902656666667" lon="11.507033166666666"><ele>1378.2</ele><time>2026-05-01T06:10:40.797Z</time></trkpt><trkpt lat="47.00891374999999" lon="11.507029483333334"><ele>1377.4</ele><time>2026-05-01T06:10:41.775Z</time></trkpt><trkpt lat="47.008802716666665" lon="11.507027333333333"><ele>1376.6</ele><time>2026-05-01T06:10:42.784Z</time></trkpt><trkpt lat="47.008698116666665" lon="11.507023183333335"><ele>1375.8</ele><time>2026-05-01T06:10:43.797Z</time></trkpt><trkpt lat="47.00860598333333" lon="11.507021716666669"><ele>1375.0</ele><time>2026-05-01T06:10:44.791Z</time></trkpt><trkpt lat="47.008523466666674" lon="11.507021983333333"><ele>1375.0</ele><time>2026-05-01T06:10:45.774Z</time></trkpt><trkpt lat="47.008452233333344" lon="11.507022849999998"><ele>1375.0</ele><time>2026-05-01T06:10:46.781Z</time></trkpt><trkpt lat="47.00838291666667" lon="11.507023166666666"><ele>1375.0</ele><time>2026-05-01T06:10:47.779Z</time></trkpt><trkpt lat="47.00831391666667" lon="11.507021650000002"><ele>1375.0</ele><time>2026-05-01T06:10:48.798Z</time></trkpt><trkpt lat="47.008213350000005" lon="11.50702045"><ele>1375.0</ele><time>2026-05-01T06:10:50.786Z</time></trkpt><trkpt lat="47.0081361" lon="11.507073866666667"><ele>1375.0</ele><time>2026-05-01T06:10:52.797Z</time></trkpt><trkpt lat="47.00809165135459" lon="11.506991154541268"><ele>1373.4</ele><time>2026-05-01T06:10:54.79Z</time></trkpt><trkpt lat="47.00810999145503" lon="11.507193779771857"><ele>1371.8</ele><time>2026-05-01T06:10:55.776Z</time></trkpt><trkpt lat="47.00801251968117" lon="11.50714662579428"><ele>1370.1999999999998</ele><time>2026-05-01T06:10:58.774Z</time></trkpt><trkpt lat="47.00796538333334" lon="11.507282816666669"><ele>1368.6</ele><time>2026-05-01T06:10:59.777Z</time></trkpt><trkpt lat="47.00788763333333" lon="11.507307516666666"><ele>1367.0</ele><time>2026-05-01T06:11:02.775Z</time></trkpt><trkpt lat="47.00781080876198" lon="11.507141869525897"><ele>1367.0</ele><time>2026-05-01T06:12:47Z</time></trkpt><trkpt lat="47.007764179985855" lon="11.507232717069364"><ele>1367.0</ele><time>2026-05-01T06:13:10Z</time></trkpt><trkpt lat="47.007812061877864" lon="11.507144628273728"><ele>1367.0</ele><time>2026-05-01T06:13:41Z</time></trkpt><trkpt lat="47.00773515964473" lon="11.507094780910629"><ele>1367.0</ele><time>2026-05-01T06:14:06Z</time></trkpt><trkpt lat="47.00774404036552" lon="11.507209521155936"><ele>1367.0</ele><time>2026-05-01T06:14:10Z</time></trkpt><trkpt lat="47.00778301313111" lon="11.50729894659129"><ele>1367.0</ele><time>2026-05-01T06:14:31.999Z</time></trkpt><trkpt lat="47.007733439808696" lon="11.50737184983407"><ele>1367.0</ele><time>2026-05-01T06:14:40.999Z</time></trkpt><trkpt lat="47.00768156932865" lon="11.507310590381252"><ele>1367.0</ele><time>2026-05-01T06:14:46.999Z</time></trkpt><trkpt lat="47.0077433418224" lon="11.507515247315546"><ele>1367.0</ele><time>2026-05-01T06:14:47.999Z</time></trkpt><trkpt lat="47.00775702781164" lon="11.50765245739647"><ele>1367.0</ele><time>2026-05-01T06:14:49.999Z</time></trkpt><trkpt lat="47.007850337005344" lon="11.507522925075007"><ele>1367.0</ele><time>2026-05-01T06:14:52.999Z</time></trkpt><trkpt lat="47.0079104864384" lon="11.507212691807869"><ele>1367.0</ele><time>2026-05-01T06:14:55.999Z</time></trkpt><trkpt lat="47.007815417429484" lon="11.506797714721278"><ele>1367.0</ele><time>2026-05-01T06:15:24Z</time></trkpt><trkpt lat="47.00773566777461" lon="11.507205318308444"><ele>1367.0</ele><time>2026-05-01T06:15:28Z</time></trkpt><trkpt lat="47.00793810363274" lon="11.507125737451348"><ele>1367.0</ele><time>2026-05-01T06:15:32Z</time></trkpt><trkpt lat="47.007902236703806" lon="11.507232869078187"><ele>1367.0</ele><time>2026-05-01T06:15:59Z</time></trkpt><trkpt lat="47.00790740616768" lon="11.507329252449555"><ele>1367.0</ele><time>2026-05-01T06:16:31.999Z</time></trkpt><trkpt lat="47.00789279425732" lon="11.507203795719823"><ele>1367.0</ele><time>2026-05-01T06:16:33.999Z</time></trkpt><trkpt lat="47.00779665360165" lon="11.507135687141762"><ele>1367.0</ele><time>2026-05-01T06:17:32Z</time></trkpt><trkpt lat="47.007760650118534" lon="11.50721938625146"><ele>1367.0</ele><time>2026-05-01T06:17:40Z</time></trkpt><trkpt lat="47.00775464472592" lon="11.507338476378523"><ele>1367.0</ele><time>2026-05-01T06:18:15Z</time></trkpt><trkpt lat="47.00760451666667" lon="11.507346283333334"><ele>1367.0</ele><time>2026-05-01T06:18:37.372Z</time></trkpt><trkpt lat="47.00754615" lon="11.5072586"><ele>1367.0</ele><time>2026-05-01T06:18:38.35Z</time></trkpt><trkpt lat="47.00766749999999" lon="11.507272733333332"><ele>1367.0</ele><time>2026-05-01T06:18:45.342Z</time></trkpt><trkpt lat="47.007692399999996" lon="11.507140366666665"><ele>1367.0</ele><time>2026-05-01T06:18:48.363Z</time></trkpt><trkpt lat="47.00761626666667" lon="11.507019266666669"><ele>1367.0</ele><time>2026-05-01T06:18:50.388Z</time></trkpt><trkpt lat="47.00757415" lon="11.506933599999998"><ele>1367.0</ele><time>2026-05-01T06:18:51.357Z</time></trkpt><trkpt lat="47.00751988333333" lon="11.506834283333333"><ele>1367.0</ele><time>2026-05-01T06:18:52.359Z</time></trkpt><trkpt lat="47.007451666666675" lon="11.506733683333334"><ele>1367.8</ele><time>2026-05-01T06:18:53.351Z</time></trkpt><trkpt lat="47.007368283333335" lon="11.506638983333335"><ele>1368.6</ele><time>2026-05-01T06:18:54.354Z</time></trkpt><trkpt lat="47.00728331666666" lon="11.506548133333334"><ele>1369.3999999999999</ele><time>2026-05-01T06:18:55.345Z</time></trkpt><trkpt lat="47.0072104" lon="11.506457000000001"><ele>1370.1999999999998</ele><time>2026-05-01T06:18:56.351Z</time></trkpt><trkpt lat="47.00714828333333" lon="11.5063729"><ele>1371.0</ele><time>2026-05-01T06:18:57.383Z</time></trkpt><trkpt lat="47.00709213333333" lon="11.506298216666668"><ele>1371.8333333333333</ele><time>2026-05-01T06:18:58.359Z</time></trkpt><trkpt lat="47.00703856666667" lon="11.50624056666667"><ele>1372.6666666666667</ele><time>2026-05-01T06:18:59.357Z</time></trkpt><trkpt lat="47.00693218333333" lon="11.506145333333333"><ele>1373.5</ele><time>2026-05-01T06:19:01.364Z</time></trkpt><trkpt lat="47.00687245000001" lon="11.506106216666668"><ele>1374.3333333333335</ele><time>2026-05-01T06:19:02.35Z</time></trkpt><trkpt lat="47.00680693333334" lon="11.506076416666668"><ele>1375.1666666666667</ele><time>2026-05-01T06:19:03.36Z</time></trkpt><trkpt lat="47.00673445" lon="11.506072983333334"><ele>1376.0</ele><time>2026-05-01T06:19:04.342Z</time></trkpt><trkpt lat="47.006661349999995" lon="11.506082783333333"><ele>1375.8333333333335</ele><time>2026-05-01T06:19:05.36Z</time></trkpt><trkpt lat="47.006587316666675" lon="11.506079966666666"><ele>1375.6666666666667</ele><time>2026-05-01T06:19:06.363Z</time></trkpt><trkpt lat="47.006515650000004" lon="11.506056116666665"><ele>1375.5</ele><time>2026-05-01T06:19:07.363Z</time></trkpt><trkpt lat="47.006449149999995" lon="11.506012133333336"><ele>1375.3333333333333</ele><time>2026-05-01T06:19:08.365Z</time></trkpt><trkpt lat="47.006386283333335" lon="11.50595035"><ele>1375.1666666666665</ele><time>2026-05-01T06:19:09.36Z</time></trkpt><trkpt lat="47.006325266666664" lon="11.505881233333332"><ele>1375.0</ele><time>2026-05-01T06:19:10.342Z</time></trkpt><trkpt lat="47.0062562" lon="11.505811816666668"><ele>1375.0</ele><time>2026-05-01T06:19:11.359Z</time></trkpt><trkpt lat="47.0061824" lon="11.5057468"><ele>1375.0</ele><time>2026-05-01T06:19:12.359Z</time></trkpt><trkpt lat="47.00610595" lon="11.505686983333332"><ele>1375.0</ele><time>2026-05-01T06:19:13.341Z</time></trkpt><trkpt lat="47.00602345" lon="11.505622500000001"><ele>1375.0</ele><time>2026-05-01T06:19:14.359Z</time></trkpt><trkpt lat="47.00593506666667" lon="11.505560633333335"><ele>1375.0</ele><time>2026-05-01T06:19:15.341Z</time></trkpt><trkpt lat="47.00584346666666" lon="11.505501533333332"><ele>1374.0</ele><time>2026-05-01T06:19:16.347Z</time></trkpt><trkpt lat="47.005750883333334" lon="11.505440566666667"><ele>1373.0</ele><time>2026-05-01T06:19:17.359Z</time></trkpt><trkpt lat="47.005658499999996" lon="11.505381816666667"><ele>1372.0</ele><time>2026-05-01T06:19:18.362Z</time></trkpt><trkpt lat="47.00556196666666" lon="11.505330266666666"><ele>1371.0</ele><time>2026-05-01T06:19:19.364Z</time></trkpt><trkpt lat="47.00546235" lon="11.505280433333333"><ele>1370.0</ele><time>2026-05-01T06:19:20.36Z</time></trkpt><trkpt lat="47.00535988333333" lon="11.505236216666665"><ele>1371.25</ele><time>2026-05-01T06:19:21.363Z</time></trkpt><trkpt lat="47.00525563333334" lon="11.505194866666667"><ele>1372.5</ele><time>2026-05-01T06:19:22.342Z</time></trkpt><trkpt lat="47.005146749999994" lon="11.505144099999999"><ele>1373.75</ele><time>2026-05-01T06:19:23.359Z</time></trkpt><trkpt lat="47.005034666666674" lon="11.505094350000002"><ele>1375.0</ele><time>2026-05-01T06:19:24.359Z</time></trkpt><trkpt lat="47.00492255" lon="11.505045116666667"><ele>1375.0</ele><time>2026-05-01T06:19:25.346Z</time></trkpt><trkpt lat="47.00481016666666" lon="11.504990133333335"><ele>1375.0</ele><time>2026-05-01T06:19:26.359Z</time></trkpt><trkpt lat="47.004696749999994" lon="11.504936883333334"><ele>1375.0</ele><time>2026-05-01T06:19:27.359Z</time></trkpt><trkpt lat="47.0045867" lon="11.5048822"><ele>1375.0</ele><time>2026-05-01T06:19:28.349Z</time></trkpt><trkpt lat="47.00447763333333" lon="11.504832900000002"><ele>1375.0</ele><time>2026-05-01T06:19:29.359Z</time></trkpt><trkpt lat="47.00437221666666" lon="11.504785266666667"><ele>1375.0</ele><time>2026-05-01T06:19:30.36Z</time></trkpt><trkpt lat="47.004269316666665" lon="11.504735550000001"><ele>1375.0</ele><time>2026-05-01T06:19:31.343Z</time></trkpt><trkpt lat="47.00416404999999" lon="11.5046891"><ele>1375.0</ele><time>2026-05-01T06:19:32.361Z</time></trkpt><trkpt lat="47.00405725000001" lon="11.504638900000002"><ele>1375.0</ele><time>2026-05-01T06:19:33.359Z</time></trkpt><trkpt lat="47.003953583333335" lon="11.50459035"><ele>1375.6</ele><time>2026-05-01T06:19:34.341Z</time></trkpt><trkpt lat="47.00384786666667" lon="11.504544400000002"><ele>1376.2</ele><time>2026-05-01T06:19:35.341Z</time></trkpt><trkpt lat="47.003742100000004" lon="11.504497666666667"><ele>1376.8000000000002</ele><time>2026-05-01T06:19:36.36Z</time></trkpt><trkpt lat="47.00363716666668" lon="11.504450933333331"><ele>1377.4</ele><time>2026-05-01T06:19:37.349Z</time></trkpt><trkpt lat="47.00353253333333" lon="11.50440855"><ele>1378.0</ele><time>2026-05-01T06:19:38.361Z</time></trkpt><trkpt lat="47.00342568333333" lon="11.504364500000001"><ele>1377.8000000000002</ele><time>2026-05-01T06:19:39.363Z</time></trkpt><trkpt lat="47.00331958333333" lon="11.504324516666669"><ele>1377.6</ele><time>2026-05-01T06:19:40.343Z</time></trkpt><trkpt lat="47.003215916666676" lon="11.504281849999998"><ele>1377.4</ele><time>2026-05-01T06:19:41.36Z</time></trkpt><trkpt lat="47.003107799999995" lon="11.50424495"><ele>1377.1999999999998</ele><time>2026-05-01T06:19:42.359Z</time></trkpt><trkpt lat="47.00299891666667" lon="11.504216000000001"><ele>1377.0</ele><time>2026-05-01T06:19:43.341Z</time></trkpt><trkpt lat="47.00289456666666" lon="11.504189850000001"><ele>1377.0</ele><time>2026-05-01T06:19:44.358Z</time></trkpt><trkpt lat="47.0027886" lon="11.504171466666667"><ele>1377.0</ele><time>2026-05-01T06:19:45.359Z</time></trkpt><trkpt lat="47.00267850000001" lon="11.50417005"><ele>1377.0</ele><time>2026-05-01T06:19:46.351Z</time></trkpt><trkpt lat="47.00256951666667" lon="11.504180916666666"><ele>1377.0</ele><time>2026-05-01T06:19:47.36Z</time></trkpt><trkpt lat="47.00246411666667" lon="11.504187233333335"><ele>1377.0</ele><time>2026-05-01T06:19:48.366Z</time></trkpt><trkpt lat="47.00235760000001" lon="11.504199416666665"><ele>1376.3999999999999</ele><time>2026-05-01T06:19:49.354Z</time></trkpt><trkpt lat="47.0022472" lon="11.504212733333334"><ele>1375.8</ele><time>2026-05-01T06:19:50.36Z</time></trkpt><trkpt lat="47.00213823333333" lon="11.504219466666667"><ele>1375.2</ele><time>2026-05-01T06:19:51.359Z</time></trkpt><trkpt lat="47.002039399999994" lon="11.504221116666667"><ele>1374.6</ele><time>2026-05-01T06:19:52.341Z</time></trkpt><trkpt lat="47.00194853333334" lon="11.504219866666665"><ele>1374.0</ele><time>2026-05-01T06:19:53.36Z</time></trkpt><trkpt lat="47.00186515000001" lon="11.504213233333333"><ele>1374.0</ele><time>2026-05-01T06:19:54.38Z</time></trkpt><trkpt lat="47.00178661666667" lon="11.50420795"><ele>1374.0</ele><time>2026-05-01T06:19:55.342Z</time></trkpt><trkpt lat="47.0017086" lon="11.504201216666669"><ele>1374.0</ele><time>2026-05-01T06:19:56.36Z</time></trkpt><trkpt lat="47.00162786666666" lon="11.50419015"><ele>1374.0</ele><time>2026-05-01T06:19:57.359Z</time></trkpt><trkpt lat="47.0015521" lon="11.504175000000002"><ele>1374.0</ele><time>2026-05-01T06:19:58.35Z</time></trkpt><trkpt lat="47.001471683333335" lon="11.50414871666667"><ele>1374.0</ele><time>2026-05-01T06:19:59.359Z</time></trkpt><trkpt lat="47.001388633333335" lon="11.504111833333331"><ele>1373.6</ele><time>2026-05-01T06:20:00.364Z</time></trkpt><trkpt lat="47.00130485" lon="11.504066350000002"><ele>1373.2</ele><time>2026-05-01T06:20:01.34Z</time></trkpt><trkpt lat="47.00122106666666" lon="11.504010216666666"><ele>1372.8</ele><time>2026-05-01T06:20:02.359Z</time></trkpt><trkpt lat="47.001132116666675" lon="11.503945216666667"><ele>1372.3999999999999</ele><time>2026-05-01T06:20:03.349Z</time></trkpt><trkpt lat="47.00103643333333" lon="11.503876866666667"><ele>1372.0</ele><time>2026-05-01T06:20:04.36Z</time></trkpt><trkpt lat="47.000934783333335" lon="11.503802816666667"><ele>1371.5</ele><time>2026-05-01T06:20:05.362Z</time></trkpt><trkpt lat="47.00082911666667" lon="11.503727499999998"><ele>1371.0</ele><time>2026-05-01T06:20:06.359Z</time></trkpt><trkpt lat="47.000718049999996" lon="11.503652833333334"><ele>1370.5</ele><time>2026-05-01T06:20:07.341Z</time></trkpt><trkpt lat="47.00060068333334" lon="11.503572799999997"><ele>1370.0</ele><time>2026-05-01T06:20:08.359Z</time></trkpt><trkpt lat="47.000478699999995" lon="11.503484933333334"><ele>1370.0</ele><time>2026-05-01T06:20:09.36Z</time></trkpt><trkpt lat="47.000351416666675" lon="11.503395533333332"><ele>1370.0</ele><time>2026-05-01T06:20:10.343Z</time></trkpt><trkpt lat="47.00021964999999" lon="11.503303016666667"><ele>1370.0</ele><time>2026-05-01T06:20:11.359Z</time></trkpt><trkpt lat="47.00008473333334" lon="11.503206016666665"><ele>1370.0</ele><time>2026-05-01T06:20:12.351Z</time></trkpt><trkpt lat="46.999944533333334" lon="11.503107183333334"><ele>1370.0</ele><time>2026-05-01T06:20:13.342Z</time></trkpt><trkpt lat="46.999793200000006" lon="11.503001483333334"><ele>1370.0</ele><time>2026-05-01T06:20:14.359Z</time></trkpt><trkpt lat="46.9996332" lon="11.502898850000001"><ele>1370.0</ele><time>2026-05-01T06:20:15.361Z</time></trkpt><trkpt lat="46.999473183333336" lon="11.5027901"><ele>1369.3333333333335</ele><time>2026-05-01T06:20:16.361Z</time></trkpt><trkpt lat="46.99931045" lon="11.502676816666666"><ele>1368.6666666666667</ele><time>2026-05-01T06:20:17.359Z</time></trkpt><trkpt lat="46.99913801666667" lon="11.502564916666666"><ele>1368.0</ele><time>2026-05-01T06:20:18.343Z</time></trkpt><trkpt lat="46.998955566666666" lon="11.502452566666667"><ele>1368.0</ele><time>2026-05-01T06:20:19.342Z</time></trkpt><trkpt lat="46.998767483333324" lon="11.5023403"><ele>1368.0</ele><time>2026-05-01T06:20:20.363Z</time></trkpt><trkpt lat="46.99857408333334" lon="11.502227300000001"><ele>1368.0</ele><time>2026-05-01T06:20:21.343Z</time></trkpt><trkpt lat="46.998371733333336" lon="11.502113799999998"><ele>1370.0</ele><time>2026-05-01T06:20:22.363Z</time></trkpt><trkpt lat="46.998155366666666" lon="11.501991566666666"><ele>1372.0</ele><time>2026-05-01T06:20:23.342Z</time></trkpt><trkpt lat="46.99793163333334" lon="11.5018617"><ele>1372.0</ele><time>2026-05-01T06:20:24.359Z</time></trkpt><trkpt lat="46.99770551831357" lon="11.50169906849156"><ele>1372.0</ele><time>2026-05-01T06:20:25.342Z</time></trkpt><trkpt lat="46.99746704258825" lon="11.501550279755065"><ele>1370.0</ele><time>2026-05-01T06:20:26.362Z</time></trkpt><trkpt lat="46.997221689294086" lon="11.501393546889839"><ele>1368.0</ele><time>2026-05-01T06:20:27.358Z</time></trkpt><trkpt lat="46.99696645" lon="11.501248483333333"><ele>1368.0</ele><time>2026-05-01T06:20:28.343Z</time></trkpt><trkpt lat="46.996715916666666" lon="11.501079366666666"><ele>1368.0</ele><time>2026-05-01T06:20:29.359Z</time></trkpt><trkpt lat="46.99646281666666" lon="11.500907683333333"><ele>1368.0</ele><time>2026-05-01T06:20:30.344Z</time></trkpt><trkpt lat="46.99620851666666" lon="11.500734683333333"><ele>1368.0</ele><time>2026-05-01T06:20:31.36Z</time></trkpt><trkpt lat="46.99595536666668" lon="11.50056295"><ele>1375.5</ele><time>2026-05-01T06:20:32.362Z</time></trkpt><trkpt lat="46.99571036795097" lon="11.500371364360875"><ele>1383.0</ele><time>2026-05-01T06:20:33.361Z</time></trkpt><trkpt lat="46.99546534905459" lon="11.500201495720079"><ele>1383.0</ele><time>2026-05-01T06:20:34.343Z</time></trkpt><trkpt lat="46.99522614102849" lon="11.500035758210933"><ele>1383.0</ele><time>2026-05-01T06:20:35.351Z</time></trkpt><trkpt lat="46.99499188682301" lon="11.499875940300205"><ele>1378.0</ele><time>2026-05-01T06:20:36.353Z</time></trkpt><trkpt lat="46.99475183333334" lon="11.499734683333333"><ele>1373.0</ele><time>2026-05-01T06:20:37.352Z</time></trkpt><trkpt lat="46.9945221" lon="11.499570649999999"><ele>1373.0</ele><time>2026-05-01T06:20:38.359Z</time></trkpt><trkpt lat="46.994297949999996" lon="11.499407583333335"><ele>1373.0</ele><time>2026-05-01T06:20:39.362Z</time></trkpt><trkpt lat="46.994077616666665" lon="11.499246916666667"><ele>1365.5</ele><time>2026-05-01T06:20:40.362Z</time></trkpt><trkpt lat="46.99386488333333" lon="11.499081133333334"><ele>1358.0</ele><time>2026-05-01T06:20:41.359Z</time></trkpt><trkpt lat="46.99366118333334" lon="11.498903083333335"><ele>1360.0</ele><time>2026-05-01T06:20:42.36Z</time></trkpt><trkpt lat="46.99346223333334" lon="11.498719933333334"><ele>1362.0</ele><time>2026-05-01T06:20:43.342Z</time></trkpt><trkpt lat="46.993269993610106" lon="11.4985275066833"><ele>1362.0</ele><time>2026-05-01T06:20:44.359Z</time></trkpt><trkpt lat="46.993066494257434" lon="11.498367541212163"><ele>1362.0</ele><time>2026-05-01T06:20:45.345Z</time></trkpt><trkpt lat="46.9928548" lon="11.498242650000002"><ele>1362.0</ele><time>2026-05-01T06:20:46.348Z</time></trkpt><trkpt lat="46.99265221666666" lon="11.498098450000002"><ele>1362.0</ele><time>2026-05-01T06:20:47.358Z</time></trkpt><trkpt lat="46.992444166666665" lon="11.497960366666666"><ele>1363.6666666666667</ele><time>2026-05-01T06:20:48.363Z</time></trkpt><trkpt lat="46.9922381" lon="11.497822466666666"><ele>1365.3333333333335</ele><time>2026-05-01T06:20:49.342Z</time></trkpt><trkpt lat="46.99203985000001" lon="11.497687083333334"><ele>1367.0</ele><time>2026-05-01T06:20:50.346Z</time></trkpt><trkpt lat="46.991850783333334" lon="11.497558083333335"><ele>1364.3333333333335</ele><time>2026-05-01T06:20:51.365Z</time></trkpt><trkpt lat="46.99166568333333" lon="11.497433366666666"><ele>1361.6666666666667</ele><time>2026-05-01T06:20:52.343Z</time></trkpt><trkpt lat="46.991490049999996" lon="11.497314433333335"><ele>1359.0</ele><time>2026-05-01T06:20:53.34Z</time></trkpt><trkpt lat="46.99132036666666" lon="11.49720885"><ele>1359.0</ele><time>2026-05-01T06:20:54.344Z</time></trkpt><trkpt lat="46.99115141666667" lon="11.497104216666667"><ele>1359.0</ele><time>2026-05-01T06:20:55.342Z</time></trkpt><trkpt lat="46.9909851" lon="11.496992883333332"><ele>1359.0</ele><time>2026-05-01T06:20:56.361Z</time></trkpt><trkpt lat="46.990825359569726" lon="11.496860752261062"><ele>1359.0</ele><time>2026-05-01T06:20:57.359Z</time></trkpt><trkpt lat="46.990656057278315" lon="11.496745567010388"><ele>1359.0</ele><time>2026-05-01T06:20:58.343Z</time></trkpt><trkpt lat="46.9904839191867" lon="11.496628290476746"><ele>1359.0</ele><time>2026-05-01T06:20:59.36Z</time></trkpt><trkpt lat="46.990306030117154" lon="11.496511072499532"><ele>1359.0</ele><time>2026-05-01T06:21:00.378Z</time></trkpt><trkpt lat="46.99012177770208" lon="11.496391857537496"><ele>1359.0</ele><time>2026-05-01T06:21:01.349Z</time></trkpt><trkpt lat="46.98993679555698" lon="11.496272171278745"><ele>1359.0</ele><time>2026-05-01T06:21:02.36Z</time></trkpt><trkpt lat="46.98974977402047" lon="11.496151165502477"><ele>1362.5</ele><time>2026-05-01T06:21:03.358Z</time></trkpt><trkpt lat="46.98955758031134" lon="11.49603469162544"><ele>1366.0</ele><time>2026-05-01T06:21:04.349Z</time></trkpt><trkpt lat="46.98931514999999" lon="11.49608025"><ele>1361.6666666666665</ele><time>2026-05-01T06:21:05.362Z</time></trkpt><trkpt lat="46.98911594999999" lon="11.496006466666664"><ele>1357.3333333333333</ele><time>2026-05-01T06:21:06.341Z</time></trkpt><trkpt lat="46.988920949999994" lon="11.49593185"><ele>1353.0</ele><time>2026-05-01T06:21:07.357Z</time></trkpt><trkpt lat="46.98872636666667" lon="11.49585343333333"><ele>1353.0</ele><time>2026-05-01T06:21:08.365Z</time></trkpt><trkpt lat="46.98853213333333" lon="11.495780466666668"><ele>1353.0</ele><time>2026-05-01T06:21:09.36Z</time></trkpt><trkpt lat="46.98833658333333" lon="11.495708616666665"><ele>1353.0</ele><time>2026-05-01T06:21:10.342Z</time></trkpt><trkpt lat="46.98813839999999" lon="11.49563175"><ele>1353.6666666666667</ele><time>2026-05-01T06:21:11.342Z</time></trkpt><trkpt lat="46.987942000000004" lon="11.495555649999998"><ele>1354.3333333333335</ele><time>2026-05-01T06:21:12.362Z</time></trkpt><trkpt lat="46.98774554999999" lon="11.495482816666668"><ele>1355.0</ele><time>2026-05-01T06:21:13.341Z</time></trkpt><trkpt lat="46.98755526666667" lon="11.495410183333336"><ele>1356.3333333333335</ele><time>2026-05-01T06:21:14.343Z</time></trkpt><trkpt lat="46.98737156666667" lon="11.495336533333333"><ele>1357.6666666666667</ele><time>2026-05-01T06:21:15.344Z</time></trkpt><trkpt lat="46.987183833333326" lon="11.4952677"><ele>1359.0</ele><time>2026-05-01T06:21:16.359Z</time></trkpt><trkpt lat="46.987001166666666" lon="11.4951984"><ele>1359.0</ele><time>2026-05-01T06:21:17.36Z</time></trkpt><trkpt lat="46.98682531666667" lon="11.495127316666666"><ele>1359.0</ele><time>2026-05-01T06:21:18.36Z</time></trkpt><trkpt lat="46.98664915" lon="11.495057666666666"><ele>1359.0</ele><time>2026-05-01T06:21:19.364Z</time></trkpt><trkpt lat="46.98647495" lon="11.49498895"><ele>1354.6666666666667</ele><time>2026-05-01T06:21:20.36Z</time></trkpt><trkpt lat="46.986299466666665" lon="11.4949224"><ele>1350.3333333333335</ele><time>2026-05-01T06:21:21.359Z</time></trkpt><trkpt lat="46.98612238333333" lon="11.494858766666667"><ele>1346.0</ele><time>2026-05-01T06:21:22.365Z</time></trkpt><trkpt lat="46.98594865" lon="11.494786500000002"><ele>1346.0</ele><time>2026-05-01T06:21:23.363Z</time></trkpt><trkpt lat="46.98577393333333" lon="11.494712250000001"><ele>1346.0</ele><time>2026-05-01T06:21:24.36Z</time></trkpt><trkpt lat="46.98559468333333" lon="11.494637716666666"><ele>1346.0</ele><time>2026-05-01T06:21:25.361Z</time></trkpt><trkpt lat="46.98541216666667" lon="11.494556333333332"><ele>1346.0</ele><time>2026-05-01T06:21:26.36Z</time></trkpt><trkpt lat="46.98522746666666" lon="11.494464633333333"><ele>1346.0</ele><time>2026-05-01T06:21:27.359Z</time></trkpt><trkpt lat="46.985039549999996" lon="11.494366216666666"><ele>1346.0</ele><time>2026-05-01T06:21:28.352Z</time></trkpt><trkpt lat="46.98485031666667" lon="11.494252749999998"><ele>1342.6666666666667</ele><time>2026-05-01T06:21:29.36Z</time></trkpt><trkpt lat="46.98466351666666" lon="11.49412625"><ele>1339.3333333333333</ele><time>2026-05-01T06:21:30.348Z</time></trkpt><trkpt lat="46.98447898333334" lon="11.493986833333334"><ele>1336.0</ele><time>2026-05-01T06:21:31.351Z</time></trkpt><trkpt lat="46.98429653333333" lon="11.493834633333332"><ele>1336.3333333333333</ele><time>2026-05-01T06:21:32.36Z</time></trkpt><trkpt lat="46.98412298333333" lon="11.493670183333332"><ele>1336.6666666666667</ele><time>2026-05-01T06:21:33.36Z</time></trkpt><trkpt lat="46.983964283333336" lon="11.493501816666667"><ele>1337.0</ele><time>2026-05-01T06:21:34.353Z</time></trkpt><trkpt lat="46.98381333333334" lon="11.493324299999998"><ele>1337.0</ele><time>2026-05-01T06:21:35.341Z</time></trkpt><trkpt lat="46.983664600000004" lon="11.493136616666666"><ele>1337.0</ele><time>2026-05-01T06:21:36.362Z</time></trkpt><trkpt lat="46.983511883333335" lon="11.492941616666666"><ele>1337.0</ele><time>2026-05-01T06:21:37.355Z</time></trkpt><trkpt lat="46.98335610000001" lon="11.492747166666668"><ele>1335.6666666666667</ele><time>2026-05-01T06:21:38.359Z</time></trkpt><trkpt lat="46.98320116666667" lon="11.49256"><ele>1334.3333333333333</ele><time>2026-05-01T06:21:39.35Z</time></trkpt><trkpt lat="46.983047133333336" lon="11.492379466666668"><ele>1333.0</ele><time>2026-05-01T06:21:40.352Z</time></trkpt><trkpt lat="46.982890166666664" lon="11.492212"><ele>1332.0</ele><time>2026-05-01T06:21:41.359Z</time></trkpt><trkpt lat="46.98273111666668" lon="11.492056799999999"><ele>1331.0</ele><time>2026-05-01T06:21:42.343Z</time></trkpt><trkpt lat="46.98256786666668" lon="11.491916166666666"><ele>1330.0</ele><time>2026-05-01T06:21:43.343Z</time></trkpt><trkpt lat="46.982402" lon="11.491781983333333"><ele>1330.0</ele><time>2026-05-01T06:21:44.343Z</time></trkpt><trkpt lat="46.982238949999996" lon="11.491635049999998"><ele>1330.0</ele><time>2026-05-01T06:21:45.36Z</time></trkpt><trkpt lat="46.982089166666675" lon="11.491463366666668"><ele>1330.0</ele><time>2026-05-01T06:21:46.35Z</time></trkpt><trkpt lat="46.981957616666655" lon="11.491276016666665"><ele>1329.3333333333333</ele><time>2026-05-01T06:21:47.362Z</time></trkpt><trkpt lat="46.98183681666666" lon="11.491085466666668"><ele>1328.6666666666667</ele><time>2026-05-01T06:21:48.35Z</time></trkpt><trkpt lat="46.981724316666664" lon="11.490900416666667"><ele>1328.0</ele><time>2026-05-01T06:21:49.347Z</time></trkpt><trkpt lat="46.981620066666665" lon="11.490712783333333"><ele>1328.0</ele><time>2026-05-01T06:21:50.36Z</time></trkpt><trkpt lat="46.98151855" lon="11.490523633333332"><ele>1328.0</ele><time>2026-05-01T06:21:51.361Z</time></trkpt><trkpt lat="46.981418066666656" lon="11.490340499999999"><ele>1328.0</ele><time>2026-05-01T06:21:52.361Z</time></trkpt><trkpt lat="46.98132090000001" lon="11.490163866666668"><ele>1329.0</ele><time>2026-05-01T06:21:53.364Z</time></trkpt><trkpt lat="46.98122573333333" lon="11.489992216666668"><ele>1330.0</ele><time>2026-05-01T06:21:54.36Z</time></trkpt><trkpt lat="46.98113225" lon="11.489822716666666"><ele>1331.0</ele><time>2026-05-01T06:21:55.343Z</time></trkpt><trkpt lat="46.98103736666667" lon="11.48965125"><ele>1329.6666666666667</ele><time>2026-05-01T06:21:56.36Z</time></trkpt><trkpt lat="46.98095336666667" lon="11.489464016666668"><ele>1328.3333333333333</ele><time>2026-05-01T06:21:57.344Z</time></trkpt><trkpt lat="46.98088078333333" lon="11.489254"><ele>1327.0</ele><time>2026-05-01T06:21:58.344Z</time></trkpt><trkpt lat="46.98081421666667" lon="11.489028000000001"><ele>1327.0</ele><time>2026-05-01T06:21:59.359Z</time></trkpt><trkpt lat="46.98075009999999" lon="11.488780733333334"><ele>1327.0</ele><time>2026-05-01T06:22:00.36Z</time></trkpt><trkpt lat="46.980674483333324" lon="11.4885092"><ele>1327.0</ele><time>2026-05-01T06:22:01.341Z</time></trkpt><trkpt lat="46.980579500000005" lon="11.488214366666666"><ele>1329.5</ele><time>2026-05-01T06:22:02.36Z</time></trkpt><trkpt lat="46.98047168333333" lon="11.487891233333334"><ele>1332.0</ele><time>2026-05-01T06:22:03.362Z</time></trkpt><trkpt lat="46.98035838333334" lon="11.487542716666667"><ele>1332.0</ele><time>2026-05-01T06:22:04.339Z</time></trkpt><trkpt lat="46.980247549999994" lon="11.487183333333334"><ele>1332.0</ele><time>2026-05-01T06:22:05.36Z</time></trkpt><trkpt lat="46.98014526666666" lon="11.486832399999999"><ele>1326.5</ele><time>2026-05-01T06:22:06.36Z</time></trkpt><trkpt lat="46.980046683333335" lon="11.486496733333336"><ele>1321.0</ele><time>2026-05-01T06:22:07.35Z</time></trkpt><trkpt lat="46.979947833333334" lon="11.486179049999997"><ele>1321.0</ele><time>2026-05-01T06:22:08.389Z</time></trkpt><trkpt lat="46.979843216666666" lon="11.485868833333331"><ele>1321.0</ele><time>2026-05-01T06:22:09.394Z</time></trkpt><trkpt lat="46.97973161666667" lon="11.485558983333332"><ele>1334.0</ele><time>2026-05-01T06:22:10.369Z</time></trkpt><trkpt lat="46.9796068" lon="11.48525435"><ele>1347.0</ele><time>2026-05-01T06:22:11.369Z</time></trkpt><trkpt lat="46.9794613" lon="11.484955466666667"><ele>1347.0</ele><time>2026-05-01T06:22:12.379Z</time></trkpt><trkpt lat="46.97930045" lon="11.484666"><ele>1347.0</ele><time>2026-05-01T06:22:13.362Z</time></trkpt><trkpt lat="46.9791338" lon="11.484381749999999"><ele>1339.5</ele><time>2026-05-01T06:22:14.351Z</time></trkpt><trkpt lat="46.97896291666666" lon="11.484098950000002"><ele>1332.0</ele><time>2026-05-01T06:22:15.341Z</time></trkpt><trkpt lat="46.97878851666666" lon="11.48381575"><ele>1341.0</ele><time>2026-05-01T06:22:16.341Z</time></trkpt><trkpt lat="46.97861623333333" lon="11.483533849999999"><ele>1350.0</ele><time>2026-05-01T06:22:17.339Z</time></trkpt><trkpt lat="46.978444333333336" lon="11.483252816666667"><ele>1338.5</ele><time>2026-05-01T06:22:18.344Z</time></trkpt><trkpt lat="46.97827065" lon="11.48297995"><ele>1327.0</ele><time>2026-05-01T06:22:19.344Z</time></trkpt><trkpt lat="46.97809263333334" lon="11.4827306"><ele>1327.0</ele><time>2026-05-01T06:22:20.359Z</time></trkpt><trkpt lat="46.977901800000005" lon="11.482519216666667"><ele>1327.0</ele><time>2026-05-01T06:22:21.341Z</time></trkpt><trkpt lat="46.97769705" lon="11.4823515"><ele>1320.5</ele><time>2026-05-01T06:22:22.342Z</time></trkpt><trkpt lat="46.977482200000004" lon="11.482212683333334"><ele>1314.0</ele><time>2026-05-01T06:22:23.357Z</time></trkpt><trkpt lat="46.977260166666674" lon="11.482093783333335"><ele>1314.0</ele><time>2026-05-01T06:22:24.347Z</time></trkpt><trkpt lat="46.97704115" lon="11.481974216666666"><ele>1314.0</ele><time>2026-05-01T06:22:25.347Z</time></trkpt><trkpt lat="46.9768307" lon="11.481857400000003"><ele>1314.6666666666667</ele><time>2026-05-01T06:22:26.354Z</time></trkpt><trkpt lat="46.9766319" lon="11.48174786666667"><ele>1315.3333333333335</ele><time>2026-05-01T06:22:27.355Z</time></trkpt><trkpt lat="46.97645043333333" lon="11.481616566666665"><ele>1316.0</ele><time>2026-05-01T06:22:28.347Z</time></trkpt><trkpt lat="46.976287233333345" lon="11.481453166666666"><ele>1315.3333333333335</ele><time>2026-05-01T06:22:29.343Z</time></trkpt><trkpt lat="46.976140699999995" lon="11.4812592"><ele>1314.6666666666667</ele><time>2026-05-01T06:22:30.341Z</time></trkpt><trkpt lat="46.97601074999999" lon="11.481040649999999"><ele>1314.0</ele><time>2026-05-01T06:22:31.348Z</time></trkpt><trkpt lat="46.97589334999999" lon="11.4808039"><ele>1313.6666666666667</ele><time>2026-05-01T06:22:32.35Z</time></trkpt><trkpt lat="46.97577713333334" lon="11.480555033333335"><ele>1313.3333333333335</ele><time>2026-05-01T06:22:33.343Z</time></trkpt><trkpt lat="46.97565956666667" lon="11.480303750000001"><ele>1313.0</ele><time>2026-05-01T06:22:34.343Z</time></trkpt><trkpt lat="46.97554051666666" lon="11.480048933333334"><ele>1313.0</ele><time>2026-05-01T06:22:35.35Z</time></trkpt><trkpt lat="46.975417666666665" lon="11.47979065"><ele>1313.0</ele><time>2026-05-01T06:22:36.342Z</time></trkpt><trkpt lat="46.97528978333333" lon="11.479527916666665"><ele>1313.0</ele><time>2026-05-01T06:22:37.343Z</time></trkpt><trkpt lat="46.97515973333334" lon="11.479257483333333"><ele>1312.0</ele><time>2026-05-01T06:22:38.342Z</time></trkpt><trkpt lat="46.975026483333345" lon="11.478984666666669"><ele>1311.0</ele><time>2026-05-01T06:22:39.341Z</time></trkpt><trkpt lat="46.974890216666665" lon="11.478712"><ele>1310.3333333333333</ele><time>2026-05-01T06:22:40.347Z</time></trkpt><trkpt lat="46.974757950000004" lon="11.47844385"><ele>1309.6666666666665</ele><time>2026-05-01T06:22:41.35Z</time></trkpt><trkpt lat="46.97463098333333" lon="11.478184783333333"><ele>1309.0</ele><time>2026-05-01T06:22:42.343Z</time></trkpt><trkpt lat="46.9745007" lon="11.47792775"><ele>1309.0</ele><time>2026-05-01T06:22:43.344Z</time></trkpt><trkpt lat="46.974365883333334" lon="11.477680283333333"><ele>1309.0</ele><time>2026-05-01T06:22:44.351Z</time></trkpt><trkpt lat="46.97422929999999" lon="11.477445883333331"><ele>1309.0</ele><time>2026-05-01T06:22:45.341Z</time></trkpt><trkpt lat="46.97408833333334" lon="11.477222783333332"><ele>1308.6666666666665</ele><time>2026-05-01T06:22:46.351Z</time></trkpt><trkpt lat="46.97394623333333" lon="11.477010233333333"><ele>1308.3333333333333</ele><time>2026-05-01T06:22:47.342Z</time></trkpt><trkpt lat="46.973800600000004" lon="11.476808333333334"><ele>1308.0</ele><time>2026-05-01T06:22:48.342Z</time></trkpt><trkpt lat="46.9736543" lon="11.47660895"><ele>1308.0</ele><time>2026-05-01T06:22:49.352Z</time></trkpt><trkpt lat="46.97351268333333" lon="11.476416483333333"><ele>1308.0</ele><time>2026-05-01T06:22:50.35Z</time></trkpt><trkpt lat="46.97337491666667" lon="11.476233233333334"><ele>1308.0</ele><time>2026-05-01T06:22:51.344Z</time></trkpt><trkpt lat="46.97323905" lon="11.476050549999998"><ele>1306.6666666666667</ele><time>2026-05-01T06:22:52.359Z</time></trkpt><trkpt lat="46.973103949999995" lon="11.475867166666667"><ele>1305.3333333333335</ele><time>2026-05-01T06:22:53.345Z</time></trkpt><trkpt lat="46.97297076666667" lon="11.4756847"><ele>1304.0</ele><time>2026-05-01T06:22:54.342Z</time></trkpt><trkpt lat="46.97283663333333" lon="11.475504583333333"><ele>1303.6666666666667</ele><time>2026-05-01T06:22:55.352Z</time></trkpt><trkpt lat="46.97269835000001" lon="11.475322733333334"><ele>1303.3333333333333</ele><time>2026-05-01T06:22:56.361Z</time></trkpt><trkpt lat="46.97255401666666" lon="11.475140733333335"><ele>1303.0</ele><time>2026-05-01T06:22:57.342Z</time></trkpt><trkpt lat="46.97241016666667" lon="11.474954733333332"><ele>1303.0</ele><time>2026-05-01T06:22:58.347Z</time></trkpt><trkpt lat="46.9722689" lon="11.474762633333333"><ele>1303.0</ele><time>2026-05-01T06:22:59.346Z</time></trkpt><trkpt lat="46.9721288" lon="11.474570966666667"><ele>1303.0</ele><time>2026-05-01T06:23:00.34Z</time></trkpt><trkpt lat="46.97198768333333" lon="11.474383799999998"><ele>1303.0</ele><time>2026-05-01T06:23:01.361Z</time></trkpt><trkpt lat="46.97184901666666" lon="11.474201999999998"><ele>1303.0</ele><time>2026-05-01T06:23:02.356Z</time></trkpt><trkpt lat="46.97171183333333" lon="11.47402565"><ele>1303.0</ele><time>2026-05-01T06:23:03.355Z</time></trkpt><trkpt lat="46.971570533333335" lon="11.473847033333334"><ele>1303.3333333333333</ele><time>2026-05-01T06:23:04.349Z</time></trkpt><trkpt lat="46.97142430000001" lon="11.473661333333334"><ele>1303.6666666666667</ele><time>2026-05-01T06:23:05.343Z</time></trkpt><trkpt lat="46.97127685" lon="11.473472533333332"><ele>1304.0</ele><time>2026-05-01T06:23:06.352Z</time></trkpt><trkpt lat="46.97113448333333" lon="11.473289666666668"><ele>1304.0</ele><time>2026-05-01T06:23:07.363Z</time></trkpt><trkpt lat="46.97099029999999" lon="11.473107516666667"><ele>1304.0</ele><time>2026-05-01T06:23:08.348Z</time></trkpt><trkpt lat="46.970841699999994" lon="11.472924516666668"><ele>1304.0</ele><time>2026-05-01T06:23:09.341Z</time></trkpt><trkpt lat="46.9706897" lon="11.472739533333334"><ele>1303.6666666666667</ele><time>2026-05-01T06:23:10.362Z</time></trkpt><trkpt lat="46.9705328" lon="11.472544650000001"><ele>1303.3333333333333</ele><time>2026-05-01T06:23:11.347Z</time></trkpt><trkpt lat="46.97036844999999" lon="11.472340216666664"><ele>1303.0</ele><time>2026-05-01T06:23:12.342Z</time></trkpt><trkpt lat="46.9702027" lon="11.472129549999998"><ele>1303.0</ele><time>2026-05-01T06:23:13.347Z</time></trkpt><trkpt lat="46.97002493333333" lon="11.471912116666665"><ele>1303.0</ele><time>2026-05-01T06:23:14.364Z</time></trkpt><trkpt lat="46.969830249999994" lon="11.471686383333335"><ele>1303.0</ele><time>2026-05-01T06:23:15.353Z</time></trkpt><trkpt lat="46.96962443333334" lon="11.471442183333332"><ele>1303.0</ele><time>2026-05-01T06:23:16.362Z</time></trkpt><trkpt lat="46.969412866666666" lon="11.471177633333332"><ele>1303.0</ele><time>2026-05-01T06:23:17.349Z</time></trkpt><trkpt lat="46.96919191666666" lon="11.470889866666667"><ele>1303.0</ele><time>2026-05-01T06:23:18.355Z</time></trkpt><trkpt lat="46.96895821666667" lon="11.4705896"><ele>1302.0</ele><time>2026-05-01T06:23:19.343Z</time></trkpt><trkpt lat="46.96871598333334" lon="11.470282583333335"><ele>1301.0</ele><time>2026-05-01T06:23:20.346Z</time></trkpt><trkpt lat="46.968469683333325" lon="11.469974383333332"><ele>1300.0</ele><time>2026-05-01T06:23:21.354Z</time></trkpt><trkpt lat="46.96822423333333" lon="11.469672299999997"><ele>1299.0</ele><time>2026-05-01T06:23:22.351Z</time></trkpt><trkpt lat="46.96798583333333" lon="11.469373916666665"><ele>1299.0</ele><time>2026-05-01T06:23:23.351Z</time></trkpt><trkpt lat="46.96774618333334" lon="11.46908705"><ele>1299.0</ele><time>2026-05-01T06:23:24.342Z</time></trkpt><trkpt lat="46.96751341666666" lon="11.468802683333335"><ele>1299.5</ele><time>2026-05-01T06:23:25.36Z</time></trkpt><trkpt lat="46.96728793333333" lon="11.468524966666665"><ele>1300.0</ele><time>2026-05-01T06:23:26.349Z</time></trkpt><trkpt lat="46.96706853333333" lon="11.4682498"><ele>1300.0</ele><time>2026-05-01T06:23:27.343Z</time></trkpt><trkpt lat="46.96684833333334" lon="11.467974566666665"><ele>1300.0</ele><time>2026-05-01T06:23:28.35Z</time></trkpt><trkpt lat="46.96663233333334" lon="11.46770635"><ele>1298.5</ele><time>2026-05-01T06:23:29.348Z</time></trkpt><trkpt lat="46.96642116666667" lon="11.46744005"><ele>1297.0</ele><time>2026-05-01T06:23:30.342Z</time></trkpt><trkpt lat="46.966206283333335" lon="11.467175866666665"><ele>1298.5</ele><time>2026-05-01T06:23:31.348Z</time></trkpt><trkpt lat="46.965991616666656" lon="11.466915766666668"><ele>1300.0</ele><time>2026-05-01T06:23:32.355Z</time></trkpt><trkpt lat="46.96578030000001" lon="11.466655633333335"><ele>1300.0</ele><time>2026-05-01T06:23:33.358Z</time></trkpt><trkpt lat="46.96557098333333" lon="11.466394583333333"><ele>1300.0</ele><time>2026-05-01T06:23:34.34Z</time></trkpt><trkpt lat="46.96536044999999" lon="11.466138033333335"><ele>1301.0</ele><time>2026-05-01T06:23:35.356Z</time></trkpt><trkpt lat="46.96514946666666" lon="11.465882633333335"><ele>1302.0</ele><time>2026-05-01T06:23:36.361Z</time></trkpt><trkpt lat="46.964938333333336" lon="11.465629100000001"><ele>1299.5</ele><time>2026-05-01T06:23:37.342Z</time></trkpt><trkpt lat="46.96472803333333" lon="11.465379983333332"><ele>1297.0</ele><time>2026-05-01T06:23:38.366Z</time></trkpt><trkpt lat="46.964516933333336" lon="11.465132000000002"><ele>1297.0</ele><time>2026-05-01T06:23:39.36Z</time></trkpt><trkpt lat="46.964301449999994" lon="11.464886866666667"><ele>1297.0</ele><time>2026-05-01T06:23:40.342Z</time></trkpt><trkpt lat="46.96408705000001" lon="11.464638633333335"><ele>1298.5</ele><time>2026-05-01T06:23:41.36Z</time></trkpt><trkpt lat="46.96387735" lon="11.46438745"><ele>1300.0</ele><time>2026-05-01T06:23:42.36Z</time></trkpt><trkpt lat="46.9636714" lon="11.464136"><ele>1300.0</ele><time>2026-05-01T06:23:43.36Z</time></trkpt><trkpt lat="46.963476916666664" lon="11.463893833333334"><ele>1300.0</ele><time>2026-05-01T06:23:44.355Z</time></trkpt><trkpt lat="46.96329188333334" lon="11.4636652"><ele>1299.6666666666665</ele><time>2026-05-01T06:23:45.36Z</time></trkpt><trkpt lat="46.963110216666664" lon="11.463462683333335"><ele>1299.3333333333333</ele><time>2026-05-01T06:23:46.342Z</time></trkpt><trkpt lat="46.962933176654914" lon="11.4632692568574"><ele>1299.0</ele><time>2026-05-01T06:23:47.371Z</time></trkpt><trkpt lat="46.9627248090443" lon="11.463140078088301"><ele>1296.5</ele><time>2026-05-01T06:23:48.351Z</time></trkpt><trkpt lat="46.96250472336342" lon="11.463069605956116"><ele>1294.0</ele><time>2026-05-01T06:23:49.363Z</time></trkpt><trkpt lat="46.96226321666666" lon="11.46305205"><ele>1294.0</ele><time>2026-05-01T06:23:50.354Z</time></trkpt><trkpt lat="46.96200291666667" lon="11.463052000000001"><ele>1294.0</ele><time>2026-05-01T06:23:51.361Z</time></trkpt><trkpt lat="46.96174228333333" lon="11.463085316666664"><ele>1290.5</ele><time>2026-05-01T06:23:52.342Z</time></trkpt><trkpt lat="46.96148443333333" lon="11.463105700000002"><ele>1287.0</ele><time>2026-05-01T06:23:53.358Z</time></trkpt><trkpt lat="46.96122463333333" lon="11.463118083333333"><ele>1287.0</ele><time>2026-05-01T06:23:54.36Z</time></trkpt><trkpt lat="46.96096519999999" lon="11.463099900000001"><ele>1287.0</ele><time>2026-05-01T06:23:55.342Z</time></trkpt><trkpt lat="46.96071083333333" lon="11.463050983333336"><ele>1288.5</ele><time>2026-05-01T06:23:56.356Z</time></trkpt><trkpt lat="46.9604566" lon="11.462970633333335"><ele>1290.0</ele><time>2026-05-01T06:23:57.348Z</time></trkpt><trkpt lat="46.96019846666667" lon="11.462871766666668"><ele>1282.0</ele><time>2026-05-01T06:23:58.353Z</time></trkpt><trkpt lat="46.95994353333334" lon="11.462759000000002"><ele>1274.0</ele><time>2026-05-01T06:23:59.354Z</time></trkpt><trkpt lat="46.959699083333334" lon="11.462618616666667"><ele>1274.0</ele><time>2026-05-01T06:24:00.364Z</time></trkpt><trkpt lat="46.95947635000001" lon="11.4624358"><ele>1274.0</ele><time>2026-05-01T06:24:01.341Z</time></trkpt><trkpt lat="46.95927478333333" lon="11.462210599999999"><ele>1271.0</ele><time>2026-05-01T06:24:02.358Z</time></trkpt><trkpt lat="46.95908656666667" lon="11.461956233333334"><ele>1268.0</ele><time>2026-05-01T06:24:03.36Z</time></trkpt><trkpt lat="46.95890970000001" lon="11.46168835"><ele>1268.0</ele><time>2026-05-01T06:24:04.353Z</time></trkpt><trkpt lat="46.958743000000005" lon="11.461429633333335"><ele>1268.0</ele><time>2026-05-01T06:24:05.357Z</time></trkpt><trkpt lat="46.95858276666666" lon="11.461193"><ele>1265.0</ele><time>2026-05-01T06:24:06.366Z</time></trkpt><trkpt lat="46.95841386666666" lon="11.46098825"><ele>1262.0</ele><time>2026-05-01T06:24:07.352Z</time></trkpt><trkpt lat="46.95822976666667" lon="11.460826483333335"><ele>1259.0</ele><time>2026-05-01T06:24:08.355Z</time></trkpt><trkpt lat="46.95802534999999" lon="11.460713216666667"><ele>1258.0</ele><time>2026-05-01T06:24:09.361Z</time></trkpt><trkpt lat="46.95781333333333" lon="11.460626183333334"><ele>1257.0</ele><time>2026-05-01T06:24:10.34Z</time></trkpt><trkpt lat="46.957614583333324" lon="11.460508033333333"><ele>1256.0</ele><time>2026-05-01T06:24:11.363Z</time></trkpt><trkpt lat="46.95742943333333" lon="11.460339450000001"><ele>1254.0</ele><time>2026-05-01T06:24:12.36Z</time></trkpt><trkpt lat="46.957233905063724" lon="11.460263583145222"><ele>1252.0</ele><time>2026-05-01T06:24:13.342Z</time></trkpt><trkpt lat="46.95704887319551" lon="11.460165919703835"><ele>1250.0</ele><time>2026-05-01T06:24:14.358Z</time></trkpt><trkpt lat="46.956970233333344" lon="11.459603583333333"><ele>1253.0</ele><time>2026-05-01T06:24:15.363Z</time></trkpt><trkpt lat="46.95683653333334" lon="11.459344916666664"><ele>1256.0</ele><time>2026-05-01T06:24:16.342Z</time></trkpt><trkpt lat="46.95669243333333" lon="11.459085766666664"><ele>1256.0</ele><time>2026-05-01T06:24:17.354Z</time></trkpt><trkpt lat="46.95653191666667" lon="11.458851233333332"><ele>1256.0</ele><time>2026-05-01T06:24:18.343Z</time></trkpt><trkpt lat="46.95635791666667" lon="11.458637083333334"><ele>1241.0</ele><time>2026-05-01T06:24:19.344Z</time></trkpt><trkpt lat="46.956169749999994" lon="11.45845565"><ele>1226.0</ele><time>2026-05-01T06:24:20.358Z</time></trkpt><trkpt lat="46.95597086666667" lon="11.458302283333333"><ele>1232.6666666666667</ele><time>2026-05-01T06:24:21.36Z</time></trkpt><trkpt lat="46.955769049999994" lon="11.458171816666667"><ele>1239.3333333333333</ele><time>2026-05-01T06:24:22.341Z</time></trkpt><trkpt lat="46.95556948333333" lon="11.458071333333331"><ele>1246.0</ele><time>2026-05-01T06:24:23.358Z</time></trkpt><trkpt lat="46.95537041666667" lon="11.457990016666667"><ele>1241.0</ele><time>2026-05-01T06:24:24.36Z</time></trkpt><trkpt lat="46.95517686666667" lon="11.45792875"><ele>1236.0</ele><time>2026-05-01T06:24:25.342Z</time></trkpt><trkpt lat="46.954992516666664" lon="11.457884933333332"><ele>1231.0</ele><time>2026-05-01T06:24:26.355Z</time></trkpt><trkpt lat="46.95482243333333" lon="11.457851550000003"><ele>1231.0</ele><time>2026-05-01T06:24:27.342Z</time></trkpt><trkpt lat="46.95466125" lon="11.457825366666668"><ele>1231.0</ele><time>2026-05-01T06:24:28.36Z</time></trkpt><trkpt lat="46.95452146666666" lon="11.45777285"><ele>1231.0</ele><time>2026-05-01T06:24:29.361Z</time></trkpt><trkpt lat="46.954416116666664" lon="11.457673016666668"><ele>1231.0</ele><time>2026-05-01T06:24:30.36Z</time></trkpt><trkpt lat="46.95435641666666" lon="11.4575358"><ele>1231.0</ele><time>2026-05-01T06:24:31.34Z</time></trkpt><trkpt lat="46.9543481" lon="11.457379633333334"><ele>1231.0</ele><time>2026-05-01T06:24:32.358Z</time></trkpt><trkpt lat="46.95438925" lon="11.4572283"><ele>1231.0</ele><time>2026-05-01T06:24:33.361Z</time></trkpt><trkpt lat="46.954474899999994" lon="11.457124050000001"><ele>1231.0</ele><time>2026-05-01T06:24:34.342Z</time></trkpt><trkpt lat="46.954594166666666" lon="11.45707595"><ele>1226.6666666666665</ele><time>2026-05-01T06:24:35.355Z</time></trkpt><trkpt lat="46.9547422" lon="11.457064733333334"><ele>1222.3333333333333</ele><time>2026-05-01T06:24:36.36Z</time></trkpt><trkpt lat="46.9549108" lon="11.457072799999999"><ele>1218.0</ele><time>2026-05-01T06:24:37.361Z</time></trkpt><trkpt lat="46.95509865000001" lon="11.457087416666665"><ele>1218.0</ele><time>2026-05-01T06:24:38.361Z</time></trkpt><trkpt lat="46.95530635" lon="11.457100516666667"><ele>1218.0</ele><time>2026-05-01T06:24:39.36Z</time></trkpt><trkpt lat="46.95551793333334" lon="11.457115199999999"><ele>1218.0</ele><time>2026-05-01T06:24:40.35Z</time></trkpt><trkpt lat="46.95572776666666" lon="11.457132216666666"><ele>1217.3333333333333</ele><time>2026-05-01T06:24:41.356Z</time></trkpt><trkpt lat="46.955919650000006" lon="11.457148966666665"><ele>1216.6666666666665</ele><time>2026-05-01T06:24:42.352Z</time></trkpt><trkpt lat="46.956096683333335" lon="11.457166033333332"><ele>1216.0</ele><time>2026-05-01T06:24:43.35Z</time></trkpt><trkpt lat="46.95625161666667" lon="11.457173950000001"><ele>1216.0</ele><time>2026-05-01T06:24:44.355Z</time></trkpt><trkpt lat="46.95638206666666" lon="11.4571387"><ele>1216.0</ele><time>2026-05-01T06:24:45.362Z</time></trkpt><trkpt lat="46.95647286666667" lon="11.457039833333333"><ele>1216.0</ele><time>2026-05-01T06:24:46.351Z</time></trkpt><trkpt lat="46.95652798333334" lon="11.456893433333335"><ele>1216.0</ele><time>2026-05-01T06:24:47.34Z</time></trkpt><trkpt lat="46.95653491666667" lon="11.45671715"><ele>1222.5</ele><time>2026-05-01T06:24:48.362Z</time></trkpt><trkpt lat="46.9564952" lon="11.45654655"><ele>1229.0</ele><time>2026-05-01T06:24:49.34Z</time></trkpt><trkpt lat="46.95641223333334" lon="11.456405016666668"><ele>1235.5</ele><time>2026-05-01T06:24:50.363Z</time></trkpt><trkpt lat="46.95628528333334" lon="11.456312400000002"><ele>1242.0</ele><time>2026-05-01T06:24:51.35Z</time></trkpt><trkpt lat="46.95612516666667" lon="11.456270166666664"><ele>1248.3333333333333</ele><time>2026-05-01T06:24:52.353Z</time></trkpt><trkpt lat="46.955937033333335" lon="11.456256400000001"><ele>1254.6666666666665</ele><time>2026-05-01T06:24:53.358Z</time></trkpt><trkpt lat="46.955727666666675" lon="11.456239416666666"><ele>1261.0</ele><time>2026-05-01T06:24:54.36Z</time></trkpt><trkpt lat="46.9554928" lon="11.456217599999999"><ele>1261.0</ele><time>2026-05-01T06:24:55.352Z</time></trkpt><trkpt lat="46.95524391666666" lon="11.456195"><ele>1261.0</ele><time>2026-05-01T06:24:56.342Z</time></trkpt><trkpt lat="46.95499056666666" lon="11.456171749999998"><ele>1253.0</ele><time>2026-05-01T06:24:57.36Z</time></trkpt><trkpt lat="46.95473893333333" lon="11.456154399999997"><ele>1245.0</ele><time>2026-05-01T06:24:58.342Z</time></trkpt><trkpt lat="46.95449723333333" lon="11.456142800000002"><ele>1245.0</ele><time>2026-05-01T06:24:59.355Z</time></trkpt><trkpt lat="46.95427156666666" lon="11.456115716666666"><ele>1245.0</ele><time>2026-05-01T06:25:00.353Z</time></trkpt><trkpt lat="46.954057049999996" lon="11.456084716666664"><ele>1245.0</ele><time>2026-05-01T06:25:01.349Z</time></trkpt><trkpt lat="46.9538475" lon="11.456063316666665"><ele>1239.3333333333333</ele><time>2026-05-01T06:25:02.34Z</time></trkpt><trkpt lat="46.95364913333333" lon="11.4560337"><ele>1233.6666666666665</ele><time>2026-05-01T06:25:03.357Z</time></trkpt><trkpt lat="46.953452" lon="11.455983333333332"><ele>1228.0</ele><time>2026-05-01T06:25:04.358Z</time></trkpt><trkpt lat="46.95325813333334" lon="11.4559008"><ele>1231.3333333333333</ele><time>2026-05-01T06:25:05.355Z</time></trkpt><trkpt lat="46.953070666666655" lon="11.45577765"><ele>1234.6666666666667</ele><time>2026-05-01T06:25:06.368Z</time></trkpt><trkpt lat="46.95289281666666" lon="11.45561275"><ele>1238.0</ele><time>2026-05-01T06:25:07.34Z</time></trkpt><trkpt lat="46.952726433333325" lon="11.455415083333333"><ele>1238.0</ele><time>2026-05-01T06:25:08.356Z</time></trkpt><trkpt lat="46.952558550000006" lon="11.455200383333333"><ele>1238.0</ele><time>2026-05-01T06:25:09.351Z</time></trkpt><trkpt lat="46.9523858" lon="11.454980516666668"><ele>1229.0</ele><time>2026-05-01T06:25:10.349Z</time></trkpt><trkpt lat="46.952215566666666" lon="11.454752616666667"><ele>1220.0</ele><time>2026-05-01T06:25:11.355Z</time></trkpt><trkpt lat="46.95204765" lon="11.454527666666669"><ele>1220.0</ele><time>2026-05-01T06:25:12.34Z</time></trkpt><trkpt lat="46.95188293333334" lon="11.45431595"><ele>1220.0</ele><time>2026-05-01T06:25:13.348Z</time></trkpt><trkpt lat="46.951727166666664" lon="11.45411085"><ele>1220.0</ele><time>2026-05-01T06:25:14.364Z</time></trkpt><trkpt lat="46.95159056666666" lon="11.453902366666668"><ele>1215.0</ele><time>2026-05-01T06:25:15.364Z</time></trkpt><trkpt lat="46.951468483333336" lon="11.453702700000001"><ele>1210.0</ele><time>2026-05-01T06:25:16.351Z</time></trkpt><trkpt lat="46.951340200000004" lon="11.453539450000001"><ele>1205.0</ele><time>2026-05-01T06:25:17.358Z</time></trkpt><trkpt lat="46.951195150000004" lon="11.453421449999999"><ele>1205.0</ele><time>2026-05-01T06:25:18.36Z</time></trkpt><trkpt lat="46.95102886666667" lon="11.453337050000002"><ele>1205.0</ele><time>2026-05-01T06:25:19.349Z</time></trkpt><trkpt lat="46.95084668333334" lon="11.4532836"><ele>1205.0</ele><time>2026-05-01T06:25:20.354Z</time></trkpt><trkpt lat="46.95064821666667" lon="11.453258616666668"><ele>1203.6666666666667</ele><time>2026-05-01T06:25:21.36Z</time></trkpt><trkpt lat="46.95043821666666" lon="11.453229716666664"><ele>1202.3333333333333</ele><time>2026-05-01T06:25:22.342Z</time></trkpt><trkpt lat="46.95022421666666" lon="11.453167883333334"><ele>1201.0</ele><time>2026-05-01T06:25:23.371Z</time></trkpt><trkpt lat="46.950007783333334" lon="11.453082483333333"><ele>1198.0</ele><time>2026-05-01T06:25:24.341Z</time></trkpt><trkpt lat="46.949791016666666" lon="11.452989400000002"><ele>1195.0</ele><time>2026-05-01T06:25:25.351Z</time></trkpt><trkpt lat="46.94957335000001" lon="11.452893783333332"><ele>1195.0</ele><time>2026-05-01T06:25:26.356Z</time></trkpt><trkpt lat="46.94935721666667" lon="11.452797466666667"><ele>1195.0</ele><time>2026-05-01T06:25:27.361Z</time></trkpt><trkpt lat="46.949149233333344" lon="11.452684583333333"><ele>1195.0</ele><time>2026-05-01T06:25:28.35Z</time></trkpt><trkpt lat="46.94894681666666" lon="11.452548850000001"><ele>1195.3333333333333</ele><time>2026-05-01T06:25:29.34Z</time></trkpt><trkpt lat="46.948744233333336" lon="11.452405533333335"><ele>1195.6666666666667</ele><time>2026-05-01T06:25:30.361Z</time></trkpt><trkpt lat="46.94854468333333" lon="11.45225525"><ele>1196.0</ele><time>2026-05-01T06:25:31.34Z</time></trkpt><trkpt lat="46.94834519999999" lon="11.452104116666666"><ele>1191.5</ele><time>2026-05-01T06:25:32.357Z</time></trkpt><trkpt lat="46.94814136666667" lon="11.451958916666669"><ele>1187.0</ele><time>2026-05-01T06:25:33.362Z</time></trkpt><trkpt lat="46.94793475" lon="11.451816533333332"><ele>1187.0</ele><time>2026-05-01T06:25:34.342Z</time></trkpt><trkpt lat="46.947733166666666" lon="11.451675833333336"><ele>1187.0</ele><time>2026-05-01T06:25:35.356Z</time></trkpt><trkpt lat="46.9475322" lon="11.451536966666668"><ele>1187.0</ele><time>2026-05-01T06:25:36.366Z</time></trkpt><trkpt lat="46.94733081666667" lon="11.451397116666666"><ele>1183.6666666666667</ele><time>2026-05-01T06:25:37.351Z</time></trkpt><trkpt lat="46.947130666666666" lon="11.4512608"><ele>1180.3333333333333</ele><time>2026-05-01T06:25:38.355Z</time></trkpt><trkpt lat="46.94692858333333" lon="11.45112935"><ele>1177.0</ele><time>2026-05-01T06:25:39.36Z</time></trkpt><trkpt lat="46.94672693333334" lon="11.451014449999999"><ele>1176.0</ele><time>2026-05-01T06:25:40.351Z</time></trkpt><trkpt lat="46.946519050000006" lon="11.450905599999999"><ele>1175.0</ele><time>2026-05-01T06:25:41.357Z</time></trkpt><trkpt lat="46.946310933333336" lon="11.45079615"><ele>1174.0</ele><time>2026-05-01T06:25:42.36Z</time></trkpt><trkpt lat="46.94610453333333" lon="11.450689233333332"><ele>1174.0</ele><time>2026-05-01T06:25:43.351Z</time></trkpt><trkpt lat="46.94589498333333" lon="11.450581066666667"><ele>1174.0</ele><time>2026-05-01T06:25:44.342Z</time></trkpt><trkpt lat="46.945688950000005" lon="11.450461150000002"><ele>1174.0</ele><time>2026-05-01T06:25:45.342Z</time></trkpt><trkpt lat="46.94549048333334" lon="11.450323800000001"><ele>1172.0</ele><time>2026-05-01T06:25:46.342Z</time></trkpt><trkpt lat="46.94530556666667" lon="11.450159799999998"><ele>1170.0</ele><time>2026-05-01T06:25:47.358Z</time></trkpt><trkpt lat="46.94514236666667" lon="11.44995446666667"><ele>1168.0</ele><time>2026-05-01T06:25:48.36Z</time></trkpt><trkpt lat="46.94499201666665" lon="11.449736099999999"><ele>1169.3333333333333</ele><time>2026-05-01T06:25:49.34Z</time></trkpt><trkpt lat="46.9448389" lon="11.449534649999999"><ele>1170.6666666666667</ele><time>2026-05-01T06:25:50.34Z</time></trkpt><trkpt lat="46.94468025" lon="11.449360650000001"><ele>1172.0</ele><time>2026-05-01T06:25:51.341Z</time></trkpt><trkpt lat="46.94450883333334" lon="11.449213933333331"><ele>1172.0</ele><time>2026-05-01T06:25:52.342Z</time></trkpt><trkpt lat="46.94433025" lon="11.449076566666667"><ele>1172.0</ele><time>2026-05-01T06:25:53.356Z</time></trkpt><trkpt lat="46.94414285" lon="11.448945199999999"><ele>1172.0</ele><time>2026-05-01T06:25:54.364Z</time></trkpt><trkpt lat="46.94395108333333" lon="11.448816050000001"><ele>1169.3333333333335</ele><time>2026-05-01T06:25:55.343Z</time></trkpt><trkpt lat="46.94375598333333" lon="11.448680333333336"><ele>1166.6666666666667</ele><time>2026-05-01T06:25:56.355Z</time></trkpt><trkpt lat="46.943563516666664" lon="11.448535683333333"><ele>1164.0</ele><time>2026-05-01T06:25:57.362Z</time></trkpt><trkpt lat="46.94338028333333" lon="11.448397433333334"><ele>1158.0</ele><time>2026-05-01T06:25:58.34Z</time></trkpt><trkpt lat="46.943187566666666" lon="11.448277016666669"><ele>1152.0</ele><time>2026-05-01T06:25:59.341Z</time></trkpt><trkpt lat="46.94298176666666" lon="11.44817245"><ele>1146.0</ele><time>2026-05-01T06:26:00.365Z</time></trkpt><trkpt lat="46.94276450000001" lon="11.44807685"><ele>1146.0</ele><time>2026-05-01T06:26:01.35Z</time></trkpt><trkpt lat="46.942557333333326" lon="11.447976383333332"><ele>1146.0</ele><time>2026-05-01T06:26:02.357Z</time></trkpt><trkpt lat="46.94235768333333" lon="11.447892583333331"><ele>1146.0</ele><time>2026-05-01T06:26:03.361Z</time></trkpt><trkpt lat="46.94215046666667" lon="11.447850650000003"><ele>1145.5</ele><time>2026-05-01T06:26:04.36Z</time></trkpt><trkpt lat="46.94192743333333" lon="11.447846183333334"><ele>1145.0</ele><time>2026-05-01T06:26:05.357Z</time></trkpt><trkpt lat="46.9416879" lon="11.447859449999997"><ele>1139.5</ele><time>2026-05-01T06:26:06.36Z</time></trkpt><trkpt lat="46.94144871666667" lon="11.447859633333334"><ele>1134.0</ele><time>2026-05-01T06:26:07.341Z</time></trkpt><trkpt lat="46.94121973333334" lon="11.447825016666666"><ele>1134.0</ele><time>2026-05-01T06:26:08.358Z</time></trkpt><trkpt lat="46.941" lon="11.44776585"><ele>1134.0</ele><time>2026-05-01T06:26:09.359Z</time></trkpt><trkpt lat="46.94078485" lon="11.447700483333332"><ele>1134.0</ele><time>2026-05-01T06:26:10.342Z</time></trkpt><trkpt lat="46.94058066196365" lon="11.447594990583166"><ele>1132.6666666666667</ele><time>2026-05-01T06:26:11.358Z</time></trkpt><trkpt lat="46.94037751497899" lon="11.447504914795388"><ele>1131.3333333333335</ele><time>2026-05-01T06:26:12.36Z</time></trkpt><trkpt lat="46.94017985044964" lon="11.44740253562245"><ele>1130.0</ele><time>2026-05-01T06:26:13.36Z</time></trkpt><trkpt lat="46.93999222510216" lon="11.4473040107354"><ele>1129.3333333333335</ele><time>2026-05-01T06:26:14.36Z</time></trkpt><trkpt lat="46.93981847279527" lon="11.447210465771962"><ele>1128.6666666666667</ele><time>2026-05-01T06:26:15.362Z</time></trkpt><trkpt lat="46.93965271543938" lon="11.447121591911625"><ele>1128.0</ele><time>2026-05-01T06:26:16.342Z</time></trkpt><trkpt lat="46.93948823333333" lon="11.447052033333334"><ele>1125.3333333333333</ele><time>2026-05-01T06:26:17.361Z</time></trkpt><trkpt lat="46.9393368" lon="11.446946166666665"><ele>1122.6666666666665</ele><time>2026-05-01T06:26:18.351Z</time></trkpt><trkpt lat="46.93920006666667" lon="11.446825483333335"><ele>1120.0</ele><time>2026-05-01T06:26:19.367Z</time></trkpt><trkpt lat="46.939086299999985" lon="11.446690116666666"><ele>1116.0</ele><time>2026-05-01T06:26:20.358Z</time></trkpt><trkpt lat="46.93899419999999" lon="11.446543816666667"><ele>1112.0</ele><time>2026-05-01T06:26:21.361Z</time></trkpt><trkpt lat="46.93892276666667" lon="11.4463868"><ele>1108.0</ele><time>2026-05-01T06:26:22.35Z</time></trkpt><trkpt lat="46.938866316666655" lon="11.446223883333333"><ele>1104.0</ele><time>2026-05-01T06:26:23.356Z</time></trkpt><trkpt lat="46.93881496666666" lon="11.446073566666668"><ele>1102.8</ele><time>2026-05-01T06:26:24.362Z</time></trkpt><trkpt lat="46.93876566666666" lon="11.445944183333332"><ele>1101.6000000000001</ele><time>2026-05-01T06:26:25.351Z</time></trkpt><trkpt lat="46.9387188" lon="11.44581743333333"><ele>1100.4</ele><time>2026-05-01T06:26:26.359Z</time></trkpt><trkpt lat="46.938666733333335" lon="11.445699833333332"><ele>1099.2</ele><time>2026-05-01T06:26:27.35Z</time></trkpt><trkpt lat="46.9386094" lon="11.445594349999999"><ele>1098.0</ele><time>2026-05-01T06:26:28.35Z</time></trkpt><trkpt lat="46.9385467" lon="11.445500366666666"><ele>1097.8333333333333</ele><time>2026-05-01T06:26:29.358Z</time></trkpt><trkpt lat="46.938483250000004" lon="11.445414516666665"><ele>1097.6666666666667</ele><time>2026-05-01T06:26:30.361Z</time></trkpt><trkpt lat="46.938420933333326" lon="11.445327433333334"><ele>1097.5</ele><time>2026-05-01T06:26:31.342Z</time></trkpt><trkpt lat="46.938371016666665" lon="11.445242983333333"><ele>1097.3333333333335</ele><time>2026-05-01T06:26:32.358Z</time></trkpt><trkpt lat="46.938334950000005" lon="11.445153650000002"><ele>1097.1666666666667</ele><time>2026-05-01T06:26:33.36Z</time></trkpt><trkpt lat="46.93830348333333" lon="11.445051166666667"><ele>1097.0</ele><time>2026-05-01T06:26:34.342Z</time></trkpt><trkpt lat="46.93827793333333" lon="11.444950816666669"><ele>1095.7142857142858</ele><time>2026-05-01T06:26:35.355Z</time></trkpt><trkpt lat="46.9382548" lon="11.444859316666667"><ele>1094.4285714285716</ele><time>2026-05-01T06:26:36.353Z</time></trkpt><trkpt lat="46.93825144060469" lon="11.444759835628275"><ele>1093.142857142857</ele><time>2026-05-01T06:26:37.362Z</time></trkpt><trkpt lat="46.938222324665404" lon="11.444658271888628"><ele>1091.857142857143</ele><time>2026-05-01T06:26:38.359Z</time></trkpt><trkpt lat="46.938178089155684" lon="11.444563860847042"><ele>1090.5714285714284</ele><time>2026-05-01T06:26:39.36Z</time></trkpt><trkpt lat="46.93810885" lon="11.444521799999999"><ele>1089.2857142857142</ele><time>2026-05-01T06:26:40.36Z</time></trkpt><trkpt lat="46.93804420436831" lon="11.444457496380759"><ele>1088.0</ele><time>2026-05-01T06:26:41.357Z</time></trkpt><trkpt lat="46.93795854069258" lon="11.444473425354417"><ele>1088.0</ele><time>2026-05-01T06:26:42.36Z</time></trkpt><trkpt lat="46.93789018350396" lon="11.444502019046585"><ele>1088.0</ele><time>2026-05-01T06:26:43.342Z</time></trkpt><trkpt lat="46.93782081020075" lon="11.444535595784235"><ele>1088.0</ele><time>2026-05-01T06:26:44.355Z</time></trkpt><trkpt lat="46.93775516795234" lon="11.444571340898609"><ele>1088.0</ele><time>2026-05-01T06:26:45.359Z</time></trkpt><trkpt lat="46.93768074374837" lon="11.44461708551577"><ele>1088.0</ele><time>2026-05-01T06:26:46.365Z</time></trkpt><trkpt lat="46.93760064403792" lon="11.444669198548878"><ele>1088.0</ele><time>2026-05-01T06:26:47.357Z</time></trkpt><trkpt lat="46.93752074606858" lon="11.444724742458796"><ele>1086.6</ele><time>2026-05-01T06:26:48.342Z</time></trkpt><trkpt lat="46.93744510379532" lon="11.444779421635712"><ele>1085.1999999999998</ele><time>2026-05-01T06:26:49.341Z</time></trkpt><trkpt lat="46.93736673709046" lon="11.444840198436202"><ele>1083.8</ele><time>2026-05-01T06:26:50.368Z</time></trkpt><trkpt lat="46.937290379610964" lon="11.444900990747762"><ele>1082.3999999999999</ele><time>2026-05-01T06:26:51.36Z</time></trkpt><trkpt lat="46.93720922633466" lon="11.444965265148422"><ele>1081.0</ele><time>2026-05-01T06:26:52.349Z</time></trkpt><trkpt lat="46.937116387775426" lon="11.445021922108374"><ele>1081.0</ele><time>2026-05-01T06:26:53.357Z</time></trkpt><trkpt lat="46.9370215872082" lon="11.445074651486262"><ele>1081.0</ele><time>2026-05-01T06:26:54.362Z</time></trkpt><trkpt lat="46.936924347755195" lon="11.445118229397455"><ele>1081.0</ele><time>2026-05-01T06:26:55.342Z</time></trkpt><trkpt lat="46.936818772737595" lon="11.445158090467737"><ele>1081.0</ele><time>2026-05-01T06:26:56.356Z</time></trkpt><trkpt lat="46.936704695917584" lon="11.445191613701384"><ele>1081.0</ele><time>2026-05-01T06:26:57.36Z</time></trkpt><trkpt lat="46.93659505449361" lon="11.445220100409733"><ele>1080.5</ele><time>2026-05-01T06:26:58.342Z</time></trkpt><trkpt lat="46.93648195313081" lon="11.44524698134263"><ele>1080.0</ele><time>2026-05-01T06:26:59.371Z</time></trkpt><trkpt lat="46.93636275081239" lon="11.445293733679335"><ele>1079.5</ele><time>2026-05-01T06:27:00.356Z</time></trkpt><trkpt lat="46.936252041644345" lon="11.445358667484083"><ele>1079.0</ele><time>2026-05-01T06:27:01.344Z</time></trkpt><trkpt lat="46.93614314346135" lon="11.445441114162794"><ele>1080.0</ele><time>2026-05-01T06:27:02.355Z</time></trkpt><trkpt lat="46.93603303125347" lon="11.445528864501"><ele>1081.0</ele><time>2026-05-01T06:27:03.361Z</time></trkpt><trkpt lat="46.93592620794915" lon="11.445617751849973"><ele>1082.0</ele><time>2026-05-01T06:27:04.352Z</time></trkpt><trkpt lat="46.93581607938716" lon="11.44569999897609"><ele>1083.0</ele><time>2026-05-01T06:27:05.355Z</time></trkpt><trkpt lat="46.93570248296692" lon="11.445779053309842"><ele>1083.0</ele><time>2026-05-01T06:27:06.36Z</time></trkpt><trkpt lat="46.93558891605737" lon="11.445849618726474"><ele>1083.0</ele><time>2026-05-01T06:27:07.341Z</time></trkpt><trkpt lat="46.93547721302903" lon="11.445908452508068"><ele>1083.0</ele><time>2026-05-01T06:27:08.357Z</time></trkpt><trkpt lat="46.93536151938805" lon="11.445962330966605"><ele>1083.0</ele><time>2026-05-01T06:27:09.35Z</time></trkpt><trkpt lat="46.93524551726176" lon="11.4460266341768"><ele>1083.0</ele><time>2026-05-01T06:27:10.342Z</time></trkpt><trkpt lat="46.93512800370459" lon="11.446092572950409"><ele>1083.0</ele><time>2026-05-01T06:27:11.355Z</time></trkpt><trkpt lat="46.93501085893847" lon="11.446157783044963"><ele>1083.0</ele><time>2026-05-01T06:27:12.36Z</time></trkpt><trkpt lat="46.934891591904574" lon="11.446226810612322"><ele>1083.0</ele><time>2026-05-01T06:27:13.342Z</time></trkpt><trkpt lat="46.93477543616246" lon="11.446294698309629"><ele>1084.0</ele><time>2026-05-01T06:27:14.354Z</time></trkpt><trkpt lat="46.934658349711185" lon="11.446363129953674"><ele>1085.0</ele><time>2026-05-01T06:27:15.342Z</time></trkpt><trkpt lat="46.934540587043884" lon="11.44643188832144"><ele>1086.0</ele><time>2026-05-01T06:27:16.344Z</time></trkpt><trkpt lat="46.93442305719302" lon="11.446500470235872"><ele>1087.0</ele><time>2026-05-01T06:27:17.363Z</time></trkpt><trkpt lat="46.9343043386823" lon="11.446569137869085"><ele>1084.25</ele><time>2026-05-01T06:27:18.362Z</time></trkpt><trkpt lat="46.93418359319536" lon="11.446638207048673"><ele>1081.5</ele><time>2026-05-01T06:27:19.34Z</time></trkpt><trkpt lat="46.93406362690732" lon="11.446711071341294"><ele>1078.75</ele><time>2026-05-01T06:27:20.36Z</time></trkpt><trkpt lat="46.93394170397166" lon="11.44679090103776"><ele>1076.0</ele><time>2026-05-01T06:27:21.364Z</time></trkpt><trkpt lat="46.93382485253" lon="11.446893841519662"><ele>1076.0</ele><time>2026-05-01T06:27:22.342Z</time></trkpt><trkpt lat="46.93371903994091" lon="11.447017123265038"><ele>1076.0</ele><time>2026-05-01T06:27:23.366Z</time></trkpt><trkpt lat="46.93361620034005" lon="11.447158472108985"><ele>1076.0</ele><time>2026-05-01T06:27:24.364Z</time></trkpt><trkpt lat="46.93351678306725" lon="11.447316768783038"><ele>1076.0</ele><time>2026-05-01T06:27:25.343Z</time></trkpt><trkpt lat="46.93341467852972" lon="11.447480410711266"><ele>1075.75</ele><time>2026-05-01T06:27:26.359Z</time></trkpt><trkpt lat="46.933313496222475" lon="11.447639756858342"><ele>1075.5</ele><time>2026-05-01T06:27:27.36Z</time></trkpt><trkpt lat="46.9332151079357" lon="11.447778395151229"><ele>1075.25</ele><time>2026-05-01T06:27:28.352Z</time></trkpt><trkpt lat="46.933113911612935" lon="11.447894446743781"><ele>1075.0</ele><time>2026-05-01T06:27:29.358Z</time></trkpt><trkpt lat="46.93300884318957" lon="11.44799562199646"><ele>1077.25</ele><time>2026-05-01T06:27:30.343Z</time></trkpt><trkpt lat="46.93288991635526" lon="11.44808057851267"><ele>1079.5</ele><time>2026-05-01T06:27:31.344Z</time></trkpt><trkpt lat="46.93275938209521" lon="11.448136263733208"><ele>1081.75</ele><time>2026-05-01T06:27:32.355Z</time></trkpt><trkpt lat="46.93261375645635" lon="11.448186153117204"><ele>1084.0</ele><time>2026-05-01T06:27:33.36Z</time></trkpt><trkpt lat="46.932470427197664" lon="11.44823755479482"><ele>1084.0</ele><time>2026-05-01T06:27:34.342Z</time></trkpt><trkpt lat="46.932356475518" lon="11.448278156847286"><ele>1084.0</ele><time>2026-05-01T06:27:35.341Z</time></trkpt><trkpt lat="46.932268400000005" lon="11.448316033333334"><ele>1084.0</ele><time>2026-05-01T06:27:36.361Z</time></trkpt><trkpt lat="46.932176566666676" lon="11.448317133333335"><ele>1084.0</ele><time>2026-05-01T06:27:37.349Z</time></trkpt><trkpt lat="46.932088366666655" lon="11.448321566666667"><ele>1084.0</ele><time>2026-05-01T06:27:38.356Z</time></trkpt><trkpt lat="46.93200016666666" lon="11.448326000000002"><ele>1084.0</ele><time>2026-05-01T06:27:39.364Z</time></trkpt><trkpt lat="46.93191196666667" lon="11.448330433333334"><ele>1084.0</ele><time>2026-05-01T06:27:40.343Z</time></trkpt><trkpt lat="46.93182385" lon="11.44833485"><ele>1084.0</ele><time>2026-05-01T06:27:41.342Z</time></trkpt><trkpt lat="46.93174012712431" lon="11.44837772379368"><ele>1084.0</ele><time>2026-05-01T06:27:42.363Z</time></trkpt><trkpt lat="46.93165398882451" lon="11.44839951116082"><ele>1084.0</ele><time>2026-05-01T06:27:43.34Z</time></trkpt><trkpt lat="46.931567312440094" lon="11.448422108747042"><ele>1084.0</ele><time>2026-05-01T06:27:44.355Z</time></trkpt><trkpt lat="46.93148099914215" lon="11.448442579703729"><ele>1085.6666666666665</ele><time>2026-05-01T06:27:45.345Z</time></trkpt><trkpt lat="46.9313945866115" lon="11.44846307422167"><ele>1087.3333333333333</ele><time>2026-05-01T06:27:46.351Z</time></trkpt><trkpt lat="46.93130817408074" lon="11.448483568738448"><ele>1089.0</ele><time>2026-05-01T06:27:47.358Z</time></trkpt><trkpt lat="46.930626855966594" lon="11.448755711033728"><ele>1051.0</ele><time>2026-05-01T06:27:48.363Z</time></trkpt><trkpt lat="46.92973946141356" lon="11.448837733789185"><ele>1051.0</ele><time>2026-05-01T06:27:49.361Z</time></trkpt><trkpt lat="46.92940508333333" lon="11.448949866666666"><ele>1051.0</ele><time>2026-05-01T06:27:50.342Z</time></trkpt><trkpt lat="46.92908453333333" lon="11.449007400000001"><ele>1051.0</ele><time>2026-05-01T06:27:51.36Z</time></trkpt><trkpt lat="46.9288497" lon="11.449062383333334"><ele>1051.0</ele><time>2026-05-01T06:27:52.351Z</time></trkpt><trkpt lat="46.92861588333333" lon="11.449114"><ele>1051.0</ele><time>2026-05-01T06:27:53.356Z</time></trkpt><trkpt lat="46.928399616666674" lon="11.449162799999998"><ele>1051.0</ele><time>2026-05-01T06:27:54.382Z</time></trkpt><trkpt lat="46.928184849999994" lon="11.449196033333331"><ele>1051.0</ele><time>2026-05-01T06:27:55.358Z</time></trkpt><trkpt lat="46.92799401666666" lon="11.449217933333333"><ele>1049.6666666666665</ele><time>2026-05-01T06:27:56.356Z</time></trkpt><trkpt lat="46.927808000000006" lon="11.449238483333332"><ele>1048.3333333333333</ele><time>2026-05-01T06:27:57.342Z</time></trkpt><trkpt lat="46.92762174999999" lon="11.449260800000003"><ele>1047.0</ele><time>2026-05-01T06:27:58.352Z</time></trkpt><trkpt lat="46.92744353333333" lon="11.449282383333333"><ele>1044.0</ele><time>2026-05-01T06:27:59.342Z</time></trkpt><trkpt lat="46.9272673" lon="11.449307133333331"><ele>1041.0</ele><time>2026-05-01T06:28:00.361Z</time></trkpt><trkpt lat="46.927100683333336" lon="11.449330683333335"><ele>1038.0</ele><time>2026-05-01T06:28:01.35Z</time></trkpt><trkpt lat="46.92693381666667" lon="11.449356966666668"><ele>1038.0</ele><time>2026-05-01T06:28:02.362Z</time></trkpt><trkpt lat="46.92677319999999" lon="11.449381899999999"><ele>1038.0</ele><time>2026-05-01T06:28:03.35Z</time></trkpt><trkpt lat="46.92662456666667" lon="11.4494026"><ele>1038.0</ele><time>2026-05-01T06:28:04.358Z</time></trkpt><trkpt lat="46.92649401666666" lon="11.449411583333331"><ele>1038.0</ele><time>2026-05-01T06:28:05.355Z</time></trkpt><trkpt lat="46.926372916666665" lon="11.44938365"><ele>1036.25</ele><time>2026-05-01T06:28:06.361Z</time></trkpt><trkpt lat="46.92625466666667" lon="11.449313649999999"><ele>1034.5</ele><time>2026-05-01T06:28:07.352Z</time></trkpt><trkpt lat="46.92614948333333" lon="11.449210933333333"><ele>1032.75</ele><time>2026-05-01T06:28:08.356Z</time></trkpt><trkpt lat="46.92606715" lon="11.449070183333333"><ele>1031.0</ele><time>2026-05-01T06:28:09.36Z</time></trkpt><trkpt lat="46.9259994" lon="11.44890225"><ele>1031.75</ele><time>2026-05-01T06:28:10.352Z</time></trkpt><trkpt lat="46.92593401666666" lon="11.4487174"><ele>1032.5</ele><time>2026-05-01T06:28:11.358Z</time></trkpt><trkpt lat="46.92586333333333" lon="11.448533633333334"><ele>1033.25</ele><time>2026-05-01T06:28:12.352Z</time></trkpt><trkpt lat="46.92579151666667" lon="11.448361"><ele>1034.0</ele><time>2026-05-01T06:28:13.352Z</time></trkpt><trkpt lat="46.925725766666666" lon="11.448195449999998"><ele>1034.0</ele><time>2026-05-01T06:28:14.36Z</time></trkpt><trkpt lat="46.925663799999995" lon="11.448026616666668"><ele>1034.0</ele><time>2026-05-01T06:28:15.36Z</time></trkpt><trkpt lat="46.92560841666667" lon="11.447848766666668"><ele>1034.0</ele><time>2026-05-01T06:28:16.359Z</time></trkpt><trkpt lat="46.92556894999999" lon="11.447655716666668"><ele>1034.0</ele><time>2026-05-01T06:28:17.361Z</time></trkpt><trkpt lat="46.925538949999996" lon="11.447455416666665"><ele>1036.5</ele><time>2026-05-01T06:28:18.361Z</time></trkpt><trkpt lat="46.925501816666674" lon="11.447258766666668"><ele>1039.0</ele><time>2026-05-01T06:28:19.34Z</time></trkpt><trkpt lat="46.92544448333333" lon="11.447068850000003"><ele>1041.5</ele><time>2026-05-01T06:28:20.356Z</time></trkpt><trkpt lat="46.925370266666675" lon="11.44688775"><ele>1044.0</ele><time>2026-05-01T06:28:21.352Z</time></trkpt><trkpt lat="46.92528478333334" lon="11.446708466666665"><ele>1048.3333333333333</ele><time>2026-05-01T06:28:22.349Z</time></trkpt><trkpt lat="46.92518348333333" lon="11.446535033333335"><ele>1052.6666666666665</ele><time>2026-05-01T06:28:23.355Z</time></trkpt><trkpt lat="46.925064066666664" lon="11.446372616666668"><ele>1057.0</ele><time>2026-05-01T06:28:24.361Z</time></trkpt><trkpt lat="46.924929533333334" lon="11.446217616666669"><ele>1057.0</ele><time>2026-05-01T06:28:25.342Z</time></trkpt><trkpt lat="46.92478633333334" lon="11.446073083333332"><ele>1057.0</ele><time>2026-05-01T06:28:26.364Z</time></trkpt><trkpt lat="46.92463578333333" lon="11.445947066666667"><ele>1057.0</ele><time>2026-05-01T06:28:27.364Z</time></trkpt><trkpt lat="46.9244682" lon="11.445856066666666"><ele>1057.0</ele><time>2026-05-01T06:28:28.343Z</time></trkpt><trkpt lat="46.924285399999995" lon="11.4457949"><ele>1057.0</ele><time>2026-05-01T06:28:29.355Z</time></trkpt><trkpt lat="46.924095083333334" lon="11.445736016666668"><ele>1057.0</ele><time>2026-05-01T06:28:30.361Z</time></trkpt><trkpt lat="46.92390295" lon="11.445675366666668"><ele>1049.6666666666665</ele><time>2026-05-01T06:28:31.354Z</time></trkpt><trkpt lat="46.92370893333334" lon="11.445619033333333"><ele>1042.3333333333333</ele><time>2026-05-01T06:28:32.361Z</time></trkpt><trkpt lat="46.92352495" lon="11.445561866666667"><ele>1035.0</ele><time>2026-05-01T06:28:33.36Z</time></trkpt><trkpt lat="46.9233414" lon="11.445502816666664"><ele>1039.0</ele><time>2026-05-01T06:28:34.343Z</time></trkpt><trkpt lat="46.9231594" lon="11.445444366666667"><ele>1043.0</ele><time>2026-05-01T06:28:35.371Z</time></trkpt><trkpt lat="46.922983233333326" lon="11.445382600000002"><ele>1047.0</ele><time>2026-05-01T06:28:36.342Z</time></trkpt><trkpt lat="46.92281961666666" lon="11.445319949999998"><ele>1047.0</ele><time>2026-05-01T06:28:37.353Z</time></trkpt><trkpt lat="46.92266108333334" lon="11.4452613"><ele>1047.0</ele><time>2026-05-01T06:28:38.359Z</time></trkpt><trkpt lat="46.92250748333333" lon="11.445202366666669"><ele>1047.0</ele><time>2026-05-01T06:28:39.363Z</time></trkpt><trkpt lat="46.92236930000001" lon="11.445130200000001"><ele>1045.3333333333333</ele><time>2026-05-01T06:28:40.354Z</time></trkpt><trkpt lat="46.922239999999995" lon="11.445029916666664"><ele>1043.6666666666665</ele><time>2026-05-01T06:28:41.356Z</time></trkpt><trkpt lat="46.922090133333334" lon="11.444915533333335"><ele>1042.0</ele><time>2026-05-01T06:28:42.36Z</time></trkpt><trkpt lat="46.92191745513196" lon="11.444849826319338"><ele>1042.0</ele><time>2026-05-01T06:28:43.355Z</time></trkpt><trkpt lat="46.921743824606004" lon="11.44478515202791"><ele>1042.0</ele><time>2026-05-01T06:28:44.357Z</time></trkpt><trkpt lat="46.92157107188953" lon="11.44471773991935"><ele>1042.0</ele><time>2026-05-01T06:28:45.342Z</time></trkpt><trkpt lat="46.92139833184685" lon="11.444650332941599"><ele>1042.3333333333333</ele><time>2026-05-01T06:28:46.34Z</time></trkpt><trkpt lat="46.92122557626502" lon="11.444582919808589"><ele>1042.6666666666667</ele><time>2026-05-01T06:28:47.341Z</time></trkpt><trkpt lat="46.921053424932346" lon="11.444516406490015"><ele>1043.0</ele><time>2026-05-01T06:28:48.359Z</time></trkpt><trkpt lat="46.92088061805437" lon="11.444449956305522"><ele>1043.0</ele><time>2026-05-01T06:28:49.349Z</time></trkpt><trkpt lat="46.92070782677058" lon="11.444383512062362"><ele>1043.0</ele><time>2026-05-01T06:28:50.359Z</time></trkpt><trkpt lat="46.920532133337765" lon="11.444316374859346"><ele>1043.0</ele><time>2026-05-01T06:28:51.36Z</time></trkpt><trkpt lat="46.91996744564365" lon="11.444150232149537"><ele>1037.3333333333335</ele><time>2026-05-01T06:28:52.345Z</time></trkpt><trkpt lat="46.9198321" lon="11.444169583333332"><ele>1031.6666666666667</ele><time>2026-05-01T06:28:53.358Z</time></trkpt><trkpt lat="46.91969903333333" lon="11.444248733333332"><ele>1026.0</ele><time>2026-05-01T06:28:54.363Z</time></trkpt><trkpt lat="46.91952716666667" lon="11.444278883333334"><ele>1026.0</ele><time>2026-05-01T06:28:55.348Z</time></trkpt><trkpt lat="46.91934036666667" lon="11.444302983333333"><ele>1026.0</ele><time>2026-05-01T06:28:56.356Z</time></trkpt><trkpt lat="46.91913924050715" lon="11.444294696446356"><ele>1026.0</ele><time>2026-05-01T06:28:57.343Z</time></trkpt><trkpt lat="46.91892565053273" lon="11.444308758974358"><ele>1027.0</ele><time>2026-05-01T06:28:58.344Z</time></trkpt><trkpt lat="46.91871013333333" lon="11.4443443"><ele>1028.0</ele><time>2026-05-01T06:28:59.358Z</time></trkpt><trkpt lat="46.91850741666667" lon="11.444343033333332"><ele>1029.0</ele><time>2026-05-01T06:29:00.361Z</time></trkpt><trkpt lat="46.918313500000004" lon="11.44432445"><ele>1026.0</ele><time>2026-05-01T06:29:01.345Z</time></trkpt><trkpt lat="46.91813230699786" lon="11.444258929393731"><ele>1023.0</ele><time>2026-05-01T06:29:02.358Z</time></trkpt><trkpt lat="46.91795514815551" lon="11.444204553933083"><ele>1020.0</ele><time>2026-05-01T06:29:03.344Z</time></trkpt><trkpt lat="46.917779510846756" lon="11.44415648352305"><ele>1020.0</ele><time>2026-05-01T06:29:04.343Z</time></trkpt><trkpt lat="46.917596833333334" lon="11.444132516666667"><ele>1020.0</ele><time>2026-05-01T06:29:05.357Z</time></trkpt><trkpt lat="46.91742018333333" lon="11.444084866666666"><ele>1020.0</ele><time>2026-05-01T06:29:06.343Z</time></trkpt><trkpt lat="46.91724858333334" lon="11.4440407"><ele>1014.0</ele><time>2026-05-01T06:29:07.345Z</time></trkpt><trkpt lat="46.917085449999995" lon="11.444001749999998"><ele>1008.0</ele><time>2026-05-01T06:29:08.357Z</time></trkpt><trkpt lat="46.9169296" lon="11.443962566666668"><ele>1002.0</ele><time>2026-05-01T06:29:09.365Z</time></trkpt><trkpt lat="46.916777816666674" lon="11.443919233333334"><ele>998.3333333333333</ele><time>2026-05-01T06:29:10.343Z</time></trkpt><trkpt lat="46.916618666666665" lon="11.443864083333336"><ele>994.6666666666666</ele><time>2026-05-01T06:29:11.356Z</time></trkpt><trkpt lat="46.916457466666664" lon="11.443790333333332"><ele>991.0</ele><time>2026-05-01T06:29:12.362Z</time></trkpt><trkpt lat="46.91629496666666" lon="11.4437064"><ele>994.0</ele><time>2026-05-01T06:29:13.35Z</time></trkpt><trkpt lat="46.91612966666667" lon="11.443607233333335"><ele>997.0</ele><time>2026-05-01T06:29:14.357Z</time></trkpt><trkpt lat="46.915969466666674" lon="11.443487699999999"><ele>1000.0</ele><time>2026-05-01T06:29:15.362Z</time></trkpt><trkpt lat="46.91580916666667" lon="11.443355599999999"><ele>1000.0</ele><time>2026-05-01T06:29:16.36Z</time></trkpt><trkpt lat="46.91565595" lon="11.443228183333334"><ele>1000.0</ele><time>2026-05-01T06:29:17.357Z</time></trkpt><trkpt lat="46.915510250000004" lon="11.443105116666668"><ele>1000.0</ele><time>2026-05-01T06:29:18.361Z</time></trkpt><trkpt lat="46.91537046666667" lon="11.442988583333333"><ele>1000.0</ele><time>2026-05-01T06:29:19.34Z</time></trkpt><trkpt lat="46.915236683333326" lon="11.442884350000002"><ele>1000.0</ele><time>2026-05-01T06:29:20.356Z</time></trkpt><trkpt lat="46.915101549999996" lon="11.442794050000002"><ele>1000.0</ele><time>2026-05-01T06:29:21.342Z</time></trkpt><trkpt lat="46.91496961666667" lon="11.442713733333335"><ele>1000.0</ele><time>2026-05-01T06:29:22.343Z</time></trkpt><trkpt lat="46.91483991666667" lon="11.442634466666668"><ele>1000.0</ele><time>2026-05-01T06:29:23.358Z</time></trkpt><trkpt lat="46.91471508333334" lon="11.442551933333336"><ele>1000.0</ele><time>2026-05-01T06:29:24.361Z</time></trkpt><trkpt lat="46.91459295" lon="11.442463416666666"><ele>1000.0</ele><time>2026-05-01T06:29:25.365Z</time></trkpt><trkpt lat="46.91447525" lon="11.442361049999999"><ele>1000.0</ele><time>2026-05-01T06:29:26.355Z</time></trkpt><trkpt lat="46.91436565" lon="11.442235283333332"><ele>997.0</ele><time>2026-05-01T06:29:27.363Z</time></trkpt><trkpt lat="46.91427158333333" lon="11.442091333333334"><ele>994.0</ele><time>2026-05-01T06:29:28.35Z</time></trkpt><trkpt lat="46.91418935" lon="11.441947583333334"><ele>991.0</ele><time>2026-05-01T06:29:29.342Z</time></trkpt><trkpt lat="46.91411629999999" lon="11.441786733333334"><ele>988.0</ele><time>2026-05-01T06:29:30.352Z</time></trkpt><trkpt lat="46.91404548333334" lon="11.441592566666667"><ele>988.0</ele><time>2026-05-01T06:29:31.365Z</time></trkpt><trkpt lat="46.91397386666666" lon="11.441369000000002"><ele>988.0</ele><time>2026-05-01T06:29:32.363Z</time></trkpt><trkpt lat="46.91390223333333" lon="11.441136616666665"><ele>988.0</ele><time>2026-05-01T06:29:33.342Z</time></trkpt><trkpt lat="46.913835783333326" lon="11.440911183333332"><ele>989.0</ele><time>2026-05-01T06:29:34.351Z</time></trkpt><trkpt lat="46.91377298333334" lon="11.440689483333331"><ele>990.0</ele><time>2026-05-01T06:29:35.34Z</time></trkpt><trkpt lat="46.91370713333334" lon="11.440470249999999"><ele>991.0</ele><time>2026-05-01T06:29:36.352Z</time></trkpt><trkpt lat="46.9136416" lon="11.440248916666667"><ele>991.6666666666666</ele><time>2026-05-01T06:29:37.357Z</time></trkpt><trkpt lat="46.913573799999995" lon="11.44002985"><ele>992.3333333333333</ele><time>2026-05-01T06:29:38.37Z</time></trkpt><trkpt lat="46.91350093333334" lon="11.439813366666666"><ele>993.0</ele><time>2026-05-01T06:29:39.35Z</time></trkpt><trkpt lat="46.91341678333333" lon="11.439606066666666"><ele>987.6666666666667</ele><time>2026-05-01T06:29:40.343Z</time></trkpt><trkpt lat="46.91332013333334" lon="11.439410533333334"><ele>982.3333333333334</ele><time>2026-05-01T06:29:41.372Z</time></trkpt><trkpt lat="46.913210766666666" lon="11.43923175"><ele>977.0</ele><time>2026-05-01T06:29:42.359Z</time></trkpt><trkpt lat="46.91309303333335" lon="11.439069383333333"><ele>977.0</ele><time>2026-05-01T06:29:43.362Z</time></trkpt><trkpt lat="46.91296446666667" lon="11.438914933333335"><ele>977.0</ele><time>2026-05-01T06:29:44.352Z</time></trkpt><trkpt lat="46.91283458333334" lon="11.438771350000001"><ele>977.0</ele><time>2026-05-01T06:29:45.359Z</time></trkpt><trkpt lat="46.91270946666667" lon="11.438635166666666"><ele>976.6666666666667</ele><time>2026-05-01T06:29:46.359Z</time></trkpt><trkpt lat="46.9125806" lon="11.438496000000002"><ele>976.3333333333333</ele><time>2026-05-01T06:29:47.342Z</time></trkpt><trkpt lat="46.912449683333335" lon="11.438358083333332"><ele>976.0</ele><time>2026-05-01T06:29:48.35Z</time></trkpt><trkpt lat="46.9123201" lon="11.438218033333332"><ele>976.0</ele><time>2026-05-01T06:29:49.341Z</time></trkpt><trkpt lat="46.91219051666667" lon="11.438074849999998"><ele>976.0</ele><time>2026-05-01T06:29:50.371Z</time></trkpt><trkpt lat="46.91204928333333" lon="11.437924283333333"><ele>976.0</ele><time>2026-05-01T06:29:51.352Z</time></trkpt><trkpt lat="46.91189723706953" lon="11.437737386001508"><ele>976.0</ele><time>2026-05-01T06:29:52.342Z</time></trkpt><trkpt lat="46.911720798142376" lon="11.43754709838789"><ele>976.0</ele><time>2026-05-01T06:29:53.345Z</time></trkpt><trkpt lat="46.91153508410906" lon="11.437346811135756"><ele>976.0</ele><time>2026-05-01T06:29:54.359Z</time></trkpt><trkpt lat="46.91134444458683" lon="11.437141361849491"><ele>976.0</ele><time>2026-05-01T06:29:55.357Z</time></trkpt><trkpt lat="46.911145516666664" lon="11.4369502"><ele>974.0</ele><time>2026-05-01T06:29:56.357Z</time></trkpt><trkpt lat="46.91095503333333" lon="11.436744183333333"><ele>972.0</ele><time>2026-05-01T06:29:57.343Z</time></trkpt><trkpt lat="46.91076339999999" lon="11.436545066666666"><ele>972.0</ele><time>2026-05-01T06:29:58.356Z</time></trkpt><trkpt lat="46.9105865" lon="11.43634581666667"><ele>972.0</ele><time>2026-05-01T06:29:59.361Z</time></trkpt><trkpt lat="46.91041015000001" lon="11.436146533333332"><ele>972.0</ele><time>2026-05-01T06:30:00.341Z</time></trkpt><trkpt lat="46.91022591666666" lon="11.435949699999998"><ele>976.5</ele><time>2026-05-01T06:30:01.363Z</time></trkpt><trkpt lat="46.91004540000001" lon="11.435746166666668"><ele>981.0</ele><time>2026-05-01T06:30:02.362Z</time></trkpt><trkpt lat="46.90986543333333" lon="11.435538366666666"><ele>991.5</ele><time>2026-05-01T06:30:03.343Z</time></trkpt><trkpt lat="46.909690133333335" lon="11.43532508333333"><ele>1002.0</ele><time>2026-05-01T06:30:04.356Z</time></trkpt><trkpt lat="46.90952068333333" lon="11.435102316666667"><ele>1002.0</ele><time>2026-05-01T06:30:05.343Z</time></trkpt><trkpt lat="46.90935448333333" lon="11.434871699999999"><ele>1002.0</ele><time>2026-05-01T06:30:06.361Z</time></trkpt><trkpt lat="46.90919313333334" lon="11.434636633333334"><ele>993.0</ele><time>2026-05-01T06:30:07.355Z</time></trkpt><trkpt lat="46.90903745000001" lon="11.434398"><ele>984.0</ele><time>2026-05-01T06:30:08.361Z</time></trkpt><trkpt lat="46.90888150000001" lon="11.434160366666665"><ele>984.0</ele><time>2026-05-01T06:30:09.36Z</time></trkpt><trkpt lat="46.90872448333333" lon="11.4339266"><ele>984.0</ele><time>2026-05-01T06:30:10.359Z</time></trkpt><trkpt lat="46.908568349999996" lon="11.433691900000001"><ele>984.0</ele><time>2026-05-01T06:30:11.362Z</time></trkpt><trkpt lat="46.908414716666655" lon="11.4334667"><ele>982.6666666666667</ele><time>2026-05-01T06:30:12.362Z</time></trkpt><trkpt lat="46.90827156666666" lon="11.433254416666667"><ele>981.3333333333334</ele><time>2026-05-01T06:30:13.359Z</time></trkpt><trkpt lat="46.908136166666665" lon="11.433053433333335"><ele>980.0</ele><time>2026-05-01T06:30:14.35Z</time></trkpt><trkpt lat="46.90800408333333" lon="11.432860316666666"><ele>980.0</ele><time>2026-05-01T06:30:15.362Z</time></trkpt><trkpt lat="46.907876016666656" lon="11.432674016666667"><ele>980.0</ele><time>2026-05-01T06:30:16.361Z</time></trkpt><trkpt lat="46.90775606666666" lon="11.432499050000002"><ele>980.0</ele><time>2026-05-01T06:30:17.361Z</time></trkpt><trkpt lat="46.90764226666667" lon="11.432338316666668"><ele>976.75</ele><time>2026-05-01T06:30:18.343Z</time></trkpt><trkpt lat="46.90753998333333" lon="11.43218895"><ele>973.5</ele><time>2026-05-01T06:30:19.359Z</time></trkpt><trkpt lat="46.907446799999995" lon="11.43205085"><ele>970.25</ele><time>2026-05-01T06:30:20.358Z</time></trkpt><trkpt lat="46.907354366666674" lon="11.431927583333334"><ele>967.0</ele><time>2026-05-01T06:30:21.351Z</time></trkpt><trkpt lat="46.90726301666667" lon="11.431812233333334"><ele>967.0</ele><time>2026-05-01T06:30:22.361Z</time></trkpt><trkpt lat="46.907165199999994" lon="11.431699150000002"><ele>967.0</ele><time>2026-05-01T06:30:23.364Z</time></trkpt><trkpt lat="46.907064850000005" lon="11.431587266666668"><ele>967.0</ele><time>2026-05-01T06:30:24.362Z</time></trkpt><trkpt lat="46.906964116666664" lon="11.431485666666667"><ele>967.0</ele><time>2026-05-01T06:30:25.363Z</time></trkpt><trkpt lat="46.906862583333336" lon="11.43138475"><ele>968.0</ele><time>2026-05-01T06:30:26.359Z</time></trkpt><trkpt lat="46.90675833333333" lon="11.431287316666666"><ele>969.0</ele><time>2026-05-01T06:30:27.343Z</time></trkpt><trkpt lat="46.90664866666666" lon="11.431202683333334"><ele>970.0</ele><time>2026-05-01T06:30:28.363Z</time></trkpt><trkpt lat="46.906537033333336" lon="11.431119366666666"><ele>971.0</ele><time>2026-05-01T06:30:29.343Z</time></trkpt><trkpt lat="46.90642433333334" lon="11.431037616666666"><ele>971.0</ele><time>2026-05-01T06:30:30.341Z</time></trkpt><trkpt lat="46.906310366666666" lon="11.430961533333335"><ele>971.0</ele><time>2026-05-01T06:30:31.362Z</time></trkpt><trkpt lat="46.906196249999994" lon="11.430894816666667"><ele>971.0</ele><time>2026-05-01T06:30:32.359Z</time></trkpt><trkpt lat="46.906080833333334" lon="11.43083206666667"><ele>971.0</ele><time>2026-05-01T06:30:33.345Z</time></trkpt><trkpt lat="46.90596466666666" lon="11.430771750000002"><ele>968.25</ele><time>2026-05-01T06:30:34.342Z</time></trkpt><trkpt lat="46.90584766666666" lon="11.430721116666666"><ele>965.5</ele><time>2026-05-01T06:30:35.36Z</time></trkpt><trkpt lat="46.905730250000005" lon="11.4306811"><ele>962.75</ele><time>2026-05-01T06:30:36.364Z</time></trkpt><trkpt lat="46.90561075" lon="11.4306438"><ele>960.0</ele><time>2026-05-01T06:30:37.361Z</time></trkpt><trkpt lat="46.90548973333333" lon="11.430607866666668"><ele>960.0</ele><time>2026-05-01T06:30:38.343Z</time></trkpt><trkpt lat="46.90536986666666" lon="11.430572050000002"><ele>960.0</ele><time>2026-05-01T06:30:39.343Z</time></trkpt><trkpt lat="46.90525011666667" lon="11.430537233333334"><ele>960.0</ele><time>2026-05-01T06:30:40.36Z</time></trkpt><trkpt lat="46.90513243333333" lon="11.430497099999998"><ele>960.0</ele><time>2026-05-01T06:30:41.362Z</time></trkpt><trkpt lat="46.90501538333333" lon="11.430455466666668"><ele>959.5</ele><time>2026-05-01T06:30:42.343Z</time></trkpt><trkpt lat="46.90489673333333" lon="11.430417783333333"><ele>959.0</ele><time>2026-05-01T06:30:43.344Z</time></trkpt><trkpt lat="46.904776483333336" lon="11.430382049999999"><ele>958.5</ele><time>2026-05-01T06:30:44.36Z</time></trkpt><trkpt lat="46.904658850000004" lon="11.43034705"><ele>958.0</ele><time>2026-05-01T06:30:45.342Z</time></trkpt><trkpt lat="46.90454679999999" lon="11.430310650000001"><ele>958.0</ele><time>2026-05-01T06:30:46.361Z</time></trkpt><trkpt lat="46.904435783333334" lon="11.430270283333334"><ele>958.0</ele><time>2026-05-01T06:30:47.339Z</time></trkpt><trkpt lat="46.90432076666666" lon="11.430236816666664"><ele>958.0</ele><time>2026-05-01T06:30:48.343Z</time></trkpt><trkpt lat="46.904206233333326" lon="11.430208916666666"><ele>958.0</ele><time>2026-05-01T06:30:49.361Z</time></trkpt><trkpt lat="46.90409116666666" lon="11.430190716666667"><ele>958.25</ele><time>2026-05-01T06:30:50.36Z</time></trkpt><trkpt lat="46.90397438333333" lon="11.43017828333333"><ele>958.5</ele><time>2026-05-01T06:30:51.364Z</time></trkpt><trkpt lat="46.90385666666666" lon="11.430166766666666"><ele>958.75</ele><time>2026-05-01T06:30:52.363Z</time></trkpt><trkpt lat="46.90373845000001" lon="11.430159433333332"><ele>959.0</ele><time>2026-05-01T06:30:53.36Z</time></trkpt><trkpt lat="46.90362441666666" lon="11.430151233333333"><ele>959.0</ele><time>2026-05-01T06:30:54.343Z</time></trkpt><trkpt lat="46.903509699999994" lon="11.430142983333333"><ele>959.0</ele><time>2026-05-01T06:30:55.361Z</time></trkpt><trkpt lat="46.903394666666664" lon="11.430133983333334"><ele>959.0</ele><time>2026-05-01T06:30:56.362Z</time></trkpt><trkpt lat="46.90327954999999" lon="11.430121033333334"><ele>959.0</ele><time>2026-05-01T06:30:57.345Z</time></trkpt><trkpt lat="46.90316201666666" lon="11.430108566666668"><ele>958.5</ele><time>2026-05-01T06:30:58.36Z</time></trkpt><trkpt lat="46.903046350000004" lon="11.430093766666669"><ele>958.0</ele><time>2026-05-01T06:30:59.36Z</time></trkpt><trkpt lat="46.90293041666667" lon="11.430077966666666"><ele>957.5</ele><time>2026-05-01T06:31:00.343Z</time></trkpt><trkpt lat="46.9028135" lon="11.430066949999999"><ele>957.0</ele><time>2026-05-01T06:31:01.361Z</time></trkpt><trkpt lat="46.90269335" lon="11.430069050000002"><ele>957.5</ele><time>2026-05-01T06:31:02.36Z</time></trkpt><trkpt lat="46.90257471666667" lon="11.430088300000001"><ele>958.0</ele><time>2026-05-01T06:31:03.36Z</time></trkpt><trkpt lat="46.90245945" lon="11.430135933333336"><ele>958.5</ele><time>2026-05-01T06:31:04.362Z</time></trkpt><trkpt lat="46.90235065" lon="11.4302158"><ele>959.0</ele><time>2026-05-01T06:31:05.36Z</time></trkpt><trkpt lat="46.90224870000001" lon="11.430318849999999"><ele>959.0</ele><time>2026-05-01T06:31:06.355Z</time></trkpt><trkpt lat="46.90215103333333" lon="11.430432000000001"><ele>959.0</ele><time>2026-05-01T06:31:07.359Z</time></trkpt><trkpt lat="46.902054250000006" lon="11.430546699999997"><ele>959.0</ele><time>2026-05-01T06:31:08.359Z</time></trkpt><trkpt lat="46.90195461666667" lon="11.430665266666663"><ele>959.0</ele><time>2026-05-01T06:31:09.342Z</time></trkpt><trkpt lat="46.90185276666666" lon="11.430786750000001"><ele>958.5</ele><time>2026-05-01T06:31:10.36Z</time></trkpt><trkpt lat="46.90174885" lon="11.430912049999998"><ele>958.0</ele><time>2026-05-01T06:31:11.358Z</time></trkpt><trkpt lat="46.901639599999996" lon="11.4310378"><ele>957.5</ele><time>2026-05-01T06:31:12.343Z</time></trkpt><trkpt lat="46.90152543333333" lon="11.431163233333333"><ele>957.0</ele><time>2026-05-01T06:31:13.359Z</time></trkpt><trkpt lat="46.90141298333333" lon="11.431289383333334"><ele>958.5</ele><time>2026-05-01T06:31:14.362Z</time></trkpt><trkpt lat="46.90130308333334" lon="11.431416033333335"><ele>960.0</ele><time>2026-05-01T06:31:15.352Z</time></trkpt><trkpt lat="46.90119655" lon="11.43154005"><ele>961.5</ele><time>2026-05-01T06:31:16.362Z</time></trkpt><trkpt lat="46.90109433333334" lon="11.431663716666666"><ele>963.0</ele><time>2026-05-01T06:31:17.359Z</time></trkpt><trkpt lat="46.900997183333324" lon="11.431786133333333"><ele>962.25</ele><time>2026-05-01T06:31:18.343Z</time></trkpt><trkpt lat="46.90089941666667" lon="11.431908833333333"><ele>961.5</ele><time>2026-05-01T06:31:19.36Z</time></trkpt><trkpt lat="46.9008024" lon="11.432035350000001"><ele>960.75</ele><time>2026-05-01T06:31:20.342Z</time></trkpt><trkpt lat="46.90070491666667" lon="11.432162000000002"><ele>960.0</ele><time>2026-05-01T06:31:21.341Z</time></trkpt><trkpt lat="46.90060501666667" lon="11.432286383333333"><ele>960.0</ele><time>2026-05-01T06:31:22.361Z</time></trkpt><trkpt lat="46.90050843333333" lon="11.43240875"><ele>960.0</ele><time>2026-05-01T06:31:23.343Z</time></trkpt><trkpt lat="46.90040051917906" lon="11.432514429884154"><ele>960.0</ele><time>2026-05-01T06:31:24.352Z</time></trkpt><trkpt lat="46.90030644859299" lon="11.43264529946572"><ele>960.0</ele><time>2026-05-01T06:31:25.342Z</time></trkpt><trkpt lat="46.900228633333334" lon="11.432797866666666"><ele>960.0</ele><time>2026-05-01T06:31:26.361Z</time></trkpt><trkpt lat="46.90013975" lon="11.4329418"><ele>960.0</ele><time>2026-05-01T06:31:27.343Z</time></trkpt><trkpt lat="46.9000389235946" lon="11.433071856220927"><ele>960.0</ele><time>2026-05-01T06:31:28.361Z</time></trkpt><trkpt lat="46.89996623333333" lon="11.433234016666665"><ele>960.0</ele><time>2026-05-01T06:31:29.363Z</time></trkpt><trkpt lat="46.8998818" lon="11.433383450000001"><ele>959.75</ele><time>2026-05-01T06:31:30.342Z</time></trkpt><trkpt lat="46.899796200000004" lon="11.433534916666668"><ele>959.5</ele><time>2026-05-01T06:31:31.359Z</time></trkpt><trkpt lat="46.89970728333333" lon="11.433684533333334"><ele>959.25</ele><time>2026-05-01T06:31:32.341Z</time></trkpt><trkpt lat="46.89961991666667" lon="11.433832783333331"><ele>959.0</ele><time>2026-05-01T06:31:33.344Z</time></trkpt><trkpt lat="46.899532699999995" lon="11.433976566666669"><ele>959.0</ele><time>2026-05-01T06:31:34.36Z</time></trkpt><trkpt lat="46.89943766666667" lon="11.434112133333334"><ele>959.0</ele><time>2026-05-01T06:31:35.36Z</time></trkpt><trkpt lat="46.89933378333333" lon="11.434233983333334"><ele>959.0</ele><time>2026-05-01T06:31:36.357Z</time></trkpt><trkpt lat="46.89922966666667" lon="11.434344116666667"><ele>959.0</ele><time>2026-05-01T06:31:37.362Z</time></trkpt><trkpt lat="46.89912138333334" lon="11.434436833333331"><ele>958.0</ele><time>2026-05-01T06:31:38.363Z</time></trkpt><trkpt lat="46.899008249999994" lon="11.434518733333334"><ele>957.0</ele><time>2026-05-01T06:31:39.343Z</time></trkpt><trkpt lat="46.898891133333336" lon="11.434583916666668"><ele>956.0</ele><time>2026-05-01T06:31:40.361Z</time></trkpt><trkpt lat="46.89877249999999" lon="11.434629133333333"><ele>955.0</ele><time>2026-05-01T06:31:41.36Z</time></trkpt><trkpt lat="46.89865135" lon="11.434669766666666"><ele>955.0</ele><time>2026-05-01T06:31:42.361Z</time></trkpt><trkpt lat="46.8985321" lon="11.434711666666667"><ele>955.0</ele><time>2026-05-01T06:31:43.359Z</time></trkpt><trkpt lat="46.898414800000005" lon="11.434750533333334"><ele>955.0</ele><time>2026-05-01T06:31:44.361Z</time></trkpt><trkpt lat="46.89829833333334" lon="11.434785833333335"><ele>955.0</ele><time>2026-05-01T06:31:45.341Z</time></trkpt><trkpt lat="46.89818015" lon="11.434823666666666"><ele>953.75</ele><time>2026-05-01T06:31:46.359Z</time></trkpt><trkpt lat="46.89806406666667" lon="11.434866883333333"><ele>952.5</ele><time>2026-05-01T06:31:47.362Z</time></trkpt><trkpt lat="46.89794866666666" lon="11.43491015"><ele>951.25</ele><time>2026-05-01T06:31:48.342Z</time></trkpt><trkpt lat="46.89783053333334" lon="11.434953883333332"><ele>950.0</ele><time>2026-05-01T06:31:49.36Z</time></trkpt><trkpt lat="46.89770856666667" lon="11.434993483333335"><ele>950.0</ele><time>2026-05-01T06:31:50.365Z</time></trkpt><trkpt lat="46.897586383333326" lon="11.435038850000002"><ele>950.0</ele><time>2026-05-01T06:31:51.362Z</time></trkpt><trkpt lat="46.897463316666666" lon="11.435086249999998"><ele>950.0</ele><time>2026-05-01T06:31:52.365Z</time></trkpt><trkpt lat="46.89733543333333" lon="11.435126116666668"><ele>950.0</ele><time>2026-05-01T06:31:53.36Z</time></trkpt><trkpt lat="46.8972067" lon="11.435164683333335"><ele>950.0</ele><time>2026-05-01T06:31:54.342Z</time></trkpt><trkpt lat="46.897077800000005" lon="11.43520715"><ele>950.0</ele><time>2026-05-01T06:31:55.36Z</time></trkpt><trkpt lat="46.89694800000001" lon="11.435250216666669"><ele>950.0</ele><time>2026-05-01T06:31:56.34Z</time></trkpt><trkpt lat="46.896818816666666" lon="11.43528908333333"><ele>950.0</ele><time>2026-05-01T06:31:57.342Z</time></trkpt><trkpt lat="46.89668846666667" lon="11.435330366666667"><ele>949.25</ele><time>2026-05-01T06:31:58.36Z</time></trkpt><trkpt lat="46.89655863333334" lon="11.435370533333332"><ele>948.5</ele><time>2026-05-01T06:31:59.359Z</time></trkpt><trkpt lat="46.896427133333326" lon="11.435413966666665"><ele>947.75</ele><time>2026-05-01T06:32:00.342Z</time></trkpt><trkpt lat="46.896296933333325" lon="11.435456166666665"><ele>947.0</ele><time>2026-05-01T06:32:01.376Z</time></trkpt><trkpt lat="46.8961674" lon="11.435499133333334"><ele>947.0</ele><time>2026-05-01T06:32:02.36Z</time></trkpt><trkpt lat="46.89603701666667" lon="11.4355451"><ele>947.0</ele><time>2026-05-01T06:32:03.34Z</time></trkpt><trkpt lat="46.895913433333334" lon="11.435587783333336"><ele>947.0</ele><time>2026-05-01T06:32:04.359Z</time></trkpt><trkpt lat="46.8957903" lon="11.435628666666664"><ele>947.0</ele><time>2026-05-01T06:32:05.354Z</time></trkpt><trkpt lat="46.89566691666667" lon="11.435665083333333"><ele>946.75</ele><time>2026-05-01T06:32:06.343Z</time></trkpt><trkpt lat="46.895544050000005" lon="11.435700650000001"><ele>946.5</ele><time>2026-05-01T06:32:07.359Z</time></trkpt><trkpt lat="46.89542158333334" lon="11.435729866666668"><ele>946.25</ele><time>2026-05-01T06:32:08.362Z</time></trkpt><trkpt lat="46.895299716666656" lon="11.435750016666667"><ele>946.0</ele><time>2026-05-01T06:32:09.343Z</time></trkpt><trkpt lat="46.89517776666667" lon="11.435754650000002"><ele>946.25</ele><time>2026-05-01T06:32:10.372Z</time></trkpt><trkpt lat="46.89504948333333" lon="11.435754999999999"><ele>946.5</ele><time>2026-05-01T06:32:11.36Z</time></trkpt><trkpt lat="46.89491854999999" lon="11.435760450000002"><ele>946.75</ele><time>2026-05-01T06:32:12.342Z</time></trkpt><trkpt lat="46.89478561666667" lon="11.435764383333334"><ele>947.0</ele><time>2026-05-01T06:32:13.362Z</time></trkpt><trkpt lat="46.89465448333333" lon="11.435764566666668"><ele>947.0</ele><time>2026-05-01T06:32:14.36Z</time></trkpt><trkpt lat="46.894522916666666" lon="11.4357646"><ele>947.0</ele><time>2026-05-01T06:32:15.343Z</time></trkpt><trkpt lat="46.894392616666664" lon="11.435759900000003"><ele>947.0</ele><time>2026-05-01T06:32:16.361Z</time></trkpt><trkpt lat="46.89426783333334" lon="11.435754450000003"><ele>947.0</ele><time>2026-05-01T06:32:17.361Z</time></trkpt><trkpt lat="46.89414188333333" lon="11.435750366666666"><ele>946.5</ele><time>2026-05-01T06:32:18.341Z</time></trkpt><trkpt lat="46.894013783333335" lon="11.435747250000002"><ele>946.0</ele><time>2026-05-01T06:32:19.359Z</time></trkpt><trkpt lat="46.893889666666674" lon="11.435743700000002"><ele>945.5</ele><time>2026-05-01T06:32:20.363Z</time></trkpt><trkpt lat="46.89377246666667" lon="11.435740933333333"><ele>945.0</ele><time>2026-05-01T06:32:21.342Z</time></trkpt><trkpt lat="46.89365768333334" lon="11.435739783333334"><ele>945.0</ele><time>2026-05-01T06:32:22.363Z</time></trkpt><trkpt lat="46.893543699999995" lon="11.435737983333334"><ele>945.0</ele><time>2026-05-01T06:32:23.34Z</time></trkpt><trkpt lat="46.89343108333335" lon="11.43573055"><ele>945.0</ele><time>2026-05-01T06:32:24.342Z</time></trkpt><trkpt lat="46.89331638333333" lon="11.4357274"><ele>945.0</ele><time>2026-05-01T06:32:25.361Z</time></trkpt><trkpt lat="46.89320023333333" lon="11.435727683333335"><ele>944.75</ele><time>2026-05-01T06:32:26.342Z</time></trkpt><trkpt lat="46.89308413333333" lon="11.435730366666666"><ele>944.5</ele><time>2026-05-01T06:32:27.345Z</time></trkpt><trkpt lat="46.89297233333333" lon="11.435732833333333"><ele>944.25</ele><time>2026-05-01T06:32:28.361Z</time></trkpt><trkpt lat="46.89285875000001" lon="11.435738766666669"><ele>944.0</ele><time>2026-05-01T06:32:29.361Z</time></trkpt><trkpt lat="46.89274359999999" lon="11.435737133333333"><ele>944.0</ele><time>2026-05-01T06:32:30.341Z</time></trkpt><trkpt lat="46.89262811666667" lon="11.435734083333333"><ele>944.0</ele><time>2026-05-01T06:32:31.361Z</time></trkpt><trkpt lat="46.892510916666666" lon="11.43573815"><ele>944.0</ele><time>2026-05-01T06:32:32.361Z</time></trkpt><trkpt lat="46.89239370000001" lon="11.435750333333333"><ele>944.0</ele><time>2026-05-01T06:32:33.344Z</time></trkpt><trkpt lat="46.89227933333333" lon="11.435772633333332"><ele>943.5</ele><time>2026-05-01T06:32:34.361Z</time></trkpt><trkpt lat="46.89216686666666" lon="11.435800783333331"><ele>943.0</ele><time>2026-05-01T06:32:35.342Z</time></trkpt><trkpt lat="46.89205175" lon="11.435837866666667"><ele>942.5</ele><time>2026-05-01T06:32:36.35Z</time></trkpt><trkpt lat="46.891933216666665" lon="11.435888633333331"><ele>942.0</ele><time>2026-05-01T06:32:37.363Z</time></trkpt><trkpt lat="46.89181754999999" lon="11.435948433333332"><ele>942.0</ele><time>2026-05-01T06:32:38.359Z</time></trkpt><trkpt lat="46.89170461666666" lon="11.4360136"><ele>942.0</ele><time>2026-05-01T06:32:39.341Z</time></trkpt><trkpt lat="46.891607266666675" lon="11.436091016666667"><ele>942.0</ele><time>2026-05-01T06:32:40.361Z</time></trkpt><trkpt lat="46.89151735" lon="11.436173799999999"><ele>942.0</ele><time>2026-05-01T06:32:41.361Z</time></trkpt><trkpt lat="46.89144021666666" lon="11.4362481"><ele>942.0</ele><time>2026-05-01T06:32:42.352Z</time></trkpt><trkpt lat="46.891374183333326" lon="11.43631295"><ele>942.0</ele><time>2026-05-01T06:32:43.362Z</time></trkpt><trkpt lat="46.891318033333334" lon="11.436371049999998"><ele>942.0</ele><time>2026-05-01T06:32:44.362Z</time></trkpt><trkpt lat="46.891215916666674" lon="11.436465133333336"><ele>942.0</ele><time>2026-05-01T06:32:46.363Z</time></trkpt><trkpt lat="46.891115250000006" lon="11.436512200000001"><ele>942.0</ele><time>2026-05-01T06:32:48.341Z</time></trkpt><trkpt lat="46.890989133333335" lon="11.436522649999999"><ele>942.0</ele><time>2026-05-01T06:32:50.362Z</time></trkpt><trkpt lat="46.89091133333333" lon="11.4365108"><ele>942.0</ele><time>2026-05-01T06:32:51.351Z</time></trkpt><trkpt lat="46.89082645" lon="11.436471616666665"><ele>942.0</ele><time>2026-05-01T06:32:52.361Z</time></trkpt><trkpt lat="46.890741283333334" lon="11.436390616666666"><ele>942.0</ele><time>2026-05-01T06:32:53.362Z</time></trkpt><trkpt lat="46.89065488333333" lon="11.436265600000002"><ele>942.0</ele><time>2026-05-01T06:32:54.342Z</time></trkpt><trkpt lat="46.89056563333333" lon="11.436115283333333"><ele>942.0</ele><time>2026-05-01T06:32:55.36Z</time></trkpt><trkpt lat="46.890477216666675" lon="11.43595196666667"><ele>942.0</ele><time>2026-05-01T06:32:56.36Z</time></trkpt><trkpt lat="46.89038073333333" lon="11.43577265"><ele>942.0</ele><time>2026-05-01T06:32:57.342Z</time></trkpt><trkpt lat="46.890281099999996" lon="11.435581833333332"><ele>942.0</ele><time>2026-05-01T06:32:58.343Z</time></trkpt><trkpt lat="46.890177083333334" lon="11.435383516666665"><ele>941.6666666666667</ele><time>2026-05-01T06:32:59.341Z</time></trkpt><trkpt lat="46.89007145000001" lon="11.435179366666667"><ele>941.3333333333334</ele><time>2026-05-01T06:33:00.36Z</time></trkpt><trkpt lat="46.889965266666664" lon="11.434978033333335"><ele>941.0</ele><time>2026-05-01T06:33:01.348Z</time></trkpt><trkpt lat="46.889865683333326" lon="11.434782199999999"><ele>941.25</ele><time>2026-05-01T06:33:02.342Z</time></trkpt><trkpt lat="46.88977393333333" lon="11.434597583333336"><ele>941.5</ele><time>2026-05-01T06:33:03.343Z</time></trkpt><trkpt lat="46.88969343333333" lon="11.434420933333335"><ele>941.75</ele><time>2026-05-01T06:33:04.36Z</time></trkpt><trkpt lat="46.88961695" lon="11.434243283333334"><ele>942.0</ele><time>2026-05-01T06:33:05.362Z</time></trkpt><trkpt lat="46.88954303333334" lon="11.434065366666667"><ele>942.0</ele><time>2026-05-01T06:33:06.342Z</time></trkpt><trkpt lat="46.88947496666667" lon="11.433878383333335"><ele>942.0</ele><time>2026-05-01T06:33:07.36Z</time></trkpt><trkpt lat="46.88941778333333" lon="11.433680699999998"><ele>942.0</ele><time>2026-05-01T06:33:08.36Z</time></trkpt><trkpt lat="46.889371583333336" lon="11.433472566666667"><ele>942.0</ele><time>2026-05-01T06:33:09.341Z</time></trkpt><trkpt lat="46.88933338333333" lon="11.433257966666666"><ele>942.25</ele><time>2026-05-01T06:33:10.362Z</time></trkpt><trkpt lat="46.88929996666668" lon="11.433044416666666"><ele>942.5</ele><time>2026-05-01T06:33:11.36Z</time></trkpt><trkpt lat="46.88927133333333" lon="11.43283335"><ele>942.75</ele><time>2026-05-01T06:33:12.348Z</time></trkpt><trkpt lat="46.88924183333334" lon="11.432626333333333"><ele>943.0</ele><time>2026-05-01T06:33:13.362Z</time></trkpt><trkpt lat="46.88921298333333" lon="11.43242885"><ele>942.25</ele><time>2026-05-01T06:33:14.373Z</time></trkpt><trkpt lat="46.88918780000001" lon="11.432243466666668"><ele>941.5</ele><time>2026-05-01T06:33:15.341Z</time></trkpt><trkpt lat="46.889159333333325" lon="11.432070133333331"><ele>940.75</ele><time>2026-05-01T06:33:16.342Z</time></trkpt><trkpt lat="46.889130783333336" lon="11.4319088"><ele>940.0</ele><time>2026-05-01T06:33:17.36Z</time></trkpt><trkpt lat="46.889105533333336" lon="11.431761783333332"><ele>939.9999999999999</ele><time>2026-05-01T06:33:18.342Z</time></trkpt><trkpt lat="46.88907876666667" lon="11.431621683333331"><ele>940.0</ele><time>2026-05-01T06:33:19.342Z</time></trkpt><trkpt lat="46.88905119999999" lon="11.43149095"><ele>940.0</ele><time>2026-05-01T06:33:20.362Z</time></trkpt><trkpt lat="46.88902746666666" lon="11.431370350000002"><ele>940.0</ele><time>2026-05-01T06:33:21.342Z</time></trkpt><trkpt lat="46.889019283333326" lon="11.43125935"><ele>939.9999999999999</ele><time>2026-05-01T06:33:22.363Z</time></trkpt><trkpt lat="46.88902956666667" lon="11.43116086666667"><ele>940.0</ele><time>2026-05-01T06:33:23.362Z</time></trkpt><trkpt lat="46.88904066666667" lon="11.431064583333335"><ele>939.9999999999999</ele><time>2026-05-01T06:33:24.354Z</time></trkpt><trkpt lat="46.889038766666665" lon="11.430963583333336"><ele>940.0</ele><time>2026-05-01T06:33:25.362Z</time></trkpt><trkpt lat="46.88901878333333" lon="11.430863483333333"><ele>940.0</ele><time>2026-05-01T06:33:26.342Z</time></trkpt><trkpt lat="46.888977216666675" lon="11.430778400000001"><ele>940.0</ele><time>2026-05-01T06:33:27.362Z</time></trkpt><trkpt lat="46.88891406666667" lon="11.430712333333334"><ele>939.9999999999999</ele><time>2026-05-01T06:33:28.386Z</time></trkpt><trkpt lat="46.888843433333335" lon="11.430646283333331"><ele>940.0</ele><time>2026-05-01T06:33:29.36Z</time></trkpt><trkpt lat="46.88877586666668" lon="11.430548749999998"><ele>940.0</ele><time>2026-05-01T06:33:30.342Z</time></trkpt><trkpt lat="46.88870925" lon="11.430419983333335"><ele>940.0</ele><time>2026-05-01T06:33:31.36Z</time></trkpt><trkpt lat="46.88863334999999" lon="11.430280450000001"><ele>940.0</ele><time>2026-05-01T06:33:32.36Z</time></trkpt><trkpt lat="46.88855256666667" lon="11.430133083333333"><ele>940.0</ele><time>2026-05-01T06:33:33.342Z</time></trkpt><trkpt lat="46.88846588333334" lon="11.429977316666667"><ele>940.25</ele><time>2026-05-01T06:33:34.361Z</time></trkpt><trkpt lat="46.88837333333333" lon="11.42981685"><ele>940.5</ele><time>2026-05-01T06:33:35.362Z</time></trkpt><trkpt lat="46.88827889999999" lon="11.429651483333336"><ele>940.75</ele><time>2026-05-01T06:33:36.363Z</time></trkpt><trkpt lat="46.888181583333335" lon="11.429483916666667"><ele>941.0</ele><time>2026-05-01T06:33:37.364Z</time></trkpt><trkpt lat="46.888085249999996" lon="11.429314266666665"><ele>941.0</ele><time>2026-05-01T06:33:38.362Z</time></trkpt><trkpt lat="46.887988116666676" lon="11.429140183333333"><ele>941.0</ele><time>2026-05-01T06:33:39.341Z</time></trkpt><trkpt lat="46.88789645000001" lon="11.428971516666666"><ele>941.0</ele><time>2026-05-01T06:33:40.362Z</time></trkpt><trkpt lat="46.887804249999995" lon="11.428805083333334"><ele>941.0</ele><time>2026-05-01T06:33:41.353Z</time></trkpt><trkpt lat="46.887713033333334" lon="11.428637866666667"><ele>941.25</ele><time>2026-05-01T06:33:42.341Z</time></trkpt><trkpt lat="46.88762036666667" lon="11.428471616666666"><ele>941.5</ele><time>2026-05-01T06:33:43.341Z</time></trkpt><trkpt lat="46.88753053333333" lon="11.428312583333332"><ele>941.75</ele><time>2026-05-01T06:33:44.362Z</time></trkpt><trkpt lat="46.887442066666665" lon="11.428157016666669"><ele>942.0</ele><time>2026-05-01T06:33:45.344Z</time></trkpt><trkpt lat="46.887351949999996" lon="11.428015933333333"><ele>943.25</ele><time>2026-05-01T06:33:46.372Z</time></trkpt><trkpt lat="46.887267000377314" lon="11.427877799591286"><ele>944.5</ele><time>2026-05-01T06:33:47.361Z</time></trkpt><trkpt lat="46.88718997649427" lon="11.427732599187676"><ele>945.75</ele><time>2026-05-01T06:33:48.36Z</time></trkpt><trkpt lat="46.88712230120879" lon="11.427575672415406"><ele>947.0</ele><time>2026-05-01T06:33:49.36Z</time></trkpt><trkpt lat="46.88705790000001" lon="11.427407650000003"><ele>947.0</ele><time>2026-05-01T06:33:50.344Z</time></trkpt><trkpt lat="46.88701186666667" lon="11.427227033333335"><ele>947.0</ele><time>2026-05-01T06:33:51.342Z</time></trkpt><trkpt lat="46.886981600000006" lon="11.427029933333332"><ele>947.0</ele><time>2026-05-01T06:33:52.361Z</time></trkpt><trkpt lat="46.8869639" lon="11.426828283333336"><ele>947.0</ele><time>2026-05-01T06:33:53.377Z</time></trkpt><trkpt lat="46.88695501666666" lon="11.426623266666665"><ele>947.0</ele><time>2026-05-01T06:33:54.353Z</time></trkpt><trkpt lat="46.88695503333334" lon="11.426413366666669"><ele>947.0</ele><time>2026-05-01T06:33:55.345Z</time></trkpt><trkpt lat="46.88695643333333" lon="11.426199999999998"><ele>947.0</ele><time>2026-05-01T06:33:56.361Z</time></trkpt><trkpt lat="46.88695663333333" lon="11.425982766666667"><ele>947.0</ele><time>2026-05-01T06:33:57.341Z</time></trkpt><trkpt lat="46.88695433333334" lon="11.425762066666667"><ele>947.0</ele><time>2026-05-01T06:33:58.36Z</time></trkpt><trkpt lat="46.886952599999994" lon="11.42554085"><ele>947.0</ele><time>2026-05-01T06:33:59.341Z</time></trkpt><trkpt lat="46.8869539" lon="11.425319816666669"><ele>947.0</ele><time>2026-05-01T06:34:00.342Z</time></trkpt><trkpt lat="46.88694973333333" lon="11.42510455"><ele>947.0</ele><time>2026-05-01T06:34:01.341Z</time></trkpt><trkpt lat="46.886949083333334" lon="11.424889683333333"><ele>948.0</ele><time>2026-05-01T06:34:02.354Z</time></trkpt><trkpt lat="46.88695213333333" lon="11.424673583333334"><ele>949.0</ele><time>2026-05-01T06:34:03.342Z</time></trkpt><trkpt lat="46.88695293333334" lon="11.424459783333337"><ele>950.0</ele><time>2026-05-01T06:34:04.364Z</time></trkpt><trkpt lat="46.88695511666666" lon="11.424250283333333"><ele>951.0</ele><time>2026-05-01T06:34:05.36Z</time></trkpt><trkpt lat="46.8869586" lon="11.424041383333334"><ele>951.5</ele><time>2026-05-01T06:34:06.36Z</time></trkpt><trkpt lat="46.88696301666667" lon="11.423831600000002"><ele>952.0</ele><time>2026-05-01T06:34:07.36Z</time></trkpt><trkpt lat="46.886964649999996" lon="11.423622766666666"><ele>952.5</ele><time>2026-05-01T06:34:08.361Z</time></trkpt><trkpt lat="46.886964266666666" lon="11.423411516666667"><ele>953.0</ele><time>2026-05-01T06:34:09.342Z</time></trkpt><trkpt lat="46.88696518333333" lon="11.423196083333334"><ele>953.3333333333334</ele><time>2026-05-01T06:34:10.364Z</time></trkpt><trkpt lat="46.886970149999996" lon="11.422979933333332"><ele>953.6666666666667</ele><time>2026-05-01T06:34:11.346Z</time></trkpt><trkpt lat="46.88697366666667" lon="11.422761083333334"><ele>954.0</ele><time>2026-05-01T06:34:12.342Z</time></trkpt><trkpt lat="46.88697816666666" lon="11.4225386"><ele>954.0</ele><time>2026-05-01T06:34:13.363Z</time></trkpt><trkpt lat="46.88698141666667" lon="11.422311816666669"><ele>954.0</ele><time>2026-05-01T06:34:14.361Z</time></trkpt><trkpt lat="46.88698410000001" lon="11.4220804"><ele>954.0</ele><time>2026-05-01T06:34:15.342Z</time></trkpt><trkpt lat="46.88698556666667" lon="11.421846400000002"><ele>954.0</ele><time>2026-05-01T06:34:16.362Z</time></trkpt><trkpt lat="46.88698773333334" lon="11.42160535"><ele>954.0</ele><time>2026-05-01T06:34:17.363Z</time></trkpt><trkpt lat="46.88699125" lon="11.42136285"><ele>954.0</ele><time>2026-05-01T06:34:18.351Z</time></trkpt><trkpt lat="46.88699615" lon="11.421119366666668"><ele>954.3333333333333</ele><time>2026-05-01T06:34:19.359Z</time></trkpt><trkpt lat="46.88700078333333" lon="11.420872016666666"><ele>954.6666666666666</ele><time>2026-05-01T06:34:20.346Z</time></trkpt><trkpt lat="46.88700645" lon="11.420623566666666"><ele>955.0</ele><time>2026-05-01T06:34:21.341Z</time></trkpt><trkpt lat="46.88700958333334" lon="11.420369566666666"><ele>953.6666666666666</ele><time>2026-05-01T06:34:22.361Z</time></trkpt><trkpt lat="46.887014516666675" lon="11.420112783333332"><ele>952.3333333333333</ele><time>2026-05-01T06:34:23.36Z</time></trkpt><trkpt lat="46.887020083333326" lon="11.41985425"><ele>951.0</ele><time>2026-05-01T06:34:24.343Z</time></trkpt><trkpt lat="46.88702573333333" lon="11.419592166666666"><ele>950.6666666666667</ele><time>2026-05-01T06:34:25.361Z</time></trkpt><trkpt lat="46.887027966666665" lon="11.419344816666667"><ele>950.3333333333334</ele><time>2026-05-01T06:34:26.361Z</time></trkpt><trkpt lat="46.88703135000001" lon="11.41911255"><ele>950.0</ele><time>2026-05-01T06:34:27.353Z</time></trkpt><trkpt lat="46.88703486666667" lon="11.418899583333332"><ele>950.5</ele><time>2026-05-01T06:34:28.362Z</time></trkpt><trkpt lat="46.887037583333324" lon="11.418700883333335"><ele>951.0</ele><time>2026-05-01T06:34:29.365Z</time></trkpt><trkpt lat="46.887041383333326" lon="11.41851705"><ele>951.5</ele><time>2026-05-01T06:34:30.343Z</time></trkpt><trkpt lat="46.88705276666667" lon="11.418345949999999"><ele>952.0</ele><time>2026-05-01T06:34:31.361Z</time></trkpt><trkpt lat="46.887078116666665" lon="11.418195416666666"><ele>952.0</ele><time>2026-05-01T06:34:32.367Z</time></trkpt><trkpt lat="46.88709925" lon="11.418062249999998"><ele>952.0</ele><time>2026-05-01T06:34:33.342Z</time></trkpt><trkpt lat="46.88709556666666" lon="11.417930433333334"><ele>952.0</ele><time>2026-05-01T06:34:34.363Z</time></trkpt><trkpt lat="46.88707656666667" lon="11.417790683333333"><ele>952.0</ele><time>2026-05-01T06:34:35.34Z</time></trkpt><trkpt lat="46.88705676666667" lon="11.417638966666667"><ele>952.0</ele><time>2026-05-01T06:34:36.352Z</time></trkpt><trkpt lat="46.8870465" lon="11.417477133333334"><ele>951.4000000000001</ele><time>2026-05-01T06:34:37.36Z</time></trkpt><trkpt lat="46.88704578333333" lon="11.417302733333335"><ele>950.8000000000001</ele><time>2026-05-01T06:34:38.362Z</time></trkpt><trkpt lat="46.887046533333326" lon="11.417130550000001"><ele>950.2</ele><time>2026-05-01T06:34:39.343Z</time></trkpt><trkpt lat="46.887050200000004" lon="11.416969766666668"><ele>949.6</ele><time>2026-05-01T06:34:40.364Z</time></trkpt><trkpt lat="46.88705408333333" lon="11.41682145"><ele>949.0</ele><time>2026-05-01T06:34:41.362Z</time></trkpt><trkpt lat="46.8870562" lon="11.41667675"><ele>949.0</ele><time>2026-05-01T06:34:42.342Z</time></trkpt><trkpt lat="46.88705991666667" lon="11.41652885"><ele>949.0000000000001</ele><time>2026-05-01T06:34:43.362Z</time></trkpt><trkpt lat="46.88706261666666" lon="11.416373616666666"><ele>949.0000000000001</ele><time>2026-05-01T06:34:44.362Z</time></trkpt><trkpt lat="46.88706663333334" lon="11.4162142"><ele>949.0</ele><time>2026-05-01T06:34:45.342Z</time></trkpt><trkpt lat="46.88707186666667" lon="11.416051433333333"><ele>949.0</ele><time>2026-05-01T06:34:46.36Z</time></trkpt><trkpt lat="46.8870769" lon="11.415887083333333"><ele>949.0</ele><time>2026-05-01T06:34:47.36Z</time></trkpt><trkpt lat="46.88707953333333" lon="11.415729183333333"><ele>949.0000000000001</ele><time>2026-05-01T06:34:48.343Z</time></trkpt><trkpt lat="46.887075833333334" lon="11.415584349999998"><ele>949.0000000000001</ele><time>2026-05-01T06:34:49.342Z</time></trkpt><trkpt lat="46.88706488333334" lon="11.415444733333334"><ele>949.0</ele><time>2026-05-01T06:34:50.361Z</time></trkpt><trkpt lat="46.88705615000001" lon="11.415311166666669"><ele>949.0</ele><time>2026-05-01T06:34:51.342Z</time></trkpt><trkpt lat="46.887064333333335" lon="11.415189616666664"><ele>949.1666666666666</ele><time>2026-05-01T06:34:52.36Z</time></trkpt><trkpt lat="46.88708436666668" lon="11.415074350000001"><ele>949.3333333333333</ele><time>2026-05-01T06:34:53.34Z</time></trkpt><trkpt lat="46.887087183333335" lon="11.414961400000001"><ele>949.5</ele><time>2026-05-01T06:34:54.361Z</time></trkpt><trkpt lat="46.88705353333334" lon="11.41485895"><ele>949.6666666666667</ele><time>2026-05-01T06:34:55.361Z</time></trkpt><trkpt lat="46.8869935" lon="11.414782366666667"><ele>949.8333333333334</ele><time>2026-05-01T06:34:56.36Z</time></trkpt><trkpt lat="46.88691768333333" lon="11.414723816666667"><ele>950.0</ele><time>2026-05-01T06:34:57.342Z</time></trkpt><trkpt lat="46.88684466666666" lon="11.414647633333335"><ele>950.0</ele><time>2026-05-01T06:34:58.362Z</time></trkpt><trkpt lat="46.886780066666674" lon="11.414536449999998"><ele>950.0</ele><time>2026-05-01T06:34:59.362Z</time></trkpt><trkpt lat="46.88671836666668" lon="11.414407466666667"><ele>950.0</ele><time>2026-05-01T06:35:00.344Z</time></trkpt><trkpt lat="46.88665163333334" lon="11.414264683333332"><ele>950.0</ele><time>2026-05-01T06:35:01.363Z</time></trkpt><trkpt lat="46.88658050000001" lon="11.414111566666667"><ele>949.5</ele><time>2026-05-01T06:35:02.363Z</time></trkpt><trkpt lat="46.88650903333334" lon="11.413954100000002"><ele>949.0</ele><time>2026-05-01T06:35:03.341Z</time></trkpt><trkpt lat="46.88643388333333" lon="11.413805016666668"><ele>948.5</ele><time>2026-05-01T06:35:04.362Z</time></trkpt><trkpt lat="46.88635735" lon="11.413665483333334"><ele>948.0</ele><time>2026-05-01T06:35:05.342Z</time></trkpt><trkpt lat="46.88628153333334" lon="11.413534233333333"><ele>948.0</ele><time>2026-05-01T06:35:06.351Z</time></trkpt><trkpt lat="46.88620006666667" lon="11.413408550000002"><ele>948.0</ele><time>2026-05-01T06:35:07.362Z</time></trkpt><trkpt lat="46.88610973333333" lon="11.413281616666666"><ele>948.0</ele><time>2026-05-01T06:35:08.358Z</time></trkpt><trkpt lat="46.88601453333334" lon="11.413154400000002"><ele>948.0</ele><time>2026-05-01T06:35:09.342Z</time></trkpt><trkpt lat="46.88592053333334" lon="11.413026649999999"><ele>948.0</ele><time>2026-05-01T06:35:10.365Z</time></trkpt><trkpt lat="46.885824983333336" lon="11.412896566666666"><ele>948.0</ele><time>2026-05-01T06:35:11.363Z</time></trkpt><trkpt lat="46.885729033333334" lon="11.412767466666667"><ele>948.0</ele><time>2026-05-01T06:35:12.363Z</time></trkpt><trkpt lat="46.885634399999994" lon="11.4126383"><ele>948.0</ele><time>2026-05-01T06:35:13.36Z</time></trkpt><trkpt lat="46.88553795" lon="11.412509316666668"><ele>948.0</ele><time>2026-05-01T06:35:14.362Z</time></trkpt><trkpt lat="46.88544445" lon="11.412382766666667"><ele>948.0</ele><time>2026-05-01T06:35:15.349Z</time></trkpt><trkpt lat="46.88535353333334" lon="11.412258766666666"><ele>948.0</ele><time>2026-05-01T06:35:16.363Z</time></trkpt><trkpt lat="46.88526218333333" lon="11.412136533333333"><ele>948.0</ele><time>2026-05-01T06:35:17.355Z</time></trkpt><trkpt lat="46.885170433333336" lon="11.412014783333333"><ele>947.75</ele><time>2026-05-01T06:35:18.343Z</time></trkpt><trkpt lat="46.8850803" lon="11.411893716666668"><ele>947.5</ele><time>2026-05-01T06:35:19.362Z</time></trkpt><trkpt lat="46.88499001666668" lon="11.411773933333333"><ele>947.25</ele><time>2026-05-01T06:35:20.342Z</time></trkpt><trkpt lat="46.88489658333333" lon="11.411654033333331"><ele>947.0</ele><time>2026-05-01T06:35:21.344Z</time></trkpt><trkpt lat="46.884800866666666" lon="11.411532516666666"><ele>947.0</ele><time>2026-05-01T06:35:22.373Z</time></trkpt><trkpt lat="46.88470543333332" lon="11.41140706666667"><ele>947.0</ele><time>2026-05-01T06:35:23.341Z</time></trkpt><trkpt lat="46.88461193333333" lon="11.4112799"><ele>947.0</ele><time>2026-05-01T06:35:24.36Z</time></trkpt><trkpt lat="46.88451636666667" lon="11.411156166666668"><ele>947.0</ele><time>2026-05-01T06:35:25.342Z</time></trkpt><trkpt lat="46.88442448333333" lon="11.411034666666668"><ele>947.4000000000001</ele><time>2026-05-01T06:35:26.346Z</time></trkpt><trkpt lat="46.884335799999995" lon="11.410918033333333"><ele>947.8000000000001</ele><time>2026-05-01T06:35:27.36Z</time></trkpt><trkpt lat="46.8842515" lon="11.410808783333335"><ele>948.2</ele><time>2026-05-01T06:35:28.362Z</time></trkpt><trkpt lat="46.88417136666667" lon="11.410702416666668"><ele>948.6</ele><time>2026-05-01T06:35:29.341Z</time></trkpt><trkpt lat="46.88409628333334" lon="11.410599066666668"><ele>949.0</ele><time>2026-05-01T06:35:30.344Z</time></trkpt><trkpt lat="46.88402813333334" lon="11.410496350000003"><ele>949.4999999999999</ele><time>2026-05-01T06:35:31.346Z</time></trkpt><trkpt lat="46.88397813333333" lon="11.4103871"><ele>950.0</ele><time>2026-05-01T06:35:32.344Z</time></trkpt><trkpt lat="46.88394595" lon="11.4102753"><ele>950.5</ele><time>2026-05-01T06:35:33.36Z</time></trkpt><trkpt lat="46.88392005000001" lon="11.410168233333332"><ele>951.0</ele><time>2026-05-01T06:35:34.363Z</time></trkpt><trkpt lat="46.88387486666667" lon="11.410080833333332"><ele>951.4999999999999</ele><time>2026-05-01T06:35:35.34Z</time></trkpt><trkpt lat="46.88381023333333" lon="11.410033816666665"><ele>952.0</ele><time>2026-05-01T06:35:36.363Z</time></trkpt><trkpt lat="46.88373535" lon="11.410001816666668"><ele>952.0</ele><time>2026-05-01T06:35:37.342Z</time></trkpt><trkpt lat="46.883656050000006" lon="11.4099467"><ele>952.0</ele><time>2026-05-01T06:35:38.343Z</time></trkpt><trkpt lat="46.883572" lon="11.409856400000002"><ele>952.0</ele><time>2026-05-01T06:35:39.362Z</time></trkpt><trkpt lat="46.88348473333334" lon="11.409745933333333"><ele>952.0</ele><time>2026-05-01T06:35:40.368Z</time></trkpt><trkpt lat="46.8833978" lon="11.409625850000001"><ele>952.0</ele><time>2026-05-01T06:35:41.341Z</time></trkpt><trkpt lat="46.88330991666667" lon="11.4095011"><ele>953.0</ele><time>2026-05-01T06:35:42.361Z</time></trkpt><trkpt lat="46.88322231666666" lon="11.409376400000001"><ele>954.0</ele><time>2026-05-01T06:35:43.346Z</time></trkpt><trkpt lat="46.88313966666666" lon="11.409252616666667"><ele>955.0</ele><time>2026-05-01T06:35:44.353Z</time></trkpt><trkpt lat="46.88305913333333" lon="11.409138866666668"><ele>956.0</ele><time>2026-05-01T06:35:45.36Z</time></trkpt><trkpt lat="46.88298021666666" lon="11.40903035"><ele>956.0</ele><time>2026-05-01T06:35:46.363Z</time></trkpt><trkpt lat="46.88290503333332" lon="11.408924649999998"><ele>955.9999999999999</ele><time>2026-05-01T06:35:47.345Z</time></trkpt><trkpt lat="46.882830866666666" lon="11.408823116666667"><ele>955.9999999999999</ele><time>2026-05-01T06:35:48.362Z</time></trkpt><trkpt lat="46.88275766666667" lon="11.408722616666667"><ele>956.0</ele><time>2026-05-01T06:35:49.353Z</time></trkpt><trkpt lat="46.882687100000005" lon="11.408621966666665"><ele>956.0</ele><time>2026-05-01T06:35:50.354Z</time></trkpt><trkpt lat="46.88261255000001" lon="11.408520283333333"><ele>958.5</ele><time>2026-05-01T06:35:51.342Z</time></trkpt><trkpt lat="46.88253443333333" lon="11.40840775"><ele>961.0</ele><time>2026-05-01T06:35:52.363Z</time></trkpt><trkpt lat="46.88245319999999" lon="11.408288366666667"><ele>963.5</ele><time>2026-05-01T06:35:53.341Z</time></trkpt><trkpt lat="46.8823674" lon="11.408169999999998"><ele>966.0</ele><time>2026-05-01T06:35:54.377Z</time></trkpt><trkpt lat="46.88228218333333" lon="11.408058716666668"><ele>966.8</ele><time>2026-05-01T06:35:55.363Z</time></trkpt><trkpt lat="46.88220458333333" lon="11.407956899999999"><ele>967.5999999999999</ele><time>2026-05-01T06:35:56.36Z</time></trkpt><trkpt lat="46.88213586666667" lon="11.407864966666667"><ele>968.4</ele><time>2026-05-01T06:35:57.36Z</time></trkpt><trkpt lat="46.88207125000001" lon="11.40777695"><ele>969.2</ele><time>2026-05-01T06:35:58.363Z</time></trkpt><trkpt lat="46.88201456666667" lon="11.407678966666667"><ele>970.0</ele><time>2026-05-01T06:35:59.346Z</time></trkpt><trkpt lat="46.88197270000001" lon="11.407562316666667"><ele>970.0000000000001</ele><time>2026-05-01T06:36:00.361Z</time></trkpt><trkpt lat="46.88195340000001" lon="11.407449366666667"><ele>970.0</ele><time>2026-05-01T06:36:01.375Z</time></trkpt><trkpt lat="46.88193703333333" lon="11.407346516666665"><ele>970.0000000000001</ele><time>2026-05-01T06:36:02.353Z</time></trkpt><trkpt lat="46.881896149999996" lon="11.4072572"><ele>970.0000000000001</ele><time>2026-05-01T06:36:03.359Z</time></trkpt><trkpt lat="46.881833333333326" lon="11.407215266666666"><ele>970.0</ele><time>2026-05-01T06:36:04.364Z</time></trkpt><trkpt lat="46.88175885000001" lon="11.40720915"><ele>970.0000000000001</ele><time>2026-05-01T06:36:05.342Z</time></trkpt><trkpt lat="46.881680933333335" lon="11.407187183333333"><ele>970.0000000000001</ele><time>2026-05-01T06:36:06.36Z</time></trkpt><trkpt lat="46.88159681666666" lon="11.407119699999999"><ele>969.25</ele><time>2026-05-01T06:36:07.345Z</time></trkpt><trkpt lat="46.88151196666666" lon="11.407018449999997"><ele>968.5</ele><time>2026-05-01T06:36:08.345Z</time></trkpt><trkpt lat="46.88141961666666" lon="11.4068966"><ele>967.75</ele><time>2026-05-01T06:36:09.361Z</time></trkpt><trkpt lat="46.88132016666667" lon="11.406763049999999"><ele>967.0</ele><time>2026-05-01T06:36:10.355Z</time></trkpt><trkpt lat="46.88122381666667" lon="11.406636366666664"><ele>967.0</ele><time>2026-05-01T06:36:11.341Z</time></trkpt><trkpt lat="46.88113546666666" lon="11.406522233333332"><ele>967.0</ele><time>2026-05-01T06:36:12.362Z</time></trkpt><trkpt lat="46.88105003333334" lon="11.406411099999998"><ele>967.0</ele><time>2026-05-01T06:36:13.341Z</time></trkpt><trkpt lat="46.88096368333333" lon="11.406298"><ele>967.0</ele><time>2026-05-01T06:36:14.361Z</time></trkpt><trkpt lat="46.88087198333333" lon="11.40618015"><ele>966.75</ele><time>2026-05-01T06:36:15.362Z</time></trkpt><trkpt lat="46.88077878333334" lon="11.40605318333333"><ele>966.5</ele><time>2026-05-01T06:36:16.363Z</time></trkpt><trkpt lat="46.880677600000006" lon="11.405917816666667"><ele>966.25</ele><time>2026-05-01T06:36:17.345Z</time></trkpt><trkpt lat="46.8805642" lon="11.405784966666666"><ele>966.0</ele><time>2026-05-01T06:36:18.361Z</time></trkpt><trkpt lat="46.880461444905" lon="11.405633894833581"><ele>966.0</ele><time>2026-05-01T06:36:19.35Z</time></trkpt><trkpt lat="46.8803583537073" lon="11.405521796230806"><ele>966.0</ele><time>2026-05-01T06:36:20.342Z</time></trkpt><trkpt lat="46.88026368010437" lon="11.405421157416432"><ele>966.0</ele><time>2026-05-01T06:36:21.341Z</time></trkpt><trkpt lat="46.88017414488291" lon="11.405328620243909"><ele>966.0</ele><time>2026-05-01T06:36:22.363Z</time></trkpt><trkpt lat="46.880083416666665" lon="11.4052477"><ele>966.8</ele><time>2026-05-01T06:36:23.346Z</time></trkpt><trkpt lat="46.88002148333333" lon="11.405119016666667"><ele>967.5999999999999</ele><time>2026-05-01T06:36:24.361Z</time></trkpt><trkpt lat="46.87996851666667" lon="11.404979933333335"><ele>968.4</ele><time>2026-05-01T06:36:25.362Z</time></trkpt><trkpt lat="46.879920033333335" lon="11.404839116666668"><ele>969.2</ele><time>2026-05-01T06:36:26.363Z</time></trkpt><trkpt lat="46.87985858333334" lon="11.404696750000001"><ele>970.0</ele><time>2026-05-01T06:36:27.361Z</time></trkpt><trkpt lat="46.87978116666667" lon="11.40454105"><ele>970.0</ele><time>2026-05-01T06:36:28.363Z</time></trkpt><trkpt lat="46.87970696666666" lon="11.404365933333334"><ele>970.0</ele><time>2026-05-01T06:36:29.341Z</time></trkpt><trkpt lat="46.87964331666667" lon="11.404166966666665"><ele>970.0</ele><time>2026-05-01T06:36:30.363Z</time></trkpt><trkpt lat="46.87959606666667" lon="11.403948066666665"><ele>970.0</ele><time>2026-05-01T06:36:31.347Z</time></trkpt><trkpt lat="46.8795742998822" lon="11.40370572877335"><ele>970.0</ele><time>2026-05-01T06:36:32.342Z</time></trkpt><trkpt lat="46.87953345903024" lon="11.403448816050991"><ele>970.0</ele><time>2026-05-01T06:36:33.363Z</time></trkpt><trkpt lat="46.879485501320694" lon="11.403178518464411"><ele>970.0</ele><time>2026-05-01T06:36:34.342Z</time></trkpt><trkpt lat="46.879433500738614" lon="11.402902759896886"><ele>970.0</ele><time>2026-05-01T06:36:35.365Z</time></trkpt><trkpt lat="46.879378423446056" lon="11.402637861601816"><ele>970.0</ele><time>2026-05-01T06:36:36.361Z</time></trkpt><trkpt lat="46.8793245634939" lon="11.402381432470648"><ele>970.0</ele><time>2026-05-01T06:36:37.341Z</time></trkpt><trkpt lat="46.87927640013847" lon="11.402135142650431"><ele>983.0</ele><time>2026-05-01T06:36:38.356Z</time></trkpt><trkpt lat="46.87925712215026" lon="11.40188914333979"><ele>996.0</ele><time>2026-05-01T06:36:39.343Z</time></trkpt><trkpt lat="46.87925973327367" lon="11.401629988729802"><ele>1009.0</ele><time>2026-05-01T06:36:40.341Z</time></trkpt><trkpt lat="46.87923798370105" lon="11.401355878393582"><ele>1011.6666666666666</ele><time>2026-05-01T06:36:41.341Z</time></trkpt><trkpt lat="46.87919548881712" lon="11.401114264920352"><ele>1014.3333333333333</ele><time>2026-05-01T06:36:42.341Z</time></trkpt><trkpt lat="46.87916466043771" lon="11.400916896525919"><ele>1017.0</ele><time>2026-05-01T06:36:43.363Z</time></trkpt><trkpt lat="46.87917837017323" lon="11.400707879093446"><ele>1020.0</ele><time>2026-05-01T06:36:44.358Z</time></trkpt><trkpt lat="46.87923882514826" lon="11.400487806321586"><ele>1023.0</ele><time>2026-05-01T06:36:45.361Z</time></trkpt><trkpt lat="46.879292236264845" lon="11.400230656699186"><ele>1026.0</ele><time>2026-05-01T06:36:46.347Z</time></trkpt><trkpt lat="46.87931733879617" lon="11.399964383333334"><ele>1027.0</ele><time>2026-05-01T06:36:47.341Z</time></trkpt><trkpt lat="46.879290475044264" lon="11.399691927095027"><ele>1028.0</ele><time>2026-05-01T06:36:48.365Z</time></trkpt><trkpt lat="46.87924124390937" lon="11.39946089301602"><ele>1029.0</ele><time>2026-05-01T06:36:49.363Z</time></trkpt><trkpt lat="46.879230582845366" lon="11.399248879375326"><ele>1029.0</ele><time>2026-05-01T06:36:50.34Z</time></trkpt><trkpt lat="46.87923789562543" lon="11.399044851696448"><ele>1029.0</ele><time>2026-05-01T06:36:51.359Z</time></trkpt><trkpt lat="46.879242222174106" lon="11.398841365035414"><ele>1029.0</ele><time>2026-05-01T06:36:52.362Z</time></trkpt><trkpt lat="46.87924692928781" lon="11.39865513681492"><ele>1029.0</ele><time>2026-05-01T06:36:53.343Z</time></trkpt><trkpt lat="46.87926815106424" lon="11.398471337575426"><ele>1015.25</ele><time>2026-05-01T06:36:54.36Z</time></trkpt><trkpt lat="46.87929450333739" lon="11.398288497095026"><ele>1001.5</ele><time>2026-05-01T06:36:55.344Z</time></trkpt><trkpt lat="46.87930062833293" lon="11.398093443778869"><ele>987.75</ele><time>2026-05-01T06:36:56.354Z</time></trkpt><trkpt lat="46.87929612265703" lon="11.397878633131777"><ele>974.0</ele><time>2026-05-01T06:36:57.367Z</time></trkpt><trkpt lat="46.87926802147776" lon="11.397646294474214"><ele>993.0</ele><time>2026-05-01T06:36:58.372Z</time></trkpt><trkpt lat="46.879213386474284" lon="11.397420593567116"><ele>1012.0</ele><time>2026-05-01T06:36:59.341Z</time></trkpt><trkpt lat="46.87917945927654" lon="11.39718794762212"><ele>1031.0</ele><time>2026-05-01T06:37:00.362Z</time></trkpt><trkpt lat="46.879157793969824" lon="11.396965949465683"><ele>1031.0</ele><time>2026-05-01T06:37:01.347Z</time></trkpt><trkpt lat="46.87914142937014" lon="11.396759454037555"><ele>1031.0</ele><time>2026-05-01T06:37:02.347Z</time></trkpt><trkpt lat="46.87909578666014" lon="11.396590438666955"><ele>1031.0</ele><time>2026-05-01T06:37:03.361Z</time></trkpt><trkpt lat="46.87898912647535" lon="11.396464190686231"><ele>1031.0</ele><time>2026-05-01T06:37:04.362Z</time></trkpt><trkpt lat="46.87885943333334" lon="11.396390366666665"><ele>1027.6666666666667</ele><time>2026-05-01T06:37:05.339Z</time></trkpt><trkpt lat="46.87874883333334" lon="11.396253183333332"><ele>1024.3333333333333</ele><time>2026-05-01T06:37:06.362Z</time></trkpt><trkpt lat="46.87864348333332" lon="11.396087083333336"><ele>1021.0</ele><time>2026-05-01T06:37:07.347Z</time></trkpt><trkpt lat="46.87855123333334" lon="11.395910583333334"><ele>1021.0</ele><time>2026-05-01T06:37:08.351Z</time></trkpt><trkpt lat="46.87849143333333" lon="11.395730199999997"><ele>1021.0</ele><time>2026-05-01T06:37:09.363Z</time></trkpt><trkpt lat="46.87846746666667" lon="11.395560933333336"><ele>1021.0</ele><time>2026-05-01T06:37:10.345Z</time></trkpt><trkpt lat="46.878492533333336" lon="11.39540125"><ele>1021.0</ele><time>2026-05-01T06:37:11.351Z</time></trkpt><trkpt lat="46.87856874633553" lon="11.39526930823444"><ele>1020.25</ele><time>2026-05-01T06:37:12.361Z</time></trkpt><trkpt lat="46.8786412155437" lon="11.395114044515969"><ele>1019.5</ele><time>2026-05-01T06:37:13.347Z</time></trkpt><trkpt lat="46.87867224661427" lon="11.39492338665075"><ele>1018.75</ele><time>2026-05-01T06:37:14.353Z</time></trkpt><trkpt lat="46.878658866173566" lon="11.394704889693516"><ele>1018.0</ele><time>2026-05-01T06:37:15.361Z</time></trkpt><trkpt lat="46.8786267946687" lon="11.394471760991575"><ele>1016.6666666666666</ele><time>2026-05-01T06:37:16.362Z</time></trkpt><trkpt lat="46.878580553286135" lon="11.394222823883638"><ele>1015.3333333333333</ele><time>2026-05-01T06:37:17.349Z</time></trkpt><trkpt lat="46.87852284806751" lon="11.393968861449206"><ele>1014.0</ele><time>2026-05-01T06:37:18.361Z</time></trkpt><trkpt lat="46.878461890052534" lon="11.393710558399707"><ele>1023.3333333333333</ele><time>2026-05-01T06:37:19.363Z</time></trkpt><trkpt lat="46.87840271348636" lon="11.393452419354738"><ele>1032.6666666666665</ele><time>2026-05-01T06:37:20.342Z</time></trkpt><trkpt lat="46.87835349179538" lon="11.393207614877895"><ele>1042.0</ele><time>2026-05-01T06:37:21.344Z</time></trkpt><trkpt lat="46.87831348531812" lon="11.392972461053086"><ele>1044.0</ele><time>2026-05-01T06:37:22.363Z</time></trkpt><trkpt lat="46.87827489416014" lon="11.392738410889233"><ele>1046.0</ele><time>2026-05-01T06:37:23.342Z</time></trkpt><trkpt lat="46.87823502830983" lon="11.39250367756238"><ele>1048.0</ele><time>2026-05-01T06:37:24.361Z</time></trkpt><trkpt lat="46.87819302648897" lon="11.392246724387993"><ele>1049.6666666666665</ele><time>2026-05-01T06:37:25.341Z</time></trkpt><trkpt lat="46.87813672432918" lon="11.39196000608913"><ele>1051.3333333333333</ele><time>2026-05-01T06:37:26.345Z</time></trkpt><trkpt lat="46.87804928648332" lon="11.391697683351515"><ele>1053.0</ele><time>2026-05-01T06:37:27.361Z</time></trkpt><trkpt lat="46.877988640019154" lon="11.39144227523512"><ele>1055.6666666666667</ele><time>2026-05-01T06:37:28.342Z</time></trkpt><trkpt lat="46.87797149945799" lon="11.391180627454762"><ele>1058.3333333333335</ele><time>2026-05-01T06:37:29.35Z</time></trkpt><trkpt lat="46.87798444842834" lon="11.390921004477594"><ele>1061.0</ele><time>2026-05-01T06:37:30.377Z</time></trkpt><trkpt lat="46.87801209722432" lon="11.390663927649518"><ele>1062.6666666666667</ele><time>2026-05-01T06:37:31.347Z</time></trkpt><trkpt lat="46.87802280298786" lon="11.390386865830159"><ele>1064.3333333333333</ele><time>2026-05-01T06:37:32.347Z</time></trkpt><trkpt lat="46.87800839538415" lon="11.390118528315975"><ele>1066.0</ele><time>2026-05-01T06:37:33.361Z</time></trkpt><trkpt lat="46.87799538400341" lon="11.389840701548836"><ele>1067.3333333333333</ele><time>2026-05-01T06:37:34.344Z</time></trkpt><trkpt lat="46.87798127208074" lon="11.389559649554823"><ele>1068.6666666666667</ele><time>2026-05-01T06:37:35.353Z</time></trkpt><trkpt lat="46.877966028825526" lon="11.389276501016557"><ele>1070.0</ele><time>2026-05-01T06:37:36.361Z</time></trkpt><trkpt lat="46.877948911531995" lon="11.388991162054344"><ele>1070.0</ele><time>2026-05-01T06:37:37.382Z</time></trkpt><trkpt lat="46.87792474421749" lon="11.388699796973718"><ele>1070.0</ele><time>2026-05-01T06:37:38.385Z</time></trkpt><trkpt lat="46.87789174617233" lon="11.38841651897654"><ele>1070.0</ele><time>2026-05-01T06:37:39.359Z</time></trkpt><trkpt lat="46.877863189494235" lon="11.388161679860008"><ele>1071.0</ele><time>2026-05-01T06:37:40.369Z</time></trkpt><trkpt lat="46.87784070984212" lon="11.38792476930955"><ele>1072.0</ele><time>2026-05-01T06:37:41.348Z</time></trkpt><trkpt lat="46.87777222080598" lon="11.387696741142406"><ele>1073.0</ele><time>2026-05-01T06:37:42.391Z</time></trkpt><trkpt lat="46.877665949074796" lon="11.387547850363891"><ele>1073.0</ele><time>2026-05-01T06:37:43.366Z</time></trkpt><trkpt lat="46.87761926666667" lon="11.387354016666666"><ele>1073.0</ele><time>2026-05-01T06:37:44.345Z</time></trkpt><trkpt lat="46.87763588333334" lon="11.38713235"><ele>1073.0</ele><time>2026-05-01T06:37:45.341Z</time></trkpt><trkpt lat="46.87767586666667" lon="11.38689585"><ele>1074.3333333333335</ele><time>2026-05-01T06:37:46.343Z</time></trkpt><trkpt lat="46.877699766666666" lon="11.38663425"><ele>1075.6666666666667</ele><time>2026-05-01T06:37:47.344Z</time></trkpt><trkpt lat="46.87773426421424" lon="11.386344325120316"><ele>1077.0</ele><time>2026-05-01T06:37:48.365Z</time></trkpt><trkpt lat="46.877683694075955" lon="11.38607077168725"><ele>1077.0</ele><time>2026-05-01T06:37:49.344Z</time></trkpt><trkpt lat="46.8776494682887" lon="11.385792557018064"><ele>1077.0</ele><time>2026-05-01T06:37:50.351Z</time></trkpt><trkpt lat="46.87761798062987" lon="11.385492565578044"><ele>1077.0</ele><time>2026-05-01T06:37:51.343Z</time></trkpt><trkpt lat="46.877586140340576" lon="11.385189214480915"><ele>1087.3333333333333</ele><time>2026-05-01T06:37:52.345Z</time></trkpt><trkpt lat="46.87755416494248" lon="11.384884860909557"><ele>1097.6666666666665</ele><time>2026-05-01T06:37:53.345Z</time></trkpt><trkpt lat="46.877514392952435" lon="11.384564094756257"><ele>1108.0</ele><time>2026-05-01T06:37:54.34Z</time></trkpt><trkpt lat="46.877461068213904" lon="11.384251780951528"><ele>1108.6666666666665</ele><time>2026-05-01T06:37:55.344Z</time></trkpt><trkpt lat="46.87743819529414" lon="11.38394873192981"><ele>1109.3333333333333</ele><time>2026-05-01T06:37:56.344Z</time></trkpt><trkpt lat="46.87741292193503" lon="11.383635940562185"><ele>1110.0</ele><time>2026-05-01T06:37:57.34Z</time></trkpt><trkpt lat="46.87736489391431" lon="11.38334602632388"><ele>1111.6666666666667</ele><time>2026-05-01T06:37:58.344Z</time></trkpt><trkpt lat="46.877348887320714" lon="11.383050200853415"><ele>1113.3333333333335</ele><time>2026-05-01T06:37:59.364Z</time></trkpt><trkpt lat="46.877347938478316" lon="11.382740249999998"><ele>1115.0</ele><time>2026-05-01T06:38:00.341Z</time></trkpt><trkpt lat="46.877349917374524" lon="11.382416442609111"><ele>1120.3333333333335</ele><time>2026-05-01T06:38:01.345Z</time></trkpt><trkpt lat="46.87733128697101" lon="11.382086900273805"><ele>1125.6666666666667</ele><time>2026-05-01T06:38:02.362Z</time></trkpt><trkpt lat="46.87730522951474" lon="11.381792630323872"><ele>1131.0</ele><time>2026-05-01T06:38:03.343Z</time></trkpt><trkpt lat="46.877282452637225" lon="11.381530978770869"><ele>1130.3333333333333</ele><time>2026-05-01T06:38:04.361Z</time></trkpt><trkpt lat="46.87728812784031" lon="11.381300697562855"><ele>1129.6666666666665</ele><time>2026-05-01T06:38:05.346Z</time></trkpt><trkpt lat="46.87730875448965" lon="11.381074471187528"><ele>1129.0</ele><time>2026-05-01T06:38:06.343Z</time></trkpt><trkpt lat="46.877303401269515" lon="11.380847856090098"><ele>1129.0</ele><time>2026-05-01T06:38:07.343Z</time></trkpt><trkpt lat="46.87725122205212" lon="11.380649800207191"><ele>1129.0</ele><time>2026-05-01T06:38:08.347Z</time></trkpt><trkpt lat="46.8771611731363" lon="11.380484738223139"><ele>1129.0</ele><time>2026-05-01T06:38:09.392Z</time></trkpt><trkpt lat="46.87705254249047" lon="11.380351933064953"><ele>1129.0</ele><time>2026-05-01T06:38:10.342Z</time></trkpt><trkpt lat="46.87694897697703" lon="11.380222805468271"><ele>1127.75</ele><time>2026-05-01T06:38:11.363Z</time></trkpt><trkpt lat="46.87686045" lon="11.380089566666667"><ele>1126.5</ele><time>2026-05-01T06:38:12.343Z</time></trkpt><trkpt lat="46.87682875" lon="11.379915633333335"><ele>1125.25</ele><time>2026-05-01T06:38:13.344Z</time></trkpt><trkpt lat="46.87685858333333" lon="11.379756633333333"><ele>1124.0</ele><time>2026-05-01T06:38:14.355Z</time></trkpt><trkpt lat="46.87692921666667" lon="11.379630416666666"><ele>1124.0</ele><time>2026-05-01T06:38:15.342Z</time></trkpt><trkpt lat="46.87701203333333" lon="11.37951865"><ele>1124.0</ele><time>2026-05-01T06:38:16.345Z</time></trkpt><trkpt lat="46.877069016666674" lon="11.379405466666666"><ele>1124.0</ele><time>2026-05-01T06:38:17.346Z</time></trkpt><trkpt lat="46.87710132958079" lon="11.379270385555742"><ele>1124.0</ele><time>2026-05-01T06:38:18.354Z</time></trkpt><trkpt lat="46.87706058759528" lon="11.379133589352655"><ele>1124.0</ele><time>2026-05-01T06:38:19.344Z</time></trkpt><trkpt lat="46.87697443023818" lon="11.379064805527994"><ele>1124.0</ele><time>2026-05-01T06:38:20.352Z</time></trkpt><trkpt lat="46.876873022545226" lon="11.379083506933743"><ele>1124.0</ele><time>2026-05-01T06:38:21.343Z</time></trkpt><trkpt lat="46.87679946632567" lon="11.379191588891407"><ele>1124.0</ele><time>2026-05-01T06:38:22.344Z</time></trkpt><trkpt lat="46.87675585489651" lon="11.379339056762614"><ele>1124.0</ele><time>2026-05-01T06:38:23.357Z</time></trkpt><trkpt lat="46.8767173097955" lon="11.379496497580567"><ele>1124.0</ele><time>2026-05-01T06:38:24.343Z</time></trkpt><trkpt lat="46.87667970557729" lon="11.379673922058238"><ele>1133.3333333333335</ele><time>2026-05-01T06:38:25.343Z</time></trkpt><trkpt lat="46.87664988189365" lon="11.379889263230716"><ele>1142.6666666666667</ele><time>2026-05-01T06:38:26.346Z</time></trkpt><trkpt lat="46.87663966666667" lon="11.380139699999999"><ele>1152.0</ele><time>2026-05-01T06:38:27.35Z</time></trkpt><trkpt lat="46.8765990053611" lon="11.380403354516417"><ele>1152.3333333333333</ele><time>2026-05-01T06:38:28.351Z</time></trkpt><trkpt lat="46.876577140770344" lon="11.380696465185581"><ele>1152.6666666666665</ele><time>2026-05-01T06:38:29.345Z</time></trkpt><trkpt lat="46.87658488333334" lon="11.381010649999999"><ele>1153.0</ele><time>2026-05-01T06:38:30.342Z</time></trkpt><trkpt lat="46.87656305" lon="11.381327333333337"><ele>1152.3333333333333</ele><time>2026-05-01T06:38:31.351Z</time></trkpt><trkpt lat="46.87654036666666" lon="11.381610850000001"><ele>1151.6666666666667</ele><time>2026-05-01T06:38:32.354Z</time></trkpt><trkpt lat="46.87651718333333" lon="11.381867916666666"><ele>1151.0</ele><time>2026-05-01T06:38:33.343Z</time></trkpt><trkpt lat="46.876495516666665" lon="11.382111100000001"><ele>1149.3333333333335</ele><time>2026-05-01T06:38:34.345Z</time></trkpt><trkpt lat="46.87646773333333" lon="11.382348566666666"><ele>1147.6666666666667</ele><time>2026-05-01T06:38:35.347Z</time></trkpt><trkpt lat="46.8764253" lon="11.382579300000002"><ele>1146.0</ele><time>2026-05-01T06:38:36.343Z</time></trkpt><trkpt lat="46.87634921256717" lon="11.382794192833636"><ele>1145.3333333333333</ele><time>2026-05-01T06:38:37.342Z</time></trkpt><trkpt lat="46.876296967191806" lon="11.383043772091515"><ele>1144.6666666666665</ele><time>2026-05-01T06:38:38.347Z</time></trkpt><trkpt lat="46.87631040164718" lon="11.383289668357335"><ele>1144.0</ele><time>2026-05-01T06:38:39.351Z</time></trkpt><trkpt lat="46.87634446666666" lon="11.383527533333332"><ele>1144.0</ele><time>2026-05-01T06:38:40.343Z</time></trkpt><trkpt lat="46.87633716666666" lon="11.383764"><ele>1144.0</ele><time>2026-05-01T06:38:41.345Z</time></trkpt><trkpt lat="46.87629035399462" lon="11.383971406850907"><ele>1144.0</ele><time>2026-05-01T06:38:42.342Z</time></trkpt><trkpt lat="46.8762427423836" lon="11.384162594487885"><ele>1144.25</ele><time>2026-05-01T06:38:43.347Z</time></trkpt><trkpt lat="46.87619707300663" lon="11.384345501436522"><ele>1144.5</ele><time>2026-05-01T06:38:44.353Z</time></trkpt><trkpt lat="46.876147704102095" lon="11.38454189813593"><ele>1144.75</ele><time>2026-05-01T06:38:45.341Z</time></trkpt><trkpt lat="46.8761044" lon="11.384766333333335"><ele>1145.0</ele><time>2026-05-01T06:38:46.345Z</time></trkpt><trkpt lat="46.87602588333333" lon="11.384993799999998"><ele>1143.6666666666667</ele><time>2026-05-01T06:38:47.342Z</time></trkpt><trkpt lat="46.87595346666667" lon="11.385237949999997"><ele>1142.3333333333333</ele><time>2026-05-01T06:38:48.343Z</time></trkpt><trkpt lat="46.8758973" lon="11.385486166666665"><ele>1141.0</ele><time>2026-05-01T06:38:49.344Z</time></trkpt><trkpt lat="46.875864633333336" lon="11.385733383333337"><ele>1159.0</ele><time>2026-05-01T06:38:50.345Z</time></trkpt><trkpt lat="46.87584114999999" lon="11.385977916666665"><ele>1177.0</ele><time>2026-05-01T06:38:51.343Z</time></trkpt><trkpt lat="46.87580981666667" lon="11.386222666666667"><ele>1195.0</ele><time>2026-05-01T06:38:52.362Z</time></trkpt><trkpt lat="46.87576203333333" lon="11.386474716666665"><ele>1195.0</ele><time>2026-05-01T06:38:53.352Z</time></trkpt><trkpt lat="46.8757053" lon="11.386731333333334"><ele>1195.0</ele><time>2026-05-01T06:38:54.343Z</time></trkpt><trkpt lat="46.87565766666667" lon="11.386975033333332"><ele>1195.0</ele><time>2026-05-01T06:38:55.342Z</time></trkpt><trkpt lat="46.87561748333333" lon="11.387192100000002"><ele>1193.75</ele><time>2026-05-01T06:38:56.364Z</time></trkpt><trkpt lat="46.87556469999999" lon="11.38738005"><ele>1192.5</ele><time>2026-05-01T06:38:57.341Z</time></trkpt><trkpt lat="46.875491533333324" lon="11.3875492"><ele>1191.25</ele><time>2026-05-01T06:38:58.345Z</time></trkpt><trkpt lat="46.875409350000005" lon="11.387708433333335"><ele>1190.0</ele><time>2026-05-01T06:38:59.363Z</time></trkpt><trkpt lat="46.87533798333333" lon="11.387866166666667"><ele>1190.5</ele><time>2026-05-01T06:39:00.343Z</time></trkpt><trkpt lat="46.87529688333334" lon="11.388035866666668"><ele>1191.0</ele><time>2026-05-01T06:39:01.341Z</time></trkpt><trkpt lat="46.87530678333333" lon="11.388223183333332"><ele>1191.5</ele><time>2026-05-01T06:39:02.347Z</time></trkpt><trkpt lat="46.87534465" lon="11.388425583333333"><ele>1192.0</ele><time>2026-05-01T06:39:03.344Z</time></trkpt><trkpt lat="46.87536528333334" lon="11.3886516"><ele>1192.6666666666665</ele><time>2026-05-01T06:39:04.343Z</time></trkpt><trkpt lat="46.87536123333332" lon="11.388898733333333"><ele>1193.3333333333333</ele><time>2026-05-01T06:39:05.359Z</time></trkpt><trkpt lat="46.87534399999999" lon="11.3891525"><ele>1194.0</ele><time>2026-05-01T06:39:06.353Z</time></trkpt><trkpt lat="46.87530725" lon="11.389399183333335"><ele>1194.0</ele><time>2026-05-01T06:39:07.343Z</time></trkpt><trkpt lat="46.87522679870526" lon="11.389608078744386"><ele>1194.0</ele><time>2026-05-01T06:39:08.343Z</time></trkpt><trkpt lat="46.875156391526176" lon="11.389804147578069"><ele>1194.0</ele><time>2026-05-01T06:39:09.34Z</time></trkpt><trkpt lat="46.87510421666666" lon="11.38999715"><ele>1200.75</ele><time>2026-05-01T06:39:10.34Z</time></trkpt><trkpt lat="46.87503991666667" lon="11.390164699999998"><ele>1207.5</ele><time>2026-05-01T06:39:11.348Z</time></trkpt><trkpt lat="46.874963099336895" lon="11.39031539744855"><ele>1214.25</ele><time>2026-05-01T06:39:12.342Z</time></trkpt><trkpt lat="46.8749045133043" lon="11.39051118679254"><ele>1221.0</ele><time>2026-05-01T06:39:13.342Z</time></trkpt><trkpt lat="46.874897861772936" lon="11.390747500000002"><ele>1221.3333333333333</ele><time>2026-05-01T06:39:14.344Z</time></trkpt><trkpt lat="46.874892622757045" lon="11.39099752018739"><ele>1221.6666666666665</ele><time>2026-05-01T06:39:15.353Z</time></trkpt><trkpt lat="46.87488510927222" lon="11.391269232659297"><ele>1222.0</ele><time>2026-05-01T06:39:16.344Z</time></trkpt><trkpt lat="46.87487606714619" lon="11.39154086815981"><ele>1223.0</ele><time>2026-05-01T06:39:17.361Z</time></trkpt><trkpt lat="46.87486500395044" lon="11.391784488562726"><ele>1224.0</ele><time>2026-05-01T06:39:18.342Z</time></trkpt><trkpt lat="46.87483125790414" lon="11.391980410285075"><ele>1225.0</ele><time>2026-05-01T06:39:19.346Z</time></trkpt><trkpt lat="46.874796823581256" lon="11.39218120424472"><ele>1226.0</ele><time>2026-05-01T06:39:20.344Z</time></trkpt><trkpt lat="46.87477983421174" lon="11.392379318905594"><ele>1227.25</ele><time>2026-05-01T06:39:21.345Z</time></trkpt><trkpt lat="46.87480849798399" lon="11.392583239399572"><ele>1228.5</ele><time>2026-05-01T06:39:22.352Z</time></trkpt><trkpt lat="46.874857201819935" lon="11.392766994997087"><ele>1229.75</ele><time>2026-05-01T06:39:23.348Z</time></trkpt><trkpt lat="46.87489919603795" lon="11.39296239088722"><ele>1231.0</ele><time>2026-05-01T06:39:24.353Z</time></trkpt><trkpt lat="46.874910884310935" lon="11.393166811624614"><ele>1231.5</ele><time>2026-05-01T06:39:25.341Z</time></trkpt><trkpt lat="46.8749126144332" lon="11.393391484562974"><ele>1232.0</ele><time>2026-05-01T06:39:26.361Z</time></trkpt><trkpt lat="46.87492219329933" lon="11.39361779090394"><ele>1232.5</ele><time>2026-05-01T06:39:27.341Z</time></trkpt><trkpt lat="46.874963742467976" lon="11.393814428210629"><ele>1233.0</ele><time>2026-05-01T06:39:28.351Z</time></trkpt><trkpt lat="46.87501089214501" lon="11.393943295239174"><ele>1233.0</ele><time>2026-05-01T06:39:29.348Z</time></trkpt><trkpt lat="46.87504045825859" lon="11.394039796749377"><ele>1233.0</ele><time>2026-05-01T06:39:31.351Z</time></trkpt><trkpt lat="46.87503945" lon="11.394134233333334"><ele>1233.0</ele><time>2026-05-01T06:39:32.347Z</time></trkpt><trkpt lat="46.87494773333333" lon="11.394045000000002"><ele>1233.0</ele><time>2026-05-01T06:39:34.341Z</time></trkpt><trkpt lat="46.87494459999999" lon="11.393931183333333"><ele>1233.0</ele><time>2026-05-01T06:39:35.359Z</time></trkpt><trkpt lat="46.87494818333332" lon="11.393780533333333"><ele>1233.0</ele><time>2026-05-01T06:39:36.342Z</time></trkpt><trkpt lat="46.87492425000001" lon="11.393592266666667"><ele>1233.0</ele><time>2026-05-01T06:39:37.342Z</time></trkpt><trkpt lat="46.87487881666666" lon="11.393372116666667"><ele>1233.0</ele><time>2026-05-01T06:39:38.366Z</time></trkpt><trkpt lat="46.87480113333333" lon="11.393124799999999"><ele>1233.0</ele><time>2026-05-01T06:39:39.342Z</time></trkpt><trkpt lat="46.87469961666667" lon="11.392844600000002"><ele>1232.3333333333333</ele><time>2026-05-01T06:39:40.344Z</time></trkpt><trkpt lat="46.87461623333334" lon="11.392540633333331"><ele>1231.6666666666665</ele><time>2026-05-01T06:39:41.351Z</time></trkpt><trkpt lat="46.874555233333325" lon="11.392233516666666"><ele>1231.0</ele><time>2026-05-01T06:39:42.34Z</time></trkpt><trkpt lat="46.87451171666667" lon="11.391938783333336"><ele>1229.3333333333333</ele><time>2026-05-01T06:39:43.351Z</time></trkpt><trkpt lat="46.87446753333334" lon="11.391642066666668"><ele>1227.6666666666667</ele><time>2026-05-01T06:39:44.357Z</time></trkpt><trkpt lat="46.87440196666666" lon="11.391347166666666"><ele>1226.0</ele><time>2026-05-01T06:39:45.341Z</time></trkpt><trkpt lat="46.87433428333333" lon="11.391073266666668"><ele>1224.6666666666667</ele><time>2026-05-01T06:39:46.352Z</time></trkpt><trkpt lat="46.87427436666667" lon="11.390827433333333"><ele>1223.3333333333333</ele><time>2026-05-01T06:39:47.364Z</time></trkpt><trkpt lat="46.87423258333334" lon="11.390610733333332"><ele>1222.0</ele><time>2026-05-01T06:39:48.342Z</time></trkpt><trkpt lat="46.87418926666666" lon="11.390438483333332"><ele>1230.75</ele><time>2026-05-01T06:39:49.344Z</time></trkpt><trkpt lat="46.87411139999999" lon="11.390317866666665"><ele>1239.5</ele><time>2026-05-01T06:39:50.353Z</time></trkpt><trkpt lat="46.874000133333325" lon="11.390218616666667"><ele>1248.25</ele><time>2026-05-01T06:39:51.34Z</time></trkpt><trkpt lat="46.873875016666666" lon="11.390100733333336"><ele>1257.0</ele><time>2026-05-01T06:39:52.35Z</time></trkpt><trkpt lat="46.87375718333333" lon="11.389957383333334"><ele>1257.0</ele><time>2026-05-01T06:39:53.344Z</time></trkpt><trkpt lat="46.87367136666667" lon="11.389800716666667"><ele>1257.0</ele><time>2026-05-01T06:39:54.342Z</time></trkpt><trkpt lat="46.87361493333333" lon="11.389626699999999"><ele>1257.0</ele><time>2026-05-01T06:39:55.351Z</time></trkpt><trkpt lat="46.87358968333333" lon="11.389434483333332"><ele>1257.0</ele><time>2026-05-01T06:39:56.359Z</time></trkpt><trkpt lat="46.87359825" lon="11.389241216666669"><ele>1256.75</ele><time>2026-05-01T06:39:57.342Z</time></trkpt><trkpt lat="46.87363001666665" lon="11.389054866666667"><ele>1256.5</ele><time>2026-05-01T06:39:58.344Z</time></trkpt><trkpt lat="46.8736803" lon="11.388884833333334"><ele>1256.25</ele><time>2026-05-01T06:39:59.354Z</time></trkpt><trkpt lat="46.87374693333333" lon="11.388737416666666"><ele>1256.0</ele><time>2026-05-01T06:40:00.341Z</time></trkpt><trkpt lat="46.87381311666667" lon="11.388594433333333"><ele>1257.75</ele><time>2026-05-01T06:40:01.345Z</time></trkpt><trkpt lat="46.87385041666666" lon="11.388425150000002"><ele>1259.5</ele><time>2026-05-01T06:40:02.351Z</time></trkpt><trkpt lat="46.873861833333336" lon="11.388211233333333"><ele>1261.25</ele><time>2026-05-01T06:40:03.341Z</time></trkpt><trkpt lat="46.87386951666667" lon="11.387962783333334"><ele>1263.0</ele><time>2026-05-01T06:40:04.352Z</time></trkpt><trkpt lat="46.87388063333333" lon="11.387698233333333"><ele>1264.0</ele><time>2026-05-01T06:40:05.352Z</time></trkpt><trkpt lat="46.87388438333333" lon="11.387435383333331"><ele>1265.0</ele><time>2026-05-01T06:40:06.342Z</time></trkpt><trkpt lat="46.873869250000006" lon="11.38718965"><ele>1266.0</ele><time>2026-05-01T06:40:07.356Z</time></trkpt><trkpt lat="46.87383301666667" lon="11.386979199999999"><ele>1266.75</ele><time>2026-05-01T06:40:08.349Z</time></trkpt><trkpt lat="46.87377011666668" lon="11.386806750000002"><ele>1267.5</ele><time>2026-05-01T06:40:09.352Z</time></trkpt><trkpt lat="46.873702660016605" lon="11.38664902061457"><ele>1268.25</ele><time>2026-05-01T06:40:10.345Z</time></trkpt><trkpt lat="46.87361463333333" lon="11.38652795"><ele>1269.0</ele><time>2026-05-01T06:40:11.348Z</time></trkpt><trkpt lat="46.873574899999994" lon="11.386371666666665"><ele>1270.5</ele><time>2026-05-01T06:40:12.34Z</time></trkpt><trkpt lat="46.87358178333334" lon="11.3861883"><ele>1272.0</ele><time>2026-05-01T06:40:13.344Z</time></trkpt><trkpt lat="46.873620100000004" lon="11.385981399999999"><ele>1273.5</ele><time>2026-05-01T06:40:14.358Z</time></trkpt><trkpt lat="46.87366641690024" lon="11.385755490421191"><ele>1275.0</ele><time>2026-05-01T06:40:15.34Z</time></trkpt><trkpt lat="46.8736605" lon="11.385502033333333"><ele>1277.0</ele><time>2026-05-01T06:40:16.341Z</time></trkpt><trkpt lat="46.873681683333345" lon="11.385236883333334"><ele>1279.0</ele><time>2026-05-01T06:40:17.378Z</time></trkpt><trkpt lat="46.873715616666665" lon="11.384951066666668"><ele>1281.0</ele><time>2026-05-01T06:40:18.342Z</time></trkpt><trkpt lat="46.87375126666667" lon="11.384642966666668"><ele>1282.5</ele><time>2026-05-01T06:40:19.347Z</time></trkpt><trkpt lat="46.873773766666666" lon="11.384317949999998"><ele>1284.0</ele><time>2026-05-01T06:40:20.352Z</time></trkpt><trkpt lat="46.873780416666655" lon="11.383979333333333"><ele>1285.6666666666667</ele><time>2026-05-01T06:40:21.343Z</time></trkpt><trkpt lat="46.8737712" lon="11.383650516666668"><ele>1287.3333333333335</ele><time>2026-05-01T06:40:22.342Z</time></trkpt><trkpt lat="46.87373948333334" lon="11.383354616666669"><ele>1289.0</ele><time>2026-05-01T06:40:23.342Z</time></trkpt><trkpt lat="46.873699818329804" lon="11.38307594624893"><ele>1288.3333333333335</ele><time>2026-05-01T06:40:24.341Z</time></trkpt><trkpt lat="46.87361586359769" lon="11.382811055675493"><ele>1287.6666666666667</ele><time>2026-05-01T06:40:25.352Z</time></trkpt><trkpt lat="46.873499080151035" lon="11.382562008723838"><ele>1287.0</ele><time>2026-05-01T06:40:26.353Z</time></trkpt><trkpt lat="46.87335437863987" lon="11.382334262384678"><ele>1292.3333333333333</ele><time>2026-05-01T06:40:27.34Z</time></trkpt><trkpt lat="46.87319116666666" lon="11.382156316666666"><ele>1297.6666666666665</ele><time>2026-05-01T06:40:28.363Z</time></trkpt><trkpt lat="46.87305727440532" lon="11.381975901229628"><ele>1303.0</ele><time>2026-05-01T06:40:29.349Z</time></trkpt><trkpt lat="46.87292006666667" lon="11.381844016666665"><ele>1303.0</ele><time>2026-05-01T06:40:30.342Z</time></trkpt><trkpt lat="46.87282333333333" lon="11.38167425"><ele>1303.0</ele><time>2026-05-01T06:40:31.345Z</time></trkpt><trkpt lat="46.87275366666666" lon="11.381478133333335"><ele>1303.0</ele><time>2026-05-01T06:40:32.346Z</time></trkpt><trkpt lat="46.872696866666665" lon="11.38127925"><ele>1301.75</ele><time>2026-05-01T06:40:33.342Z</time></trkpt><trkpt lat="46.872622199999995" lon="11.38110835"><ele>1300.5</ele><time>2026-05-01T06:40:34.344Z</time></trkpt><trkpt lat="46.87251903333334" lon="11.38096855"><ele>1299.25</ele><time>2026-05-01T06:40:35.35Z</time></trkpt><trkpt lat="46.87241690000001" lon="11.38085565"><ele>1298.0</ele><time>2026-05-01T06:40:36.341Z</time></trkpt><trkpt lat="46.8723369" lon="11.380740399999999"><ele>1302.4</ele><time>2026-05-01T06:40:37.363Z</time></trkpt><trkpt lat="46.87228848333332" lon="11.38060375"><ele>1306.8000000000002</ele><time>2026-05-01T06:40:38.352Z</time></trkpt><trkpt lat="46.87228316666667" lon="11.380453783333333"><ele>1311.2</ele><time>2026-05-01T06:40:39.343Z</time></trkpt><trkpt lat="46.8723356" lon="11.380311283333334"><ele>1315.6</ele><time>2026-05-01T06:40:40.345Z</time></trkpt><trkpt lat="46.872423700000006" lon="11.380195350000001"><ele>1320.0</ele><time>2026-05-01T06:40:41.342Z</time></trkpt><trkpt lat="46.87252483333333" lon="11.380095850000002"><ele>1317.8</ele><time>2026-05-01T06:40:42.356Z</time></trkpt><trkpt lat="46.87260751666666" lon="11.379991333333331"><ele>1315.6</ele><time>2026-05-01T06:40:43.342Z</time></trkpt><trkpt lat="46.87266226666667" lon="11.379866066666667"><ele>1313.4</ele><time>2026-05-01T06:40:44.351Z</time></trkpt><trkpt lat="46.87267905000001" lon="11.379716433333332"><ele>1311.2</ele><time>2026-05-01T06:40:45.341Z</time></trkpt><trkpt lat="46.87265675" lon="11.379545233333332"><ele>1309.0</ele><time>2026-05-01T06:40:46.342Z</time></trkpt><trkpt lat="46.87261501666667" lon="11.379349549999999"><ele>1316.6666666666665</ele><time>2026-05-01T06:40:47.354Z</time></trkpt><trkpt lat="46.87257361666666" lon="11.379121683333336"><ele>1324.3333333333333</ele><time>2026-05-01T06:40:48.341Z</time></trkpt><trkpt lat="46.872540166666674" lon="11.378855249999999"><ele>1332.0</ele><time>2026-05-01T06:40:49.362Z</time></trkpt><trkpt lat="46.872508550000006" lon="11.378547"><ele>1334.5</ele><time>2026-05-01T06:40:50.346Z</time></trkpt><trkpt lat="46.872490697344716" lon="11.378204170396442"><ele>1337.0</ele><time>2026-05-01T06:40:51.354Z</time></trkpt><trkpt lat="46.872447177847846" lon="11.377836981295182"><ele>1337.0</ele><time>2026-05-01T06:40:52.341Z</time></trkpt><trkpt lat="46.87239868026135" lon="11.377472518514807"><ele>1337.0</ele><time>2026-05-01T06:40:53.349Z</time></trkpt><trkpt lat="46.87233798333334" lon="11.377142816666666"><ele>1337.3333333333335</ele><time>2026-05-01T06:40:54.341Z</time></trkpt><trkpt lat="46.87230325" lon="11.37684675"><ele>1337.6666666666667</ele><time>2026-05-01T06:40:55.346Z</time></trkpt><trkpt lat="46.8722724" lon="11.376599099999998"><ele>1338.0</ele><time>2026-05-01T06:40:56.353Z</time></trkpt><trkpt lat="46.87222786666666" lon="11.376390883333334"><ele>1336.75</ele><time>2026-05-01T06:40:57.341Z</time></trkpt><trkpt lat="46.87216733793074" lon="11.3762062739715"><ele>1335.5</ele><time>2026-05-01T06:40:58.364Z</time></trkpt><trkpt lat="46.872053580543096" lon="11.376097490490986"><ele>1334.25</ele><time>2026-05-01T06:40:59.353Z</time></trkpt><trkpt lat="46.871916120368695" lon="11.37603634518028"><ele>1333.0</ele><time>2026-05-01T06:41:00.341Z</time></trkpt><trkpt lat="46.8717678385701" lon="11.376067930674406"><ele>1338.3333333333333</ele><time>2026-05-01T06:41:01.34Z</time></trkpt><trkpt lat="46.87161913306142" lon="11.376148292605237"><ele>1343.6666666666667</ele><time>2026-05-01T06:41:02.348Z</time></trkpt><trkpt lat="46.87146830395297" lon="11.376248642270419"><ele>1349.0</ele><time>2026-05-01T06:41:03.341Z</time></trkpt><trkpt lat="46.8713127" lon="11.376347583333333"><ele>1349.0</ele><time>2026-05-01T06:41:04.352Z</time></trkpt><trkpt lat="46.871137100000006" lon="11.376365983333336"><ele>1349.0</ele><time>2026-05-01T06:41:05.357Z</time></trkpt><trkpt lat="46.87097255592494" lon="11.376308498975044"><ele>1349.0</ele><time>2026-05-01T06:41:06.343Z</time></trkpt><trkpt lat="46.87082545750227" lon="11.37626139579468"><ele>1354.5</ele><time>2026-05-01T06:41:07.345Z</time></trkpt><trkpt lat="46.870698411046746" lon="11.376216800170791"><ele>1360.0</ele><time>2026-05-01T06:41:08.349Z</time></trkpt><trkpt lat="46.870587266666675" lon="11.376169566666665"><ele>1365.5</ele><time>2026-05-01T06:41:09.342Z</time></trkpt><trkpt lat="46.87051048333333" lon="11.376033050000002"><ele>1371.0</ele><time>2026-05-01T06:41:10.345Z</time></trkpt><trkpt lat="46.870468550000005" lon="11.375856400000002"><ele>1371.0</ele><time>2026-05-01T06:41:11.342Z</time></trkpt><trkpt lat="46.8704585" lon="11.375651249999997"><ele>1371.0</ele><time>2026-05-01T06:41:12.341Z</time></trkpt><trkpt lat="46.87046013333333" lon="11.375431700000002"><ele>1371.0</ele><time>2026-05-01T06:41:13.342Z</time></trkpt><trkpt lat="46.87048053333333" lon="11.375216283333335"><ele>1371.0</ele><time>2026-05-01T06:41:14.366Z</time></trkpt><trkpt lat="46.87053628333333" lon="11.375003933333335"><ele>1374.6666666666667</ele><time>2026-05-01T06:41:15.34Z</time></trkpt><trkpt lat="46.87060986666667" lon="11.374792133333335"><ele>1378.3333333333335</ele><time>2026-05-01T06:41:16.359Z</time></trkpt><trkpt lat="46.870669083333325" lon="11.374559433333332"><ele>1382.0</ele><time>2026-05-01T06:41:17.349Z</time></trkpt><trkpt lat="46.870710666666675" lon="11.374300449999998"><ele>1385.6666666666667</ele><time>2026-05-01T06:41:18.341Z</time></trkpt><trkpt lat="46.87075026666666" lon="11.374031716666666"><ele>1389.3333333333333</ele><time>2026-05-01T06:41:19.352Z</time></trkpt><trkpt lat="46.87079816666666" lon="11.373779216666666"><ele>1393.0</ele><time>2026-05-01T06:41:20.353Z</time></trkpt><trkpt lat="46.87087446666666" lon="11.373548283333331"><ele>1387.3333333333333</ele><time>2026-05-01T06:41:21.342Z</time></trkpt><trkpt lat="46.87097775" lon="11.373337516666668"><ele>1381.6666666666667</ele><time>2026-05-01T06:41:22.358Z</time></trkpt><trkpt lat="46.871075616666666" lon="11.373132733333334"><ele>1376.0</ele><time>2026-05-01T06:41:23.363Z</time></trkpt><trkpt lat="46.87115006666666" lon="11.37292155"><ele>1376.0</ele><time>2026-05-01T06:41:24.342Z</time></trkpt><trkpt lat="46.8712134" lon="11.372699350000001"><ele>1376.0</ele><time>2026-05-01T06:41:25.342Z</time></trkpt><trkpt lat="46.87125809999999" lon="11.372457650000001"><ele>1376.0</ele><time>2026-05-01T06:41:26.357Z</time></trkpt><trkpt lat="46.8712857" lon="11.372210500000001"><ele>1377.0</ele><time>2026-05-01T06:41:27.34Z</time></trkpt><trkpt lat="46.871290716666664" lon="11.371958549999999"><ele>1378.0</ele><time>2026-05-01T06:41:28.355Z</time></trkpt><trkpt lat="46.87126033333334" lon="11.3716981"><ele>1379.0</ele><time>2026-05-01T06:41:29.345Z</time></trkpt><trkpt lat="46.87121388333333" lon="11.371436999999998"><ele>1377.6666666666667</ele><time>2026-05-01T06:41:30.352Z</time></trkpt><trkpt lat="46.871177933333335" lon="11.371174033333332"><ele>1376.3333333333333</ele><time>2026-05-01T06:41:31.345Z</time></trkpt><trkpt lat="46.87116161666667" lon="11.370927566666667"><ele>1375.0</ele><time>2026-05-01T06:41:32.358Z</time></trkpt><trkpt lat="46.87113380000001" lon="11.370699266666668"><ele>1375.0</ele><time>2026-05-01T06:41:33.341Z</time></trkpt><trkpt lat="46.87108842682738" lon="11.370462285031033"><ele>1375.0</ele><time>2026-05-01T06:41:34.351Z</time></trkpt><trkpt lat="46.870988000000004" lon="11.37025585"><ele>1375.0</ele><time>2026-05-01T06:41:35.347Z</time></trkpt><trkpt lat="46.87087985" lon="11.370061549999999"><ele>1382.0</ele><time>2026-05-01T06:41:36.343Z</time></trkpt><trkpt lat="46.87076471363608" lon="11.369871772156136"><ele>1389.0</ele><time>2026-05-01T06:41:37.345Z</time></trkpt><trkpt lat="46.87064406551314" lon="11.369717402481957"><ele>1396.0</ele><time>2026-05-01T06:41:38.35Z</time></trkpt><trkpt lat="46.87052283333334" lon="11.36960421666667"><ele>1396.0</ele><time>2026-05-01T06:41:39.35Z</time></trkpt><trkpt lat="46.87044151666667" lon="11.369438250000002"><ele>1396.0</ele><time>2026-05-01T06:41:40.352Z</time></trkpt><trkpt lat="46.870390083333334" lon="11.369240316666666"><ele>1396.0</ele><time>2026-05-01T06:41:41.345Z</time></trkpt><trkpt lat="46.87035423333333" lon="11.369036033333336"><ele>1396.0</ele><time>2026-05-01T06:41:42.343Z</time></trkpt><trkpt lat="46.87030555" lon="11.368863416666665"><ele>1395.25</ele><time>2026-05-01T06:41:43.345Z</time></trkpt><trkpt lat="46.87022451666667" lon="11.36871295"><ele>1394.5</ele><time>2026-05-01T06:41:44.35Z</time></trkpt><trkpt lat="46.87012821902244" lon="11.368552044442088"><ele>1393.75</ele><time>2026-05-01T06:41:45.346Z</time></trkpt><trkpt lat="46.870003614098515" lon="11.36841169343313"><ele>1393.0</ele><time>2026-05-01T06:41:46.344Z</time></trkpt><trkpt lat="46.869878204997114" lon="11.368267869797945"><ele>1398.6666666666665</ele><time>2026-05-01T06:41:47.347Z</time></trkpt><trkpt lat="46.869752659827874" lon="11.368121229892816"><ele>1404.3333333333333</ele><time>2026-05-01T06:41:48.342Z</time></trkpt><trkpt lat="46.869628815866555" lon="11.367976911222904"><ele>1410.0</ele><time>2026-05-01T06:41:49.352Z</time></trkpt><trkpt lat="46.86950899478544" lon="11.367832981074594"><ele>1410.0</ele><time>2026-05-01T06:41:50.35Z</time></trkpt><trkpt lat="46.86939870000077" lon="11.3676931928598"><ele>1410.0</ele><time>2026-05-01T06:41:51.342Z</time></trkpt><trkpt lat="46.869302917353714" lon="11.36756069611228"><ele>1410.0</ele><time>2026-05-01T06:41:52.346Z</time></trkpt><trkpt lat="46.869211294722135" lon="11.367435694705295"><ele>1410.0</ele><time>2026-05-01T06:41:53.363Z</time></trkpt><trkpt lat="46.86911690938267" lon="11.367322643105636"><ele>1412.5</ele><time>2026-05-01T06:41:54.343Z</time></trkpt><trkpt lat="46.86901300180061" lon="11.367223120042073"><ele>1415.0</ele><time>2026-05-01T06:41:55.347Z</time></trkpt><trkpt lat="46.86890510613674" lon="11.367130898279068"><ele>1417.5</ele><time>2026-05-01T06:41:56.361Z</time></trkpt><trkpt lat="46.86879277939791" lon="11.367039420133455"><ele>1420.0</ele><time>2026-05-01T06:41:57.342Z</time></trkpt><trkpt lat="46.86867727854777" lon="11.366950019044562"><ele>1420.0</ele><time>2026-05-01T06:41:58.341Z</time></trkpt><trkpt lat="46.86856061948322" lon="11.366860661024514"><ele>1420.0</ele><time>2026-05-01T06:41:59.342Z</time></trkpt><trkpt lat="46.86844172407926" lon="11.366773295524823"><ele>1420.0</ele><time>2026-05-01T06:42:00.344Z</time></trkpt><trkpt lat="46.86832043833201" lon="11.366684173578884"><ele>1420.0</ele><time>2026-05-01T06:42:01.343Z</time></trkpt><trkpt lat="46.868199415549185" lon="11.366595139667302"><ele>1420.75</ele><time>2026-05-01T06:42:02.343Z</time></trkpt><trkpt lat="46.868078721822684" lon="11.366501784235089"><ele>1421.5</ele><time>2026-05-01T06:42:03.342Z</time></trkpt><trkpt lat="46.86795918333333" lon="11.366417233333335"><ele>1422.25</ele><time>2026-05-01T06:42:04.365Z</time></trkpt><trkpt lat="46.86787304999999" lon="11.366272833333335"><ele>1423.0</ele><time>2026-05-01T06:42:05.346Z</time></trkpt><trkpt lat="46.86781281666668" lon="11.366104266666666"><ele>1423.0</ele><time>2026-05-01T06:42:06.341Z</time></trkpt><trkpt lat="46.867786300000006" lon="11.365919"><ele>1423.0</ele><time>2026-05-01T06:42:07.343Z</time></trkpt><trkpt lat="46.867797766666676" lon="11.365733033333333"><ele>1423.0</ele><time>2026-05-01T06:42:08.363Z</time></trkpt><trkpt lat="46.86783123333333" lon="11.365556316666668"><ele>1423.0</ele><time>2026-05-01T06:42:09.343Z</time></trkpt><trkpt lat="46.867868" lon="11.365384116666666"><ele>1424.0</ele><time>2026-05-01T06:42:10.341Z</time></trkpt><trkpt lat="46.86789723333333" lon="11.365219933333334"><ele>1425.0</ele><time>2026-05-01T06:42:11.346Z</time></trkpt><trkpt lat="46.86791925000001" lon="11.365066216666666"><ele>1426.0</ele><time>2026-05-01T06:42:12.342Z</time></trkpt><trkpt lat="46.86793823333334" lon="11.364921299999999"><ele>1427.0</ele><time>2026-05-01T06:42:13.364Z</time></trkpt><trkpt lat="46.86795146666667" lon="11.36477655"><ele>1428.0</ele><time>2026-05-01T06:42:14.347Z</time></trkpt><trkpt lat="46.867959716666675" lon="11.364641316666667"><ele>1429.2</ele><time>2026-05-01T06:42:15.345Z</time></trkpt><trkpt lat="46.86796648333334" lon="11.364500783333336"><ele>1430.4</ele><time>2026-05-01T06:42:16.352Z</time></trkpt><trkpt lat="46.867967316666665" lon="11.364361316666669"><ele>1431.6000000000001</ele><time>2026-05-01T06:42:17.343Z</time></trkpt><trkpt lat="46.8679583" lon="11.364224850000001"><ele>1432.8000000000002</ele><time>2026-05-01T06:42:18.354Z</time></trkpt><trkpt lat="46.86793956666668" lon="11.364083633333333"><ele>1434.0</ele><time>2026-05-01T06:42:19.345Z</time></trkpt><trkpt lat="46.867921700000004" lon="11.363942716666667"><ele>1435.1666666666667</ele><time>2026-05-01T06:42:20.362Z</time></trkpt><trkpt lat="46.8679138" lon="11.36380515"><ele>1436.3333333333333</ele><time>2026-05-01T06:42:21.34Z</time></trkpt><trkpt lat="46.86791178333333" lon="11.363684233333334"><ele>1437.5</ele><time>2026-05-01T06:42:22.343Z</time></trkpt><trkpt lat="46.867910033333324" lon="11.363576183333333"><ele>1438.6666666666665</ele><time>2026-05-01T06:42:23.346Z</time></trkpt><trkpt lat="46.86791145" lon="11.363466866666666"><ele>1439.8333333333333</ele><time>2026-05-01T06:42:24.349Z</time></trkpt><trkpt lat="46.86791698333334" lon="11.363353716666666"><ele>1441.0</ele><time>2026-05-01T06:42:25.346Z</time></trkpt><trkpt lat="46.86793398333332" lon="11.363233983333336"><ele>1441.0</ele><time>2026-05-01T06:42:26.354Z</time></trkpt><trkpt lat="46.86796408333333" lon="11.363117766666667"><ele>1441.0</ele><time>2026-05-01T06:42:27.354Z</time></trkpt><trkpt lat="46.868007199999994" lon="11.363004516666669"><ele>1441.0</ele><time>2026-05-01T06:42:28.345Z</time></trkpt><trkpt lat="46.868062399999985" lon="11.362895933333334"><ele>1441.0</ele><time>2026-05-01T06:42:29.363Z</time></trkpt><trkpt lat="46.868121933333335" lon="11.362786466666668"><ele>1441.0</ele><time>2026-05-01T06:42:30.344Z</time></trkpt><trkpt lat="46.86818414999999" lon="11.362673783333333"><ele>1442.1999999999998</ele><time>2026-05-01T06:42:31.352Z</time></trkpt><trkpt lat="46.86824556666667" lon="11.362560333333333"><ele>1443.3999999999999</ele><time>2026-05-01T06:42:32.352Z</time></trkpt><trkpt lat="46.868302116666676" lon="11.362445833333334"><ele>1444.6</ele><time>2026-05-01T06:42:33.345Z</time></trkpt><trkpt lat="46.868337133333334" lon="11.36232265"><ele>1445.8</ele><time>2026-05-01T06:42:34.355Z</time></trkpt><trkpt lat="46.86834081666666" lon="11.362196616666665"><ele>1447.0</ele><time>2026-05-01T06:42:35.35Z</time></trkpt><trkpt lat="46.86830901666667" lon="11.362082216666666"><ele>1447.3999999999999</ele><time>2026-05-01T06:42:36.364Z</time></trkpt><trkpt lat="46.86824655000001" lon="11.36199485"><ele>1447.8</ele><time>2026-05-01T06:42:37.351Z</time></trkpt><trkpt lat="46.86817140644574" lon="11.361897718395513"><ele>1448.2</ele><time>2026-05-01T06:42:38.362Z</time></trkpt><trkpt lat="46.86807177226067" lon="11.361866814746628"><ele>1448.6</ele><time>2026-05-01T06:42:39.342Z</time></trkpt><trkpt lat="46.867967299168654" lon="11.361858514756745"><ele>1449.0</ele><time>2026-05-01T06:42:40.353Z</time></trkpt><trkpt lat="46.86786405939381" lon="11.361853473879393"><ele>1449.0</ele><time>2026-05-01T06:42:41.35Z</time></trkpt><trkpt lat="46.86776180717014" lon="11.36184368434795"><ele>1449.0</ele><time>2026-05-01T06:42:42.342Z</time></trkpt><trkpt lat="46.867668115636306" lon="11.36182317517445"><ele>1449.0</ele><time>2026-05-01T06:42:43.354Z</time></trkpt><trkpt lat="46.86758433894157" lon="11.361799997818258"><ele>1449.0</ele><time>2026-05-01T06:42:44.352Z</time></trkpt><trkpt lat="46.867516114366225" lon="11.361776192647438"><ele>1449.0</ele><time>2026-05-01T06:42:45.343Z</time></trkpt><trkpt lat="46.867449466666656" lon="11.361767016666667"><ele>1449.0</ele><time>2026-05-01T06:42:46.343Z</time></trkpt><trkpt lat="46.867386999999994" lon="11.361725216666665"><ele>1451.1666666666667</ele><time>2026-05-01T06:42:47.362Z</time></trkpt><trkpt lat="46.86732623333334" lon="11.361675283333334"><ele>1453.3333333333333</ele><time>2026-05-01T06:42:48.343Z</time></trkpt><trkpt lat="46.867278033333335" lon="11.361600716666665"><ele>1455.5</ele><time>2026-05-01T06:42:49.341Z</time></trkpt><trkpt lat="46.86724783333334" lon="11.361503283333331"><ele>1457.6666666666665</ele><time>2026-05-01T06:42:50.363Z</time></trkpt><trkpt lat="46.867250466666675" lon="11.361386466666668"><ele>1459.8333333333333</ele><time>2026-05-01T06:42:51.341Z</time></trkpt><trkpt lat="46.86728321666666" lon="11.361273433333334"><ele>1462.0</ele><time>2026-05-01T06:42:52.345Z</time></trkpt><trkpt lat="46.86732235" lon="11.361158283333333"><ele>1463.3999999999999</ele><time>2026-05-01T06:42:53.352Z</time></trkpt><trkpt lat="46.86733734999999" lon="11.361033583333336"><ele>1464.8</ele><time>2026-05-01T06:42:54.343Z</time></trkpt><trkpt lat="46.86733611657901" lon="11.360899180202873"><ele>1466.2</ele><time>2026-05-01T06:42:55.345Z</time></trkpt><trkpt lat="46.86728015192423" lon="11.36078550471687"><ele>1467.6</ele><time>2026-05-01T06:42:56.347Z</time></trkpt><trkpt lat="46.867199166666666" lon="11.360717933333333"><ele>1469.0</ele><time>2026-05-01T06:42:57.342Z</time></trkpt><trkpt lat="46.867131433333334" lon="11.360644716666666"><ele>1469.0</ele><time>2026-05-01T06:42:58.351Z</time></trkpt><trkpt lat="46.867075783333334" lon="11.360571799999997"><ele>1469.0</ele><time>2026-05-01T06:42:59.363Z</time></trkpt><trkpt lat="46.86703658333333" lon="11.360486666666668"><ele>1469.0</ele><time>2026-05-01T06:43:00.341Z</time></trkpt><trkpt lat="46.8670225" lon="11.360386000000002"><ele>1469.0</ele><time>2026-05-01T06:43:01.343Z</time></trkpt><trkpt lat="46.867035216666665" lon="11.36028075"><ele>1469.0</ele><time>2026-05-01T06:43:02.353Z</time></trkpt><trkpt lat="46.86705391666666" lon="11.3601764"><ele>1469.0</ele><time>2026-05-01T06:43:03.343Z</time></trkpt><trkpt lat="46.86706788333333" lon="11.360066583333333"><ele>1469.0</ele><time>2026-05-01T06:43:04.343Z</time></trkpt><trkpt lat="46.86707748333333" lon="11.359945816666666"><ele>1471.1666666666667</ele><time>2026-05-01T06:43:05.346Z</time></trkpt><trkpt lat="46.86709003333334" lon="11.359822149999998"><ele>1473.3333333333335</ele><time>2026-05-01T06:43:06.343Z</time></trkpt><trkpt lat="46.867116249999995" lon="11.359706183333332"><ele>1475.5</ele><time>2026-05-01T06:43:07.345Z</time></trkpt><trkpt lat="46.867162433333334" lon="11.359598733333332"><ele>1477.6666666666667</ele><time>2026-05-01T06:43:08.36Z</time></trkpt><trkpt lat="46.86721983333333" lon="11.359503483333333"><ele>1479.8333333333333</ele><time>2026-05-01T06:43:09.341Z</time></trkpt><trkpt lat="46.86728985" lon="11.359415216666665"><ele>1482.0</ele><time>2026-05-01T06:43:10.345Z</time></trkpt><trkpt lat="46.86736526666667" lon="11.359330316666668"><ele>1483.6</ele><time>2026-05-01T06:43:11.344Z</time></trkpt><trkpt lat="46.86743763333334" lon="11.359236849999997"><ele>1485.1999999999998</ele><time>2026-05-01T06:43:12.342Z</time></trkpt><trkpt lat="46.86749383333334" lon="11.35912245"><ele>1486.8</ele><time>2026-05-01T06:43:13.352Z</time></trkpt><trkpt lat="46.86752873333334" lon="11.358995066666667"><ele>1488.4</ele><time>2026-05-01T06:43:14.355Z</time></trkpt><trkpt lat="46.86753486666667" lon="11.358865549999999"><ele>1490.0</ele><time>2026-05-01T06:43:15.341Z</time></trkpt><trkpt lat="46.867515850000004" lon="11.3587341"><ele>1490.8</ele><time>2026-05-01T06:43:16.352Z</time></trkpt><trkpt lat="46.86749211666667" lon="11.358604233333331"><ele>1491.6</ele><time>2026-05-01T06:43:17.346Z</time></trkpt><trkpt lat="46.86746388333333" lon="11.358473733333335"><ele>1492.4</ele><time>2026-05-01T06:43:18.362Z</time></trkpt><trkpt lat="46.86742781666667" lon="11.358345133333334"><ele>1493.2</ele><time>2026-05-01T06:43:19.343Z</time></trkpt><trkpt lat="46.86739021666667" lon="11.358218833333334"><ele>1494.0</ele><time>2026-05-01T06:43:20.358Z</time></trkpt><trkpt lat="46.86734799999999" lon="11.358092516666666"><ele>1493.8000000000002</ele><time>2026-05-01T06:43:21.349Z</time></trkpt><trkpt lat="46.867300716666655" lon="11.357971549999998"><ele>1493.6000000000001</ele><time>2026-05-01T06:43:22.344Z</time></trkpt><trkpt lat="46.867251616666664" lon="11.357853483333335"><ele>1493.4</ele><time>2026-05-01T06:43:23.346Z</time></trkpt><trkpt lat="46.86719986666667" lon="11.357745116666669"><ele>1493.2</ele><time>2026-05-01T06:43:24.342Z</time></trkpt><trkpt lat="46.86714716666667" lon="11.357640499999997"><ele>1493.0</ele><time>2026-05-01T06:43:25.339Z</time></trkpt><trkpt lat="46.86708736666666" lon="11.357539816666668"><ele>1493.0</ele><time>2026-05-01T06:43:26.35Z</time></trkpt><trkpt lat="46.867032469259996" lon="11.35741691351247"><ele>1493.0</ele><time>2026-05-01T06:43:27.343Z</time></trkpt><trkpt lat="46.86695588401494" lon="11.357332197959757"><ele>1493.0</ele><time>2026-05-01T06:43:28.344Z</time></trkpt><trkpt lat="46.86688347876188" lon="11.357247819428213"><ele>1493.0</ele><time>2026-05-01T06:43:29.346Z</time></trkpt><trkpt lat="46.86682202169978" lon="11.357141016507931"><ele>1493.0</ele><time>2026-05-01T06:43:30.346Z</time></trkpt><trkpt lat="46.86677277931214" lon="11.356999707070955"><ele>1496.5</ele><time>2026-05-01T06:43:31.346Z</time></trkpt><trkpt lat="46.86673596583129" lon="11.356837860492732"><ele>1500.0</ele><time>2026-05-01T06:43:32.354Z</time></trkpt><trkpt lat="46.866705034783436" lon="11.356672296857283"><ele>1503.5</ele><time>2026-05-01T06:43:33.342Z</time></trkpt><trkpt lat="46.86666471995548" lon="11.3565003235699"><ele>1507.0</ele><time>2026-05-01T06:43:34.344Z</time></trkpt><trkpt lat="46.86660770278016" lon="11.356329125227571"><ele>1507.0</ele><time>2026-05-01T06:43:35.343Z</time></trkpt><trkpt lat="46.866539949999996" lon="11.356179349999998"><ele>1507.0</ele><time>2026-05-01T06:43:36.343Z</time></trkpt><trkpt lat="46.86651005" lon="11.356013816666668"><ele>1507.0</ele><time>2026-05-01T06:43:37.345Z</time></trkpt><trkpt lat="46.866486866666676" lon="11.35585125"><ele>1507.0</ele><time>2026-05-01T06:43:38.354Z</time></trkpt><trkpt lat="46.86646006666666" lon="11.355693516666667"><ele>1506.1999999999998</ele><time>2026-05-01T06:43:39.341Z</time></trkpt><trkpt lat="46.866453677795306" lon="11.355528497556383"><ele>1505.4</ele><time>2026-05-01T06:43:40.355Z</time></trkpt><trkpt lat="46.86642587928062" lon="11.355382566543838"><ele>1504.6</ele><time>2026-05-01T06:43:41.359Z</time></trkpt><trkpt lat="46.866384837112236" lon="11.3552468857369"><ele>1503.8000000000002</ele><time>2026-05-01T06:43:42.342Z</time></trkpt><trkpt lat="46.86633398024788" lon="11.355118507212788"><ele>1503.0</ele><time>2026-05-01T06:43:43.347Z</time></trkpt><trkpt lat="46.866264470916704" lon="11.354999001699815"><ele>1503.0</ele><time>2026-05-01T06:43:44.365Z</time></trkpt><trkpt lat="46.86616544643183" lon="11.354927149613859"><ele>1503.0</ele><time>2026-05-01T06:43:45.342Z</time></trkpt><trkpt lat="46.866050520193994" lon="11.35488576989713"><ele>1503.0</ele><time>2026-05-01T06:43:46.341Z</time></trkpt><trkpt lat="46.865934854572444" lon="11.354870884456588"><ele>1503.0</ele><time>2026-05-01T06:43:47.35Z</time></trkpt><trkpt lat="46.865835102845885" lon="11.354862084446298"><ele>1503.0</ele><time>2026-05-01T06:43:48.341Z</time></trkpt><trkpt lat="46.86575425725827" lon="11.354851287983974"><ele>1504.6666666666667</ele><time>2026-05-01T06:43:49.364Z</time></trkpt><trkpt lat="46.865671499942955" lon="11.35483412515327"><ele>1506.3333333333333</ele><time>2026-05-01T06:43:50.356Z</time></trkpt><trkpt lat="46.86558959403817" lon="11.354815109695677"><ele>1508.0</ele><time>2026-05-01T06:43:51.343Z</time></trkpt><trkpt lat="46.86551628044725" lon="11.354789098600394"><ele>1509.6666666666665</ele><time>2026-05-01T06:43:52.347Z</time></trkpt><trkpt lat="46.865445" lon="11.35475545"><ele>1511.3333333333333</ele><time>2026-05-01T06:43:53.344Z</time></trkpt><trkpt lat="46.86540012997015" lon="11.354672115776884"><ele>1513.0</ele><time>2026-05-01T06:43:54.354Z</time></trkpt><trkpt lat="46.865291" lon="11.35461796666667"><ele>1513.0</ele><time>2026-05-01T06:43:56.349Z</time></trkpt><trkpt lat="46.86520206666667" lon="11.354698516666668"><ele>1513.0</ele><time>2026-05-01T06:43:58.343Z</time></trkpt><trkpt lat="46.86519581666666" lon="11.354848883333332"><ele>1513.0</ele><time>2026-05-01T06:44:00.343Z</time></trkpt><trkpt lat="46.86521706666667" lon="11.35502143333333"><ele>1513.0</ele><time>2026-05-01T06:44:02.359Z</time></trkpt><trkpt lat="46.86520350000001" lon="11.355144266666667"><ele>1513.0</ele><time>2026-05-01T06:44:03.354Z</time></trkpt><trkpt lat="46.86518901666667" lon="11.355288366666667"><ele>1514.6000000000001</ele><time>2026-05-01T06:44:04.347Z</time></trkpt><trkpt lat="46.865174399999994" lon="11.3554394"><ele>1516.2</ele><time>2026-05-01T06:44:05.353Z</time></trkpt><trkpt lat="46.865164400000005" lon="11.355586183333331"><ele>1517.8</ele><time>2026-05-01T06:44:06.343Z</time></trkpt><trkpt lat="46.86518005" lon="11.355728500000001"><ele>1519.4</ele><time>2026-05-01T06:44:07.346Z</time></trkpt><trkpt lat="46.86521733333334" lon="11.355853250000001"><ele>1521.0</ele><time>2026-05-01T06:44:08.346Z</time></trkpt><trkpt lat="46.86525526666666" lon="11.355978183333333"><ele>1523.0</ele><time>2026-05-01T06:44:09.341Z</time></trkpt><trkpt lat="46.865279133333324" lon="11.35611715"><ele>1525.0</ele><time>2026-05-01T06:44:10.343Z</time></trkpt><trkpt lat="46.8652916" lon="11.356253366666666"><ele>1527.0</ele><time>2026-05-01T06:44:11.349Z</time></trkpt><trkpt lat="46.86529965" lon="11.356382083333331"><ele>1529.0</ele><time>2026-05-01T06:44:12.364Z</time></trkpt><trkpt lat="46.86530320000001" lon="11.356507849999998"><ele>1531.0</ele><time>2026-05-01T06:44:13.34Z</time></trkpt><trkpt lat="46.86530391666667" lon="11.3566332"><ele>1532.8</ele><time>2026-05-01T06:44:14.352Z</time></trkpt><trkpt lat="46.8653049" lon="11.356761500000001"><ele>1534.6</ele><time>2026-05-01T06:44:15.343Z</time></trkpt><trkpt lat="46.86529431666666" lon="11.356892899999998"><ele>1536.4</ele><time>2026-05-01T06:44:16.354Z</time></trkpt><trkpt lat="46.86526808333333" lon="11.3570427"><ele>1538.2</ele><time>2026-05-01T06:44:17.352Z</time></trkpt><trkpt lat="46.865233483333334" lon="11.357229816666665"><ele>1540.0</ele><time>2026-05-01T06:44:18.363Z</time></trkpt><trkpt lat="46.86519295" lon="11.357438833333333"><ele>1540.25</ele><time>2026-05-01T06:44:19.347Z</time></trkpt><trkpt lat="46.8651475" lon="11.357647016666666"><ele>1540.5</ele><time>2026-05-01T06:44:20.345Z</time></trkpt><trkpt lat="46.86510941666668" lon="11.357857783333335"><ele>1540.75</ele><time>2026-05-01T06:44:21.343Z</time></trkpt><trkpt lat="46.8650769" lon="11.358065783333332"><ele>1541.0</ele><time>2026-05-01T06:44:22.341Z</time></trkpt><trkpt lat="46.86504773333333" lon="11.358268383333334"><ele>1544.25</ele><time>2026-05-01T06:44:23.346Z</time></trkpt><trkpt lat="46.865031249999994" lon="11.358471100000001"><ele>1547.5</ele><time>2026-05-01T06:44:24.343Z</time></trkpt><trkpt lat="46.865024383333335" lon="11.358674683333334"><ele>1550.75</ele><time>2026-05-01T06:44:25.342Z</time></trkpt><trkpt lat="46.86500854999999" lon="11.358866816666666"><ele>1554.0</ele><time>2026-05-01T06:44:26.365Z</time></trkpt><trkpt lat="46.86498998333333" lon="11.359047066666669"><ele>1554.0</ele><time>2026-05-01T06:44:27.343Z</time></trkpt><trkpt lat="46.86497265" lon="11.359223433333334"><ele>1554.0</ele><time>2026-05-01T06:44:28.362Z</time></trkpt><trkpt lat="46.86494058333332" lon="11.359387766666668"><ele>1554.0</ele><time>2026-05-01T06:44:29.35Z</time></trkpt><trkpt lat="46.8648876" lon="11.359531350000001"><ele>1554.0</ele><time>2026-05-01T06:44:30.343Z</time></trkpt><trkpt lat="46.86481943333333" lon="11.35965815"><ele>1552.6</ele><time>2026-05-01T06:44:31.345Z</time></trkpt><trkpt lat="46.864759983333336" lon="11.359788616666666"><ele>1551.2</ele><time>2026-05-01T06:44:32.351Z</time></trkpt><trkpt lat="46.86471851666666" lon="11.359935083333335"><ele>1549.8</ele><time>2026-05-01T06:44:33.34Z</time></trkpt><trkpt lat="46.86468803333334" lon="11.360094616666668"><ele>1548.3999999999999</ele><time>2026-05-01T06:44:34.344Z</time></trkpt><trkpt lat="46.86466431666666" lon="11.360256416666667"><ele>1547.0</ele><time>2026-05-01T06:44:35.367Z</time></trkpt><trkpt lat="46.86464616666667" lon="11.360408549999999"><ele>1546.8</ele><time>2026-05-01T06:44:36.343Z</time></trkpt><trkpt lat="46.86462873333333" lon="11.360542216666666"><ele>1546.6</ele><time>2026-05-01T06:44:37.343Z</time></trkpt><trkpt lat="46.864611233333335" lon="11.360674133333335"><ele>1546.3999999999999</ele><time>2026-05-01T06:44:38.347Z</time></trkpt><trkpt lat="46.864598533333336" lon="11.360809666666666"><ele>1546.1999999999998</ele><time>2026-05-01T06:44:39.34Z</time></trkpt><trkpt lat="46.86457858333333" lon="11.360941216666667"><ele>1546.0</ele><time>2026-05-01T06:44:40.347Z</time></trkpt><trkpt lat="46.86455264999999" lon="11.361070633333336"><ele>1546.0</ele><time>2026-05-01T06:44:41.357Z</time></trkpt><trkpt lat="46.86451681666667" lon="11.361194433333333"><ele>1546.0</ele><time>2026-05-01T06:44:42.354Z</time></trkpt><trkpt lat="46.864457266666676" lon="11.361301333333332"><ele>1546.0</ele><time>2026-05-01T06:44:43.345Z</time></trkpt><trkpt lat="46.864380916666676" lon="11.361385583333334"><ele>1546.0</ele><time>2026-05-01T06:44:44.36Z</time></trkpt><trkpt lat="46.86429711666666" lon="11.361445800000002"><ele>1546.0</ele><time>2026-05-01T06:44:45.343Z</time></trkpt><trkpt lat="46.864216383333336" lon="11.361494216666665"><ele>1549.8333333333335</ele><time>2026-05-01T06:44:46.344Z</time></trkpt><trkpt lat="46.8641428" lon="11.361543500000002"><ele>1553.6666666666667</ele><time>2026-05-01T06:44:47.348Z</time></trkpt><trkpt lat="46.86407365" lon="11.361607116666667"><ele>1557.5</ele><time>2026-05-01T06:44:48.353Z</time></trkpt><trkpt lat="46.864016783333334" lon="11.361692166666668"><ele>1561.3333333333335</ele><time>2026-05-01T06:44:49.343Z</time></trkpt><trkpt lat="46.86398298333334" lon="11.361796699999998"><ele>1565.1666666666667</ele><time>2026-05-01T06:44:50.356Z</time></trkpt><trkpt lat="46.86397326666667" lon="11.36190346666667"><ele>1569.0</ele><time>2026-05-01T06:44:51.351Z</time></trkpt><trkpt lat="46.863985183333334" lon="11.361999066666666"><ele>1569.0</ele><time>2026-05-01T06:44:52.351Z</time></trkpt><trkpt lat="46.86405544999999" lon="11.362149816666667"><ele>1569.0</ele><time>2026-05-01T06:44:54.343Z</time></trkpt><trkpt lat="46.864100199999996" lon="11.362288416666669"><ele>1569.0</ele><time>2026-05-01T06:44:56.352Z</time></trkpt><trkpt lat="46.864089183333334" lon="11.362416933333334"><ele>1569.0</ele><time>2026-05-01T06:44:58.375Z</time></trkpt><trkpt lat="46.86399601666667" lon="11.362429883333334"><ele>1569.0</ele><time>2026-05-01T06:45:00.342Z</time></trkpt><trkpt lat="46.86393960936339" lon="11.362261883151072"><ele>1569.0</ele><time>2026-05-01T06:45:02.349Z</time></trkpt><trkpt lat="46.86391491677566" lon="11.362138284094456"><ele>1569.0</ele><time>2026-05-01T06:45:03.342Z</time></trkpt><trkpt lat="46.86387952837432" lon="11.36201484934436"><ele>1569.0</ele><time>2026-05-01T06:45:04.353Z</time></trkpt><trkpt lat="46.86382113333334" lon="11.361915566666669"><ele>1569.0</ele><time>2026-05-01T06:45:05.363Z</time></trkpt><trkpt lat="46.8637871" lon="11.36180361666667"><ele>1569.0</ele><time>2026-05-01T06:45:06.343Z</time></trkpt><trkpt lat="46.86377253333333" lon="11.361681916666665"><ele>1569.0</ele><time>2026-05-01T06:45:07.348Z</time></trkpt><trkpt lat="46.86378416666666" lon="11.3615627"><ele>1569.0</ele><time>2026-05-01T06:45:08.35Z</time></trkpt><trkpt lat="46.86381961666666" lon="11.361453116666667"><ele>1569.0</ele><time>2026-05-01T06:45:09.343Z</time></trkpt><trkpt lat="46.86387543333334" lon="11.361360500000002"><ele>1569.0</ele><time>2026-05-01T06:45:10.347Z</time></trkpt><trkpt lat="46.86394731666667" lon="11.36129755"><ele>1569.0</ele><time>2026-05-01T06:45:11.359Z</time></trkpt><trkpt lat="46.86402840000001" lon="11.361247633333335"><ele>1569.0</ele><time>2026-05-01T06:45:12.34Z</time></trkpt><trkpt lat="46.864092050000004" lon="11.361174533333333"><ele>1569.0</ele><time>2026-05-01T06:45:13.355Z</time></trkpt><trkpt lat="46.86412073333333" lon="11.361069616666668"><ele>1570.4</ele><time>2026-05-01T06:45:14.345Z</time></trkpt><trkpt lat="46.86413791261636" lon="11.360937500486935"><ele>1571.8000000000002</ele><time>2026-05-01T06:45:15.343Z</time></trkpt><trkpt lat="46.86408773333332" lon="11.360797200000002"><ele>1573.1999999999998</ele><time>2026-05-01T06:45:16.344Z</time></trkpt><trkpt lat="46.86403696666667" lon="11.360648366666664"><ele>1574.6</ele><time>2026-05-01T06:45:17.347Z</time></trkpt><trkpt lat="46.86398218333334" lon="11.360496966666664"><ele>1576.0</ele><time>2026-05-01T06:45:18.344Z</time></trkpt><trkpt lat="46.86393748333333" lon="11.360353333333334"><ele>1576.0</ele><time>2026-05-01T06:45:19.352Z</time></trkpt><trkpt lat="46.86389236666667" lon="11.360226066666668"><ele>1576.0</ele><time>2026-05-01T06:45:20.345Z</time></trkpt><trkpt lat="46.86384096666668" lon="11.360102316666667"><ele>1576.0</ele><time>2026-05-01T06:45:21.343Z</time></trkpt><trkpt lat="46.8637915" lon="11.359967633333335"><ele>1576.0</ele><time>2026-05-01T06:45:22.346Z</time></trkpt><trkpt lat="46.86374376666666" lon="11.359828816666669"><ele>1576.0</ele><time>2026-05-01T06:45:23.362Z</time></trkpt><trkpt lat="46.86370781666666" lon="11.359686816666665"><ele>1576.1999999999998</ele><time>2026-05-01T06:45:24.34Z</time></trkpt><trkpt lat="46.86369453333334" lon="11.359544716666669"><ele>1576.3999999999999</ele><time>2026-05-01T06:45:25.343Z</time></trkpt><trkpt lat="46.86369748333333" lon="11.359411183333334"><ele>1576.6</ele><time>2026-05-01T06:45:26.348Z</time></trkpt><trkpt lat="46.8637099" lon="11.359277599999999"><ele>1576.8</ele><time>2026-05-01T06:45:27.341Z</time></trkpt><trkpt lat="46.8637303" lon="11.359134083333334"><ele>1577.0</ele><time>2026-05-01T06:45:28.352Z</time></trkpt><trkpt lat="46.8637551" lon="11.358975216666666"><ele>1576.75</ele><time>2026-05-01T06:45:29.351Z</time></trkpt><trkpt lat="46.86377461666666" lon="11.358809783333333"><ele>1576.5</ele><time>2026-05-01T06:45:30.34Z</time></trkpt><trkpt lat="46.8637869" lon="11.358641066666666"><ele>1576.25</ele><time>2026-05-01T06:45:31.36Z</time></trkpt><trkpt lat="46.86380461666666" lon="11.358477316666665"><ele>1576.0</ele><time>2026-05-01T06:45:32.36Z</time></trkpt><trkpt lat="46.86381575" lon="11.358305450000001"><ele>1576.0</ele><time>2026-05-01T06:45:33.342Z</time></trkpt><trkpt lat="46.86381808333334" lon="11.358116566666668"><ele>1576.0</ele><time>2026-05-01T06:45:34.344Z</time></trkpt><trkpt lat="46.86382471666667" lon="11.357922250000003"><ele>1576.0</ele><time>2026-05-01T06:45:35.35Z</time></trkpt><trkpt lat="46.863825" lon="11.357723233333335"><ele>1576.0</ele><time>2026-05-01T06:45:36.345Z</time></trkpt><trkpt lat="46.86381968333333" lon="11.357520933333333"><ele>1577.0</ele><time>2026-05-01T06:45:37.375Z</time></trkpt><trkpt lat="46.86380343333334" lon="11.357319883333332"><ele>1578.0</ele><time>2026-05-01T06:45:38.355Z</time></trkpt><trkpt lat="46.86379291167756" lon="11.35711765952082"><ele>1579.0</ele><time>2026-05-01T06:45:39.355Z</time></trkpt><trkpt lat="46.86376015839319" lon="11.356929737194267"><ele>1580.0</ele><time>2026-05-01T06:45:40.342Z</time></trkpt><trkpt lat="46.86372398086044" lon="11.356748030317958"><ele>1581.0</ele><time>2026-05-01T06:45:41.362Z</time></trkpt><trkpt lat="46.8636822067257" lon="11.356571369380468"><ele>1582.0</ele><time>2026-05-01T06:45:42.341Z</time></trkpt><trkpt lat="46.863632888234406" lon="11.356399086061193"><ele>1583.0</ele><time>2026-05-01T06:45:43.353Z</time></trkpt><trkpt lat="46.863577287029315" lon="11.356234430648186"><ele>1584.0</ele><time>2026-05-01T06:45:44.349Z</time></trkpt><trkpt lat="46.86351086863192" lon="11.356083777370472"><ele>1590.5</ele><time>2026-05-01T06:45:45.344Z</time></trkpt><trkpt lat="46.863420457863384" lon="11.355937873189685"><ele>1597.0</ele><time>2026-05-01T06:45:46.354Z</time></trkpt><trkpt lat="46.86331960791288" lon="11.355823251043166"><ele>1603.5</ele><time>2026-05-01T06:45:47.354Z</time></trkpt><trkpt lat="46.86323992086654" lon="11.355716827812556"><ele>1610.0</ele><time>2026-05-01T06:45:48.342Z</time></trkpt><trkpt lat="46.863181289475676" lon="11.355583805713756"><ele>1610.25</ele><time>2026-05-01T06:45:49.344Z</time></trkpt><trkpt lat="46.86313862158977" lon="11.355416566734572"><ele>1610.5</ele><time>2026-05-01T06:45:50.36Z</time></trkpt><trkpt lat="46.86310011969058" lon="11.35523677245316"><ele>1610.75</ele><time>2026-05-01T06:45:51.341Z</time></trkpt><trkpt lat="46.863061861679604" lon="11.355059320436752"><ele>1611.0</ele><time>2026-05-01T06:45:52.353Z</time></trkpt><trkpt lat="46.86302644851195" lon="11.354900527396016"><ele>1611.0</ele><time>2026-05-01T06:45:53.349Z</time></trkpt><trkpt lat="46.86299094491565" lon="11.354745873607335"><ele>1611.0</ele><time>2026-05-01T06:45:54.344Z</time></trkpt><trkpt lat="46.86294983253386" lon="11.354588892410678"><ele>1611.0</ele><time>2026-05-01T06:45:55.353Z</time></trkpt><trkpt lat="46.86289550517172" lon="11.354437804826711"><ele>1611.0</ele><time>2026-05-01T06:45:56.349Z</time></trkpt><trkpt lat="46.86282333753315" lon="11.35430583949863"><ele>1610.4</ele><time>2026-05-01T06:45:57.342Z</time></trkpt><trkpt lat="46.8627356306362" lon="11.354210596783851"><ele>1609.8</ele><time>2026-05-01T06:45:58.353Z</time></trkpt><trkpt lat="46.86264005236989" lon="11.354149391914873"><ele>1609.2</ele><time>2026-05-01T06:45:59.356Z</time></trkpt><trkpt lat="46.86253851322668" lon="11.354109318800697"><ele>1608.6000000000001</ele><time>2026-05-01T06:46:00.342Z</time></trkpt><trkpt lat="46.86243196114519" lon="11.35409404382658"><ele>1608.0</ele><time>2026-05-01T06:46:01.349Z</time></trkpt><trkpt lat="46.862319549999995" lon="11.3540689"><ele>1608.0</ele><time>2026-05-01T06:46:02.364Z</time></trkpt><trkpt lat="46.86222568333333" lon="11.353983366666666"><ele>1608.0</ele><time>2026-05-01T06:46:03.362Z</time></trkpt><trkpt lat="46.86213854999999" lon="11.353877666666666"><ele>1608.0</ele><time>2026-05-01T06:46:04.352Z</time></trkpt><trkpt lat="46.8620585" lon="11.353761566666666"><ele>1608.0</ele><time>2026-05-01T06:46:05.349Z</time></trkpt><trkpt lat="46.86198263333334" lon="11.353637099999998"><ele>1608.0</ele><time>2026-05-01T06:46:06.363Z</time></trkpt><trkpt lat="46.86192062615498" lon="11.353501713921236"><ele>1608.0</ele><time>2026-05-01T06:46:07.349Z</time></trkpt><trkpt lat="46.8618362" lon="11.35339565"><ele>1608.0</ele><time>2026-05-01T06:46:08.355Z</time></trkpt><trkpt lat="46.861768" lon="11.3532662"><ele>1608.0</ele><time>2026-05-01T06:46:09.363Z</time></trkpt><trkpt lat="46.861709616666666" lon="11.3531337"><ele>1608.0</ele><time>2026-05-01T06:46:10.347Z</time></trkpt><trkpt lat="46.861669500000005" lon="11.352990199999999"><ele>1615.75</ele><time>2026-05-01T06:46:11.365Z</time></trkpt><trkpt lat="46.86164756666667" lon="11.35283176666667"><ele>1623.5</ele><time>2026-05-01T06:46:12.354Z</time></trkpt><trkpt lat="46.86164378333333" lon="11.352656766666666"><ele>1631.25</ele><time>2026-05-01T06:46:13.345Z</time></trkpt><trkpt lat="46.861653733333334" lon="11.352459216666666"><ele>1639.0</ele><time>2026-05-01T06:46:14.348Z</time></trkpt><trkpt lat="46.86166913333333" lon="11.3522602"><ele>1641.75</ele><time>2026-05-01T06:46:15.349Z</time></trkpt><trkpt lat="46.86168671666666" lon="11.352074899999998"><ele>1644.5</ele><time>2026-05-01T06:46:16.347Z</time></trkpt><trkpt lat="46.861706683333324" lon="11.351889916666668"><ele>1647.25</ele><time>2026-05-01T06:46:17.359Z</time></trkpt><trkpt lat="46.8617252" lon="11.351710449999999"><ele>1650.0</ele><time>2026-05-01T06:46:18.343Z</time></trkpt><trkpt lat="46.86174288333333" lon="11.351540766666668"><ele>1650.0</ele><time>2026-05-01T06:46:19.347Z</time></trkpt><trkpt lat="46.86175821666667" lon="11.351371866666666"><ele>1650.0</ele><time>2026-05-01T06:46:20.361Z</time></trkpt><trkpt lat="46.8617707" lon="11.351200649999997"><ele>1650.0</ele><time>2026-05-01T06:46:21.355Z</time></trkpt><trkpt lat="46.86177995" lon="11.35103435"><ele>1650.0</ele><time>2026-05-01T06:46:22.346Z</time></trkpt><trkpt lat="46.861777849999996" lon="11.350874600000001"><ele>1650.0</ele><time>2026-05-01T06:46:23.359Z</time></trkpt><trkpt lat="46.86176523333334" lon="11.35073065"><ele>1650.0</ele><time>2026-05-01T06:46:24.34Z</time></trkpt><trkpt lat="46.861751816666676" lon="11.350609283333332"><ele>1650.0</ele><time>2026-05-01T06:46:25.345Z</time></trkpt><trkpt lat="46.861746499999995" lon="11.350507000000002"><ele>1650.0</ele><time>2026-05-01T06:46:26.349Z</time></trkpt><trkpt lat="46.86175138333333" lon="11.350335233333332"><ele>1650.0</ele><time>2026-05-01T06:46:28.347Z</time></trkpt><trkpt lat="46.86169718333334" lon="11.350197266666665"><ele>1648.6</ele><time>2026-05-01T06:46:30.342Z</time></trkpt><trkpt lat="46.861627743205744" lon="11.350095832651443"><ele>1647.2</ele><time>2026-05-01T06:46:31.352Z</time></trkpt><trkpt lat="46.86155626242697" lon="11.350135502697396"><ele>1645.8000000000002</ele><time>2026-05-01T06:46:32.359Z</time></trkpt><trkpt lat="46.86150428536253" lon="11.350242337194524"><ele>1644.4</ele><time>2026-05-01T06:46:33.353Z</time></trkpt><trkpt lat="46.86150855883373" lon="11.350394172949056"><ele>1643.0</ele><time>2026-05-01T06:46:34.351Z</time></trkpt><trkpt lat="46.86156411594663" lon="11.350493061063236"><ele>1644.1666666666665</ele><time>2026-05-01T06:46:35.359Z</time></trkpt><trkpt lat="46.86158794690829" lon="11.35058859738688"><ele>1645.3333333333333</ele><time>2026-05-01T06:46:36.363Z</time></trkpt><trkpt lat="46.86159255342184" lon="11.35070422923084"><ele>1646.5</ele><time>2026-05-01T06:46:37.347Z</time></trkpt><trkpt lat="46.86158990041456" lon="11.350831479531983"><ele>1647.6666666666665</ele><time>2026-05-01T06:46:38.36Z</time></trkpt><trkpt lat="46.8615680237725" lon="11.35097023087005"><ele>1648.8333333333333</ele><time>2026-05-01T06:46:39.355Z</time></trkpt><trkpt lat="46.86152420234966" lon="11.35112324265056"><ele>1650.0</ele><time>2026-05-01T06:46:40.348Z</time></trkpt><trkpt lat="46.861461460618656" lon="11.351295450618531"><ele>1650.0</ele><time>2026-05-01T06:46:41.375Z</time></trkpt><trkpt lat="46.86137325775177" lon="11.351495066091514"><ele>1650.0</ele><time>2026-05-01T06:46:42.358Z</time></trkpt><trkpt lat="46.86126539749793" lon="11.351748835699418"><ele>1650.0</ele><time>2026-05-01T06:46:43.358Z</time></trkpt><trkpt lat="46.86115846170273" lon="11.352035724149955"><ele>1646.3333333333335</ele><time>2026-05-01T06:46:44.35Z</time></trkpt><trkpt lat="46.86108633856332" lon="11.352342994305756"><ele>1642.6666666666667</ele><time>2026-05-01T06:46:45.342Z</time></trkpt><trkpt lat="46.861055369065475" lon="11.352659589488507"><ele>1639.0</ele><time>2026-05-01T06:46:46.349Z</time></trkpt><trkpt lat="46.861058986935944" lon="11.352986518661893"><ele>1638.5</ele><time>2026-05-01T06:46:47.348Z</time></trkpt><trkpt lat="46.8610834186525" lon="11.35331029199662"><ele>1638.0</ele><time>2026-05-01T06:46:48.34Z</time></trkpt><trkpt lat="46.861109874632845" lon="11.353643828329421"><ele>1642.0</ele><time>2026-05-01T06:46:49.347Z</time></trkpt><trkpt lat="46.86111280632038" lon="11.353993219300635"><ele>1646.0</ele><time>2026-05-01T06:46:50.353Z</time></trkpt><trkpt lat="46.86109959749641" lon="11.354366092730675"><ele>1649.0</ele><time>2026-05-01T06:46:51.354Z</time></trkpt><trkpt lat="46.861062123559456" lon="11.354765441101584"><ele>1652.0</ele><time>2026-05-01T06:46:52.347Z</time></trkpt><trkpt lat="46.86100790602451" lon="11.35519155741137"><ele>1671.5</ele><time>2026-05-01T06:46:53.343Z</time></trkpt><trkpt lat="46.86094490000001" lon="11.355634366666667"><ele>1691.0</ele><time>2026-05-01T06:46:54.363Z</time></trkpt><trkpt lat="46.86086691666666" lon="11.356057749999998"><ele>1690.5</ele><time>2026-05-01T06:46:55.347Z</time></trkpt><trkpt lat="46.86080171666668" lon="11.356450816666664"><ele>1690.0</ele><time>2026-05-01T06:46:56.358Z</time></trkpt><trkpt lat="46.86076706666666" lon="11.356817750000001"><ele>1690.0</ele><time>2026-05-01T06:46:57.342Z</time></trkpt><trkpt lat="46.860765266666675" lon="11.357171333333334"><ele>1690.0</ele><time>2026-05-01T06:46:58.347Z</time></trkpt><trkpt lat="46.86079108333333" lon="11.357522100000002"><ele>1692.5</ele><time>2026-05-01T06:46:59.349Z</time></trkpt><trkpt lat="46.860833983333336" lon="11.357869149999999"><ele>1695.0</ele><time>2026-05-01T06:47:00.354Z</time></trkpt><trkpt lat="46.86088876666666" lon="11.358214616666665"><ele>1697.3333333333335</ele><time>2026-05-01T06:47:01.349Z</time></trkpt><trkpt lat="46.860938850000004" lon="11.358540916666668"><ele>1699.6666666666667</ele><time>2026-05-01T06:47:02.349Z</time></trkpt><trkpt lat="46.86098975" lon="11.3588302"><ele>1702.0</ele><time>2026-05-01T06:47:03.359Z</time></trkpt><trkpt lat="46.861045749999995" lon="11.359071016666668"><ele>1696.0</ele><time>2026-05-01T06:47:04.345Z</time></trkpt><trkpt lat="46.86108173333334" lon="11.35928125"><ele>1690.0</ele><time>2026-05-01T06:47:05.352Z</time></trkpt><trkpt lat="46.86107808333333" lon="11.359494616666666"><ele>1684.0</ele><time>2026-05-01T06:47:06.341Z</time></trkpt><trkpt lat="46.861039600000005" lon="11.359704166666665"><ele>1678.0</ele><time>2026-05-01T06:47:07.35Z</time></trkpt><trkpt lat="46.86096238333332" lon="11.359879516666668"><ele>1687.0</ele><time>2026-05-01T06:47:08.35Z</time></trkpt><trkpt lat="46.860841650000005" lon="11.360018666666669"><ele>1696.0</ele><time>2026-05-01T06:47:09.359Z</time></trkpt><trkpt lat="46.86068395" lon="11.360136900000002"><ele>1705.0</ele><time>2026-05-01T06:47:10.348Z</time></trkpt><trkpt lat="46.860517349999995" lon="11.360233899999999"><ele>1705.0</ele><time>2026-05-01T06:47:11.349Z</time></trkpt><trkpt lat="46.86037726666667" lon="11.360335016666665"><ele>1705.0</ele><time>2026-05-01T06:47:12.363Z</time></trkpt><trkpt lat="46.860268766666664" lon="11.360447666666667"><ele>1705.0</ele><time>2026-05-01T06:47:13.347Z</time></trkpt><trkpt lat="46.860179963558544" lon="11.36051827775913"><ele>1705.0</ele><time>2026-05-01T06:47:14.359Z</time></trkpt><trkpt lat="46.86012153333333" lon="11.360567016666668"><ele>1705.0</ele><time>2026-05-01T06:47:15.355Z</time></trkpt><trkpt lat="46.86003045000001" lon="11.360466916666667"><ele>1705.0</ele><time>2026-05-01T06:47:17.354Z</time></trkpt><trkpt lat="46.86010066666666" lon="11.360313983333333"><ele>1705.0</ele><time>2026-05-01T06:47:19.353Z</time></trkpt><trkpt lat="46.8602252335098" lon="11.360267755306198"><ele>1705.0</ele><time>2026-05-01T06:47:20.35Z</time></trkpt><trkpt lat="46.86034925796212" lon="11.36012021741978"><ele>1705.0</ele><time>2026-05-01T06:47:21.355Z</time></trkpt><trkpt lat="46.86045773709884" lon="11.359925488088155"><ele>1705.0</ele><time>2026-05-01T06:47:22.349Z</time></trkpt><trkpt lat="46.86053889837409" lon="11.359707189017996"><ele>1705.0</ele><time>2026-05-01T06:47:23.35Z</time></trkpt><trkpt lat="46.86058027080727" lon="11.359496520380924"><ele>1705.6666666666667</ele><time>2026-05-01T06:47:24.355Z</time></trkpt><trkpt lat="46.860573264023714" lon="11.359261676935866"><ele>1706.3333333333335</ele><time>2026-05-01T06:47:25.347Z</time></trkpt><trkpt lat="46.86049969678429" lon="11.359039553024768"><ele>1707.0</ele><time>2026-05-01T06:47:26.349Z</time></trkpt><trkpt lat="46.860386298049406" lon="11.358845414531842"><ele>1705.3333333333335</ele><time>2026-05-01T06:47:27.354Z</time></trkpt><trkpt lat="46.86025124999999" lon="11.358637050000002"><ele>1703.6666666666667</ele><time>2026-05-01T06:47:28.353Z</time></trkpt><trkpt lat="46.86013293333334" lon="11.358360833333332"><ele>1702.0</ele><time>2026-05-01T06:47:29.351Z</time></trkpt><trkpt lat="46.86005766415464" lon="11.35801879963808"><ele>1718.0</ele><time>2026-05-01T06:47:30.362Z</time></trkpt><trkpt lat="46.85997921613676" lon="11.357637232594197"><ele>1734.0</ele><time>2026-05-01T06:47:31.347Z</time></trkpt><trkpt lat="46.859888775287786" lon="11.357242268385503"><ele>1733.0</ele><time>2026-05-01T06:47:32.351Z</time></trkpt><trkpt lat="46.85980084812751" lon="11.356850897422747"><ele>1732.0</ele><time>2026-05-01T06:47:33.343Z</time></trkpt><trkpt lat="46.85969939639477" lon="11.35650879105273"><ele>1732.6666666666667</ele><time>2026-05-01T06:47:34.349Z</time></trkpt><trkpt lat="46.8595927999274" lon="11.356222599986525"><ele>1733.3333333333335</ele><time>2026-05-01T06:47:35.35Z</time></trkpt><trkpt lat="46.859535717115925" lon="11.355962174556662"><ele>1734.0</ele><time>2026-05-01T06:47:36.354Z</time></trkpt><trkpt lat="46.85955197642179" lon="11.355673252685184"><ele>1733.0</ele><time>2026-05-01T06:47:37.348Z</time></trkpt><trkpt lat="46.859564496553425" lon="11.355360161267638"><ele>1732.0</ele><time>2026-05-01T06:47:38.363Z</time></trkpt><trkpt lat="46.85950894874818" lon="11.355021322270206"><ele>1732.0</ele><time>2026-05-01T06:47:39.355Z</time></trkpt><trkpt lat="46.85948134881803" lon="11.354705020064221"><ele>1732.0</ele><time>2026-05-01T06:47:40.346Z</time></trkpt><trkpt lat="46.85946384109593" lon="11.35437496556694"><ele>1732.0</ele><time>2026-05-01T06:47:41.355Z</time></trkpt><trkpt lat="46.85935803422326" lon="11.354081670169254"><ele>1730.0</ele><time>2026-05-01T06:47:42.363Z</time></trkpt><trkpt lat="46.859292893218445" lon="11.3537633813868"><ele>1728.0</ele><time>2026-05-01T06:47:43.347Z</time></trkpt><trkpt lat="46.859248007940636" lon="11.353412587586638"><ele>1745.0</ele><time>2026-05-01T06:47:44.349Z</time></trkpt><trkpt lat="46.85920300771159" lon="11.353045331223148"><ele>1762.0</ele><time>2026-05-01T06:47:45.374Z</time></trkpt><trkpt lat="46.85915892001977" lon="11.352674995349485"><ele>1762.0</ele><time>2026-05-01T06:47:46.348Z</time></trkpt><trkpt lat="46.85911871355574" lon="11.352323205093613"><ele>1762.0</ele><time>2026-05-01T06:47:47.365Z</time></trkpt><trkpt lat="46.85908480229014" lon="11.351997392219763"><ele>1762.0</ele><time>2026-05-01T06:47:48.354Z</time></trkpt><trkpt lat="46.85905895747362" lon="11.351705545669219"><ele>1762.0</ele><time>2026-05-01T06:47:49.347Z</time></trkpt><trkpt lat="46.859037871927015" lon="11.351430675512747"><ele>1762.0</ele><time>2026-05-01T06:47:50.35Z</time></trkpt><trkpt lat="46.85897960495247" lon="11.351161712860144"><ele>1762.0</ele><time>2026-05-01T06:47:51.342Z</time></trkpt><trkpt lat="46.858882949999995" lon="11.350928733333335"><ele>1762.0</ele><time>2026-05-01T06:47:52.346Z</time></trkpt><trkpt lat="46.858818549758155" lon="11.350696891777906"><ele>1762.0</ele><time>2026-05-01T06:47:53.348Z</time></trkpt><trkpt lat="46.858730385423755" lon="11.350490548451914"><ele>1759.0</ele><time>2026-05-01T06:47:54.354Z</time></trkpt><trkpt lat="46.858614081237896" lon="11.350337727960156"><ele>1756.0</ele><time>2026-05-01T06:47:55.349Z</time></trkpt><trkpt lat="46.85849143333333" lon="11.350221766666667"><ele>1753.0</ele><time>2026-05-01T06:47:56.359Z</time></trkpt><trkpt lat="46.8584126" lon="11.350029616666665"><ele>1759.0</ele><time>2026-05-01T06:47:57.363Z</time></trkpt><trkpt lat="46.85835081666668" lon="11.349807433333336"><ele>1765.0</ele><time>2026-05-01T06:47:58.346Z</time></trkpt><trkpt lat="46.85829015301121" lon="11.349567910129268"><ele>1771.0</ele><time>2026-05-01T06:47:59.349Z</time></trkpt><trkpt lat="46.85817678333333" lon="11.349337883333332"><ele>1771.0</ele><time>2026-05-01T06:48:00.346Z</time></trkpt><trkpt lat="46.85805948333333" lon="11.349082033333332"><ele>1771.0</ele><time>2026-05-01T06:48:01.347Z</time></trkpt><trkpt lat="46.85792378333334" lon="11.348825533333335"><ele>1771.0</ele><time>2026-05-01T06:48:02.344Z</time></trkpt><trkpt lat="46.85778798333334" lon="11.348574699999999"><ele>1770.3333333333335</ele><time>2026-05-01T06:48:03.349Z</time></trkpt><trkpt lat="46.8576708" lon="11.348352716666666"><ele>1769.6666666666665</ele><time>2026-05-01T06:48:04.347Z</time></trkpt><trkpt lat="46.85758631666666" lon="11.348144866666667"><ele>1769.0</ele><time>2026-05-01T06:48:05.357Z</time></trkpt><trkpt lat="46.8575268" lon="11.347918366666667"><ele>1776.0</ele><time>2026-05-01T06:48:06.356Z</time></trkpt><trkpt lat="46.857483116666664" lon="11.3476639"><ele>1783.0</ele><time>2026-05-01T06:48:07.346Z</time></trkpt><trkpt lat="46.85745023333334" lon="11.347394883333333"><ele>1790.0</ele><time>2026-05-01T06:48:08.358Z</time></trkpt><trkpt lat="46.85740743333334" lon="11.347110333333335"><ele>1791.0</ele><time>2026-05-01T06:48:09.353Z</time></trkpt><trkpt lat="46.857359849999995" lon="11.346829433333335"><ele>1792.0</ele><time>2026-05-01T06:48:10.349Z</time></trkpt><trkpt lat="46.85732061666666" lon="11.346574466666668"><ele>1793.0</ele><time>2026-05-01T06:48:11.349Z</time></trkpt><trkpt lat="46.85727136666666" lon="11.34632825"><ele>1793.0</ele><time>2026-05-01T06:48:12.354Z</time></trkpt><trkpt lat="46.85719211666666" lon="11.346083199999997"><ele>1793.0</ele><time>2026-05-01T06:48:13.353Z</time></trkpt><trkpt lat="46.85708788333333" lon="11.345833766666665"><ele>1793.0</ele><time>2026-05-01T06:48:14.343Z</time></trkpt><trkpt lat="46.85696601666667" lon="11.345576283333333"><ele>1792.3333333333333</ele><time>2026-05-01T06:48:15.354Z</time></trkpt><trkpt lat="46.85684426666667" lon="11.345315049999998"><ele>1791.6666666666665</ele><time>2026-05-01T06:48:16.354Z</time></trkpt><trkpt lat="46.85673336666667" lon="11.345066883333333"><ele>1791.0</ele><time>2026-05-01T06:48:17.362Z</time></trkpt><trkpt lat="46.85663533333333" lon="11.3448432"><ele>1796.6666666666665</ele><time>2026-05-01T06:48:18.354Z</time></trkpt><trkpt lat="46.85655315" lon="11.344620866666666"><ele>1802.3333333333333</ele><time>2026-05-01T06:48:19.359Z</time></trkpt><trkpt lat="46.85649803333334" lon="11.34437495"><ele>1808.0</ele><time>2026-05-01T06:48:20.35Z</time></trkpt><trkpt lat="46.8564653" lon="11.344115666666667"><ele>1808.0</ele><time>2026-05-01T06:48:21.359Z</time></trkpt><trkpt lat="46.85642903333334" lon="11.343836083333333"><ele>1808.0</ele><time>2026-05-01T06:48:22.346Z</time></trkpt><trkpt lat="46.8563872" lon="11.343537683333333"><ele>1808.0</ele><time>2026-05-01T06:48:23.348Z</time></trkpt><trkpt lat="46.856346183333336" lon="11.343235916666666"><ele>1808.3333333333333</ele><time>2026-05-01T06:48:24.356Z</time></trkpt><trkpt lat="46.85630961666667" lon="11.342947866666668"><ele>1808.6666666666665</ele><time>2026-05-01T06:48:25.347Z</time></trkpt><trkpt lat="46.856283983333334" lon="11.342690133333335"><ele>1809.0</ele><time>2026-05-01T06:48:26.346Z</time></trkpt><trkpt lat="46.85627045" lon="11.3424542"><ele>1809.0</ele><time>2026-05-01T06:48:27.354Z</time></trkpt><trkpt lat="46.85625621666666" lon="11.342233700000001"><ele>1809.0</ele><time>2026-05-01T06:48:28.347Z</time></trkpt><trkpt lat="46.85621763333334" lon="11.34204041666667"><ele>1809.0</ele><time>2026-05-01T06:48:29.35Z</time></trkpt><trkpt lat="46.85614343333333" lon="11.341882316666666"><ele>1809.0</ele><time>2026-05-01T06:48:30.35Z</time></trkpt><trkpt lat="46.856042333333335" lon="11.341770216666664"><ele>1812.0</ele><time>2026-05-01T06:48:31.345Z</time></trkpt><trkpt lat="46.85592278333334" lon="11.341678246329181"><ele>1815.0</ele><time>2026-05-01T06:48:32.349Z</time></trkpt><trkpt lat="46.855784100354825" lon="11.341692453169012"><ele>1818.0</ele><time>2026-05-01T06:48:33.343Z</time></trkpt><trkpt lat="46.85564086350376" lon="11.341741902349192"><ele>1821.0</ele><time>2026-05-01T06:48:34.349Z</time></trkpt><trkpt lat="46.855497013428014" lon="11.341801309431126"><ele>1821.0</ele><time>2026-05-01T06:48:35.363Z</time></trkpt><trkpt lat="46.855332098218156" lon="11.34182738518521"><ele>1821.0</ele><time>2026-05-01T06:48:36.353Z</time></trkpt><trkpt lat="46.85515940365764" lon="11.341792425460323"><ele>1821.0</ele><time>2026-05-01T06:48:37.352Z</time></trkpt><trkpt lat="46.854969200781575" lon="11.341725450279526"><ele>1825.6666666666665</ele><time>2026-05-01T06:48:38.35Z</time></trkpt><trkpt lat="46.854761670696796" lon="11.341643458045285"><ele>1830.3333333333333</ele><time>2026-05-01T06:48:39.354Z</time></trkpt><trkpt lat="46.85454262869375" lon="11.341544648463746"><ele>1835.0</ele><time>2026-05-01T06:48:40.348Z</time></trkpt><trkpt lat="46.85432756785407" lon="11.341433502937612"><ele>1836.3333333333333</ele><time>2026-05-01T06:48:41.349Z</time></trkpt><trkpt lat="46.85413484384569" lon="11.341291601381718"><ele>1837.6666666666665</ele><time>2026-05-01T06:48:42.355Z</time></trkpt><trkpt lat="46.853952314132606" lon="11.341133256741818"><ele>1839.0</ele><time>2026-05-01T06:48:43.346Z</time></trkpt><trkpt lat="46.85377132201955" lon="11.340970825346112"><ele>1839.0</ele><time>2026-05-01T06:48:44.36Z</time></trkpt><trkpt lat="46.85359317817044" lon="11.340811202721373"><ele>1839.0</ele><time>2026-05-01T06:48:45.357Z</time></trkpt><trkpt lat="46.853423669237735" lon="11.340644975269562"><ele>1839.0</ele><time>2026-05-01T06:48:46.348Z</time></trkpt><trkpt lat="46.85326854029564" lon="11.340456986192928"><ele>1841.3333333333335</ele><time>2026-05-01T06:48:47.352Z</time></trkpt><trkpt lat="46.85311649401596" lon="11.340247950603828"><ele>1843.6666666666667</ele><time>2026-05-01T06:48:48.354Z</time></trkpt><trkpt lat="46.852964324739176" lon="11.34003161627904"><ele>1846.0</ele><time>2026-05-01T06:48:49.345Z</time></trkpt><trkpt lat="46.85281336785756" lon="11.339810945373976"><ele>1842.3333333333335</ele><time>2026-05-01T06:48:50.356Z</time></trkpt><trkpt lat="46.852663820436945" lon="11.33959200187399"><ele>1838.6666666666665</ele><time>2026-05-01T06:48:51.354Z</time></trkpt><trkpt lat="46.852524419664505" lon="11.339379503016222"><ele>1835.0</ele><time>2026-05-01T06:48:52.347Z</time></trkpt><trkpt lat="46.85239932816035" lon="11.339148042326764"><ele>1841.3333333333333</ele><time>2026-05-01T06:48:53.349Z</time></trkpt><trkpt lat="46.8522883243821" lon="11.338887031707035"><ele>1847.6666666666665</ele><time>2026-05-01T06:48:54.354Z</time></trkpt><trkpt lat="46.85219344267026" lon="11.338594071154889"><ele>1854.0</ele><time>2026-05-01T06:48:55.353Z</time></trkpt><trkpt lat="46.8520980477491" lon="11.338293746027057"><ele>1852.6666666666665</ele><time>2026-05-01T06:48:56.351Z</time></trkpt><trkpt lat="46.85198745334721" lon="11.33799626737102"><ele>1851.3333333333333</ele><time>2026-05-01T06:48:57.359Z</time></trkpt><trkpt lat="46.85187290448412" lon="11.337725675303759"><ele>1850.0</ele><time>2026-05-01T06:48:58.348Z</time></trkpt><trkpt lat="46.85176810999198" lon="11.337478563753331"><ele>1858.3333333333333</ele><time>2026-05-01T06:48:59.354Z</time></trkpt><trkpt lat="46.85167355169998" lon="11.337248963264601"><ele>1866.6666666666665</ele><time>2026-05-01T06:49:00.358Z</time></trkpt><trkpt lat="46.85159502683617" lon="11.337015545724865"><ele>1875.0</ele><time>2026-05-01T06:49:01.346Z</time></trkpt><trkpt lat="46.85154737702566" lon="11.336750655682897"><ele>1875.0</ele><time>2026-05-01T06:49:02.349Z</time></trkpt><trkpt lat="46.85151315264704" lon="11.336472791093101"><ele>1875.0</ele><time>2026-05-01T06:49:03.36Z</time></trkpt><trkpt lat="46.851483339721085" lon="11.336217288379807"><ele>1875.0</ele><time>2026-05-01T06:49:04.352Z</time></trkpt><trkpt lat="46.85145661486574" lon="11.335984687968786"><ele>1876.5</ele><time>2026-05-01T06:49:05.35Z</time></trkpt><trkpt lat="46.85142550000001" lon="11.335771083333336"><ele>1878.0</ele><time>2026-05-01T06:49:06.354Z</time></trkpt><trkpt lat="46.851445049999995" lon="11.33556445"><ele>1879.5</ele><time>2026-05-01T06:49:07.353Z</time></trkpt><trkpt lat="46.85150215" lon="11.335376816666667"><ele>1881.0</ele><time>2026-05-01T06:49:08.349Z</time></trkpt><trkpt lat="46.85157976666666" lon="11.3352033"><ele>1881.75</ele><time>2026-05-01T06:49:09.346Z</time></trkpt><trkpt lat="46.85163268333334" lon="11.335033700000002"><ele>1882.5</ele><time>2026-05-01T06:49:10.348Z</time></trkpt><trkpt lat="46.851643749999994" lon="11.334859366666668"><ele>1883.25</ele><time>2026-05-01T06:49:11.359Z</time></trkpt><trkpt lat="46.85161586666666" lon="11.334685633333335"><ele>1884.0</ele><time>2026-05-01T06:49:12.365Z</time></trkpt><trkpt lat="46.85154708333333" lon="11.334522433333332"><ele>1881.3333333333335</ele><time>2026-05-01T06:49:13.347Z</time></trkpt><trkpt lat="46.85144351666666" lon="11.334378016666669"><ele>1878.6666666666667</ele><time>2026-05-01T06:49:14.364Z</time></trkpt><trkpt lat="46.8513181" lon="11.334244466666666"><ele>1876.0</ele><time>2026-05-01T06:49:15.355Z</time></trkpt><trkpt lat="46.851181833333335" lon="11.334121550000003"><ele>1876.0</ele><time>2026-05-01T06:49:16.348Z</time></trkpt><trkpt lat="46.8510387388732" lon="11.333986050088233"><ele>1876.0</ele><time>2026-05-01T06:49:17.35Z</time></trkpt><trkpt lat="46.85086724544602" lon="11.333890931658166"><ele>1876.0</ele><time>2026-05-01T06:49:18.367Z</time></trkpt><trkpt lat="46.850676857454594" lon="11.333822906604848"><ele>1876.0</ele><time>2026-05-01T06:49:19.346Z</time></trkpt><trkpt lat="46.85047754449861" lon="11.333766233894773"><ele>1876.0</ele><time>2026-05-01T06:49:20.356Z</time></trkpt><trkpt lat="46.85026860734555" lon="11.333723584511944"><ele>1876.0</ele><time>2026-05-01T06:49:21.363Z</time></trkpt><trkpt lat="46.85005104166408" lon="11.33368776355471"><ele>1880.0</ele><time>2026-05-01T06:49:22.346Z</time></trkpt><trkpt lat="46.849830225450056" lon="11.333650036328974"><ele>1884.0</ele><time>2026-05-01T06:49:23.366Z</time></trkpt><trkpt lat="46.84961058892116" lon="11.333591158242005"><ele>1888.0</ele><time>2026-05-01T06:49:24.356Z</time></trkpt><trkpt lat="46.84940734877239" lon="11.33352494616681"><ele>1895.3333333333335</ele><time>2026-05-01T06:49:25.354Z</time></trkpt><trkpt lat="46.8492250194103" lon="11.333455794770103"><ele>1902.6666666666665</ele><time>2026-05-01T06:49:26.36Z</time></trkpt><trkpt lat="46.849069022236485" lon="11.33338447910404"><ele>1910.0</ele><time>2026-05-01T06:49:27.343Z</time></trkpt><trkpt lat="46.84893261666666" lon="11.333288783333334"><ele>1910.0</ele><time>2026-05-01T06:49:28.346Z</time></trkpt><trkpt lat="46.84883129999999" lon="11.333115466666667"><ele>1910.0</ele><time>2026-05-01T06:49:29.349Z</time></trkpt><trkpt lat="46.848750933333335" lon="11.332920516666665"><ele>1910.0</ele><time>2026-05-01T06:49:30.341Z</time></trkpt><trkpt lat="46.84869888036988" lon="11.332721034631415"><ele>1911.3333333333333</ele><time>2026-05-01T06:49:31.346Z</time></trkpt><trkpt lat="46.848596886540754" lon="11.332561063785102"><ele>1912.6666666666665</ele><time>2026-05-01T06:49:32.358Z</time></trkpt><trkpt lat="46.84845347304986" lon="11.332456621623434"><ele>1914.0</ele><time>2026-05-01T06:49:33.36Z</time></trkpt><trkpt lat="46.84828348517755" lon="11.33240968105578"><ele>1914.0</ele><time>2026-05-01T06:49:34.348Z</time></trkpt><trkpt lat="46.84809050139821" lon="11.33238462859964"><ele>1914.0</ele><time>2026-05-01T06:49:35.353Z</time></trkpt><trkpt lat="46.8478955534748" lon="11.33238265219739"><ele>1914.0</ele><time>2026-05-01T06:49:36.342Z</time></trkpt><trkpt lat="46.847718116481865" lon="11.3323924461896"><ele>1919.6666666666665</ele><time>2026-05-01T06:49:37.348Z</time></trkpt><trkpt lat="46.84756322653992" lon="11.332399095933754"><ele>1925.3333333333333</ele><time>2026-05-01T06:49:38.349Z</time></trkpt><trkpt lat="46.84741193395649" lon="11.332377553608184"><ele>1931.0</ele><time>2026-05-01T06:49:39.363Z</time></trkpt><trkpt lat="46.84726021666667" lon="11.332311283333334"><ele>1925.6666666666665</ele><time>2026-05-01T06:49:40.348Z</time></trkpt><trkpt lat="46.847140766666676" lon="11.332148749999998"><ele>1920.3333333333335</ele><time>2026-05-01T06:49:41.357Z</time></trkpt><trkpt lat="46.8470476413323" lon="11.331924505897954"><ele>1915.0</ele><time>2026-05-01T06:49:42.342Z</time></trkpt><trkpt lat="46.84694151345344" lon="11.331690150977197"><ele>1915.0</ele><time>2026-05-01T06:49:43.353Z</time></trkpt><trkpt lat="46.8468324297645" lon="11.331448301994644"><ele>1915.0</ele><time>2026-05-01T06:49:44.35Z</time></trkpt><trkpt lat="46.84670628333333" lon="11.331212016666667"><ele>1915.0</ele><time>2026-05-01T06:49:45.355Z</time></trkpt><trkpt lat="46.846619773643305" lon="11.330956390556693"><ele>1917.0</ele><time>2026-05-01T06:49:46.346Z</time></trkpt><trkpt lat="46.84652104038576" lon="11.330722472808635"><ele>1919.0</ele><time>2026-05-01T06:49:47.359Z</time></trkpt><trkpt lat="46.84640796181474" lon="11.330516604093203"><ele>1921.0</ele><time>2026-05-01T06:49:48.363Z</time></trkpt><trkpt lat="46.84626402272931" lon="11.330340409730647"><ele>1921.0</ele><time>2026-05-01T06:49:49.348Z</time></trkpt><trkpt lat="46.84610058267365" lon="11.3302233559735"><ele>1921.0</ele><time>2026-05-01T06:49:50.343Z</time></trkpt><trkpt lat="46.845932833849055" lon="11.33010685711076"><ele>1921.0</ele><time>2026-05-01T06:49:51.365Z</time></trkpt><trkpt lat="46.84576660879107" lon="11.329970625152395"><ele>1926.3333333333335</ele><time>2026-05-01T06:49:52.347Z</time></trkpt><trkpt lat="46.84560308034492" lon="11.329832096787555"><ele>1931.6666666666665</ele><time>2026-05-01T06:49:53.376Z</time></trkpt><trkpt lat="46.84544542580032" lon="11.329697372673992"><ele>1937.0</ele><time>2026-05-01T06:49:54.356Z</time></trkpt><trkpt lat="46.845302587123555" lon="11.32956748769872"><ele>1937.0</ele><time>2026-05-01T06:49:55.369Z</time></trkpt><trkpt lat="46.84517306666667" lon="11.329425066666667"><ele>1937.0</ele><time>2026-05-01T06:49:56.36Z</time></trkpt><trkpt lat="46.84508843333332" lon="11.329212933333334"><ele>1937.0</ele><time>2026-05-01T06:49:57.341Z</time></trkpt><trkpt lat="46.84501231666666" lon="11.328970283333335"><ele>1943.3333333333333</ele><time>2026-05-01T06:49:58.346Z</time></trkpt><trkpt lat="46.84492851666667" lon="11.328717616666665"><ele>1949.6666666666665</ele><time>2026-05-01T06:49:59.348Z</time></trkpt><trkpt lat="46.844844816666665" lon="11.328473916666667"><ele>1956.0</ele><time>2026-05-01T06:50:00.344Z</time></trkpt><trkpt lat="46.84478089909535" lon="11.328241217609909"><ele>1953.3333333333335</ele><time>2026-05-01T06:50:01.35Z</time></trkpt><trkpt lat="46.84470333683257" lon="11.328039098062188"><ele>1950.6666666666667</ele><time>2026-05-01T06:50:02.358Z</time></trkpt><trkpt lat="46.84461093944958" lon="11.327860022344309"><ele>1948.0</ele><time>2026-05-01T06:50:03.354Z</time></trkpt><trkpt lat="46.844501312080055" lon="11.327694262941385"><ele>1948.0</ele><time>2026-05-01T06:50:04.348Z</time></trkpt><trkpt lat="46.844381127658146" lon="11.327525606647683"><ele>1948.0</ele><time>2026-05-01T06:50:05.353Z</time></trkpt><trkpt lat="46.84425513500746" lon="11.327346259368724"><ele>1948.0</ele><time>2026-05-01T06:50:06.363Z</time></trkpt><trkpt lat="46.84413314643051" lon="11.327162199099744"><ele>1954.3333333333335</ele><time>2026-05-01T06:50:07.346Z</time></trkpt><trkpt lat="46.84402672133557" lon="11.326964967441457"><ele>1960.6666666666665</ele><time>2026-05-01T06:50:08.359Z</time></trkpt><trkpt lat="46.84392736666667" lon="11.326759583333335"><ele>1967.0</ele><time>2026-05-01T06:50:09.354Z</time></trkpt><trkpt lat="46.843857449999994" lon="11.32654825"><ele>1966.5</ele><time>2026-05-01T06:50:10.348Z</time></trkpt><trkpt lat="46.843798633333336" lon="11.326360516666666"><ele>1966.0</ele><time>2026-05-01T06:50:11.352Z</time></trkpt><trkpt lat="46.843744866666675" lon="11.326196799999998"><ele>1965.5</ele><time>2026-05-01T06:50:12.354Z</time></trkpt><trkpt lat="46.84369935512199" lon="11.326055925833623"><ele>1965.0</ele><time>2026-05-01T06:50:13.346Z</time></trkpt><trkpt lat="46.843616464523556" lon="11.325964347719554"><ele>1965.0</ele><time>2026-05-01T06:50:14.35Z</time></trkpt><trkpt lat="46.843512696674075" lon="11.325970502691812"><ele>1965.0</ele><time>2026-05-01T06:50:15.343Z</time></trkpt><trkpt lat="46.84343814480655" lon="11.326086889646582"><ele>1965.0</ele><time>2026-05-01T06:50:16.348Z</time></trkpt><trkpt lat="46.84345445" lon="11.326234966666666"><ele>1965.0</ele><time>2026-05-01T06:50:17.349Z</time></trkpt><trkpt lat="46.843488799999996" lon="11.326388266666667"><ele>1965.0</ele><time>2026-05-01T06:50:18.355Z</time></trkpt><trkpt lat="46.8435451" lon="11.326560916666665"><ele>1965.5</ele><time>2026-05-01T06:50:19.348Z</time></trkpt><trkpt lat="46.84359861666667" lon="11.3267589"><ele>1966.0</ele><time>2026-05-01T06:50:20.36Z</time></trkpt><trkpt lat="46.8436425" lon="11.326962516666667"><ele>1966.5</ele><time>2026-05-01T06:50:21.343Z</time></trkpt><trkpt lat="46.84365928522681" lon="11.327150722506031"><ele>1967.0</ele><time>2026-05-01T06:50:22.348Z</time></trkpt><trkpt lat="46.84367212480858" lon="11.327294361278176"><ele>1967.0</ele><time>2026-05-01T06:50:23.359Z</time></trkpt><trkpt lat="46.84362610802089" lon="11.327412785064652"><ele>1966.9999999999998</ele><time>2026-05-01T06:50:25.348Z</time></trkpt><trkpt lat="46.843530583333326" lon="11.327360266666668"><ele>1966.9999999999998</ele><time>2026-05-01T06:50:27.354Z</time></trkpt><trkpt lat="46.84351016666666" lon="11.327232749999999"><ele>1967.0</ele><time>2026-05-01T06:50:28.348Z</time></trkpt><trkpt lat="46.84349381666666" lon="11.327072133333335"><ele>1967.0</ele><time>2026-05-01T06:50:29.359Z</time></trkpt><trkpt lat="46.843453849999996" lon="11.326896466666668"><ele>1972.3333333333333</ele><time>2026-05-01T06:50:30.364Z</time></trkpt><trkpt lat="46.84339109372019" lon="11.32669853817464"><ele>1977.6666666666665</ele><time>2026-05-01T06:50:31.356Z</time></trkpt><trkpt lat="46.84328084388644" lon="11.326522944561187"><ele>1983.0</ele><time>2026-05-01T06:50:32.36Z</time></trkpt><trkpt lat="46.843144249999995" lon="11.326373450000002"><ele>1983.0</ele><time>2026-05-01T06:50:33.354Z</time></trkpt><trkpt lat="46.843024283333335" lon="11.326191216666667"><ele>1983.0</ele><time>2026-05-01T06:50:34.351Z</time></trkpt><trkpt lat="46.84293241666666" lon="11.325974566666666"><ele>1983.0</ele><time>2026-05-01T06:50:35.349Z</time></trkpt><trkpt lat="46.84288346666667" lon="11.325725233333332"><ele>1984.0</ele><time>2026-05-01T06:50:36.356Z</time></trkpt><trkpt lat="46.84285463333334" lon="11.325456133333335"><ele>1985.0</ele><time>2026-05-01T06:50:37.346Z</time></trkpt><trkpt lat="46.84281053333334" lon="11.325186783333335"><ele>1986.0</ele><time>2026-05-01T06:50:38.354Z</time></trkpt><trkpt lat="46.84273858333333" lon="11.3249159"><ele>1986.6666666666665</ele><time>2026-05-01T06:50:39.354Z</time></trkpt><trkpt lat="46.842654666666675" lon="11.3246399"><ele>1987.3333333333333</ele><time>2026-05-01T06:50:40.354Z</time></trkpt><trkpt lat="46.842568316666664" lon="11.3243588"><ele>1988.0</ele><time>2026-05-01T06:50:41.359Z</time></trkpt><trkpt lat="46.84248756666666" lon="11.324074666666668"><ele>1995.3333333333333</ele><time>2026-05-01T06:50:42.363Z</time></trkpt><trkpt lat="46.84243073333334" lon="11.323790916666665"><ele>2002.6666666666665</ele><time>2026-05-01T06:50:43.346Z</time></trkpt><trkpt lat="46.84240965000001" lon="11.323496333333333"><ele>2010.0</ele><time>2026-05-01T06:50:44.351Z</time></trkpt><trkpt lat="46.84239633333333" lon="11.323205583333333"><ele>2012.0</ele><time>2026-05-01T06:50:45.34Z</time></trkpt><trkpt lat="46.84236078333333" lon="11.322927250000001"><ele>2014.0</ele><time>2026-05-01T06:50:46.347Z</time></trkpt><trkpt lat="46.842310433333324" lon="11.322663633333331"><ele>2016.0</ele><time>2026-05-01T06:50:47.35Z</time></trkpt><trkpt lat="46.84226715" lon="11.322424450000003"><ele>2015.75</ele><time>2026-05-01T06:50:48.363Z</time></trkpt><trkpt lat="46.84223211666668" lon="11.322208783333334"><ele>2015.5</ele><time>2026-05-01T06:50:49.348Z</time></trkpt><trkpt lat="46.842202283333336" lon="11.322005950000001"><ele>2015.25</ele><time>2026-05-01T06:50:50.365Z</time></trkpt><trkpt lat="46.84218295" lon="11.32181055"><ele>2015.0</ele><time>2026-05-01T06:50:51.354Z</time></trkpt><trkpt lat="46.84217113333334" lon="11.321635600000002"><ele>2015.0</ele><time>2026-05-01T06:50:52.347Z</time></trkpt><trkpt lat="46.842168066666666" lon="11.321475883333335"><ele>2015.0</ele><time>2026-05-01T06:50:53.352Z</time></trkpt><trkpt lat="46.842160766666666" lon="11.321325383333333"><ele>2015.0</ele><time>2026-05-01T06:50:54.341Z</time></trkpt><trkpt lat="46.842127916666676" lon="11.321202883333335"><ele>2015.0</ele><time>2026-05-01T06:50:55.346Z</time></trkpt><trkpt lat="46.84207761739041" lon="11.321095226327317"><ele>2015.0</ele><time>2026-05-01T06:50:56.35Z</time></trkpt><trkpt lat="46.84198420352586" lon="11.321034990630759"><ele>2016.0</ele><time>2026-05-01T06:50:57.378Z</time></trkpt><trkpt lat="46.84187698368863" lon="11.321081712687294"><ele>2017.0</ele><time>2026-05-01T06:50:58.347Z</time></trkpt><trkpt lat="46.841783819951445" lon="11.321205485062766"><ele>2018.0</ele><time>2026-05-01T06:50:59.366Z</time></trkpt><trkpt lat="46.84168818578756" lon="11.321330129262734"><ele>2019.0</ele><time>2026-05-01T06:51:00.342Z</time></trkpt><trkpt lat="46.84156653794147" lon="11.321431455022902"><ele>2024.6666666666665</ele><time>2026-05-01T06:51:01.373Z</time></trkpt><trkpt lat="46.841431437001376" lon="11.321543519374119"><ele>2030.3333333333333</ele><time>2026-05-01T06:51:02.345Z</time></trkpt><trkpt lat="46.841309703398395" lon="11.321704558083724"><ele>2036.0</ele><time>2026-05-01T06:51:03.34Z</time></trkpt><trkpt lat="46.841241482708526" lon="11.321920057346068"><ele>2036.0</ele><time>2026-05-01T06:51:04.346Z</time></trkpt><trkpt lat="46.84119786197042" lon="11.322119343202043"><ele>2036.0</ele><time>2026-05-01T06:51:05.352Z</time></trkpt><trkpt lat="46.84112898924868" lon="11.32229566624892"><ele>2036.0</ele><time>2026-05-01T06:51:06.356Z</time></trkpt><trkpt lat="46.84104885" lon="11.322463816666668"><ele>2036.0</ele><time>2026-05-01T06:51:07.348Z</time></trkpt><trkpt lat="46.84092255228953" lon="11.322555760622155"><ele>2039.3333333333333</ele><time>2026-05-01T06:51:08.361Z</time></trkpt><trkpt lat="46.84079441262981" lon="11.322651994430114"><ele>2042.6666666666665</ele><time>2026-05-01T06:51:09.364Z</time></trkpt><trkpt lat="46.84066276304326" lon="11.322752531026008"><ele>2046.0</ele><time>2026-05-01T06:51:10.348Z</time></trkpt><trkpt lat="46.84054206445403" lon="11.322905278718816"><ele>2045.6666666666665</ele><time>2026-05-01T06:51:11.349Z</time></trkpt><trkpt lat="46.84046019313157" lon="11.323092269769568"><ele>2045.3333333333333</ele><time>2026-05-01T06:51:12.342Z</time></trkpt><trkpt lat="46.84041864389725" lon="11.323309390701768"><ele>2045.0</ele><time>2026-05-01T06:51:13.347Z</time></trkpt><trkpt lat="46.840419778006286" lon="11.323536755577399"><ele>2045.0</ele><time>2026-05-01T06:51:14.351Z</time></trkpt><trkpt lat="46.84046208668522" lon="11.323764186167734"><ele>2045.0</ele><time>2026-05-01T06:51:15.363Z</time></trkpt><trkpt lat="46.84053545" lon="11.323971066666664"><ele>2045.0</ele><time>2026-05-01T06:51:16.347Z</time></trkpt><trkpt lat="46.84059143333334" lon="11.32419145"><ele>2047.75</ele><time>2026-05-01T06:51:17.357Z</time></trkpt><trkpt lat="46.84061755736711" lon="11.324416224298886"><ele>2050.5</ele><time>2026-05-01T06:51:18.36Z</time></trkpt><trkpt lat="46.84064195334037" lon="11.324621405456146"><ele>2053.25</ele><time>2026-05-01T06:51:19.347Z</time></trkpt><trkpt lat="46.84065918932639" lon="11.324802392997233"><ele>2056.0</ele><time>2026-05-01T06:51:20.352Z</time></trkpt><trkpt lat="46.84066980820565" lon="11.3249557666112"><ele>2056.0</ele><time>2026-05-01T06:51:21.359Z</time></trkpt><trkpt lat="46.8406865" lon="11.325082083333333"><ele>2056.0</ele><time>2026-05-01T06:51:22.348Z</time></trkpt><trkpt lat="46.84065868333334" lon="11.325175799999998"><ele>2056.0</ele><time>2026-05-01T06:51:23.349Z</time></trkpt><trkpt lat="46.8405484" lon="11.325186866666666"><ele>2056.0</ele><time>2026-05-01T06:51:25.348Z</time></trkpt><trkpt lat="46.84051720000001" lon="11.325102383333334"><ele>2056.0</ele><time>2026-05-01T06:51:26.36Z</time></trkpt><trkpt lat="46.8405165" lon="11.324982366666665"><ele>2056.0</ele><time>2026-05-01T06:51:27.341Z</time></trkpt><trkpt lat="46.8405187" lon="11.324834500000001"><ele>2056.0</ele><time>2026-05-01T06:51:28.349Z</time></trkpt><trkpt lat="46.84048464999999" lon="11.324687433333334"><ele>2056.0</ele><time>2026-05-01T06:51:29.348Z</time></trkpt><trkpt lat="46.84041852911361" lon="11.324534643475078"><ele>2056.0</ele><time>2026-05-01T06:51:30.359Z</time></trkpt><trkpt lat="46.84030736356166" lon="11.324427176380333"><ele>2056.0</ele><time>2026-05-01T06:51:31.358Z</time></trkpt><trkpt lat="46.840185000000005" lon="11.324337349999999"><ele>2061.25</ele><time>2026-05-01T06:51:32.349Z</time></trkpt><trkpt lat="46.8400918" lon="11.324203483333335"><ele>2066.5</ele><time>2026-05-01T06:51:33.363Z</time></trkpt><trkpt lat="46.84003068333333" lon="11.3240437"><ele>2071.75</ele><time>2026-05-01T06:51:34.347Z</time></trkpt><trkpt lat="46.84000365" lon="11.32386015"><ele>2077.0</ele><time>2026-05-01T06:51:35.357Z</time></trkpt><trkpt lat="46.83999543333332" lon="11.323664566666666"><ele>2078.0</ele><time>2026-05-01T06:51:36.342Z</time></trkpt><trkpt lat="46.83999181666666" lon="11.323457616666667"><ele>2079.0</ele><time>2026-05-01T06:51:37.346Z</time></trkpt><trkpt lat="46.83998643333332" lon="11.323245616666668"><ele>2080.0</ele><time>2026-05-01T06:51:38.345Z</time></trkpt><trkpt lat="46.83997896666666" lon="11.32303585"><ele>2081.0</ele><time>2026-05-01T06:51:39.356Z</time></trkpt><trkpt lat="46.83997174999999" lon="11.32283111666667"><ele>2081.25</ele><time>2026-05-01T06:51:40.347Z</time></trkpt><trkpt lat="46.83996346666666" lon="11.322634666666666"><ele>2081.5</ele><time>2026-05-01T06:51:41.35Z</time></trkpt><trkpt lat="46.83995511666667" lon="11.322446316666667"><ele>2081.75</ele><time>2026-05-01T06:51:42.354Z</time></trkpt><trkpt lat="46.83993928333333" lon="11.322271899999999"><ele>2082.0</ele><time>2026-05-01T06:51:43.349Z</time></trkpt><trkpt lat="46.83991355" lon="11.322109566666665"><ele>2083.4</ele><time>2026-05-01T06:51:44.351Z</time></trkpt><trkpt lat="46.839875500000005" lon="11.32196225"><ele>2084.7999999999997</ele><time>2026-05-01T06:51:45.363Z</time></trkpt><trkpt lat="46.839822850000004" lon="11.321827033333333"><ele>2086.2</ele><time>2026-05-01T06:51:46.347Z</time></trkpt><trkpt lat="46.839759699999995" lon="11.321702116666666"><ele>2087.6</ele><time>2026-05-01T06:51:47.365Z</time></trkpt><trkpt lat="46.839684549999994" lon="11.321583633333333"><ele>2089.0</ele><time>2026-05-01T06:51:48.354Z</time></trkpt><trkpt lat="46.83961235" lon="11.321468266666667"><ele>2090.3333333333335</ele><time>2026-05-01T06:51:49.346Z</time></trkpt><trkpt lat="46.83955420000001" lon="11.321350449999999"><ele>2091.666666666667</ele><time>2026-05-01T06:51:50.35Z</time></trkpt><trkpt lat="46.83951390000001" lon="11.321237916666666"><ele>2093.0</ele><time>2026-05-01T06:51:51.362Z</time></trkpt><trkpt lat="46.83948388333333" lon="11.321134716666666"><ele>2094.3333333333335</ele><time>2026-05-01T06:51:52.346Z</time></trkpt><trkpt lat="46.839470433333325" lon="11.321040449999998"><ele>2095.6666666666665</ele><time>2026-05-01T06:51:53.357Z</time></trkpt><trkpt lat="46.839485200000006" lon="11.32087925"><ele>2097.0</ele><time>2026-05-01T06:51:55.349Z</time></trkpt><trkpt lat="46.83949675" lon="11.3207676"><ele>2097.0</ele><time>2026-05-01T06:51:57.355Z</time></trkpt><trkpt lat="46.83946226666667" lon="11.320679700000001"><ele>2097.0</ele><time>2026-05-01T06:51:59.349Z</time></trkpt><trkpt lat="46.839530932222445" lon="11.320639176106084"><ele>2097.0</ele><time>2026-05-01T06:52:01.348Z</time></trkpt><trkpt lat="46.8395577432645" lon="11.320546071484737"><ele>2097.0</ele><time>2026-05-01T06:53:07.368Z</time></trkpt><trkpt lat="46.839603000000004" lon="11.320382949999999"><ele>2097.0</ele><time>2026-05-01T06:53:09.356Z</time></trkpt><trkpt lat="46.83965750000001" lon="11.320261100000002"><ele>2097.0</ele><time>2026-05-01T06:53:10.403Z</time></trkpt><trkpt lat="46.83971208333334" lon="11.320106816666664"><ele>2097.75</ele><time>2026-05-01T06:53:11.384Z</time></trkpt><trkpt lat="46.83976493333333" lon="11.31993355"><ele>2098.5</ele><time>2026-05-01T06:53:12.36Z</time></trkpt><trkpt lat="46.83981673333333" lon="11.319736533333332"><ele>2099.25</ele><time>2026-05-01T06:53:13.352Z</time></trkpt><trkpt lat="46.83985391666666" lon="11.319509366666667"><ele>2100.0</ele><time>2026-05-01T06:53:14.354Z</time></trkpt><trkpt lat="46.83987876666667" lon="11.319254866666666"><ele>2097.3333333333335</ele><time>2026-05-01T06:53:15.343Z</time></trkpt><trkpt lat="46.83990468333333" lon="11.318991783333335"><ele>2094.666666666667</ele><time>2026-05-01T06:53:16.346Z</time></trkpt><trkpt lat="46.83993651666666" lon="11.318734816666664"><ele>2092.0</ele><time>2026-05-01T06:53:17.352Z</time></trkpt><trkpt lat="46.839969350000004" lon="11.318487683333334"><ele>2089.666666666667</ele><time>2026-05-01T06:53:18.343Z</time></trkpt><trkpt lat="46.839992583333334" lon="11.318250566666666"><ele>2087.3333333333335</ele><time>2026-05-01T06:53:19.341Z</time></trkpt><trkpt lat="46.840011603598526" lon="11.318011096004192"><ele>2085.0</ele><time>2026-05-01T06:53:20.346Z</time></trkpt><trkpt lat="46.839964133333325" lon="11.317777833333333"><ele>2085.0</ele><time>2026-05-01T06:53:21.341Z</time></trkpt><trkpt lat="46.83994929323696" lon="11.317527577882302"><ele>2085.0</ele><time>2026-05-01T06:53:22.342Z</time></trkpt><trkpt lat="46.839896166666655" lon="11.317268766666666"><ele>2085.0</ele><time>2026-05-01T06:53:23.354Z</time></trkpt><trkpt lat="46.8398648887334" lon="11.316990793165813"><ele>2085.0</ele><time>2026-05-01T06:53:24.341Z</time></trkpt><trkpt lat="46.83979910882907" lon="11.316725344164972"><ele>2085.0</ele><time>2026-05-01T06:53:25.342Z</time></trkpt><trkpt lat="46.83972827227684" lon="11.316473778083628"><ele>2085.0</ele><time>2026-05-01T06:53:26.366Z</time></trkpt><trkpt lat="46.839672834497804" lon="11.316225961769764"><ele>2087.3333333333335</ele><time>2026-05-01T06:53:27.344Z</time></trkpt><trkpt lat="46.83962439231225" lon="11.315975231750556"><ele>2089.666666666667</ele><time>2026-05-01T06:53:28.347Z</time></trkpt><trkpt lat="46.83956165960266" lon="11.315740090364486"><ele>2092.0</ele><time>2026-05-01T06:53:29.355Z</time></trkpt><trkpt lat="46.83948867348643" lon="11.31551389454406"><ele>2092.3333333333335</ele><time>2026-05-01T06:53:30.343Z</time></trkpt><trkpt lat="46.839404168176024" lon="11.315291122544108"><ele>2092.6666666666665</ele><time>2026-05-01T06:53:31.342Z</time></trkpt><trkpt lat="46.83930471666666" lon="11.315080633333332"><ele>2093.0</ele><time>2026-05-01T06:53:32.35Z</time></trkpt><trkpt lat="46.83923446666666" lon="11.314848283333333"><ele>2079.0</ele><time>2026-05-01T06:53:33.342Z</time></trkpt><trkpt lat="46.839205051655554" lon="11.314610010895844"><ele>2065.0</ele><time>2026-05-01T06:53:34.362Z</time></trkpt><trkpt lat="46.83915623333334" lon="11.314371966666666"><ele>2051.0</ele><time>2026-05-01T06:53:35.351Z</time></trkpt><trkpt lat="46.83914431666667" lon="11.314146000000001"><ele>2051.0</ele><time>2026-05-01T06:53:36.343Z</time></trkpt><trkpt lat="46.83915998333333" lon="11.313934816666665"><ele>2051.0</ele><time>2026-05-01T06:53:37.365Z</time></trkpt><trkpt lat="46.83920774999999" lon="11.3137363"><ele>2051.0</ele><time>2026-05-01T06:53:38.359Z</time></trkpt><trkpt lat="46.83927791666667" lon="11.313550433333335"><ele>2051.0</ele><time>2026-05-01T06:53:39.356Z</time></trkpt><trkpt lat="46.83936333333333" lon="11.31337185"><ele>2052.25</ele><time>2026-05-01T06:53:40.34Z</time></trkpt><trkpt lat="46.83945533333334" lon="11.313197383333334"><ele>2053.5</ele><time>2026-05-01T06:53:41.354Z</time></trkpt><trkpt lat="46.839543199999994" lon="11.313027733333335"><ele>2054.75</ele><time>2026-05-01T06:53:42.345Z</time></trkpt><trkpt lat="46.839632" lon="11.3128585"><ele>2056.0</ele><time>2026-05-01T06:53:43.354Z</time></trkpt><trkpt lat="46.83972343333333" lon="11.312695883333333"><ele>2056.0</ele><time>2026-05-01T06:53:44.35Z</time></trkpt><trkpt lat="46.8398408430752" lon="11.31255895034159"><ele>2056.0</ele><time>2026-05-01T06:53:45.342Z</time></trkpt><trkpt lat="46.839912794253195" lon="11.312353888733758"><ele>2056.0</ele><time>2026-05-01T06:53:46.34Z</time></trkpt><trkpt lat="46.839960011173666" lon="11.312117006952576"><ele>2049.0</ele><time>2026-05-01T06:53:47.354Z</time></trkpt><trkpt lat="46.83998745646655" lon="11.311877627701776"><ele>2042.0</ele><time>2026-05-01T06:53:48.346Z</time></trkpt><trkpt lat="46.840024416666665" lon="11.311646949999998"><ele>2035.0</ele><time>2026-05-01T06:53:49.342Z</time></trkpt><trkpt lat="46.84011503744036" lon="11.311456540332754"><ele>2038.25</ele><time>2026-05-01T06:53:50.351Z</time></trkpt><trkpt lat="46.84016261619453" lon="11.311265217743966"><ele>2041.5</ele><time>2026-05-01T06:53:51.343Z</time></trkpt><trkpt lat="46.84023009469" lon="11.311132145024219"><ele>2044.75</ele><time>2026-05-01T06:53:52.354Z</time></trkpt><trkpt lat="46.84031978066509" lon="11.31100406881821"><ele>2048.0</ele><time>2026-05-01T06:53:53.35Z</time></trkpt><trkpt lat="46.840393068145886" lon="11.310839920652947"><ele>2048.0</ele><time>2026-05-01T06:53:54.346Z</time></trkpt><trkpt lat="46.84043616480422" lon="11.310646659423682"><ele>2048.0</ele><time>2026-05-01T06:53:55.354Z</time></trkpt><trkpt lat="46.84046079654543" lon="11.31043274410813"><ele>2048.0</ele><time>2026-05-01T06:53:56.352Z</time></trkpt><trkpt lat="46.84044596716944" lon="11.31019842386883"><ele>2048.0</ele><time>2026-05-01T06:53:57.345Z</time></trkpt><trkpt lat="46.84037928333334" lon="11.3099886"><ele>2047.5</ele><time>2026-05-01T06:53:58.342Z</time></trkpt><trkpt lat="46.84033601666666" lon="11.309779399999998"><ele>2047.0</ele><time>2026-05-01T06:53:59.345Z</time></trkpt><trkpt lat="46.84031858333333" lon="11.309571449999998"><ele>2046.5</ele><time>2026-05-01T06:54:00.342Z</time></trkpt><trkpt lat="46.84032139194068" lon="11.309346439441704"><ele>2046.0</ele><time>2026-05-01T06:54:01.342Z</time></trkpt><trkpt lat="46.84031559246416" lon="11.30911866677371"><ele>2047.0</ele><time>2026-05-01T06:54:02.365Z</time></trkpt><trkpt lat="46.84030029684023" lon="11.308907628516934"><ele>2048.0</ele><time>2026-05-01T06:54:03.342Z</time></trkpt><trkpt lat="46.84025138957435" lon="11.308710219128898"><ele>2049.0</ele><time>2026-05-01T06:54:04.362Z</time></trkpt><trkpt lat="46.84016172077567" lon="11.308539218422764"><ele>2050.0</ele><time>2026-05-01T06:54:05.35Z</time></trkpt><trkpt lat="46.84004021666666" lon="11.308396216666665"><ele>2044.0</ele><time>2026-05-01T06:54:06.34Z</time></trkpt><trkpt lat="46.839917866666674" lon="11.308245150000001"><ele>2038.0</ele><time>2026-05-01T06:54:07.353Z</time></trkpt><trkpt lat="46.839785866666666" lon="11.308109983333335"><ele>2032.0</ele><time>2026-05-01T06:54:08.35Z</time></trkpt><trkpt lat="46.83966118333333" lon="11.307984900000001"><ele>2032.0</ele><time>2026-05-01T06:54:09.341Z</time></trkpt><trkpt lat="46.83958181930062" lon="11.307822130088386"><ele>2032.0</ele><time>2026-05-01T06:54:10.341Z</time></trkpt><trkpt lat="46.839537251935695" lon="11.307652765216721"><ele>2032.0</ele><time>2026-05-01T06:54:11.342Z</time></trkpt><trkpt lat="46.83950824288373" lon="11.30746183791566"><ele>2032.0</ele><time>2026-05-01T06:54:12.341Z</time></trkpt><trkpt lat="46.8394775714649" lon="11.307257632637286"><ele>2033.6666666666667</ele><time>2026-05-01T06:54:13.35Z</time></trkpt><trkpt lat="46.839424776766336" lon="11.30702981308683"><ele>2035.3333333333335</ele><time>2026-05-01T06:54:14.354Z</time></trkpt><trkpt lat="46.839351041669715" lon="11.306822403513117"><ele>2037.0</ele><time>2026-05-01T06:54:15.34Z</time></trkpt><trkpt lat="46.839290807432995" lon="11.306610189711028"><ele>2023.6666666666665</ele><time>2026-05-01T06:54:16.357Z</time></trkpt><trkpt lat="46.83924415484655" lon="11.306386802477965"><ele>2010.3333333333333</ele><time>2026-05-01T06:54:17.353Z</time></trkpt><trkpt lat="46.83920055" lon="11.306164733333333"><ele>1997.0</ele><time>2026-05-01T06:54:18.356Z</time></trkpt><trkpt lat="46.83921181367335" lon="11.305934366344214"><ele>1997.0</ele><time>2026-05-01T06:54:19.342Z</time></trkpt><trkpt lat="46.8392115274969" lon="11.305690598086457"><ele>1997.0</ele><time>2026-05-01T06:54:20.362Z</time></trkpt><trkpt lat="46.839198102141985" lon="11.305432629176394"><ele>1997.0</ele><time>2026-05-01T06:54:21.341Z</time></trkpt><trkpt lat="46.83917150156189" lon="11.305169311452229"><ele>1999.3333333333333</ele><time>2026-05-01T06:54:22.35Z</time></trkpt><trkpt lat="46.839145339928905" lon="11.30490469177689"><ele>2001.6666666666665</ele><time>2026-05-01T06:54:23.35Z</time></trkpt><trkpt lat="46.839119455910854" lon="11.304651533729352"><ele>2004.0</ele><time>2026-05-01T06:54:24.345Z</time></trkpt><trkpt lat="46.83909484418056" lon="11.304408011500774"><ele>2007.3333333333335</ele><time>2026-05-01T06:54:25.354Z</time></trkpt><trkpt lat="46.839042782032244" lon="11.30418030713757"><ele>2010.6666666666667</ele><time>2026-05-01T06:54:26.351Z</time></trkpt><trkpt lat="46.83894408333334" lon="11.304006849999999"><ele>2014.0</ele><time>2026-05-01T06:54:27.355Z</time></trkpt><trkpt lat="46.83885681666668" lon="11.3038343"><ele>2017.0</ele><time>2026-05-01T06:54:28.353Z</time></trkpt><trkpt lat="46.83877195" lon="11.303656799999997"><ele>2020.0</ele><time>2026-05-01T06:54:29.349Z</time></trkpt><trkpt lat="46.838692333333334" lon="11.303464283333335"><ele>2023.0</ele><time>2026-05-01T06:54:30.341Z</time></trkpt><trkpt lat="46.838629149999996" lon="11.303256433333337"><ele>2024.0</ele><time>2026-05-01T06:54:31.354Z</time></trkpt><trkpt lat="46.83857576666666" lon="11.303053150000002"><ele>2025.0</ele><time>2026-05-01T06:54:32.353Z</time></trkpt><trkpt lat="46.83852085326832" lon="11.302852657871767"><ele>2026.0</ele><time>2026-05-01T06:54:33.35Z</time></trkpt><trkpt lat="46.83843518333333" lon="11.3026896"><ele>2027.0</ele><time>2026-05-01T06:54:34.342Z</time></trkpt><trkpt lat="46.8383912" lon="11.302514016666665"><ele>2014.5</ele><time>2026-05-01T06:54:35.352Z</time></trkpt><trkpt lat="46.83837431666667" lon="11.302331883333334"><ele>2002.0</ele><time>2026-05-01T06:54:36.341Z</time></trkpt><trkpt lat="46.83837618333334" lon="11.302139483333333"><ele>1989.5</ele><time>2026-05-01T06:54:37.351Z</time></trkpt><trkpt lat="46.83840408333334" lon="11.301952616666664"><ele>1977.0</ele><time>2026-05-01T06:54:38.352Z</time></trkpt><trkpt lat="46.838453483333325" lon="11.30177685"><ele>1989.75</ele><time>2026-05-01T06:54:39.34Z</time></trkpt><trkpt lat="46.83849715" lon="11.301603133333334"><ele>2002.5</ele><time>2026-05-01T06:54:40.346Z</time></trkpt><trkpt lat="46.83851428333334" lon="11.30141605"><ele>2015.25</ele><time>2026-05-01T06:54:41.363Z</time></trkpt><trkpt lat="46.838509083333335" lon="11.30121615"><ele>2028.0</ele><time>2026-05-01T06:54:42.343Z</time></trkpt><trkpt lat="46.838493433333326" lon="11.301006583333333"><ele>2029.3333333333335</ele><time>2026-05-01T06:54:43.35Z</time></trkpt><trkpt lat="46.838472550000006" lon="11.300785399999999"><ele>2030.6666666666667</ele><time>2026-05-01T06:54:44.35Z</time></trkpt><trkpt lat="46.83843676666667" lon="11.300553183333333"><ele>2032.0</ele><time>2026-05-01T06:54:45.342Z</time></trkpt><trkpt lat="46.838386233333324" lon="11.300324266666667"><ele>2015.0</ele><time>2026-05-01T06:54:46.342Z</time></trkpt><trkpt lat="46.838324516666674" lon="11.300105666666665"><ele>1998.0</ele><time>2026-05-01T06:54:47.351Z</time></trkpt><trkpt lat="46.83826791666667" lon="11.299896133333334"><ele>1981.0</ele><time>2026-05-01T06:54:48.341Z</time></trkpt><trkpt lat="46.838225683333334" lon="11.29969005"><ele>1981.0</ele><time>2026-05-01T06:54:49.351Z</time></trkpt><trkpt lat="46.838203666666665" lon="11.29948156666667"><ele>1981.0</ele><time>2026-05-01T06:54:50.343Z</time></trkpt><trkpt lat="46.83820021666667" lon="11.299274116666666"><ele>1981.0</ele><time>2026-05-01T06:54:51.341Z</time></trkpt><trkpt lat="46.83820528333334" lon="11.299075733333332"><ele>1981.0</ele><time>2026-05-01T06:54:52.343Z</time></trkpt><trkpt lat="46.83822016666666" lon="11.298898433333333"><ele>1981.8333333333335</ele><time>2026-05-01T06:54:53.35Z</time></trkpt><trkpt lat="46.83824021666666" lon="11.298756516666666"><ele>1982.6666666666667</ele><time>2026-05-01T06:54:54.342Z</time></trkpt><trkpt lat="46.83824413333333" lon="11.298637633333332"><ele>1983.5</ele><time>2026-05-01T06:54:55.341Z</time></trkpt><trkpt lat="46.83820681666666" lon="11.298546883333334"><ele>1984.3333333333335</ele><time>2026-05-01T06:54:56.342Z</time></trkpt><trkpt lat="46.83813883333334" lon="11.298522833333335"><ele>1985.1666666666667</ele><time>2026-05-01T06:54:57.34Z</time></trkpt><trkpt lat="46.838054891328774" lon="11.298561134668091"><ele>1986.0</ele><time>2026-05-01T06:54:58.342Z</time></trkpt><trkpt lat="46.83803425806283" lon="11.298685255201681"><ele>1986.0</ele><time>2026-05-01T06:54:59.341Z</time></trkpt><trkpt lat="46.838051101825094" lon="11.29881070372216"><ele>1986.0</ele><time>2026-05-01T06:55:00.342Z</time></trkpt><trkpt lat="46.8380874" lon="11.298941716666665"><ele>1986.0</ele><time>2026-05-01T06:55:01.342Z</time></trkpt><trkpt lat="46.83806986121745" lon="11.299095631462075"><ele>1986.0</ele><time>2026-05-01T06:55:02.35Z</time></trkpt><trkpt lat="46.83804861717548" lon="11.299267345161784"><ele>1986.0</ele><time>2026-05-01T06:55:03.349Z</time></trkpt><trkpt lat="46.83804464132905" lon="11.299458212431626"><ele>1984.3333333333335</ele><time>2026-05-01T06:55:04.342Z</time></trkpt><trkpt lat="46.83806512747512" lon="11.29966024647055"><ele>1982.6666666666667</ele><time>2026-05-01T06:55:05.353Z</time></trkpt><trkpt lat="46.83808330918797" lon="11.299876850053243"><ele>1981.0</ele><time>2026-05-01T06:55:06.343Z</time></trkpt><trkpt lat="46.83808566868299" lon="11.300114276718295"><ele>1980.6666666666667</ele><time>2026-05-01T06:55:07.351Z</time></trkpt><trkpt lat="46.838080230490064" lon="11.300378485609274"><ele>1980.3333333333335</ele><time>2026-05-01T06:55:08.361Z</time></trkpt><trkpt lat="46.83807549024802" lon="11.300657920659432"><ele>1980.0</ele><time>2026-05-01T06:55:09.341Z</time></trkpt><trkpt lat="46.83807077344705" lon="11.300935973947407"><ele>1978.6666666666665</ele><time>2026-05-01T06:55:10.354Z</time></trkpt><trkpt lat="46.83806690664326" lon="11.301197342113785"><ele>1977.3333333333333</ele><time>2026-05-01T06:55:11.35Z</time></trkpt><trkpt lat="46.83807133333333" lon="11.301448533333332"><ele>1976.0</ele><time>2026-05-01T06:55:12.34Z</time></trkpt><trkpt lat="46.83803001666667" lon="11.301679633333332"><ele>1976.25</ele><time>2026-05-01T06:55:13.375Z</time></trkpt><trkpt lat="46.837970399999996" lon="11.30188251666667"><ele>1976.5</ele><time>2026-05-01T06:55:14.35Z</time></trkpt><trkpt lat="46.837915183333344" lon="11.302059283333332"><ele>1976.75</ele><time>2026-05-01T06:55:15.355Z</time></trkpt><trkpt lat="46.83789085" lon="11.302232133333334"><ele>1977.0</ele><time>2026-05-01T06:55:16.35Z</time></trkpt><trkpt lat="46.83790711666668" lon="11.302409966666668"><ele>1977.0</ele><time>2026-05-01T06:55:17.364Z</time></trkpt><trkpt lat="46.8379516" lon="11.302599533333334"><ele>1977.0</ele><time>2026-05-01T06:55:18.343Z</time></trkpt><trkpt lat="46.838003099999995" lon="11.30280845"><ele>1977.0</ele><time>2026-05-01T06:55:19.354Z</time></trkpt><trkpt lat="46.838046299999995" lon="11.303040766666667"><ele>1974.3333333333335</ele><time>2026-05-01T06:55:20.356Z</time></trkpt><trkpt lat="46.83808256666666" lon="11.303295666666669"><ele>1971.6666666666667</ele><time>2026-05-01T06:55:21.349Z</time></trkpt><trkpt lat="46.83811063333333" lon="11.303564316666666"><ele>1969.0</ele><time>2026-05-01T06:55:22.354Z</time></trkpt><trkpt lat="46.838126066666675" lon="11.3038496"><ele>1963.0</ele><time>2026-05-01T06:55:23.35Z</time></trkpt><trkpt lat="46.83813295" lon="11.30413595"><ele>1957.0</ele><time>2026-05-01T06:55:24.349Z</time></trkpt><trkpt lat="46.838142733333335" lon="11.304412466666667"><ele>1951.0</ele><time>2026-05-01T06:55:25.344Z</time></trkpt><trkpt lat="46.83816241666666" lon="11.304671399999998"><ele>1946.3333333333335</ele><time>2026-05-01T06:55:26.361Z</time></trkpt><trkpt lat="46.83819663333334" lon="11.304916849999998"><ele>1941.6666666666665</ele><time>2026-05-01T06:55:27.344Z</time></trkpt><trkpt lat="46.83824526666667" lon="11.305155333333333"><ele>1937.0</ele><time>2026-05-01T06:55:28.354Z</time></trkpt><trkpt lat="46.83830348333333" lon="11.305393616666667"><ele>1934.0</ele><time>2026-05-01T06:55:29.352Z</time></trkpt><trkpt lat="46.83836504999999" lon="11.305641099999999"><ele>1931.0</ele><time>2026-05-01T06:55:30.341Z</time></trkpt><trkpt lat="46.83841211666666" lon="11.3058986"><ele>1928.0</ele><time>2026-05-01T06:55:31.356Z</time></trkpt><trkpt lat="46.83844041666666" lon="11.30616555"><ele>1923.3333333333333</ele><time>2026-05-01T06:55:32.352Z</time></trkpt><trkpt lat="46.83846356666666" lon="11.306436433333333"><ele>1918.6666666666665</ele><time>2026-05-01T06:55:33.343Z</time></trkpt><trkpt lat="46.838480399999995" lon="11.3066985"><ele>1914.0</ele><time>2026-05-01T06:55:34.353Z</time></trkpt><trkpt lat="46.83848473333334" lon="11.306953816666665"><ele>1911.3333333333335</ele><time>2026-05-01T06:55:35.361Z</time></trkpt><trkpt lat="46.838475550000005" lon="11.307213683333336"><ele>1908.6666666666667</ele><time>2026-05-01T06:55:36.341Z</time></trkpt><trkpt lat="46.83845540000001" lon="11.30747555"><ele>1906.0</ele><time>2026-05-01T06:55:37.342Z</time></trkpt><trkpt lat="46.838435233333335" lon="11.3077417"><ele>1906.0</ele><time>2026-05-01T06:55:38.366Z</time></trkpt><trkpt lat="46.83841163333333" lon="11.308010850000002"><ele>1906.0</ele><time>2026-05-01T06:55:39.341Z</time></trkpt><trkpt lat="46.838395483333336" lon="11.308275633333336"><ele>1906.0</ele><time>2026-05-01T06:55:40.355Z</time></trkpt><trkpt lat="46.838377163585506" lon="11.30854754520997"><ele>1903.6666666666667</ele><time>2026-05-01T06:55:41.351Z</time></trkpt><trkpt lat="46.83841266666667" lon="11.308814866666667"><ele>1901.3333333333335</ele><time>2026-05-01T06:55:42.342Z</time></trkpt><trkpt lat="46.838427416666676" lon="11.309084383333333"><ele>1899.0</ele><time>2026-05-01T06:55:43.351Z</time></trkpt><trkpt lat="46.838428650000004" lon="11.309354633333333"><ele>1897.6666666666665</ele><time>2026-05-01T06:55:44.356Z</time></trkpt><trkpt lat="46.838415633333334" lon="11.309619916666668"><ele>1896.3333333333333</ele><time>2026-05-01T06:55:45.345Z</time></trkpt><trkpt lat="46.83839608333333" lon="11.309871216666666"><ele>1895.0</ele><time>2026-05-01T06:55:46.351Z</time></trkpt><trkpt lat="46.838382833333334" lon="11.310116166666667"><ele>1894.6666666666665</ele><time>2026-05-01T06:55:47.342Z</time></trkpt><trkpt lat="46.838363650000005" lon="11.310370133333333"><ele>1894.3333333333335</ele><time>2026-05-01T06:55:48.342Z</time></trkpt><trkpt lat="46.838320949999996" lon="11.310613816666669"><ele>1894.0</ele><time>2026-05-01T06:55:49.357Z</time></trkpt><trkpt lat="46.83824572550548" lon="11.31081391072082"><ele>1894.0</ele><time>2026-05-01T06:55:50.36Z</time></trkpt><trkpt lat="46.83815116058859" lon="11.310981832072969"><ele>1894.0</ele><time>2026-05-01T06:55:51.343Z</time></trkpt><trkpt lat="46.83803726365022" lon="11.311112210451745"><ele>1894.0</ele><time>2026-05-01T06:55:52.353Z</time></trkpt><trkpt lat="46.83789604400095" lon="11.311219991715683"><ele>1894.0</ele><time>2026-05-01T06:55:53.349Z</time></trkpt><trkpt lat="46.83774349627013" lon="11.311336725413366"><ele>1894.0</ele><time>2026-05-01T06:55:54.367Z</time></trkpt><trkpt lat="46.837599227801654" lon="11.311476673629238"><ele>1894.0</ele><time>2026-05-01T06:55:55.353Z</time></trkpt><trkpt lat="46.8374693" lon="11.311651383333333"><ele>1890.0</ele><time>2026-05-01T06:55:56.361Z</time></trkpt><trkpt lat="46.83731918333333" lon="11.31176025"><ele>1886.0</ele><time>2026-05-01T06:55:57.341Z</time></trkpt><trkpt lat="46.83716471666666" lon="11.311837266666666"><ele>1882.0</ele><time>2026-05-01T06:55:58.354Z</time></trkpt><trkpt lat="46.837013250000005" lon="11.311869083333333"><ele>1882.0</ele><time>2026-05-01T06:55:59.351Z</time></trkpt><trkpt lat="46.83687021666666" lon="11.311847583333334"><ele>1882.0</ele><time>2026-05-01T06:56:00.343Z</time></trkpt><trkpt lat="46.836738749999995" lon="11.31181145"><ele>1882.0</ele><time>2026-05-01T06:56:01.351Z</time></trkpt><trkpt lat="46.83662026666666" lon="11.311816299999997"><ele>1882.0</ele><time>2026-05-01T06:56:02.351Z</time></trkpt><trkpt lat="46.83651499999999" lon="11.311887866666664"><ele>1880.5</ele><time>2026-05-01T06:56:03.341Z</time></trkpt><trkpt lat="46.83642616666666" lon="11.312017333333332"><ele>1879.0</ele><time>2026-05-01T06:56:04.344Z</time></trkpt><trkpt lat="46.83633898333333" lon="11.312174316666669"><ele>1877.5</ele><time>2026-05-01T06:56:05.357Z</time></trkpt><trkpt lat="46.83623358333333" lon="11.312330883333335"><ele>1876.0</ele><time>2026-05-01T06:56:06.342Z</time></trkpt><trkpt lat="46.83611081666666" lon="11.31247535"><ele>1876.0</ele><time>2026-05-01T06:56:07.344Z</time></trkpt><trkpt lat="46.83597966211306" lon="11.312592902418027"><ele>1876.0</ele><time>2026-05-01T06:56:08.352Z</time></trkpt><trkpt lat="46.83587385568312" lon="11.312748769055563"><ele>1876.0</ele><time>2026-05-01T06:56:09.352Z</time></trkpt><trkpt lat="46.83582175" lon="11.31294235"><ele>1876.0</ele><time>2026-05-01T06:56:10.366Z</time></trkpt><trkpt lat="46.83576141666667" lon="11.313114516666667"><ele>1873.75</ele><time>2026-05-01T06:56:11.35Z</time></trkpt><trkpt lat="46.83567866666667" lon="11.313257183333333"><ele>1871.5</ele><time>2026-05-01T06:56:12.342Z</time></trkpt><trkpt lat="46.83556245" lon="11.313365166666665"><ele>1869.25</ele><time>2026-05-01T06:56:13.345Z</time></trkpt><trkpt lat="46.83541903333333" lon="11.313433616666668"><ele>1867.0</ele><time>2026-05-01T06:56:14.352Z</time></trkpt><trkpt lat="46.835255599999996" lon="11.313489783333335"><ele>1860.6666666666667</ele><time>2026-05-01T06:56:15.34Z</time></trkpt><trkpt lat="46.83508041666667" lon="11.313544833333331"><ele>1854.3333333333335</ele><time>2026-05-01T06:56:16.342Z</time></trkpt><trkpt lat="46.83488990000001" lon="11.313572633333335"><ele>1848.0</ele><time>2026-05-01T06:56:17.376Z</time></trkpt><trkpt lat="46.83469315000001" lon="11.313562899999999"><ele>1848.0</ele><time>2026-05-01T06:56:18.35Z</time></trkpt><trkpt lat="46.834500183333326" lon="11.31354375"><ele>1848.0</ele><time>2026-05-01T06:56:19.35Z</time></trkpt><trkpt lat="46.83431215000001" lon="11.313537166666666"><ele>1848.0</ele><time>2026-05-01T06:56:20.352Z</time></trkpt><trkpt lat="46.8341311" lon="11.313546733333332"><ele>1843.6666666666665</ele><time>2026-05-01T06:56:21.341Z</time></trkpt><trkpt lat="46.833957933333345" lon="11.313564166666666"><ele>1839.3333333333333</ele><time>2026-05-01T06:56:22.343Z</time></trkpt><trkpt lat="46.83379215" lon="11.313579483333333"><ele>1835.0</ele><time>2026-05-01T06:56:23.35Z</time></trkpt><trkpt lat="46.83363558333334" lon="11.313608633333335"><ele>1835.0</ele><time>2026-05-01T06:56:24.344Z</time></trkpt><trkpt lat="46.833486300000004" lon="11.313679766666667"><ele>1835.0</ele><time>2026-05-01T06:56:25.345Z</time></trkpt><trkpt lat="46.83333911666667" lon="11.313790533333334"><ele>1835.0</ele><time>2026-05-01T06:56:26.355Z</time></trkpt><trkpt lat="46.83318694999999" lon="11.313905533333331"><ele>1840.3333333333333</ele><time>2026-05-01T06:56:27.341Z</time></trkpt><trkpt lat="46.83302941666667" lon="11.3140217"><ele>1845.6666666666665</ele><time>2026-05-01T06:56:28.34Z</time></trkpt><trkpt lat="46.832872316666666" lon="11.314157649999999"><ele>1851.0</ele><time>2026-05-01T06:56:29.357Z</time></trkpt><trkpt lat="46.83271901666667" lon="11.314293200000002"><ele>1841.0</ele><time>2026-05-01T06:56:30.345Z</time></trkpt><trkpt lat="46.83257066666667" lon="11.314421916666667"><ele>1831.0</ele><time>2026-05-01T06:56:31.351Z</time></trkpt><trkpt lat="46.83242898333333" lon="11.314558116666667"><ele>1821.0</ele><time>2026-05-01T06:56:32.343Z</time></trkpt><trkpt lat="46.83229643333334" lon="11.314698016666668"><ele>1829.6666666666665</ele><time>2026-05-01T06:56:33.341Z</time></trkpt><trkpt lat="46.83217725" lon="11.314848733333335"><ele>1838.3333333333333</ele><time>2026-05-01T06:56:34.351Z</time></trkpt><trkpt lat="46.83208146666666" lon="11.315017699999997"><ele>1847.0</ele><time>2026-05-01T06:56:35.354Z</time></trkpt><trkpt lat="46.832012516666666" lon="11.315204216666666"><ele>1847.0</ele><time>2026-05-01T06:56:36.341Z</time></trkpt><trkpt lat="46.831970616666666" lon="11.315391033333333"><ele>1846.9999999999998</ele><time>2026-05-01T06:56:37.341Z</time></trkpt><trkpt lat="46.83194265000001" lon="11.315549983333336"><ele>1846.9999999999998</ele><time>2026-05-01T06:56:38.356Z</time></trkpt><trkpt lat="46.83191783333333" lon="11.315680149999999"><ele>1847.0</ele><time>2026-05-01T06:56:39.341Z</time></trkpt><trkpt lat="46.831878999999994" lon="11.31577225"><ele>1847.0</ele><time>2026-05-01T06:56:40.355Z</time></trkpt><trkpt lat="46.831776016666666" lon="11.315762183333334"><ele>1847.0</ele><time>2026-05-01T06:56:42.341Z</time></trkpt><trkpt lat="46.831796066666655" lon="11.31560145"><ele>1846.9999999999998</ele><time>2026-05-01T06:56:44.353Z</time></trkpt><trkpt lat="46.831830116666666" lon="11.315480316666665"><ele>1846.9999999999998</ele><time>2026-05-01T06:56:45.342Z</time></trkpt><trkpt lat="46.83186011666667" lon="11.315329149999998"><ele>1847.0</ele><time>2026-05-01T06:56:46.343Z</time></trkpt><trkpt lat="46.83189683333334" lon="11.315151216666667"><ele>1847.0</ele><time>2026-05-01T06:56:47.351Z</time></trkpt><trkpt lat="46.83194161666667" lon="11.314955000000001"><ele>1847.0</ele><time>2026-05-01T06:56:48.342Z</time></trkpt><trkpt lat="46.83202008003807" lon="11.314765742068342"><ele>1847.0</ele><time>2026-05-01T06:56:49.351Z</time></trkpt><trkpt lat="46.83211535273149" lon="11.314580489356764"><ele>1847.0</ele><time>2026-05-01T06:56:50.361Z</time></trkpt><trkpt lat="46.8322205068844" lon="11.314386363872853"><ele>1838.3333333333333</ele><time>2026-05-01T06:56:51.357Z</time></trkpt><trkpt lat="46.83232564476208" lon="11.314198459005762"><ele>1829.6666666666665</ele><time>2026-05-01T06:56:52.345Z</time></trkpt><trkpt lat="46.832428429299306" lon="11.314013877776768"><ele>1821.0</ele><time>2026-05-01T06:56:53.351Z</time></trkpt><trkpt lat="46.83252953707532" lon="11.313864063835574"><ele>1821.3333333333335</ele><time>2026-05-01T06:56:54.342Z</time></trkpt><trkpt lat="46.83265142365872" lon="11.313739080356008"><ele>1821.6666666666667</ele><time>2026-05-01T06:56:55.354Z</time></trkpt><trkpt lat="46.83277427612622" lon="11.313612102996714"><ele>1822.0</ele><time>2026-05-01T06:56:56.354Z</time></trkpt><trkpt lat="46.832867181656034" lon="11.313439105082587"><ele>1822.0</ele><time>2026-05-01T06:56:57.341Z</time></trkpt><trkpt lat="46.8329170005987" lon="11.313253843287248"><ele>1822.0</ele><time>2026-05-01T06:56:58.341Z</time></trkpt><trkpt lat="46.83296710160109" lon="11.313092558045232"><ele>1822.0</ele><time>2026-05-01T06:56:59.353Z</time></trkpt><trkpt lat="46.833039151848" lon="11.312945959788827"><ele>1822.0</ele><time>2026-05-01T06:57:00.358Z</time></trkpt><trkpt lat="46.833134906837486" lon="11.312824544873328"><ele>1819.0</ele><time>2026-05-01T06:57:01.343Z</time></trkpt><trkpt lat="46.833236377792424" lon="11.31274091838496"><ele>1816.0</ele><time>2026-05-01T06:57:02.355Z</time></trkpt><trkpt lat="46.833348341145125" lon="11.31269407039469"><ele>1813.0</ele><time>2026-05-01T06:57:03.344Z</time></trkpt><trkpt lat="46.83347239362262" lon="11.312669972841503"><ele>1810.0</ele><time>2026-05-01T06:57:04.355Z</time></trkpt><trkpt lat="46.833607653172415" lon="11.31264502295909"><ele>1810.0</ele><time>2026-05-01T06:57:05.357Z</time></trkpt><trkpt lat="46.83373849535099" lon="11.312601662667314"><ele>1810.0</ele><time>2026-05-01T06:57:06.344Z</time></trkpt><trkpt lat="46.833843607043455" lon="11.312494666707103"><ele>1810.0</ele><time>2026-05-01T06:57:07.351Z</time></trkpt><trkpt lat="46.83390894726267" lon="11.312325444608229"><ele>1810.0</ele><time>2026-05-01T06:57:08.351Z</time></trkpt><trkpt lat="46.83393812389576" lon="11.312132558917192"><ele>1808.3333333333335</ele><time>2026-05-01T06:57:09.345Z</time></trkpt><trkpt lat="46.833959556615866" lon="11.311909439337684"><ele>1806.6666666666665</ele><time>2026-05-01T06:57:10.355Z</time></trkpt><trkpt lat="46.83397245925539" lon="11.311672931602251"><ele>1805.0</ele><time>2026-05-01T06:57:11.362Z</time></trkpt><trkpt lat="46.83396477509921" lon="11.311416728782914"><ele>1806.0</ele><time>2026-05-01T06:57:12.341Z</time></trkpt><trkpt lat="46.83391739261175" lon="11.311147969543882"><ele>1807.0</ele><time>2026-05-01T06:57:13.344Z</time></trkpt><trkpt lat="46.833869971754865" lon="11.310883399581556"><ele>1808.0</ele><time>2026-05-01T06:57:14.366Z</time></trkpt><trkpt lat="46.833826633862806" lon="11.310628996294986"><ele>1808.0</ele><time>2026-05-01T06:57:15.343Z</time></trkpt><trkpt lat="46.83378708416622" lon="11.310387637985281"><ele>1808.0</ele><time>2026-05-01T06:57:16.364Z</time></trkpt><trkpt lat="46.833748692135906" lon="11.310151810515054"><ele>1808.0</ele><time>2026-05-01T06:57:17.351Z</time></trkpt><trkpt lat="46.83371426668218" lon="11.309920752812467"><ele>1805.5</ele><time>2026-05-01T06:57:18.343Z</time></trkpt><trkpt lat="46.83369921342427" lon="11.30970868485615"><ele>1803.0</ele><time>2026-05-01T06:57:19.344Z</time></trkpt><trkpt lat="46.83369683685987" lon="11.309498016666666"><ele>1800.5</ele><time>2026-05-01T06:57:20.353Z</time></trkpt><trkpt lat="46.83369879176823" lon="11.30929155959002"><ele>1798.0</ele><time>2026-05-01T06:57:21.341Z</time></trkpt><trkpt lat="46.833706576408844" lon="11.30910460217494"><ele>1798.0</ele><time>2026-05-01T06:57:22.351Z</time></trkpt><trkpt lat="46.8337358900344" lon="11.308936047933809"><ele>1798.0</ele><time>2026-05-01T06:57:23.343Z</time></trkpt><trkpt lat="46.833793770271804" lon="11.308768548825713"><ele>1798.0</ele><time>2026-05-01T06:57:24.343Z</time></trkpt><trkpt lat="46.833862775188074" lon="11.308586840999117"><ele>1798.0</ele><time>2026-05-01T06:57:25.353Z</time></trkpt><trkpt lat="46.83391314364173" lon="11.308366574638773"><ele>1794.5</ele><time>2026-05-01T06:57:26.354Z</time></trkpt><trkpt lat="46.83391462190774" lon="11.308153421784825"><ele>1791.0</ele><time>2026-05-01T06:57:27.342Z</time></trkpt><trkpt lat="46.83387051073601" lon="11.307967092945368"><ele>1787.5</ele><time>2026-05-01T06:57:28.352Z</time></trkpt><trkpt lat="46.833793083333326" lon="11.307829699999997"><ele>1784.0</ele><time>2026-05-01T06:57:29.354Z</time></trkpt><trkpt lat="46.83372743333332" lon="11.307692816666668"><ele>1783.3333333333333</ele><time>2026-05-01T06:57:30.359Z</time></trkpt><trkpt lat="46.833663783333336" lon="11.307566583333335"><ele>1782.6666666666665</ele><time>2026-05-01T06:57:31.35Z</time></trkpt><trkpt lat="46.83361398333333" lon="11.307452783333334"><ele>1782.0</ele><time>2026-05-01T06:57:32.362Z</time></trkpt><trkpt lat="46.833586733333334" lon="11.307334166666665"><ele>1781.3333333333335</ele><time>2026-05-01T06:57:33.342Z</time></trkpt><trkpt lat="46.83360215413352" lon="11.307211892426908"><ele>1780.6666666666667</ele><time>2026-05-01T06:57:34.353Z</time></trkpt><trkpt lat="46.83362209423058" lon="11.307100656511018"><ele>1780.0</ele><time>2026-05-01T06:57:35.358Z</time></trkpt><trkpt lat="46.83364178333333" lon="11.306999383333334"><ele>1777.3333333333335</ele><time>2026-05-01T06:57:36.341Z</time></trkpt><trkpt lat="46.833701850000004" lon="11.306937249999997"><ele>1774.6666666666667</ele><time>2026-05-01T06:57:37.343Z</time></trkpt><trkpt lat="46.833770733333324" lon="11.306907866666664"><ele>1772.0</ele><time>2026-05-01T06:57:38.351Z</time></trkpt><trkpt lat="46.8338453" lon="11.306899683333333"><ele>1769.3333333333335</ele><time>2026-05-01T06:57:39.355Z</time></trkpt><trkpt lat="46.83392561666666" lon="11.306899233333336"><ele>1766.6666666666667</ele><time>2026-05-01T06:57:40.355Z</time></trkpt><trkpt lat="46.83401238333333" lon="11.306874816666667"><ele>1764.0</ele><time>2026-05-01T06:57:41.351Z</time></trkpt><trkpt lat="46.83410486666667" lon="11.306799116666665"><ele>1764.0</ele><time>2026-05-01T06:57:42.34Z</time></trkpt><trkpt lat="46.8342254012483" lon="11.306691600745841"><ele>1764.0</ele><time>2026-05-01T06:57:43.357Z</time></trkpt><trkpt lat="46.83431260485182" lon="11.306468619009317"><ele>1764.0</ele><time>2026-05-01T06:57:44.349Z</time></trkpt><trkpt lat="46.83434663333334" lon="11.306214116666668"><ele>1764.0</ele><time>2026-05-01T06:57:45.341Z</time></trkpt><trkpt lat="46.83437941666666" lon="11.305953683333334"><ele>1764.0</ele><time>2026-05-01T06:57:46.351Z</time></trkpt><trkpt lat="46.834395598224454" lon="11.305670286497545"><ele>1764.0</ele><time>2026-05-01T06:57:47.351Z</time></trkpt><trkpt lat="46.834354916666676" lon="11.305385316666664"><ele>1759.0</ele><time>2026-05-01T06:57:48.343Z</time></trkpt><trkpt lat="46.834323149999996" lon="11.3051043"><ele>1754.0</ele><time>2026-05-01T06:57:49.351Z</time></trkpt><trkpt lat="46.834302050584704" lon="11.30483245677303"><ele>1749.0</ele><time>2026-05-01T06:57:50.356Z</time></trkpt><trkpt lat="46.83424839583906" lon="11.304583625487998"><ele>1745.6666666666665</ele><time>2026-05-01T06:57:51.342Z</time></trkpt><trkpt lat="46.83418258390498" lon="11.304358302677619"><ele>1742.3333333333333</ele><time>2026-05-01T06:57:52.359Z</time></trkpt><trkpt lat="46.83409735" lon="11.304141766666666"><ele>1739.0</ele><time>2026-05-01T06:57:53.35Z</time></trkpt><trkpt lat="46.83401681666666" lon="11.303909500000001"><ele>1736.0</ele><time>2026-05-01T06:57:54.344Z</time></trkpt><trkpt lat="46.83392851666667" lon="11.303678849999999"><ele>1733.0</ele><time>2026-05-01T06:57:55.349Z</time></trkpt><trkpt lat="46.83384106666667" lon="11.303456983333334"><ele>1730.0</ele><time>2026-05-01T06:57:56.352Z</time></trkpt><trkpt lat="46.833760766666664" lon="11.30324275"><ele>1725.75</ele><time>2026-05-01T06:57:57.343Z</time></trkpt><trkpt lat="46.83369573333333" lon="11.303040583333331"><ele>1721.5</ele><time>2026-05-01T06:57:58.343Z</time></trkpt><trkpt lat="46.833660466666664" lon="11.302859816666668"><ele>1717.25</ele><time>2026-05-01T06:57:59.347Z</time></trkpt><trkpt lat="46.83363755" lon="11.30270645"><ele>1713.0</ele><time>2026-05-01T06:58:00.342Z</time></trkpt><trkpt lat="46.83360392250102" lon="11.302576782868735"><ele>1713.0</ele><time>2026-05-01T06:58:01.35Z</time></trkpt><trkpt lat="46.83351445" lon="11.302525256983671"><ele>1713.0000000000002</ele><time>2026-05-01T06:58:02.34Z</time></trkpt><trkpt lat="46.83341355295525" lon="11.302568470142159"><ele>1713.0000000000002</ele><time>2026-05-01T06:58:03.341Z</time></trkpt><trkpt lat="46.83335745001963" lon="11.302701699523634"><ele>1713.0</ele><time>2026-05-01T06:58:04.343Z</time></trkpt><trkpt lat="46.83335847201153" lon="11.302859492722543"><ele>1713.0</ele><time>2026-05-01T06:58:05.355Z</time></trkpt><trkpt lat="46.83341445" lon="11.303004083333335"><ele>1717.25</ele><time>2026-05-01T06:58:06.346Z</time></trkpt><trkpt lat="46.83347855" lon="11.30315638333333"><ele>1721.5</ele><time>2026-05-01T06:58:07.343Z</time></trkpt><trkpt lat="46.83353431666666" lon="11.3033275"><ele>1725.75</ele><time>2026-05-01T06:58:08.344Z</time></trkpt><trkpt lat="46.83356703333334" lon="11.30353735"><ele>1730.0</ele><time>2026-05-01T06:58:09.343Z</time></trkpt><trkpt lat="46.833591283333334" lon="11.303783933333333"><ele>1732.25</ele><time>2026-05-01T06:58:10.355Z</time></trkpt><trkpt lat="46.83363214999999" lon="11.3040121"><ele>1734.5</ele><time>2026-05-01T06:58:11.351Z</time></trkpt><trkpt lat="46.83366325" lon="11.304221583333332"><ele>1736.75</ele><time>2026-05-01T06:58:12.344Z</time></trkpt><trkpt lat="46.833651683333336" lon="11.304412516666664"><ele>1739.0</ele><time>2026-05-01T06:58:13.343Z</time></trkpt><trkpt lat="46.83359058333334" lon="11.30457465"><ele>1739.0</ele><time>2026-05-01T06:58:14.351Z</time></trkpt><trkpt lat="46.83350910000001" lon="11.304722166666666"><ele>1739.0</ele><time>2026-05-01T06:58:15.35Z</time></trkpt><trkpt lat="46.83344883333332" lon="11.304886416666665"><ele>1739.0</ele><time>2026-05-01T06:58:16.355Z</time></trkpt><trkpt lat="46.83341423333333" lon="11.305067933333332"><ele>1739.0</ele><time>2026-05-01T06:58:17.36Z</time></trkpt><trkpt lat="46.833378833333335" lon="11.305249266666666"><ele>1736.0</ele><time>2026-05-01T06:58:18.342Z</time></trkpt><trkpt lat="46.83332146666667" lon="11.305409683333334"><ele>1733.0</ele><time>2026-05-01T06:58:19.354Z</time></trkpt><trkpt lat="46.83323346666666" lon="11.305520833333333"><ele>1730.0</ele><time>2026-05-01T06:58:20.343Z</time></trkpt><trkpt lat="46.83311681666667" lon="11.305576033333333"><ele>1727.0</ele><time>2026-05-01T06:58:21.344Z</time></trkpt><trkpt lat="46.83298348333332" lon="11.305597900000002"><ele>1727.0</ele><time>2026-05-01T06:58:22.355Z</time></trkpt><trkpt lat="46.832846450000005" lon="11.305601583333331"><ele>1727.0</ele><time>2026-05-01T06:58:23.351Z</time></trkpt><trkpt lat="46.832715549999996" lon="11.30557565"><ele>1727.0</ele><time>2026-05-01T06:58:24.345Z</time></trkpt><trkpt lat="46.83259095" lon="11.305536366666669"><ele>1727.0</ele><time>2026-05-01T06:58:25.379Z</time></trkpt><trkpt lat="46.83247544999999" lon="11.305526149999999"><ele>1721.0</ele><time>2026-05-01T06:58:26.352Z</time></trkpt><trkpt lat="46.83237336666666" lon="11.3055735"><ele>1715.0</ele><time>2026-05-01T06:58:27.357Z</time></trkpt><trkpt lat="46.832295083333335" lon="11.305697333333333"><ele>1709.0</ele><time>2026-05-01T06:58:28.362Z</time></trkpt><trkpt lat="46.832250783333336" lon="11.305882200000001"><ele>1703.0</ele><time>2026-05-01T06:58:29.351Z</time></trkpt><trkpt lat="46.832251899999996" lon="11.30610438333333"><ele>1703.0</ele><time>2026-05-01T06:58:30.343Z</time></trkpt><trkpt lat="46.83228328333333" lon="11.306350349999999"><ele>1703.0</ele><time>2026-05-01T06:58:31.356Z</time></trkpt><trkpt lat="46.83229506666667" lon="11.306624500000002"><ele>1703.0</ele><time>2026-05-01T06:58:32.354Z</time></trkpt><trkpt lat="46.83225983333333" lon="11.306922266666668"><ele>1704.3333333333333</ele><time>2026-05-01T06:58:33.35Z</time></trkpt><trkpt lat="46.83220363333333" lon="11.307233483333334"><ele>1705.6666666666665</ele><time>2026-05-01T06:58:34.356Z</time></trkpt><trkpt lat="46.832155183333334" lon="11.307552216666668"><ele>1707.0</ele><time>2026-05-01T06:58:35.358Z</time></trkpt><trkpt lat="46.832125866666665" lon="11.307856766666664"><ele>1706.6666666666665</ele><time>2026-05-01T06:58:36.35Z</time></trkpt><trkpt lat="46.83210268333334" lon="11.308134883333333"><ele>1706.3333333333333</ele><time>2026-05-01T06:58:37.361Z</time></trkpt><trkpt lat="46.832071283333335" lon="11.308372783333333"><ele>1706.0</ele><time>2026-05-01T06:58:38.365Z</time></trkpt><trkpt lat="46.83201408333333" lon="11.308574066666665"><ele>1706.0</ele><time>2026-05-01T06:58:39.343Z</time></trkpt><trkpt lat="46.83192141666667" lon="11.308738549999998"><ele>1706.0</ele><time>2026-05-01T06:58:40.354Z</time></trkpt><trkpt lat="46.831816700000005" lon="11.3088899"><ele>1706.0</ele><time>2026-05-01T06:58:41.35Z</time></trkpt><trkpt lat="46.83172983333334" lon="11.309056700000001"><ele>1706.0</ele><time>2026-05-01T06:58:42.344Z</time></trkpt><trkpt lat="46.83167650000001" lon="11.309234516666667"><ele>1703.0</ele><time>2026-05-01T06:58:43.355Z</time></trkpt><trkpt lat="46.83166346666667" lon="11.309415733333333"><ele>1700.0</ele><time>2026-05-01T06:58:44.353Z</time></trkpt><trkpt lat="46.83166801666666" lon="11.309586116666667"><ele>1697.0</ele><time>2026-05-01T06:58:45.345Z</time></trkpt><trkpt lat="46.831646150000005" lon="11.309724633333333"><ele>1694.0</ele><time>2026-05-01T06:58:46.352Z</time></trkpt><trkpt lat="46.83157995" lon="11.309824466666665"><ele>1691.0</ele><time>2026-05-01T06:58:47.343Z</time></trkpt><trkpt lat="46.83147761666667" lon="11.309858249999998"><ele>1691.0</ele><time>2026-05-01T06:58:48.342Z</time></trkpt><trkpt lat="46.831358200000004" lon="11.309812566666668"><ele>1691.0</ele><time>2026-05-01T06:58:49.341Z</time></trkpt><trkpt lat="46.83123628333333" lon="11.3097275"><ele>1691.0</ele><time>2026-05-01T06:58:50.381Z</time></trkpt><trkpt lat="46.83110919691266" lon="11.309646498176315"><ele>1691.0</ele><time>2026-05-01T06:58:51.342Z</time></trkpt><trkpt lat="46.83097312933485" lon="11.309651943676068"><ele>1685.25</ele><time>2026-05-01T06:58:52.356Z</time></trkpt><trkpt lat="46.830836" lon="11.309700916666667"><ele>1679.5</ele><time>2026-05-01T06:58:53.351Z</time></trkpt><trkpt lat="46.83069463333333" lon="11.30974365"><ele>1673.75</ele><time>2026-05-01T06:58:54.342Z</time></trkpt><trkpt lat="46.83056293333334" lon="11.309830600000003"><ele>1668.0</ele><time>2026-05-01T06:58:55.355Z</time></trkpt><trkpt lat="46.83043814071603" lon="11.30993719136434"><ele>1668.0</ele><time>2026-05-01T06:58:56.351Z</time></trkpt><trkpt lat="46.83037493333333" lon="11.310114366666667"><ele>1668.0</ele><time>2026-05-01T06:58:57.342Z</time></trkpt><trkpt lat="46.8303289" lon="11.310287833333332"><ele>1668.0</ele><time>2026-05-01T06:58:58.356Z</time></trkpt><trkpt lat="46.830295066666665" lon="11.310458333333333"><ele>1668.0</ele><time>2026-05-01T06:58:59.343Z</time></trkpt><trkpt lat="46.830253516666666" lon="11.310613750000002"><ele>1664.75</ele><time>2026-05-01T06:59:00.342Z</time></trkpt><trkpt lat="46.83018233333333" lon="11.310733483333335"><ele>1661.5</ele><time>2026-05-01T06:59:01.355Z</time></trkpt><trkpt lat="46.8300758" lon="11.310804816666666"><ele>1658.25</ele><time>2026-05-01T06:59:02.357Z</time></trkpt><trkpt lat="46.82995172565253" lon="11.31080132902029"><ele>1655.0</ele><time>2026-05-01T06:59:03.349Z</time></trkpt><trkpt lat="46.82983387467381" lon="11.310824542762978"><ele>1655.0</ele><time>2026-05-01T06:59:04.341Z</time></trkpt><trkpt lat="46.829728460439526" lon="11.310906118532518"><ele>1655.0</ele><time>2026-05-01T06:59:05.354Z</time></trkpt><trkpt lat="46.82966287269379" lon="11.311042092534796"><ele>1655.0</ele><time>2026-05-01T06:59:06.351Z</time></trkpt><trkpt lat="46.82965155175018" lon="11.311198883085503"><ele>1655.0</ele><time>2026-05-01T06:59:07.355Z</time></trkpt><trkpt lat="46.829682850000005" lon="11.311359316666667"><ele>1658.5</ele><time>2026-05-01T06:59:08.359Z</time></trkpt><trkpt lat="46.829712883333336" lon="11.311536166666667"><ele>1662.0</ele><time>2026-05-01T06:59:09.343Z</time></trkpt><trkpt lat="46.82973458333332" lon="11.31173725"><ele>1665.5</ele><time>2026-05-01T06:59:10.355Z</time></trkpt><trkpt lat="46.8297171" lon="11.311955216666668"><ele>1669.0</ele><time>2026-05-01T06:59:11.356Z</time></trkpt><trkpt lat="46.82965420000001" lon="11.312168283333332"><ele>1671.6666666666667</ele><time>2026-05-01T06:59:12.343Z</time></trkpt><trkpt lat="46.829558966666674" lon="11.312366166666669"><ele>1674.3333333333335</ele><time>2026-05-01T06:59:13.352Z</time></trkpt><trkpt lat="46.82944973333333" lon="11.312553"><ele>1677.0</ele><time>2026-05-01T06:59:14.35Z</time></trkpt><trkpt lat="46.82934923333334" lon="11.312728683333335"><ele>1671.25</ele><time>2026-05-01T06:59:15.342Z</time></trkpt><trkpt lat="46.82927043333334" lon="11.312906533333335"><ele>1665.5</ele><time>2026-05-01T06:59:16.354Z</time></trkpt><trkpt lat="46.82919656666667" lon="11.313068933333334"><ele>1659.75</ele><time>2026-05-01T06:59:17.355Z</time></trkpt><trkpt lat="46.82910530000001" lon="11.313191400000003"><ele>1654.0</ele><time>2026-05-01T06:59:18.343Z</time></trkpt><trkpt lat="46.828985599999996" lon="11.313276216666669"><ele>1654.0</ele><time>2026-05-01T06:59:19.351Z</time></trkpt><trkpt lat="46.828832733333336" lon="11.31334335"><ele>1654.0</ele><time>2026-05-01T06:59:20.352Z</time></trkpt><trkpt lat="46.82867198333334" lon="11.313414850000001"><ele>1654.0</ele><time>2026-05-01T06:59:21.344Z</time></trkpt><trkpt lat="46.82854008333334" lon="11.313513433333332"><ele>1650.25</ele><time>2026-05-01T06:59:22.366Z</time></trkpt><trkpt lat="46.8284271" lon="11.313633916666667"><ele>1646.5</ele><time>2026-05-01T06:59:23.351Z</time></trkpt><trkpt lat="46.82831604999999" lon="11.313748766666668"><ele>1642.75</ele><time>2026-05-01T06:59:24.345Z</time></trkpt><trkpt lat="46.82820375" lon="11.313847116666667"><ele>1639.0</ele><time>2026-05-01T06:59:25.346Z</time></trkpt><trkpt lat="46.828103799999994" lon="11.313938516666669"><ele>1639.0</ele><time>2026-05-01T06:59:26.353Z</time></trkpt><trkpt lat="46.82804403333333" lon="11.314053049999998"><ele>1639.0</ele><time>2026-05-01T06:59:27.34Z</time></trkpt><trkpt lat="46.82803438333334" lon="11.314195166666666"><ele>1639.0</ele><time>2026-05-01T06:59:28.346Z</time></trkpt><trkpt lat="46.82804606666667" lon="11.31432645"><ele>1639.0</ele><time>2026-05-01T06:59:29.378Z</time></trkpt><trkpt lat="46.82804809999999" lon="11.31443963333333"><ele>1639.0</ele><time>2026-05-01T06:59:30.347Z</time></trkpt><trkpt lat="46.827969100000004" lon="11.314531283333334"><ele>1639.0</ele><time>2026-05-01T06:59:32.354Z</time></trkpt><trkpt lat="46.82792900755028" lon="11.314362052527903"><ele>1639.0</ele><time>2026-05-01T06:59:34.344Z</time></trkpt><trkpt lat="46.82796542435952" lon="11.314206030866945"><ele>1639.0</ele><time>2026-05-01T06:59:35.342Z</time></trkpt><trkpt lat="46.82797829326679" lon="11.31404235898554"><ele>1639.0</ele><time>2026-05-01T06:59:36.352Z</time></trkpt><trkpt lat="46.82800038599292" lon="11.31391918055455"><ele>1639.0</ele><time>2026-05-01T06:59:37.346Z</time></trkpt><trkpt lat="46.82805780025108" lon="11.313819765084704"><ele>1633.75</ele><time>2026-05-01T06:59:38.355Z</time></trkpt><trkpt lat="46.82815782741739" lon="11.313728212166032"><ele>1628.5</ele><time>2026-05-01T06:59:39.343Z</time></trkpt><trkpt lat="46.82825286295712" lon="11.313571337673784"><ele>1623.25</ele><time>2026-05-01T06:59:40.341Z</time></trkpt><trkpt lat="46.82832594983809" lon="11.313412418440734"><ele>1618.0</ele><time>2026-05-01T06:59:41.353Z</time></trkpt><trkpt lat="46.828401272115926" lon="11.31328186174171"><ele>1620.2</ele><time>2026-05-01T06:59:42.346Z</time></trkpt><trkpt lat="46.82848639849707" lon="11.313176214673735"><ele>1622.4</ele><time>2026-05-01T06:59:43.352Z</time></trkpt><trkpt lat="46.82856878986012" lon="11.313102519437624"><ele>1624.6000000000001</ele><time>2026-05-01T06:59:44.341Z</time></trkpt><trkpt lat="46.82865555" lon="11.313035583333333"><ele>1626.8000000000002</ele><time>2026-05-01T06:59:45.343Z</time></trkpt><trkpt lat="46.828772618834705" lon="11.313025346768777"><ele>1629.0</ele><time>2026-05-01T06:59:46.344Z</time></trkpt><trkpt lat="46.828868180393115" lon="11.312908055900154"><ele>1629.0</ele><time>2026-05-01T06:59:47.354Z</time></trkpt><trkpt lat="46.82893453445672" lon="11.312735047475163"><ele>1629.0</ele><time>2026-05-01T06:59:48.342Z</time></trkpt><trkpt lat="46.828976929680984" lon="11.312542607764728"><ele>1629.0</ele><time>2026-05-01T06:59:49.341Z</time></trkpt><trkpt lat="46.829015148402775" lon="11.312332237074807"><ele>1629.0</ele><time>2026-05-01T06:59:50.356Z</time></trkpt><trkpt lat="46.82904866217089" lon="11.312120724264053"><ele>1627.5</ele><time>2026-05-01T06:59:51.342Z</time></trkpt><trkpt lat="46.82906645426249" lon="11.311892223828114"><ele>1626.0</ele><time>2026-05-01T06:59:52.352Z</time></trkpt><trkpt lat="46.829024413449666" lon="11.311700677957552"><ele>1624.5</ele><time>2026-05-01T06:59:53.356Z</time></trkpt><trkpt lat="46.828979789468136" lon="11.311539217729045"><ele>1623.0</ele><time>2026-05-01T06:59:54.341Z</time></trkpt><trkpt lat="46.82896144876497" lon="11.31137837630717"><ele>1623.0</ele><time>2026-05-01T06:59:55.343Z</time></trkpt><trkpt lat="46.82897335447608" lon="11.311206748240203"><ele>1623.0</ele><time>2026-05-01T06:59:56.351Z</time></trkpt><trkpt lat="46.82898455563949" lon="11.311026064154566"><ele>1623.0</ele><time>2026-05-01T06:59:57.342Z</time></trkpt><trkpt lat="46.82897449630296" lon="11.310832310698588"><ele>1623.0</ele><time>2026-05-01T06:59:58.355Z</time></trkpt><trkpt lat="46.82892326652833" lon="11.310651135212812"><ele>1620.0</ele><time>2026-05-01T06:59:59.35Z</time></trkpt><trkpt lat="46.82883643333333" lon="11.310510233333332"><ele>1617.0</ele><time>2026-05-01T07:00:00.342Z</time></trkpt><trkpt lat="46.828773266666666" lon="11.310359916666668"><ele>1614.0</ele><time>2026-05-01T07:00:01.364Z</time></trkpt><trkpt lat="46.82874538333334" lon="11.310194483333332"><ele>1611.0</ele><time>2026-05-01T07:00:02.358Z</time></trkpt><trkpt lat="46.828766449999996" lon="11.31004185"><ele>1611.0</ele><time>2026-05-01T07:00:03.357Z</time></trkpt><trkpt lat="46.828821516666665" lon="11.309888683333334"><ele>1611.0</ele><time>2026-05-01T07:00:04.342Z</time></trkpt><trkpt lat="46.82888366666666" lon="11.309722383333334"><ele>1611.0</ele><time>2026-05-01T07:00:05.361Z</time></trkpt><trkpt lat="46.828953133333336" lon="11.309562266666667"><ele>1611.0</ele><time>2026-05-01T07:00:06.342Z</time></trkpt><trkpt lat="46.829008333333334" lon="11.309399233333334"><ele>1607.5</ele><time>2026-05-01T07:00:07.356Z</time></trkpt><trkpt lat="46.82903806666666" lon="11.309228066666666"><ele>1604.0</ele><time>2026-05-01T07:00:08.354Z</time></trkpt><trkpt lat="46.82905843333333" lon="11.309047950000002"><ele>1600.5</ele><time>2026-05-01T07:00:09.34Z</time></trkpt><trkpt lat="46.829086049999994" lon="11.308872566666667"><ele>1597.0</ele><time>2026-05-01T07:00:10.34Z</time></trkpt><trkpt lat="46.82911918333332" lon="11.308709050000001"><ele>1597.0</ele><time>2026-05-01T07:00:11.355Z</time></trkpt><trkpt lat="46.82915979999999" lon="11.3085675"><ele>1597.0</ele><time>2026-05-01T07:00:12.349Z</time></trkpt><trkpt lat="46.82921556666666" lon="11.308448266666668"><ele>1597.0</ele><time>2026-05-01T07:00:13.343Z</time></trkpt><trkpt lat="46.82928833333334" lon="11.308364116666667"><ele>1597.0</ele><time>2026-05-01T07:00:14.35Z</time></trkpt><trkpt lat="46.829382933333335" lon="11.308323033333332"><ele>1597.0</ele><time>2026-05-01T07:00:15.342Z</time></trkpt><trkpt lat="46.82949505" lon="11.30831105"><ele>1597.0</ele><time>2026-05-01T07:00:16.355Z</time></trkpt><trkpt lat="46.82962255000001" lon="11.308296416666668"><ele>1597.0</ele><time>2026-05-01T07:00:17.351Z</time></trkpt><trkpt lat="46.829758516666665" lon="11.308249850000001"><ele>1597.0</ele><time>2026-05-01T07:00:18.342Z</time></trkpt><trkpt lat="46.829889466666664" lon="11.308161983333333"><ele>1597.0</ele><time>2026-05-01T07:00:19.343Z</time></trkpt><trkpt lat="46.83000019999999" lon="11.308046816666668"><ele>1602.5</ele><time>2026-05-01T07:00:20.352Z</time></trkpt><trkpt lat="46.83008288333334" lon="11.307918800000001"><ele>1608.0</ele><time>2026-05-01T07:00:21.346Z</time></trkpt><trkpt lat="46.83014530765245" lon="11.307789873146755"><ele>1613.5</ele><time>2026-05-01T07:00:22.342Z</time></trkpt><trkpt lat="46.83015950788145" lon="11.307632976012435"><ele>1619.0</ele><time>2026-05-01T07:00:23.345Z</time></trkpt><trkpt lat="46.83011379277514" lon="11.307478794349889"><ele>1607.75</ele><time>2026-05-01T07:00:24.343Z</time></trkpt><trkpt lat="46.83005006666667" lon="11.307337733333334"><ele>1596.5</ele><time>2026-05-01T07:00:25.343Z</time></trkpt><trkpt lat="46.83003201666667" lon="11.307168999999998"><ele>1585.25</ele><time>2026-05-01T07:00:26.369Z</time></trkpt><trkpt lat="46.83005633333334" lon="11.306990616666667"><ele>1574.0</ele><time>2026-05-01T07:00:27.342Z</time></trkpt><trkpt lat="46.83008628333334" lon="11.306787583333335"><ele>1574.3333333333333</ele><time>2026-05-01T07:00:28.363Z</time></trkpt><trkpt lat="46.830085966666665" lon="11.306550899999998"><ele>1574.6666666666665</ele><time>2026-05-01T07:00:29.353Z</time></trkpt><trkpt lat="46.83007145" lon="11.306293516666665"><ele>1575.0</ele><time>2026-05-01T07:00:30.344Z</time></trkpt><trkpt lat="46.830039299999996" lon="11.306018483333332"><ele>1575.0</ele><time>2026-05-01T07:00:31.343Z</time></trkpt><trkpt lat="46.82997919999999" lon="11.305730066666667"><ele>1575.0</ele><time>2026-05-01T07:00:32.352Z</time></trkpt><trkpt lat="46.82991206666667" lon="11.305444283333335"><ele>1575.0</ele><time>2026-05-01T07:00:33.344Z</time></trkpt><trkpt lat="46.82985296666667" lon="11.305169616666669"><ele>1576.3333333333335</ele><time>2026-05-01T07:00:34.351Z</time></trkpt><trkpt lat="46.82982208336533" lon="11.304901535098484"><ele>1577.6666666666667</ele><time>2026-05-01T07:00:35.359Z</time></trkpt><trkpt lat="46.82978776959712" lon="11.304650825918284"><ele>1579.0</ele><time>2026-05-01T07:00:36.344Z</time></trkpt><trkpt lat="46.829745564334466" lon="11.304419448806131"><ele>1579.5</ele><time>2026-05-01T07:00:37.352Z</time></trkpt><trkpt lat="46.82970142768303" lon="11.304194547144935"><ele>1580.0</ele><time>2026-05-01T07:00:38.361Z</time></trkpt><trkpt lat="46.829660494652074" lon="11.303986610852224"><ele>1580.5</ele><time>2026-05-01T07:00:39.342Z</time></trkpt><trkpt lat="46.82962570530526" lon="11.303808011644497"><ele>1581.0</ele><time>2026-05-01T07:00:40.356Z</time></trkpt><trkpt lat="46.82960196666666" lon="11.303658983333333"><ele>1578.25</ele><time>2026-05-01T07:00:41.355Z</time></trkpt><trkpt lat="46.82963671666666" lon="11.303514333333332"><ele>1575.5</ele><time>2026-05-01T07:00:42.356Z</time></trkpt><trkpt lat="46.82971214999999" lon="11.303367483333334"><ele>1572.75</ele><time>2026-05-01T07:00:43.351Z</time></trkpt><trkpt lat="46.82980956666667" lon="11.303223016666667"><ele>1570.0</ele><time>2026-05-01T07:00:44.362Z</time></trkpt><trkpt lat="46.82991429940533" lon="11.30310805343719"><ele>1566.75</ele><time>2026-05-01T07:00:45.34Z</time></trkpt><trkpt lat="46.82998422320106" lon="11.302954908618728"><ele>1563.5</ele><time>2026-05-01T07:00:46.352Z</time></trkpt><trkpt lat="46.82998436132413" lon="11.302783723648387"><ele>1560.25</ele><time>2026-05-01T07:00:47.352Z</time></trkpt><trkpt lat="46.82993450000001" lon="11.302640483333336"><ele>1557.0</ele><time>2026-05-01T07:00:48.343Z</time></trkpt><trkpt lat="46.829931083333335" lon="11.302471033333331"><ele>1557.0</ele><time>2026-05-01T07:00:49.344Z</time></trkpt><trkpt lat="46.82997452745008" lon="11.30227829999458"><ele>1557.0</ele><time>2026-05-01T07:00:50.353Z</time></trkpt><trkpt lat="46.83002706094059" lon="11.302051131744046"><ele>1557.0</ele><time>2026-05-01T07:00:51.351Z</time></trkpt><trkpt lat="46.83005543228164" lon="11.301788355216303"><ele>1553.3333333333335</ele><time>2026-05-01T07:00:52.341Z</time></trkpt><trkpt lat="46.83005834230485" lon="11.301515945266432"><ele>1549.6666666666667</ele><time>2026-05-01T07:00:53.351Z</time></trkpt><trkpt lat="46.8300548" lon="11.30124803333333"><ele>1546.0</ele><time>2026-05-01T07:00:54.351Z</time></trkpt><trkpt lat="46.83011880958496" lon="11.301006246973007"><ele>1557.6666666666667</ele><time>2026-05-01T07:00:55.365Z</time></trkpt><trkpt lat="46.83016864918255" lon="11.300771962719125"><ele>1569.3333333333335</ele><time>2026-05-01T07:00:56.344Z</time></trkpt><trkpt lat="46.830182416181515" lon="11.300534488539958"><ele>1581.0</ele><time>2026-05-01T07:00:57.35Z</time></trkpt><trkpt lat="46.8301502617377" lon="11.300305970624553"><ele>1569.5</ele><time>2026-05-01T07:00:58.402Z</time></trkpt><trkpt lat="46.83008443666978" lon="11.30010866119604"><ele>1558.0</ele><time>2026-05-01T07:00:59.344Z</time></trkpt><trkpt lat="46.82998822434159" lon="11.299957777749256"><ele>1546.5</ele><time>2026-05-01T07:01:00.351Z</time></trkpt><trkpt lat="46.82988268333334" lon="11.299836916666667"><ele>1535.0</ele><time>2026-05-01T07:01:01.365Z</time></trkpt><trkpt lat="46.8298074" lon="11.299680016666665"><ele>1534.75</ele><time>2026-05-01T07:01:02.353Z</time></trkpt><trkpt lat="46.829758899999995" lon="11.299511016666669"><ele>1534.5</ele><time>2026-05-01T07:01:03.35Z</time></trkpt><trkpt lat="46.82973426666667" lon="11.299335366666666"><ele>1534.25</ele><time>2026-05-01T07:01:04.364Z</time></trkpt><trkpt lat="46.829729216666664" lon="11.299157333333335"><ele>1534.0</ele><time>2026-05-01T07:01:05.345Z</time></trkpt><trkpt lat="46.829743416666666" lon="11.298979266666667"><ele>1532.8000000000002</ele><time>2026-05-01T07:01:06.352Z</time></trkpt><trkpt lat="46.82977606666667" lon="11.298813483333332"><ele>1531.6000000000001</ele><time>2026-05-01T07:01:07.37Z</time></trkpt><trkpt lat="46.829823149999996" lon="11.298668166666669"><ele>1530.4</ele><time>2026-05-01T07:01:08.344Z</time></trkpt><trkpt lat="46.82986935000001" lon="11.298535350000002"><ele>1529.2</ele><time>2026-05-01T07:01:09.358Z</time></trkpt><trkpt lat="46.82987935" lon="11.298408833333333"><ele>1528.0</ele><time>2026-05-01T07:01:10.364Z</time></trkpt><trkpt lat="46.82983791666667" lon="11.298305249999999"><ele>1528.0</ele><time>2026-05-01T07:01:11.346Z</time></trkpt><trkpt lat="46.829763852279925" lon="11.298227225547091"><ele>1528.0</ele><time>2026-05-01T07:01:12.351Z</time></trkpt><trkpt lat="46.82966246143035" lon="11.298256859795165"><ele>1528.0</ele><time>2026-05-01T07:01:13.364Z</time></trkpt><trkpt lat="46.82960018333333" lon="11.2983926"><ele>1528.0</ele><time>2026-05-01T07:01:14.348Z</time></trkpt><trkpt lat="46.82954483333333" lon="11.298545200000001"><ele>1528.0</ele><time>2026-05-01T07:01:15.351Z</time></trkpt><trkpt lat="46.8294823" lon="11.298707283333334"><ele>1528.0</ele><time>2026-05-01T07:01:16.343Z</time></trkpt><trkpt lat="46.8293909" lon="11.298861316666668"><ele>1528.0</ele><time>2026-05-01T07:01:17.344Z</time></trkpt><trkpt lat="46.829274924140954" lon="11.298974944841294"><ele>1528.0</ele><time>2026-05-01T07:01:18.351Z</time></trkpt><trkpt lat="46.82917359650643" lon="11.299094619657074"><ele>1528.0</ele><time>2026-05-01T07:01:19.365Z</time></trkpt><trkpt lat="46.82907860629117" lon="11.299225496316085"><ele>1523.5</ele><time>2026-05-01T07:01:20.343Z</time></trkpt><trkpt lat="46.82901421361001" lon="11.299390178446739"><ele>1519.0</ele><time>2026-05-01T07:01:21.35Z</time></trkpt><trkpt lat="46.82899798333333" lon="11.299582816666668"><ele>1514.5</ele><time>2026-05-01T07:01:22.364Z</time></trkpt><trkpt lat="46.82900514999999" lon="11.299772766666667"><ele>1510.0</ele><time>2026-05-01T07:01:23.344Z</time></trkpt><trkpt lat="46.82904078830146" lon="11.299961828661088"><ele>1509.0</ele><time>2026-05-01T07:01:24.351Z</time></trkpt><trkpt lat="46.8291398" lon="11.300102833333336"><ele>1508.0</ele><time>2026-05-01T07:01:25.34Z</time></trkpt><trkpt lat="46.82923228333334" lon="11.300248099999997"><ele>1507.0</ele><time>2026-05-01T07:01:26.344Z</time></trkpt><trkpt lat="46.829296250000006" lon="11.300400416666665"><ele>1506.0</ele><time>2026-05-01T07:01:27.35Z</time></trkpt><trkpt lat="46.82931158333334" lon="11.3005778"><ele>1504.25</ele><time>2026-05-01T07:01:28.364Z</time></trkpt><trkpt lat="46.82929473333334" lon="11.300771233333334"><ele>1502.5</ele><time>2026-05-01T07:01:29.342Z</time></trkpt><trkpt lat="46.829254323482466" lon="11.300957991637175"><ele>1500.75</ele><time>2026-05-01T07:01:30.356Z</time></trkpt><trkpt lat="46.8292740713147" lon="11.30115299072559"><ele>1499.0</ele><time>2026-05-01T07:01:31.365Z</time></trkpt><trkpt lat="46.82932915" lon="11.301339183333335"><ele>1498.5</ele><time>2026-05-01T07:01:32.344Z</time></trkpt><trkpt lat="46.829357683333335" lon="11.301547916666667"><ele>1498.0</ele><time>2026-05-01T07:01:33.358Z</time></trkpt><trkpt lat="46.8293495" lon="11.301748233333335"><ele>1497.5</ele><time>2026-05-01T07:01:34.366Z</time></trkpt><trkpt lat="46.8292924" lon="11.301919966666667"><ele>1497.0</ele><time>2026-05-01T07:01:35.343Z</time></trkpt><trkpt lat="46.82921963333333" lon="11.302074083333332"><ele>1497.0</ele><time>2026-05-01T07:01:36.35Z</time></trkpt><trkpt lat="46.829179833333335" lon="11.302233899999997"><ele>1497.0</ele><time>2026-05-01T07:01:37.377Z</time></trkpt><trkpt lat="46.8291892" lon="11.30239325"><ele>1497.0</ele><time>2026-05-01T07:01:38.343Z</time></trkpt><trkpt lat="46.82921591666666" lon="11.302544266666667"><ele>1497.0</ele><time>2026-05-01T07:01:39.361Z</time></trkpt><trkpt lat="46.82921425" lon="11.302680816666669"><ele>1497.0</ele><time>2026-05-01T07:01:40.364Z</time></trkpt><trkpt lat="46.82915644999999" lon="11.302803916666667"><ele>1497.0</ele><time>2026-05-01T07:01:41.346Z</time></trkpt><trkpt lat="46.82906083333334" lon="11.302931983333334"><ele>1497.0</ele><time>2026-05-01T07:01:42.368Z</time></trkpt><trkpt lat="46.82897381666667" lon="11.30308045"><ele>1497.0</ele><time>2026-05-01T07:01:43.364Z</time></trkpt><trkpt lat="46.82889126666667" lon="11.3032589"><ele>1497.0</ele><time>2026-05-01T07:01:44.348Z</time></trkpt><trkpt lat="46.828805166666676" lon="11.30343745"><ele>1499.75</ele><time>2026-05-01T07:01:45.351Z</time></trkpt><trkpt lat="46.828727" lon="11.303612950000002"><ele>1502.5</ele><time>2026-05-01T07:01:46.366Z</time></trkpt><trkpt lat="46.8286666" lon="11.303796216666667"><ele>1505.25</ele><time>2026-05-01T07:01:47.345Z</time></trkpt><trkpt lat="46.828623500000006" lon="11.303994833333334"><ele>1508.0</ele><time>2026-05-01T07:01:48.36Z</time></trkpt><trkpt lat="46.828587649999996" lon="11.3042102"><ele>1510.0</ele><time>2026-05-01T07:01:49.364Z</time></trkpt><trkpt lat="46.82855854999999" lon="11.304436033333332"><ele>1512.0</ele><time>2026-05-01T07:01:50.344Z</time></trkpt><trkpt lat="46.82853981666667" lon="11.304676183333335"><ele>1514.0</ele><time>2026-05-01T07:01:51.351Z</time></trkpt><trkpt lat="46.828530366666676" lon="11.304924533333335"><ele>1514.0</ele><time>2026-05-01T07:01:52.367Z</time></trkpt><trkpt lat="46.82852908333333" lon="11.305165866666668"><ele>1514.0</ele><time>2026-05-01T07:01:53.344Z</time></trkpt><trkpt lat="46.82853208333333" lon="11.305392216666666"><ele>1514.0</ele><time>2026-05-01T07:01:54.353Z</time></trkpt><trkpt lat="46.828540000000004" lon="11.30560725"><ele>1513.8000000000002</ele><time>2026-05-01T07:01:55.364Z</time></trkpt><trkpt lat="46.82855601666667" lon="11.305807066666667"><ele>1513.6000000000001</ele><time>2026-05-01T07:01:56.343Z</time></trkpt><trkpt lat="46.8285823" lon="11.305980966666668"><ele>1513.4</ele><time>2026-05-01T07:01:57.346Z</time></trkpt><trkpt lat="46.82859226666666" lon="11.306128999999999"><ele>1513.2</ele><time>2026-05-01T07:01:58.367Z</time></trkpt><trkpt lat="46.82856056666666" lon="11.306239699999999"><ele>1513.0</ele><time>2026-05-01T07:01:59.344Z</time></trkpt><trkpt lat="46.82849598333334" lon="11.30630056666667"><ele>1502.6000000000001</ele><time>2026-05-01T07:02:00.351Z</time></trkpt><trkpt lat="46.82841438333333" lon="11.30630965"><ele>1492.2</ele><time>2026-05-01T07:02:01.348Z</time></trkpt><trkpt lat="46.828321733333325" lon="11.306279433333335"><ele>1481.8</ele><time>2026-05-01T07:02:02.369Z</time></trkpt><trkpt lat="46.82821831666667" lon="11.306238416666668"><ele>1471.4</ele><time>2026-05-01T07:02:03.349Z</time></trkpt><trkpt lat="46.8281163" lon="11.306235033333333"><ele>1461.0</ele><time>2026-05-01T07:02:04.365Z</time></trkpt><trkpt lat="46.82802218333333" lon="11.306285283333333"><ele>1461.0</ele><time>2026-05-01T07:02:05.35Z</time></trkpt><trkpt lat="46.82793865000001" lon="11.306393116666667"><ele>1461.0</ele><time>2026-05-01T07:02:06.344Z</time></trkpt><trkpt lat="46.82785565000001" lon="11.306545750000002"><ele>1461.0</ele><time>2026-05-01T07:02:07.366Z</time></trkpt><trkpt lat="46.82776526666667" lon="11.3067211"><ele>1461.0</ele><time>2026-05-01T07:02:08.359Z</time></trkpt><trkpt lat="46.82765818333334" lon="11.306917099999998"><ele>1463.3333333333333</ele><time>2026-05-01T07:02:09.351Z</time></trkpt><trkpt lat="46.82754655" lon="11.307131350000002"><ele>1465.6666666666665</ele><time>2026-05-01T07:02:10.364Z</time></trkpt><trkpt lat="46.82743181666667" lon="11.30734925"><ele>1468.0</ele><time>2026-05-01T07:02:11.342Z</time></trkpt><trkpt lat="46.82731551666667" lon="11.307571549999999"><ele>1468.0</ele><time>2026-05-01T07:02:12.355Z</time></trkpt><trkpt lat="46.82720251666667" lon="11.307789766666668"><ele>1468.0</ele><time>2026-05-01T07:02:13.366Z</time></trkpt><trkpt lat="46.827094866666656" lon="11.307993500000002"><ele>1468.0</ele><time>2026-05-01T07:02:14.341Z</time></trkpt><trkpt lat="46.8269923" lon="11.308191383333334"><ele>1474.6666666666665</ele><time>2026-05-01T07:02:15.341Z</time></trkpt><trkpt lat="46.82689461666667" lon="11.308382900000002"><ele>1481.3333333333333</ele><time>2026-05-01T07:02:16.367Z</time></trkpt><trkpt lat="46.8268002" lon="11.30857135"><ele>1488.0</ele><time>2026-05-01T07:02:17.348Z</time></trkpt><trkpt lat="46.82671103333334" lon="11.308749866666668"><ele>1479.25</ele><time>2026-05-01T07:02:18.343Z</time></trkpt><trkpt lat="46.82661326044427" lon="11.308913219683996"><ele>1470.5</ele><time>2026-05-01T07:02:19.366Z</time></trkpt><trkpt lat="46.82653861115525" lon="11.309097220864315"><ele>1461.75</ele><time>2026-05-01T07:02:20.364Z</time></trkpt><trkpt lat="46.82646882773961" lon="11.30928022000137"><ele>1453.0</ele><time>2026-05-01T07:02:21.351Z</time></trkpt><trkpt lat="46.82640208834532" lon="11.309455069091417"><ele>1453.0</ele><time>2026-05-01T07:02:22.364Z</time></trkpt><trkpt lat="46.82633831386821" lon="11.309620759266986"><ele>1453.0</ele><time>2026-05-01T07:02:23.344Z</time></trkpt><trkpt lat="46.82627533488055" lon="11.309783271252742"><ele>1453.0</ele><time>2026-05-01T07:02:24.359Z</time></trkpt><trkpt lat="46.82623355383029" lon="11.30994974009283"><ele>1453.0</ele><time>2026-05-01T07:02:25.364Z</time></trkpt><trkpt lat="46.82621127406492" lon="11.31011147433989"><ele>1456.0</ele><time>2026-05-01T07:02:26.361Z</time></trkpt><trkpt lat="46.82619946190289" lon="11.310243748039609"><ele>1459.0</ele><time>2026-05-01T07:02:27.35Z</time></trkpt><trkpt lat="46.82614851666667" lon="11.310385783333333"><ele>1462.0</ele><time>2026-05-01T07:02:29.352Z</time></trkpt><trkpt lat="46.82605778333333" lon="11.310272249999999"><ele>1465.0</ele><time>2026-05-01T07:02:31.343Z</time></trkpt><trkpt lat="46.82607674999999" lon="11.310168749999999"><ele>1468.0</ele><time>2026-05-01T07:02:32.351Z</time></trkpt><trkpt lat="46.826125633333334" lon="11.310066083333334"><ele>1468.0</ele><time>2026-05-01T07:02:33.351Z</time></trkpt><trkpt lat="46.826166349999994" lon="11.309954216666664"><ele>1468.0</ele><time>2026-05-01T07:02:34.399Z</time></trkpt><trkpt lat="46.82619151666666" lon="11.309822000000002"><ele>1468.0</ele><time>2026-05-01T07:02:35.344Z</time></trkpt><trkpt lat="46.826213016666664" lon="11.309678466666666"><ele>1468.0</ele><time>2026-05-01T07:02:36.343Z</time></trkpt><trkpt lat="46.826234400000004" lon="11.309525916666667"><ele>1468.0</ele><time>2026-05-01T07:02:37.364Z</time></trkpt><trkpt lat="46.82625928333333" lon="11.309371216666667"><ele>1464.25</ele><time>2026-05-01T07:02:38.347Z</time></trkpt><trkpt lat="46.826283849999996" lon="11.309210550000001"><ele>1460.5</ele><time>2026-05-01T07:02:39.35Z</time></trkpt><trkpt lat="46.82631020000001" lon="11.309042366666667"><ele>1456.75</ele><time>2026-05-01T07:02:40.366Z</time></trkpt><trkpt lat="46.82633941666666" lon="11.308866116666666"><ele>1453.0</ele><time>2026-05-01T07:02:41.344Z</time></trkpt><trkpt lat="46.82637013333333" lon="11.308687333333333"><ele>1449.0</ele><time>2026-05-01T07:02:42.352Z</time></trkpt><trkpt lat="46.82640163333334" lon="11.308509833333336"><ele>1445.0</ele><time>2026-05-01T07:02:43.368Z</time></trkpt><trkpt lat="46.82643141666667" lon="11.308330499999999"><ele>1441.0</ele><time>2026-05-01T07:02:44.365Z</time></trkpt><trkpt lat="46.826474433429276" lon="11.308154385709393"><ele>1437.0</ele><time>2026-05-01T07:02:45.351Z</time></trkpt><trkpt lat="46.82650018389695" lon="11.307969261899721"><ele>1433.0</ele><time>2026-05-01T07:02:46.366Z</time></trkpt><trkpt lat="46.82651719710394" lon="11.307784967486178"><ele>1429.0</ele><time>2026-05-01T07:02:47.347Z</time></trkpt><trkpt lat="46.82652863965823" lon="11.30760729576761"><ele>1425.0</ele><time>2026-05-01T07:02:48.35Z</time></trkpt><trkpt lat="46.82653826167936" lon="11.307432137348847"><ele>1421.0</ele><time>2026-05-01T07:02:49.366Z</time></trkpt><trkpt lat="46.826546160994404" lon="11.307265036880136"><ele>1418.0</ele><time>2026-05-01T07:02:50.358Z</time></trkpt><trkpt lat="46.826554266641615" lon="11.307093567745637"><ele>1415.0</ele><time>2026-05-01T07:02:51.357Z</time></trkpt><trkpt lat="46.82654878333333" lon="11.306915599999998"><ele>1412.0</ele><time>2026-05-01T07:02:52.343Z</time></trkpt><trkpt lat="46.82656815000001" lon="11.306731516666666"><ele>1409.0</ele><time>2026-05-01T07:02:53.344Z</time></trkpt><trkpt lat="46.82660176666667" lon="11.306540700000001"><ele>1407.0</ele><time>2026-05-01T07:02:54.343Z</time></trkpt><trkpt lat="46.826644550000005" lon="11.306348716666665"><ele>1405.0</ele><time>2026-05-01T07:02:55.366Z</time></trkpt><trkpt lat="46.826691466666674" lon="11.306168600000001"><ele>1403.0</ele><time>2026-05-01T07:02:56.345Z</time></trkpt><trkpt lat="46.82675433333334" lon="11.306010733333334"><ele>1401.0</ele><time>2026-05-01T07:02:57.351Z</time></trkpt><trkpt lat="46.82683776666666" lon="11.305880583333332"><ele>1404.25</ele><time>2026-05-01T07:02:58.365Z</time></trkpt><trkpt lat="46.82694016625711" lon="11.305795160105093"><ele>1407.5</ele><time>2026-05-01T07:02:59.355Z</time></trkpt><trkpt lat="46.82703433643347" lon="11.305681386418904"><ele>1410.75</ele><time>2026-05-01T07:03:00.356Z</time></trkpt><trkpt lat="46.827106558998246" lon="11.3055029525591"><ele>1414.0</ele><time>2026-05-01T07:03:01.341Z</time></trkpt><trkpt lat="46.82714753333333" lon="11.305299816666667"><ele>1414.0</ele><time>2026-05-01T07:03:02.347Z</time></trkpt><trkpt lat="46.82721110364845" lon="11.30511866768964"><ele>1414.0</ele><time>2026-05-01T07:03:03.351Z</time></trkpt><trkpt lat="46.82724772293727" lon="11.304933883934948"><ele>1414.0</ele><time>2026-05-01T07:03:04.365Z</time></trkpt><trkpt lat="46.827250271266095" lon="11.304739329490863"><ele>1414.0</ele><time>2026-05-01T07:03:05.344Z</time></trkpt><trkpt lat="46.82722656666667" lon="11.304542966666668"><ele>1411.5</ele><time>2026-05-01T07:03:06.356Z</time></trkpt><trkpt lat="46.827226" lon="11.304334716666666"><ele>1409.0</ele><time>2026-05-01T07:03:07.365Z</time></trkpt><trkpt lat="46.82724363333334" lon="11.304125833333334"><ele>1406.5</ele><time>2026-05-01T07:03:08.343Z</time></trkpt><trkpt lat="46.82727393333333" lon="11.303927316666666"><ele>1404.0</ele><time>2026-05-01T07:03:09.352Z</time></trkpt><trkpt lat="46.827283933333334" lon="11.303731183333332"><ele>1403.0</ele><time>2026-05-01T07:03:10.365Z</time></trkpt><trkpt lat="46.8272633" lon="11.3035335"><ele>1402.0</ele><time>2026-05-01T07:03:11.344Z</time></trkpt><trkpt lat="46.8272257" lon="11.303331366666663"><ele>1401.0</ele><time>2026-05-01T07:03:12.353Z</time></trkpt><trkpt lat="46.82718658333333" lon="11.303134150000002"><ele>1400.0</ele><time>2026-05-01T07:03:13.367Z</time></trkpt><trkpt lat="46.827151766666674" lon="11.302947516666665"><ele>1400.0</ele><time>2026-05-01T07:03:14.345Z</time></trkpt><trkpt lat="46.827118166666665" lon="11.302763833333332"><ele>1400.0</ele><time>2026-05-01T07:03:15.358Z</time></trkpt><trkpt lat="46.8270858" lon="11.302583049999997"><ele>1400.0</ele><time>2026-05-01T07:03:16.365Z</time></trkpt><trkpt lat="46.827074483333334" lon="11.302413083333333"><ele>1400.0</ele><time>2026-05-01T07:03:17.345Z</time></trkpt><trkpt lat="46.827095883333335" lon="11.302249016666666"><ele>1400.4</ele><time>2026-05-01T07:03:18.359Z</time></trkpt><trkpt lat="46.82715175" lon="11.3021108"><ele>1400.8</ele><time>2026-05-01T07:03:19.364Z</time></trkpt><trkpt lat="46.82723165000001" lon="11.302007416666667"><ele>1401.1999999999998</ele><time>2026-05-01T07:03:20.343Z</time></trkpt><trkpt lat="46.82730320000001" lon="11.301911333333331"><ele>1401.6</ele><time>2026-05-01T07:03:21.353Z</time></trkpt><trkpt lat="46.82733766666667" lon="11.301798116666665"><ele>1402.0</ele><time>2026-05-01T07:03:22.343Z</time></trkpt><trkpt lat="46.82732321666668" lon="11.301668733333333"><ele>1402.0</ele><time>2026-05-01T07:03:23.348Z</time></trkpt><trkpt lat="46.82727861666667" lon="11.301539366666669"><ele>1402.0</ele><time>2026-05-01T07:03:24.359Z</time></trkpt><trkpt lat="46.82722281666667" lon="11.30139005"><ele>1402.0</ele><time>2026-05-01T07:03:25.366Z</time></trkpt><trkpt lat="46.827181" lon="11.301210633333335"><ele>1402.0</ele><time>2026-05-01T07:03:26.353Z</time></trkpt><trkpt lat="46.827150816666666" lon="11.300994266666665"><ele>1402.3333333333333</ele><time>2026-05-01T07:03:27.351Z</time></trkpt><trkpt lat="46.82711805" lon="11.300742983333336"><ele>1402.6666666666667</ele><time>2026-05-01T07:03:28.366Z</time></trkpt><trkpt lat="46.82708471666667" lon="11.300464666666668"><ele>1403.0</ele><time>2026-05-01T07:03:29.345Z</time></trkpt><trkpt lat="46.82704820000001" lon="11.300156150000003"><ele>1403.0</ele><time>2026-05-01T07:03:30.355Z</time></trkpt><trkpt lat="46.82700743333333" lon="11.29982311666667"><ele>1403.0</ele><time>2026-05-01T07:03:31.343Z</time></trkpt><trkpt lat="46.826968333333326" lon="11.2994927"><ele>1402.6666666666667</ele><time>2026-05-01T07:03:32.354Z</time></trkpt><trkpt lat="46.82693293333333" lon="11.2991893"><ele>1402.3333333333333</ele><time>2026-05-01T07:03:33.346Z</time></trkpt><trkpt lat="46.826910299999994" lon="11.29890495"><ele>1402.0</ele><time>2026-05-01T07:03:34.343Z</time></trkpt><trkpt lat="46.826916166666656" lon="11.298632533333334"><ele>1402.0</ele><time>2026-05-01T07:03:35.353Z</time></trkpt><trkpt lat="46.8269456" lon="11.298355833333336"><ele>1402.0</ele><time>2026-05-01T07:03:36.351Z</time></trkpt><trkpt lat="46.82698491666667" lon="11.298061383333334"><ele>1402.0</ele><time>2026-05-01T07:03:37.342Z</time></trkpt><trkpt lat="46.82701826666666" lon="11.297761549999999"><ele>1398.6666666666665</ele><time>2026-05-01T07:03:38.344Z</time></trkpt><trkpt lat="46.82703648333332" lon="11.297473183333334"><ele>1395.3333333333333</ele><time>2026-05-01T07:03:39.351Z</time></trkpt><trkpt lat="46.82703901666667" lon="11.297196650000002"><ele>1392.0</ele><time>2026-05-01T07:03:40.343Z</time></trkpt><trkpt lat="46.82703288333334" lon="11.296926483333335"><ele>1389.3333333333333</ele><time>2026-05-01T07:03:41.343Z</time></trkpt><trkpt lat="46.82704628333333" lon="11.296668066666665"><ele>1386.6666666666665</ele><time>2026-05-01T07:03:42.347Z</time></trkpt><trkpt lat="46.827082583333336" lon="11.29642425"><ele>1384.0</ele><time>2026-05-01T07:03:43.364Z</time></trkpt><trkpt lat="46.827111550000005" lon="11.296186383333334"><ele>1381.0</ele><time>2026-05-01T07:03:44.347Z</time></trkpt><trkpt lat="46.8271218" lon="11.295949016666668"><ele>1378.0</ele><time>2026-05-01T07:03:45.352Z</time></trkpt><trkpt lat="46.82713496666667" lon="11.295721133333332"><ele>1375.0</ele><time>2026-05-01T07:03:46.365Z</time></trkpt><trkpt lat="46.82713725000001" lon="11.295502083333334"><ele>1372.6666666666665</ele><time>2026-05-01T07:03:47.342Z</time></trkpt><trkpt lat="46.827104416666664" lon="11.295277099999998"><ele>1370.3333333333333</ele><time>2026-05-01T07:03:48.351Z</time></trkpt><trkpt lat="46.82706273333333" lon="11.29503225"><ele>1368.0</ele><time>2026-05-01T07:03:49.343Z</time></trkpt><trkpt lat="46.827042016666674" lon="11.294778633333332"><ele>1367.0</ele><time>2026-05-01T07:03:50.344Z</time></trkpt><trkpt lat="46.82703753333333" lon="11.29453211666667"><ele>1366.0</ele><time>2026-05-01T07:03:51.341Z</time></trkpt><trkpt lat="46.827026350000004" lon="11.294292949999999"><ele>1365.0</ele><time>2026-05-01T07:03:52.366Z</time></trkpt><trkpt lat="46.82699986666667" lon="11.294068983333334"><ele>1362.75</ele><time>2026-05-01T07:03:53.355Z</time></trkpt><trkpt lat="46.8269676" lon="11.293869716666666"><ele>1360.5</ele><time>2026-05-01T07:03:54.36Z</time></trkpt><trkpt lat="46.82695753333334" lon="11.293678183333334"><ele>1358.25</ele><time>2026-05-01T07:03:55.368Z</time></trkpt><trkpt lat="46.8269798" lon="11.293489900000003"><ele>1356.0</ele><time>2026-05-01T07:03:56.364Z</time></trkpt><trkpt lat="46.827013050000005" lon="11.293286216666669"><ele>1352.6666666666667</ele><time>2026-05-01T07:03:57.351Z</time></trkpt><trkpt lat="46.827026333333336" lon="11.293053083333334"><ele>1349.3333333333335</ele><time>2026-05-01T07:03:58.343Z</time></trkpt><trkpt lat="46.827001599999996" lon="11.292792633333333"><ele>1346.0</ele><time>2026-05-01T07:03:59.345Z</time></trkpt><trkpt lat="46.82695968333334" lon="11.292518416666667"><ele>1344.3333333333335</ele><time>2026-05-01T07:04:00.361Z</time></trkpt><trkpt lat="46.826918449999994" lon="11.292241066666667"><ele>1342.6666666666667</ele><time>2026-05-01T07:04:01.365Z</time></trkpt><trkpt lat="46.82687608333334" lon="11.29197215"><ele>1341.0</ele><time>2026-05-01T07:04:02.345Z</time></trkpt><trkpt lat="46.82683205000001" lon="11.2917139"><ele>1331.0</ele><time>2026-05-01T07:04:03.355Z</time></trkpt><trkpt lat="46.82679513333333" lon="11.291466633333334"><ele>1321.0</ele><time>2026-05-01T07:04:04.365Z</time></trkpt><trkpt lat="46.82677578333334" lon="11.291222066666666"><ele>1311.0</ele><time>2026-05-01T07:04:05.345Z</time></trkpt><trkpt lat="46.826773249999995" lon="11.2909845"><ele>1311.0</ele><time>2026-05-01T07:04:06.354Z</time></trkpt><trkpt lat="46.82675643333334" lon="11.290748933333335"><ele>1311.0</ele><time>2026-05-01T07:04:07.365Z</time></trkpt><trkpt lat="46.826703550000005" lon="11.290515166666669"><ele>1311.0</ele><time>2026-05-01T07:04:08.344Z</time></trkpt><trkpt lat="46.82662268333333" lon="11.2902919"><ele>1313.0</ele><time>2026-05-01T07:04:09.351Z</time></trkpt><trkpt lat="46.826545733333326" lon="11.290083533333332"><ele>1315.0</ele><time>2026-05-01T07:04:10.409Z</time></trkpt><trkpt lat="46.82649190000001" lon="11.289877550000002"><ele>1317.0</ele><time>2026-05-01T07:04:11.345Z</time></trkpt><trkpt lat="46.826471383333335" lon="11.289667699999999"><ele>1317.5</ele><time>2026-05-01T07:04:12.352Z</time></trkpt><trkpt lat="46.82647253333333" lon="11.289461200000002"><ele>1318.0</ele><time>2026-05-01T07:04:13.365Z</time></trkpt><trkpt lat="46.826458433333336" lon="11.289255283333334"><ele>1318.5</ele><time>2026-05-01T07:04:14.354Z</time></trkpt><trkpt lat="46.82641776666666" lon="11.2890613"><ele>1319.0</ele><time>2026-05-01T07:04:15.352Z</time></trkpt><trkpt lat="46.826365216666666" lon="11.28887905"><ele>1319.0</ele><time>2026-05-01T07:04:16.365Z</time></trkpt><trkpt lat="46.826319399999996" lon="11.288703400000001"><ele>1319.0</ele><time>2026-05-01T07:04:17.342Z</time></trkpt><trkpt lat="46.82628926666666" lon="11.288530600000001"><ele>1319.0</ele><time>2026-05-01T07:04:18.354Z</time></trkpt><trkpt lat="46.82628195000001" lon="11.288348033333333"><ele>1319.0</ele><time>2026-05-01T07:04:19.368Z</time></trkpt><trkpt lat="46.82628755" lon="11.288149966666667"><ele>1315.75</ele><time>2026-05-01T07:04:20.344Z</time></trkpt><trkpt lat="46.82630856666666" lon="11.287951400000003"><ele>1312.5</ele><time>2026-05-01T07:04:21.351Z</time></trkpt><trkpt lat="46.826355016666675" lon="11.287772983333332"><ele>1309.25</ele><time>2026-05-01T07:04:22.367Z</time></trkpt><trkpt lat="46.826427683333335" lon="11.28762055"><ele>1306.0</ele><time>2026-05-01T07:04:23.348Z</time></trkpt><trkpt lat="46.826518183333334" lon="11.287508066666666"><ele>1306.0</ele><time>2026-05-01T07:04:24.352Z</time></trkpt><trkpt lat="46.82661243333333" lon="11.287418966666666"><ele>1306.0</ele><time>2026-05-01T07:04:25.37Z</time></trkpt><trkpt lat="46.82668740000001" lon="11.287309883333334"><ele>1306.0</ele><time>2026-05-01T07:04:26.346Z</time></trkpt><trkpt lat="46.8267227" lon="11.2871681"><ele>1306.0</ele><time>2026-05-01T07:04:27.351Z</time></trkpt><trkpt lat="46.82671166666667" lon="11.287007933333332"><ele>1306.0</ele><time>2026-05-01T07:04:28.344Z</time></trkpt><trkpt lat="46.826658616666656" lon="11.28684955"><ele>1305.75</ele><time>2026-05-01T07:04:29.345Z</time></trkpt><trkpt lat="46.826585433333335" lon="11.286684183333334"><ele>1305.5</ele><time>2026-05-01T07:04:30.353Z</time></trkpt><trkpt lat="46.82651801666666" lon="11.28649415"><ele>1305.25</ele><time>2026-05-01T07:04:31.365Z</time></trkpt><trkpt lat="46.82646166666666" lon="11.286276166666669"><ele>1305.0</ele><time>2026-05-01T07:04:32.344Z</time></trkpt><trkpt lat="46.82642016666667" lon="11.286041616666667"><ele>1308.0</ele><time>2026-05-01T07:04:33.351Z</time></trkpt><trkpt lat="46.82637731666667" lon="11.285793133333334"><ele>1311.0</ele><time>2026-05-01T07:04:34.365Z</time></trkpt><trkpt lat="46.82632176666666" lon="11.28552885"><ele>1314.0</ele><time>2026-05-01T07:04:35.345Z</time></trkpt><trkpt lat="46.82625876666666" lon="11.285256049999997"><ele>1318.3333333333333</ele><time>2026-05-01T07:04:36.363Z</time></trkpt><trkpt lat="46.82619196666666" lon="11.285000400000001"><ele>1322.6666666666665</ele><time>2026-05-01T07:04:37.342Z</time></trkpt><trkpt lat="46.826123083333336" lon="11.284756450000003"><ele>1327.0</ele><time>2026-05-01T07:04:38.345Z</time></trkpt><trkpt lat="46.82606666666668" lon="11.284536016666667"><ele>1328.3999999999999</ele><time>2026-05-01T07:04:39.351Z</time></trkpt><trkpt lat="46.82603431666666" lon="11.284346566666665"><ele>1329.8</ele><time>2026-05-01T07:04:40.367Z</time></trkpt><trkpt lat="46.826043016666674" lon="11.284183516666667"><ele>1331.2</ele><time>2026-05-01T07:04:41.345Z</time></trkpt><trkpt lat="46.82608206666667" lon="11.284039966666668"><ele>1332.6</ele><time>2026-05-01T07:04:42.357Z</time></trkpt><trkpt lat="46.82609145" lon="11.283908566666668"><ele>1334.0</ele><time>2026-05-01T07:04:43.364Z</time></trkpt><trkpt lat="46.8260477" lon="11.283781066666666"><ele>1323.5</ele><time>2026-05-01T07:04:44.353Z</time></trkpt><trkpt lat="46.82596388333333" lon="11.283669116666667"><ele>1313.0</ele><time>2026-05-01T07:04:45.361Z</time></trkpt><trkpt lat="46.82585593333334" lon="11.283560450000001"><ele>1302.5</ele><time>2026-05-01T07:04:46.367Z</time></trkpt><trkpt lat="46.8257468" lon="11.283446083333335"><ele>1292.0</ele><time>2026-05-01T07:04:47.344Z</time></trkpt><trkpt lat="46.82565339999999" lon="11.28331345"><ele>1292.0</ele><time>2026-05-01T07:04:48.351Z</time></trkpt><trkpt lat="46.82558003333333" lon="11.283141016666665"><ele>1292.0</ele><time>2026-05-01T07:04:49.378Z</time></trkpt><trkpt lat="46.82551143333334" lon="11.282942649999999"><ele>1292.0</ele><time>2026-05-01T07:04:50.346Z</time></trkpt><trkpt lat="46.82543326666668" lon="11.282728850000002"><ele>1297.0</ele><time>2026-05-01T07:04:51.358Z</time></trkpt><trkpt lat="46.82534651666666" lon="11.282512249999998"><ele>1302.0</ele><time>2026-05-01T07:04:52.365Z</time></trkpt><trkpt lat="46.825250133333334" lon="11.282308166666667"><ele>1307.0</ele><time>2026-05-01T07:04:53.35Z</time></trkpt><trkpt lat="46.82516278333333" lon="11.282111249999998"><ele>1297.5</ele><time>2026-05-01T07:04:54.357Z</time></trkpt><trkpt lat="46.82508945" lon="11.281917866666667"><ele>1288.0</ele><time>2026-05-01T07:04:55.365Z</time></trkpt><trkpt lat="46.82501993333334" lon="11.281725600000001"><ele>1278.5</ele><time>2026-05-01T07:04:56.349Z</time></trkpt><trkpt lat="46.824960116666674" lon="11.281541533333334"><ele>1269.0</ele><time>2026-05-01T07:04:57.351Z</time></trkpt><trkpt lat="46.82490631666667" lon="11.2813538"><ele>1269.0</ele><time>2026-05-01T07:04:58.365Z</time></trkpt><trkpt lat="46.82486236666667" lon="11.281158116666665"><ele>1269.0</ele><time>2026-05-01T07:04:59.354Z</time></trkpt><trkpt lat="46.82481948333334" lon="11.280963433333334"><ele>1269.0</ele><time>2026-05-01T07:05:00.361Z</time></trkpt><trkpt lat="46.82477693333333" lon="11.280763866666668"><ele>1269.0</ele><time>2026-05-01T07:05:01.366Z</time></trkpt><trkpt lat="46.82473426666667" lon="11.280564166666668"><ele>1270.25</ele><time>2026-05-01T07:05:02.345Z</time></trkpt><trkpt lat="46.82469511666667" lon="11.280370383333333"><ele>1271.5</ele><time>2026-05-01T07:05:03.351Z</time></trkpt><trkpt lat="46.824660300000005" lon="11.280180766666668"><ele>1272.75</ele><time>2026-05-01T07:05:04.366Z</time></trkpt><trkpt lat="46.82462885" lon="11.280000866666667"><ele>1274.0</ele><time>2026-05-01T07:05:05.345Z</time></trkpt><trkpt lat="46.824606116666665" lon="11.279829116666667"><ele>1272.6000000000001</ele><time>2026-05-01T07:05:06.354Z</time></trkpt><trkpt lat="46.824589783333344" lon="11.279662033333334"><ele>1271.2</ele><time>2026-05-01T07:05:07.369Z</time></trkpt><trkpt lat="46.82457448333333" lon="11.2794997"><ele>1269.8000000000002</ele><time>2026-05-01T07:05:08.347Z</time></trkpt><trkpt lat="46.82455673333333" lon="11.279343816666668"><ele>1268.4</ele><time>2026-05-01T07:05:09.347Z</time></trkpt><trkpt lat="46.82454223333334" lon="11.279193216666664"><ele>1267.0</ele><time>2026-05-01T07:05:10.365Z</time></trkpt><trkpt lat="46.8245423" lon="11.279053199999998"><ele>1264.5</ele><time>2026-05-01T07:05:11.345Z</time></trkpt><trkpt lat="46.82456846666667" lon="11.278930066666666"><ele>1262.0</ele><time>2026-05-01T07:05:12.355Z</time></trkpt><trkpt lat="46.82460433333333" lon="11.27881635"><ele>1259.5</ele><time>2026-05-01T07:05:13.34Z</time></trkpt><trkpt lat="46.824621416666666" lon="11.278698983333335"><ele>1257.0</ele><time>2026-05-01T07:05:14.39Z</time></trkpt><trkpt lat="46.82461815" lon="11.278574633333335"><ele>1254.5</ele><time>2026-05-01T07:05:15.357Z</time></trkpt><trkpt lat="46.82459948333334" lon="11.278456066666669"><ele>1252.0</ele><time>2026-05-01T07:05:16.368Z</time></trkpt><trkpt lat="46.824575766666676" lon="11.278341483333334"><ele>1252.0</ele><time>2026-05-01T07:05:17.345Z</time></trkpt><trkpt lat="46.8245639" lon="11.278238816666665"><ele>1252.0</ele><time>2026-05-01T07:05:18.342Z</time></trkpt><trkpt lat="46.82458391666667" lon="11.278078216666666"><ele>1252.0</ele><time>2026-05-01T07:05:20.35Z</time></trkpt><trkpt lat="46.82468661666667" lon="11.278027499999999"><ele>1252.0</ele><time>2026-05-01T07:05:22.366Z</time></trkpt><trkpt lat="46.82475321666667" lon="11.278024266666668"><ele>1252.0</ele><time>2026-05-01T07:05:23.364Z</time></trkpt><trkpt lat="46.82482066666666" lon="11.2780114"><ele>1252.0</ele><time>2026-05-01T07:05:24.352Z</time></trkpt><trkpt lat="46.82488245" lon="11.277971766666667"><ele>1249.5714285714284</ele><time>2026-05-01T07:05:25.365Z</time></trkpt><trkpt lat="46.82493161666666" lon="11.277895816666668"><ele>1247.142857142857</ele><time>2026-05-01T07:05:26.345Z</time></trkpt><trkpt lat="46.824959033333336" lon="11.277793999999998"><ele>1244.7142857142858</ele><time>2026-05-01T07:05:27.341Z</time></trkpt><trkpt lat="46.82497323333333" lon="11.277690733333335"><ele>1242.2857142857142</ele><time>2026-05-01T07:05:28.365Z</time></trkpt><trkpt lat="46.82499711666666" lon="11.277592966666669"><ele>1239.857142857143</ele><time>2026-05-01T07:05:29.345Z</time></trkpt><trkpt lat="46.82504073333333" lon="11.2774992"><ele>1237.4285714285713</ele><time>2026-05-01T07:05:30.355Z</time></trkpt><trkpt lat="46.82509888333334" lon="11.277416816666667"><ele>1235.0</ele><time>2026-05-01T07:05:31.367Z</time></trkpt><trkpt lat="46.82516555" lon="11.277340833333334"><ele>1237.8333333333335</ele><time>2026-05-01T07:05:32.364Z</time></trkpt><trkpt lat="46.825228083333336" lon="11.277270483333332"><ele>1240.6666666666667</ele><time>2026-05-01T07:05:33.351Z</time></trkpt><trkpt lat="46.82528250000001" lon="11.277204833333334"><ele>1243.5</ele><time>2026-05-01T07:05:34.366Z</time></trkpt><trkpt lat="46.825321816666666" lon="11.277127483333334"><ele>1246.3333333333333</ele><time>2026-05-01T07:05:35.345Z</time></trkpt><trkpt lat="46.825323499999996" lon="11.276957049999998"><ele>1249.1666666666665</ele><time>2026-05-01T07:05:37.366Z</time></trkpt><trkpt lat="46.8253034" lon="11.276861983333333"><ele>1252.0</ele><time>2026-05-01T07:05:38.343Z</time></trkpt><trkpt lat="46.82527475" lon="11.276760633333332"><ele>1252.0</ele><time>2026-05-01T07:05:39.35Z</time></trkpt><trkpt lat="46.825251233333326" lon="11.276647883333332"><ele>1252.0</ele><time>2026-05-01T07:05:40.365Z</time></trkpt><trkpt lat="46.82524651666666" lon="11.276532933333332"><ele>1252.0</ele><time>2026-05-01T07:05:41.353Z</time></trkpt><trkpt lat="46.82525906666666" lon="11.276424616666668"><ele>1252.0</ele><time>2026-05-01T07:05:42.353Z</time></trkpt><trkpt lat="46.82529379999999" lon="11.276322933333333"><ele>1252.0</ele><time>2026-05-01T07:05:43.365Z</time></trkpt><trkpt lat="46.825358666666666" lon="11.276232766666665"><ele>1252.0</ele><time>2026-05-01T07:05:44.345Z</time></trkpt><trkpt lat="46.82543845" lon="11.276162433333333"><ele>1248.5</ele><time>2026-05-01T07:05:45.352Z</time></trkpt><trkpt lat="46.825526966666665" lon="11.276106583333334"><ele>1245.0</ele><time>2026-05-01T07:05:46.378Z</time></trkpt><trkpt lat="46.825609883333335" lon="11.27605555"><ele>1241.5</ele><time>2026-05-01T07:05:47.345Z</time></trkpt><trkpt lat="46.82568886666666" lon="11.27600665"><ele>1238.0</ele><time>2026-05-01T07:05:48.351Z</time></trkpt><trkpt lat="46.825761150000005" lon="11.275960933333332"><ele>1234.5</ele><time>2026-05-01T07:05:49.366Z</time></trkpt><trkpt lat="46.82582405" lon="11.275909016666667"><ele>1231.0</ele><time>2026-05-01T07:05:50.355Z</time></trkpt><trkpt lat="46.82587541666667" lon="11.275844849999999"><ele>1231.0</ele><time>2026-05-01T07:05:51.351Z</time></trkpt><trkpt lat="46.82592071666666" lon="11.2756755"><ele>1231.0</ele><time>2026-05-01T07:05:53.343Z</time></trkpt><trkpt lat="46.82592930995615" lon="11.275572713314794"><ele>1231.0</ele><time>2026-05-01T07:05:54.35Z</time></trkpt><trkpt lat="46.825884728382356" lon="11.275476523982483"><ele>1231.0</ele><time>2026-05-01T07:05:55.368Z</time></trkpt><trkpt lat="46.8258182" lon="11.275425183333335"><ele>1231.0</ele><time>2026-05-01T07:05:56.345Z</time></trkpt><trkpt lat="46.82575948333333" lon="11.275353350000001"><ele>1231.0</ele><time>2026-05-01T07:05:57.354Z</time></trkpt><trkpt lat="46.82570333333334" lon="11.275268166666667"><ele>1229.2857142857142</ele><time>2026-05-01T07:05:58.367Z</time></trkpt><trkpt lat="46.82565298333334" lon="11.275175983333334"><ele>1227.5714285714287</ele><time>2026-05-01T07:05:59.349Z</time></trkpt><trkpt lat="46.82560743333334" lon="11.275086083333333"><ele>1225.857142857143</ele><time>2026-05-01T07:06:00.355Z</time></trkpt><trkpt lat="46.8255665" lon="11.274998566666666"><ele>1224.142857142857</ele><time>2026-05-01T07:06:01.365Z</time></trkpt><trkpt lat="46.82553881666666" lon="11.274905183333331"><ele>1222.4285714285713</ele><time>2026-05-01T07:06:02.349Z</time></trkpt><trkpt lat="46.825527650000005" lon="11.274806233333333"><ele>1220.7142857142858</ele><time>2026-05-01T07:06:03.351Z</time></trkpt><trkpt lat="46.8255343" lon="11.27470325"><ele>1219.0</ele><time>2026-05-01T07:06:04.34Z</time></trkpt><trkpt lat="46.825557499999995" lon="11.274610633333335"><ele>1217.1666666666665</ele><time>2026-05-01T07:06:05.343Z</time></trkpt><trkpt lat="46.82559930000001" lon="11.2745145"><ele>1215.3333333333333</ele><time>2026-05-01T07:06:06.351Z</time></trkpt><trkpt lat="46.82565471666667" lon="11.2744165"><ele>1213.5</ele><time>2026-05-01T07:06:07.365Z</time></trkpt><trkpt lat="46.825714" lon="11.274316216666666"><ele>1211.6666666666667</ele><time>2026-05-01T07:06:08.354Z</time></trkpt><trkpt lat="46.82576985000001" lon="11.274215416666667"><ele>1209.8333333333335</ele><time>2026-05-01T07:06:09.371Z</time></trkpt><trkpt lat="46.82582453333333" lon="11.27412018333333"><ele>1208.0</ele><time>2026-05-01T07:06:10.365Z</time></trkpt><trkpt lat="46.82588088333333" lon="11.274035700000002"><ele>1208.0000000000002</ele><time>2026-05-01T07:06:11.345Z</time></trkpt><trkpt lat="46.82593603333333" lon="11.273961116666666"><ele>1208.0</ele><time>2026-05-01T07:06:12.357Z</time></trkpt><trkpt lat="46.82598506666667" lon="11.273893783333332"><ele>1208.0</ele><time>2026-05-01T07:06:13.342Z</time></trkpt><trkpt lat="46.82602438333333" lon="11.273817816666668"><ele>1208.0</ele><time>2026-05-01T07:06:14.344Z</time></trkpt><trkpt lat="46.82604486666668" lon="11.273720050000001"><ele>1208.0</ele><time>2026-05-01T07:06:15.352Z</time></trkpt><trkpt lat="46.82603928333333" lon="11.2736068"><ele>1208.0000000000002</ele><time>2026-05-01T07:06:16.367Z</time></trkpt><trkpt lat="46.8260083" lon="11.273497850000002"><ele>1208.0</ele><time>2026-05-01T07:06:17.354Z</time></trkpt><trkpt lat="46.82596725" lon="11.273400966666667"><ele>1206.1666666666667</ele><time>2026-05-01T07:06:18.359Z</time></trkpt><trkpt lat="46.825926349999996" lon="11.273307766666667"><ele>1204.3333333333335</ele><time>2026-05-01T07:06:19.365Z</time></trkpt><trkpt lat="46.8258944" lon="11.273213600000002"><ele>1202.5</ele><time>2026-05-01T07:06:20.347Z</time></trkpt><trkpt lat="46.82587683333333" lon="11.273115816666666"><ele>1200.6666666666667</ele><time>2026-05-01T07:06:21.35Z</time></trkpt><trkpt lat="46.82588053333334" lon="11.273022866666668"><ele>1198.8333333333333</ele><time>2026-05-01T07:06:22.366Z</time></trkpt><trkpt lat="46.825911100000006" lon="11.272918250000002"><ele>1197.0</ele><time>2026-05-01T07:06:23.343Z</time></trkpt><trkpt lat="46.82596361666666" lon="11.272790066666667"><ele>1206.0</ele><time>2026-05-01T07:06:24.351Z</time></trkpt><trkpt lat="46.826029283333334" lon="11.272620199999999"><ele>1215.0</ele><time>2026-05-01T07:06:25.342Z</time></trkpt><trkpt lat="46.82611223333333" lon="11.272409483333334"><ele>1224.0</ele><time>2026-05-01T07:06:26.347Z</time></trkpt><trkpt lat="46.826203983333336" lon="11.2721962"><ele>1224.0</ele><time>2026-05-01T07:06:27.358Z</time></trkpt><trkpt lat="46.82628706666666" lon="11.271999766666665"><ele>1224.0</ele><time>2026-05-01T07:06:28.367Z</time></trkpt><trkpt lat="46.826362483333334" lon="11.271815900000002"><ele>1224.0</ele><time>2026-05-01T07:06:29.345Z</time></trkpt><trkpt lat="46.82644521666666" lon="11.271633516666668"><ele>1224.0</ele><time>2026-05-01T07:06:30.359Z</time></trkpt><trkpt lat="46.82652326666666" lon="11.271466483333331"><ele>1224.0</ele><time>2026-05-01T07:06:31.365Z</time></trkpt><trkpt lat="46.82657808333333" lon="11.271325000000001"><ele>1224.0</ele><time>2026-05-01T07:06:32.358Z</time></trkpt><trkpt lat="46.826597391123975" lon="11.271187145843587"><ele>1224.0</ele><time>2026-05-01T07:06:33.354Z</time></trkpt><trkpt lat="46.82657683269546" lon="11.271068544840752"><ele>1224.0</ele><time>2026-05-01T07:06:34.367Z</time></trkpt><trkpt lat="46.826543528743" lon="11.270973772914994"><ele>1224.4</ele><time>2026-05-01T07:06:35.353Z</time></trkpt><trkpt lat="46.82649489997572" lon="11.270887356321435"><ele>1224.8000000000002</ele><time>2026-05-01T07:06:36.358Z</time></trkpt><trkpt lat="46.8264289270049" lon="11.270805751128814"><ele>1225.1999999999998</ele><time>2026-05-01T07:06:37.367Z</time></trkpt><trkpt lat="46.8263423560391" lon="11.270729959450538"><ele>1225.6</ele><time>2026-05-01T07:06:38.346Z</time></trkpt><trkpt lat="46.826201974039606" lon="11.270602353374754"><ele>1226.0</ele><time>2026-05-01T07:06:39.352Z</time></trkpt><trkpt lat="46.8258531978449" lon="11.270283560458498"><ele>1226.0</ele><time>2026-05-01T07:06:40.369Z</time></trkpt><trkpt lat="46.82558789062503" lon="11.27004171051785"><ele>1226.0</ele><time>2026-05-01T07:06:41.345Z</time></trkpt><trkpt lat="46.82535689391969" lon="11.269841667152662"><ele>1220.5</ele><time>2026-05-01T07:06:42.352Z</time></trkpt><trkpt lat="46.82513396051795" lon="11.269647662371009"><ele>1215.0</ele><time>2026-05-01T07:06:43.365Z</time></trkpt><trkpt lat="46.82494865" lon="11.269461083333331"><ele>1215.0</ele><time>2026-05-01T07:06:44.345Z</time></trkpt><trkpt lat="46.824801816666664" lon="11.269281366666668"><ele>1215.0</ele><time>2026-05-01T07:06:45.35Z</time></trkpt><trkpt lat="46.824683266666675" lon="11.26909535"><ele>1215.0</ele><time>2026-05-01T07:06:46.365Z</time></trkpt><trkpt lat="46.82459195" lon="11.268875866666669"><ele>1219.0</ele><time>2026-05-01T07:06:47.349Z</time></trkpt><trkpt lat="46.824511799999996" lon="11.26862005"><ele>1223.0</ele><time>2026-05-01T07:06:48.353Z</time></trkpt><trkpt lat="46.82442514999999" lon="11.268334483333335"><ele>1227.0</ele><time>2026-05-01T07:06:49.364Z</time></trkpt><trkpt lat="46.82434801666667" lon="11.2680175"><ele>1207.5</ele><time>2026-05-01T07:06:50.344Z</time></trkpt><trkpt lat="46.82427355" lon="11.267672833333332"><ele>1188.0</ele><time>2026-05-01T07:06:51.353Z</time></trkpt><trkpt lat="46.82418791666667" lon="11.267306266666665"><ele>1195.5</ele><time>2026-05-01T07:06:52.369Z</time></trkpt><trkpt lat="46.82410995" lon="11.266941333333333"><ele>1203.0</ele><time>2026-05-01T07:06:53.355Z</time></trkpt><trkpt lat="46.82404476666667" lon="11.266587166666666"><ele>1206.6666666666667</ele><time>2026-05-01T07:06:54.345Z</time></trkpt><trkpt lat="46.823985166666674" lon="11.266261450000002"><ele>1210.3333333333335</ele><time>2026-05-01T07:06:55.365Z</time></trkpt><trkpt lat="46.82393423333333" lon="11.265975466666665"><ele>1214.0</ele><time>2026-05-01T07:06:56.346Z</time></trkpt><trkpt lat="46.82390168333333" lon="11.265716633333332"><ele>1218.3333333333335</ele><time>2026-05-01T07:06:57.354Z</time></trkpt><trkpt lat="46.823889266666654" lon="11.26547115"><ele>1222.6666666666667</ele><time>2026-05-01T07:06:58.366Z</time></trkpt><trkpt lat="46.82386813333333" lon="11.265236816666667"><ele>1227.0</ele><time>2026-05-01T07:06:59.343Z</time></trkpt><trkpt lat="46.82381558333333" lon="11.265003433333334"><ele>1231.0</ele><time>2026-05-01T07:07:00.353Z</time></trkpt><trkpt lat="46.82374298333334" lon="11.2647619"><ele>1235.0</ele><time>2026-05-01T07:07:01.364Z</time></trkpt><trkpt lat="46.82366088333333" lon="11.2644973"><ele>1239.0</ele><time>2026-05-01T07:07:02.346Z</time></trkpt><trkpt lat="46.82358251666666" lon="11.264218583333331"><ele>1241.6666666666667</ele><time>2026-05-01T07:07:03.342Z</time></trkpt><trkpt lat="46.82349741666667" lon="11.263946066666666"><ele>1244.3333333333335</ele><time>2026-05-01T07:07:04.371Z</time></trkpt><trkpt lat="46.82339223333334" lon="11.26368315"><ele>1247.0</ele><time>2026-05-01T07:07:05.379Z</time></trkpt><trkpt lat="46.82327765" lon="11.263411383333334"><ele>1233.0</ele><time>2026-05-01T07:07:06.344Z</time></trkpt><trkpt lat="46.82317046666667" lon="11.26313275"><ele>1219.0</ele><time>2026-05-01T07:07:07.382Z</time></trkpt><trkpt lat="46.82307264999999" lon="11.2628679"><ele>1205.0</ele><time>2026-05-01T07:07:08.363Z</time></trkpt><trkpt lat="46.82299976588029" lon="11.262600025740843"><ele>1205.0</ele><time>2026-05-01T07:07:09.345Z</time></trkpt><trkpt lat="46.822919913503114" lon="11.262334709961655"><ele>1205.0</ele><time>2026-05-01T07:07:10.385Z</time></trkpt><trkpt lat="46.8228410208328" lon="11.262076315540778"><ele>1205.0</ele><time>2026-05-01T07:07:11.343Z</time></trkpt><trkpt lat="46.82276337787449" lon="11.261831058612364"><ele>1210.3333333333335</ele><time>2026-05-01T07:07:12.342Z</time></trkpt><trkpt lat="46.82267580444333" lon="11.261598850744155"><ele>1215.6666666666667</ele><time>2026-05-01T07:07:13.357Z</time></trkpt><trkpt lat="46.822586436134536" lon="11.261375662735489"><ele>1221.0</ele><time>2026-05-01T07:07:14.363Z</time></trkpt><trkpt lat="46.822502337911814" lon="11.261144183650163"><ele>1207.6666666666667</ele><time>2026-05-01T07:07:15.357Z</time></trkpt><trkpt lat="46.822426854234074" lon="11.260884293258979"><ele>1194.3333333333335</ele><time>2026-05-01T07:07:16.357Z</time></trkpt><trkpt lat="46.82234069999999" lon="11.260624050000002"><ele>1181.0</ele><time>2026-05-01T07:07:17.353Z</time></trkpt><trkpt lat="46.822277" lon="11.260358"><ele>1181.0</ele><time>2026-05-01T07:07:18.357Z</time></trkpt><trkpt lat="46.82220999999999" lon="11.260095349999999"><ele>1181.0</ele><time>2026-05-01T07:07:19.357Z</time></trkpt><trkpt lat="46.8221509" lon="11.259835850000002"><ele>1181.0</ele><time>2026-05-01T07:07:20.364Z</time></trkpt><trkpt lat="46.82209793333333" lon="11.25957868333333"><ele>1187.0</ele><time>2026-05-01T07:07:21.342Z</time></trkpt><trkpt lat="46.82204171666667" lon="11.2593194"><ele>1193.0</ele><time>2026-05-01T07:07:22.379Z</time></trkpt><trkpt lat="46.82199994662009" lon="11.25902532520356"><ele>1199.0</ele><time>2026-05-01T07:07:23.345Z</time></trkpt><trkpt lat="46.82191983164996" lon="11.258735821103409"><ele>1203.0</ele><time>2026-05-01T07:07:24.357Z</time></trkpt><trkpt lat="46.821860583512404" lon="11.258425435879575"><ele>1207.0</ele><time>2026-05-01T07:07:25.357Z</time></trkpt><trkpt lat="46.82179651666667" lon="11.258132166666668"><ele>1211.0</ele><time>2026-05-01T07:07:26.355Z</time></trkpt><trkpt lat="46.8217472" lon="11.257852116666667"><ele>1202.6666666666667</ele><time>2026-05-01T07:07:27.356Z</time></trkpt><trkpt lat="46.8216673" lon="11.257599433333334"><ele>1194.3333333333333</ele><time>2026-05-01T07:07:28.357Z</time></trkpt><trkpt lat="46.82155606666667" lon="11.257347716666667"><ele>1186.0</ele><time>2026-05-01T07:07:29.362Z</time></trkpt><trkpt lat="46.82143718333334" lon="11.257095233333331"><ele>1186.0</ele><time>2026-05-01T07:07:30.343Z</time></trkpt><trkpt lat="46.821323833333324" lon="11.256843316666666"><ele>1186.0</ele><time>2026-05-01T07:07:31.353Z</time></trkpt><trkpt lat="46.82121176666666" lon="11.256600083333334"><ele>1186.0</ele><time>2026-05-01T07:07:32.362Z</time></trkpt><trkpt lat="46.821112049999996" lon="11.25635865"><ele>1195.3333333333333</ele><time>2026-05-01T07:07:33.357Z</time></trkpt><trkpt lat="46.8210187" lon="11.25612261666667"><ele>1204.6666666666667</ele><time>2026-05-01T07:07:34.357Z</time></trkpt><trkpt lat="46.820924" lon="11.255894999999999"><ele>1214.0</ele><time>2026-05-01T07:07:35.35Z</time></trkpt><trkpt lat="46.820841083333335" lon="11.255652699999999"><ele>1194.6666666666667</ele><time>2026-05-01T07:07:36.357Z</time></trkpt><trkpt lat="46.820771183333335" lon="11.255393599999998"><ele>1175.3333333333333</ele><time>2026-05-01T07:07:37.36Z</time></trkpt><trkpt lat="46.820706933333334" lon="11.2551256"><ele>1156.0</ele><time>2026-05-01T07:07:38.364Z</time></trkpt><trkpt lat="46.82064486666667" lon="11.254851049999997"><ele>1160.3333333333333</ele><time>2026-05-01T07:07:39.359Z</time></trkpt><trkpt lat="46.8205816" lon="11.25458445"><ele>1164.6666666666667</ele><time>2026-05-01T07:07:40.343Z</time></trkpt><trkpt lat="46.82050926666667" lon="11.254334749999998"><ele>1169.0</ele><time>2026-05-01T07:07:41.363Z</time></trkpt><trkpt lat="46.82042916666666" lon="11.2541109"><ele>1171.3333333333335</ele><time>2026-05-01T07:07:42.357Z</time></trkpt><trkpt lat="46.82035688333334" lon="11.253893783333336"><ele>1173.6666666666667</ele><time>2026-05-01T07:07:43.357Z</time></trkpt><trkpt lat="46.82029609999999" lon="11.25366525"><ele>1176.0</ele><time>2026-05-01T07:07:44.351Z</time></trkpt><trkpt lat="46.82024685" lon="11.253416083333331"><ele>1176.0</ele><time>2026-05-01T07:07:45.357Z</time></trkpt><trkpt lat="46.8202152" lon="11.253139283333335"><ele>1176.0</ele><time>2026-05-01T07:07:46.357Z</time></trkpt><trkpt lat="46.820187316666676" lon="11.2528501"><ele>1176.0</ele><time>2026-05-01T07:07:47.362Z</time></trkpt><trkpt lat="46.820140466666665" lon="11.252572966666667"><ele>1156.0</ele><time>2026-05-01T07:07:48.357Z</time></trkpt><trkpt lat="46.82008726666666" lon="11.252301383333334"><ele>1136.0</ele><time>2026-05-01T07:07:49.343Z</time></trkpt><trkpt lat="46.82004216666666" lon="11.252023"><ele>1116.0</ele><time>2026-05-01T07:07:50.345Z</time></trkpt><trkpt lat="46.82000871666668" lon="11.251737949999997"><ele>1112.6666666666667</ele><time>2026-05-01T07:07:51.36Z</time></trkpt><trkpt lat="46.81998443333333" lon="11.251452716666664"><ele>1109.3333333333335</ele><time>2026-05-01T07:07:52.358Z</time></trkpt><trkpt lat="46.81996478333333" lon="11.251175216666665"><ele>1106.0</ele><time>2026-05-01T07:07:53.352Z</time></trkpt><trkpt lat="46.81994721666666" lon="11.250904083333335"><ele>1106.0</ele><time>2026-05-01T07:07:54.359Z</time></trkpt><trkpt lat="46.81994628333334" lon="11.250637783333332"><ele>1106.0</ele><time>2026-05-01T07:07:55.357Z</time></trkpt><trkpt lat="46.819971" lon="11.250372183333331"><ele>1106.0</ele><time>2026-05-01T07:07:56.363Z</time></trkpt><trkpt lat="46.82001413333334" lon="11.250115366666666"><ele>1100.0</ele><time>2026-05-01T07:07:57.359Z</time></trkpt><trkpt lat="46.82007539999999" lon="11.249863166666668"><ele>1094.0</ele><time>2026-05-01T07:07:58.343Z</time></trkpt><trkpt lat="46.820150133333335" lon="11.249604299999998"><ele>1088.0</ele><time>2026-05-01T07:07:59.363Z</time></trkpt><trkpt lat="46.820231183333334" lon="11.249339650000001"><ele>1093.6666666666667</ele><time>2026-05-01T07:08:00.358Z</time></trkpt><trkpt lat="46.820312200000004" lon="11.24908245"><ele>1099.3333333333333</ele><time>2026-05-01T07:08:01.357Z</time></trkpt><trkpt lat="46.82039265" lon="11.248834216666667"><ele>1105.0</ele><time>2026-05-01T07:08:02.351Z</time></trkpt><trkpt lat="46.82046223333334" lon="11.248588400000001"><ele>1105.0</ele><time>2026-05-01T07:08:03.361Z</time></trkpt><trkpt lat="46.82052005" lon="11.248341249999998"><ele>1105.0</ele><time>2026-05-01T07:08:04.358Z</time></trkpt><trkpt lat="46.82057605" lon="11.248103299999999"><ele>1105.0</ele><time>2026-05-01T07:08:05.364Z</time></trkpt><trkpt lat="46.820638300000006" lon="11.247881700000002"><ele>1095.3333333333333</ele><time>2026-05-01T07:08:06.357Z</time></trkpt><trkpt lat="46.82071593333333" lon="11.247678416666668"><ele>1085.6666666666667</ele><time>2026-05-01T07:08:07.36Z</time></trkpt><trkpt lat="46.82080595" lon="11.247496216666665"><ele>1076.0</ele><time>2026-05-01T07:08:08.362Z</time></trkpt><trkpt lat="46.82088803333333" lon="11.2473209"><ele>1069.25</ele><time>2026-05-01T07:08:09.357Z</time></trkpt><trkpt lat="46.820959916666666" lon="11.2471495"><ele>1062.5</ele><time>2026-05-01T07:08:10.343Z</time></trkpt><trkpt lat="46.8210328" lon="11.247003416666667"><ele>1055.75</ele><time>2026-05-01T07:08:11.352Z</time></trkpt><trkpt lat="46.82110295000001" lon="11.246888283333332"><ele>1049.0</ele><time>2026-05-01T07:08:12.343Z</time></trkpt><trkpt lat="46.82114693333333" lon="11.246784083333335"><ele>1049.0</ele><time>2026-05-01T07:08:13.361Z</time></trkpt><trkpt lat="46.821143466666676" lon="11.246679466666667"><ele>1049.0</ele><time>2026-05-01T07:08:14.362Z</time></trkpt><trkpt lat="46.82109751612779" lon="11.246587242539722"><ele>1049.0</ele><time>2026-05-01T07:08:15.366Z</time></trkpt><trkpt lat="46.82099895818766" lon="11.24655181645637"><ele>1049.0</ele><time>2026-05-01T07:08:16.342Z</time></trkpt><trkpt lat="46.82091682247194" lon="11.246664144272717"><ele>1049.0</ele><time>2026-05-01T07:08:17.363Z</time></trkpt><trkpt lat="46.82087905468399" lon="11.246822406660412"><ele>1049.0</ele><time>2026-05-01T07:08:18.357Z</time></trkpt><trkpt lat="46.820841887639936" lon="11.247005456664187"><ele>1049.0</ele><time>2026-05-01T07:08:19.364Z</time></trkpt><trkpt lat="46.820815083333336" lon="11.247210433333333"><ele>1049.0</ele><time>2026-05-01T07:08:20.355Z</time></trkpt><trkpt lat="46.820735833333345" lon="11.24740275"><ele>1049.0</ele><time>2026-05-01T07:08:21.358Z</time></trkpt><trkpt lat="46.820606362333635" lon="11.247577701873448"><ele>1058.0</ele><time>2026-05-01T07:08:22.357Z</time></trkpt><trkpt lat="46.82047990320904" lon="11.247794378677588"><ele>1067.0</ele><time>2026-05-01T07:08:23.363Z</time></trkpt><trkpt lat="46.82035311303218" lon="11.248054474549646"><ele>1076.0</ele><time>2026-05-01T07:08:24.356Z</time></trkpt><trkpt lat="46.820241800000005" lon="11.248363466666667"><ele>1062.5</ele><time>2026-05-01T07:08:25.343Z</time></trkpt><trkpt lat="46.82011738333334" lon="11.248667216666668"><ele>1049.0</ele><time>2026-05-01T07:08:26.368Z</time></trkpt><trkpt lat="46.81999698333334" lon="11.248958450000002"><ele>1055.6666666666667</ele><time>2026-05-01T07:08:27.358Z</time></trkpt><trkpt lat="46.81987938333334" lon="11.249222033333336"><ele>1062.3333333333333</ele><time>2026-05-01T07:08:28.357Z</time></trkpt><trkpt lat="46.81976895" lon="11.249456216666667"><ele>1069.0</ele><time>2026-05-01T07:08:29.349Z</time></trkpt><trkpt lat="46.81967185" lon="11.249684016666668"><ele>1075.3333333333333</ele><time>2026-05-01T07:08:30.343Z</time></trkpt><trkpt lat="46.819595966666675" lon="11.249922466666664"><ele>1081.6666666666667</ele><time>2026-05-01T07:08:31.358Z</time></trkpt><trkpt lat="46.81953511666667" lon="11.250184133333335"><ele>1088.0</ele><time>2026-05-01T07:08:32.364Z</time></trkpt><trkpt lat="46.819472999999995" lon="11.250465366666667"><ele>1094.0</ele><time>2026-05-01T07:08:33.357Z</time></trkpt><trkpt lat="46.81941458333334" lon="11.250765083333334"><ele>1100.0</ele><time>2026-05-01T07:08:34.365Z</time></trkpt><trkpt lat="46.81937851666667" lon="11.251088166666666"><ele>1106.0</ele><time>2026-05-01T07:08:35.342Z</time></trkpt><trkpt lat="46.81936006666666" lon="11.251421666666666"><ele>1109.3333333333335</ele><time>2026-05-01T07:08:36.357Z</time></trkpt><trkpt lat="46.81934598333334" lon="11.251748483333332"><ele>1112.6666666666667</ele><time>2026-05-01T07:08:37.362Z</time></trkpt><trkpt lat="46.81932853333333" lon="11.252058116666667"><ele>1116.0</ele><time>2026-05-01T07:08:38.344Z</time></trkpt><trkpt lat="46.81929496666666" lon="11.252341133333335"><ele>1089.3333333333333</ele><time>2026-05-01T07:08:39.341Z</time></trkpt><trkpt lat="46.819260966666654" lon="11.252601683333333"><ele>1062.6666666666665</ele><time>2026-05-01T07:08:40.358Z</time></trkpt><trkpt lat="46.819257066666665" lon="11.252850033333335"><ele>1036.0</ele><time>2026-05-01T07:08:41.364Z</time></trkpt><trkpt lat="46.81927773333333" lon="11.253097649999999"><ele>1033.6666666666665</ele><time>2026-05-01T07:08:42.357Z</time></trkpt><trkpt lat="46.81930906666667" lon="11.253365950000001"><ele>1031.3333333333333</ele><time>2026-05-01T07:08:43.36Z</time></trkpt><trkpt lat="46.819345583333345" lon="11.253657533333335"><ele>1029.0</ele><time>2026-05-01T07:08:44.364Z</time></trkpt><trkpt lat="46.81938171666667" lon="11.253962166666668"><ele>1042.3333333333333</ele><time>2026-05-01T07:08:45.361Z</time></trkpt><trkpt lat="46.8194134" lon="11.254261633333332"><ele>1055.6666666666665</ele><time>2026-05-01T07:08:46.357Z</time></trkpt><trkpt lat="46.81944660000001" lon="11.254553183333334"><ele>1069.0</ele><time>2026-05-01T07:08:47.366Z</time></trkpt><trkpt lat="46.819477549999995" lon="11.254836316666669"><ele>1069.0</ele><time>2026-05-01T07:08:48.357Z</time></trkpt><trkpt lat="46.81950830000001" lon="11.255110966666667"><ele>1069.0</ele><time>2026-05-01T07:08:49.359Z</time></trkpt><trkpt lat="46.81954553333333" lon="11.255375683333334"><ele>1069.0</ele><time>2026-05-01T07:08:50.358Z</time></trkpt><trkpt lat="46.81957668333333" lon="11.255643033333335"><ele>1066.6666666666665</ele><time>2026-05-01T07:08:51.361Z</time></trkpt><trkpt lat="46.81959328333334" lon="11.2559212"><ele>1064.3333333333333</ele><time>2026-05-01T07:08:52.343Z</time></trkpt><trkpt lat="46.81961475" lon="11.256205733333337"><ele>1062.0</ele><time>2026-05-01T07:08:53.357Z</time></trkpt><trkpt lat="46.819658399999994" lon="11.256487116666666"><ele>1055.0</ele><time>2026-05-01T07:08:54.356Z</time></trkpt><trkpt lat="46.8197058" lon="11.25675685"><ele>1048.0</ele><time>2026-05-01T07:08:55.358Z</time></trkpt><trkpt lat="46.81973865" lon="11.257011933333334"><ele>1041.0</ele><time>2026-05-01T07:08:56.346Z</time></trkpt><trkpt lat="46.81975228333334" lon="11.25723755"><ele>1039.25</ele><time>2026-05-01T07:08:57.357Z</time></trkpt><trkpt lat="46.819764366666675" lon="11.257439233333333"><ele>1037.5</ele><time>2026-05-01T07:08:58.38Z</time></trkpt><trkpt lat="46.8197973" lon="11.25761275"><ele>1035.75</ele><time>2026-05-01T07:08:59.362Z</time></trkpt><trkpt lat="46.819850716666664" lon="11.2577498"><ele>1034.0</ele><time>2026-05-01T07:09:00.357Z</time></trkpt><trkpt lat="46.81991743333333" lon="11.25783605"><ele>1034.0</ele><time>2026-05-01T07:09:01.343Z</time></trkpt><trkpt lat="46.81997486666667" lon="11.257908433333332"><ele>1034.0</ele><time>2026-05-01T07:09:02.356Z</time></trkpt><trkpt lat="46.819944916666664" lon="11.258061000000001"><ele>1034.0</ele><time>2026-05-01T07:09:04.36Z</time></trkpt><trkpt lat="46.819880250000004" lon="11.258080399999999"><ele>1034.0</ele><time>2026-05-01T07:09:05.342Z</time></trkpt><trkpt lat="46.81981931666666" lon="11.258026433333335"><ele>1034.0</ele><time>2026-05-01T07:09:06.357Z</time></trkpt><trkpt lat="46.819800391029055" lon="11.25790443856417"><ele>1034.0</ele><time>2026-05-01T07:09:07.351Z</time></trkpt><trkpt lat="46.81977902600393" lon="11.257726538840913"><ele>1034.0</ele><time>2026-05-01T07:09:08.364Z</time></trkpt><trkpt lat="46.81972993333334" lon="11.257509350000003"><ele>1034.0</ele><time>2026-05-01T07:09:09.357Z</time></trkpt><trkpt lat="46.819700916666676" lon="11.257264233333336"><ele>1034.0</ele><time>2026-05-01T07:09:10.357Z</time></trkpt><trkpt lat="46.81967370000001" lon="11.257014166666666"><ele>1036.3333333333335</ele><time>2026-05-01T07:09:11.349Z</time></trkpt><trkpt lat="46.81964664486125" lon="11.256776777340912"><ele>1038.6666666666667</ele><time>2026-05-01T07:09:12.357Z</time></trkpt><trkpt lat="46.819557616666664" lon="11.256587816666668"><ele>1041.0</ele><time>2026-05-01T07:09:13.356Z</time></trkpt><trkpt lat="46.81948179999999" lon="11.256399766666666"><ele>1046.25</ele><time>2026-05-01T07:09:14.341Z</time></trkpt><trkpt lat="46.81942139999999" lon="11.256215583333336"><ele>1051.5</ele><time>2026-05-01T07:09:15.361Z</time></trkpt><trkpt lat="46.819369300000005" lon="11.256030066666664"><ele>1056.75</ele><time>2026-05-01T07:09:16.342Z</time></trkpt><trkpt lat="46.81931623333333" lon="11.255824583333334"><ele>1062.0</ele><time>2026-05-01T07:09:17.346Z</time></trkpt><trkpt lat="46.81927138333333" lon="11.25559805"><ele>1042.0</ele><time>2026-05-01T07:09:18.357Z</time></trkpt><trkpt lat="46.81922598333334" lon="11.25535415"><ele>1022.0</ele><time>2026-05-01T07:09:19.363Z</time></trkpt><trkpt lat="46.81916078333334" lon="11.255099933333335"><ele>1002.0</ele><time>2026-05-01T07:09:20.343Z</time></trkpt><trkpt lat="46.81910177306868" lon="11.254822577601846"><ele>1009.0</ele><time>2026-05-01T07:09:21.357Z</time></trkpt><trkpt lat="46.81902101495478" lon="11.254553560256118"><ele>1016.0</ele><time>2026-05-01T07:09:22.357Z</time></trkpt><trkpt lat="46.818935533333324" lon="11.254302233333332"><ele>1023.0</ele><time>2026-05-01T07:09:23.362Z</time></trkpt><trkpt lat="46.818871083333335" lon="11.254053800000001"><ele>1025.0</ele><time>2026-05-01T07:09:24.358Z</time></trkpt><trkpt lat="46.818834780837676" lon="11.253807389445713"><ele>1027.0</ele><time>2026-05-01T07:09:25.343Z</time></trkpt><trkpt lat="46.818788011290195" lon="11.253576889786236"><ele>1029.0</ele><time>2026-05-01T07:09:26.357Z</time></trkpt><trkpt lat="46.81874188460722" lon="11.253354597889853"><ele>1029.0</ele><time>2026-05-01T07:09:27.357Z</time></trkpt><trkpt lat="46.81868728333334" lon="11.25314438333333"><ele>1029.0</ele><time>2026-05-01T07:09:28.359Z</time></trkpt><trkpt lat="46.81866921666667" lon="11.252919533333333"><ele>1029.0</ele><time>2026-05-01T07:09:29.343Z</time></trkpt><trkpt lat="46.81867839204255" lon="11.252677890781193"><ele>1030.6666666666667</ele><time>2026-05-01T07:09:30.358Z</time></trkpt><trkpt lat="46.818633399999996" lon="11.252434966666666"><ele>1032.3333333333335</ele><time>2026-05-01T07:09:31.359Z</time></trkpt><trkpt lat="46.81861176666666" lon="11.252180749999999"><ele>1034.0</ele><time>2026-05-01T07:09:32.341Z</time></trkpt><trkpt lat="46.818602802700816" lon="11.251928662243342"><ele>1034.0</ele><time>2026-05-01T07:09:33.356Z</time></trkpt><trkpt lat="46.818559557598604" lon="11.25167183521773"><ele>1034.0</ele><time>2026-05-01T07:09:34.343Z</time></trkpt><trkpt lat="46.81849216666666" lon="11.251433233333334"><ele>1034.0</ele><time>2026-05-01T07:09:35.363Z</time></trkpt><trkpt lat="46.81844101666667" lon="11.251196866666666"><ele>1009.6666666666667</ele><time>2026-05-01T07:09:36.356Z</time></trkpt><trkpt lat="46.81839846666667" lon="11.250967883333331"><ele>985.3333333333333</ele><time>2026-05-01T07:09:37.358Z</time></trkpt><trkpt lat="46.81836668333334" lon="11.250745099999998"><ele>961.0</ele><time>2026-05-01T07:09:38.364Z</time></trkpt><trkpt lat="46.81835376666666" lon="11.250534616666668"><ele>960.25</ele><time>2026-05-01T07:09:39.362Z</time></trkpt><trkpt lat="46.81837784999999" lon="11.2503503"><ele>959.5</ele><time>2026-05-01T07:09:40.358Z</time></trkpt><trkpt lat="46.818435050000005" lon="11.25017645"><ele>958.75</ele><time>2026-05-01T07:09:41.349Z</time></trkpt><trkpt lat="46.818510100000005" lon="11.249984616666666"><ele>958.0</ele><time>2026-05-01T07:09:42.356Z</time></trkpt><trkpt lat="46.81858111666668" lon="11.249769083333334"><ele>973.3333333333333</ele><time>2026-05-01T07:09:43.356Z</time></trkpt><trkpt lat="46.81863465" lon="11.249518233333333"><ele>988.6666666666667</ele><time>2026-05-01T07:09:44.362Z</time></trkpt><trkpt lat="46.81867173333334" lon="11.249252833333333"><ele>1004.0</ele><time>2026-05-01T07:09:45.358Z</time></trkpt><trkpt lat="46.81869643333332" lon="11.24899615"><ele>995.0</ele><time>2026-05-01T07:09:46.357Z</time></trkpt><trkpt lat="46.81872158333334" lon="11.248754016666664"><ele>986.0</ele><time>2026-05-01T07:09:47.362Z</time></trkpt><trkpt lat="46.81877233333333" lon="11.248518366666667"><ele>977.0</ele><time>2026-05-01T07:09:48.341Z</time></trkpt><trkpt lat="46.81883911666667" lon="11.248269650000003"><ele>969.6666666666667</ele><time>2026-05-01T07:09:49.36Z</time></trkpt><trkpt lat="46.818925938920124" lon="11.248013631904579"><ele>962.3333333333333</ele><time>2026-05-01T07:09:50.344Z</time></trkpt><trkpt lat="46.8189859" lon="11.247749816666666"><ele>955.0</ele><time>2026-05-01T07:09:51.357Z</time></trkpt><trkpt lat="46.81906581666667" lon="11.247513133333333"><ele>945.0</ele><time>2026-05-01T07:09:52.355Z</time></trkpt><trkpt lat="46.81914816666668" lon="11.247290416666665"><ele>935.0</ele><time>2026-05-01T07:09:53.363Z</time></trkpt><trkpt lat="46.81923116666667" lon="11.247076616666666"><ele>925.0</ele><time>2026-05-01T07:09:54.359Z</time></trkpt><trkpt lat="46.81930536666667" lon="11.246865716666665"><ele>934.75</ele><time>2026-05-01T07:09:55.357Z</time></trkpt><trkpt lat="46.819362033333334" lon="11.246654216666666"><ele>944.5</ele><time>2026-05-01T07:09:56.364Z</time></trkpt><trkpt lat="46.81941449999999" lon="11.246452083333333"><ele>954.25</ele><time>2026-05-01T07:09:57.358Z</time></trkpt><trkpt lat="46.81948193333332" lon="11.246286183333332"><ele>964.0</ele><time>2026-05-01T07:09:58.357Z</time></trkpt><trkpt lat="46.81955705" lon="11.2461668"><ele>963.9999999999999</ele><time>2026-05-01T07:09:59.352Z</time></trkpt><trkpt lat="46.81962428333333" lon="11.246065183333334"><ele>964.0</ele><time>2026-05-01T07:10:00.357Z</time></trkpt><trkpt lat="46.81965373333334" lon="11.245955550000001"><ele>964.0</ele><time>2026-05-01T07:10:01.366Z</time></trkpt><trkpt lat="46.819643256797114" lon="11.245841605253165"><ele>964.0</ele><time>2026-05-01T07:10:02.371Z</time></trkpt><trkpt lat="46.819571553052874" lon="11.245786234754236"><ele>963.9999999999999</ele><time>2026-05-01T07:10:03.357Z</time></trkpt><trkpt lat="46.81948930689558" lon="11.24580469468313"><ele>964.0</ele><time>2026-05-01T07:10:04.36Z</time></trkpt><trkpt lat="46.81942585937408" lon="11.245927257027374"><ele>964.0</ele><time>2026-05-01T07:10:05.364Z</time></trkpt><trkpt lat="46.819382797683765" lon="11.246074148576746"><ele>964.0</ele><time>2026-05-01T07:10:06.343Z</time></trkpt><trkpt lat="46.819324847508646" lon="11.246250330366339"><ele>964.0</ele><time>2026-05-01T07:10:07.361Z</time></trkpt><trkpt lat="46.81925223144683" lon="11.246458195498462"><ele>964.0</ele><time>2026-05-01T07:10:08.344Z</time></trkpt><trkpt lat="46.81916823121017" lon="11.24669515510415"><ele>961.0</ele><time>2026-05-01T07:10:09.357Z</time></trkpt><trkpt lat="46.819047010042105" lon="11.246931878008978"><ele>958.0</ele><time>2026-05-01T07:10:10.358Z</time></trkpt><trkpt lat="46.8189034347538" lon="11.247189039701112"><ele>955.0</ele><time>2026-05-01T07:10:11.343Z</time></trkpt><trkpt lat="46.818754145320256" lon="11.247463288241196"><ele>955.0</ele><time>2026-05-01T07:10:12.36Z</time></trkpt><trkpt lat="46.81861200391141" lon="11.24773430364974"><ele>955.0</ele><time>2026-05-01T07:10:13.356Z</time></trkpt><trkpt lat="46.81847840511763" lon="11.24800139055965"><ele>941.6666666666666</ele><time>2026-05-01T07:10:14.365Z</time></trkpt><trkpt lat="46.8183528869731" lon="11.248262282671574"><ele>928.3333333333333</ele><time>2026-05-01T07:10:15.343Z</time></trkpt><trkpt lat="46.818243621254126" lon="11.248530252321341"><ele>915.0</ele><time>2026-05-01T07:10:16.358Z</time></trkpt><trkpt lat="46.818164333333335" lon="11.248802116666665"><ele>922.0</ele><time>2026-05-01T07:10:17.343Z</time></trkpt><trkpt lat="46.81805836222005" lon="11.249021582338452"><ele>929.0</ele><time>2026-05-01T07:10:18.357Z</time></trkpt><trkpt lat="46.81797523557558" lon="11.249224403817767"><ele>936.0</ele><time>2026-05-01T07:10:19.36Z</time></trkpt><trkpt lat="46.817903550686935" lon="11.249400677683521"><ele>936.0</ele><time>2026-05-01T07:10:20.343Z</time></trkpt><trkpt lat="46.817821301192396" lon="11.249535861197186"><ele>936.0</ele><time>2026-05-01T07:10:21.357Z</time></trkpt><trkpt lat="46.8177187374544" lon="11.249618957682456"><ele>936.0</ele><time>2026-05-01T07:10:22.359Z</time></trkpt><trkpt lat="46.817606628443194" lon="11.249678009852996"><ele>936.0</ele><time>2026-05-01T07:10:23.362Z</time></trkpt><trkpt lat="46.81748972742646" lon="11.249761773644112"><ele>928.0</ele><time>2026-05-01T07:10:24.34Z</time></trkpt><trkpt lat="46.817407850005125" lon="11.249921258273403"><ele>920.0</ele><time>2026-05-01T07:10:25.357Z</time></trkpt><trkpt lat="46.81737247963209" lon="11.250100894940685"><ele>912.0</ele><time>2026-05-01T07:10:26.361Z</time></trkpt><trkpt lat="46.817338683505" lon="11.250276419043093"><ele>904.0</ele><time>2026-05-01T07:10:27.359Z</time></trkpt><trkpt lat="46.81729222803762" lon="11.25043385650907"><ele>904.0</ele><time>2026-05-01T07:10:28.357Z</time></trkpt><trkpt lat="46.81723690749972" lon="11.25057377040008"><ele>904.0</ele><time>2026-05-01T07:10:29.357Z</time></trkpt><trkpt lat="46.8171830345395" lon="11.250738944580938"><ele>904.0</ele><time>2026-05-01T07:10:30.358Z</time></trkpt><trkpt lat="46.81717355155757" lon="11.250902704249208"><ele>904.0</ele><time>2026-05-01T07:10:31.358Z</time></trkpt><trkpt lat="46.81724226666667" lon="11.251028866666665"><ele>904.75</ele><time>2026-05-01T07:10:32.362Z</time></trkpt><trkpt lat="46.81730233333333" lon="11.251156633333336"><ele>905.5</ele><time>2026-05-01T07:10:33.342Z</time></trkpt><trkpt lat="46.817338833333324" lon="11.251313766666664"><ele>906.25</ele><time>2026-05-01T07:10:34.38Z</time></trkpt><trkpt lat="46.81733925" lon="11.251507066666667"><ele>907.0</ele><time>2026-05-01T07:10:35.363Z</time></trkpt><trkpt lat="46.81730516070249" lon="11.251706850000001"><ele>904.5</ele><time>2026-05-01T07:10:36.358Z</time></trkpt><trkpt lat="46.8173100571731" lon="11.251896476419368"><ele>902.0</ele><time>2026-05-01T07:10:37.357Z</time></trkpt><trkpt lat="46.81731722577542" lon="11.252071909889386"><ele>899.5</ele><time>2026-05-01T07:10:38.355Z</time></trkpt><trkpt lat="46.81732141070115" lon="11.252237266621933"><ele>897.0</ele><time>2026-05-01T07:10:39.357Z</time></trkpt><trkpt lat="46.817325921185066" lon="11.252398932076916"><ele>896.8333333333334</ele><time>2026-05-01T07:10:40.358Z</time></trkpt><trkpt lat="46.81734715056034" lon="11.252559851860852"><ele>896.6666666666667</ele><time>2026-05-01T07:10:41.362Z</time></trkpt><trkpt lat="46.817388879681026" lon="11.252666399584069"><ele>896.5</ele><time>2026-05-01T07:10:42.367Z</time></trkpt><trkpt lat="46.81741643333333" lon="11.252792949999998"><ele>896.3333333333334</ele><time>2026-05-01T07:10:44.362Z</time></trkpt><trkpt lat="46.81735180000001" lon="11.252822216666667"><ele>896.1666666666667</ele><time>2026-05-01T07:10:45.359Z</time></trkpt><trkpt lat="46.81729051666667" lon="11.252782333333336"><ele>896.0</ele><time>2026-05-01T07:10:46.358Z</time></trkpt><trkpt lat="46.81725466666667" lon="11.252696883333332"><ele>896.0</ele><time>2026-05-01T07:10:47.353Z</time></trkpt><trkpt lat="46.8172423" lon="11.252583000000001"><ele>895.9999999999999</ele><time>2026-05-01T07:10:48.36Z</time></trkpt><trkpt lat="46.81723220000001" lon="11.252436483333335"><ele>895.9999999999999</ele><time>2026-05-01T07:10:49.358Z</time></trkpt><trkpt lat="46.817197633333336" lon="11.252268316666669"><ele>896.0</ele><time>2026-05-01T07:10:50.343Z</time></trkpt><trkpt lat="46.81715596666666" lon="11.252091716666667"><ele>896.0</ele><time>2026-05-01T07:10:51.364Z</time></trkpt><trkpt lat="46.81713163333334" lon="11.251920716666666"><ele>896.1999999999999</ele><time>2026-05-01T07:10:52.341Z</time></trkpt><trkpt lat="46.81714033333333" lon="11.251761083333335"><ele>896.3999999999999</ele><time>2026-05-01T07:10:53.35Z</time></trkpt><trkpt lat="46.817148883333324" lon="11.251617166666664"><ele>896.6</ele><time>2026-05-01T07:10:54.357Z</time></trkpt><trkpt lat="46.81711563333333" lon="11.251494783333332"><ele>896.8</ele><time>2026-05-01T07:10:55.358Z</time></trkpt><trkpt lat="46.81703973333334" lon="11.251403883333335"><ele>897.0</ele><time>2026-05-01T07:10:56.354Z</time></trkpt><trkpt lat="46.816939166666664" lon="11.251343866666666"><ele>899.0</ele><time>2026-05-01T07:10:57.357Z</time></trkpt><trkpt lat="46.81683246666667" lon="11.251298416666668"><ele>901.0</ele><time>2026-05-01T07:10:58.357Z</time></trkpt><trkpt lat="46.81673168333333" lon="11.25125255"><ele>903.0</ele><time>2026-05-01T07:10:59.364Z</time></trkpt><trkpt lat="46.81664953333334" lon="11.251179283333332"><ele>905.0</ele><time>2026-05-01T07:11:00.36Z</time></trkpt><trkpt lat="46.81660423333333" lon="11.251072283333334"><ele>907.0</ele><time>2026-05-01T07:11:01.341Z</time></trkpt><trkpt lat="46.816603183333335" lon="11.250945533333333"><ele>895.75</ele><time>2026-05-01T07:11:02.362Z</time></trkpt><trkpt lat="46.81664065" lon="11.250814700000001"><ele>884.5</ele><time>2026-05-01T07:11:03.357Z</time></trkpt><trkpt lat="46.81669675" lon="11.250665216666667"><ele>873.25</ele><time>2026-05-01T07:11:04.357Z</time></trkpt><trkpt lat="46.816754216666666" lon="11.250503616666666"><ele>862.0</ele><time>2026-05-01T07:11:05.357Z</time></trkpt><trkpt lat="46.81680070000001" lon="11.250342766666666"><ele>861.6</ele><time>2026-05-01T07:11:06.357Z</time></trkpt><trkpt lat="46.81682913333334" lon="11.250184699999998"><ele>861.2</ele><time>2026-05-01T07:11:07.357Z</time></trkpt><trkpt lat="46.81683246666667" lon="11.250029866666669"><ele>860.8</ele><time>2026-05-01T07:11:08.362Z</time></trkpt><trkpt lat="46.81681675" lon="11.249869066666667"><ele>860.4</ele><time>2026-05-01T07:11:09.359Z</time></trkpt><trkpt lat="46.8167907" lon="11.249698366666667"><ele>860.0</ele><time>2026-05-01T07:11:10.378Z</time></trkpt><trkpt lat="46.81676556666666" lon="11.249531833333332"><ele>857.4</ele><time>2026-05-01T07:11:11.364Z</time></trkpt><trkpt lat="46.81673968333333" lon="11.249374016666666"><ele>854.8</ele><time>2026-05-01T07:11:12.36Z</time></trkpt><trkpt lat="46.81671728333334" lon="11.249226783333333"><ele>852.2</ele><time>2026-05-01T07:11:13.361Z</time></trkpt><trkpt lat="46.81671291666667" lon="11.249086033333333"><ele>849.6</ele><time>2026-05-01T07:11:14.351Z</time></trkpt><trkpt lat="46.81672963333334" lon="11.248958216666665"><ele>847.0</ele><time>2026-05-01T07:11:15.362Z</time></trkpt><trkpt lat="46.8167774" lon="11.248859000000001"><ele>851.2</ele><time>2026-05-01T07:11:16.36Z</time></trkpt><trkpt lat="46.81686146666666" lon="11.248800333333335"><ele>855.4000000000001</ele><time>2026-05-01T07:11:17.341Z</time></trkpt><trkpt lat="46.816967033333334" lon="11.248780716666667"><ele>859.5999999999999</ele><time>2026-05-01T07:11:18.356Z</time></trkpt><trkpt lat="46.81708411666666" lon="11.248796783333335"><ele>863.8</ele><time>2026-05-01T07:11:19.357Z</time></trkpt><trkpt lat="46.81719258333332" lon="11.2488459"><ele>868.0</ele><time>2026-05-01T07:11:20.342Z</time></trkpt><trkpt lat="46.81728833333334" lon="11.248872800000001"><ele>868.0</ele><time>2026-05-01T07:11:21.357Z</time></trkpt><trkpt lat="46.81737695" lon="11.248833349999998"><ele>868.0</ele><time>2026-05-01T07:11:22.36Z</time></trkpt><trkpt lat="46.81744126666667" lon="11.248728033333334"><ele>868.0</ele><time>2026-05-01T07:11:23.362Z</time></trkpt><trkpt lat="46.81747736666666" lon="11.248569333333334"><ele>868.0</ele><time>2026-05-01T07:11:24.344Z</time></trkpt><trkpt lat="46.81751665" lon="11.248387966666668"><ele>868.0</ele><time>2026-05-01T07:11:25.358Z</time></trkpt><trkpt lat="46.81757278333333" lon="11.248202566666665"><ele>874.0</ele><time>2026-05-01T07:11:26.362Z</time></trkpt><trkpt lat="46.81762848333333" lon="11.248027866666666"><ele>880.0</ele><time>2026-05-01T07:11:27.364Z</time></trkpt><trkpt lat="46.81769255159801" lon="11.247872631521346"><ele>886.0</ele><time>2026-05-01T07:11:28.342Z</time></trkpt><trkpt lat="46.817714716666664" lon="11.247699866666668"><ele>892.0</ele><time>2026-05-01T07:11:29.363Z</time></trkpt><trkpt lat="46.817749533333334" lon="11.247545766666667"><ele>892.0</ele><time>2026-05-01T07:11:30.358Z</time></trkpt><trkpt lat="46.817796799999996" lon="11.2473971"><ele>892.0</ele><time>2026-05-01T07:11:31.358Z</time></trkpt><trkpt lat="46.8178529" lon="11.247236833333332"><ele>892.0</ele><time>2026-05-01T07:11:32.351Z</time></trkpt><trkpt lat="46.817901899999995" lon="11.247042866666666"><ele>892.0</ele><time>2026-05-01T07:11:33.359Z</time></trkpt><trkpt lat="46.81794061666667" lon="11.246816266666666"><ele>884.0</ele><time>2026-05-01T07:11:34.358Z</time></trkpt><trkpt lat="46.81798353333333" lon="11.246566283333335"><ele>876.0</ele><time>2026-05-01T07:11:35.363Z</time></trkpt><trkpt lat="46.818034583333336" lon="11.2463132"><ele>868.0</ele><time>2026-05-01T07:11:36.359Z</time></trkpt><trkpt lat="46.81808089999999" lon="11.2460703"><ele>863.75</ele><time>2026-05-01T07:11:37.343Z</time></trkpt><trkpt lat="46.81811805000001" lon="11.245837183333332"><ele>859.5</ele><time>2026-05-01T07:11:38.371Z</time></trkpt><trkpt lat="46.81815393333333" lon="11.245628116666667"><ele>855.25</ele><time>2026-05-01T07:11:39.359Z</time></trkpt><trkpt lat="46.81818311666665" lon="11.245441566666667"><ele>851.0</ele><time>2026-05-01T07:11:40.361Z</time></trkpt><trkpt lat="46.81820505000001" lon="11.245267533333333"><ele>846.4</ele><time>2026-05-01T07:11:41.349Z</time></trkpt><trkpt lat="46.818222666666664" lon="11.24509745"><ele>841.8</ele><time>2026-05-01T07:11:42.359Z</time></trkpt><trkpt lat="46.818232083333335" lon="11.244938383333333"><ele>837.1999999999999</ele><time>2026-05-01T07:11:43.357Z</time></trkpt><trkpt lat="46.81824016666666" lon="11.244801083333334"><ele>832.5999999999999</ele><time>2026-05-01T07:11:44.342Z</time></trkpt><trkpt lat="46.81826338333333" lon="11.244690933333333"><ele>828.0</ele><time>2026-05-01T07:11:45.364Z</time></trkpt><trkpt lat="46.81831135" lon="11.244614166666668"><ele>830.8333333333334</ele><time>2026-05-01T07:11:46.342Z</time></trkpt><trkpt lat="46.818374250000005" lon="11.24457905"><ele>833.6666666666667</ele><time>2026-05-01T07:11:47.341Z</time></trkpt><trkpt lat="46.81844341666667" lon="11.244582316666666"><ele>836.5</ele><time>2026-05-01T07:11:48.359Z</time></trkpt><trkpt lat="46.81852261666666" lon="11.244611516666664"><ele>839.3333333333334</ele><time>2026-05-01T07:11:49.356Z</time></trkpt><trkpt lat="46.81862043333334" lon="11.2446474"><ele>842.1666666666667</ele><time>2026-05-01T07:11:50.347Z</time></trkpt><trkpt lat="46.81871996666667" lon="11.244669116666667"><ele>845.0</ele><time>2026-05-01T07:11:51.342Z</time></trkpt><trkpt lat="46.81881303333333" lon="11.244655333333334"><ele>845.0</ele><time>2026-05-01T07:11:52.358Z</time></trkpt><trkpt lat="46.81889030000001" lon="11.24459405"><ele>845.0</ele><time>2026-05-01T07:11:53.349Z</time></trkpt><trkpt lat="46.81893645" lon="11.24448765"><ele>845.0</ele><time>2026-05-01T07:11:54.357Z</time></trkpt><trkpt lat="46.81894455" lon="11.244352233333332"><ele>845.0</ele><time>2026-05-01T07:11:55.36Z</time></trkpt><trkpt lat="46.818927249999994" lon="11.244192933333332"><ele>845.0</ele><time>2026-05-01T07:11:56.342Z</time></trkpt><trkpt lat="46.81890716666667" lon="11.244017066666666"><ele>841.6</ele><time>2026-05-01T07:11:57.358Z</time></trkpt><trkpt lat="46.8188851" lon="11.24385365"><ele>838.2</ele><time>2026-05-01T07:11:58.358Z</time></trkpt><trkpt lat="46.818863716666655" lon="11.243713933333334"><ele>834.8</ele><time>2026-05-01T07:11:59.363Z</time></trkpt><trkpt lat="46.81885968333332" lon="11.243571933333333"><ele>831.4</ele><time>2026-05-01T07:12:00.359Z</time></trkpt><trkpt lat="46.81888668333333" lon="11.243430499999999"><ele>828.0</ele><time>2026-05-01T07:12:01.357Z</time></trkpt><trkpt lat="46.818939699999994" lon="11.243317233333334"><ele>828.0</ele><time>2026-05-01T07:12:02.342Z</time></trkpt><trkpt lat="46.819010733333336" lon="11.243241616666667"><ele>828.0</ele><time>2026-05-01T07:12:03.357Z</time></trkpt><trkpt lat="46.81908660000001" lon="11.243191300000001"><ele>828.0</ele><time>2026-05-01T07:12:04.364Z</time></trkpt><trkpt lat="46.81915365" lon="11.243129449999998"><ele>828.0</ele><time>2026-05-01T07:12:05.356Z</time></trkpt><trkpt lat="46.81919585000001" lon="11.243029283333332"><ele>828.0</ele><time>2026-05-01T07:12:06.358Z</time></trkpt><trkpt lat="46.81921366666667" lon="11.242884550000001"><ele>828.0</ele><time>2026-05-01T07:12:07.361Z</time></trkpt><trkpt lat="46.81922221666667" lon="11.242722"><ele>823.5999999999999</ele><time>2026-05-01T07:12:08.346Z</time></trkpt><trkpt lat="46.81924466666666" lon="11.242557383333333"><ele>819.1999999999999</ele><time>2026-05-01T07:12:09.359Z</time></trkpt><trkpt lat="46.81926895" lon="11.24240315"><ele>814.8</ele><time>2026-05-01T07:12:10.379Z</time></trkpt><trkpt lat="46.8192643" lon="11.2422601"><ele>810.4</ele><time>2026-05-01T07:12:11.348Z</time></trkpt><trkpt lat="46.819239707408926" lon="11.242104931147955"><ele>806.0</ele><time>2026-05-01T07:12:12.359Z</time></trkpt><trkpt lat="46.81915219150982" lon="11.241989022231742"><ele>805.6666666666667</ele><time>2026-05-01T07:12:13.36Z</time></trkpt><trkpt lat="46.819053955178994" lon="11.241904561373426"><ele>805.3333333333334</ele><time>2026-05-01T07:12:14.359Z</time></trkpt><trkpt lat="46.818964905077095" lon="11.241839554569315"><ele>805.0</ele><time>2026-05-01T07:12:15.363Z</time></trkpt><trkpt lat="46.818883683333326" lon="11.241796333333332"><ele>804.6666666666667</ele><time>2026-05-01T07:12:16.357Z</time></trkpt><trkpt lat="46.8188551" lon="11.241697766666666"><ele>804.3333333333334</ele><time>2026-05-01T07:12:17.345Z</time></trkpt><trkpt lat="46.818859999999994" lon="11.241595400000001"><ele>804.0</ele><time>2026-05-01T07:12:18.358Z</time></trkpt><trkpt lat="46.81888513333333" lon="11.24148155"><ele>805.8000000000001</ele><time>2026-05-01T07:12:19.354Z</time></trkpt><trkpt lat="46.81889908333333" lon="11.241343866666666"><ele>807.6</ele><time>2026-05-01T07:12:20.364Z</time></trkpt><trkpt lat="46.81888226666666" lon="11.241188083333336"><ele>809.4</ele><time>2026-05-01T07:12:21.357Z</time></trkpt><trkpt lat="46.81883678333333" lon="11.241042166666666"><ele>811.2</ele><time>2026-05-01T07:12:22.358Z</time></trkpt><trkpt lat="46.818786066666675" lon="11.240913266666666"><ele>813.0</ele><time>2026-05-01T07:12:23.35Z</time></trkpt><trkpt lat="46.818753083333334" lon="11.240792800000001"><ele>813.0</ele><time>2026-05-01T07:12:24.358Z</time></trkpt><trkpt lat="46.81873198333333" lon="11.240673050000002"><ele>813.0</ele><time>2026-05-01T07:12:25.361Z</time></trkpt><trkpt lat="46.81872091666668" lon="11.240557933333331"><ele>813.0</ele><time>2026-05-01T07:12:26.343Z</time></trkpt><trkpt lat="46.81872188333333" lon="11.2404196"><ele>813.0</ele><time>2026-05-01T07:12:27.357Z</time></trkpt><trkpt lat="46.818729816666675" lon="11.24025245"><ele>813.0</ele><time>2026-05-01T07:12:28.343Z</time></trkpt><trkpt lat="46.81873466666666" lon="11.240063950000001"><ele>813.5999999999999</ele><time>2026-05-01T07:12:29.342Z</time></trkpt><trkpt lat="46.818729483333335" lon="11.239885333333332"><ele>814.1999999999999</ele><time>2026-05-01T07:12:30.358Z</time></trkpt><trkpt lat="46.81872208333333" lon="11.239711616666666"><ele>814.8</ele><time>2026-05-01T07:12:31.359Z</time></trkpt><trkpt lat="46.81870418333333" lon="11.239558683333334"><ele>815.4</ele><time>2026-05-01T07:12:32.34Z</time></trkpt><trkpt lat="46.81867718333333" lon="11.239420166666665"><ele>816.0</ele><time>2026-05-01T07:12:33.357Z</time></trkpt><trkpt lat="46.818642600000004" lon="11.239294183333334"><ele>816.0</ele><time>2026-05-01T07:12:34.358Z</time></trkpt><trkpt lat="46.81862081666666" lon="11.239166799999998"><ele>816.0</ele><time>2026-05-01T07:12:35.363Z</time></trkpt><trkpt lat="46.818633950000006" lon="11.239035716666669"><ele>816.0</ele><time>2026-05-01T07:12:36.357Z</time></trkpt><trkpt lat="46.81865863333334" lon="11.238910649999998"><ele>816.0</ele><time>2026-05-01T07:12:37.341Z</time></trkpt><trkpt lat="46.818655533333335" lon="11.238801633333333"><ele>816.0</ele><time>2026-05-01T07:12:38.356Z</time></trkpt><trkpt lat="46.81860736666666" lon="11.238719433333332"><ele>816.0</ele><time>2026-05-01T07:12:39.358Z</time></trkpt><trkpt lat="46.81852502778005" lon="11.238648388438468"><ele>816.0</ele><time>2026-05-01T07:12:40.358Z</time></trkpt><trkpt lat="46.81842148215794" lon="11.23870256597168"><ele>816.0</ele><time>2026-05-01T07:12:41.366Z</time></trkpt><trkpt lat="46.818384560405235" lon="11.238862316666667"><ele>816.0</ele><time>2026-05-01T07:12:42.36Z</time></trkpt><trkpt lat="46.81842334492256" lon="11.23899997208518"><ele>816.0</ele><time>2026-05-01T07:12:43.358Z</time></trkpt><trkpt lat="46.81846027556724" lon="11.239123676324192"><ele>816.0</ele><time>2026-05-01T07:12:44.344Z</time></trkpt><trkpt lat="46.818486112639285" lon="11.239249115877701"><ele>816.0</ele><time>2026-05-01T07:12:45.361Z</time></trkpt><trkpt lat="46.81849162041893" lon="11.239392663031408"><ele>816.0</ele><time>2026-05-01T07:12:46.344Z</time></trkpt><trkpt lat="46.818484270987184" lon="11.239546066917772"><ele>816.0</ele><time>2026-05-01T07:12:47.346Z</time></trkpt><trkpt lat="46.81847349183005" lon="11.23969733778858"><ele>816.0</ele><time>2026-05-01T07:12:48.358Z</time></trkpt><trkpt lat="46.818463757851575" lon="11.239837371184409"><ele>816.0</ele><time>2026-05-01T07:12:49.359Z</time></trkpt><trkpt lat="46.8184488384693" lon="11.239972585366367"><ele>802.25</ele><time>2026-05-01T07:12:50.342Z</time></trkpt><trkpt lat="46.818424229733246" lon="11.240115288285386"><ele>788.5</ele><time>2026-05-01T07:12:51.362Z</time></trkpt><trkpt lat="46.818392905924206" lon="11.240281391724865"><ele>774.75</ele><time>2026-05-01T07:12:52.358Z</time></trkpt><trkpt lat="46.81836384971005" lon="11.240474358104258"><ele>761.0</ele><time>2026-05-01T07:12:53.363Z</time></trkpt><trkpt lat="46.818373974683105" lon="11.240676110425474"><ele>759.8</ele><time>2026-05-01T07:12:54.358Z</time></trkpt><trkpt lat="46.81839522147474" lon="11.240857270769654"><ele>758.5999999999999</ele><time>2026-05-01T07:12:55.358Z</time></trkpt><trkpt lat="46.81841032228294" lon="11.241018839524292"><ele>757.4</ele><time>2026-05-01T07:12:56.345Z</time></trkpt><trkpt lat="46.81840459904296" lon="11.241160224039993"><ele>756.2</ele><time>2026-05-01T07:12:57.357Z</time></trkpt><trkpt lat="46.81836381194438" lon="11.241282915379498"><ele>755.0</ele><time>2026-05-01T07:12:58.358Z</time></trkpt><trkpt lat="46.81830200431285" lon="11.241389652245537"><ele>754.6</ele><time>2026-05-01T07:12:59.344Z</time></trkpt><trkpt lat="46.818250412354296" lon="11.241505680834537"><ele>754.2</ele><time>2026-05-01T07:13:00.344Z</time></trkpt><trkpt lat="46.818222440842455" lon="11.241622144953329"><ele>753.8</ele><time>2026-05-01T07:13:01.358Z</time></trkpt><trkpt lat="46.81820360950908" lon="11.241750759843539"><ele>753.4</ele><time>2026-05-01T07:13:02.363Z</time></trkpt><trkpt lat="46.81820254624919" lon="11.241900650273182"><ele>753.0</ele><time>2026-05-01T07:13:03.359Z</time></trkpt><trkpt lat="46.81822552285167" lon="11.242061633295496"><ele>753.0</ele><time>2026-05-01T07:13:04.353Z</time></trkpt><trkpt lat="46.81825552386868" lon="11.24220979422939"><ele>753.0</ele><time>2026-05-01T07:13:05.363Z</time></trkpt><trkpt lat="46.81828736666666" lon="11.242353199999998"><ele>753.0</ele><time>2026-05-01T07:13:06.36Z</time></trkpt><trkpt lat="46.81825455848306" lon="11.242501389637722"><ele>753.0</ele><time>2026-05-01T07:13:07.36Z</time></trkpt><trkpt lat="46.818213165722696" lon="11.242653985822727"><ele>753.0</ele><time>2026-05-01T07:13:08.364Z</time></trkpt><trkpt lat="46.81816326128842" lon="11.242819257492542"><ele>753.25</ele><time>2026-05-01T07:13:09.36Z</time></trkpt><trkpt lat="46.81811215063716" lon="11.242995284469558"><ele>753.5</ele><time>2026-05-01T07:13:10.359Z</time></trkpt><trkpt lat="46.81806618029408" lon="11.243175084260045"><ele>753.75</ele><time>2026-05-01T07:13:11.364Z</time></trkpt><trkpt lat="46.81802777533937" lon="11.243347844471431"><ele>754.0</ele><time>2026-05-01T07:13:12.358Z</time></trkpt><trkpt lat="46.817994640164386" lon="11.243509111204887"><ele>758.5</ele><time>2026-05-01T07:13:13.361Z</time></trkpt><trkpt lat="46.817962569450934" lon="11.24366497392221"><ele>763.0</ele><time>2026-05-01T07:13:14.342Z</time></trkpt><trkpt lat="46.817913553507005" lon="11.243816409574258"><ele>767.5</ele><time>2026-05-01T07:13:15.358Z</time></trkpt><trkpt lat="46.817844762569905" lon="11.243966071073809"><ele>772.0</ele><time>2026-05-01T07:13:16.36Z</time></trkpt><trkpt lat="46.817760346978964" lon="11.24410830799528"><ele>777.5</ele><time>2026-05-01T07:13:17.36Z</time></trkpt><trkpt lat="46.81767263333332" lon="11.244242183333332"><ele>783.0</ele><time>2026-05-01T07:13:18.343Z</time></trkpt><trkpt lat="46.81755801666666" lon="11.244318849999997"><ele>788.5</ele><time>2026-05-01T07:13:19.357Z</time></trkpt><trkpt lat="46.81744336666667" lon="11.244363766666668"><ele>794.0</ele><time>2026-05-01T07:13:20.343Z</time></trkpt><trkpt lat="46.8173274" lon="11.244377766666666"><ele>784.6</ele><time>2026-05-01T07:13:21.357Z</time></trkpt><trkpt lat="46.817218649999994" lon="11.244373800000002"><ele>775.2</ele><time>2026-05-01T07:13:22.35Z</time></trkpt><trkpt lat="46.817122066666656" lon="11.244363316666666"><ele>765.8000000000001</ele><time>2026-05-01T07:13:23.344Z</time></trkpt><trkpt lat="46.817030499999994" lon="11.244353283333332"><ele>756.4000000000001</ele><time>2026-05-01T07:13:24.358Z</time></trkpt><trkpt lat="46.81694085570217" lon="11.244339539958105"><ele>747.0</ele><time>2026-05-01T07:13:25.361Z</time></trkpt><trkpt lat="46.81685171087466" lon="11.244377977402616"><ele>741.2</ele><time>2026-05-01T07:13:26.363Z</time></trkpt><trkpt lat="46.81676093695157" lon="11.244458508524401"><ele>735.4000000000001</ele><time>2026-05-01T07:13:27.34Z</time></trkpt><trkpt lat="46.816691883333334" lon="11.244569366666667"><ele>729.5999999999999</ele><time>2026-05-01T07:13:28.358Z</time></trkpt><trkpt lat="46.816614216666665" lon="11.244653300000001"><ele>723.8</ele><time>2026-05-01T07:13:29.363Z</time></trkpt><trkpt lat="46.81653711666666" lon="11.244728783333334"><ele>718.0</ele><time>2026-05-01T07:13:30.359Z</time></trkpt><trkpt lat="46.81645713333334" lon="11.244788383333331"><ele>721.2</ele><time>2026-05-01T07:13:31.359Z</time></trkpt><trkpt lat="46.81637278333333" lon="11.2448293"><ele>724.4</ele><time>2026-05-01T07:13:32.343Z</time></trkpt><trkpt lat="46.816284499999995" lon="11.244858266666666"><ele>727.6</ele><time>2026-05-01T07:13:33.358Z</time></trkpt><trkpt lat="46.81619845" lon="11.244894516666665"><ele>730.8000000000001</ele><time>2026-05-01T07:13:34.358Z</time></trkpt><trkpt lat="46.816115800000006" lon="11.244952149999998"><ele>734.0</ele><time>2026-05-01T07:13:35.363Z</time></trkpt><trkpt lat="46.816035766666666" lon="11.245023900000001"><ele>731.3333333333333</ele><time>2026-05-01T07:13:36.342Z</time></trkpt><trkpt lat="46.81595415" lon="11.245099166666668"><ele>728.6666666666666</ele><time>2026-05-01T07:13:37.358Z</time></trkpt><trkpt lat="46.81587195" lon="11.245163316666666"><ele>726.0</ele><time>2026-05-01T07:13:38.351Z</time></trkpt><trkpt lat="46.81579756666667" lon="11.245203150000002"><ele>723.3333333333334</ele><time>2026-05-01T07:13:39.358Z</time></trkpt><trkpt lat="46.81572616666667" lon="11.24521778333333"><ele>720.6666666666667</ele><time>2026-05-01T07:13:40.359Z</time></trkpt><trkpt lat="46.81564876666666" lon="11.245223400000002"><ele>718.0</ele><time>2026-05-01T07:13:41.354Z</time></trkpt><trkpt lat="46.815573525394434" lon="11.245183497898806"><ele>718.0</ele><time>2026-05-01T07:13:42.358Z</time></trkpt><trkpt lat="46.81549407738699" lon="11.245138536951663"><ele>718.0</ele><time>2026-05-01T07:13:43.359Z</time></trkpt><trkpt lat="46.81541271535417" lon="11.245079772197561"><ele>718.0</ele><time>2026-05-01T07:13:44.363Z</time></trkpt><trkpt lat="46.81532657486526" lon="11.245019101239253"><ele>718.0</ele><time>2026-05-01T07:13:45.342Z</time></trkpt><trkpt lat="46.81523608933735" lon="11.244955864187355"><ele>718.0</ele><time>2026-05-01T07:13:46.38Z</time></trkpt><trkpt lat="46.81514285870942" lon="11.244890244164525"><ele>717.4</ele><time>2026-05-01T07:13:47.363Z</time></trkpt><trkpt lat="46.8150485206119" lon="11.244822430752034"><ele>716.8</ele><time>2026-05-01T07:13:48.358Z</time></trkpt><trkpt lat="46.814954970113355" lon="11.244759402015914"><ele>716.2</ele><time>2026-05-01T07:13:49.359Z</time></trkpt><trkpt lat="46.81486418713675" lon="11.244703598917628"><ele>715.6</ele><time>2026-05-01T07:13:50.358Z</time></trkpt><trkpt lat="46.814772741491026" lon="11.244662954094611"><ele>715.0</ele><time>2026-05-01T07:13:51.358Z</time></trkpt><trkpt lat="46.81467792828169" lon="11.244633549740481"><ele>711.2</ele><time>2026-05-01T07:13:52.358Z</time></trkpt><trkpt lat="46.814580024439636" lon="11.244605051424745"><ele>707.4</ele><time>2026-05-01T07:13:53.363Z</time></trkpt><trkpt lat="46.81447866200584" lon="11.244577401068103"><ele>703.5999999999999</ele><time>2026-05-01T07:13:54.365Z</time></trkpt><trkpt lat="46.81437439979386" lon="11.244550699786213"><ele>699.8</ele><time>2026-05-01T07:13:55.354Z</time></trkpt><trkpt lat="46.8142639" lon="11.2445466"><ele>696.0</ele><time>2026-05-01T07:13:56.343Z</time></trkpt><trkpt lat="46.81415366666666" lon="11.244516183333333"><ele>693.8</ele><time>2026-05-01T07:13:57.358Z</time></trkpt><trkpt lat="46.81404433663069" lon="11.244461314962178"><ele>691.5999999999999</ele><time>2026-05-01T07:13:58.358Z</time></trkpt><trkpt lat="46.81393567890899" lon="11.244431300811218"><ele>689.4</ele><time>2026-05-01T07:13:59.352Z</time></trkpt><trkpt lat="46.813829210996644" lon="11.244401891446726"><ele>687.2</ele><time>2026-05-01T07:14:00.36Z</time></trkpt><trkpt lat="46.81372922965112" lon="11.24437269723196"><ele>685.0</ele><time>2026-05-01T07:14:01.357Z</time></trkpt><trkpt lat="46.81363213077569" lon="11.244340622087403"><ele>685.0</ele><time>2026-05-01T07:14:02.363Z</time></trkpt><trkpt lat="46.81354434763999" lon="11.24430909937044"><ele>685.0</ele><time>2026-05-01T07:14:03.342Z</time></trkpt><trkpt lat="46.81345586666666" lon="11.244315549999998"><ele>685.0</ele><time>2026-05-01T07:14:04.358Z</time></trkpt><trkpt lat="46.81337836666666" lon="11.244287883333334"><ele>685.0</ele><time>2026-05-01T07:14:05.342Z</time></trkpt><trkpt lat="46.813310666666666" lon="11.244289"><ele>685.0</ele><time>2026-05-01T07:14:06.358Z</time></trkpt><trkpt lat="46.813251816666664" lon="11.244335049999998"><ele>685.0</ele><time>2026-05-01T07:14:07.358Z</time></trkpt><trkpt lat="46.81318001753768" lon="11.244406326642927"><ele>685.6</ele><time>2026-05-01T07:14:08.353Z</time></trkpt><trkpt lat="46.813168049999994" lon="11.244539149999998"><ele>686.2</ele><time>2026-05-01T07:14:09.357Z</time></trkpt><trkpt lat="46.813149966666664" lon="11.244664150000002"><ele>686.8</ele><time>2026-05-01T07:14:10.36Z</time></trkpt><trkpt lat="46.813130083333334" lon="11.244892599999998"><ele>687.4</ele><time>2026-05-01T07:14:12.357Z</time></trkpt><trkpt lat="46.81311631666668" lon="11.245005633333335"><ele>688.0</ele><time>2026-05-01T07:14:13.344Z</time></trkpt><trkpt lat="46.81310416666667" lon="11.245117149999999"><ele>689.8333333333334</ele><time>2026-05-01T07:14:14.343Z</time></trkpt><trkpt lat="46.813085349999994" lon="11.245234149999998"><ele>691.6666666666667</ele><time>2026-05-01T07:14:15.358Z</time></trkpt><trkpt lat="46.813064733333334" lon="11.245352983333332"><ele>693.5</ele><time>2026-05-01T07:14:16.364Z</time></trkpt><trkpt lat="46.81303891666667" lon="11.245474733333333"><ele>695.3333333333334</ele><time>2026-05-01T07:14:17.352Z</time></trkpt><trkpt lat="46.81300786666667" lon="11.245591999999998"><ele>697.1666666666666</ele><time>2026-05-01T07:14:18.358Z</time></trkpt><trkpt lat="46.81297581666666" lon="11.245693750000001"><ele>699.0</ele><time>2026-05-01T07:14:19.359Z</time></trkpt><trkpt lat="46.8129469" lon="11.2457869"><ele>699.8333333333334</ele><time>2026-05-01T07:14:20.363Z</time></trkpt><trkpt lat="46.812923566666655" lon="11.245874433333332"><ele>700.6666666666666</ele><time>2026-05-01T07:14:21.359Z</time></trkpt><trkpt lat="46.812889600000005" lon="11.246020583333332"><ele>701.5</ele><time>2026-05-01T07:14:23.364Z</time></trkpt><trkpt lat="46.81279933333334" lon="11.24600945"><ele>702.3333333333333</ele><time>2026-05-01T07:14:54.341Z</time></trkpt><trkpt lat="46.81283185" lon="11.245871000000001"><ele>703.1666666666666</ele><time>2026-05-01T07:14:57.358Z</time></trkpt><trkpt lat="46.81287255" lon="11.245794166666668"><ele>704.0</ele><time>2026-05-01T07:14:58.366Z</time></trkpt><trkpt lat="46.81291110000001" lon="11.24570731666667"><ele>703.1666666666666</ele><time>2026-05-01T07:14:59.342Z</time></trkpt><trkpt lat="46.81294200000001" lon="11.245623049999999"><ele>702.3333333333333</ele><time>2026-05-01T07:15:00.359Z</time></trkpt><trkpt lat="46.81296705" lon="11.245534016666667"><ele>701.5</ele><time>2026-05-01T07:15:01.359Z</time></trkpt><trkpt lat="46.81298820000001" lon="11.24543325"><ele>700.6666666666666</ele><time>2026-05-01T07:15:02.344Z</time></trkpt><trkpt lat="46.81300311666668" lon="11.245320183333336"><ele>699.8333333333334</ele><time>2026-05-01T07:15:03.343Z</time></trkpt><trkpt lat="46.8130156" lon="11.2451918"><ele>699.0</ele><time>2026-05-01T07:15:04.36Z</time></trkpt><trkpt lat="46.813029266666675" lon="11.245043566666668"><ele>699.0</ele><time>2026-05-01T07:15:05.364Z</time></trkpt><trkpt lat="46.813042700000004" lon="11.244891449999999"><ele>699.0</ele><time>2026-05-01T07:15:06.358Z</time></trkpt><trkpt lat="46.81305308333334" lon="11.244767666666666"><ele>699.0</ele><time>2026-05-01T07:15:07.361Z</time></trkpt><trkpt lat="46.813065233333326" lon="11.244605866666666"><ele>699.0</ele><time>2026-05-01T07:15:09.358Z</time></trkpt><trkpt lat="46.81306733333333" lon="11.24446065"><ele>699.0</ele><time>2026-05-01T07:15:11.363Z</time></trkpt><trkpt lat="46.81305353333334" lon="11.244349099999999"><ele>699.0</ele><time>2026-05-01T07:15:13.358Z</time></trkpt><trkpt lat="46.81303989999999" lon="11.244503916666668"><ele>699.0</ele><time>2026-05-01T07:16:36.352Z</time></trkpt><trkpt lat="46.81304096666666" lon="11.24459865"><ele>699.0</ele><time>2026-05-01T07:16:37.356Z</time></trkpt><trkpt lat="46.813033866666665" lon="11.244714816666665"><ele>699.0</ele><time>2026-05-01T07:16:38.364Z</time></trkpt><trkpt lat="46.81302471666666" lon="11.244844350000001"><ele>699.0</ele><time>2026-05-01T07:16:39.352Z</time></trkpt><trkpt lat="46.81301151666666" lon="11.244997283333332"><ele>699.0</ele><time>2026-05-01T07:16:40.358Z</time></trkpt><trkpt lat="46.812992316666666" lon="11.245165766666666"><ele>699.0</ele><time>2026-05-01T07:16:41.359Z</time></trkpt><trkpt lat="46.81297306666667" lon="11.245330799999998"><ele>699.0</ele><time>2026-05-01T07:16:42.352Z</time></trkpt><trkpt lat="46.81295108333334" lon="11.245471449999998"><ele>699.0</ele><time>2026-05-01T07:16:43.356Z</time></trkpt><trkpt lat="46.81292366666667" lon="11.245586749999998"><ele>699.0</ele><time>2026-05-01T07:16:44.343Z</time></trkpt><trkpt lat="46.81289291666667" lon="11.245686450000003"><ele>699.0</ele><time>2026-05-01T07:16:45.355Z</time></trkpt><trkpt lat="46.81286008333333" lon="11.245770383333335"><ele>699.0</ele><time>2026-05-01T07:16:46.355Z</time></trkpt><trkpt lat="46.81280848333334" lon="11.245893266666666"><ele>700.0</ele><time>2026-05-01T07:16:48.343Z</time></trkpt><trkpt lat="46.812739750000006" lon="11.246032016666668"><ele>701.0</ele><time>2026-05-01T07:16:51.353Z</time></trkpt><trkpt lat="46.81272390000001" lon="11.246145516666665"><ele>702.0</ele><time>2026-05-01T07:16:53.357Z</time></trkpt><trkpt lat="46.81279246666666" lon="11.246180516666668"><ele>703.0</ele><time>2026-05-01T07:16:55.359Z</time></trkpt><trkpt lat="46.812814816666666" lon="11.246063866666669"><ele>704.0</ele><time>2026-05-01T07:16:57.353Z</time></trkpt><trkpt lat="46.812856" lon="11.245883749999999"><ele>704.0</ele><time>2026-05-01T07:16:59.35Z</time></trkpt><trkpt lat="46.812899566666665" lon="11.245778216666666"><ele>704.0</ele><time>2026-05-01T07:17:00.353Z</time></trkpt><trkpt lat="46.81300944835678" lon="11.24567375060874"><ele>704.0</ele><time>2026-05-01T07:17:01.359Z</time></trkpt><trkpt lat="46.8130529965528" lon="11.245503170899832"><ele>704.0</ele><time>2026-05-01T07:17:02.356Z</time></trkpt><trkpt lat="46.813095388493394" lon="11.245302050460111"><ele>702.3333333333333</ele><time>2026-05-01T07:17:04.355Z</time></trkpt><trkpt lat="46.81312498853948" lon="11.245098009572317"><ele>700.6666666666666</ele><time>2026-05-01T07:17:05.361Z</time></trkpt><trkpt lat="46.813148304816856" lon="11.244905383885179"><ele>699.0</ele><time>2026-05-01T07:17:06.352Z</time></trkpt><trkpt lat="46.81318654396434" lon="11.244545793419698"><ele>695.3333333333334</ele><time>2026-05-01T07:17:07.353Z</time></trkpt><trkpt lat="46.81320328664546" lon="11.244373967726585"><ele>691.6666666666667</ele><time>2026-05-01T07:17:08.343Z</time></trkpt><trkpt lat="46.81302758333333" lon="11.244168566666668"><ele>688.0</ele><time>2026-05-01T07:17:09.354Z</time></trkpt><trkpt lat="46.81299783333334" lon="11.24399655"><ele>686.0</ele><time>2026-05-01T07:17:10.359Z</time></trkpt><trkpt lat="46.812970933333325" lon="11.243835833333332"><ele>684.0</ele><time>2026-05-01T07:17:11.359Z</time></trkpt><trkpt lat="46.81294036666666" lon="11.2436812"><ele>682.0</ele><time>2026-05-01T07:17:12.361Z</time></trkpt><trkpt lat="46.81322455950965" lon="11.243564053120796"><ele>682.0</ele><time>2026-05-01T07:17:13.362Z</time></trkpt><trkpt lat="46.81321868897374" lon="11.243436034773614"><ele>682.0</ele><time>2026-05-01T07:17:14.364Z</time></trkpt><trkpt lat="46.81320845095835" lon="11.24332722792413"><ele>682.0</ele><time>2026-05-01T07:17:15.353Z</time></trkpt><trkpt lat="46.8132230659004" lon="11.243224933010804"><ele>682.0</ele><time>2026-05-01T07:17:16.37Z</time></trkpt><trkpt lat="46.813240586484035" lon="11.24312660571473"><ele>682.0</ele><time>2026-05-01T07:17:17.358Z</time></trkpt><trkpt lat="46.812765416666664" lon="11.242989266666665"><ele>680.2</ele><time>2026-05-01T07:17:19.351Z</time></trkpt><trkpt lat="46.81283215" lon="11.242932499999998"><ele>678.4000000000001</ele><time>2026-05-01T07:17:20.363Z</time></trkpt><trkpt lat="46.81292233333333" lon="11.24289365"><ele>676.5999999999999</ele><time>2026-05-01T07:17:21.353Z</time></trkpt><trkpt lat="46.81309698333333" lon="11.242789766666665"><ele>674.8</ele><time>2026-05-01T07:17:22.359Z</time></trkpt><trkpt lat="46.81317213333333" lon="11.242736283333333"><ele>673.0</ele><time>2026-05-01T07:17:23.363Z</time></trkpt><trkpt lat="46.81324603333334" lon="11.242690433333333"><ele>673.0</ele><time>2026-05-01T07:17:24.353Z</time></trkpt><trkpt lat="46.81331758333334" lon="11.242659316666668"><ele>673.0</ele><time>2026-05-01T07:17:25.373Z</time></trkpt><trkpt lat="46.81338743333334" lon="11.242655983333334"><ele>673.0</ele><time>2026-05-01T07:17:26.358Z</time></trkpt><trkpt lat="46.81345506666666" lon="11.2426768"><ele>673.0</ele><time>2026-05-01T07:17:27.352Z</time></trkpt><trkpt lat="46.81351553333334" lon="11.24272168333333"><ele>673.0</ele><time>2026-05-01T07:17:28.359Z</time></trkpt><trkpt lat="46.81357305" lon="11.242768116666666"><ele>673.0</ele><time>2026-05-01T07:17:29.357Z</time></trkpt><trkpt lat="46.813679433333334" lon="11.242724733333333"><ele>673.0</ele><time>2026-05-01T07:17:31.364Z</time></trkpt><trkpt lat="46.81370255" lon="11.242569933333334"><ele>673.0</ele><time>2026-05-01T07:17:33.352Z</time></trkpt><trkpt lat="46.81366908333333" lon="11.242488716666667"><ele>673.0</ele><time>2026-05-01T07:17:34.355Z</time></trkpt><trkpt lat="46.8136125" lon="11.242435866666666"><ele>673.0</ele><time>2026-05-01T07:17:35.359Z</time></trkpt><trkpt lat="46.81353983333334" lon="11.242410400000002"><ele>673.0</ele><time>2026-05-01T07:17:36.352Z</time></trkpt><trkpt lat="46.81344963333333" lon="11.242394666666666"><ele>673.0</ele><time>2026-05-01T07:17:37.363Z</time></trkpt><trkpt lat="46.81334808333333" lon="11.242382033333334"><ele>673.0</ele><time>2026-05-01T07:17:38.353Z</time></trkpt><trkpt lat="46.81323673333333" lon="11.242373966666666"><ele>673.0</ele><time>2026-05-01T07:17:39.352Z</time></trkpt><trkpt lat="46.81311888333333" lon="11.242372233333333"><ele>673.0</ele><time>2026-05-01T07:17:40.357Z</time></trkpt><trkpt lat="46.81299121666666" lon="11.24238206666667"><ele>673.0</ele><time>2026-05-01T07:17:41.358Z</time></trkpt><trkpt lat="46.812850149999996" lon="11.242395083333333"><ele>673.0</ele><time>2026-05-01T07:17:42.356Z</time></trkpt><trkpt lat="46.8127031" lon="11.242413066666666"><ele>673.0</ele><time>2026-05-01T07:17:43.354Z</time></trkpt><trkpt lat="46.81254618333334" lon="11.242437816666666"><ele>673.0</ele><time>2026-05-01T07:17:44.352Z</time></trkpt><trkpt lat="46.81238799999999" lon="11.242466966666667"><ele>670.0</ele><time>2026-05-01T07:17:45.372Z</time></trkpt><trkpt lat="46.81223273333333" lon="11.242500933333334"><ele>667.0</ele><time>2026-05-01T07:17:46.361Z</time></trkpt><trkpt lat="46.812077933333335" lon="11.242529950000002"><ele>664.0</ele><time>2026-05-01T07:17:47.357Z</time></trkpt><trkpt lat="46.811917916666665" lon="11.242556800000001"><ele>661.3333333333334</ele><time>2026-05-01T07:17:48.351Z</time></trkpt><trkpt lat="46.81175131666667" lon="11.242584566666668"><ele>658.6666666666666</ele><time>2026-05-01T07:17:49.362Z</time></trkpt><trkpt lat="46.81157916666666" lon="11.2426104"><ele>656.0</ele><time>2026-05-01T07:17:50.358Z</time></trkpt><trkpt lat="46.811403166666665" lon="11.2426333"><ele>656.0</ele><time>2026-05-01T07:17:51.352Z</time></trkpt><trkpt lat="46.811233200000004" lon="11.242651966666665"><ele>656.0</ele><time>2026-05-01T07:17:52.356Z</time></trkpt><trkpt lat="46.810923249999995" lon="11.242691283333334"><ele>655.25</ele><time>2026-05-01T07:17:54.352Z</time></trkpt><trkpt lat="46.81078389999999" lon="11.242720783333334"><ele>654.5</ele><time>2026-05-01T07:17:55.36Z</time></trkpt><trkpt lat="46.810656483333325" lon="11.242761166666666"><ele>653.75</ele><time>2026-05-01T07:17:56.355Z</time></trkpt><trkpt lat="46.81053494999999" lon="11.242808700000001"><ele>653.0</ele><time>2026-05-01T07:17:57.35Z</time></trkpt><trkpt lat="46.81040661015191" lon="11.242847299406698"><ele>653.0</ele><time>2026-05-01T07:17:58.364Z</time></trkpt><trkpt lat="46.81027625940864" lon="11.242930306611733"><ele>653.0</ele><time>2026-05-01T07:17:59.356Z</time></trkpt><trkpt lat="46.81015753333333" lon="11.24306315"><ele>653.0</ele><time>2026-05-01T07:18:00.352Z</time></trkpt><trkpt lat="46.81003389999999" lon="11.243185016666667"><ele>653.0</ele><time>2026-05-01T07:18:01.37Z</time></trkpt><trkpt lat="46.80991601666666" lon="11.243323633333334"><ele>654.6666666666666</ele><time>2026-05-01T07:18:02.374Z</time></trkpt><trkpt lat="46.80980431666667" lon="11.243483216666668"><ele>656.3333333333334</ele><time>2026-05-01T07:18:03.351Z</time></trkpt><trkpt lat="46.809699116666664" lon="11.243654350000002"><ele>658.0</ele><time>2026-05-01T07:18:04.36Z</time></trkpt><trkpt lat="46.80959939999999" lon="11.24381765"><ele>657.75</ele><time>2026-05-01T07:18:05.365Z</time></trkpt><trkpt lat="46.809508533333336" lon="11.243971166666666"><ele>657.5</ele><time>2026-05-01T07:18:06.352Z</time></trkpt><trkpt lat="46.80942888333334" lon="11.244115299999999"><ele>657.25</ele><time>2026-05-01T07:18:07.36Z</time></trkpt><trkpt lat="46.80936476666667" lon="11.244252983333336"><ele>657.0</ele><time>2026-05-01T07:18:08.364Z</time></trkpt><trkpt lat="46.809314816666664" lon="11.244387066666665"><ele>657.0</ele><time>2026-05-01T07:18:09.354Z</time></trkpt><trkpt lat="46.80926971666666" lon="11.244513549999999"><ele>657.0</ele><time>2026-05-01T07:18:10.372Z</time></trkpt><trkpt lat="46.809232766666675" lon="11.2446426"><ele>657.0</ele><time>2026-05-01T07:18:11.372Z</time></trkpt><trkpt lat="46.809206700000004" lon="11.2447763"><ele>657.0</ele><time>2026-05-01T07:18:12.35Z</time></trkpt><trkpt lat="46.80917458333334" lon="11.244902283333332"><ele>657.0</ele><time>2026-05-01T07:18:13.369Z</time></trkpt><trkpt lat="46.8091212" lon="11.245027066666667"><ele>659.5</ele><time>2026-05-01T07:18:14.358Z</time></trkpt><trkpt lat="46.80903941666667" lon="11.245146616666668"><ele>662.0</ele><time>2026-05-01T07:18:15.353Z</time></trkpt><trkpt lat="46.808933800000005" lon="11.245254250000002"><ele>664.5</ele><time>2026-05-01T07:18:16.36Z</time></trkpt><trkpt lat="46.80880408333334" lon="11.245340533333335"><ele>667.0</ele><time>2026-05-01T07:18:17.364Z</time></trkpt><trkpt lat="46.80866206666666" lon="11.24539896666667"><ele>667.0</ele><time>2026-05-01T07:18:18.353Z</time></trkpt><trkpt lat="46.8085179" lon="11.245425150000003"><ele>667.0</ele><time>2026-05-01T07:18:19.351Z</time></trkpt><trkpt lat="46.808373816666666" lon="11.245423483333331"><ele>667.0</ele><time>2026-05-01T07:18:20.351Z</time></trkpt><trkpt lat="46.80822515" lon="11.245401683333334"><ele>667.0</ele><time>2026-05-01T07:18:21.352Z</time></trkpt><trkpt lat="46.80807575000001" lon="11.245366316666665"><ele>664.0</ele><time>2026-05-01T07:18:22.362Z</time></trkpt><trkpt lat="46.80792866666667" lon="11.245327033333334"><ele>661.0</ele><time>2026-05-01T07:18:23.364Z</time></trkpt><trkpt lat="46.807785349999996" lon="11.24528345"><ele>658.0</ele><time>2026-05-01T07:18:24.358Z</time></trkpt><trkpt lat="46.80764564999999" lon="11.245234866666665"><ele>655.0</ele><time>2026-05-01T07:18:25.362Z</time></trkpt><trkpt lat="46.80750928333333" lon="11.24519295"><ele>654.25</ele><time>2026-05-01T07:18:26.367Z</time></trkpt><trkpt lat="46.807381066666665" lon="11.245153216666665"><ele>653.5</ele><time>2026-05-01T07:18:27.352Z</time></trkpt><trkpt lat="46.807256466666665" lon="11.245099699999999"><ele>652.75</ele><time>2026-05-01T07:18:28.36Z</time></trkpt><trkpt lat="46.80713603333334" lon="11.245015999999998"><ele>652.0</ele><time>2026-05-01T07:18:29.353Z</time></trkpt><trkpt lat="46.807022016666664" lon="11.244903216666668"><ele>651.5</ele><time>2026-05-01T07:18:30.352Z</time></trkpt><trkpt lat="46.806910583333334" lon="11.244773366666669"><ele>651.0</ele><time>2026-05-01T07:18:31.36Z</time></trkpt><trkpt lat="46.80679751666667" lon="11.24463065"><ele>650.5</ele><time>2026-05-01T07:18:32.357Z</time></trkpt><trkpt lat="46.806682933333335" lon="11.244484916666666"><ele>650.0</ele><time>2026-05-01T07:18:33.356Z</time></trkpt><trkpt lat="46.80657125" lon="11.244345433333335"><ele>650.0</ele><time>2026-05-01T07:18:34.381Z</time></trkpt><trkpt lat="46.806465566666674" lon="11.2442038"><ele>650.0</ele><time>2026-05-01T07:18:35.369Z</time></trkpt><trkpt lat="46.80635711666667" lon="11.244065650000001"><ele>650.0</ele><time>2026-05-01T07:18:36.352Z</time></trkpt><trkpt lat="46.80623938333333" lon="11.243944933333335"><ele>650.0</ele><time>2026-05-01T07:18:37.362Z</time></trkpt><trkpt lat="46.80611569999999" lon="11.243839283333333"><ele>649.25</ele><time>2026-05-01T07:18:38.355Z</time></trkpt><trkpt lat="46.8059884" lon="11.243741366666667"><ele>648.5</ele><time>2026-05-01T07:18:39.352Z</time></trkpt><trkpt lat="46.805861549999996" lon="11.243641383333333"><ele>647.75</ele><time>2026-05-01T07:18:40.365Z</time></trkpt><trkpt lat="46.80573368333334" lon="11.243539516666667"><ele>647.0</ele><time>2026-05-01T07:18:41.362Z</time></trkpt><trkpt lat="46.805608966666654" lon="11.24343465"><ele>647.0</ele><time>2026-05-01T07:18:42.352Z</time></trkpt><trkpt lat="46.805488883333325" lon="11.243318183333335"><ele>647.0</ele><time>2026-05-01T07:18:43.356Z</time></trkpt><trkpt lat="46.805380866666674" lon="11.243187316666669"><ele>647.0</ele><time>2026-05-01T07:18:44.363Z</time></trkpt><trkpt lat="46.80527775000001" lon="11.243041466666666"><ele>647.0</ele><time>2026-05-01T07:18:45.353Z</time></trkpt><trkpt lat="46.805178016666666" lon="11.242892383333333"><ele>646.0</ele><time>2026-05-01T07:18:46.356Z</time></trkpt><trkpt lat="46.805071966666674" lon="11.242753049999997"><ele>645.0</ele><time>2026-05-01T07:18:47.356Z</time></trkpt><trkpt lat="46.80495251666667" lon="11.242631616666664"><ele>644.0</ele><time>2026-05-01T07:18:48.352Z</time></trkpt><trkpt lat="46.80481526666668" lon="11.242541116666667"><ele>643.0</ele><time>2026-05-01T07:18:49.363Z</time></trkpt><trkpt lat="46.80467514119664" lon="11.242438283105237"><ele>642.0</ele><time>2026-05-01T07:18:51.362Z</time></trkpt><trkpt lat="46.80435870083049" lon="11.242265837478332"><ele>641.0</ele><time>2026-05-01T07:18:52.349Z</time></trkpt><trkpt lat="46.80418984119056" lon="11.242176635172942"><ele>640.5</ele><time>2026-05-01T07:18:53.364Z</time></trkpt><trkpt lat="46.803876475616505" lon="11.242007059620516"><ele>640.0</ele><time>2026-05-01T07:18:55.354Z</time></trkpt><trkpt lat="46.803733783333335" lon="11.241912300000001"><ele>640.0</ele><time>2026-05-01T07:18:56.373Z</time></trkpt><trkpt lat="46.80362546666667" lon="11.241747116666666"><ele>640.0</ele><time>2026-05-01T07:18:57.351Z</time></trkpt><trkpt lat="46.80353628333334" lon="11.24155005"><ele>640.0</ele><time>2026-05-01T07:18:58.363Z</time></trkpt><trkpt lat="46.80344503333334" lon="11.24135301666667"><ele>640.6666666666667</ele><time>2026-05-01T07:18:59.358Z</time></trkpt><trkpt lat="46.803341816666666" lon="11.241169883333335"><ele>641.3333333333334</ele><time>2026-05-01T07:19:00.353Z</time></trkpt><trkpt lat="46.80322601666667" lon="11.240993683333333"><ele>642.0</ele><time>2026-05-01T07:19:01.373Z</time></trkpt><trkpt lat="46.803116849999995" lon="11.240803083333333"><ele>640.3333333333334</ele><time>2026-05-01T07:19:02.359Z</time></trkpt><trkpt lat="46.803023249999995" lon="11.240596183333333"><ele>638.6666666666667</ele><time>2026-05-01T07:19:03.354Z</time></trkpt><trkpt lat="46.80293523333333" lon="11.240387883333335"><ele>637.0</ele><time>2026-05-01T07:19:04.362Z</time></trkpt><trkpt lat="46.80286375477118" lon="11.240166340693442"><ele>637.0</ele><time>2026-05-01T07:19:05.37Z</time></trkpt><trkpt lat="46.80277307517336" lon="11.239969154577532"><ele>637.0</ele><time>2026-05-01T07:19:06.366Z</time></trkpt><trkpt lat="46.80268416250289" lon="11.239785143533876"><ele>637.0</ele><time>2026-05-01T07:19:07.352Z</time></trkpt><trkpt lat="46.8025816" lon="11.239626333333334"><ele>637.25</ele><time>2026-05-01T07:19:08.363Z</time></trkpt><trkpt lat="46.80248666666667" lon="11.239462"><ele>637.5</ele><time>2026-05-01T07:19:09.352Z</time></trkpt><trkpt lat="46.80238353333334" lon="11.239306283333333"><ele>637.75</ele><time>2026-05-01T07:19:10.355Z</time></trkpt><trkpt lat="46.80227231666667" lon="11.239159566666668"><ele>638.0</ele><time>2026-05-01T07:19:11.362Z</time></trkpt><trkpt lat="46.80215588333334" lon="11.239018516666667"><ele>637.6666666666666</ele><time>2026-05-01T07:19:12.352Z</time></trkpt><trkpt lat="46.80203388333333" lon="11.238881916666667"><ele>637.3333333333334</ele><time>2026-05-01T07:19:13.361Z</time></trkpt><trkpt lat="46.801909533333344" lon="11.238753716666668"><ele>637.0</ele><time>2026-05-01T07:19:14.352Z</time></trkpt><trkpt lat="46.801782216666666" lon="11.238633350000002"><ele>637.0</ele><time>2026-05-01T07:19:15.364Z</time></trkpt><trkpt lat="46.80165048333333" lon="11.238526649999997"><ele>637.0</ele><time>2026-05-01T07:19:16.361Z</time></trkpt><trkpt lat="46.80151426666666" lon="11.238428299999997"><ele>637.0</ele><time>2026-05-01T07:19:17.361Z</time></trkpt><trkpt lat="46.80138161666667" lon="11.23833665"><ele>637.0</ele><time>2026-05-01T07:19:18.353Z</time></trkpt><trkpt lat="46.8012506" lon="11.238246666666665"><ele>637.0</ele><time>2026-05-01T07:19:19.356Z</time></trkpt><trkpt lat="46.80112143333334" lon="11.238162216666668"><ele>637.0</ele><time>2026-05-01T07:19:20.362Z</time></trkpt><trkpt lat="46.80099576666667" lon="11.238088349999998"><ele>637.0</ele><time>2026-05-01T07:19:21.353Z</time></trkpt><trkpt lat="46.800871400000005" lon="11.2380242"><ele>637.0</ele><time>2026-05-01T07:19:22.365Z</time></trkpt><trkpt lat="46.80074576666666" lon="11.237987916666668"><ele>635.0</ele><time>2026-05-01T07:19:23.366Z</time></trkpt><trkpt lat="46.8006145" lon="11.237973783333333"><ele>633.0</ele><time>2026-05-01T07:19:24.367Z</time></trkpt><trkpt lat="46.800478850000005" lon="11.23795866666667"><ele>631.0</ele><time>2026-05-01T07:19:25.361Z</time></trkpt><trkpt lat="46.8003451" lon="11.2379227"><ele>629.0</ele><time>2026-05-01T07:19:26.361Z</time></trkpt><trkpt lat="46.800214633333326" lon="11.237853500000002"><ele>630.25</ele><time>2026-05-01T07:19:27.363Z</time></trkpt><trkpt lat="46.80009635763668" lon="11.237740446409989"><ele>631.5</ele><time>2026-05-01T07:19:28.36Z</time></trkpt><trkpt lat="46.799973429689175" lon="11.237633441202675"><ele>632.75</ele><time>2026-05-01T07:19:29.358Z</time></trkpt><trkpt lat="46.79984947921405" lon="11.237520880208569"><ele>634.0</ele><time>2026-05-01T07:19:30.353Z</time></trkpt><trkpt lat="46.79972125" lon="11.23742695"><ele>631.5</ele><time>2026-05-01T07:19:31.362Z</time></trkpt><trkpt lat="46.799614483333336" lon="11.237280616666665"><ele>629.0</ele><time>2026-05-01T07:19:32.37Z</time></trkpt><trkpt lat="46.799519849999996" lon="11.237105049999998"><ele>626.5</ele><time>2026-05-01T07:19:33.351Z</time></trkpt><trkpt lat="46.799438166666675" lon="11.236926666666667"><ele>624.0</ele><time>2026-05-01T07:19:34.356Z</time></trkpt><trkpt lat="46.79936868333333" lon="11.236767683333333"><ele>624.4</ele><time>2026-05-01T07:19:35.361Z</time></trkpt><trkpt lat="46.79931085" lon="11.236634733333336"><ele>624.8</ele><time>2026-05-01T07:19:36.351Z</time></trkpt><trkpt lat="46.79926456666667" lon="11.236535883333334"><ele>625.2</ele><time>2026-05-01T07:19:37.362Z</time></trkpt><trkpt lat="46.799202216666664" lon="11.236399416666666"><ele>625.6</ele><time>2026-05-01T07:19:39.352Z</time></trkpt><trkpt lat="46.79914405" lon="11.236327983333334"><ele>626.0</ele><time>2026-05-01T07:19:41.351Z</time></trkpt><trkpt lat="46.799052100000004" lon="11.236300233333333"><ele>626.0</ele><time>2026-05-01T07:23:51.374Z</time></trkpt><trkpt lat="46.79898053333333" lon="11.236261733333334"><ele>626.0</ele><time>2026-05-01T07:23:52.349Z</time></trkpt><trkpt lat="46.798893283333335" lon="11.236190583333332"><ele>626.0</ele><time>2026-05-01T07:23:53.364Z</time></trkpt><trkpt lat="46.798669716666666" lon="11.235987016666664"><ele>626.0</ele><time>2026-05-01T07:23:55.373Z</time></trkpt><trkpt lat="46.79855743333333" lon="11.235874183333332"><ele>626.25</ele><time>2026-05-01T07:23:56.355Z</time></trkpt><trkpt lat="46.798461233333335" lon="11.235757033333334"><ele>626.5</ele><time>2026-05-01T07:23:57.374Z</time></trkpt><trkpt lat="46.79837726666666" lon="11.23563131666667"><ele>626.75</ele><time>2026-05-01T07:23:58.366Z</time></trkpt><trkpt lat="46.7983025" lon="11.235489966666666"><ele>627.0</ele><time>2026-05-01T07:23:59.355Z</time></trkpt><trkpt lat="46.79823795000001" lon="11.23532085"><ele>627.0</ele><time>2026-05-01T07:24:00.353Z</time></trkpt><trkpt lat="46.79817475" lon="11.235128933333332"><ele>627.0</ele><time>2026-05-01T07:24:01.351Z</time></trkpt><trkpt lat="46.79811213333334" lon="11.234912266666669"><ele>627.0</ele><time>2026-05-01T07:24:02.354Z</time></trkpt><trkpt lat="46.79803059999999" lon="11.234697549999998"><ele>628.0</ele><time>2026-05-01T07:24:03.349Z</time></trkpt><trkpt lat="46.79793522555154" lon="11.234481138956042"><ele>629.0</ele><time>2026-05-01T07:24:04.373Z</time></trkpt><trkpt lat="46.797790618254794" lon="11.234309771808926"><ele>630.0</ele><time>2026-05-01T07:24:05.357Z</time></trkpt><trkpt lat="46.797617109223836" lon="11.234188716789479"><ele>630.0</ele><time>2026-05-01T07:24:06.373Z</time></trkpt><trkpt lat="46.79742966666666" lon="11.234116383333332"><ele>630.0</ele><time>2026-05-01T07:24:07.349Z</time></trkpt><trkpt lat="46.79725660636552" lon="11.233989391624114"><ele>630.0</ele><time>2026-05-01T07:24:08.354Z</time></trkpt><trkpt lat="46.79709057905072" lon="11.23385087825347"><ele>629.6666666666666</ele><time>2026-05-01T07:24:09.351Z</time></trkpt><trkpt lat="46.79692710975526" lon="11.233696900298323"><ele>629.3333333333333</ele><time>2026-05-01T07:24:10.355Z</time></trkpt><trkpt lat="46.796761802863955" lon="11.23354054139724"><ele>629.0</ele><time>2026-05-01T07:24:11.353Z</time></trkpt><trkpt lat="46.79660004160099" lon="11.233387536240574"><ele>629.0</ele><time>2026-05-01T07:24:12.357Z</time></trkpt><trkpt lat="46.79644287269925" lon="11.233245044489076"><ele>629.0</ele><time>2026-05-01T07:24:13.373Z</time></trkpt><trkpt lat="46.79626632218722" lon="11.23316311021756"><ele>629.0</ele><time>2026-05-01T07:24:14.355Z</time></trkpt><trkpt lat="46.79607734796588" lon="11.233120940869215"><ele>630.0</ele><time>2026-05-01T07:24:15.373Z</time></trkpt><trkpt lat="46.79588778646052" lon="11.233084176226054"><ele>631.0</ele><time>2026-05-01T07:24:16.351Z</time></trkpt><trkpt lat="46.795709696369464" lon="11.233048548187112"><ele>632.0</ele><time>2026-05-01T07:24:17.352Z</time></trkpt><trkpt lat="46.795544823374215" lon="11.233013919849958"><ele>632.0</ele><time>2026-05-01T07:24:18.373Z</time></trkpt><trkpt lat="46.79539033333334" lon="11.232968283333333"><ele>632.0</ele><time>2026-05-01T07:24:19.353Z</time></trkpt><trkpt lat="46.795262757494996" lon="11.232846487891267"><ele>632.0</ele><time>2026-05-01T07:24:20.357Z</time></trkpt><trkpt lat="46.795135835896424" lon="11.232740394236437"><ele>629.5</ele><time>2026-05-01T07:24:21.351Z</time></trkpt><trkpt lat="46.795014676752785" lon="11.232638924082044"><ele>627.0</ele><time>2026-05-01T07:24:22.372Z</time></trkpt><trkpt lat="46.79490079281207" lon="11.232541775591772"><ele>624.5</ele><time>2026-05-01T07:24:23.352Z</time></trkpt><trkpt lat="46.79479298566966" lon="11.232450936247838"><ele>622.0</ele><time>2026-05-01T07:24:24.349Z</time></trkpt><trkpt lat="46.79469042832456" lon="11.232366263278243"><ele>623.25</ele><time>2026-05-01T07:24:25.351Z</time></trkpt><trkpt lat="46.79458066666666" lon="11.232300483333331"><ele>624.5</ele><time>2026-05-01T07:24:26.374Z</time></trkpt><trkpt lat="46.794474083333334" lon="11.232201466666668"><ele>625.75</ele><time>2026-05-01T07:24:27.35Z</time></trkpt><trkpt lat="46.794362533333334" lon="11.232079466666667"><ele>627.0</ele><time>2026-05-01T07:24:28.351Z</time></trkpt><trkpt lat="46.79425146666667" lon="11.231934399999998"><ele>625.3333333333334</ele><time>2026-05-01T07:24:29.354Z</time></trkpt><trkpt lat="46.7941503140172" lon="11.23174896311785"><ele>623.6666666666667</ele><time>2026-05-01T07:24:30.35Z</time></trkpt><trkpt lat="46.79403257792671" lon="11.231568961149724"><ele>622.0</ele><time>2026-05-01T07:24:31.373Z</time></trkpt><trkpt lat="46.79390153939857" lon="11.231385234500756"><ele>622.0</ele><time>2026-05-01T07:24:32.353Z</time></trkpt><trkpt lat="46.79375675443798" lon="11.231209067550376"><ele>622.0</ele><time>2026-05-01T07:24:33.373Z</time></trkpt><trkpt lat="46.79360225301034" lon="11.231050854521158"><ele>622.0</ele><time>2026-05-01T07:24:34.373Z</time></trkpt><trkpt lat="46.793435383333325" lon="11.230909666666667"><ele>622.0</ele><time>2026-05-01T07:24:35.374Z</time></trkpt><trkpt lat="46.793276666666664" lon="11.2307449"><ele>622.0</ele><time>2026-05-01T07:24:36.351Z</time></trkpt><trkpt lat="46.79312101666666" lon="11.230582533333333"><ele>622.0</ele><time>2026-05-01T07:24:37.351Z</time></trkpt><trkpt lat="46.79297351666667" lon="11.230428216666667"><ele>622.0</ele><time>2026-05-01T07:24:38.353Z</time></trkpt><trkpt lat="46.79283421666667" lon="11.230278649999999"><ele>622.0</ele><time>2026-05-01T07:24:39.351Z</time></trkpt><trkpt lat="46.792698533333336" lon="11.230154416666668"><ele>622.0</ele><time>2026-05-01T07:24:40.351Z</time></trkpt><trkpt lat="46.79256669601277" lon="11.230046754110742"><ele>619.0</ele><time>2026-05-01T07:24:41.365Z</time></trkpt><trkpt lat="46.7924103" lon="11.230075233333332"><ele>616.0</ele><time>2026-05-01T07:24:42.349Z</time></trkpt><trkpt lat="46.792261733333326" lon="11.230135316666669"><ele>613.0</ele><time>2026-05-01T07:24:43.354Z</time></trkpt><trkpt lat="46.79211480000001" lon="11.230240483333334"><ele>613.0</ele><time>2026-05-01T07:24:44.351Z</time></trkpt><trkpt lat="46.7919656" lon="11.230361433333334"><ele>613.0</ele><time>2026-05-01T07:24:45.351Z</time></trkpt><trkpt lat="46.791813950000005" lon="11.230483233333333"><ele>613.0</ele><time>2026-05-01T07:24:46.351Z</time></trkpt><trkpt lat="46.791664000000004" lon="11.230600550000002"><ele>611.6666666666667</ele><time>2026-05-01T07:24:47.353Z</time></trkpt><trkpt lat="46.791520316666656" lon="11.230708899999998"><ele>610.3333333333334</ele><time>2026-05-01T07:24:48.361Z</time></trkpt><trkpt lat="46.791379166666665" lon="11.230804983333334"><ele>609.0</ele><time>2026-05-01T07:24:49.351Z</time></trkpt><trkpt lat="46.79122891666666" lon="11.230872649999998"><ele>609.0</ele><time>2026-05-01T07:24:50.353Z</time></trkpt><trkpt lat="46.79106981666667" lon="11.230896233333333"><ele>609.0</ele><time>2026-05-01T07:24:51.351Z</time></trkpt><trkpt lat="46.79090164999999" lon="11.230868466666669"><ele>609.0</ele><time>2026-05-01T07:24:52.351Z</time></trkpt><trkpt lat="46.79073028333334" lon="11.230809333333331"><ele>610.5</ele><time>2026-05-01T07:24:53.354Z</time></trkpt><trkpt lat="46.790556216666666" lon="11.230748316666666"><ele>612.0</ele><time>2026-05-01T07:24:54.35Z</time></trkpt><trkpt lat="46.79019745" lon="11.2306274"><ele>616.3333333333334</ele><time>2026-05-01T07:24:56.356Z</time></trkpt><trkpt lat="46.79001758458261" lon="11.230550874967003"><ele>620.6666666666667</ele><time>2026-05-01T07:24:57.375Z</time></trkpt><trkpt lat="46.7898279" lon="11.230548749999999"><ele>625.0</ele><time>2026-05-01T07:24:58.355Z</time></trkpt><trkpt lat="46.78964088333334" lon="11.230562466666665"><ele>625.0</ele><time>2026-05-01T07:24:59.354Z</time></trkpt><trkpt lat="46.78946084999999" lon="11.230601750000002"><ele>625.0</ele><time>2026-05-01T07:25:00.351Z</time></trkpt><trkpt lat="46.789289833333335" lon="11.23065035"><ele>625.0</ele><time>2026-05-01T07:25:01.349Z</time></trkpt><trkpt lat="46.789129249999995" lon="11.230708183333336"><ele>620.0</ele><time>2026-05-01T07:25:02.356Z</time></trkpt><trkpt lat="46.78897431666666" lon="11.230787416666665"><ele>615.0</ele><time>2026-05-01T07:25:03.373Z</time></trkpt><trkpt lat="46.788824116666675" lon="11.230874899999998"><ele>610.0</ele><time>2026-05-01T07:25:04.373Z</time></trkpt><trkpt lat="46.78867758333334" lon="11.230959450000002"><ele>610.0</ele><time>2026-05-01T07:25:05.354Z</time></trkpt><trkpt lat="46.788537266666665" lon="11.231031616666666"><ele>610.0</ele><time>2026-05-01T07:25:06.373Z</time></trkpt><trkpt lat="46.78840555" lon="11.231096683333332"><ele>610.0</ele><time>2026-05-01T07:25:07.356Z</time></trkpt><trkpt lat="46.78827570000001" lon="11.231146650000001"><ele>610.0</ele><time>2026-05-01T07:25:08.353Z</time></trkpt><trkpt lat="46.78813960000001" lon="11.231165416666666"><ele>609.75</ele><time>2026-05-01T07:25:09.351Z</time></trkpt><trkpt lat="46.78800146666668" lon="11.231162316666667"><ele>609.5</ele><time>2026-05-01T07:25:10.351Z</time></trkpt><trkpt lat="46.78786746666666" lon="11.231156816666665"><ele>609.25</ele><time>2026-05-01T07:25:11.352Z</time></trkpt><trkpt lat="46.78774188333333" lon="11.2311522"><ele>609.0</ele><time>2026-05-01T07:25:12.351Z</time></trkpt><trkpt lat="46.78761814999999" lon="11.231145133333333"><ele>609.0</ele><time>2026-05-01T07:25:13.373Z</time></trkpt><trkpt lat="46.787494550000005" lon="11.231135716666666"><ele>609.0</ele><time>2026-05-01T07:25:14.353Z</time></trkpt><trkpt lat="46.78737583333333" lon="11.231119033333336"><ele>609.0</ele><time>2026-05-01T07:25:15.351Z</time></trkpt><trkpt lat="46.78726151666666" lon="11.231095916666666"><ele>609.0</ele><time>2026-05-01T07:25:16.356Z</time></trkpt><trkpt lat="46.787147616666665" lon="11.231062316666664"><ele>609.0</ele><time>2026-05-01T07:25:17.353Z</time></trkpt><trkpt lat="46.78703491666667" lon="11.231022033333332"><ele>609.0</ele><time>2026-05-01T07:25:18.351Z</time></trkpt><trkpt lat="46.786916299999994" lon="11.230978083333333"><ele>609.0</ele><time>2026-05-01T07:25:19.351Z</time></trkpt><trkpt lat="46.78679815000001" lon="11.23093125"><ele>609.0</ele><time>2026-05-01T07:25:20.357Z</time></trkpt><trkpt lat="46.786677966666666" lon="11.23088735"><ele>609.8</ele><time>2026-05-01T07:25:21.351Z</time></trkpt><trkpt lat="46.78656304999999" lon="11.230841616666666"><ele>610.5999999999999</ele><time>2026-05-01T07:25:22.351Z</time></trkpt><trkpt lat="46.78645828333333" lon="11.230791366666665"><ele>611.4</ele><time>2026-05-01T07:25:23.352Z</time></trkpt><trkpt lat="46.786361983333336" lon="11.23073521666667"><ele>612.1999999999999</ele><time>2026-05-01T07:25:24.351Z</time></trkpt><trkpt lat="46.78627358333333" lon="11.230677666666669"><ele>613.0</ele><time>2026-05-01T07:25:25.373Z</time></trkpt><trkpt lat="46.78619435" lon="11.230619766666665"><ele>613.0</ele><time>2026-05-01T07:25:26.353Z</time></trkpt><trkpt lat="46.78612486666666" lon="11.23056525"><ele>613.0</ele><time>2026-05-01T07:25:27.351Z</time></trkpt><trkpt lat="46.786065883333336" lon="11.230515899999999"><ele>613.0</ele><time>2026-05-01T07:25:28.351Z</time></trkpt><trkpt lat="46.786012183333334" lon="11.230466016666668"><ele>613.0</ele><time>2026-05-01T07:25:29.351Z</time></trkpt><trkpt lat="46.78590833333333" lon="11.230372183333335"><ele>613.0</ele><time>2026-05-01T07:25:31.351Z</time></trkpt><trkpt lat="46.78585238333333" lon="11.230323433333334"><ele>613.0</ele><time>2026-05-01T07:25:32.353Z</time></trkpt><trkpt lat="46.785787" lon="11.230263883333334"><ele>610.6</ele><time>2026-05-01T07:25:33.35Z</time></trkpt><trkpt lat="46.785712133333334" lon="11.230193100000001"><ele>608.1999999999999</ele><time>2026-05-01T07:25:34.367Z</time></trkpt><trkpt lat="46.78562900000001" lon="11.230113549999999"><ele>605.8</ele><time>2026-05-01T07:25:35.356Z</time></trkpt><trkpt lat="46.785539333333325" lon="11.230031633333333"><ele>603.4</ele><time>2026-05-01T07:25:36.35Z</time></trkpt><trkpt lat="46.78544336666667" lon="11.229952299999999"><ele>601.0</ele><time>2026-05-01T07:25:37.351Z</time></trkpt><trkpt lat="46.78534763333334" lon="11.229881466666665"><ele>601.0</ele><time>2026-05-01T07:25:38.371Z</time></trkpt><trkpt lat="46.785248900000006" lon="11.229812416666668"><ele>601.0</ele><time>2026-05-01T07:25:39.35Z</time></trkpt><trkpt lat="46.78514836666667" lon="11.229744116666666"><ele>601.0</ele><time>2026-05-01T07:25:40.351Z</time></trkpt><trkpt lat="46.78504540000001" lon="11.229680266666666"><ele>601.0</ele><time>2026-05-01T07:25:41.354Z</time></trkpt><trkpt lat="46.784940033333335" lon="11.229613500000001"><ele>601.0</ele><time>2026-05-01T07:25:42.351Z</time></trkpt><trkpt lat="46.784830449999994" lon="11.229542666666669"><ele>599.5</ele><time>2026-05-01T07:25:43.351Z</time></trkpt><trkpt lat="46.78471966666666" lon="11.229474266666667"><ele>598.0</ele><time>2026-05-01T07:25:44.353Z</time></trkpt><trkpt lat="46.7846078" lon="11.229404416666668"><ele>596.5</ele><time>2026-05-01T07:25:45.374Z</time></trkpt><trkpt lat="46.784490549999994" lon="11.229327483333336"><ele>595.0</ele><time>2026-05-01T07:25:46.351Z</time></trkpt><trkpt lat="46.78437066666667" lon="11.229248700000001"><ele>593.75</ele><time>2026-05-01T07:25:47.369Z</time></trkpt><trkpt lat="46.78424601666667" lon="11.229167733333334"><ele>592.5</ele><time>2026-05-01T07:25:48.358Z</time></trkpt><trkpt lat="46.78412443333333" lon="11.2290883"><ele>591.25</ele><time>2026-05-01T07:25:49.351Z</time></trkpt><trkpt lat="46.784004833333334" lon="11.229009366666666"><ele>590.0</ele><time>2026-05-01T07:25:50.353Z</time></trkpt><trkpt lat="46.78388603333333" lon="11.228932166666667"><ele>589.75</ele><time>2026-05-01T07:25:51.35Z</time></trkpt><trkpt lat="46.78376706666666" lon="11.228860333333333"><ele>589.5</ele><time>2026-05-01T07:25:52.363Z</time></trkpt><trkpt lat="46.78364588333334" lon="11.228793233333333"><ele>589.25</ele><time>2026-05-01T07:25:53.352Z</time></trkpt><trkpt lat="46.78352578333333" lon="11.228723383333334"><ele>589.0</ele><time>2026-05-01T07:25:54.351Z</time></trkpt><trkpt lat="46.78341053333334" lon="11.228650866666666"><ele>589.0</ele><time>2026-05-01T07:25:55.351Z</time></trkpt><trkpt lat="46.78318756666666" lon="11.228494083333333"><ele>589.0</ele><time>2026-05-01T07:25:57.351Z</time></trkpt><trkpt lat="46.78307616666666" lon="11.228413699999999"><ele>589.0</ele><time>2026-05-01T07:25:58.355Z</time></trkpt><trkpt lat="46.782962883333326" lon="11.228338299999999"><ele>589.0</ele><time>2026-05-01T07:25:59.353Z</time></trkpt><trkpt lat="46.78285447832148" lon="11.228239571115415"><ele>589.0</ele><time>2026-05-01T07:26:00.351Z</time></trkpt><trkpt lat="46.78273793085247" lon="11.22816530134274"><ele>589.0</ele><time>2026-05-01T07:26:01.363Z</time></trkpt><trkpt lat="46.78262345563305" lon="11.228095545233352"><ele>589.0</ele><time>2026-05-01T07:26:02.374Z</time></trkpt><trkpt lat="46.78250383333334" lon="11.228051416666665"><ele>589.75</ele><time>2026-05-01T07:26:03.373Z</time></trkpt><trkpt lat="46.78239274999999" lon="11.227973866666664"><ele>590.5</ele><time>2026-05-01T07:26:04.373Z</time></trkpt><trkpt lat="46.78228065" lon="11.227894599999997"><ele>591.25</ele><time>2026-05-01T07:26:05.371Z</time></trkpt><trkpt lat="46.782163049999994" lon="11.227816216666668"><ele>592.0</ele><time>2026-05-01T07:26:06.373Z</time></trkpt><trkpt lat="46.782047823609695" lon="11.22771631520228"><ele>592.0</ele><time>2026-05-01T07:26:07.373Z</time></trkpt><trkpt lat="46.781925692914584" lon="11.227631127396371"><ele>592.0</ele><time>2026-05-01T07:26:08.354Z</time></trkpt><trkpt lat="46.78179601328953" lon="11.227552712217351"><ele>592.0</ele><time>2026-05-01T07:26:09.35Z</time></trkpt><trkpt lat="46.78166704101072" lon="11.227469618882001"><ele>592.0</ele><time>2026-05-01T07:26:10.355Z</time></trkpt><trkpt lat="46.78153245000001" lon="11.22741103333333"><ele>591.5</ele><time>2026-05-01T07:26:11.374Z</time></trkpt><trkpt lat="46.78140878333333" lon="11.227330183333333"><ele>591.0</ele><time>2026-05-01T07:26:12.356Z</time></trkpt><trkpt lat="46.78129274999999" lon="11.227250866666669"><ele>590.5</ele><time>2026-05-01T07:26:13.351Z</time></trkpt><trkpt lat="46.78117786666667" lon="11.227176916666668"><ele>590.0</ele><time>2026-05-01T07:26:14.357Z</time></trkpt><trkpt lat="46.78106586666666" lon="11.227105533333335"><ele>591.25</ele><time>2026-05-01T07:26:15.351Z</time></trkpt><trkpt lat="46.780959550000006" lon="11.227034333333332"><ele>592.5</ele><time>2026-05-01T07:26:16.351Z</time></trkpt><trkpt lat="46.78085863333334" lon="11.226969466666665"><ele>593.75</ele><time>2026-05-01T07:26:17.356Z</time></trkpt><trkpt lat="46.78076385430143" lon="11.22688266237519"><ele>595.0</ele><time>2026-05-01T07:26:18.351Z</time></trkpt><trkpt lat="46.78066097456875" lon="11.226814861753391"><ele>595.0</ele><time>2026-05-01T07:26:19.349Z</time></trkpt><trkpt lat="46.7805516" lon="11.226766566666667"><ele>595.0</ele><time>2026-05-01T07:26:20.374Z</time></trkpt><trkpt lat="46.780450583333334" lon="11.22669135"><ele>595.0</ele><time>2026-05-01T07:26:21.351Z</time></trkpt><trkpt lat="46.7803528" lon="11.226606066666665"><ele>595.0</ele><time>2026-05-01T07:26:22.351Z</time></trkpt><trkpt lat="46.7802613" lon="11.22651418333333"><ele>595.4</ele><time>2026-05-01T07:26:23.356Z</time></trkpt><trkpt lat="46.78017946666667" lon="11.226422366666668"><ele>595.8</ele><time>2026-05-01T07:26:24.351Z</time></trkpt><trkpt lat="46.78010738333334" lon="11.22633203333333"><ele>596.2</ele><time>2026-05-01T07:26:25.352Z</time></trkpt><trkpt lat="46.78003616666666" lon="11.22624096666667"><ele>596.6</ele><time>2026-05-01T07:26:26.353Z</time></trkpt><trkpt lat="46.779963583333334" lon="11.226147266666665"><ele>597.0</ele><time>2026-05-01T07:26:27.373Z</time></trkpt><trkpt lat="46.77989186666667" lon="11.2260513"><ele>597.0</ele><time>2026-05-01T07:26:28.352Z</time></trkpt><trkpt lat="46.779817216666665" lon="11.225953633333331"><ele>597.0</ele><time>2026-05-01T07:26:29.355Z</time></trkpt><trkpt lat="46.77973531666666" lon="11.225850949999998"><ele>597.0</ele><time>2026-05-01T07:26:30.351Z</time></trkpt><trkpt lat="46.77964741666666" lon="11.225751433333334"><ele>597.0</ele><time>2026-05-01T07:26:31.351Z</time></trkpt><trkpt lat="46.779551483333336" lon="11.225655166666664"><ele>597.0</ele><time>2026-05-01T07:26:32.354Z</time></trkpt><trkpt lat="46.779448349999996" lon="11.225561366666668"><ele>596.25</ele><time>2026-05-01T07:26:33.373Z</time></trkpt><trkpt lat="46.77934221666666" lon="11.225467316666666"><ele>595.5</ele><time>2026-05-01T07:26:34.353Z</time></trkpt><trkpt lat="46.77923083333334" lon="11.225373166666667"><ele>594.75</ele><time>2026-05-01T07:26:35.354Z</time></trkpt><trkpt lat="46.77912078333334" lon="11.225263216666667"><ele>594.0</ele><time>2026-05-01T07:26:36.349Z</time></trkpt><trkpt lat="46.77901860000001" lon="11.225134616666665"><ele>594.0</ele><time>2026-05-01T07:26:37.355Z</time></trkpt><trkpt lat="46.77892408333334" lon="11.224992000000002"><ele>594.0</ele><time>2026-05-01T07:26:38.358Z</time></trkpt><trkpt lat="46.778835133333324" lon="11.22485095"><ele>594.0</ele><time>2026-05-01T07:26:39.352Z</time></trkpt><trkpt lat="46.778750116666664" lon="11.224706383333332"><ele>594.0</ele><time>2026-05-01T07:26:40.351Z</time></trkpt><trkpt lat="46.77867031666666" lon="11.224559716666667"><ele>596.25</ele><time>2026-05-01T07:26:41.356Z</time></trkpt><trkpt lat="46.77860561666667" lon="11.22440075"><ele>598.5</ele><time>2026-05-01T07:26:42.351Z</time></trkpt><trkpt lat="46.77855906666667" lon="11.224223083333333"><ele>600.75</ele><time>2026-05-01T07:26:43.358Z</time></trkpt><trkpt lat="46.77851835" lon="11.224038183333334"><ele>603.0</ele><time>2026-05-01T07:26:44.352Z</time></trkpt><trkpt lat="46.77847563333333" lon="11.223848116666666"><ele>600.75</ele><time>2026-05-01T07:26:45.35Z</time></trkpt><trkpt lat="46.77842991666666" lon="11.2236536"><ele>598.5</ele><time>2026-05-01T07:26:46.351Z</time></trkpt><trkpt lat="46.77838379999999" lon="11.223456633333335"><ele>596.25</ele><time>2026-05-01T07:26:47.354Z</time></trkpt><trkpt lat="46.77833535" lon="11.223256066666666"><ele>594.0</ele><time>2026-05-01T07:26:48.375Z</time></trkpt><trkpt lat="46.77828175" lon="11.2230502"><ele>594.0</ele><time>2026-05-01T07:26:49.354Z</time></trkpt><trkpt lat="46.77821836666667" lon="11.222845783333332"><ele>594.0</ele><time>2026-05-01T07:26:50.353Z</time></trkpt><trkpt lat="46.77813625" lon="11.222655133333335"><ele>594.0</ele><time>2026-05-01T07:26:51.351Z</time></trkpt><trkpt lat="46.77803361666667" lon="11.222476166666668"><ele>599.3333333333334</ele><time>2026-05-01T07:26:52.373Z</time></trkpt><trkpt lat="46.77792285000001" lon="11.222309316666667"><ele>604.6666666666667</ele><time>2026-05-01T07:26:53.353Z</time></trkpt><trkpt lat="46.777812116666674" lon="11.22214505"><ele>610.0</ele><time>2026-05-01T07:26:54.375Z</time></trkpt><trkpt lat="46.777699399999996" lon="11.221982483333333"><ele>598.0</ele><time>2026-05-01T07:26:55.351Z</time></trkpt><trkpt lat="46.77758406666667" lon="11.221828983333333"><ele>586.0</ele><time>2026-05-01T07:26:56.36Z</time></trkpt><trkpt lat="46.7773519" lon="11.221533133333331"><ele>590.0</ele><time>2026-05-01T07:26:58.375Z</time></trkpt><trkpt lat="46.77722906666666" lon="11.221381000000001"><ele>594.0</ele><time>2026-05-01T07:26:59.353Z</time></trkpt><trkpt lat="46.777104816666665" lon="11.221219399999999"><ele>598.0</ele><time>2026-05-01T07:27:00.35Z</time></trkpt><trkpt lat="46.776978650000004" lon="11.221050416666666"><ele>594.0</ele><time>2026-05-01T07:27:01.371Z</time></trkpt><trkpt lat="46.776851349999994" lon="11.220873966666668"><ele>590.0</ele><time>2026-05-01T07:27:02.354Z</time></trkpt><trkpt lat="46.77672408333333" lon="11.220687649999999"><ele>586.0</ele><time>2026-05-01T07:27:03.374Z</time></trkpt><trkpt lat="46.77660406666667" lon="11.22048495"><ele>586.0</ele><time>2026-05-01T07:27:04.351Z</time></trkpt><trkpt lat="46.77649711666666" lon="11.220260633333332"><ele>586.0</ele><time>2026-05-01T07:27:05.367Z</time></trkpt><trkpt lat="46.77640928333334" lon="11.220022749999996"><ele>586.0</ele><time>2026-05-01T07:27:06.361Z</time></trkpt><trkpt lat="46.77633266666666" lon="11.21978595"><ele>591.0</ele><time>2026-05-01T07:27:07.355Z</time></trkpt><trkpt lat="46.7762543" lon="11.219554133333336"><ele>596.0</ele><time>2026-05-01T07:27:08.368Z</time></trkpt><trkpt lat="46.77617128333333" lon="11.219338216666664"><ele>601.0</ele><time>2026-05-01T07:27:09.372Z</time></trkpt><trkpt lat="46.776078749999996" lon="11.219140016666666"><ele>597.6666666666667</ele><time>2026-05-01T07:27:10.37Z</time></trkpt><trkpt lat="46.775966950000004" lon="11.218966466666666"><ele>594.3333333333334</ele><time>2026-05-01T07:27:11.367Z</time></trkpt><trkpt lat="46.77583825" lon="11.21881425"><ele>591.0</ele><time>2026-05-01T07:27:12.37Z</time></trkpt><trkpt lat="46.775699100000004" lon="11.218683166666665"><ele>591.0</ele><time>2026-05-01T07:27:13.371Z</time></trkpt><trkpt lat="46.77554851666667" lon="11.218573183333335"><ele>591.0</ele><time>2026-05-01T07:27:14.366Z</time></trkpt><trkpt lat="46.77538726666666" lon="11.218477266666664"><ele>591.0</ele><time>2026-05-01T07:27:15.366Z</time></trkpt><trkpt lat="46.7752276" lon="11.218391316666668"><ele>584.6666666666666</ele><time>2026-05-01T07:27:16.374Z</time></trkpt><trkpt lat="46.77507181666667" lon="11.2183105"><ele>578.3333333333333</ele><time>2026-05-01T07:27:17.367Z</time></trkpt><trkpt lat="46.77491205" lon="11.218238766666664"><ele>572.0</ele><time>2026-05-01T07:27:18.351Z</time></trkpt><trkpt lat="46.77474666666667" lon="11.218179033333335"><ele>577.3333333333333</ele><time>2026-05-01T07:27:19.355Z</time></trkpt><trkpt lat="46.77457846666666" lon="11.218130666666665"><ele>582.6666666666666</ele><time>2026-05-01T07:27:20.374Z</time></trkpt><trkpt lat="46.774408883333344" lon="11.21808691666667"><ele>588.0</ele><time>2026-05-01T07:27:21.369Z</time></trkpt><trkpt lat="46.774238849999996" lon="11.218043833333335"><ele>588.0</ele><time>2026-05-01T07:27:22.35Z</time></trkpt><trkpt lat="46.77407245" lon="11.218001383333334"><ele>588.0</ele><time>2026-05-01T07:27:23.369Z</time></trkpt><trkpt lat="46.77391373333334" lon="11.217961066666664"><ele>588.0</ele><time>2026-05-01T07:27:24.366Z</time></trkpt><trkpt lat="46.7737623" lon="11.217924383333333"><ele>588.0</ele><time>2026-05-01T07:27:25.364Z</time></trkpt><trkpt lat="46.77361418333333" lon="11.217886316666668"><ele>588.0</ele><time>2026-05-01T07:27:26.368Z</time></trkpt><trkpt lat="46.77346295" lon="11.21784595"><ele>588.0</ele><time>2026-05-01T07:27:27.352Z</time></trkpt><trkpt lat="46.77331193839698" lon="11.217780417643876"><ele>587.0</ele><time>2026-05-01T07:27:28.364Z</time></trkpt><trkpt lat="46.773156619482386" lon="11.217737656443461"><ele>586.0</ele><time>2026-05-01T07:27:29.37Z</time></trkpt><trkpt lat="46.77300028333334" lon="11.217714983333334"><ele>585.0</ele><time>2026-05-01T07:27:30.35Z</time></trkpt><trkpt lat="46.772849816666664" lon="11.217662"><ele>585.0</ele><time>2026-05-01T07:27:31.374Z</time></trkpt><trkpt lat="46.772708066666674" lon="11.217601449999998"><ele>585.0</ele><time>2026-05-01T07:27:32.368Z</time></trkpt><trkpt lat="46.772578800000005" lon="11.217529433333334"><ele>585.0</ele><time>2026-05-01T07:27:33.353Z</time></trkpt><trkpt lat="46.772459666666656" lon="11.217445733333333"><ele>585.0</ele><time>2026-05-01T07:27:34.372Z</time></trkpt><trkpt lat="46.77234875000001" lon="11.2173522"><ele>586.25</ele><time>2026-05-01T07:27:35.369Z</time></trkpt><trkpt lat="46.772238800000004" lon="11.217255900000001"><ele>587.5</ele><time>2026-05-01T07:27:36.37Z</time></trkpt><trkpt lat="46.77211805" lon="11.2171741"><ele>588.75</ele><time>2026-05-01T07:27:37.352Z</time></trkpt><trkpt lat="46.77198523333333" lon="11.217106933333332"><ele>590.0</ele><time>2026-05-01T07:27:38.376Z</time></trkpt><trkpt lat="46.77184936666666" lon="11.217045250000002"><ele>590.0</ele><time>2026-05-01T07:27:39.35Z</time></trkpt><trkpt lat="46.771710666666664" lon="11.217003383333333"><ele>590.0</ele><time>2026-05-01T07:27:40.356Z</time></trkpt><trkpt lat="46.771564166666664" lon="11.216981333333335"><ele>590.0</ele><time>2026-05-01T07:27:41.369Z</time></trkpt><trkpt lat="46.77141578333333" lon="11.216980566666665"><ele>590.0</ele><time>2026-05-01T07:27:42.35Z</time></trkpt><trkpt lat="46.771262449999995" lon="11.21700585"><ele>590.0</ele><time>2026-05-01T07:27:43.374Z</time></trkpt><trkpt lat="46.77110129999999" lon="11.217038950000001"><ele>590.0</ele><time>2026-05-01T07:27:44.369Z</time></trkpt><trkpt lat="46.77094565" lon="11.217067216666665"><ele>590.0</ele><time>2026-05-01T07:27:45.37Z</time></trkpt><trkpt lat="46.77080014999999" lon="11.217093"><ele>590.0</ele><time>2026-05-01T07:27:46.373Z</time></trkpt><trkpt lat="46.77066775" lon="11.217117550000001"><ele>590.0</ele><time>2026-05-01T07:27:47.374Z</time></trkpt><trkpt lat="46.77054549999999" lon="11.217134099999999"><ele>590.0</ele><time>2026-05-01T07:27:48.373Z</time></trkpt><trkpt lat="46.77042888333334" lon="11.217133750000002"><ele>590.0</ele><time>2026-05-01T07:27:49.374Z</time></trkpt><trkpt lat="46.7703145" lon="11.217119516666665"><ele>590.0</ele><time>2026-05-01T07:27:50.371Z</time></trkpt><trkpt lat="46.77019726666667" lon="11.217090516666667"><ele>590.0</ele><time>2026-05-01T07:27:51.351Z</time></trkpt><trkpt lat="46.770080099999994" lon="11.217047933333335"><ele>590.0</ele><time>2026-05-01T07:27:52.373Z</time></trkpt><trkpt lat="46.769957616666666" lon="11.217000983333332"><ele>590.0</ele><time>2026-05-01T07:27:53.372Z</time></trkpt><trkpt lat="46.76982598333334" lon="11.216956583333333"><ele>587.5</ele><time>2026-05-01T07:27:54.37Z</time></trkpt><trkpt lat="46.769686333333325" lon="11.216905183333333"><ele>585.0</ele><time>2026-05-01T07:27:55.375Z</time></trkpt><trkpt lat="46.769547550000006" lon="11.216846400000001"><ele>582.5</ele><time>2026-05-01T07:27:56.372Z</time></trkpt><trkpt lat="46.76941638333332" lon="11.216794149999998"><ele>580.0</ele><time>2026-05-01T07:27:57.374Z</time></trkpt><trkpt lat="46.76916493333333" lon="11.216693500000002"><ele>578.5</ele><time>2026-05-01T07:27:59.37Z</time></trkpt><trkpt lat="46.76905000000001" lon="11.216621783333336"><ele>577.0</ele><time>2026-05-01T07:28:00.364Z</time></trkpt><trkpt lat="46.768949983333336" lon="11.216514283333332"><ele>575.5</ele><time>2026-05-01T07:28:01.373Z</time></trkpt><trkpt lat="46.768856616666675" lon="11.216377383333334"><ele>574.0</ele><time>2026-05-01T07:28:02.368Z</time></trkpt><trkpt lat="46.76876063333334" lon="11.216227533333331"><ele>574.0</ele><time>2026-05-01T07:28:03.37Z</time></trkpt><trkpt lat="46.76866018333333" lon="11.216082666666667"><ele>574.0</ele><time>2026-05-01T07:28:04.35Z</time></trkpt><trkpt lat="46.76856156666666" lon="11.215947283333334"><ele>574.0</ele><time>2026-05-01T07:28:05.369Z</time></trkpt><trkpt lat="46.76846356666666" lon="11.215821149999998"><ele>574.0</ele><time>2026-05-01T07:28:06.371Z</time></trkpt><trkpt lat="46.76837153333333" lon="11.2156975"><ele>570.75</ele><time>2026-05-01T07:28:07.372Z</time></trkpt><trkpt lat="46.768280350000005" lon="11.215571483333333"><ele>567.5</ele><time>2026-05-01T07:28:08.372Z</time></trkpt><trkpt lat="46.76818483333333" lon="11.215443083333334"><ele>564.25</ele><time>2026-05-01T07:28:09.371Z</time></trkpt><trkpt lat="46.76808773333334" lon="11.215309266666667"><ele>561.0</ele><time>2026-05-01T07:28:10.353Z</time></trkpt><trkpt lat="46.767990933333344" lon="11.215181199999998"><ele>561.0</ele><time>2026-05-01T07:28:11.369Z</time></trkpt><trkpt lat="46.7678929" lon="11.215068483333335"><ele>561.0</ele><time>2026-05-01T07:28:12.371Z</time></trkpt><trkpt lat="46.767779983333334" lon="11.214986766666668"><ele>561.0</ele><time>2026-05-01T07:28:13.373Z</time></trkpt><trkpt lat="46.76766303333334" lon="11.214929"><ele>561.0</ele><time>2026-05-01T07:28:14.372Z</time></trkpt><trkpt lat="46.76755173333333" lon="11.214878400000002"><ele>561.5</ele><time>2026-05-01T07:28:15.349Z</time></trkpt><trkpt lat="46.76743935" lon="11.214826083333334"><ele>562.0</ele><time>2026-05-01T07:28:16.372Z</time></trkpt><trkpt lat="46.767327533333344" lon="11.214773549999999"><ele>562.5</ele><time>2026-05-01T07:28:17.37Z</time></trkpt><trkpt lat="46.767214133333326" lon="11.214717949999999"><ele>563.0</ele><time>2026-05-01T07:28:18.364Z</time></trkpt><trkpt lat="46.76709763333333" lon="11.214662283333334"><ele>565.5</ele><time>2026-05-01T07:28:19.355Z</time></trkpt><trkpt lat="46.76697836666667" lon="11.214612599999999"><ele>568.0</ele><time>2026-05-01T07:28:20.375Z</time></trkpt><trkpt lat="46.766857683333335" lon="11.214568416666667"><ele>570.5</ele><time>2026-05-01T07:28:21.371Z</time></trkpt><trkpt lat="46.76673291666666" lon="11.2145393"><ele>573.0</ele><time>2026-05-01T07:28:22.353Z</time></trkpt><trkpt lat="46.76660688333333" lon="11.21452075"><ele>573.0</ele><time>2026-05-01T07:28:23.373Z</time></trkpt><trkpt lat="46.766479833333335" lon="11.214513066666665"><ele>573.0</ele><time>2026-05-01T07:28:24.373Z</time></trkpt><trkpt lat="46.76635015" lon="11.214520066666669"><ele>573.0</ele><time>2026-05-01T07:28:25.373Z</time></trkpt><trkpt lat="46.76621493333334" lon="11.214524916666669"><ele>573.0</ele><time>2026-05-01T07:28:26.369Z</time></trkpt><trkpt lat="46.76607753333332" lon="11.214528366666665"><ele>569.25</ele><time>2026-05-01T07:28:27.371Z</time></trkpt><trkpt lat="46.765938850000005" lon="11.214532633333333"><ele>565.5</ele><time>2026-05-01T07:28:28.35Z</time></trkpt><trkpt lat="46.765805633333336" lon="11.2145283"><ele>561.75</ele><time>2026-05-01T07:28:29.37Z</time></trkpt><trkpt lat="46.76567983333333" lon="11.214518200000002"><ele>558.0</ele><time>2026-05-01T07:28:30.372Z</time></trkpt><trkpt lat="46.76556278333334" lon="11.214495316666667"><ele>558.0</ele><time>2026-05-01T07:28:31.374Z</time></trkpt><trkpt lat="46.765459549999996" lon="11.214436733333333"><ele>558.0</ele><time>2026-05-01T07:28:32.354Z</time></trkpt><trkpt lat="46.765380683333326" lon="11.214336416666667"><ele>558.0</ele><time>2026-05-01T07:28:33.371Z</time></trkpt><trkpt lat="46.765325600000004" lon="11.214201266666665"><ele>558.0</ele><time>2026-05-01T07:28:34.372Z</time></trkpt><trkpt lat="46.765276883333335" lon="11.214045800000001"><ele>558.0</ele><time>2026-05-01T07:28:35.373Z</time></trkpt><trkpt lat="46.76522276666666" lon="11.213878733333335"><ele>554.5</ele><time>2026-05-01T07:28:36.372Z</time></trkpt><trkpt lat="46.76516848333333" lon="11.21370595"><ele>551.0</ele><time>2026-05-01T07:28:37.364Z</time></trkpt><trkpt lat="46.76511021666667" lon="11.2135301"><ele>547.5</ele><time>2026-05-01T07:28:38.372Z</time></trkpt><trkpt lat="46.76505086666666" lon="11.213349633333333"><ele>544.0</ele><time>2026-05-01T07:28:39.371Z</time></trkpt><trkpt lat="46.764989016666675" lon="11.213162583333334"><ele>547.0</ele><time>2026-05-01T07:28:40.374Z</time></trkpt><trkpt lat="46.764924266666675" lon="11.212963533333333"><ele>550.0</ele><time>2026-05-01T07:28:41.368Z</time></trkpt><trkpt lat="46.76485948333334" lon="11.212763316666667"><ele>553.0</ele><time>2026-05-01T07:28:42.393Z</time></trkpt><trkpt lat="46.76479013333332" lon="11.212568666666668"><ele>553.0</ele><time>2026-05-01T07:28:43.373Z</time></trkpt><trkpt lat="46.76469885" lon="11.212386849999998"><ele>553.0</ele><time>2026-05-01T07:28:44.37Z</time></trkpt><trkpt lat="46.76457963333334" lon="11.212218316666666"><ele>553.0</ele><time>2026-05-01T07:28:45.371Z</time></trkpt><trkpt lat="46.76443723333333" lon="11.212041433333331"><ele>550.0</ele><time>2026-05-01T07:28:46.37Z</time></trkpt><trkpt lat="46.76427258333334" lon="11.211841383333335"><ele>547.0</ele><time>2026-05-01T07:28:47.369Z</time></trkpt><trkpt lat="46.764080283333335" lon="11.211622766666668"><ele>554.5</ele><time>2026-05-01T07:28:48.373Z</time></trkpt><trkpt lat="46.76389412090973" lon="11.211364403547835"><ele>562.0</ele><time>2026-05-01T07:28:49.374Z</time></trkpt><trkpt lat="46.76369748333333" lon="11.211144733333333"><ele>550.0</ele><time>2026-05-01T07:28:50.352Z</time></trkpt><trkpt lat="46.76352273333333" lon="11.210913716666667"><ele>538.0</ele><time>2026-05-01T07:28:51.365Z</time></trkpt><trkpt lat="46.7633425" lon="11.210702333333332"><ele>547.5</ele><time>2026-05-01T07:28:52.351Z</time></trkpt><trkpt lat="46.76314609999999" lon="11.210513766666667"><ele>557.0</ele><time>2026-05-01T07:28:53.351Z</time></trkpt><trkpt lat="46.76292173333333" lon="11.210342066666666"><ele>549.5</ele><time>2026-05-01T07:28:54.371Z</time></trkpt><trkpt lat="46.7626724" lon="11.210177533333335"><ele>542.0</ele><time>2026-05-01T07:28:55.355Z</time></trkpt><trkpt lat="46.762403616666674" lon="11.210008083333333"><ele>542.0</ele><time>2026-05-01T07:28:56.369Z</time></trkpt><trkpt lat="46.76212006666666" lon="11.209832516666665"><ele>542.0</ele><time>2026-05-01T07:28:57.371Z</time></trkpt><trkpt lat="46.76183305817202" lon="11.209617906632563"><ele>546.0</ele><time>2026-05-01T07:28:58.35Z</time></trkpt><trkpt lat="46.76122811522493" lon="11.209209983358743"><ele>546.5</ele><time>2026-05-01T07:29:00.372Z</time></trkpt><trkpt lat="46.76091786666666" lon="11.209023100000001"><ele>547.0</ele><time>2026-05-01T07:29:01.372Z</time></trkpt><trkpt lat="46.760627516666666" lon="11.208819983333333"><ele>547.0</ele><time>2026-05-01T07:29:02.35Z</time></trkpt><trkpt lat="46.760350966666664" lon="11.2086308"><ele>547.0</ele><time>2026-05-01T07:29:03.372Z</time></trkpt><trkpt lat="46.76008483333334" lon="11.208451116666666"><ele>542.5</ele><time>2026-05-01T07:29:04.366Z</time></trkpt><trkpt lat="46.759819400000005" lon="11.208275716666668"><ele>538.0</ele><time>2026-05-01T07:29:05.37Z</time></trkpt><trkpt lat="46.759554300000005" lon="11.208100883333334"><ele>545.0</ele><time>2026-05-01T07:29:06.372Z</time></trkpt><trkpt lat="46.75928985" lon="11.207923500000001"><ele>552.0</ele><time>2026-05-01T07:29:07.351Z</time></trkpt><trkpt lat="46.75902611666667" lon="11.207744316666668"><ele>552.0</ele><time>2026-05-01T07:29:08.373Z</time></trkpt><trkpt lat="46.75876386666667" lon="11.207570166666668"><ele>552.0</ele><time>2026-05-01T07:29:09.352Z</time></trkpt><trkpt lat="46.75851063333333" lon="11.207403099999999"><ele>560.0</ele><time>2026-05-01T07:29:10.35Z</time></trkpt><trkpt lat="46.758276551023826" lon="11.2072204553095"><ele>568.0</ele><time>2026-05-01T07:29:11.373Z</time></trkpt><trkpt lat="46.758028523079815" lon="11.207079724897094"><ele>568.0</ele><time>2026-05-01T07:29:12.371Z</time></trkpt><trkpt lat="46.757770654974344" lon="11.206986487101775"><ele>568.0</ele><time>2026-05-01T07:29:13.351Z</time></trkpt><trkpt lat="46.75750407840487" lon="11.20693803998709"><ele>558.0</ele><time>2026-05-01T07:29:14.374Z</time></trkpt><trkpt lat="46.75723343333334" lon="11.206944166666666"><ele>548.0</ele><time>2026-05-01T07:29:15.371Z</time></trkpt><trkpt lat="46.756963033333335" lon="11.206942933333336"><ele>540.5</ele><time>2026-05-01T07:29:16.355Z</time></trkpt><trkpt lat="46.75669188333333" lon="11.206950449999999"><ele>533.0</ele><time>2026-05-01T07:29:17.367Z</time></trkpt><trkpt lat="46.75642023333333" lon="11.206962416666665"><ele>533.0</ele><time>2026-05-01T07:29:18.373Z</time></trkpt><trkpt lat="46.75615081666666" lon="11.206973066666666"><ele>533.0</ele><time>2026-05-01T07:29:19.365Z</time></trkpt><trkpt lat="46.755887216666665" lon="11.206980333333334"><ele>536.0</ele><time>2026-05-01T07:29:20.372Z</time></trkpt><trkpt lat="46.755636766666676" lon="11.206974233333336"><ele>539.0</ele><time>2026-05-01T07:29:21.372Z</time></trkpt><trkpt lat="46.755402950000004" lon="11.206933483333334"><ele>535.6666666666666</ele><time>2026-05-01T07:29:22.373Z</time></trkpt><trkpt lat="46.75518794999999" lon="11.206845016666666"><ele>532.3333333333334</ele><time>2026-05-01T07:29:23.37Z</time></trkpt><trkpt lat="46.75497740000001" lon="11.206726833333335"><ele>529.0</ele><time>2026-05-01T07:29:24.371Z</time></trkpt><trkpt lat="46.75475916666666" lon="11.206601866666665"><ele>537.5</ele><time>2026-05-01T07:29:25.355Z</time></trkpt><trkpt lat="46.75453968333333" lon="11.206474866666667"><ele>546.0</ele><time>2026-05-01T07:29:26.369Z</time></trkpt><trkpt lat="46.75432821217402" lon="11.206319783750468"><ele>546.0</ele><time>2026-05-01T07:29:27.35Z</time></trkpt><trkpt lat="46.75408111666667" lon="11.206280066666666"><ele>546.0</ele><time>2026-05-01T07:29:28.365Z</time></trkpt><trkpt lat="46.75383076666667" lon="11.2062377"><ele>546.0</ele><time>2026-05-01T07:29:29.352Z</time></trkpt><trkpt lat="46.7535741" lon="11.206198066666666"><ele>546.0</ele><time>2026-05-01T07:29:30.349Z</time></trkpt><trkpt lat="46.75331258333334" lon="11.206155133333334"><ele>543.0</ele><time>2026-05-01T07:29:31.372Z</time></trkpt><trkpt lat="46.753046533333325" lon="11.206113249999998"><ele>540.0</ele><time>2026-05-01T07:29:32.369Z</time></trkpt><trkpt lat="46.75277946666667" lon="11.206069816666664"><ele>540.0</ele><time>2026-05-01T07:29:33.372Z</time></trkpt><trkpt lat="46.752512533333324" lon="11.206027783333333"><ele>540.0</ele><time>2026-05-01T07:29:34.372Z</time></trkpt><trkpt lat="46.752247966666665" lon="11.205989566666664"><ele>540.0</ele><time>2026-05-01T07:29:35.37Z</time></trkpt><trkpt lat="46.75198333333333" lon="11.205958933333333"><ele>540.0</ele><time>2026-05-01T07:29:36.372Z</time></trkpt><trkpt lat="46.751718916666675" lon="11.205939583333334"><ele>535.0</ele><time>2026-05-01T07:29:37.356Z</time></trkpt><trkpt lat="46.751458633333336" lon="11.205941583333333"><ele>530.0</ele><time>2026-05-01T07:29:38.369Z</time></trkpt><trkpt lat="46.7512023" lon="11.205973850000001"><ele>530.0</ele><time>2026-05-01T07:29:39.374Z</time></trkpt><trkpt lat="46.750948550000004" lon="11.206028983333333"><ele>530.0</ele><time>2026-05-01T07:29:40.35Z</time></trkpt><trkpt lat="46.75069656666667" lon="11.206092049999999"><ele>530.0</ele><time>2026-05-01T07:29:41.37Z</time></trkpt><trkpt lat="46.75044975" lon="11.206152000000001"><ele>530.0</ele><time>2026-05-01T07:29:42.396Z</time></trkpt><trkpt lat="46.75020858333334" lon="11.206222433333334"><ele>529.0</ele><time>2026-05-01T07:29:43.373Z</time></trkpt><trkpt lat="46.74997296666667" lon="11.20632245"><ele>528.0</ele><time>2026-05-01T07:29:44.371Z</time></trkpt><trkpt lat="46.74974115" lon="11.206440950000001"><ele>525.5</ele><time>2026-05-01T07:29:45.371Z</time></trkpt><trkpt lat="46.74951876666667" lon="11.206583266666668"><ele>523.0</ele><time>2026-05-01T07:29:46.387Z</time></trkpt><trkpt lat="46.74931071666667" lon="11.206744916666667"><ele>523.0</ele><time>2026-05-01T07:29:47.371Z</time></trkpt><trkpt lat="46.74912091666667" lon="11.206905783333331"><ele>523.0</ele><time>2026-05-01T07:29:48.373Z</time></trkpt><trkpt lat="46.74894996666667" lon="11.207069016666667"><ele>523.0</ele><time>2026-05-01T07:29:49.366Z</time></trkpt><trkpt lat="46.74880756666666" lon="11.207244216666666"><ele>520.3333333333334</ele><time>2026-05-01T07:29:50.373Z</time></trkpt><trkpt lat="46.74869516666666" lon="11.207437783333335"><ele>517.6666666666666</ele><time>2026-05-01T07:29:51.35Z</time></trkpt><trkpt lat="46.74860448333334" lon="11.207643416666668"><ele>515.0</ele><time>2026-05-01T07:29:52.373Z</time></trkpt><trkpt lat="46.748514233333324" lon="11.207833316666663"><ele>515.0</ele><time>2026-05-01T07:29:53.37Z</time></trkpt><trkpt lat="46.7484119" lon="11.207989716666669"><ele>515.0</ele><time>2026-05-01T07:29:54.372Z</time></trkpt><trkpt lat="46.74829473333333" lon="11.208090966666669"><ele>515.0</ele><time>2026-05-01T07:29:55.358Z</time></trkpt><trkpt lat="46.74816644999999" lon="11.2081278"><ele>515.0</ele><time>2026-05-01T07:29:56.369Z</time></trkpt><trkpt lat="46.74803713333334" lon="11.20811755"><ele>515.0</ele><time>2026-05-01T07:29:57.371Z</time></trkpt><trkpt lat="46.74790963333333" lon="11.20807915"><ele>515.0</ele><time>2026-05-01T07:29:58.352Z</time></trkpt><trkpt lat="46.747789116666674" lon="11.208022633333332"><ele>515.0</ele><time>2026-05-01T07:29:59.371Z</time></trkpt><trkpt lat="46.747575133333335" lon="11.207859066666666"><ele>512.75</ele><time>2026-05-01T07:30:01.373Z</time></trkpt><trkpt lat="46.747467549999996" lon="11.2077657"><ele>510.5</ele><time>2026-05-01T07:30:02.37Z</time></trkpt><trkpt lat="46.74735593333333" lon="11.207664733333335"><ele>508.25</ele><time>2026-05-01T07:30:03.349Z</time></trkpt><trkpt lat="46.74724908333332" lon="11.20754315"><ele>506.0</ele><time>2026-05-01T07:30:04.349Z</time></trkpt><trkpt lat="46.74714138333334" lon="11.207406766666667"><ele>504.3333333333333</ele><time>2026-05-01T07:30:05.37Z</time></trkpt><trkpt lat="46.747026416666664" lon="11.207260633333334"><ele>502.66666666666663</ele><time>2026-05-01T07:30:06.371Z</time></trkpt><trkpt lat="46.74690388333334" lon="11.207085849999999"><ele>501.0</ele><time>2026-05-01T07:30:07.351Z</time></trkpt><trkpt lat="46.74676905" lon="11.20688775"><ele>501.0</ele><time>2026-05-01T07:30:08.372Z</time></trkpt><trkpt lat="46.74662709999999" lon="11.206683866666667"><ele>501.0</ele><time>2026-05-01T07:30:09.35Z</time></trkpt><trkpt lat="46.746485433333326" lon="11.206480383333334"><ele>501.0</ele><time>2026-05-01T07:30:10.35Z</time></trkpt><trkpt lat="46.746343333333336" lon="11.206276300000003"><ele>502.0</ele><time>2026-05-01T07:30:11.371Z</time></trkpt><trkpt lat="46.74620138333333" lon="11.206072416666666"><ele>503.0</ele><time>2026-05-01T07:30:12.372Z</time></trkpt><trkpt lat="46.74605929999999" lon="11.205868333333335"><ele>504.0</ele><time>2026-05-01T07:30:13.35Z</time></trkpt><trkpt lat="46.74591735000001" lon="11.205664466666668"><ele>505.0</ele><time>2026-05-01T07:30:14.382Z</time></trkpt><trkpt lat="46.74577553333334" lon="11.205460783333335"><ele>506.0</ele><time>2026-05-01T07:30:15.375Z</time></trkpt><trkpt lat="46.74563345" lon="11.2052567"><ele>507.0</ele><time>2026-05-01T07:30:16.372Z</time></trkpt><trkpt lat="46.7454915" lon="11.205052816666667"><ele>507.0</ele><time>2026-05-01T07:30:17.373Z</time></trkpt><trkpt lat="46.745349683333345" lon="11.204849133333335"><ele>507.0</ele><time>2026-05-01T07:30:18.365Z</time></trkpt><trkpt lat="46.74568541666666" lon="11.204820600000001"><ele>509.0</ele><time>2026-05-01T07:30:19.351Z</time></trkpt><trkpt lat="46.745630733333336" lon="11.204730066666665"><ele>511.00000000000006</ele><time>2026-05-01T07:30:21.371Z</time></trkpt><trkpt lat="46.74554368333333" lon="11.204711066666668"><ele>513.0</ele><time>2026-05-01T07:30:22.37Z</time></trkpt><trkpt lat="46.74542233333334" lon="11.204702466666667"><ele>515.0</ele><time>2026-05-01T07:30:23.359Z</time></trkpt><trkpt lat="46.745286466666656" lon="11.204717750000002"><ele>517.0</ele><time>2026-05-01T07:30:24.371Z</time></trkpt><trkpt lat="46.7451373" lon="11.204734916666668"><ele>517.0</ele><time>2026-05-01T07:30:25.373Z</time></trkpt><trkpt lat="46.74497988333332" lon="11.204745050000001"><ele>517.0</ele><time>2026-05-01T07:30:26.37Z</time></trkpt><trkpt lat="46.74481349999999" lon="11.204760833333333"><ele>517.0</ele><time>2026-05-01T07:30:27.378Z</time></trkpt><trkpt lat="46.744639316666664" lon="11.204776516666668"><ele>517.0</ele><time>2026-05-01T07:30:28.351Z</time></trkpt><trkpt lat="46.74446755" lon="11.204785799999998"><ele>517.0</ele><time>2026-05-01T07:30:29.371Z</time></trkpt><trkpt lat="46.744296633333335" lon="11.20478775"><ele>517.0</ele><time>2026-05-01T07:30:30.372Z</time></trkpt><trkpt lat="46.74412345000001" lon="11.2047957"><ele>515.0</ele><time>2026-05-01T07:30:31.358Z</time></trkpt><trkpt lat="46.7439484" lon="11.204806333333332"><ele>513.0</ele><time>2026-05-01T07:30:32.37Z</time></trkpt><trkpt lat="46.743774849999994" lon="11.204819850000002"><ele>511.0</ele><time>2026-05-01T07:30:33.371Z</time></trkpt><trkpt lat="46.74360245" lon="11.204833"><ele>507.0</ele><time>2026-05-01T07:30:34.372Z</time></trkpt><trkpt lat="46.74343056666667" lon="11.204842250000002"><ele>503.0</ele><time>2026-05-01T07:30:35.37Z</time></trkpt><trkpt lat="46.74327095" lon="11.20485636666667"><ele>499.0</ele><time>2026-05-01T07:30:36.367Z</time></trkpt><trkpt lat="46.743119890275594" lon="11.204839861430855"><ele>499.0</ele><time>2026-05-01T07:30:37.373Z</time></trkpt><trkpt lat="46.74297061666666" lon="11.204853749999998"><ele>499.0</ele><time>2026-05-01T07:30:38.371Z</time></trkpt><trkpt lat="46.74282339924406" lon="11.204783694938666"><ele>499.0</ele><time>2026-05-01T07:30:39.375Z</time></trkpt><trkpt lat="46.742671313805324" lon="11.204700676831882"><ele>498.6666666666667</ele><time>2026-05-01T07:30:40.359Z</time></trkpt><trkpt lat="46.742515896674" lon="11.204611929874513"><ele>498.33333333333337</ele><time>2026-05-01T07:30:41.37Z</time></trkpt><trkpt lat="46.74236409859279" lon="11.204525927122408"><ele>498.0</ele><time>2026-05-01T07:30:42.371Z</time></trkpt><trkpt lat="46.74221575025384" lon="11.204441878857804"><ele>498.0</ele><time>2026-05-01T07:30:43.351Z</time></trkpt><trkpt lat="46.74206200125783" lon="11.204354770795511"><ele>498.0</ele><time>2026-05-01T07:30:44.37Z</time></trkpt><trkpt lat="46.74190269637006" lon="11.20426682134547"><ele>498.0</ele><time>2026-05-01T07:30:45.354Z</time></trkpt><trkpt lat="46.74173633333333" lon="11.204181083333333"><ele>496.66666666666663</ele><time>2026-05-01T07:30:46.351Z</time></trkpt><trkpt lat="46.74157789999999" lon="11.204039466666666"><ele>495.3333333333333</ele><time>2026-05-01T07:30:47.37Z</time></trkpt><trkpt lat="46.741421949999996" lon="11.203857216666664"><ele>494.0</ele><time>2026-05-01T07:30:48.372Z</time></trkpt><trkpt lat="46.74125413333333" lon="11.203648416666667"><ele>494.0</ele><time>2026-05-01T07:30:49.35Z</time></trkpt><trkpt lat="46.74107621666667" lon="11.203430700000002"><ele>494.0</ele><time>2026-05-01T07:30:50.372Z</time></trkpt><trkpt lat="46.74089366666667" lon="11.203211500000002"><ele>492.5</ele><time>2026-05-01T07:30:51.372Z</time></trkpt><trkpt lat="46.74072145062737" lon="11.202968995803957"><ele>491.0</ele><time>2026-05-01T07:30:52.353Z</time></trkpt><trkpt lat="46.740540454518175" lon="11.202746423419262"><ele>491.0</ele><time>2026-05-01T07:30:53.371Z</time></trkpt><trkpt lat="46.74035321666667" lon="11.202544883333333"><ele>491.0</ele><time>2026-05-01T07:30:54.351Z</time></trkpt><trkpt lat="46.74017886666667" lon="11.202325733333332"><ele>490.0</ele><time>2026-05-01T07:30:55.352Z</time></trkpt><trkpt lat="46.74000641666667" lon="11.202111966666667"><ele>489.0</ele><time>2026-05-01T07:30:56.368Z</time></trkpt><trkpt lat="46.739834633333345" lon="11.20189945"><ele>489.0</ele><time>2026-05-01T07:30:57.372Z</time></trkpt><trkpt lat="46.739663699999994" lon="11.201687766666666"><ele>489.0</ele><time>2026-05-01T07:30:58.351Z</time></trkpt><trkpt lat="46.73948978333333" lon="11.201483599999998"><ele>489.0</ele><time>2026-05-01T07:30:59.375Z</time></trkpt><trkpt lat="46.73930184999999" lon="11.201300350000002"><ele>507.0</ele><time>2026-05-01T07:31:00.373Z</time></trkpt><trkpt lat="46.738902933333335" lon="11.200993183333333"><ele>507.0</ele><time>2026-05-01T07:31:02.37Z</time></trkpt><trkpt lat="46.73870126666668" lon="11.200844383333333"><ele>507.0</ele><time>2026-05-01T07:31:03.351Z</time></trkpt><trkpt lat="46.73849805" lon="11.200696166666667"><ele>515.0</ele><time>2026-05-01T07:31:04.371Z</time></trkpt><trkpt lat="46.738292799999996" lon="11.200550983333336"><ele>523.0</ele><time>2026-05-01T07:31:05.371Z</time></trkpt><trkpt lat="46.73808698333334" lon="11.200402583333336"><ele>523.0</ele><time>2026-05-01T07:31:06.371Z</time></trkpt><trkpt lat="46.73787841666667" lon="11.200256466666668"><ele>523.0</ele><time>2026-05-01T07:31:07.373Z</time></trkpt><trkpt lat="46.73766848333333" lon="11.200113083333335"><ele>531.5</ele><time>2026-05-01T07:31:08.372Z</time></trkpt><trkpt lat="46.73745928333332" lon="11.199966666666668"><ele>540.0</ele><time>2026-05-01T07:31:09.371Z</time></trkpt><trkpt lat="46.7372426" lon="11.199832183333335"><ele>540.0</ele><time>2026-05-01T07:31:10.352Z</time></trkpt><trkpt lat="46.73701986666667" lon="11.199725816666668"><ele>540.0</ele><time>2026-05-01T07:31:11.371Z</time></trkpt><trkpt lat="46.736793" lon="11.199648433333333"><ele>531.5</ele><time>2026-05-01T07:31:12.371Z</time></trkpt><trkpt lat="46.73656058333332" lon="11.199597200000001"><ele>523.0</ele><time>2026-05-01T07:31:13.372Z</time></trkpt><trkpt lat="46.73632501666666" lon="11.199565883333332"><ele>523.0</ele><time>2026-05-01T07:31:14.373Z</time></trkpt><trkpt lat="46.73608615" lon="11.199543000000002"><ele>523.0</ele><time>2026-05-01T07:31:15.371Z</time></trkpt><trkpt lat="46.735846966666664" lon="11.19952795"><ele>518.5</ele><time>2026-05-01T07:31:16.374Z</time></trkpt><trkpt lat="46.735610316666666" lon="11.199509899999997"><ele>514.0</ele><time>2026-05-01T07:31:17.374Z</time></trkpt><trkpt lat="46.73537540000001" lon="11.19948165"><ele>511.5</ele><time>2026-05-01T07:31:18.382Z</time></trkpt><trkpt lat="46.735140083333334" lon="11.199452550000002"><ele>509.0</ele><time>2026-05-01T07:31:19.351Z</time></trkpt><trkpt lat="46.73490688333333" lon="11.199412700000002"><ele>509.0</ele><time>2026-05-01T07:31:20.372Z</time></trkpt><trkpt lat="46.73467793333333" lon="11.19938025"><ele>509.0</ele><time>2026-05-01T07:31:21.371Z</time></trkpt><trkpt lat="46.73445503333334" lon="11.199364783333333"><ele>505.0</ele><time>2026-05-01T07:31:22.384Z</time></trkpt><trkpt lat="46.734231483333325" lon="11.199364166666665"><ele>501.0</ele><time>2026-05-01T07:31:23.37Z</time></trkpt><trkpt lat="46.7340065" lon="11.199378333333334"><ele>497.0</ele><time>2026-05-01T07:31:24.371Z</time></trkpt><trkpt lat="46.73378231666667" lon="11.199384016666666"><ele>497.0</ele><time>2026-05-01T07:31:25.365Z</time></trkpt><trkpt lat="46.73356363333334" lon="11.199366066666668"><ele>497.0</ele><time>2026-05-01T07:31:26.369Z</time></trkpt><trkpt lat="46.73335206666667" lon="11.199343866666666"><ele>497.0</ele><time>2026-05-01T07:31:27.359Z</time></trkpt><trkpt lat="46.73315399999999" lon="11.199339466666666"><ele>495.66666666666663</ele><time>2026-05-01T07:31:28.351Z</time></trkpt><trkpt lat="46.732959" lon="11.199324516666664"><ele>494.33333333333337</ele><time>2026-05-01T07:31:29.353Z</time></trkpt><trkpt lat="46.73276448333333" lon="11.199274333333335"><ele>493.0</ele><time>2026-05-01T07:31:30.373Z</time></trkpt><trkpt lat="46.73256886666667" lon="11.199208816666665"><ele>491.33333333333337</ele><time>2026-05-01T07:31:31.359Z</time></trkpt><trkpt lat="46.73236454999999" lon="11.199154733333334"><ele>489.66666666666663</ele><time>2026-05-01T07:31:32.37Z</time></trkpt><trkpt lat="46.73214746666666" lon="11.199133666666668"><ele>488.0</ele><time>2026-05-01T07:31:33.371Z</time></trkpt><trkpt lat="46.73192218333334" lon="11.199149333333333"><ele>492.66666666666663</ele><time>2026-05-01T07:31:34.351Z</time></trkpt><trkpt lat="46.731702866666666" lon="11.1991948"><ele>497.33333333333337</ele><time>2026-05-01T07:31:35.369Z</time></trkpt><trkpt lat="46.73149003333333" lon="11.199273166666668"><ele>502.0</ele><time>2026-05-01T07:31:36.371Z</time></trkpt><trkpt lat="46.73128855" lon="11.1993894"><ele>502.0</ele><time>2026-05-01T07:31:37.373Z</time></trkpt><trkpt lat="46.73110105000001" lon="11.1995439"><ele>502.0</ele><time>2026-05-01T07:31:38.373Z</time></trkpt><trkpt lat="46.73093093333333" lon="11.199720866666667"><ele>502.0</ele><time>2026-05-01T07:31:39.372Z</time></trkpt><trkpt lat="46.7307804" lon="11.199910166666667"><ele>501.6666666666667</ele><time>2026-05-01T07:31:40.351Z</time></trkpt><trkpt lat="46.73064818333334" lon="11.200097983333334"><ele>501.33333333333337</ele><time>2026-05-01T07:31:41.37Z</time></trkpt><trkpt lat="46.73053060000001" lon="11.20027353333333"><ele>501.0</ele><time>2026-05-01T07:31:42.371Z</time></trkpt><trkpt lat="46.73041119999999" lon="11.200417233333333"><ele>501.0</ele><time>2026-05-01T07:31:43.373Z</time></trkpt><trkpt lat="46.73028513333333" lon="11.200507100000001"><ele>501.0</ele><time>2026-05-01T07:31:44.373Z</time></trkpt><trkpt lat="46.73014934999999" lon="11.200547166666668"><ele>501.0</ele><time>2026-05-01T07:31:45.356Z</time></trkpt><trkpt lat="46.73001106666667" lon="11.200567166666666"><ele>501.0</ele><time>2026-05-01T07:31:46.35Z</time></trkpt><trkpt lat="46.729877083333335" lon="11.20058105"><ele>503.5</ele><time>2026-05-01T07:31:47.37Z</time></trkpt><trkpt lat="46.72975183333333" lon="11.200593250000002"><ele>506.0</ele><time>2026-05-01T07:31:48.371Z</time></trkpt><trkpt lat="46.72963268333333" lon="11.2005984"><ele>508.5</ele><time>2026-05-01T07:31:49.352Z</time></trkpt><trkpt lat="46.72951970000001" lon="11.200577533333334"><ele>511.0</ele><time>2026-05-01T07:31:50.394Z</time></trkpt><trkpt lat="46.72942806666667" lon="11.200521166666666"><ele>508.4</ele><time>2026-05-01T07:31:51.371Z</time></trkpt><trkpt lat="46.72934898333333" lon="11.2004379"><ele>505.8</ele><time>2026-05-01T07:31:52.373Z</time></trkpt><trkpt lat="46.72927846666666" lon="11.200337283333331"><ele>503.19999999999993</ele><time>2026-05-01T07:31:53.351Z</time></trkpt><trkpt lat="46.72921235" lon="11.200219550000002"><ele>500.59999999999997</ele><time>2026-05-01T07:31:54.352Z</time></trkpt><trkpt lat="46.72914208333333" lon="11.200099216666668"><ele>498.0</ele><time>2026-05-01T07:31:55.374Z</time></trkpt><trkpt lat="46.7290696" lon="11.199974066666668"><ele>498.0</ele><time>2026-05-01T07:31:56.37Z</time></trkpt><trkpt lat="46.72899971666667" lon="11.199849416666664"><ele>497.99999999999994</ele><time>2026-05-01T07:31:57.373Z</time></trkpt><trkpt lat="46.72892926666667" lon="11.199731816666667"><ele>497.99999999999994</ele><time>2026-05-01T07:31:58.375Z</time></trkpt><trkpt lat="46.72885581666666" lon="11.19962365"><ele>498.0</ele><time>2026-05-01T07:31:59.353Z</time></trkpt><trkpt lat="46.72877748333333" lon="11.199530049999998"><ele>498.0</ele><time>2026-05-01T07:32:00.373Z</time></trkpt><trkpt lat="46.728688700000006" lon="11.199458166666668"><ele>501.0</ele><time>2026-05-01T07:32:01.352Z</time></trkpt><trkpt lat="46.728476016666676" lon="11.199394883333332"><ele>504.0</ele><time>2026-05-01T07:32:03.365Z</time></trkpt><trkpt lat="46.72836318333334" lon="11.199417016666667"><ele>507.0</ele><time>2026-05-01T07:32:04.352Z</time></trkpt><trkpt lat="46.72825868333332" lon="11.19947715"><ele>510.0</ele><time>2026-05-01T07:32:05.352Z</time></trkpt><trkpt lat="46.72816431666667" lon="11.199561083333334"><ele>510.0</ele><time>2026-05-01T07:32:06.373Z</time></trkpt><trkpt lat="46.728072133333335" lon="11.199630883333334"><ele>510.0</ele><time>2026-05-01T07:32:07.358Z</time></trkpt><trkpt lat="46.72797066666667" lon="11.199669166666668"><ele>510.0</ele><time>2026-05-01T07:32:08.373Z</time></trkpt><trkpt lat="46.72786545" lon="11.19965406666667"><ele>510.0</ele><time>2026-05-01T07:32:09.372Z</time></trkpt><trkpt lat="46.72777191666667" lon="11.199572966666667"><ele>510.0</ele><time>2026-05-01T07:32:10.352Z</time></trkpt><trkpt lat="46.72767783333334" lon="11.199475633333334"><ele>511.0</ele><time>2026-05-01T07:32:11.371Z</time></trkpt><trkpt lat="46.72756689999999" lon="11.199393616666669"><ele>512.0</ele><time>2026-05-01T07:32:12.367Z</time></trkpt><trkpt lat="46.727442249999996" lon="11.199343866666666"><ele>513.0</ele><time>2026-05-01T07:32:13.373Z</time></trkpt><trkpt lat="46.72731815" lon="11.199293933333337"><ele>514.0</ele><time>2026-05-01T07:32:14.37Z</time></trkpt><trkpt lat="46.72720519999999" lon="11.19920675"><ele>514.0</ele><time>2026-05-01T07:32:15.375Z</time></trkpt><trkpt lat="46.72711628333333" lon="11.199075049999998"><ele>514.0</ele><time>2026-05-01T07:32:16.364Z</time></trkpt><trkpt lat="46.72705078333333" lon="11.1989043"><ele>514.0</ele><time>2026-05-01T07:32:17.37Z</time></trkpt><trkpt lat="46.72698111666667" lon="11.198717766666668"><ele>514.0</ele><time>2026-05-01T07:32:18.374Z</time></trkpt><trkpt lat="46.72689248333332" lon="11.1985308"><ele>510.0</ele><time>2026-05-01T07:32:19.351Z</time></trkpt><trkpt lat="46.7267832" lon="11.198347566666667"><ele>506.0</ele><time>2026-05-01T07:32:20.372Z</time></trkpt><trkpt lat="46.72666296666666" lon="11.19816585"><ele>502.0</ele><time>2026-05-01T07:32:21.357Z</time></trkpt><trkpt lat="46.726554917334944" lon="11.197952691261952"><ele>510.0</ele><time>2026-05-01T07:32:22.381Z</time></trkpt><trkpt lat="46.72643010155956" lon="11.19776762399648"><ele>518.0</ele><time>2026-05-01T07:32:23.351Z</time></trkpt><trkpt lat="46.726311583333334" lon="11.197559066666669"><ele>526.0</ele><time>2026-05-01T07:32:24.371Z</time></trkpt><trkpt lat="46.726216883333336" lon="11.197325283333331"><ele>520.3333333333334</ele><time>2026-05-01T07:32:25.352Z</time></trkpt><trkpt lat="46.726131566666666" lon="11.197091299999999"><ele>514.6666666666666</ele><time>2026-05-01T07:32:26.372Z</time></trkpt><trkpt lat="46.7260518" lon="11.19687445"><ele>509.0</ele><time>2026-05-01T07:32:27.371Z</time></trkpt><trkpt lat="46.725974816666664" lon="11.196662916666666"><ele>515.6666666666666</ele><time>2026-05-01T07:32:28.351Z</time></trkpt><trkpt lat="46.72590013581207" lon="11.196453499861681"><ele>522.3333333333334</ele><time>2026-05-01T07:32:29.371Z</time></trkpt><trkpt lat="46.72576871666667" lon="11.196305933333333"><ele>529.0</ele><time>2026-05-01T07:32:30.352Z</time></trkpt><trkpt lat="46.7256351" lon="11.196184416666664"><ele>529.0</ele><time>2026-05-01T07:32:31.358Z</time></trkpt><trkpt lat="46.72551095" lon="11.196069216666668"><ele>529.0</ele><time>2026-05-01T07:32:32.37Z</time></trkpt><trkpt lat="46.725406549999995" lon="11.19591935"><ele>529.0</ele><time>2026-05-01T07:32:33.371Z</time></trkpt><trkpt lat="46.725317833333335" lon="11.195736716666666"><ele>529.0</ele><time>2026-05-01T07:32:34.374Z</time></trkpt><trkpt lat="46.725246016666674" lon="11.195547783333332"><ele>525.3333333333334</ele><time>2026-05-01T07:32:35.376Z</time></trkpt><trkpt lat="46.725190850000004" lon="11.195389466666667"><ele>521.6666666666667</ele><time>2026-05-01T07:32:36.371Z</time></trkpt><trkpt lat="46.72515355000001" lon="11.195272499999998"><ele>518.0</ele><time>2026-05-01T07:32:37.374Z</time></trkpt><trkpt lat="46.725128116666674" lon="11.195170599999999"><ele>514.3333333333334</ele><time>2026-05-01T07:32:38.373Z</time></trkpt><trkpt lat="46.72510581666667" lon="11.195079849999997"><ele>510.6666666666667</ele><time>2026-05-01T07:32:39.351Z</time></trkpt><trkpt lat="46.72507598333333" lon="11.194963083333334"><ele>507.0</ele><time>2026-05-01T07:32:41.37Z</time></trkpt><trkpt lat="46.7250567" lon="11.194860850000001"><ele>511.5</ele><time>2026-05-01T07:34:14.371Z</time></trkpt><trkpt lat="46.725025766666676" lon="11.194749266666667"><ele>516.0</ele><time>2026-05-01T07:34:16.373Z</time></trkpt><trkpt lat="46.72500149999999" lon="11.194642250000001"><ele>520.5</ele><time>2026-05-01T07:34:18.372Z</time></trkpt><trkpt lat="46.72496101666667" lon="11.194475433333333"><ele>525.0</ele><time>2026-05-01T07:34:20.374Z</time></trkpt><trkpt lat="46.72493188333333" lon="11.194374450000002"><ele>529.5</ele><time>2026-05-01T07:34:21.374Z</time></trkpt><trkpt lat="46.72489183333334" lon="11.1942692"><ele>534.0</ele><time>2026-05-01T07:34:22.349Z</time></trkpt><trkpt lat="46.72483811666666" lon="11.194165116666667"><ele>534.0</ele><time>2026-05-01T07:34:23.356Z</time></trkpt><trkpt lat="46.72477098333334" lon="11.194065783333333"><ele>534.0</ele><time>2026-05-01T07:34:24.373Z</time></trkpt><trkpt lat="46.724685699999995" lon="11.193979666666667"><ele>534.0</ele><time>2026-05-01T07:34:25.351Z</time></trkpt><trkpt lat="46.724590033333335" lon="11.193920216666667"><ele>534.0</ele><time>2026-05-01T07:34:26.369Z</time></trkpt><trkpt lat="46.72449660000001" lon="11.193887783333333"><ele>534.0</ele><time>2026-05-01T07:34:27.372Z</time></trkpt><trkpt lat="46.72439818333334" lon="11.193858683333334"><ele>536.0</ele><time>2026-05-01T07:34:28.351Z</time></trkpt><trkpt lat="46.724294416666666" lon="11.19383645"><ele>538.0</ele><time>2026-05-01T07:34:29.37Z</time></trkpt><trkpt lat="46.72418688333334" lon="11.193818616666665"><ele>540.0</ele><time>2026-05-01T07:34:30.352Z</time></trkpt><trkpt lat="46.724085416666675" lon="11.193803616666667"><ele>542.0</ele><time>2026-05-01T07:34:31.351Z</time></trkpt><trkpt lat="46.72399423333333" lon="11.1937844"><ele>544.0</ele><time>2026-05-01T07:34:32.369Z</time></trkpt><trkpt lat="46.72390688333333" lon="11.193753050000002"><ele>544.0</ele><time>2026-05-01T07:34:33.372Z</time></trkpt><trkpt lat="46.72382626666667" lon="11.1937021"><ele>544.0</ele><time>2026-05-01T07:34:34.384Z</time></trkpt><trkpt lat="46.72375471666666" lon="11.193630466666665"><ele>544.0</ele><time>2026-05-01T07:34:35.369Z</time></trkpt><trkpt lat="46.723690850000004" lon="11.193535133333334"><ele>544.0</ele><time>2026-05-01T07:34:36.372Z</time></trkpt><trkpt lat="46.72362666666666" lon="11.193427983333333"><ele>544.0</ele><time>2026-05-01T07:34:37.349Z</time></trkpt><trkpt lat="46.72355093333334" lon="11.193326016666667"><ele>546.8</ele><time>2026-05-01T07:34:38.369Z</time></trkpt><trkpt lat="46.723467250000006" lon="11.193233216666666"><ele>549.5999999999999</ele><time>2026-05-01T07:34:39.366Z</time></trkpt><trkpt lat="46.72337921666667" lon="11.193148133333333"><ele>552.4</ele><time>2026-05-01T07:34:40.351Z</time></trkpt><trkpt lat="46.72328806666666" lon="11.193063116666668"><ele>555.1999999999999</ele><time>2026-05-01T07:34:41.369Z</time></trkpt><trkpt lat="46.72319616666667" lon="11.192966850000001"><ele>558.0</ele><time>2026-05-01T07:34:42.372Z</time></trkpt><trkpt lat="46.72310318333333" lon="11.192857900000002"><ele>558.0</ele><time>2026-05-01T07:34:43.359Z</time></trkpt><trkpt lat="46.723008166666666" lon="11.192743916666664"><ele>558.0</ele><time>2026-05-01T07:34:44.369Z</time></trkpt><trkpt lat="46.722907983333336" lon="11.192633149999997"><ele>558.0</ele><time>2026-05-01T07:34:45.372Z</time></trkpt><trkpt lat="46.72280268333334" lon="11.192528516666668"><ele>558.0</ele><time>2026-05-01T07:34:46.351Z</time></trkpt><trkpt lat="46.722696283333335" lon="11.192419733333335"><ele>558.75</ele><time>2026-05-01T07:34:47.369Z</time></trkpt><trkpt lat="46.72258978333332" lon="11.192304549999998"><ele>559.5</ele><time>2026-05-01T07:34:48.375Z</time></trkpt><trkpt lat="46.72248481666667" lon="11.192183550000001"><ele>560.25</ele><time>2026-05-01T07:34:49.349Z</time></trkpt><trkpt lat="46.72238911666666" lon="11.192048866666669"><ele>561.0</ele><time>2026-05-01T07:34:50.373Z</time></trkpt><trkpt lat="46.722288883333334" lon="11.1919142"><ele>561.0</ele><time>2026-05-01T07:34:51.372Z</time></trkpt><trkpt lat="46.722172883333336" lon="11.191807649999998"><ele>561.0</ele><time>2026-05-01T07:34:52.349Z</time></trkpt><trkpt lat="46.722045916666666" lon="11.191721583333333"><ele>561.0</ele><time>2026-05-01T07:34:53.369Z</time></trkpt><trkpt lat="46.72191633333333" lon="11.1916353"><ele>561.0</ele><time>2026-05-01T07:34:54.352Z</time></trkpt><trkpt lat="46.721785849999996" lon="11.191545416666667"><ele>564.75</ele><time>2026-05-01T07:34:55.351Z</time></trkpt><trkpt lat="46.72165173333333" lon="11.191473033333335"><ele>568.5</ele><time>2026-05-01T07:34:56.37Z</time></trkpt><trkpt lat="46.72151783333334" lon="11.1914279"><ele>572.25</ele><time>2026-05-01T07:34:57.357Z</time></trkpt><trkpt lat="46.72139131666666" lon="11.191390266666668"><ele>576.0</ele><time>2026-05-01T07:34:58.349Z</time></trkpt><trkpt lat="46.72126971666666" lon="11.191330950000001"><ele>576.0</ele><time>2026-05-01T07:34:59.369Z</time></trkpt><trkpt lat="46.72114611666666" lon="11.191260183333334"><ele>576.0</ele><time>2026-05-01T07:35:00.373Z</time></trkpt><trkpt lat="46.721012249999994" lon="11.191231033333333"><ele>576.0</ele><time>2026-05-01T07:35:01.352Z</time></trkpt><trkpt lat="46.7208727" lon="11.191250683333331"><ele>576.0</ele><time>2026-05-01T07:35:02.397Z</time></trkpt><trkpt lat="46.72073704999999" lon="11.1912807"><ele>574.25</ele><time>2026-05-01T07:35:03.372Z</time></trkpt><trkpt lat="46.72060873333333" lon="11.191309133333336"><ele>572.5</ele><time>2026-05-01T07:35:04.351Z</time></trkpt><trkpt lat="46.72048441666667" lon="11.191338933333334"><ele>570.75</ele><time>2026-05-01T07:35:05.371Z</time></trkpt><trkpt lat="46.720363083333325" lon="11.191386849999999"><ele>569.0</ele><time>2026-05-01T07:35:06.394Z</time></trkpt><trkpt lat="46.72024028333333" lon="11.191446316666667"><ele>568.5</ele><time>2026-05-01T07:35:07.351Z</time></trkpt><trkpt lat="46.720117516666676" lon="11.191504683333335"><ele>568.0</ele><time>2026-05-01T07:35:08.372Z</time></trkpt><trkpt lat="46.71999040000001" lon="11.191542383333335"><ele>567.5</ele><time>2026-05-01T07:35:09.372Z</time></trkpt><trkpt lat="46.71985491666666" lon="11.191538416666667"><ele>567.0</ele><time>2026-05-01T07:35:10.353Z</time></trkpt><trkpt lat="46.71972321666667" lon="11.19149175"><ele>567.0</ele><time>2026-05-01T07:35:11.353Z</time></trkpt><trkpt lat="46.71959721666667" lon="11.1914193"><ele>567.0</ele><time>2026-05-01T07:35:12.372Z</time></trkpt><trkpt lat="46.71947495" lon="11.191339633333333"><ele>567.0</ele><time>2026-05-01T07:35:13.357Z</time></trkpt><trkpt lat="46.71936184999999" lon="11.191252233333334"><ele>567.0</ele><time>2026-05-01T07:35:14.369Z</time></trkpt><trkpt lat="46.71926083333333" lon="11.1911427"><ele>562.75</ele><time>2026-05-01T07:35:15.368Z</time></trkpt><trkpt lat="46.71915274999999" lon="11.191043183333333"><ele>558.5</ele><time>2026-05-01T07:35:16.351Z</time></trkpt><trkpt lat="46.71902583333334" lon="11.190986000000002"><ele>554.25</ele><time>2026-05-01T07:35:17.369Z</time></trkpt><trkpt lat="46.7188938" lon="11.1909507"><ele>550.0</ele><time>2026-05-01T07:35:18.375Z</time></trkpt><trkpt lat="46.718763" lon="11.190901066666667"><ele>550.0</ele><time>2026-05-01T07:35:19.365Z</time></trkpt><trkpt lat="46.71863686666667" lon="11.190860783333335"><ele>550.0</ele><time>2026-05-01T07:35:20.353Z</time></trkpt><trkpt lat="46.718520716666674" lon="11.190859799999998"><ele>550.0</ele><time>2026-05-01T07:35:21.372Z</time></trkpt><trkpt lat="46.71841453333334" lon="11.190866566666667"><ele>550.0</ele><time>2026-05-01T07:35:22.351Z</time></trkpt><trkpt lat="46.71831073333333" lon="11.19083885"><ele>552.0</ele><time>2026-05-01T07:35:23.37Z</time></trkpt><trkpt lat="46.71820911666667" lon="11.190778100000001"><ele>554.0</ele><time>2026-05-01T07:35:24.372Z</time></trkpt><trkpt lat="46.71811431963982" lon="11.190681957949199"><ele>556.0</ele><time>2026-05-01T07:35:25.351Z</time></trkpt><trkpt lat="46.718017122783344" lon="11.190581315858388"><ele>558.0</ele><time>2026-05-01T07:35:26.37Z</time></trkpt><trkpt lat="46.7179140066991" lon="11.1904811001175"><ele>558.0</ele><time>2026-05-01T07:35:27.372Z</time></trkpt><trkpt lat="46.71780161399157" lon="11.190394109718383"><ele>558.0</ele><time>2026-05-01T07:35:28.357Z</time></trkpt><trkpt lat="46.717681990835224" lon="11.190324150443338"><ele>558.0</ele><time>2026-05-01T07:35:29.37Z</time></trkpt><trkpt lat="46.71755717843896" lon="11.19026114845816"><ele>558.0</ele><time>2026-05-01T07:35:30.353Z</time></trkpt><trkpt lat="46.71741603250549" lon="11.1902537142854"><ele>552.75</ele><time>2026-05-01T07:35:31.351Z</time></trkpt><trkpt lat="46.71728354624275" lon="11.190304088127066"><ele>547.5</ele><time>2026-05-01T07:35:32.369Z</time></trkpt><trkpt lat="46.717150475678785" lon="11.190349401749044"><ele>542.25</ele><time>2026-05-01T07:35:33.356Z</time></trkpt><trkpt lat="46.717015985562945" lon="11.190365619797346"><ele>537.0</ele><time>2026-05-01T07:35:34.349Z</time></trkpt><trkpt lat="46.71689389159484" lon="11.19036585863504"><ele>533.2</ele><time>2026-05-01T07:35:35.37Z</time></trkpt><trkpt lat="46.716779066666675" lon="11.190376883333332"><ele>529.4000000000001</ele><time>2026-05-01T07:35:36.372Z</time></trkpt><trkpt lat="46.716674533333325" lon="11.190330516666666"><ele>525.5999999999999</ele><time>2026-05-01T07:35:37.352Z</time></trkpt><trkpt lat="46.71658053333334" lon="11.190250883333333"><ele>521.8</ele><time>2026-05-01T07:35:38.375Z</time></trkpt><trkpt lat="46.71649656666667" lon="11.190142866666667"><ele>518.0</ele><time>2026-05-01T07:35:39.372Z</time></trkpt><trkpt lat="46.71640861666667" lon="11.190038416666669"><ele>518.0</ele><time>2026-05-01T07:35:40.35Z</time></trkpt><trkpt lat="46.71630884029476" lon="11.189945718924191"><ele>518.0</ele><time>2026-05-01T07:35:41.369Z</time></trkpt><trkpt lat="46.71619176666666" lon="11.1899767"><ele>518.0</ele><time>2026-05-01T07:35:42.352Z</time></trkpt><trkpt lat="46.71608715000001" lon="11.190038916666666"><ele>518.0</ele><time>2026-05-01T07:35:43.364Z</time></trkpt><trkpt lat="46.71598221666666" lon="11.190112333333332"><ele>517.0</ele><time>2026-05-01T07:35:44.357Z</time></trkpt><trkpt lat="46.715877666666664" lon="11.190175199999999"><ele>516.0</ele><time>2026-05-01T07:35:45.372Z</time></trkpt><trkpt lat="46.71577765" lon="11.19023031666667"><ele>515.0</ele><time>2026-05-01T07:35:46.351Z</time></trkpt><trkpt lat="46.71568396666667" lon="11.190260933333333"><ele>514.0</ele><time>2026-05-01T07:35:47.378Z</time></trkpt><trkpt lat="46.71559286666667" lon="11.190252783333337"><ele>513.0</ele><time>2026-05-01T07:35:48.351Z</time></trkpt><trkpt lat="46.715510816666665" lon="11.190197316666668"><ele>513.0</ele><time>2026-05-01T07:35:49.372Z</time></trkpt><trkpt lat="46.71544161666667" lon="11.190103583333334"><ele>513.0</ele><time>2026-05-01T07:35:50.371Z</time></trkpt><trkpt lat="46.715386316666674" lon="11.189979850000002"><ele>513.0</ele><time>2026-05-01T07:35:51.35Z</time></trkpt><trkpt lat="46.715333316666666" lon="11.189841266666667"><ele>513.0</ele><time>2026-05-01T07:35:52.367Z</time></trkpt><trkpt lat="46.715279083333336" lon="11.189693016666668"><ele>513.0</ele><time>2026-05-01T07:35:53.372Z</time></trkpt><trkpt lat="46.71522565" lon="11.189543"><ele>513.0</ele><time>2026-05-01T07:35:54.372Z</time></trkpt><trkpt lat="46.71518891666667" lon="11.189382883333334"><ele>513.0</ele><time>2026-05-01T07:35:55.351Z</time></trkpt><trkpt lat="46.71515670000001" lon="11.189226383333335"><ele>513.0</ele><time>2026-05-01T07:35:56.371Z</time></trkpt><trkpt lat="46.715100150000005" lon="11.189101516666666"><ele>513.0</ele><time>2026-05-01T07:35:57.351Z</time></trkpt><trkpt lat="46.71501921666666" lon="11.1890254"><ele>513.0</ele><time>2026-05-01T07:35:58.351Z</time></trkpt><trkpt lat="46.71492228333333" lon="11.189006933333335"><ele>513.0</ele><time>2026-05-01T07:35:59.372Z</time></trkpt><trkpt lat="46.714820466666666" lon="11.189041416666665"><ele>513.0</ele><time>2026-05-01T07:36:00.352Z</time></trkpt><trkpt lat="46.71472013333334" lon="11.189122166666667"><ele>513.0</ele><time>2026-05-01T07:36:01.357Z</time></trkpt><trkpt lat="46.71461253333334" lon="11.189221166666668"><ele>513.0</ele><time>2026-05-01T07:36:02.37Z</time></trkpt><trkpt lat="46.71449375" lon="11.189285066666665"><ele>509.0</ele><time>2026-05-01T07:36:03.372Z</time></trkpt><trkpt lat="46.71436393333334" lon="11.189285199999999"><ele>505.0</ele><time>2026-05-01T07:36:04.351Z</time></trkpt><trkpt lat="46.71422776666666" lon="11.189244066666667"><ele>501.0</ele><time>2026-05-01T07:36:05.37Z</time></trkpt><trkpt lat="46.71395795" lon="11.189148333333332"><ele>501.0</ele><time>2026-05-01T07:36:07.35Z</time></trkpt><trkpt lat="46.71382898333333" lon="11.189114866666667"><ele>501.0</ele><time>2026-05-01T07:36:08.372Z</time></trkpt><trkpt lat="46.71370366666667" lon="11.189083666666665"><ele>501.0</ele><time>2026-05-01T07:36:09.351Z</time></trkpt><trkpt lat="46.71358798333334" lon="11.189030533333334"><ele>501.0</ele><time>2026-05-01T07:36:10.388Z</time></trkpt><trkpt lat="46.71350471666666" lon="11.188932800000002"><ele>500.8</ele><time>2026-05-01T07:36:11.37Z</time></trkpt><trkpt lat="46.71345471666667" lon="11.18879766666667"><ele>500.6</ele><time>2026-05-01T07:36:12.372Z</time></trkpt><trkpt lat="46.71342128333334" lon="11.188653633333335"><ele>500.4</ele><time>2026-05-01T07:36:13.352Z</time></trkpt><trkpt lat="46.71338671666667" lon="11.188513266666666"><ele>500.2</ele><time>2026-05-01T07:36:14.37Z</time></trkpt><trkpt lat="46.71335113872019" lon="11.188365673307919"><ele>500.0</ele><time>2026-05-01T07:36:15.351Z</time></trkpt><trkpt lat="46.71326063496418" lon="11.18827834180361"><ele>500.0</ele><time>2026-05-01T07:36:16.35Z</time></trkpt><trkpt lat="46.7131546" lon="11.188288083333335"><ele>500.0</ele><time>2026-05-01T07:36:17.37Z</time></trkpt><trkpt lat="46.713057383333336" lon="11.188305383333335"><ele>500.0</ele><time>2026-05-01T07:36:18.375Z</time></trkpt><trkpt lat="46.71295501666667" lon="11.188326916666664"><ele>500.0</ele><time>2026-05-01T07:36:19.363Z</time></trkpt><trkpt lat="46.71284184999999" lon="11.1883359"><ele>500.0</ele><time>2026-05-01T07:36:20.373Z</time></trkpt><trkpt lat="46.71272343333334" lon="11.188327266666667"><ele>498.25</ele><time>2026-05-01T07:36:21.372Z</time></trkpt><trkpt lat="46.71260026666667" lon="11.188310366666666"><ele>496.5</ele><time>2026-05-01T07:36:22.355Z</time></trkpt><trkpt lat="46.712478116666674" lon="11.188291816666666"><ele>494.75</ele><time>2026-05-01T07:36:23.37Z</time></trkpt><trkpt lat="46.71235968333333" lon="11.188275449999999"><ele>493.0</ele><time>2026-05-01T07:36:24.349Z</time></trkpt><trkpt lat="46.712237633333345" lon="11.188254149999999"><ele>493.0</ele><time>2026-05-01T07:36:25.349Z</time></trkpt><trkpt lat="46.71211848333334" lon="11.188212183333334"><ele>493.0</ele><time>2026-05-01T07:36:26.37Z</time></trkpt><trkpt lat="46.71200626666667" lon="11.188136666666667"><ele>493.0</ele><time>2026-05-01T07:36:27.372Z</time></trkpt><trkpt lat="46.71190506666667" lon="11.188044683333331"><ele>493.0</ele><time>2026-05-01T07:36:28.351Z</time></trkpt><trkpt lat="46.71180293333334" lon="11.187950733333333"><ele>494.5</ele><time>2026-05-01T07:36:29.37Z</time></trkpt><trkpt lat="46.71169736666667" lon="11.187860733333332"><ele>496.0</ele><time>2026-05-01T07:36:30.351Z</time></trkpt><trkpt lat="46.71158363333334" lon="11.187775849999998"><ele>497.5</ele><time>2026-05-01T07:36:31.351Z</time></trkpt><trkpt lat="46.71146756916903" lon="11.187682189632943"><ele>499.0</ele><time>2026-05-01T07:36:32.372Z</time></trkpt><trkpt lat="46.71132698333332" lon="11.187652616666666"><ele>499.0</ele><time>2026-05-01T07:36:33.351Z</time></trkpt><trkpt lat="46.71118320000001" lon="11.18760553333333"><ele>499.0</ele><time>2026-05-01T07:36:34.351Z</time></trkpt><trkpt lat="46.71102798333333" lon="11.1875654"><ele>499.0</ele><time>2026-05-01T07:36:35.37Z</time></trkpt><trkpt lat="46.710868049999995" lon="11.187531733333332"><ele>497.33333333333337</ele><time>2026-05-01T07:36:36.372Z</time></trkpt><trkpt lat="46.71070858333333" lon="11.187495983333333"><ele>495.66666666666663</ele><time>2026-05-01T07:36:37.351Z</time></trkpt><trkpt lat="46.710554083333335" lon="11.187458350000002"><ele>494.0</ele><time>2026-05-01T07:36:38.372Z</time></trkpt><trkpt lat="46.71039891666666" lon="11.187428666666666"><ele>491.0</ele><time>2026-05-01T07:36:39.351Z</time></trkpt><trkpt lat="46.71023731693513" lon="11.18739978680193"><ele>488.0</ele><time>2026-05-01T07:36:40.351Z</time></trkpt><trkpt lat="46.71007715254538" lon="11.187438271552928"><ele>485.0</ele><time>2026-05-01T07:36:41.354Z</time></trkpt><trkpt lat="46.70992613333333" lon="11.187532316666667"><ele>485.0</ele><time>2026-05-01T07:36:42.395Z</time></trkpt><trkpt lat="46.709773600000005" lon="11.187597100000001"><ele>485.0</ele><time>2026-05-01T07:36:43.349Z</time></trkpt><trkpt lat="46.70962683333334" lon="11.187636516666664"><ele>485.0</ele><time>2026-05-01T07:36:44.352Z</time></trkpt><trkpt lat="46.709486399999996" lon="11.18764195"><ele>485.0</ele><time>2026-05-01T07:36:45.373Z</time></trkpt><trkpt lat="46.709355" lon="11.187616550000001"><ele>484.25</ele><time>2026-05-01T07:36:46.351Z</time></trkpt><trkpt lat="46.7092308" lon="11.187574316666668"><ele>483.5</ele><time>2026-05-01T07:36:47.361Z</time></trkpt><trkpt lat="46.70911124999999" lon="11.187535066666666"><ele>482.75</ele><time>2026-05-01T07:36:48.372Z</time></trkpt><trkpt lat="46.70899851666666" lon="11.1874974"><ele>482.0</ele><time>2026-05-01T07:36:49.351Z</time></trkpt><trkpt lat="46.708883866666675" lon="11.1874623"><ele>482.0</ele><time>2026-05-01T07:36:50.376Z</time></trkpt><trkpt lat="46.70876629999999" lon="11.187431866666667"><ele>482.0</ele><time>2026-05-01T07:36:51.375Z</time></trkpt><trkpt lat="46.70864830790094" lon="11.187375117872172"><ele>482.0</ele><time>2026-05-01T07:36:52.351Z</time></trkpt><trkpt lat="46.70852561621013" lon="11.18735118488006"><ele>482.0</ele><time>2026-05-01T07:36:53.372Z</time></trkpt><trkpt lat="46.708404900000005" lon="11.18737315"><ele>482.0</ele><time>2026-05-01T07:36:54.375Z</time></trkpt><trkpt lat="46.70828575" lon="11.1873752"><ele>482.00000000000006</ele><time>2026-05-01T07:36:55.366Z</time></trkpt><trkpt lat="46.70817535" lon="11.187352066666664"><ele>482.00000000000006</ele><time>2026-05-01T07:36:56.37Z</time></trkpt><trkpt lat="46.708084316666664" lon="11.187280833333334"><ele>482.0</ele><time>2026-05-01T07:36:57.374Z</time></trkpt><trkpt lat="46.70802415" lon="11.1871596"><ele>482.0</ele><time>2026-05-01T07:36:58.353Z</time></trkpt><trkpt lat="46.70800751666667" lon="11.187009750000001"><ele>482.0</ele><time>2026-05-01T07:36:59.372Z</time></trkpt><trkpt lat="46.708036783333334" lon="11.186857433333335"><ele>482.0</ele><time>2026-05-01T07:37:00.353Z</time></trkpt><trkpt lat="46.70809065" lon="11.186707966666667"><ele>482.0</ele><time>2026-05-01T07:37:01.351Z</time></trkpt><trkpt lat="46.70814798333335" lon="11.18655591666667"><ele>482.0</ele><time>2026-05-01T07:37:02.37Z</time></trkpt><trkpt lat="46.708201833333334" lon="11.1863913"><ele>482.5</ele><time>2026-05-01T07:37:03.372Z</time></trkpt><trkpt lat="46.708245266666665" lon="11.186213249999998"><ele>483.0</ele><time>2026-05-01T07:37:04.366Z</time></trkpt><trkpt lat="46.70828163333334" lon="11.1860348"><ele>483.5</ele><time>2026-05-01T07:37:05.37Z</time></trkpt><trkpt lat="46.708311566666666" lon="11.185866849999998"><ele>484.0</ele><time>2026-05-01T07:37:06.354Z</time></trkpt><trkpt lat="46.70833128333334" lon="11.1857066"><ele>485.5</ele><time>2026-05-01T07:37:07.351Z</time></trkpt><trkpt lat="46.70832563333333" lon="11.185547450000001"><ele>487.0</ele><time>2026-05-01T07:37:08.373Z</time></trkpt><trkpt lat="46.70828213333333" lon="11.185394916666667"><ele>488.5</ele><time>2026-05-01T07:37:09.351Z</time></trkpt><trkpt lat="46.7082012" lon="11.18527915"><ele>490.0</ele><time>2026-05-01T07:37:10.353Z</time></trkpt><trkpt lat="46.708091883333324" lon="11.185224883333333"><ele>490.0</ele><time>2026-05-01T07:37:11.37Z</time></trkpt><trkpt lat="46.70796901666666" lon="11.185236999999999"><ele>490.0</ele><time>2026-05-01T07:37:12.373Z</time></trkpt><trkpt lat="46.7078498" lon="11.185298133333333"><ele>490.0</ele><time>2026-05-01T07:37:13.351Z</time></trkpt><trkpt lat="46.70773681666667" lon="11.185382966666669"><ele>490.0</ele><time>2026-05-01T07:37:14.373Z</time></trkpt><trkpt lat="46.707624083333336" lon="11.185461566666666"><ele>490.25</ele><time>2026-05-01T07:37:15.373Z</time></trkpt><trkpt lat="46.707505383333334" lon="11.185534383333332"><ele>490.5</ele><time>2026-05-01T07:37:16.352Z</time></trkpt><trkpt lat="46.707381399999996" lon="11.185588983333332"><ele>490.75</ele><time>2026-05-01T07:37:17.37Z</time></trkpt><trkpt lat="46.707259650000005" lon="11.185581483333332"><ele>491.0</ele><time>2026-05-01T07:37:18.351Z</time></trkpt><trkpt lat="46.70714" lon="11.185533416666667"><ele>490.0</ele><time>2026-05-01T07:37:19.35Z</time></trkpt><trkpt lat="46.706894766666665" lon="11.185466533333333"><ele>489.0</ele><time>2026-05-01T07:37:21.351Z</time></trkpt><trkpt lat="46.70677176666667" lon="11.185452200000002"><ele>488.0</ele><time>2026-05-01T07:37:22.353Z</time></trkpt><trkpt lat="46.706650966666665" lon="11.185422216666666"><ele>488.0</ele><time>2026-05-01T07:37:23.374Z</time></trkpt><trkpt lat="46.70653753333333" lon="11.185357283333333"><ele>488.0</ele><time>2026-05-01T07:37:24.375Z</time></trkpt><trkpt lat="46.70643111666667" lon="11.18526885"><ele>488.0</ele><time>2026-05-01T07:37:25.352Z</time></trkpt><trkpt lat="46.706323033333334" lon="11.185168066666666"><ele>488.0</ele><time>2026-05-01T07:37:26.37Z</time></trkpt><trkpt lat="46.70621228333333" lon="11.185065566666665"><ele>488.0</ele><time>2026-05-01T07:37:27.351Z</time></trkpt><trkpt lat="46.70609925" lon="11.18495875"><ele>488.0</ele><time>2026-05-01T07:37:28.351Z</time></trkpt><trkpt lat="46.70598804173696" lon="11.18482238169001"><ele>488.0</ele><time>2026-05-01T07:37:29.373Z</time></trkpt><trkpt lat="46.705859410241274" lon="11.184714670502368"><ele>488.0</ele><time>2026-05-01T07:37:30.353Z</time></trkpt><trkpt lat="46.70572073747461" lon="11.184630864008932"><ele>487.75</ele><time>2026-05-01T07:37:31.351Z</time></trkpt><trkpt lat="46.70557876369361" lon="11.184565810177984"><ele>487.5</ele><time>2026-05-01T07:37:32.372Z</time></trkpt><trkpt lat="46.705435933333334" lon="11.184529083333333"><ele>487.25</ele><time>2026-05-01T07:37:33.375Z</time></trkpt><trkpt lat="46.705308191318764" lon="11.18443598764589"><ele>487.0</ele><time>2026-05-01T07:37:34.35Z</time></trkpt><trkpt lat="46.70517066666667" lon="11.184381499999999"><ele>487.0</ele><time>2026-05-01T07:37:35.372Z</time></trkpt><trkpt lat="46.70505760292438" lon="11.18426210643682"><ele>487.0</ele><time>2026-05-01T07:37:36.354Z</time></trkpt><trkpt lat="46.70493676666667" lon="11.18417435"><ele>487.0</ele><time>2026-05-01T07:37:37.351Z</time></trkpt><trkpt lat="46.70483596666666" lon="11.184061999999999"><ele>487.0</ele><time>2026-05-01T07:37:38.373Z</time></trkpt><trkpt lat="46.704745766666676" lon="11.183948833333332"><ele>489.5</ele><time>2026-05-01T07:37:39.357Z</time></trkpt><trkpt lat="46.704667050000005" lon="11.18382605"><ele>492.0</ele><time>2026-05-01T07:37:40.352Z</time></trkpt><trkpt lat="46.70460961683051" lon="11.183676831954624"><ele>494.5</ele><time>2026-05-01T07:37:41.37Z</time></trkpt><trkpt lat="46.70453451724227" lon="11.18355322870909"><ele>497.0</ele><time>2026-05-01T07:37:42.383Z</time></trkpt><trkpt lat="46.70445990951292" lon="11.183429055343725"><ele>496.8</ele><time>2026-05-01T07:37:43.351Z</time></trkpt><trkpt lat="46.70438585000605" lon="11.183302137103716"><ele>496.6</ele><time>2026-05-01T07:37:44.37Z</time></trkpt><trkpt lat="46.70431528833327" lon="11.183176203573613"><ele>496.40000000000003</ele><time>2026-05-01T07:37:45.372Z</time></trkpt><trkpt lat="46.70425182164793" lon="11.183047994938619"><ele>496.20000000000005</ele><time>2026-05-01T07:37:46.385Z</time></trkpt><trkpt lat="46.70419462140361" lon="11.182915164378871"><ele>496.0</ele><time>2026-05-01T07:37:47.37Z</time></trkpt><trkpt lat="46.70413308679793" lon="11.182774321007589"><ele>496.0</ele><time>2026-05-01T07:37:48.351Z</time></trkpt><trkpt lat="46.70406637036482" lon="11.182637622514283"><ele>496.0</ele><time>2026-05-01T07:37:49.354Z</time></trkpt><trkpt lat="46.703995406536684" lon="11.182502579079834"><ele>496.0</ele><time>2026-05-01T07:37:50.373Z</time></trkpt><trkpt lat="46.703923027722865" lon="11.182374148178836"><ele>496.0</ele><time>2026-05-01T07:37:51.361Z</time></trkpt><trkpt lat="46.70385499658078" lon="11.182254577660808"><ele>494.8</ele><time>2026-05-01T07:37:52.351Z</time></trkpt><trkpt lat="46.70378999961239" lon="11.182145361347127"><ele>493.6</ele><time>2026-05-01T07:37:53.37Z</time></trkpt><trkpt lat="46.703729790826685" lon="11.18204249557596"><ele>492.4</ele><time>2026-05-01T07:37:54.372Z</time></trkpt><trkpt lat="46.70367190411094" lon="11.181942148299273"><ele>491.2</ele><time>2026-05-01T07:37:55.36Z</time></trkpt><trkpt lat="46.703614659901476" lon="11.181839969373831"><ele>490.0</ele><time>2026-05-01T07:37:56.371Z</time></trkpt><trkpt lat="46.70356106500476" lon="11.181740131530283"><ele>490.0</ele><time>2026-05-01T07:37:57.372Z</time></trkpt><trkpt lat="46.7035146719475" lon="11.181628998216715"><ele>490.0</ele><time>2026-05-01T07:37:58.367Z</time></trkpt><trkpt lat="46.703457766666666" lon="11.181516866666668"><ele>490.0</ele><time>2026-05-01T07:37:59.371Z</time></trkpt><trkpt lat="46.70341903333333" lon="11.1813869"><ele>490.0</ele><time>2026-05-01T07:38:00.352Z</time></trkpt><trkpt lat="46.7033776" lon="11.1812563"><ele>490.0</ele><time>2026-05-01T07:38:01.351Z</time></trkpt><trkpt lat="46.70333518333334" lon="11.181124366666666"><ele>492.2</ele><time>2026-05-01T07:38:02.37Z</time></trkpt><trkpt lat="46.70328391666667" lon="11.181001933333334"><ele>494.4</ele><time>2026-05-01T07:38:03.372Z</time></trkpt><trkpt lat="46.703215349999994" lon="11.180902166666666"><ele>496.6</ele><time>2026-05-01T07:38:04.351Z</time></trkpt><trkpt lat="46.70313151666666" lon="11.180828466666666"><ele>498.8</ele><time>2026-05-01T07:38:05.403Z</time></trkpt><trkpt lat="46.703038766666666" lon="11.180778400000001"><ele>501.0</ele><time>2026-05-01T07:38:06.36Z</time></trkpt><trkpt lat="46.70294333333333" lon="11.180736016666666"><ele>501.0</ele><time>2026-05-01T07:38:07.405Z</time></trkpt><trkpt lat="46.70284663333334" lon="11.180707633333336"><ele>501.0</ele><time>2026-05-01T07:38:08.361Z</time></trkpt><trkpt lat="46.70274988333334" lon="11.180699633333331"><ele>501.0</ele><time>2026-05-01T07:38:09.381Z</time></trkpt><trkpt lat="46.70265306666666" lon="11.180701133333333"><ele>501.0</ele><time>2026-05-01T07:38:10.405Z</time></trkpt><trkpt lat="46.7025618" lon="11.180702133333334"><ele>501.0</ele><time>2026-05-01T07:38:11.354Z</time></trkpt><trkpt lat="46.70247510000001" lon="11.180704966666667"><ele>500.3333333333333</ele><time>2026-05-01T07:38:12.364Z</time></trkpt><trkpt lat="46.70239406666667" lon="11.180706200000003"><ele>499.66666666666663</ele><time>2026-05-01T07:38:13.352Z</time></trkpt><trkpt lat="46.702311983333324" lon="11.180700116666667"><ele>499.0</ele><time>2026-05-01T07:38:14.395Z</time></trkpt><trkpt lat="46.7022281" lon="11.180688816666667"><ele>498.3333333333333</ele><time>2026-05-01T07:38:15.367Z</time></trkpt><trkpt lat="46.7021494" lon="11.1806613"><ele>497.66666666666663</ele><time>2026-05-01T07:38:16.366Z</time></trkpt><trkpt lat="46.70207461666667" lon="11.180623066666666"><ele>497.0</ele><time>2026-05-01T07:38:17.356Z</time></trkpt><trkpt lat="46.70200383333334" lon="11.180582516666666"><ele>498.49999999999994</ele><time>2026-05-01T07:38:18.368Z</time></trkpt><trkpt lat="46.701932333333325" lon="11.180541283333332"><ele>500.0</ele><time>2026-05-01T07:38:19.367Z</time></trkpt><trkpt lat="46.701859150000004" lon="11.180500516666667"><ele>501.5</ele><time>2026-05-01T07:38:20.372Z</time></trkpt><trkpt lat="46.70179005704002" lon="11.180433993469084"><ele>503.0</ele><time>2026-05-01T07:38:21.365Z</time></trkpt><trkpt lat="46.70171736899418" lon="11.180383198141753"><ele>504.49999999999994</ele><time>2026-05-01T07:38:22.354Z</time></trkpt><trkpt lat="46.70164444337443" lon="11.18033072956689"><ele>506.0</ele><time>2026-05-01T07:38:23.352Z</time></trkpt><trkpt lat="46.70156493333334" lon="11.180295049999998"><ele>506.0</ele><time>2026-05-01T07:38:24.365Z</time></trkpt><trkpt lat="46.701499394193014" lon="11.18021222395335"><ele>506.0</ele><time>2026-05-01T07:38:25.365Z</time></trkpt><trkpt lat="46.701424613851536" lon="11.1801435003128"><ele>506.0</ele><time>2026-05-01T07:38:26.352Z</time></trkpt><trkpt lat="46.70134386666667" lon="11.180076083333331"><ele>506.0</ele><time>2026-05-01T07:38:27.368Z</time></trkpt><trkpt lat="46.70129017812203" lon="11.179953714810932"><ele>506.0</ele><time>2026-05-01T07:38:28.366Z</time></trkpt><trkpt lat="46.70123132071675" lon="11.17983446620832"><ele>506.4</ele><time>2026-05-01T07:38:29.372Z</time></trkpt><trkpt lat="46.70116977409493" lon="11.179711674777723"><ele>506.8</ele><time>2026-05-01T07:38:30.363Z</time></trkpt><trkpt lat="46.70108640102499" lon="11.179609142506088"><ele>507.19999999999993</ele><time>2026-05-01T07:38:31.365Z</time></trkpt><trkpt lat="46.70099977252398" lon="11.179539814789516"><ele>507.59999999999997</ele><time>2026-05-01T07:38:32.373Z</time></trkpt><trkpt lat="46.70091488378903" lon="11.17948797505628"><ele>508.0</ele><time>2026-05-01T07:38:33.364Z</time></trkpt><trkpt lat="46.70083615406604" lon="11.179440571063205"><ele>508.00000000000006</ele><time>2026-05-01T07:38:34.366Z</time></trkpt><trkpt lat="46.7007573" lon="11.179414866666667"><ele>508.0</ele><time>2026-05-01T07:38:35.371Z</time></trkpt><trkpt lat="46.70068856666666" lon="11.179369866666665"><ele>508.0</ele><time>2026-05-01T07:38:36.351Z</time></trkpt><trkpt lat="46.70062036666667" lon="11.1793273"><ele>508.0</ele><time>2026-05-01T07:38:37.367Z</time></trkpt><trkpt lat="46.70055373333333" lon="11.179282933333331"><ele>508.00000000000006</ele><time>2026-05-01T07:38:38.365Z</time></trkpt><trkpt lat="46.70049133333334" lon="11.179228233333335"><ele>508.0</ele><time>2026-05-01T07:38:39.366Z</time></trkpt><trkpt lat="46.70042515" lon="11.179172300000001"><ele>508.00000000000006</ele><time>2026-05-01T07:38:40.351Z</time></trkpt><trkpt lat="46.700353516666674" lon="11.179120900000003"><ele>508.0</ele><time>2026-05-01T07:38:41.356Z</time></trkpt><trkpt lat="46.70028338333333" lon="11.17906395"><ele>508.0</ele><time>2026-05-01T07:38:42.351Z</time></trkpt><trkpt lat="46.70020581666666" lon="11.179010249999997"><ele>508.0</ele><time>2026-05-01T07:38:43.374Z</time></trkpt><trkpt lat="46.700123983333334" lon="11.178949033333334"><ele>508.00000000000006</ele><time>2026-05-01T07:38:44.37Z</time></trkpt><trkpt lat="46.700042950000004" lon="11.17887945"><ele>508.0</ele><time>2026-05-01T07:38:45.368Z</time></trkpt><trkpt lat="46.699958200000005" lon="11.178810716666664"><ele>507.2</ele><time>2026-05-01T07:38:46.366Z</time></trkpt><trkpt lat="46.69987076666666" lon="11.178741733333334"><ele>506.4</ele><time>2026-05-01T07:38:47.366Z</time></trkpt><trkpt lat="46.69977923333333" lon="11.178670516666667"><ele>505.59999999999997</ele><time>2026-05-01T07:38:48.365Z</time></trkpt><trkpt lat="46.699687666666655" lon="11.178598483333333"><ele>504.79999999999995</ele><time>2026-05-01T07:38:49.367Z</time></trkpt><trkpt lat="46.69959878333334" lon="11.178520433333333"><ele>504.0</ele><time>2026-05-01T07:38:50.373Z</time></trkpt><trkpt lat="46.699512350000006" lon="11.178434316666669"><ele>504.0</ele><time>2026-05-01T07:38:51.365Z</time></trkpt><trkpt lat="46.69943178333333" lon="11.178347533333332"><ele>504.0</ele><time>2026-05-01T07:38:52.37Z</time></trkpt><trkpt lat="46.69934915" lon="11.178268466666669"><ele>504.0</ele><time>2026-05-01T07:38:53.354Z</time></trkpt><trkpt lat="46.69926643333333" lon="11.178194666666665"><ele>504.0</ele><time>2026-05-01T07:38:54.365Z</time></trkpt><trkpt lat="46.69918343333333" lon="11.178111550000002"><ele>504.0</ele><time>2026-05-01T07:38:55.364Z</time></trkpt><trkpt lat="46.699096633333326" lon="11.178023450000001"><ele>503.5</ele><time>2026-05-01T07:38:56.37Z</time></trkpt><trkpt lat="46.699019314703214" lon="11.17790480851838"><ele>503.0</ele><time>2026-05-01T07:38:57.366Z</time></trkpt><trkpt lat="46.69891899999999" lon="11.177825433333332"><ele>502.5</ele><time>2026-05-01T07:38:58.351Z</time></trkpt><trkpt lat="46.69882806666666" lon="11.177717299999998"><ele>502.0</ele><time>2026-05-01T07:38:59.376Z</time></trkpt><trkpt lat="46.69873788333333" lon="11.177606633333335"><ele>502.0</ele><time>2026-05-01T07:39:00.364Z</time></trkpt><trkpt lat="46.69864214999999" lon="11.177500983333335"><ele>502.0</ele><time>2026-05-01T07:39:01.366Z</time></trkpt><trkpt lat="46.698539266666664" lon="11.17740685"><ele>502.0</ele><time>2026-05-01T07:39:02.37Z</time></trkpt><trkpt lat="46.69843343333334" lon="11.177319533333332"><ele>502.0</ele><time>2026-05-01T07:39:03.365Z</time></trkpt><trkpt lat="46.698324649999996" lon="11.177228200000002"><ele>500.75</ele><time>2026-05-01T07:39:04.37Z</time></trkpt><trkpt lat="46.69822716666666" lon="11.177116916666668"><ele>499.5</ele><time>2026-05-01T07:39:05.37Z</time></trkpt><trkpt lat="46.698147500000005" lon="11.176979683333332"><ele>498.25</ele><time>2026-05-01T07:39:06.364Z</time></trkpt><trkpt lat="46.698073883333336" lon="11.176840583333334"><ele>497.0</ele><time>2026-05-01T07:39:07.35Z</time></trkpt><trkpt lat="46.697991566666666" lon="11.17671635"><ele>497.0</ele><time>2026-05-01T07:39:08.371Z</time></trkpt><trkpt lat="46.69789873333334" lon="11.176618450000001"><ele>497.0</ele><time>2026-05-01T07:39:09.366Z</time></trkpt><trkpt lat="46.69779069999999" lon="11.176559116666665"><ele>497.0</ele><time>2026-05-01T07:39:10.366Z</time></trkpt><trkpt lat="46.69767876666666" lon="11.176521966666666"><ele>497.0</ele><time>2026-05-01T07:39:11.354Z</time></trkpt><trkpt lat="46.6975733" lon="11.17649695"><ele>497.8</ele><time>2026-05-01T07:39:12.373Z</time></trkpt><trkpt lat="46.69747455" lon="11.1764757"><ele>498.6</ele><time>2026-05-01T07:39:13.356Z</time></trkpt><trkpt lat="46.697380300000006" lon="11.1764605"><ele>499.40000000000003</ele><time>2026-05-01T07:39:14.371Z</time></trkpt><trkpt lat="46.697286733333335" lon="11.1764483"><ele>500.20000000000005</ele><time>2026-05-01T07:39:15.364Z</time></trkpt><trkpt lat="46.69719183333333" lon="11.176433483333335"><ele>501.0</ele><time>2026-05-01T07:39:16.365Z</time></trkpt><trkpt lat="46.69709591433518" lon="11.176389380850992"><ele>501.0</ele><time>2026-05-01T07:39:17.362Z</time></trkpt><trkpt lat="46.696990549999995" lon="11.176390466666666"><ele>501.0</ele><time>2026-05-01T07:39:18.364Z</time></trkpt><trkpt lat="46.69688665000001" lon="11.176369733333335"><ele>501.0</ele><time>2026-05-01T07:39:19.368Z</time></trkpt><trkpt lat="46.696783599999996" lon="11.176347083333333"><ele>501.0</ele><time>2026-05-01T07:39:20.372Z</time></trkpt><trkpt lat="46.6966835" lon="11.176323966666665"><ele>501.0</ele><time>2026-05-01T07:39:21.373Z</time></trkpt><trkpt lat="46.6965844" lon="11.176297316666668"><ele>499.4</ele><time>2026-05-01T07:39:22.389Z</time></trkpt><trkpt lat="46.69649191666668" lon="11.176267933333335"><ele>497.8</ele><time>2026-05-01T07:39:23.372Z</time></trkpt><trkpt lat="46.69640243333333" lon="11.176222966666666"><ele>496.19999999999993</ele><time>2026-05-01T07:39:24.364Z</time></trkpt><trkpt lat="46.69631395" lon="11.176161216666666"><ele>494.59999999999997</ele><time>2026-05-01T07:39:25.367Z</time></trkpt><trkpt lat="46.69622961666667" lon="11.176079216666668"><ele>493.0</ele><time>2026-05-01T07:39:26.364Z</time></trkpt><trkpt lat="46.69615363333334" lon="11.1759769"><ele>492.2</ele><time>2026-05-01T07:39:27.351Z</time></trkpt><trkpt lat="46.69608545" lon="11.175861883333333"><ele>491.4</ele><time>2026-05-01T07:39:28.365Z</time></trkpt><trkpt lat="46.69602539999999" lon="11.175739683333333"><ele>490.59999999999997</ele><time>2026-05-01T07:39:29.371Z</time></trkpt><trkpt lat="46.69596701666666" lon="11.175618233333335"><ele>489.79999999999995</ele><time>2026-05-01T07:39:30.363Z</time></trkpt><trkpt lat="46.695923925010106" lon="11.175482125798386"><ele>489.0</ele><time>2026-05-01T07:39:31.361Z</time></trkpt><trkpt lat="46.695854999999995" lon="11.175370549999998"><ele>489.0</ele><time>2026-05-01T07:39:32.353Z</time></trkpt><trkpt lat="46.69581830886893" lon="11.17523085456037"><ele>489.0</ele><time>2026-05-01T07:39:33.365Z</time></trkpt><trkpt lat="46.695763850000006" lon="11.17510616666667"><ele>489.0</ele><time>2026-05-01T07:39:34.37Z</time></trkpt><trkpt lat="46.695732666666665" lon="11.174961383333335"><ele>489.0</ele><time>2026-05-01T07:39:35.356Z</time></trkpt><trkpt lat="46.69570545" lon="11.1748136"><ele>489.0</ele><time>2026-05-01T07:39:36.351Z</time></trkpt><trkpt lat="46.69567526666667" lon="11.174669633333334"><ele>490.2</ele><time>2026-05-01T07:39:37.37Z</time></trkpt><trkpt lat="46.695636866666675" lon="11.174524666666665"><ele>491.4</ele><time>2026-05-01T07:39:38.354Z</time></trkpt><trkpt lat="46.69559528333332" lon="11.174381850000001"><ele>492.6</ele><time>2026-05-01T07:39:39.373Z</time></trkpt><trkpt lat="46.695547133333335" lon="11.174246400000001"><ele>493.8</ele><time>2026-05-01T07:39:40.351Z</time></trkpt><trkpt lat="46.69549223333333" lon="11.174111666666665"><ele>495.0</ele><time>2026-05-01T07:39:41.37Z</time></trkpt><trkpt lat="46.695434899999995" lon="11.17397618333333"><ele>496.0</ele><time>2026-05-01T07:39:42.373Z</time></trkpt><trkpt lat="46.69537664999999" lon="11.1738412"><ele>497.0</ele><time>2026-05-01T07:39:43.366Z</time></trkpt><trkpt lat="46.69531811666668" lon="11.173706683333334"><ele>498.0</ele><time>2026-05-01T07:39:44.354Z</time></trkpt><trkpt lat="46.695258716666665" lon="11.173573150000001"><ele>499.0</ele><time>2026-05-01T07:39:45.368Z</time></trkpt><trkpt lat="46.69520133333334" lon="11.173448983333332"><ele>500.0</ele><time>2026-05-01T07:39:46.366Z</time></trkpt><trkpt lat="46.69514778333334" lon="11.173333266666669"><ele>496.2</ele><time>2026-05-01T07:39:47.37Z</time></trkpt><trkpt lat="46.695110597561694" lon="11.173207917544905"><ele>492.4</ele><time>2026-05-01T07:39:48.365Z</time></trkpt><trkpt lat="46.695055933333336" lon="11.173105950000002"><ele>488.6</ele><time>2026-05-01T07:39:49.354Z</time></trkpt><trkpt lat="46.69503555" lon="11.172975233333334"><ele>484.8</ele><time>2026-05-01T07:39:50.382Z</time></trkpt><trkpt lat="46.695043366666674" lon="11.172839883333333"><ele>481.0</ele><time>2026-05-01T07:39:51.365Z</time></trkpt><trkpt lat="46.69507404999999" lon="11.172703883333334"><ele>479.6</ele><time>2026-05-01T07:39:52.369Z</time></trkpt><trkpt lat="46.69511081666666" lon="11.172572533333334"><ele>478.20000000000005</ele><time>2026-05-01T07:39:53.356Z</time></trkpt><trkpt lat="46.69515029999999" lon="11.17245141666667"><ele>476.79999999999995</ele><time>2026-05-01T07:39:54.395Z</time></trkpt><trkpt lat="46.69520331666666" lon="11.172350966666666"><ele>475.4</ele><time>2026-05-01T07:39:55.367Z</time></trkpt><trkpt lat="46.69527141666667" lon="11.172274433333332"><ele>474.0</ele><time>2026-05-01T07:39:56.37Z</time></trkpt><trkpt lat="46.69533673333334" lon="11.172187166666667"><ele>480.4</ele><time>2026-05-01T07:39:57.365Z</time></trkpt><trkpt lat="46.69537626666667" lon="11.17206555"><ele>486.79999999999995</ele><time>2026-05-01T07:39:58.35Z</time></trkpt><trkpt lat="46.695390883333324" lon="11.17191356666667"><ele>493.20000000000005</ele><time>2026-05-01T07:39:59.36Z</time></trkpt><trkpt lat="46.695391" lon="11.171743033333332"><ele>499.6</ele><time>2026-05-01T07:40:00.365Z</time></trkpt><trkpt lat="46.69537796666667" lon="11.17156615"><ele>506.0</ele><time>2026-05-01T07:40:01.37Z</time></trkpt><trkpt lat="46.695339266666664" lon="11.171380716666665"><ele>508.0</ele><time>2026-05-01T07:40:02.371Z</time></trkpt><trkpt lat="46.69528343333333" lon="11.171202916666667"><ele>510.0</ele><time>2026-05-01T07:40:03.367Z</time></trkpt><trkpt lat="46.69523661666667" lon="11.171030516666667"><ele>512.0</ele><time>2026-05-01T07:40:04.366Z</time></trkpt><trkpt lat="46.69522046666666" lon="11.170865900000003"><ele>514.0</ele><time>2026-05-01T07:40:05.369Z</time></trkpt><trkpt lat="46.69523553333333" lon="11.170709183333335"><ele>511.25</ele><time>2026-05-01T07:40:06.366Z</time></trkpt><trkpt lat="46.69526388333333" lon="11.170559066666664"><ele>508.5</ele><time>2026-05-01T07:40:07.37Z</time></trkpt><trkpt lat="46.69529193333333" lon="11.170410416666668"><ele>505.75</ele><time>2026-05-01T07:40:08.371Z</time></trkpt><trkpt lat="46.695318316666665" lon="11.170255866666666"><ele>503.0</ele><time>2026-05-01T07:40:09.367Z</time></trkpt><trkpt lat="46.6953868" lon="11.169944983333334"><ele>498.0</ele><time>2026-05-01T07:40:11.37Z</time></trkpt><trkpt lat="46.69545141666668" lon="11.169807266666664"><ele>492.99999999999994</ele><time>2026-05-01T07:40:12.353Z</time></trkpt><trkpt lat="46.69553733333334" lon="11.169704733333333"><ele>487.99999999999994</ele><time>2026-05-01T07:40:13.367Z</time></trkpt><trkpt lat="46.69562388333333" lon="11.169614283333331"><ele>483.0</ele><time>2026-05-01T07:40:14.369Z</time></trkpt><trkpt lat="46.69568703333333" lon="11.169498466666669"><ele>478.0</ele><time>2026-05-01T07:40:15.365Z</time></trkpt><trkpt lat="46.6957209" lon="11.169354833333333"><ele>478.0</ele><time>2026-05-01T07:40:16.371Z</time></trkpt><trkpt lat="46.69571595000001" lon="11.169197650000001"><ele>478.0</ele><time>2026-05-01T07:40:17.357Z</time></trkpt><trkpt lat="46.69567693333333" lon="11.169047183333332"><ele>478.0</ele><time>2026-05-01T07:40:18.365Z</time></trkpt><trkpt lat="46.695612399999995" lon="11.168902083333334"><ele>478.0</ele><time>2026-05-01T07:40:19.369Z</time></trkpt><trkpt lat="46.69553098333334" lon="11.168772366666667"><ele>478.0</ele><time>2026-05-01T07:40:20.371Z</time></trkpt><trkpt lat="46.69544775008421" lon="11.168638665074925"><ele>478.0</ele><time>2026-05-01T07:40:21.366Z</time></trkpt><trkpt lat="46.69533432258797" lon="11.168547782967691"><ele>478.0</ele><time>2026-05-01T07:40:22.396Z</time></trkpt><trkpt lat="46.69520625744903" lon="11.168485206742767"><ele>478.0</ele><time>2026-05-01T07:40:23.37Z</time></trkpt><trkpt lat="46.69507871055918" lon="11.168458852256428"><ele>478.0</ele><time>2026-05-01T07:40:24.365Z</time></trkpt><trkpt lat="46.69495457868165" lon="11.16846208609727"><ele>478.0</ele><time>2026-05-01T07:40:25.367Z</time></trkpt><trkpt lat="46.69483590997351" lon="11.168494741033859"><ele>478.0</ele><time>2026-05-01T07:40:26.387Z</time></trkpt><trkpt lat="46.6947356" lon="11.168565466666665"><ele>478.0</ele><time>2026-05-01T07:40:27.365Z</time></trkpt><trkpt lat="46.694638000000005" lon="11.168626383333333"><ele>478.0</ele><time>2026-05-01T07:40:28.35Z</time></trkpt><trkpt lat="46.69454285" lon="11.168706133333334"><ele>477.99999999999994</ele><time>2026-05-01T07:40:29.372Z</time></trkpt><trkpt lat="46.694446783333326" lon="11.168797199999998"><ele>477.99999999999994</ele><time>2026-05-01T07:40:30.365Z</time></trkpt><trkpt lat="46.694355466666664" lon="11.168895733333333"><ele>478.0</ele><time>2026-05-01T07:40:31.352Z</time></trkpt><trkpt lat="46.69426706666667" lon="11.1689949"><ele>478.0</ele><time>2026-05-01T07:40:32.374Z</time></trkpt><trkpt lat="46.6941801" lon="11.169093833333335"><ele>477.2</ele><time>2026-05-01T07:40:33.367Z</time></trkpt><trkpt lat="46.694097" lon="11.16919675"><ele>476.4</ele><time>2026-05-01T07:40:34.367Z</time></trkpt><trkpt lat="46.69401334999999" lon="11.1693005"><ele>475.59999999999997</ele><time>2026-05-01T07:40:35.377Z</time></trkpt><trkpt lat="46.693938683333336" lon="11.169414483333332"><ele>474.79999999999995</ele><time>2026-05-01T07:40:36.364Z</time></trkpt><trkpt lat="46.69387369999999" lon="11.169538783333333"><ele>474.0</ele><time>2026-05-01T07:40:37.367Z</time></trkpt><trkpt lat="46.69382221666667" lon="11.169672116666668"><ele>474.0</ele><time>2026-05-01T07:40:38.372Z</time></trkpt><trkpt lat="46.69378583333334" lon="11.169817266666668"><ele>474.0</ele><time>2026-05-01T07:40:39.367Z</time></trkpt><trkpt lat="46.69376605000001" lon="11.169967966666665"><ele>474.0</ele><time>2026-05-01T07:40:40.352Z</time></trkpt><trkpt lat="46.693737929306025" lon="11.170117772020824"><ele>474.0</ele><time>2026-05-01T07:40:41.372Z</time></trkpt><trkpt lat="46.69373083494954" lon="11.170265975663199"><ele>474.0</ele><time>2026-05-01T07:40:42.365Z</time></trkpt><trkpt lat="46.69374488333333" lon="11.170401966666669"><ele>471.8571428571428</ele><time>2026-05-01T07:40:43.352Z</time></trkpt><trkpt lat="46.69374198333333" lon="11.170522616666664"><ele>469.71428571428567</ele><time>2026-05-01T07:40:44.372Z</time></trkpt><trkpt lat="46.69373836666667" lon="11.1706309"><ele>467.57142857142856</ele><time>2026-05-01T07:40:45.373Z</time></trkpt><trkpt lat="46.693735399999994" lon="11.170728433333334"><ele>465.4285714285714</ele><time>2026-05-01T07:40:46.366Z</time></trkpt><trkpt lat="46.693731883333335" lon="11.170823600000002"><ele>463.2857142857142</ele><time>2026-05-01T07:40:47.354Z</time></trkpt><trkpt lat="46.693726649999995" lon="11.170916216666669"><ele>461.14285714285717</ele><time>2026-05-01T07:40:48.374Z</time></trkpt><trkpt lat="46.693707499999995" lon="11.171005766666669"><ele>459.0</ele><time>2026-05-01T07:40:49.374Z</time></trkpt><trkpt lat="46.69366478333333" lon="11.17108445"><ele>458.6</ele><time>2026-05-01T07:40:50.37Z</time></trkpt><trkpt lat="46.69359863333334" lon="11.171138733333331"><ele>458.2</ele><time>2026-05-01T07:40:51.366Z</time></trkpt><trkpt lat="46.69351776666667" lon="11.171168983333333"><ele>457.80000000000007</ele><time>2026-05-01T07:40:52.365Z</time></trkpt><trkpt lat="46.69342873562349" lon="11.171146362788955"><ele>457.40000000000003</ele><time>2026-05-01T07:40:53.363Z</time></trkpt><trkpt lat="46.69332906284087" lon="11.171143063347055"><ele>457.0</ele><time>2026-05-01T07:40:54.35Z</time></trkpt><trkpt lat="46.69322456666667" lon="11.171149400000001"><ele>463.5</ele><time>2026-05-01T07:40:55.367Z</time></trkpt><trkpt lat="46.69311811666667" lon="11.171099683333333"><ele>470.0</ele><time>2026-05-01T07:40:56.37Z</time></trkpt><trkpt lat="46.693011283333334" lon="11.171028766666666"><ele>476.5</ele><time>2026-05-01T07:40:57.364Z</time></trkpt><trkpt lat="46.69290023333333" lon="11.170956616666668"><ele>483.0</ele><time>2026-05-01T07:40:58.384Z</time></trkpt><trkpt lat="46.69277976666667" lon="11.170911149999998"><ele>481.75</ele><time>2026-05-01T07:40:59.372Z</time></trkpt><trkpt lat="46.69265331666667" lon="11.170904616666666"><ele>480.5</ele><time>2026-05-01T07:41:00.365Z</time></trkpt><trkpt lat="46.69253021666667" lon="11.170928299999998"><ele>479.25</ele><time>2026-05-01T07:41:01.367Z</time></trkpt><trkpt lat="46.69241158333333" lon="11.170969866666667"><ele>478.0</ele><time>2026-05-01T07:41:02.363Z</time></trkpt><trkpt lat="46.69229798333334" lon="11.17103435"><ele>478.0</ele><time>2026-05-01T07:41:03.363Z</time></trkpt><trkpt lat="46.692190125723414" lon="11.17109323556421"><ele>477.99999999999994</ele><time>2026-05-01T07:41:04.366Z</time></trkpt><trkpt lat="46.69209635313824" lon="11.171151340179549"><ele>477.99999999999994</ele><time>2026-05-01T07:41:05.37Z</time></trkpt><trkpt lat="46.692001271444965" lon="11.171178837659475"><ele>478.0</ele><time>2026-05-01T07:41:06.364Z</time></trkpt><trkpt lat="46.69190511369958" lon="11.171189188935664"><ele>478.0</ele><time>2026-05-01T07:41:07.366Z</time></trkpt><trkpt lat="46.69181100000001" lon="11.171192415685889"><ele>475.59999999999997</ele><time>2026-05-01T07:41:08.37Z</time></trkpt><trkpt lat="46.69172409348569" lon="11.17117786651478"><ele>473.19999999999993</ele><time>2026-05-01T07:41:09.367Z</time></trkpt><trkpt lat="46.69163473333333" lon="11.171146466666668"><ele>470.8</ele><time>2026-05-01T07:41:10.37Z</time></trkpt><trkpt lat="46.69157638244621" lon="11.171035527327637"><ele>468.4</ele><time>2026-05-01T07:41:11.355Z</time></trkpt><trkpt lat="46.691524221829695" lon="11.1709150044761"><ele>466.0</ele><time>2026-05-01T07:41:12.365Z</time></trkpt><trkpt lat="46.69147979035497" lon="11.170775094071734"><ele>468.25</ele><time>2026-05-01T07:41:13.367Z</time></trkpt><trkpt lat="46.69143381417717" lon="11.170627270525424"><ele>470.5</ele><time>2026-05-01T07:41:14.37Z</time></trkpt><trkpt lat="46.69136442068032" lon="11.170479280485527"><ele>472.75</ele><time>2026-05-01T07:41:15.367Z</time></trkpt><trkpt lat="46.691263426517025" lon="11.170373669239579"><ele>475.0</ele><time>2026-05-01T07:41:16.352Z</time></trkpt><trkpt lat="46.69114339690665" lon="11.170325044119657"><ele>472.5</ele><time>2026-05-01T07:41:17.37Z</time></trkpt><trkpt lat="46.691013854420675" lon="11.170309630979789"><ele>470.0</ele><time>2026-05-01T07:41:18.366Z</time></trkpt><trkpt lat="46.69088727122388" lon="11.170294735888703"><ele>467.5</ele><time>2026-05-01T07:41:19.369Z</time></trkpt><trkpt lat="46.690769084757115" lon="11.170280578775307"><ele>465.0</ele><time>2026-05-01T07:41:20.352Z</time></trkpt><trkpt lat="46.69065540413859" lon="11.17026935403788"><ele>465.0</ele><time>2026-05-01T07:41:21.367Z</time></trkpt><trkpt lat="46.69054486637098" lon="11.170261891727362"><ele>465.0</ele><time>2026-05-01T07:41:22.366Z</time></trkpt><trkpt lat="46.690440463685114" lon="11.170284438367917"><ele>465.0</ele><time>2026-05-01T07:41:23.37Z</time></trkpt><trkpt lat="46.690358100000005" lon="11.170364333333335"><ele>465.0</ele><time>2026-05-01T07:41:24.368Z</time></trkpt><trkpt lat="46.69028296666667" lon="11.170442416666667"><ele>465.0</ele><time>2026-05-01T07:41:25.349Z</time></trkpt><trkpt lat="46.69021481666667" lon="11.170520883333332"><ele>464.4</ele><time>2026-05-01T07:41:26.396Z</time></trkpt><trkpt lat="46.690146883333334" lon="11.170595949999997"><ele>463.8</ele><time>2026-05-01T07:41:27.366Z</time></trkpt><trkpt lat="46.69007221666668" lon="11.170667583333334"><ele>463.20000000000005</ele><time>2026-05-01T07:41:28.367Z</time></trkpt><trkpt lat="46.68998608333333" lon="11.170725249999998"><ele>462.6</ele><time>2026-05-01T07:41:29.356Z</time></trkpt><trkpt lat="46.68989024999999" lon="11.170757700000001"><ele>462.0</ele><time>2026-05-01T07:41:30.365Z</time></trkpt><trkpt lat="46.68978673333333" lon="11.170746116666665"><ele>462.0</ele><time>2026-05-01T07:41:31.369Z</time></trkpt><trkpt lat="46.68967721666666" lon="11.170703800000002"><ele>462.0</ele><time>2026-05-01T07:41:32.369Z</time></trkpt><trkpt lat="46.68956381666666" lon="11.170647766666665"><ele>462.0</ele><time>2026-05-01T07:41:33.364Z</time></trkpt><trkpt lat="46.68945038333333" lon="11.170590066666668"><ele>462.0</ele><time>2026-05-01T07:41:34.353Z</time></trkpt><trkpt lat="46.68933141666667" lon="11.170524816666667"><ele>459.25</ele><time>2026-05-01T07:41:35.351Z</time></trkpt><trkpt lat="46.689212033333334" lon="11.170461733333331"><ele>456.5</ele><time>2026-05-01T07:41:36.366Z</time></trkpt><trkpt lat="46.68909525" lon="11.170405366666667"><ele>453.75</ele><time>2026-05-01T07:41:37.365Z</time></trkpt><trkpt lat="46.68897903333333" lon="11.170354816666666"><ele>451.0</ele><time>2026-05-01T07:41:38.373Z</time></trkpt><trkpt lat="46.68886586666666" lon="11.170312416666665"><ele>451.0</ele><time>2026-05-01T07:41:39.367Z</time></trkpt><trkpt lat="46.688759533333325" lon="11.170278499999998"><ele>451.0</ele><time>2026-05-01T07:41:40.368Z</time></trkpt><trkpt lat="46.688660153187854" lon="11.170219190109592"><ele>451.0</ele><time>2026-05-01T07:41:41.371Z</time></trkpt><trkpt lat="46.68855741666666" lon="11.170203250000002"><ele>451.0</ele><time>2026-05-01T07:41:42.367Z</time></trkpt><trkpt lat="46.68846883333334" lon="11.170142733333334"><ele>451.0</ele><time>2026-05-01T07:41:43.369Z</time></trkpt><trkpt lat="46.68839006666667" lon="11.170060799999998"><ele>449.4</ele><time>2026-05-01T07:41:44.354Z</time></trkpt><trkpt lat="46.688315550000006" lon="11.169953533333334"><ele>447.8</ele><time>2026-05-01T07:41:45.365Z</time></trkpt><trkpt lat="46.6882423" lon="11.169834"><ele>446.19999999999993</ele><time>2026-05-01T07:41:46.365Z</time></trkpt><trkpt lat="46.6881707" lon="11.1697163"><ele>444.59999999999997</ele><time>2026-05-01T07:41:47.37Z</time></trkpt><trkpt lat="46.68810006666666" lon="11.169615783333333"><ele>443.0</ele><time>2026-05-01T07:41:48.351Z</time></trkpt><trkpt lat="46.68802583333333" lon="11.169533866666665"><ele>443.0</ele><time>2026-05-01T07:41:49.369Z</time></trkpt><trkpt lat="46.687944966666656" lon="11.169472399999998"><ele>442.99999999999994</ele><time>2026-05-01T07:41:50.37Z</time></trkpt><trkpt lat="46.687857766666674" lon="11.169431366666668"><ele>442.99999999999994</ele><time>2026-05-01T07:41:51.366Z</time></trkpt><trkpt lat="46.68776178333333" lon="11.169403466666665"><ele>443.0</ele><time>2026-05-01T07:41:52.367Z</time></trkpt><trkpt lat="46.68766213333333" lon="11.169387449999999"><ele>443.0</ele><time>2026-05-01T07:41:53.373Z</time></trkpt><trkpt lat="46.68756111374709" lon="11.169346760253186"><ele>442.0</ele><time>2026-05-01T07:41:54.366Z</time></trkpt><trkpt lat="46.687451566666674" lon="11.1693332"><ele>441.0</ele><time>2026-05-01T07:41:55.367Z</time></trkpt><trkpt lat="46.687349933333344" lon="11.169263033333335"><ele>440.0</ele><time>2026-05-01T07:41:56.354Z</time></trkpt><trkpt lat="46.68726255" lon="11.169155966666665"><ele>439.0</ele><time>2026-05-01T07:41:57.372Z</time></trkpt><trkpt lat="46.68719566666667" lon="11.169017000000002"><ele>439.0</ele><time>2026-05-01T07:41:58.365Z</time></trkpt><trkpt lat="46.68714593333335" lon="11.168855183333333"><ele>439.0</ele><time>2026-05-01T07:41:59.37Z</time></trkpt><trkpt lat="46.68710299999999" lon="11.168683666666666"><ele>439.0</ele><time>2026-05-01T07:42:00.373Z</time></trkpt><trkpt lat="46.6870628" lon="11.168504466666665"><ele>439.0</ele><time>2026-05-01T07:42:01.368Z</time></trkpt><trkpt lat="46.687034298940155" lon="11.16831374722588"><ele>440.0</ele><time>2026-05-01T07:42:02.385Z</time></trkpt><trkpt lat="46.68697999333981" lon="11.168134851170038"><ele>441.0</ele><time>2026-05-01T07:42:03.376Z</time></trkpt><trkpt lat="46.68689873333333" lon="11.167981166666669"><ele>442.0</ele><time>2026-05-01T07:42:04.365Z</time></trkpt><trkpt lat="46.68683346221147" lon="11.16781128882452"><ele>443.0</ele><time>2026-05-01T07:42:05.373Z</time></trkpt><trkpt lat="46.68674637368427" lon="11.167656810785875"><ele>441.5</ele><time>2026-05-01T07:42:06.365Z</time></trkpt><trkpt lat="46.68663229170516" lon="11.167543009003372"><ele>440.0</ele><time>2026-05-01T07:42:07.366Z</time></trkpt><trkpt lat="46.6865091" lon="11.167475883333335"><ele>438.5</ele><time>2026-05-01T07:42:08.356Z</time></trkpt><trkpt lat="46.68639674999999" lon="11.167401500000002"><ele>437.0</ele><time>2026-05-01T07:42:09.367Z</time></trkpt><trkpt lat="46.686292800000004" lon="11.167329233333332"><ele>437.0</ele><time>2026-05-01T07:42:10.353Z</time></trkpt><trkpt lat="46.686186250000006" lon="11.167265816666667"><ele>437.0</ele><time>2026-05-01T07:42:11.35Z</time></trkpt><trkpt lat="46.68595144999999" lon="11.1671989"><ele>437.0</ele><time>2026-05-01T07:42:13.369Z</time></trkpt><trkpt lat="46.68583513333333" lon="11.167188949999998"><ele>436.0</ele><time>2026-05-01T07:42:14.37Z</time></trkpt><trkpt lat="46.68572819999999" lon="11.167178266666667"><ele>435.00000000000006</ele><time>2026-05-01T07:42:15.365Z</time></trkpt><trkpt lat="46.68562659999999" lon="11.167166783333336"><ele>434.00000000000006</ele><time>2026-05-01T07:42:16.365Z</time></trkpt><trkpt lat="46.68553028333334" lon="11.167159583333333"><ele>433.0</ele><time>2026-05-01T07:42:17.37Z</time></trkpt><trkpt lat="46.68543678333334" lon="11.167152749999998"><ele>432.0</ele><time>2026-05-01T07:42:18.365Z</time></trkpt><trkpt lat="46.68534626666667" lon="11.16714285"><ele>431.3333333333333</ele><time>2026-05-01T07:42:19.351Z</time></trkpt><trkpt lat="46.68525760000001" lon="11.16713455"><ele>430.66666666666663</ele><time>2026-05-01T07:42:20.373Z</time></trkpt><trkpt lat="46.685172650000005" lon="11.167124866666667"><ele>430.0</ele><time>2026-05-01T07:42:21.366Z</time></trkpt><trkpt lat="46.68509266666667" lon="11.167113416666666"><ele>429.3333333333333</ele><time>2026-05-01T07:42:22.366Z</time></trkpt><trkpt lat="46.685015549999996" lon="11.167099633333331"><ele>428.66666666666663</ele><time>2026-05-01T07:42:23.371Z</time></trkpt><trkpt lat="46.68493746666666" lon="11.16708295"><ele>428.0</ele><time>2026-05-01T07:42:24.373Z</time></trkpt><trkpt lat="46.684853116666666" lon="11.167068366666669"><ele>428.0</ele><time>2026-05-01T07:42:25.367Z</time></trkpt><trkpt lat="46.684763499999995" lon="11.167062300000001"><ele>427.99999999999994</ele><time>2026-05-01T07:42:26.372Z</time></trkpt><trkpt lat="46.684670383333334" lon="11.16705875"><ele>427.99999999999994</ele><time>2026-05-01T07:42:27.367Z</time></trkpt><trkpt lat="46.68457265000001" lon="11.167059016666666"><ele>428.0</ele><time>2026-05-01T07:42:28.366Z</time></trkpt><trkpt lat="46.684468450000004" lon="11.167062016666668"><ele>428.0</ele><time>2026-05-01T07:42:29.364Z</time></trkpt><trkpt lat="46.68435341666667" lon="11.167067016666666"><ele>427.0</ele><time>2026-05-01T07:42:30.367Z</time></trkpt><trkpt lat="46.68423666666666" lon="11.167070133333333"><ele>426.0</ele><time>2026-05-01T07:42:31.367Z</time></trkpt><trkpt lat="46.684120083333326" lon="11.167069399999999"><ele>425.0</ele><time>2026-05-01T07:42:32.37Z</time></trkpt><trkpt lat="46.68400773333333" lon="11.167067433333333"><ele>424.0</ele><time>2026-05-01T07:42:33.366Z</time></trkpt><trkpt lat="46.683895533333335" lon="11.167059616666666"><ele>424.0</ele><time>2026-05-01T07:42:34.408Z</time></trkpt><trkpt lat="46.68377995000001" lon="11.167042866666668"><ele>424.0</ele><time>2026-05-01T07:42:35.37Z</time></trkpt><trkpt lat="46.683668283333326" lon="11.167024066666666"><ele>424.0</ele><time>2026-05-01T07:42:36.365Z</time></trkpt><trkpt lat="46.68356151666667" lon="11.167013333333333"><ele>424.0</ele><time>2026-05-01T07:42:37.367Z</time></trkpt><trkpt lat="46.68345923333334" lon="11.167019899999998"><ele>424.0</ele><time>2026-05-01T07:42:38.365Z</time></trkpt><trkpt lat="46.683354316666666" lon="11.167029950000002"><ele>423.6</ele><time>2026-05-01T07:42:39.352Z</time></trkpt><trkpt lat="46.68325396666667" lon="11.167040316666665"><ele>423.2</ele><time>2026-05-01T07:42:40.367Z</time></trkpt><trkpt lat="46.6831706" lon="11.167050683333331"><ele>422.8</ele><time>2026-05-01T07:42:41.37Z</time></trkpt><trkpt lat="46.68307256666667" lon="11.167031283333332"><ele>422.40000000000003</ele><time>2026-05-01T07:42:43.361Z</time></trkpt><trkpt lat="46.68303736666667" lon="11.166908783333335"><ele>422.0</ele><time>2026-05-01T07:42:46.372Z</time></trkpt><trkpt lat="46.682922649999995" lon="11.1667777"><ele>421.99999999999994</ele><time>2026-05-01T07:42:48.369Z</time></trkpt><trkpt lat="46.6828305" lon="11.166743850000001"><ele>422.0</ele><time>2026-05-01T07:42:49.369Z</time></trkpt><trkpt lat="46.68274643333333" lon="11.166759899999999"><ele>422.0</ele><time>2026-05-01T07:42:50.371Z</time></trkpt><trkpt lat="46.68267701666667" lon="11.166804833333334"><ele>422.0</ele><time>2026-05-01T07:42:51.378Z</time></trkpt><trkpt lat="46.68261653333334" lon="11.166857916666668"><ele>421.99999999999994</ele><time>2026-05-01T07:42:52.35Z</time></trkpt><trkpt lat="46.68255568333334" lon="11.166918400000002"><ele>422.0</ele><time>2026-05-01T07:42:53.37Z</time></trkpt><trkpt lat="46.682485" lon="11.166980183333331"><ele>422.40000000000003</ele><time>2026-05-01T07:42:54.366Z</time></trkpt><trkpt lat="46.682400099999995" lon="11.167037733333332"><ele>422.8</ele><time>2026-05-01T07:42:55.37Z</time></trkpt><trkpt lat="46.68230573333334" lon="11.167083516666667"><ele>423.2</ele><time>2026-05-01T07:42:56.356Z</time></trkpt><trkpt lat="46.68220708333333" lon="11.16712045"><ele>423.6</ele><time>2026-05-01T07:42:57.366Z</time></trkpt><trkpt lat="46.68211251666667" lon="11.167150016666668"><ele>424.0</ele><time>2026-05-01T07:42:58.367Z</time></trkpt><trkpt lat="46.682013516666665" lon="11.16718585"><ele>426.0</ele><time>2026-05-01T07:42:59.351Z</time></trkpt><trkpt lat="46.6819078" lon="11.1672186"><ele>428.0</ele><time>2026-05-01T07:43:00.366Z</time></trkpt><trkpt lat="46.681795799999996" lon="11.167255216666668"><ele>430.0</ele><time>2026-05-01T07:43:01.37Z</time></trkpt><trkpt lat="46.68168116666668" lon="11.167295683333334"><ele>432.0</ele><time>2026-05-01T07:43:02.371Z</time></trkpt><trkpt lat="46.6815748" lon="11.167339283333336"><ele>428.6</ele><time>2026-05-01T07:43:03.366Z</time></trkpt><trkpt lat="46.681473016666665" lon="11.167389133333332"><ele>425.20000000000005</ele><time>2026-05-01T07:43:04.367Z</time></trkpt><trkpt lat="46.68136801666666" lon="11.167444799999998"><ele>421.8</ele><time>2026-05-01T07:43:05.352Z</time></trkpt><trkpt lat="46.681264350000006" lon="11.167509066666666"><ele>418.4</ele><time>2026-05-01T07:43:06.367Z</time></trkpt><trkpt lat="46.68116478333333" lon="11.167581199999999"><ele>415.0</ele><time>2026-05-01T07:43:07.368Z</time></trkpt><trkpt lat="46.68107143333334" lon="11.16765505"><ele>415.0</ele><time>2026-05-01T07:43:08.373Z</time></trkpt><trkpt lat="46.680979033333344" lon="11.167721283333334"><ele>415.0</ele><time>2026-05-01T07:43:09.373Z</time></trkpt><trkpt lat="46.68088918333333" lon="11.167785250000001"><ele>415.0</ele><time>2026-05-01T07:43:10.367Z</time></trkpt><trkpt lat="46.68080025" lon="11.167847016666668"><ele>415.0</ele><time>2026-05-01T07:43:11.364Z</time></trkpt><trkpt lat="46.68070438333333" lon="11.167913166666665"><ele>415.0</ele><time>2026-05-01T07:43:12.365Z</time></trkpt><trkpt lat="46.68048926666667" lon="11.168064633333332"><ele>415.0</ele><time>2026-05-01T07:43:14.37Z</time></trkpt><trkpt lat="46.6803843" lon="11.168142516666666"><ele>415.0</ele><time>2026-05-01T07:43:15.367Z</time></trkpt><trkpt lat="46.68028210000001" lon="11.16822175"><ele>415.0</ele><time>2026-05-01T07:43:17.37Z</time></trkpt><trkpt lat="46.68007026666667" lon="11.168390033333331"><ele>411.25</ele><time>2026-05-01T07:43:18.366Z</time></trkpt><trkpt lat="46.679953033333334" lon="11.168475233333334"><ele>407.5</ele><time>2026-05-01T07:43:19.37Z</time></trkpt><trkpt lat="46.67983041666666" lon="11.168562033333334"><ele>403.75</ele><time>2026-05-01T07:43:20.371Z</time></trkpt><trkpt lat="46.67970298333333" lon="11.168650966666666"><ele>400.0</ele><time>2026-05-01T07:43:21.37Z</time></trkpt><trkpt lat="46.67957218333333" lon="11.168740116666667"><ele>400.0</ele><time>2026-05-01T07:43:22.367Z</time></trkpt><trkpt lat="46.67943718333333" lon="11.16883785"><ele>400.0</ele><time>2026-05-01T07:43:23.37Z</time></trkpt><trkpt lat="46.67929586666668" lon="11.168935583333331"><ele>400.0</ele><time>2026-05-01T07:43:24.351Z</time></trkpt><trkpt lat="46.6791543" lon="11.169032533333333"><ele>396.33333333333337</ele><time>2026-05-01T07:43:25.37Z</time></trkpt><trkpt lat="46.67901258333333" lon="11.169129283333332"><ele>392.66666666666663</ele><time>2026-05-01T07:43:26.351Z</time></trkpt><trkpt lat="46.67887383333333" lon="11.169222133333335"><ele>389.0</ele><time>2026-05-01T07:43:27.366Z</time></trkpt><trkpt lat="46.67873491666666" lon="11.169302966666665"><ele>393.25</ele><time>2026-05-01T07:43:28.367Z</time></trkpt><trkpt lat="46.67859821666666" lon="11.16937895"><ele>397.5</ele><time>2026-05-01T07:43:29.371Z</time></trkpt><trkpt lat="46.67846464999999" lon="11.169467033333335"><ele>401.75</ele><time>2026-05-01T07:43:30.366Z</time></trkpt><trkpt lat="46.67833035" lon="11.16955785"><ele>406.0</ele><time>2026-05-01T07:43:31.367Z</time></trkpt><trkpt lat="46.67819568333332" lon="11.169650449999999"><ele>406.0</ele><time>2026-05-01T07:43:32.37Z</time></trkpt><trkpt lat="46.67805920000001" lon="11.16974475"><ele>406.0</ele><time>2026-05-01T07:43:33.366Z</time></trkpt><trkpt lat="46.677918850000005" lon="11.169847016666665"><ele>406.0</ele><time>2026-05-01T07:43:34.367Z</time></trkpt><trkpt lat="46.6777762" lon="11.169943216666665"><ele>402.33333333333337</ele><time>2026-05-01T07:43:35.37Z</time></trkpt><trkpt lat="46.677635099999996" lon="11.170043"><ele>398.66666666666663</ele><time>2026-05-01T07:43:36.373Z</time></trkpt><trkpt lat="46.6774985" lon="11.170156216666665"><ele>395.0</ele><time>2026-05-01T07:43:37.366Z</time></trkpt><trkpt lat="46.677364616666665" lon="11.170279166666669"><ele>395.0</ele><time>2026-05-01T07:43:38.376Z</time></trkpt><trkpt lat="46.677236783333335" lon="11.170411650000002"><ele>395.0</ele><time>2026-05-01T07:43:39.367Z</time></trkpt><trkpt lat="46.67711473333334" lon="11.170546016666668"><ele>395.0</ele><time>2026-05-01T07:43:40.366Z</time></trkpt><trkpt lat="46.6769986" lon="11.170676616666666"><ele>393.5</ele><time>2026-05-01T07:43:41.351Z</time></trkpt><trkpt lat="46.676887366666676" lon="11.1708024"><ele>392.0</ele><time>2026-05-01T07:43:42.366Z</time></trkpt><trkpt lat="46.67677611666666" lon="11.170930333333335"><ele>390.5</ele><time>2026-05-01T07:43:43.367Z</time></trkpt><trkpt lat="46.67666733333334" lon="11.171054966666668"><ele>389.0</ele><time>2026-05-01T07:43:44.35Z</time></trkpt><trkpt lat="46.6765617" lon="11.171170533333333"><ele>389.0</ele><time>2026-05-01T07:43:45.365Z</time></trkpt><trkpt lat="46.676460933333324" lon="11.171284400000003"><ele>389.0</ele><time>2026-05-01T07:43:46.373Z</time></trkpt><trkpt lat="46.676361283333335" lon="11.171397349999998"><ele>389.0</ele><time>2026-05-01T07:43:47.351Z</time></trkpt><trkpt lat="46.676261466666666" lon="11.171488033333333"><ele>389.0</ele><time>2026-05-01T07:43:48.366Z</time></trkpt><trkpt lat="46.67615926666667" lon="11.171553266666667"><ele>388.25</ele><time>2026-05-01T07:43:49.37Z</time></trkpt><trkpt lat="46.67605603333333" lon="11.171615383333336"><ele>387.5</ele><time>2026-05-01T07:43:50.352Z</time></trkpt><trkpt lat="46.67595648333332" lon="11.171695533333331"><ele>386.75</ele><time>2026-05-01T07:43:51.364Z</time></trkpt><trkpt lat="46.675867616666665" lon="11.1718061"><ele>386.0</ele><time>2026-05-01T07:43:52.371Z</time></trkpt><trkpt lat="46.67578713333334" lon="11.171935833333334"><ele>386.0</ele><time>2026-05-01T07:43:53.37Z</time></trkpt><trkpt lat="46.675711" lon="11.172067516666669"><ele>386.0</ele><time>2026-05-01T07:43:54.366Z</time></trkpt><trkpt lat="46.67563668333334" lon="11.172191083333333"><ele>386.0</ele><time>2026-05-01T07:43:55.376Z</time></trkpt><trkpt lat="46.67555208333333" lon="11.172304333333333"><ele>386.0</ele><time>2026-05-01T07:43:56.372Z</time></trkpt><trkpt lat="46.675455416666665" lon="11.17240478333333"><ele>382.0</ele><time>2026-05-01T07:43:57.365Z</time></trkpt><trkpt lat="46.675349516666664" lon="11.172494849999998"><ele>378.0</ele><time>2026-05-01T07:43:58.367Z</time></trkpt><trkpt lat="46.67524369999999" lon="11.172581116666667"><ele>374.0</ele><time>2026-05-01T07:43:59.353Z</time></trkpt><trkpt lat="46.675133816666666" lon="11.172657516666668"><ele>370.0</ele><time>2026-05-01T07:44:00.357Z</time></trkpt><trkpt lat="46.67501705" lon="11.172722116666668"><ele>370.0</ele><time>2026-05-01T07:44:01.367Z</time></trkpt><trkpt lat="46.67489451666667" lon="11.172775750000001"><ele>370.0</ele><time>2026-05-01T07:44:02.37Z</time></trkpt><trkpt lat="46.674764450000005" lon="11.172821766666667"><ele>370.0</ele><time>2026-05-01T07:44:03.365Z</time></trkpt><trkpt lat="46.674626149999995" lon="11.172853516666665"><ele>370.0</ele><time>2026-05-01T07:44:04.366Z</time></trkpt><trkpt lat="46.67448345" lon="11.172869649999999"><ele>369.5</ele><time>2026-05-01T07:44:05.372Z</time></trkpt><trkpt lat="46.67433861666667" lon="11.172877083333333"><ele>369.0</ele><time>2026-05-01T07:44:06.366Z</time></trkpt><trkpt lat="46.67419818333333" lon="11.172880066666668"><ele>368.5</ele><time>2026-05-01T07:44:07.367Z</time></trkpt><trkpt lat="46.674059916666664" lon="11.172879833333331"><ele>368.0</ele><time>2026-05-01T07:44:08.351Z</time></trkpt><trkpt lat="46.67392373333333" lon="11.172876533333332"><ele>368.0</ele><time>2026-05-01T07:44:09.366Z</time></trkpt><trkpt lat="46.67378541666667" lon="11.17286485"><ele>368.0</ele><time>2026-05-01T07:44:10.389Z</time></trkpt><trkpt lat="46.673641550000006" lon="11.172843116666666"><ele>368.0</ele><time>2026-05-01T07:44:11.371Z</time></trkpt><trkpt lat="46.6734975" lon="11.1728035"><ele>368.0</ele><time>2026-05-01T07:44:12.366Z</time></trkpt><trkpt lat="46.67335598333334" lon="11.172736"><ele>366.75</ele><time>2026-05-01T07:44:13.367Z</time></trkpt><trkpt lat="46.673220400000005" lon="11.172644116666666"><ele>365.5</ele><time>2026-05-01T07:44:14.367Z</time></trkpt><trkpt lat="46.67309101666667" lon="11.172531683333334"><ele>364.25</ele><time>2026-05-01T07:44:15.373Z</time></trkpt><trkpt lat="46.6729743" lon="11.172397666666665"><ele>363.0</ele><time>2026-05-01T07:44:16.367Z</time></trkpt><trkpt lat="46.672868216666664" lon="11.17224605"><ele>360.25</ele><time>2026-05-01T07:44:17.372Z</time></trkpt><trkpt lat="46.67277264999999" lon="11.172091850000001"><ele>357.5</ele><time>2026-05-01T07:44:18.366Z</time></trkpt><trkpt lat="46.6726959143855" lon="11.17191777359469"><ele>354.75</ele><time>2026-05-01T07:44:19.361Z</time></trkpt><trkpt lat="46.67260635583443" lon="11.171756238110405"><ele>352.0</ele><time>2026-05-01T07:44:20.371Z</time></trkpt><trkpt lat="46.67251591037159" lon="11.171594936110361"><ele>350.5</ele><time>2026-05-01T07:44:21.367Z</time></trkpt><trkpt lat="46.67241291666666" lon="11.171448366666668"><ele>349.0</ele><time>2026-05-01T07:44:22.364Z</time></trkpt><trkpt lat="46.67233956083596" lon="11.17127934230732"><ele>347.5</ele><time>2026-05-01T07:44:23.357Z</time></trkpt><trkpt lat="46.67226337597641" lon="11.171129562362157"><ele>346.0</ele><time>2026-05-01T07:44:24.366Z</time></trkpt><trkpt lat="46.67218600730315" lon="11.170988919057386"><ele>346.0</ele><time>2026-05-01T07:44:25.366Z</time></trkpt><trkpt lat="46.67209804284015" lon="11.170876461429701"><ele>346.0</ele><time>2026-05-01T07:44:26.372Z</time></trkpt><trkpt lat="46.67200071666666" lon="11.170812399999999"><ele>346.0</ele><time>2026-05-01T07:44:27.377Z</time></trkpt><trkpt lat="46.671912850000005" lon="11.1707545"><ele>346.0</ele><time>2026-05-01T07:44:28.352Z</time></trkpt><trkpt lat="46.6718284" lon="11.170717783333336"><ele>346.0</ele><time>2026-05-01T07:44:29.371Z</time></trkpt><trkpt lat="46.67174956666666" lon="11.170705850000001"><ele>345.66666666666663</ele><time>2026-05-01T07:44:30.366Z</time></trkpt><trkpt lat="46.67167641666667" lon="11.170701"><ele>345.3333333333333</ele><time>2026-05-01T07:44:31.367Z</time></trkpt><trkpt lat="46.67161059588611" lon="11.170672590211327"><ele>345.0</ele><time>2026-05-01T07:44:32.371Z</time></trkpt><trkpt lat="46.67149239038156" lon="11.170662988445633"><ele>344.6666666666667</ele><time>2026-05-01T07:44:34.366Z</time></trkpt><trkpt lat="46.67141893524234" lon="11.170661377027674"><ele>344.33333333333337</ele><time>2026-05-01T07:44:36.366Z</time></trkpt><trkpt lat="46.67131277814708" lon="11.170661216726886"><ele>344.0</ele><time>2026-05-01T07:44:38.373Z</time></trkpt><trkpt lat="46.67121455307784" lon="11.170610558867414"><ele>344.0</ele><time>2026-05-01T07:44:40.37Z</time></trkpt><trkpt lat="46.67115404999999" lon="11.170577983333333"><ele>344.0</ele><time>2026-05-01T07:44:41.357Z</time></trkpt><trkpt lat="46.671073383333336" lon="11.170593799999997"><ele>344.0</ele><time>2026-05-01T07:44:43.366Z</time></trkpt><trkpt lat="46.67104981666666" lon="11.170745766666668"><ele>344.0</ele><time>2026-05-01T07:44:45.365Z</time></trkpt><trkpt lat="46.6710506" lon="11.170839316666665"><ele>344.0</ele><time>2026-05-01T07:44:46.351Z</time></trkpt><trkpt lat="46.67104913333332" lon="11.170941016666665"><ele>344.0</ele><time>2026-05-01T07:44:47.355Z</time></trkpt><trkpt lat="46.67102542624409" lon="11.171043082735325"><ele>345.83333333333337</ele><time>2026-05-01T07:44:48.366Z</time></trkpt><trkpt lat="46.67101830279856" lon="11.171152013257611"><ele>347.6666666666667</ele><time>2026-05-01T07:44:49.37Z</time></trkpt><trkpt lat="46.67101026465625" lon="11.17127493109241"><ele>349.5</ele><time>2026-05-01T07:44:50.371Z</time></trkpt><trkpt lat="46.67100113665018" lon="11.171414514971369"><ele>351.3333333333333</ele><time>2026-05-01T07:44:51.368Z</time></trkpt><trkpt lat="46.67099107068863" lon="11.17155085632062"><ele>353.16666666666663</ele><time>2026-05-01T07:44:52.372Z</time></trkpt><trkpt lat="46.67098303416952" lon="11.171683827097956"><ele>355.0</ele><time>2026-05-01T07:44:53.371Z</time></trkpt><trkpt lat="46.670985818099965" lon="11.171823152923942"><ele>356.2</ele><time>2026-05-01T07:44:54.366Z</time></trkpt><trkpt lat="46.67099577220623" lon="11.171979361840016"><ele>357.4</ele><time>2026-05-01T07:44:55.367Z</time></trkpt><trkpt lat="46.67102219243119" lon="11.172142714670063"><ele>358.6</ele><time>2026-05-01T07:44:56.371Z</time></trkpt><trkpt lat="46.67104404416057" lon="11.172302428862865"><ele>359.8</ele><time>2026-05-01T07:44:57.365Z</time></trkpt><trkpt lat="46.67106756570229" lon="11.17244780447441"><ele>361.0</ele><time>2026-05-01T07:44:58.367Z</time></trkpt><trkpt lat="46.671101068784154" lon="11.172570180800353"><ele>362.16666666666663</ele><time>2026-05-01T07:44:59.372Z</time></trkpt><trkpt lat="46.6711374324165" lon="11.172676222743329"><ele>363.3333333333333</ele><time>2026-05-01T07:45:00.351Z</time></trkpt><trkpt lat="46.67117587353205" lon="11.172784245518523"><ele>364.5</ele><time>2026-05-01T07:45:01.367Z</time></trkpt><trkpt lat="46.67122214999999" lon="11.172881716666666"><ele>365.6666666666667</ele><time>2026-05-01T07:45:02.37Z</time></trkpt><trkpt lat="46.671233550000004" lon="11.172977166666666"><ele>366.83333333333337</ele><time>2026-05-01T07:45:03.366Z</time></trkpt><trkpt lat="46.67123756666666" lon="11.17312315"><ele>368.0</ele><time>2026-05-01T07:45:05.372Z</time></trkpt><trkpt lat="46.67120235000001" lon="11.173243099999997"><ele>368.2</ele><time>2026-05-01T07:45:07.374Z</time></trkpt><trkpt lat="46.671088266666665" lon="11.173307333333332"><ele>368.4</ele><time>2026-05-01T07:45:09.373Z</time></trkpt><trkpt lat="46.670916033333334" lon="11.173322150000002"><ele>368.59999999999997</ele><time>2026-05-01T07:45:11.357Z</time></trkpt><trkpt lat="46.67084035" lon="11.173324300000003"><ele>368.79999999999995</ele><time>2026-05-01T07:45:12.366Z</time></trkpt><trkpt lat="46.67076746666667" lon="11.173330583333332"><ele>369.0</ele><time>2026-05-01T07:45:13.367Z</time></trkpt><trkpt lat="46.67069278333334" lon="11.17334685"><ele>369.0</ele><time>2026-05-01T07:45:14.375Z</time></trkpt><trkpt lat="46.67061551666667" lon="11.173381783333332"><ele>369.0</ele><time>2026-05-01T07:45:15.379Z</time></trkpt><trkpt lat="46.670532400000006" lon="11.173425016666666"><ele>369.0</ele><time>2026-05-01T07:45:16.368Z</time></trkpt><trkpt lat="46.670450716666664" lon="11.173469983333334"><ele>369.0</ele><time>2026-05-01T07:45:17.365Z</time></trkpt><trkpt lat="46.670372633333336" lon="11.173521100000002"><ele>369.0</ele><time>2026-05-01T07:45:18.352Z</time></trkpt><trkpt lat="46.67029429999999" lon="11.173574816666665"><ele>369.0</ele><time>2026-05-01T07:45:19.37Z</time></trkpt><trkpt lat="46.670213333333336" lon="11.173628716666666"><ele>369.0</ele><time>2026-05-01T07:45:20.373Z</time></trkpt><trkpt lat="46.67013331666667" lon="11.173678050000001"><ele>369.0</ele><time>2026-05-01T07:45:21.352Z</time></trkpt><trkpt lat="46.67005688333333" lon="11.173730133333335"><ele>369.0</ele><time>2026-05-01T07:45:22.373Z</time></trkpt><trkpt lat="46.66998234999999" lon="11.1737801"><ele>369.0</ele><time>2026-05-01T07:45:23.352Z</time></trkpt><trkpt lat="46.66990770000001" lon="11.173823016666665"><ele>369.0</ele><time>2026-05-01T07:45:24.366Z</time></trkpt><trkpt lat="46.669833383333334" lon="11.1738664"><ele>369.0</ele><time>2026-05-01T07:45:26.363Z</time></trkpt><trkpt lat="46.669688259986735" lon="11.173907335739479"><ele>369.0</ele><time>2026-05-01T07:45:27.365Z</time></trkpt><trkpt lat="46.66958544723264" lon="11.173945940565941"><ele>369.0</ele><time>2026-05-01T07:45:29.352Z</time></trkpt><trkpt lat="46.6695141685569" lon="11.173975240379313"><ele>369.0</ele><time>2026-05-01T07:45:31.375Z</time></trkpt><trkpt lat="46.66954783333334" lon="11.174177383333332"><ele>369.0</ele><time>2026-05-01T07:45:33.365Z</time></trkpt><trkpt lat="46.66960061666667" lon="11.174267149999999"><ele>369.0</ele><time>2026-05-01T07:45:34.366Z</time></trkpt><trkpt lat="46.66966470000001" lon="11.174375333333334"><ele>370.5</ele><time>2026-05-01T07:45:35.366Z</time></trkpt><trkpt lat="46.66973806666666" lon="11.174506733333333"><ele>372.0</ele><time>2026-05-01T07:45:36.375Z</time></trkpt><trkpt lat="46.66981481666667" lon="11.174657983333335"><ele>373.5</ele><time>2026-05-01T07:45:37.368Z</time></trkpt><trkpt lat="46.669894033333335" lon="11.174829683333334"><ele>375.0</ele><time>2026-05-01T07:45:38.364Z</time></trkpt><trkpt lat="46.66997286666666" lon="11.175027216666669"><ele>375.5</ele><time>2026-05-01T07:45:39.374Z</time></trkpt><trkpt lat="46.670041033333334" lon="11.175235033333333"><ele>376.0</ele><time>2026-05-01T07:45:40.357Z</time></trkpt><trkpt lat="46.67009676666667" lon="11.175436749999998"><ele>376.5</ele><time>2026-05-01T07:45:41.363Z</time></trkpt><trkpt lat="46.670138683333334" lon="11.175628083333335"><ele>377.0</ele><time>2026-05-01T07:45:42.373Z</time></trkpt><trkpt lat="46.670172333333326" lon="11.175806599999998"><ele>378.20000000000005</ele><time>2026-05-01T07:45:43.373Z</time></trkpt><trkpt lat="46.67019601666666" lon="11.175978833333332"><ele>379.4</ele><time>2026-05-01T07:45:44.364Z</time></trkpt><trkpt lat="46.67021150000001" lon="11.176143433333333"><ele>380.6</ele><time>2026-05-01T07:45:45.374Z</time></trkpt><trkpt lat="46.67022106666667" lon="11.176300066666666"><ele>381.79999999999995</ele><time>2026-05-01T07:45:46.39Z</time></trkpt><trkpt lat="46.6702187" lon="11.176447666666665"><ele>383.0</ele><time>2026-05-01T07:45:47.371Z</time></trkpt><trkpt lat="46.67020146666667" lon="11.176583983333334"><ele>384.59999999999997</ele><time>2026-05-01T07:45:48.366Z</time></trkpt><trkpt lat="46.67017078333333" lon="11.176709999999998"><ele>386.2</ele><time>2026-05-01T07:45:49.351Z</time></trkpt><trkpt lat="46.670123883333325" lon="11.176823966666666"><ele>387.8</ele><time>2026-05-01T07:45:50.366Z</time></trkpt><trkpt lat="46.67006074999999" lon="11.176926283333334"><ele>389.4</ele><time>2026-05-01T07:45:52.367Z</time></trkpt><trkpt lat="46.66998766666667" lon="11.177028683333333"><ele>391.0</ele><time>2026-05-01T07:45:53.352Z</time></trkpt><trkpt lat="46.66991034999999" lon="11.177135966666667"><ele>392.33333333333337</ele><time>2026-05-01T07:45:54.367Z</time></trkpt><trkpt lat="46.66977593333333" lon="11.177404983333334"><ele>393.66666666666663</ele><time>2026-05-01T07:45:55.362Z</time></trkpt><trkpt lat="46.669715616666664" lon="11.177552816666667"><ele>395.0</ele><time>2026-05-01T07:45:56.371Z</time></trkpt><trkpt lat="46.66965635" lon="11.17771035"><ele>395.0</ele><time>2026-05-01T07:45:57.366Z</time></trkpt><trkpt lat="46.66959358333334" lon="11.177857283333331"><ele>395.0</ele><time>2026-05-01T07:45:58.37Z</time></trkpt><trkpt lat="46.6695329" lon="11.177995366666668"><ele>395.0</ele><time>2026-05-01T07:45:59.357Z</time></trkpt><trkpt lat="46.66947951666666" lon="11.178137766666667"><ele>395.0</ele><time>2026-05-01T07:46:00.367Z</time></trkpt><trkpt lat="46.669441400000004" lon="11.178288566666666"><ele>395.2</ele><time>2026-05-01T07:46:01.367Z</time></trkpt><trkpt lat="46.66942123333333" lon="11.178449550000002"><ele>395.4</ele><time>2026-05-01T07:46:02.371Z</time></trkpt><trkpt lat="46.66941043333333" lon="11.178612500000002"><ele>395.6</ele><time>2026-05-01T07:46:03.367Z</time></trkpt><trkpt lat="46.669389316666674" lon="11.178763933333334"><ele>395.8</ele><time>2026-05-01T07:46:04.349Z</time></trkpt><trkpt lat="46.66934871666667" lon="11.178907433333332"><ele>396.0</ele><time>2026-05-01T07:46:05.37Z</time></trkpt><trkpt lat="46.66929353333333" lon="11.1790492"><ele>398.0</ele><time>2026-05-01T07:46:06.367Z</time></trkpt><trkpt lat="46.66921355361945" lon="11.17917540130539"><ele>400.0</ele><time>2026-05-01T07:46:07.367Z</time></trkpt><trkpt lat="46.669143175106605" lon="11.17931832387137"><ele>402.0</ele><time>2026-05-01T07:46:08.355Z</time></trkpt><trkpt lat="46.66908294487031" lon="11.179468032045753"><ele>404.0</ele><time>2026-05-01T07:46:09.374Z</time></trkpt><trkpt lat="46.66904849433713" lon="11.179638253502807"><ele>404.0</ele><time>2026-05-01T07:46:10.366Z</time></trkpt><trkpt lat="46.669037566666674" lon="11.179803350000002"><ele>404.0</ele><time>2026-05-01T07:46:11.354Z</time></trkpt><trkpt lat="46.66901003333334" lon="11.179956799999998"><ele>404.0</ele><time>2026-05-01T07:46:12.365Z</time></trkpt><trkpt lat="46.66897314999999" lon="11.180104850000001"><ele>404.0</ele><time>2026-05-01T07:46:13.352Z</time></trkpt><trkpt lat="46.66892358333333" lon="11.18024065"><ele>404.0</ele><time>2026-05-01T07:46:14.374Z</time></trkpt><trkpt lat="46.66886888333334" lon="11.18035785"><ele>405.4</ele><time>2026-05-01T07:46:15.366Z</time></trkpt><trkpt lat="46.66882508333333" lon="11.180463216666665"><ele>406.79999999999995</ele><time>2026-05-01T07:46:16.367Z</time></trkpt><trkpt lat="46.66879645000001" lon="11.18057895"><ele>408.20000000000005</ele><time>2026-05-01T07:46:17.355Z</time></trkpt><trkpt lat="46.66877851666667" lon="11.180712349999999"><ele>409.6</ele><time>2026-05-01T07:46:18.367Z</time></trkpt><trkpt lat="46.66876926666667" lon="11.18085765"><ele>411.0</ele><time>2026-05-01T07:46:19.371Z</time></trkpt><trkpt lat="46.66876705" lon="11.181020766666665"><ele>412.25</ele><time>2026-05-01T07:46:20.35Z</time></trkpt><trkpt lat="46.668768433333334" lon="11.181192816666666"><ele>413.5</ele><time>2026-05-01T07:46:21.366Z</time></trkpt><trkpt lat="46.66877110000001" lon="11.181367599999998"><ele>414.75</ele><time>2026-05-01T07:46:22.35Z</time></trkpt><trkpt lat="46.668775016666665" lon="11.181544283333334"><ele>416.0</ele><time>2026-05-01T07:46:23.371Z</time></trkpt><trkpt lat="46.668784216666666" lon="11.181722950000001"><ele>417.75</ele><time>2026-05-01T07:46:24.367Z</time></trkpt><trkpt lat="46.66879924999999" lon="11.181906916666668"><ele>419.5</ele><time>2026-05-01T07:46:25.367Z</time></trkpt><trkpt lat="46.668820616666665" lon="11.182099366666668"><ele>421.25</ele><time>2026-05-01T07:46:26.358Z</time></trkpt><trkpt lat="46.66884056666666" lon="11.182296066666666"><ele>423.0</ele><time>2026-05-01T07:46:27.37Z</time></trkpt><trkpt lat="46.66884835000001" lon="11.182492466666668"><ele>423.75</ele><time>2026-05-01T07:46:28.368Z</time></trkpt><trkpt lat="46.66884933333334" lon="11.182692833333332"><ele>424.5</ele><time>2026-05-01T07:46:29.374Z</time></trkpt><trkpt lat="46.66884891666667" lon="11.182899999999998"><ele>425.25</ele><time>2026-05-01T07:46:30.368Z</time></trkpt><trkpt lat="46.668842266666665" lon="11.1830979"><ele>426.0</ele><time>2026-05-01T07:46:31.367Z</time></trkpt><trkpt lat="46.668828466666675" lon="11.183288650000001"><ele>427.25</ele><time>2026-05-01T07:46:32.372Z</time></trkpt><trkpt lat="46.66881178333333" lon="11.183473483333334"><ele>428.5</ele><time>2026-05-01T07:46:33.366Z</time></trkpt><trkpt lat="46.66879618333334" lon="11.183657116666666"><ele>429.75</ele><time>2026-05-01T07:46:34.368Z</time></trkpt><trkpt lat="46.66877970000001" lon="11.183843016666668"><ele>431.0</ele><time>2026-05-01T07:46:35.357Z</time></trkpt><trkpt lat="46.66876235" lon="11.184025100000001"><ele>432.4</ele><time>2026-05-01T07:46:36.352Z</time></trkpt><trkpt lat="46.66874578333333" lon="11.18419938333333"><ele>433.8</ele><time>2026-05-01T07:46:37.35Z</time></trkpt><trkpt lat="46.66873105" lon="11.184355883333334"><ele>435.19999999999993</ele><time>2026-05-01T07:46:38.363Z</time></trkpt><trkpt lat="46.668719133333326" lon="11.18448685"><ele>436.59999999999997</ele><time>2026-05-01T07:46:39.355Z</time></trkpt><trkpt lat="46.66871068333333" lon="11.184603866666665"><ele>438.0</ele><time>2026-05-01T07:46:40.35Z</time></trkpt><trkpt lat="46.66869916666666" lon="11.184702183333332"><ele>438.0</ele><time>2026-05-01T07:46:41.358Z</time></trkpt><trkpt lat="46.66862791666667" lon="11.184812883333333"><ele>437.99999999999994</ele><time>2026-05-01T07:46:43.35Z</time></trkpt><trkpt lat="46.66855471666666" lon="11.184893933333335"><ele>437.99999999999994</ele><time>2026-05-01T07:46:45.355Z</time></trkpt><trkpt lat="46.668548300000005" lon="11.185029616666668"><ele>438.0</ele><time>2026-05-01T07:46:47.364Z</time></trkpt><trkpt lat="46.66861646666666" lon="11.185120766666667"><ele>438.0</ele><time>2026-05-01T07:46:49.352Z</time></trkpt><trkpt lat="46.66870569999999" lon="11.1851618"><ele>439.25</ele><time>2026-05-01T07:46:51.375Z</time></trkpt><trkpt lat="46.66882351666666" lon="11.185279066666666"><ele>440.5</ele><time>2026-05-01T07:46:53.358Z</time></trkpt><trkpt lat="46.66890143333334" lon="11.185379066666666"><ele>441.75</ele><time>2026-05-01T07:46:54.35Z</time></trkpt><trkpt lat="46.66899466666667" lon="11.185489883333332"><ele>443.0</ele><time>2026-05-01T07:46:55.368Z</time></trkpt><trkpt lat="46.6691019" lon="11.185618866666667"><ele>443.66666666666663</ele><time>2026-05-01T07:46:56.359Z</time></trkpt><trkpt lat="46.669225250000004" lon="11.185762199999997"><ele>444.33333333333337</ele><time>2026-05-01T07:46:57.374Z</time></trkpt><trkpt lat="46.669363183333346" lon="11.1859008"><ele>445.0</ele><time>2026-05-01T07:46:58.356Z</time></trkpt><trkpt lat="46.66951586666667" lon="11.186042633333333"><ele>445.6666666666667</ele><time>2026-05-01T07:46:59.352Z</time></trkpt><trkpt lat="46.66967411666666" lon="11.186179466666665"><ele>446.33333333333337</ele><time>2026-05-01T07:47:00.373Z</time></trkpt><trkpt lat="46.66982343333334" lon="11.186291716666666"><ele>447.0</ele><time>2026-05-01T07:47:01.351Z</time></trkpt><trkpt lat="46.669959950000006" lon="11.186382416666666"><ele>447.0</ele><time>2026-05-01T07:47:02.363Z</time></trkpt><trkpt lat="46.67007723333332" lon="11.186471566666668"><ele>447.0</ele><time>2026-05-01T07:47:03.35Z</time></trkpt><trkpt lat="46.670170716666675" lon="11.1865741"><ele>447.0</ele><time>2026-05-01T07:47:04.349Z</time></trkpt><trkpt lat="46.670246500000005" lon="11.186692316666665"><ele>447.0</ele><time>2026-05-01T07:47:05.357Z</time></trkpt><trkpt lat="46.67031113333334" lon="11.186832516666668"><ele>450.0</ele><time>2026-05-01T07:47:06.375Z</time></trkpt><trkpt lat="46.670369583333326" lon="11.186987133333332"><ele>453.0</ele><time>2026-05-01T07:47:07.354Z</time></trkpt><trkpt lat="46.670423250000006" lon="11.187154833333334"><ele>456.0</ele><time>2026-05-01T07:47:08.351Z</time></trkpt><trkpt lat="46.67048211666666" lon="11.187333316666665"><ele>459.0</ele><time>2026-05-01T07:47:09.374Z</time></trkpt><trkpt lat="46.670546716666664" lon="11.187518783333333"><ele>460.0</ele><time>2026-05-01T07:47:10.356Z</time></trkpt><trkpt lat="46.6706287" lon="11.1877091"><ele>461.0</ele><time>2026-05-01T07:47:11.365Z</time></trkpt><trkpt lat="46.67073010000001" lon="11.187903683333332"><ele>462.0</ele><time>2026-05-01T07:47:12.374Z</time></trkpt><trkpt lat="46.670841483333334" lon="11.18810415"><ele>463.33333333333337</ele><time>2026-05-01T07:47:13.351Z</time></trkpt><trkpt lat="46.67094363333334" lon="11.188297016666668"><ele>464.6666666666667</ele><time>2026-05-01T07:47:14.358Z</time></trkpt><trkpt lat="46.6710285" lon="11.188479616666665"><ele>466.0</ele><time>2026-05-01T07:47:15.375Z</time></trkpt><trkpt lat="46.67109563333333" lon="11.188653633333335"><ele>466.75</ele><time>2026-05-01T07:47:16.353Z</time></trkpt><trkpt lat="46.67114605" lon="11.188828233333334"><ele>467.5</ele><time>2026-05-01T07:47:17.363Z</time></trkpt><trkpt lat="46.67117544999999" lon="11.189008383333332"><ele>468.25</ele><time>2026-05-01T07:47:18.376Z</time></trkpt><trkpt lat="46.67118571666667" lon="11.189198633333334"><ele>469.0</ele><time>2026-05-01T07:47:19.367Z</time></trkpt><trkpt lat="46.671184983333326" lon="11.1893913"><ele>470.75</ele><time>2026-05-01T07:47:20.372Z</time></trkpt><trkpt lat="46.6711825" lon="11.189587433333335"><ele>472.5</ele><time>2026-05-01T07:47:21.349Z</time></trkpt><trkpt lat="46.67117267134713" lon="11.189794806344688"><ele>474.25</ele><time>2026-05-01T07:47:22.351Z</time></trkpt><trkpt lat="46.671208449999995" lon="11.190003783333335"><ele>476.0</ele><time>2026-05-01T07:47:23.358Z</time></trkpt><trkpt lat="46.6712404" lon="11.19022033333333"><ele>478.66666666666663</ele><time>2026-05-01T07:47:24.381Z</time></trkpt><trkpt lat="46.671280016666664" lon="11.1904379"><ele>481.33333333333337</ele><time>2026-05-01T07:47:25.354Z</time></trkpt><trkpt lat="46.67132093333333" lon="11.190662016666666"><ele>484.0</ele><time>2026-05-01T07:47:26.366Z</time></trkpt><trkpt lat="46.671355016666666" lon="11.190891383333334"><ele>486.33333333333337</ele><time>2026-05-01T07:47:27.374Z</time></trkpt><trkpt lat="46.67138321666666" lon="11.191127283333334"><ele>488.66666666666663</ele><time>2026-05-01T07:47:28.351Z</time></trkpt><trkpt lat="46.67140473333334" lon="11.1913681"><ele>491.0</ele><time>2026-05-01T07:47:29.358Z</time></trkpt><trkpt lat="46.67141924999999" lon="11.191609166666668"><ele>493.0</ele><time>2026-05-01T07:47:30.351Z</time></trkpt><trkpt lat="46.67142751666667" lon="11.191857616666667"><ele>495.0</ele><time>2026-05-01T07:47:31.362Z</time></trkpt><trkpt lat="46.67143061666667" lon="11.192106666666666"><ele>497.0</ele><time>2026-05-01T07:47:32.358Z</time></trkpt><trkpt lat="46.67143131666666" lon="11.192354033333334"><ele>499.3333333333333</ele><time>2026-05-01T07:47:33.374Z</time></trkpt><trkpt lat="46.67143305" lon="11.192594899999998"><ele>501.66666666666663</ele><time>2026-05-01T07:47:34.351Z</time></trkpt><trkpt lat="46.671435216666666" lon="11.1928286"><ele>504.0</ele><time>2026-05-01T07:47:35.362Z</time></trkpt><trkpt lat="46.67143871666667" lon="11.19305155"><ele>505.0</ele><time>2026-05-01T07:47:36.375Z</time></trkpt><trkpt lat="46.671446033333325" lon="11.193265133333334"><ele>506.0</ele><time>2026-05-01T07:47:37.351Z</time></trkpt><trkpt lat="46.671462850000005" lon="11.19346735"><ele>507.0</ele><time>2026-05-01T07:47:38.357Z</time></trkpt><trkpt lat="46.67149356666667" lon="11.193657283333335"><ele>508.0</ele><time>2026-05-01T07:47:39.374Z</time></trkpt><trkpt lat="46.6715347" lon="11.193843183333334"><ele>509.0</ele><time>2026-05-01T07:47:40.398Z</time></trkpt><trkpt lat="46.671580999999996" lon="11.194024316666665"><ele>510.0</ele><time>2026-05-01T07:47:41.358Z</time></trkpt><trkpt lat="46.67162173333333" lon="11.19419315"><ele>511.0</ele><time>2026-05-01T07:47:42.375Z</time></trkpt><trkpt lat="46.67164975000001" lon="11.194342383333332"><ele>512.0</ele><time>2026-05-01T07:47:43.367Z</time></trkpt><trkpt lat="46.67166941666666" lon="11.194469633333332"><ele>511.99999999999994</ele><time>2026-05-01T07:47:44.357Z</time></trkpt><trkpt lat="46.671682200000006" lon="11.194576183333334"><ele>512.0</ele><time>2026-05-01T07:47:45.375Z</time></trkpt><trkpt lat="46.671689283333336" lon="11.1946718"><ele>512.0</ele><time>2026-05-01T07:47:46.368Z</time></trkpt><trkpt lat="46.6716968" lon="11.194839733333334"><ele>512.0</ele><time>2026-05-01T07:47:48.351Z</time></trkpt><trkpt lat="46.67168941666667" lon="11.194995233333335"><ele>511.99999999999994</ele><time>2026-05-01T07:47:50.358Z</time></trkpt><trkpt lat="46.67167795" lon="11.195103433333333"><ele>512.0</ele><time>2026-05-01T07:47:51.375Z</time></trkpt><trkpt lat="46.67166541666667" lon="11.195224483333334"><ele>513.0</ele><time>2026-05-01T07:47:52.353Z</time></trkpt><trkpt lat="46.67164276666668" lon="11.195356933333334"><ele>514.0</ele><time>2026-05-01T07:47:53.365Z</time></trkpt><trkpt lat="46.67161205000001" lon="11.195499266666666"><ele>515.0</ele><time>2026-05-01T07:47:54.402Z</time></trkpt><trkpt lat="46.67157781666666" lon="11.195655366666665"><ele>516.0</ele><time>2026-05-01T07:47:55.372Z</time></trkpt><trkpt lat="46.671544366666666" lon="11.195824999999997"><ele>517.0</ele><time>2026-05-01T07:47:56.358Z</time></trkpt><trkpt lat="46.67151473333333" lon="11.196014366666668"><ele>519.3333333333334</ele><time>2026-05-01T07:47:57.378Z</time></trkpt><trkpt lat="46.67149503333333" lon="11.196427816666668"><ele>521.6666666666666</ele><time>2026-05-01T07:47:59.357Z</time></trkpt><trkpt lat="46.67150001666667" lon="11.196650316666668"><ele>524.0</ele><time>2026-05-01T07:48:00.349Z</time></trkpt><trkpt lat="46.67150776666667" lon="11.196878833333335"><ele>526.6666666666666</ele><time>2026-05-01T07:48:01.349Z</time></trkpt><trkpt lat="46.67151428333333" lon="11.197112149999997"><ele>529.3333333333334</ele><time>2026-05-01T07:48:02.357Z</time></trkpt><trkpt lat="46.67150358333333" lon="11.197358633333334"><ele>532.0</ele><time>2026-05-01T07:48:03.374Z</time></trkpt><trkpt lat="46.67146816666666" lon="11.197621133333334"><ele>533.6666666666667</ele><time>2026-05-01T07:48:04.355Z</time></trkpt><trkpt lat="46.671418016666664" lon="11.197894016666664"><ele>535.3333333333334</ele><time>2026-05-01T07:48:05.357Z</time></trkpt><trkpt lat="46.6713639" lon="11.1981828"><ele>537.0</ele><time>2026-05-01T07:48:06.374Z</time></trkpt><trkpt lat="46.671319016666665" lon="11.198477600000002"><ele>541.0</ele><time>2026-05-01T07:48:07.367Z</time></trkpt><trkpt lat="46.67127404532112" lon="11.198757120392555"><ele>545.0</ele><time>2026-05-01T07:48:08.357Z</time></trkpt><trkpt lat="46.67126754999999" lon="11.19929555"><ele>547.0</ele><time>2026-05-01T07:48:10.368Z</time></trkpt><trkpt lat="46.671273883333335" lon="11.19955305"><ele>549.0</ele><time>2026-05-01T07:48:11.358Z</time></trkpt><trkpt lat="46.67129164999999" lon="11.199807883333335"><ele>551.0</ele><time>2026-05-01T07:48:12.386Z</time></trkpt><trkpt lat="46.67132343333333" lon="11.200058233333333"><ele>553.3333333333333</ele><time>2026-05-01T07:48:13.372Z</time></trkpt><trkpt lat="46.671363983333336" lon="11.20030471666667"><ele>555.6666666666666</ele><time>2026-05-01T07:48:14.364Z</time></trkpt><trkpt lat="46.67141088333332" lon="11.200549716666666"><ele>558.0</ele><time>2026-05-01T07:48:15.376Z</time></trkpt><trkpt lat="46.671459549999994" lon="11.200788900000001"><ele>559.6666666666666</ele><time>2026-05-01T07:48:16.351Z</time></trkpt><trkpt lat="46.67151053333333" lon="11.201020733333333"><ele>561.3333333333333</ele><time>2026-05-01T07:48:17.358Z</time></trkpt><trkpt lat="46.67156418333334" lon="11.201251716666667"><ele>563.0</ele><time>2026-05-01T07:48:18.376Z</time></trkpt><trkpt lat="46.671618966666664" lon="11.201486283333335"><ele>565.3333333333333</ele><time>2026-05-01T07:48:19.351Z</time></trkpt><trkpt lat="46.67167285000001" lon="11.201722250000001"><ele>567.6666666666666</ele><time>2026-05-01T07:48:20.36Z</time></trkpt><trkpt lat="46.67172826666666" lon="11.201957816666667"><ele>570.0</ele><time>2026-05-01T07:48:21.378Z</time></trkpt><trkpt lat="46.67178283333333" lon="11.202191149999999"><ele>571.6666666666666</ele><time>2026-05-01T07:48:22.368Z</time></trkpt><trkpt lat="46.67183409999999" lon="11.202420466666668"><ele>573.3333333333333</ele><time>2026-05-01T07:48:23.358Z</time></trkpt><trkpt lat="46.67188121666666" lon="11.202641633333332"><ele>575.0</ele><time>2026-05-01T07:48:24.351Z</time></trkpt><trkpt lat="46.67192778333333" lon="11.202850216666667"><ele>576.75</ele><time>2026-05-01T07:48:25.352Z</time></trkpt><trkpt lat="46.67196533333334" lon="11.203052283333333"><ele>578.5</ele><time>2026-05-01T07:48:26.39Z</time></trkpt><trkpt lat="46.67198976666666" lon="11.203246899999998"><ele>580.25</ele><time>2026-05-01T07:48:27.374Z</time></trkpt><trkpt lat="46.67199613333334" lon="11.2034392"><ele>582.0</ele><time>2026-05-01T07:48:28.349Z</time></trkpt><trkpt lat="46.671983166666664" lon="11.203628683333331"><ele>582.25</ele><time>2026-05-01T07:48:29.357Z</time></trkpt><trkpt lat="46.67195456666666" lon="11.203800583333335"><ele>582.5</ele><time>2026-05-01T07:48:30.351Z</time></trkpt><trkpt lat="46.6719122" lon="11.203954533333334"><ele>582.75</ele><time>2026-05-01T07:48:31.39Z</time></trkpt><trkpt lat="46.671856633333334" lon="11.2041037"><ele>583.0</ele><time>2026-05-01T07:48:32.361Z</time></trkpt><trkpt lat="46.67178138333334" lon="11.204245633333334"><ele>587.0</ele><time>2026-05-01T07:48:33.373Z</time></trkpt><trkpt lat="46.67169224999999" lon="11.204376683333331"><ele>591.0</ele><time>2026-05-01T07:48:34.349Z</time></trkpt><trkpt lat="46.67160043333334" lon="11.204496666666667"><ele>595.0</ele><time>2026-05-01T07:48:35.351Z</time></trkpt><trkpt lat="46.67151008333333" lon="11.204609366666668"><ele>599.0</ele><time>2026-05-01T07:48:36.374Z</time></trkpt><trkpt lat="46.67142631666667" lon="11.204721600000001"><ele>603.6</ele><time>2026-05-01T07:48:37.351Z</time></trkpt><trkpt lat="46.67134713333333" lon="11.204839216666668"><ele>608.2</ele><time>2026-05-01T07:48:38.358Z</time></trkpt><trkpt lat="46.671273883333335" lon="11.204963733333335"><ele>612.8000000000001</ele><time>2026-05-01T07:48:39.359Z</time></trkpt><trkpt lat="46.671212133333334" lon="11.205093166666666"><ele>617.4</ele><time>2026-05-01T07:48:40.369Z</time></trkpt><trkpt lat="46.67116396666667" lon="11.205239983333334"><ele>622.0</ele><time>2026-05-01T07:48:41.357Z</time></trkpt><trkpt lat="46.67113293333333" lon="11.205404766666668"><ele>622.0</ele><time>2026-05-01T07:48:42.351Z</time></trkpt><trkpt lat="46.671119100000006" lon="11.205577983333335"><ele>622.0</ele><time>2026-05-01T07:48:43.351Z</time></trkpt><trkpt lat="46.671124616666674" lon="11.205749399999998"><ele>622.0</ele><time>2026-05-01T07:48:44.349Z</time></trkpt><trkpt lat="46.67114561666667" lon="11.205913100000002"><ele>622.0</ele><time>2026-05-01T07:48:45.355Z</time></trkpt><trkpt lat="46.67118478333333" lon="11.206072983333334"><ele>624.0</ele><time>2026-05-01T07:48:46.351Z</time></trkpt><trkpt lat="46.671231649999996" lon="11.206228633333334"><ele>626.0</ele><time>2026-05-01T07:48:47.361Z</time></trkpt><trkpt lat="46.671285716666674" lon="11.206385983333332"><ele>628.0</ele><time>2026-05-01T07:48:48.35Z</time></trkpt><trkpt lat="46.67134471666667" lon="11.206543683333333"><ele>630.0</ele><time>2026-05-01T07:48:49.349Z</time></trkpt><trkpt lat="46.6714013" lon="11.206707166666668"><ele>630.75</ele><time>2026-05-01T07:48:50.365Z</time></trkpt><trkpt lat="46.67144761666667" lon="11.206874633333333"><ele>631.5</ele><time>2026-05-01T07:48:51.378Z</time></trkpt><trkpt lat="46.6714874" lon="11.2070442"><ele>632.25</ele><time>2026-05-01T07:48:52.351Z</time></trkpt><trkpt lat="46.67151586666667" lon="11.207218233333332"><ele>633.0</ele><time>2026-05-01T07:48:53.35Z</time></trkpt><trkpt lat="46.67153103333334" lon="11.207389616666669"><ele>634.0</ele><time>2026-05-01T07:48:54.374Z</time></trkpt><trkpt lat="46.67153698333333" lon="11.20755955"><ele>635.0</ele><time>2026-05-01T07:48:55.372Z</time></trkpt><trkpt lat="46.671532616666674" lon="11.207729683333332"><ele>636.0</ele><time>2026-05-01T07:48:56.358Z</time></trkpt><trkpt lat="46.67152268333333" lon="11.207898583333334"><ele>637.0</ele><time>2026-05-01T07:48:57.375Z</time></trkpt><trkpt lat="46.67151098333334" lon="11.20806245"><ele>637.8</ele><time>2026-05-01T07:48:58.351Z</time></trkpt><trkpt lat="46.67149998333333" lon="11.208219783333334"><ele>638.6</ele><time>2026-05-01T07:48:59.357Z</time></trkpt><trkpt lat="46.67148681666666" lon="11.208368150000002"><ele>639.4</ele><time>2026-05-01T07:49:00.351Z</time></trkpt><trkpt lat="46.67147746666666" lon="11.208507183333332"><ele>640.1999999999999</ele><time>2026-05-01T07:49:01.351Z</time></trkpt><trkpt lat="46.67147083333333" lon="11.208635000000001"><ele>641.0</ele><time>2026-05-01T07:49:02.351Z</time></trkpt><trkpt lat="46.67146788333332" lon="11.208736583333332"><ele>641.0</ele><time>2026-05-01T07:49:03.378Z</time></trkpt><trkpt lat="46.67147205" lon="11.208867383333333"><ele>641.0</ele><time>2026-05-01T07:49:05.364Z</time></trkpt><trkpt lat="46.67147993333333" lon="11.209010933333332"><ele>641.0</ele><time>2026-05-01T07:49:07.371Z</time></trkpt><trkpt lat="46.67148443333334" lon="11.209112616666667"><ele>641.0</ele><time>2026-05-01T07:49:08.359Z</time></trkpt><trkpt lat="46.67148961666667" lon="11.209244016666664"><ele>641.0</ele><time>2026-05-01T07:49:09.378Z</time></trkpt><trkpt lat="46.67150001666667" lon="11.209402299999999"><ele>642.75</ele><time>2026-05-01T07:49:10.351Z</time></trkpt><trkpt lat="46.671517233333326" lon="11.20958405"><ele>644.5</ele><time>2026-05-01T07:49:11.373Z</time></trkpt><trkpt lat="46.67154458333333" lon="11.209792450000002"><ele>646.25</ele><time>2026-05-01T07:49:12.375Z</time></trkpt><trkpt lat="46.67158218333334" lon="11.210026433333333"><ele>648.0</ele><time>2026-05-01T07:49:13.351Z</time></trkpt><trkpt lat="46.671633299999996" lon="11.210264883333332"><ele>649.5</ele><time>2026-05-01T07:49:14.358Z</time></trkpt><trkpt lat="46.67168695" lon="11.21048155"><ele>651.0</ele><time>2026-05-01T07:49:15.355Z</time></trkpt><trkpt lat="46.67173355" lon="11.210673100000001"><ele>652.5</ele><time>2026-05-01T07:49:16.358Z</time></trkpt><trkpt lat="46.6717708" lon="11.21085555"><ele>654.0</ele><time>2026-05-01T07:49:17.358Z</time></trkpt><trkpt lat="46.671788083333325" lon="11.211038716666666"><ele>656.25</ele><time>2026-05-01T07:49:18.351Z</time></trkpt><trkpt lat="46.67177773333332" lon="11.211220533333334"><ele>658.5</ele><time>2026-05-01T07:49:19.351Z</time></trkpt><trkpt lat="46.67173071666666" lon="11.211389516666669"><ele>660.75</ele><time>2026-05-01T07:49:20.372Z</time></trkpt><trkpt lat="46.67165068333334" lon="11.211534383333332"><ele>663.0</ele><time>2026-05-01T07:49:22.351Z</time></trkpt><trkpt lat="46.67143166666666" lon="11.2117"><ele>665.5</ele><time>2026-05-01T07:49:23.358Z</time></trkpt><trkpt lat="46.67131341666666" lon="11.211711099999999"><ele>668.0</ele><time>2026-05-01T07:49:24.374Z</time></trkpt><trkpt lat="46.67119158333333" lon="11.211666566666667"><ele>670.5</ele><time>2026-05-01T07:49:25.357Z</time></trkpt><trkpt lat="46.67108189871237" lon="11.211552213579168"><ele>673.0</ele><time>2026-05-01T07:49:26.373Z</time></trkpt><trkpt lat="46.67096443840365" lon="11.211427659294676"><ele>674.0</ele><time>2026-05-01T07:49:27.374Z</time></trkpt><trkpt lat="46.67084276014749" lon="11.21130419569455"><ele>675.0</ele><time>2026-05-01T07:49:28.354Z</time></trkpt><trkpt lat="46.67072771666667" lon="11.211170099999999"><ele>676.0</ele><time>2026-05-01T07:49:29.359Z</time></trkpt><trkpt lat="46.67062355441555" lon="11.21099778953152"><ele>676.0</ele><time>2026-05-01T07:49:30.391Z</time></trkpt><trkpt lat="46.67047872676688" lon="11.210869014552014"><ele>676.0</ele><time>2026-05-01T07:49:31.357Z</time></trkpt><trkpt lat="46.670295797411434" lon="11.210699238344757"><ele>676.0</ele><time>2026-05-01T07:49:32.357Z</time></trkpt><trkpt lat="46.6700521111055" lon="11.21043887132376"><ele>682.0</ele><time>2026-05-01T07:49:33.374Z</time></trkpt><trkpt lat="46.66989965050016" lon="11.210167795469358"><ele>688.0</ele><time>2026-05-01T07:49:34.351Z</time></trkpt><trkpt lat="46.669761031176265" lon="11.209914927215875"><ele>693.0</ele><time>2026-05-01T07:49:35.365Z</time></trkpt><trkpt lat="46.669641176162855" lon="11.20970181707064"><ele>698.0</ele><time>2026-05-01T07:49:36.375Z</time></trkpt><trkpt lat="46.66954433280359" lon="11.209533502659166"><ele>703.0</ele><time>2026-05-01T07:49:37.351Z</time></trkpt><trkpt lat="46.66943463939655" lon="11.209350216263076"><ele>703.0</ele><time>2026-05-01T07:49:38.359Z</time></trkpt><trkpt lat="46.669311388825" lon="11.209158208502748"><ele>703.0</ele><time>2026-05-01T07:49:39.374Z</time></trkpt><trkpt lat="46.6691719763668" lon="11.20896008601672"><ele>703.0</ele><time>2026-05-01T07:49:40.352Z</time></trkpt><trkpt lat="46.66901381666667" lon="11.208763233333332"><ele>696.3333333333334</ele><time>2026-05-01T07:49:41.359Z</time></trkpt><trkpt lat="46.66883881666666" lon="11.208591999999998"><ele>689.6666666666666</ele><time>2026-05-01T07:49:42.356Z</time></trkpt><trkpt lat="46.668680816666665" lon="11.208436033333331"><ele>683.0</ele><time>2026-05-01T07:49:43.369Z</time></trkpt><trkpt lat="46.668546299999996" lon="11.208282633333333"><ele>696.0</ele><time>2026-05-01T07:49:44.363Z</time></trkpt><trkpt lat="46.66844223333333" lon="11.2081093"><ele>709.0</ele><time>2026-05-01T07:49:45.379Z</time></trkpt><trkpt lat="46.668372466666675" lon="11.207915916666666"><ele>722.0</ele><time>2026-05-01T07:49:46.353Z</time></trkpt><trkpt lat="46.66834173333333" lon="11.207690966666666"><ele>722.0</ele><time>2026-05-01T07:49:47.372Z</time></trkpt><trkpt lat="46.668331699999996" lon="11.207463416666668"><ele>722.0</ele><time>2026-05-01T07:49:48.376Z</time></trkpt><trkpt lat="46.668329549999996" lon="11.207237883333335"><ele>722.0</ele><time>2026-05-01T07:49:49.369Z</time></trkpt><trkpt lat="46.66831133333333" lon="11.207010683333332"><ele>719.3333333333333</ele><time>2026-05-01T07:49:50.358Z</time></trkpt><trkpt lat="46.668256233333345" lon="11.206774499999998"><ele>716.6666666666666</ele><time>2026-05-01T07:49:51.374Z</time></trkpt><trkpt lat="46.66816646666666" lon="11.206529399999999"><ele>714.0</ele><time>2026-05-01T07:49:52.368Z</time></trkpt><trkpt lat="46.66806448333333" lon="11.206275983333335"><ele>714.0</ele><time>2026-05-01T07:49:53.358Z</time></trkpt><trkpt lat="46.66798738333333" lon="11.206025683333333"><ele>714.0</ele><time>2026-05-01T07:49:54.351Z</time></trkpt><trkpt lat="46.66798046666666" lon="11.2055528"><ele>718.6666666666666</ele><time>2026-05-01T07:49:56.366Z</time></trkpt><trkpt lat="46.66804221666666" lon="11.205331766666665"><ele>723.3333333333333</ele><time>2026-05-01T07:49:57.358Z</time></trkpt><trkpt lat="46.66813144999999" lon="11.205134516666666"><ele>728.0</ele><time>2026-05-01T07:49:58.355Z</time></trkpt><trkpt lat="46.66821923333333" lon="11.204958033333332"><ele>728.25</ele><time>2026-05-01T07:49:59.358Z</time></trkpt><trkpt lat="46.668287483333344" lon="11.204777"><ele>728.5</ele><time>2026-05-01T07:50:00.373Z</time></trkpt><trkpt lat="46.668323449999995" lon="11.204587383333335"><ele>728.75</ele><time>2026-05-01T07:50:01.373Z</time></trkpt><trkpt lat="46.668316999999995" lon="11.204410033333334"><ele>729.0</ele><time>2026-05-01T07:50:02.381Z</time></trkpt><trkpt lat="46.66826338333333" lon="11.204251666666668"><ele>729.0</ele><time>2026-05-01T07:50:03.374Z</time></trkpt><trkpt lat="46.668170183333324" lon="11.204117183333334"><ele>729.0</ele><time>2026-05-01T07:50:04.352Z</time></trkpt><trkpt lat="46.668046149999995" lon="11.2040284"><ele>729.0</ele><time>2026-05-01T07:50:05.359Z</time></trkpt><trkpt lat="46.66790258333334" lon="11.204006533333333"><ele>729.0</ele><time>2026-05-01T07:50:06.356Z</time></trkpt><trkpt lat="46.66774941666666" lon="11.204040233333334"><ele>733.0</ele><time>2026-05-01T07:50:07.355Z</time></trkpt><trkpt lat="46.66758408333333" lon="11.204094666666666"><ele>737.0</ele><time>2026-05-01T07:50:08.36Z</time></trkpt><trkpt lat="46.66740575" lon="11.204153683333335"><ele>741.0</ele><time>2026-05-01T07:50:09.378Z</time></trkpt><trkpt lat="46.66721268333334" lon="11.204215816666666"><ele>741.0</ele><time>2026-05-01T07:50:10.369Z</time></trkpt><trkpt lat="46.667024483333336" lon="11.204274116666667"><ele>741.0</ele><time>2026-05-01T07:50:11.352Z</time></trkpt><trkpt lat="46.66685183333334" lon="11.204317366666665"><ele>741.0</ele><time>2026-05-01T07:50:12.375Z</time></trkpt><trkpt lat="46.66669258333333" lon="11.204341383333334"><ele>744.3333333333334</ele><time>2026-05-01T07:50:13.356Z</time></trkpt><trkpt lat="46.666531983333336" lon="11.204343833333333"><ele>747.6666666666667</ele><time>2026-05-01T07:50:14.358Z</time></trkpt><trkpt lat="46.666362933333325" lon="11.204320116666668"><ele>751.0</ele><time>2026-05-01T07:50:15.405Z</time></trkpt><trkpt lat="46.66618651666666" lon="11.204287266666666"><ele>753.0</ele><time>2026-05-01T07:50:16.355Z</time></trkpt><trkpt lat="46.66599309184357" lon="11.20422148320394"><ele>755.0</ele><time>2026-05-01T07:50:17.359Z</time></trkpt><trkpt lat="46.66577304466287" lon="11.204176012345728"><ele>757.0</ele><time>2026-05-01T07:50:18.375Z</time></trkpt><trkpt lat="46.66554099356034" lon="11.204132106548728"><ele>757.0</ele><time>2026-05-01T07:50:19.351Z</time></trkpt><trkpt lat="46.66532455268288" lon="11.204095708784683"><ele>757.0</ele><time>2026-05-01T07:50:20.352Z</time></trkpt><trkpt lat="46.66512198940466" lon="11.204065002135595"><ele>757.0</ele><time>2026-05-01T07:50:21.375Z</time></trkpt><trkpt lat="46.66491483333333" lon="11.204060116666668"><ele>761.0</ele><time>2026-05-01T07:50:22.352Z</time></trkpt><trkpt lat="46.66470051666667" lon="11.204028300000001"><ele>765.0</ele><time>2026-05-01T07:50:23.364Z</time></trkpt><trkpt lat="46.664471500000005" lon="11.204003816666667"><ele>769.0</ele><time>2026-05-01T07:50:24.354Z</time></trkpt><trkpt lat="46.66422776666666" lon="11.203985833333336"><ele>770.5</ele><time>2026-05-01T07:50:25.366Z</time></trkpt><trkpt lat="46.66397386666666" lon="11.203966916666666"><ele>772.0</ele><time>2026-05-01T07:50:26.359Z</time></trkpt><trkpt lat="46.663707599999995" lon="11.203954933333334"><ele>777.5</ele><time>2026-05-01T07:50:27.374Z</time></trkpt><trkpt lat="46.663432799999995" lon="11.203948116666668"><ele>783.0</ele><time>2026-05-01T07:50:28.351Z</time></trkpt><trkpt lat="46.663149250000004" lon="11.203944149999998"><ele>783.0</ele><time>2026-05-01T07:50:29.367Z</time></trkpt><trkpt lat="46.66287385000001" lon="11.20392685"><ele>783.0</ele><time>2026-05-01T07:50:30.375Z</time></trkpt><trkpt lat="46.66261901666667" lon="11.203886183333335"><ele>788.5</ele><time>2026-05-01T07:50:31.369Z</time></trkpt><trkpt lat="46.662381133333334" lon="11.203814516666668"><ele>794.0</ele><time>2026-05-01T07:50:32.359Z</time></trkpt><trkpt lat="46.662149183333334" lon="11.203705099999999"><ele>803.0</ele><time>2026-05-01T07:50:33.35Z</time></trkpt><trkpt lat="46.66191513333333" lon="11.203560799999998"><ele>812.0</ele><time>2026-05-01T07:50:34.389Z</time></trkpt><trkpt lat="46.661685302699034" lon="11.20338019470205"><ele>812.0</ele><time>2026-05-01T07:50:35.357Z</time></trkpt><trkpt lat="46.661441188407466" lon="11.203232701664959"><ele>812.0</ele><time>2026-05-01T07:50:36.376Z</time></trkpt><trkpt lat="46.66118443154362" lon="11.20311934462889"><ele>815.5</ele><time>2026-05-01T07:50:37.35Z</time></trkpt><trkpt lat="46.66091815723298" lon="11.203022221309377"><ele>819.0</ele><time>2026-05-01T07:50:38.377Z</time></trkpt><trkpt lat="46.66066256257358" lon="11.202916822038315"><ele>819.0</ele><time>2026-05-01T07:50:39.379Z</time></trkpt><trkpt lat="46.6604391146166" lon="11.202793902624924"><ele>819.0</ele><time>2026-05-01T07:50:40.37Z</time></trkpt><trkpt lat="46.66023403333333" lon="11.202678366666666"><ele>819.0</ele><time>2026-05-01T07:50:41.359Z</time></trkpt><trkpt lat="46.660065900000006" lon="11.20251195"><ele>819.0</ele><time>2026-05-01T07:50:42.356Z</time></trkpt><trkpt lat="46.65991283333333" lon="11.202368216666665"><ele>819.0</ele><time>2026-05-01T07:50:43.361Z</time></trkpt><trkpt lat="46.65974586666666" lon="11.202265"><ele>819.0</ele><time>2026-05-01T07:50:44.359Z</time></trkpt><trkpt lat="46.659561100000005" lon="11.202188083333333"><ele>819.0</ele><time>2026-05-01T07:50:45.38Z</time></trkpt><trkpt lat="46.6593586" lon="11.202145849999999"><ele>819.0</ele><time>2026-05-01T07:50:46.355Z</time></trkpt><trkpt lat="46.659134200000004" lon="11.202156400000002"><ele>818.0</ele><time>2026-05-01T07:50:47.37Z</time></trkpt><trkpt lat="46.65890209999999" lon="11.202199683333333"><ele>817.0</ele><time>2026-05-01T07:50:48.377Z</time></trkpt><trkpt lat="46.65866656666667" lon="11.202252316666666"><ele>822.0</ele><time>2026-05-01T07:50:49.351Z</time></trkpt><trkpt lat="46.65844478333333" lon="11.202283966666668"><ele>827.0</ele><time>2026-05-01T07:50:50.359Z</time></trkpt><trkpt lat="46.6582368" lon="11.202273666666667"><ele>832.0</ele><time>2026-05-01T07:50:51.351Z</time></trkpt><trkpt lat="46.658022816666666" lon="11.202209016666666"><ele>832.0</ele><time>2026-05-01T07:50:52.351Z</time></trkpt><trkpt lat="46.657804799999994" lon="11.202082533333332"><ele>832.0</ele><time>2026-05-01T07:50:53.359Z</time></trkpt><trkpt lat="46.65758105" lon="11.201928016666667"><ele>843.5</ele><time>2026-05-01T07:50:54.375Z</time></trkpt><trkpt lat="46.65734738333333" lon="11.201780633333332"><ele>855.0</ele><time>2026-05-01T07:50:55.351Z</time></trkpt><trkpt lat="46.65689981666666" lon="11.201558050000001"><ele>854.6666666666667</ele><time>2026-05-01T07:50:57.375Z</time></trkpt><trkpt lat="46.656704616666666" lon="11.201459916666664"><ele>854.3333333333334</ele><time>2026-05-01T07:50:58.35Z</time></trkpt><trkpt lat="46.656534666666666" lon="11.2013406"><ele>854.0</ele><time>2026-05-01T07:50:59.358Z</time></trkpt><trkpt lat="46.65639738333332" lon="11.201195166666665"><ele>854.0</ele><time>2026-05-01T07:51:00.349Z</time></trkpt><trkpt lat="46.65628943333333" lon="11.201029166666666"><ele>854.0</ele><time>2026-05-01T07:51:01.37Z</time></trkpt><trkpt lat="46.656207499999994" lon="11.2008523"><ele>854.0</ele><time>2026-05-01T07:51:02.359Z</time></trkpt><trkpt lat="46.65614681666666" lon="11.2006796"><ele>854.0</ele><time>2026-05-01T07:51:03.382Z</time></trkpt><trkpt lat="46.656097749999994" lon="11.200511616666665"><ele>854.5</ele><time>2026-05-01T07:51:04.366Z</time></trkpt><trkpt lat="46.656044433333335" lon="11.200355483333333"><ele>855.0</ele><time>2026-05-01T07:51:05.37Z</time></trkpt><trkpt lat="46.655969683333325" lon="11.200222383333335"><ele>855.5</ele><time>2026-05-01T07:51:06.39Z</time></trkpt><trkpt lat="46.655871733333335" lon="11.200152533333334"><ele>856.0</ele><time>2026-05-01T07:51:07.352Z</time></trkpt><trkpt lat="46.65576535" lon="11.200164533333334"><ele>856.0</ele><time>2026-05-01T07:51:08.359Z</time></trkpt><trkpt lat="46.65567153333333" lon="11.200237066666666"><ele>855.9999999999999</ele><time>2026-05-01T07:51:09.351Z</time></trkpt><trkpt lat="46.655615649999994" lon="11.200363266666665"><ele>855.9999999999999</ele><time>2026-05-01T07:51:10.365Z</time></trkpt><trkpt lat="46.65561236666667" lon="11.200523400000002"><ele>856.0</ele><time>2026-05-01T07:51:11.359Z</time></trkpt><trkpt lat="46.65566581666667" lon="11.200680283333334"><ele>856.0</ele><time>2026-05-01T07:51:12.378Z</time></trkpt><trkpt lat="46.65576963333333" lon="11.200824383333336"><ele>855.3333333333333</ele><time>2026-05-01T07:51:13.353Z</time></trkpt><trkpt lat="46.65589255" lon="11.200975766666666"><ele>854.6666666666667</ele><time>2026-05-01T07:51:14.363Z</time></trkpt><trkpt lat="46.656014400000004" lon="11.201164316666667"><ele>854.0</ele><time>2026-05-01T07:51:15.374Z</time></trkpt><trkpt lat="46.65614768333333" lon="11.201392483333333"><ele>866.0</ele><time>2026-05-01T07:51:16.369Z</time></trkpt><trkpt lat="46.65629206666667" lon="11.201616183333334"><ele>878.0</ele><time>2026-05-01T07:51:17.358Z</time></trkpt><trkpt lat="46.65645285" lon="11.201797233333332"><ele>890.0</ele><time>2026-05-01T07:51:18.377Z</time></trkpt><trkpt lat="46.656615499999994" lon="11.201934833333334"><ele>890.0</ele><time>2026-05-01T07:51:19.369Z</time></trkpt><trkpt lat="46.656760266666666" lon="11.2020683"><ele>890.0</ele><time>2026-05-01T07:51:20.359Z</time></trkpt><trkpt lat="46.6568843" lon="11.202225033333331"><ele>890.0</ele><time>2026-05-01T07:51:21.375Z</time></trkpt><trkpt lat="46.65699603333334" lon="11.20240375"><ele>889.6666666666667</ele><time>2026-05-01T07:51:22.352Z</time></trkpt><trkpt lat="46.657087616666665" lon="11.202605066666669"><ele>889.3333333333333</ele><time>2026-05-01T07:51:23.358Z</time></trkpt><trkpt lat="46.65716486666667" lon="11.202847550000001"><ele>889.0</ele><time>2026-05-01T07:51:24.371Z</time></trkpt><trkpt lat="46.657243833333325" lon="11.203097933333334"><ele>900.0</ele><time>2026-05-01T07:51:25.37Z</time></trkpt><trkpt lat="46.6573363" lon="11.203327000000002"><ele>911.0</ele><time>2026-05-01T07:51:26.367Z</time></trkpt><trkpt lat="46.657459483333334" lon="11.203537416666665"><ele>922.0</ele><time>2026-05-01T07:51:27.352Z</time></trkpt><trkpt lat="46.657620383333345" lon="11.203725833333332"><ele>920.0</ele><time>2026-05-01T07:51:28.353Z</time></trkpt><trkpt lat="46.6577975" lon="11.203888933333333"><ele>918.0</ele><time>2026-05-01T07:51:29.358Z</time></trkpt><trkpt lat="46.65796565" lon="11.204046183333332"><ele>916.0</ele><time>2026-05-01T07:51:30.376Z</time></trkpt><trkpt lat="46.6581137" lon="11.2042292"><ele>916.0</ele><time>2026-05-01T07:51:31.352Z</time></trkpt><trkpt lat="46.658229899999995" lon="11.204453066666668"><ele>916.0</ele><time>2026-05-01T07:51:32.365Z</time></trkpt><trkpt lat="46.65833006666667" lon="11.204709733333333"><ele>916.0</ele><time>2026-05-01T07:51:33.358Z</time></trkpt><trkpt lat="46.658443950000006" lon="11.204967666666667"><ele>917.0</ele><time>2026-05-01T07:51:34.369Z</time></trkpt><trkpt lat="46.65856496894495" lon="11.205257419204681"><ele>918.0</ele><time>2026-05-01T07:51:35.358Z</time></trkpt><trkpt lat="46.65875406312413" lon="11.205468474799554"><ele>932.5</ele><time>2026-05-01T07:51:36.372Z</time></trkpt><trkpt lat="46.65895576666667" lon="11.205668966666668"><ele>947.0</ele><time>2026-05-01T07:51:37.361Z</time></trkpt><trkpt lat="46.659138466666676" lon="11.205905566666669"><ele>947.0</ele><time>2026-05-01T07:51:38.381Z</time></trkpt><trkpt lat="46.659291025697875" lon="11.20617583111067"><ele>947.0</ele><time>2026-05-01T07:51:39.371Z</time></trkpt><trkpt lat="46.659460549048866" lon="11.206421059735113"><ele>949.0</ele><time>2026-05-01T07:51:40.351Z</time></trkpt><trkpt lat="46.65964718192838" lon="11.20664732685942"><ele>951.0</ele><time>2026-05-01T07:51:41.36Z</time></trkpt><trkpt lat="46.65985289528192" lon="11.206852823074023"><ele>951.0</ele><time>2026-05-01T07:51:42.349Z</time></trkpt><trkpt lat="46.6600749479505" lon="11.207029078785189"><ele>951.0</ele><time>2026-05-01T07:51:43.352Z</time></trkpt><trkpt lat="46.66030993041413" lon="11.20718120644421"><ele>946.0</ele><time>2026-05-01T07:51:44.36Z</time></trkpt><trkpt lat="46.66055876666666" lon="11.207271116666666"><ele>941.0</ele><time>2026-05-01T07:51:45.376Z</time></trkpt><trkpt lat="46.6608108" lon="11.207364299999998"><ele>957.5</ele><time>2026-05-01T07:51:46.357Z</time></trkpt><trkpt lat="46.6610732" lon="11.207420116666666"><ele>974.0</ele><time>2026-05-01T07:51:47.353Z</time></trkpt><trkpt lat="46.66134945" lon="11.207443999999997"><ele>974.0</ele><time>2026-05-01T07:51:48.349Z</time></trkpt><trkpt lat="46.66162518333334" lon="11.207459083333335"><ele>974.0</ele><time>2026-05-01T07:51:49.369Z</time></trkpt><trkpt lat="46.66188101666667" lon="11.207477850000002"><ele>973.5</ele><time>2026-05-01T07:51:50.359Z</time></trkpt><trkpt lat="46.66211663333333" lon="11.207530249999998"><ele>973.0</ele><time>2026-05-01T07:51:51.353Z</time></trkpt><trkpt lat="46.66233643333333" lon="11.207606066666665"><ele>973.0</ele><time>2026-05-01T07:51:52.369Z</time></trkpt><trkpt lat="46.662535933333324" lon="11.207663233333335"><ele>973.0</ele><time>2026-05-01T07:51:53.364Z</time></trkpt><trkpt lat="46.66271906666666" lon="11.207692999999999"><ele>973.0</ele><time>2026-05-01T07:51:54.376Z</time></trkpt><trkpt lat="46.662883650000005" lon="11.2077152"><ele>970.5999999999999</ele><time>2026-05-01T07:51:55.355Z</time></trkpt><trkpt lat="46.66302028333333" lon="11.207759316666666"><ele>968.1999999999999</ele><time>2026-05-01T07:51:56.375Z</time></trkpt><trkpt lat="46.66312198333333" lon="11.207834983333331"><ele>965.8</ele><time>2026-05-01T07:51:57.371Z</time></trkpt><trkpt lat="46.663185183333326" lon="11.20794525"><ele>963.4</ele><time>2026-05-01T07:51:58.352Z</time></trkpt><trkpt lat="46.66319921666666" lon="11.208076466666668"><ele>961.0</ele><time>2026-05-01T07:51:59.367Z</time></trkpt><trkpt lat="46.66316326666667" lon="11.208197266666666"><ele>967.0</ele><time>2026-05-01T07:52:00.378Z</time></trkpt><trkpt lat="46.66309165" lon="11.208297450000002"><ele>973.0</ele><time>2026-05-01T07:52:01.369Z</time></trkpt><trkpt lat="46.66299055591008" lon="11.208310500035932"><ele>979.0</ele><time>2026-05-01T07:52:02.359Z</time></trkpt><trkpt lat="46.6628704" lon="11.20829245"><ele>985.0</ele><time>2026-05-01T07:52:03.371Z</time></trkpt><trkpt lat="46.6627659443271" lon="11.208175125593396"><ele>981.0</ele><time>2026-05-01T07:52:04.352Z</time></trkpt><trkpt lat="46.66264291666666" lon="11.208077283333335"><ele>977.0</ele><time>2026-05-01T07:52:05.367Z</time></trkpt><trkpt lat="46.66252368133515" lon="11.20794469804286"><ele>973.0</ele><time>2026-05-01T07:52:06.376Z</time></trkpt><trkpt lat="46.66236418610546" lon="11.207882070107857"><ele>973.0</ele><time>2026-05-01T07:52:07.352Z</time></trkpt><trkpt lat="46.662194190773" lon="11.207893654288412"><ele>973.0</ele><time>2026-05-01T07:52:08.367Z</time></trkpt><trkpt lat="46.66202141666666" lon="11.207976599999999"><ele>973.0</ele><time>2026-05-01T07:52:09.371Z</time></trkpt><trkpt lat="46.66183383562014" lon="11.208017322194365"><ele>973.3333333333333</ele><time>2026-05-01T07:52:10.389Z</time></trkpt><trkpt lat="46.66163853333334" lon="11.2081019"><ele>973.6666666666667</ele><time>2026-05-01T07:52:11.359Z</time></trkpt><trkpt lat="46.66142329999999" lon="11.208159883333334"><ele>974.0</ele><time>2026-05-01T07:52:12.371Z</time></trkpt><trkpt lat="46.66119493333334" lon="11.208228816666667"><ele>995.0</ele><time>2026-05-01T07:52:13.355Z</time></trkpt><trkpt lat="46.6609556" lon="11.208301083333334"><ele>1016.0</ele><time>2026-05-01T07:52:14.367Z</time></trkpt><trkpt lat="46.660704249999995" lon="11.208339750000002"><ele>1016.0</ele><time>2026-05-01T07:52:15.375Z</time></trkpt><trkpt lat="46.66044543333334" lon="11.20832325"><ele>1016.0</ele><time>2026-05-01T07:52:16.351Z</time></trkpt><trkpt lat="46.66018001666666" lon="11.208262466666667"><ele>1004.0</ele><time>2026-05-01T07:52:17.358Z</time></trkpt><trkpt lat="46.65990488333333" lon="11.20815963333333"><ele>992.0</ele><time>2026-05-01T07:52:18.377Z</time></trkpt><trkpt lat="46.65962066666666" lon="11.208034083333333"><ele>1007.0</ele><time>2026-05-01T07:52:19.364Z</time></trkpt><trkpt lat="46.659326316666665" lon="11.207899650000002"><ele>1022.0</ele><time>2026-05-01T07:52:20.359Z</time></trkpt><trkpt lat="46.65902405" lon="11.207768483333332"><ele>1022.0</ele><time>2026-05-01T07:52:21.372Z</time></trkpt><trkpt lat="46.6587328" lon="11.20762905"><ele>1022.0</ele><time>2026-05-01T07:52:22.351Z</time></trkpt><trkpt lat="46.65846815" lon="11.207482866666664"><ele>1015.5</ele><time>2026-05-01T07:52:23.374Z</time></trkpt><trkpt lat="46.65822463333333" lon="11.207363016666667"><ele>1009.0</ele><time>2026-05-01T07:52:24.372Z</time></trkpt><trkpt lat="46.657996616666665" lon="11.207274433333335"><ele>1021.0</ele><time>2026-05-01T07:52:25.369Z</time></trkpt><trkpt lat="46.65777551666667" lon="11.207208016666668"><ele>1033.0</ele><time>2026-05-01T07:52:26.359Z</time></trkpt><trkpt lat="46.657560950000004" lon="11.207149983333332"><ele>1045.0</ele><time>2026-05-01T07:52:27.379Z</time></trkpt><trkpt lat="46.657368600000005" lon="11.207071616666667"><ele>1045.0</ele><time>2026-05-01T07:52:28.352Z</time></trkpt><trkpt lat="46.65719141666667" lon="11.206970916666666"><ele>1045.0</ele><time>2026-05-01T07:52:29.358Z</time></trkpt><trkpt lat="46.65702764552028" lon="11.20681121228975"><ele>1045.0</ele><time>2026-05-01T07:52:30.374Z</time></trkpt><trkpt lat="46.656860518985525" lon="11.206609754611272"><ele>1052.5</ele><time>2026-05-01T07:52:31.35Z</time></trkpt><trkpt lat="46.65668353638088" lon="11.206374265986168"><ele>1060.0</ele><time>2026-05-01T07:52:32.359Z</time></trkpt><trkpt lat="46.65650525298587" lon="11.20613461965667"><ele>1060.0</ele><time>2026-05-01T07:52:33.375Z</time></trkpt><trkpt lat="46.6563270742799" lon="11.205895014459088"><ele>1060.0</ele><time>2026-05-01T07:52:34.352Z</time></trkpt><trkpt lat="46.656149218552564" lon="11.205655774918156"><ele>1063.0</ele><time>2026-05-01T07:52:35.359Z</time></trkpt><trkpt lat="46.6559112449413" lon="11.205346236484198"><ele>1066.0</ele><time>2026-05-01T07:52:36.377Z</time></trkpt><trkpt lat="46.65564555740036" lon="11.20513387224485"><ele>1066.0</ele><time>2026-05-01T07:52:37.37Z</time></trkpt><trkpt lat="46.6553438771841" lon="11.205004037522228"><ele>1066.0</ele><time>2026-05-01T07:52:38.364Z</time></trkpt><trkpt lat="46.655460899999994" lon="11.205389900000002"><ele>1066.0</ele><time>2026-05-01T07:52:39.374Z</time></trkpt><trkpt lat="46.655314583333336" lon="11.205231966666668"><ele>1066.0</ele><time>2026-05-01T07:52:40.352Z</time></trkpt><trkpt lat="46.655153310500474" lon="11.204956620462882"><ele>1066.0</ele><time>2026-05-01T07:52:41.35Z</time></trkpt><trkpt lat="46.65493713657306" lon="11.204898076793658"><ele>1059.0</ele><time>2026-05-01T07:52:42.403Z</time></trkpt><trkpt lat="46.65470171022599" lon="11.204828047083026"><ele>1052.0</ele><time>2026-05-01T07:52:43.352Z</time></trkpt><trkpt lat="46.654481330150574" lon="11.204755804166599"><ele>1054.3333333333335</ele><time>2026-05-01T07:52:44.362Z</time></trkpt><trkpt lat="46.65428333333333" lon="11.204725434995849"><ele>1056.6666666666667</ele><time>2026-05-01T07:52:45.351Z</time></trkpt><trkpt lat="46.65407531398498" lon="11.204750474989224"><ele>1059.0</ele><time>2026-05-01T07:52:46.352Z</time></trkpt><trkpt lat="46.65386176255657" lon="11.204843502404955"><ele>1069.6666666666667</ele><time>2026-05-01T07:52:47.363Z</time></trkpt><trkpt lat="46.65367225317468" lon="11.2049892329171"><ele>1080.3333333333335</ele><time>2026-05-01T07:52:48.373Z</time></trkpt><trkpt lat="46.65349327213649" lon="11.205107488100758"><ele>1091.0</ele><time>2026-05-01T07:52:49.352Z</time></trkpt><trkpt lat="46.6532830060541" lon="11.205180375043831"><ele>1091.0</ele><time>2026-05-01T07:52:50.359Z</time></trkpt><trkpt lat="46.65305464661067" lon="11.20523631067211"><ele>1091.0</ele><time>2026-05-01T07:52:51.372Z</time></trkpt><trkpt lat="46.65280774739777" lon="11.205294285283168"><ele>1080.0</ele><time>2026-05-01T07:52:52.369Z</time></trkpt><trkpt lat="46.65230690108314" lon="11.205557510349248"><ele>1091.0</ele><time>2026-05-01T07:52:54.355Z</time></trkpt><trkpt lat="46.65206329565036" lon="11.20575040924041"><ele>1102.0</ele><time>2026-05-01T07:52:55.369Z</time></trkpt><trkpt lat="46.65182924384279" lon="11.205942922764468"><ele>1102.0</ele><time>2026-05-01T07:52:56.359Z</time></trkpt><trkpt lat="46.65159830426515" lon="11.206116111794229"><ele>1102.0</ele><time>2026-05-01T07:52:57.372Z</time></trkpt><trkpt lat="46.65137459752126" lon="11.206262980518408"><ele>1102.0</ele><time>2026-05-01T07:52:58.352Z</time></trkpt><trkpt lat="46.65114999851614" lon="11.206379562925129"><ele>1102.0</ele><time>2026-05-01T07:52:59.352Z</time></trkpt><trkpt lat="46.65091768525704" lon="11.206476116245124"><ele>1128.5</ele><time>2026-05-01T07:53:00.377Z</time></trkpt><trkpt lat="46.650685961020514" lon="11.206562486516473"><ele>1155.0</ele><time>2026-05-01T07:53:01.37Z</time></trkpt><trkpt lat="46.65040831150386" lon="11.206656884623337"><ele>1159.5</ele><time>2026-05-01T07:53:02.359Z</time></trkpt><trkpt lat="46.65010974528437" lon="11.206758394154376"><ele>1164.0</ele><time>2026-05-01T07:53:03.372Z</time></trkpt><trkpt lat="46.649832828839486" lon="11.206872215194256"><ele>1186.5</ele><time>2026-05-01T07:53:04.372Z</time></trkpt><trkpt lat="46.64961738333333" lon="11.2073759"><ele>1209.0</ele><time>2026-05-01T07:53:05.36Z</time></trkpt><trkpt lat="46.6493448" lon="11.207525233333335"><ele>1211.0</ele><time>2026-05-01T07:53:06.375Z</time></trkpt><trkpt lat="46.64907248333334" lon="11.207674416666668"><ele>1213.0</ele><time>2026-05-01T07:53:07.35Z</time></trkpt><trkpt lat="46.64896256666666" lon="11.20754735"><ele>1215.0</ele><time>2026-05-01T07:53:09.358Z</time></trkpt><trkpt lat="46.648793766666664" lon="11.207482383333335"><ele>1214.3333333333333</ele><time>2026-05-01T07:53:10.355Z</time></trkpt><trkpt lat="46.64862496666666" lon="11.207377966666666"><ele>1213.6666666666665</ele><time>2026-05-01T07:53:11.359Z</time></trkpt><trkpt lat="46.64844003333332" lon="11.207350850000001"><ele>1213.0</ele><time>2026-05-01T07:53:12.372Z</time></trkpt><trkpt lat="46.648258366666674" lon="11.20737656666667"><ele>1213.0</ele><time>2026-05-01T07:53:13.369Z</time></trkpt><trkpt lat="46.648111316666665" lon="11.207470799999998"><ele>1213.0</ele><time>2026-05-01T07:53:14.381Z</time></trkpt><trkpt lat="46.6479885" lon="11.20759791666667"><ele>1213.0</ele><time>2026-05-01T07:53:15.376Z</time></trkpt><trkpt lat="46.647866783333335" lon="11.207736766666669"><ele>1220.3333333333333</ele><time>2026-05-01T07:53:16.352Z</time></trkpt><trkpt lat="46.6477484" lon="11.207891716666666"><ele>1227.6666666666667</ele><time>2026-05-01T07:53:17.367Z</time></trkpt><trkpt lat="46.64762988333333" lon="11.208046816666666"><ele>1235.0</ele><time>2026-05-01T07:53:18.376Z</time></trkpt><trkpt lat="46.64751136666666" lon="11.208201916666665"><ele>1235.6666666666667</ele><time>2026-05-01T07:53:19.369Z</time></trkpt><trkpt lat="46.64739285000001" lon="11.208357016666664"><ele>1236.3333333333333</ele><time>2026-05-01T07:53:20.363Z</time></trkpt><trkpt lat="46.647274216666666" lon="11.208512266666666"><ele>1237.0</ele><time>2026-05-01T07:53:21.376Z</time></trkpt><trkpt lat="46.64715581666666" lon="11.208667216666667"><ele>1237.0</ele><time>2026-05-01T07:53:22.37Z</time></trkpt><trkpt lat="46.64703718333334" lon="11.208822483333332"><ele>1237.0</ele><time>2026-05-01T07:53:23.354Z</time></trkpt><trkpt lat="46.64691878333333" lon="11.208977416666668"><ele>1237.0</ele><time>2026-05-01T07:53:24.38Z</time></trkpt><trkpt lat="46.646800266666666" lon="11.20913253333333"><ele>1233.0</ele><time>2026-05-01T07:53:25.37Z</time></trkpt><trkpt lat="46.646681750000006" lon="11.209287633333334"><ele>1229.0</ele><time>2026-05-01T07:53:26.359Z</time></trkpt><trkpt lat="46.646563116666655" lon="11.209442883333335"><ele>1225.0</ele><time>2026-05-01T07:53:27.356Z</time></trkpt><trkpt lat="46.64644471666667" lon="11.209597833333332"><ele>1225.0</ele><time>2026-05-01T07:53:28.352Z</time></trkpt><trkpt lat="46.646326200000004" lon="11.209752933333334"><ele>1225.0</ele><time>2026-05-01T07:53:29.359Z</time></trkpt><trkpt lat="46.64620768333332" lon="11.209908033333333"><ele>1225.0</ele><time>2026-05-01T07:53:30.375Z</time></trkpt><trkpt lat="46.64608905" lon="11.210063283333334"><ele>1219.0</ele><time>2026-05-01T07:53:31.353Z</time></trkpt><trkpt lat="46.645970649999995" lon="11.210218233333334"><ele>1213.0</ele><time>2026-05-01T07:53:32.354Z</time></trkpt><trkpt lat="46.64585213333333" lon="11.210373333333333"><ele>1207.0</ele><time>2026-05-01T07:53:33.376Z</time></trkpt><trkpt lat="46.64573361666667" lon="11.210528433333332"><ele>1204.0</ele><time>2026-05-01T07:53:34.358Z</time></trkpt><trkpt lat="46.64561498333334" lon="11.2106837"><ele>1201.0</ele><time>2026-05-01T07:53:35.382Z</time></trkpt><trkpt lat="46.645496466666664" lon="11.2108388"><ele>1198.0</ele><time>2026-05-01T07:53:36.396Z</time></trkpt><trkpt lat="46.64537808333333" lon="11.21099375"><ele>1198.0</ele><time>2026-05-01T07:53:37.385Z</time></trkpt><trkpt lat="46.64573195" lon="11.210785099999997"><ele>1198.0</ele><time>2026-05-01T07:53:38.431Z</time></trkpt><trkpt lat="46.64580718333333" lon="11.210994266666667"><ele>1198.0</ele><time>2026-05-01T07:53:39.381Z</time></trkpt><trkpt lat="46.6458833" lon="11.21121485"><ele>1198.0</ele><time>2026-05-01T07:53:40.405Z</time></trkpt><trkpt lat="46.64593638333334" lon="11.21143025"><ele>1198.0</ele><time>2026-05-01T07:53:41.366Z</time></trkpt><trkpt lat="46.64599103333333" lon="11.211637683333334"><ele>1199.5</ele><time>2026-05-01T07:53:42.375Z</time></trkpt><trkpt lat="46.646036083333335" lon="11.2118515"><ele>1201.0</ele><time>2026-05-01T07:53:43.369Z</time></trkpt><trkpt lat="46.646061849999995" lon="11.212067016666667"><ele>1202.5</ele><time>2026-05-01T07:53:44.351Z</time></trkpt><trkpt lat="46.64607803333333" lon="11.212277483333333"><ele>1204.0</ele><time>2026-05-01T07:53:45.353Z</time></trkpt><trkpt lat="46.64607855" lon="11.212479550000001"><ele>1207.5</ele><time>2026-05-01T07:53:46.388Z</time></trkpt><trkpt lat="46.64607181666667" lon="11.212673683333334"><ele>1211.0</ele><time>2026-05-01T07:53:47.349Z</time></trkpt><trkpt lat="46.646061716666665" lon="11.212867483333333"><ele>1214.5</ele><time>2026-05-01T07:53:48.349Z</time></trkpt><trkpt lat="46.64605608333333" lon="11.213070333333334"><ele>1218.0</ele><time>2026-05-01T07:53:49.373Z</time></trkpt><trkpt lat="46.64606618333334" lon="11.2132726"><ele>1220.25</ele><time>2026-05-01T07:53:50.368Z</time></trkpt><trkpt lat="46.64608916666666" lon="11.213475950000001"><ele>1222.5</ele><time>2026-05-01T07:53:51.376Z</time></trkpt><trkpt lat="46.64611848333334" lon="11.213683"><ele>1224.75</ele><time>2026-05-01T07:53:52.369Z</time></trkpt><trkpt lat="46.646154800000005" lon="11.2138852"><ele>1227.0</ele><time>2026-05-01T07:53:53.351Z</time></trkpt><trkpt lat="46.64623971666667" lon="11.214269966666667"><ele>1237.75</ele><time>2026-05-01T07:53:55.364Z</time></trkpt><trkpt lat="46.64629061666667" lon="11.214449366666667"><ele>1248.5</ele><time>2026-05-01T07:53:56.352Z</time></trkpt><trkpt lat="46.64634876666668" lon="11.214616049999998"><ele>1259.25</ele><time>2026-05-01T07:53:57.371Z</time></trkpt><trkpt lat="46.64640831666667" lon="11.214779300000002"><ele>1270.0</ele><time>2026-05-01T07:53:58.372Z</time></trkpt><trkpt lat="46.64646415000001" lon="11.21494435"><ele>1270.0</ele><time>2026-05-01T07:53:59.359Z</time></trkpt><trkpt lat="46.646518783333335" lon="11.21510475"><ele>1270.0</ele><time>2026-05-01T07:54:00.376Z</time></trkpt><trkpt lat="46.64657353333333" lon="11.215253299999999"><ele>1270.0</ele><time>2026-05-01T07:54:01.37Z</time></trkpt><trkpt lat="46.64662651666666" lon="11.2154025"><ele>1270.0</ele><time>2026-05-01T07:54:02.349Z</time></trkpt><trkpt lat="46.6466719" lon="11.21555405"><ele>1265.25</ele><time>2026-05-01T07:54:03.351Z</time></trkpt><trkpt lat="46.646720800000004" lon="11.215696266666665"><ele>1260.5</ele><time>2026-05-01T07:54:04.351Z</time></trkpt><trkpt lat="46.64677308333333" lon="11.21583971666667"><ele>1255.75</ele><time>2026-05-01T07:54:05.353Z</time></trkpt><trkpt lat="46.646833" lon="11.2159836"><ele>1251.0</ele><time>2026-05-01T07:54:06.373Z</time></trkpt><trkpt lat="46.646908133333326" lon="11.216110466666665"><ele>1256.75</ele><time>2026-05-01T07:54:07.351Z</time></trkpt><trkpt lat="46.64698553333333" lon="11.216229666666667"><ele>1262.5</ele><time>2026-05-01T07:54:08.366Z</time></trkpt><trkpt lat="46.64707166666667" lon="11.216337"><ele>1268.25</ele><time>2026-05-01T07:54:09.375Z</time></trkpt><trkpt lat="46.64716413333334" lon="11.216438733333334"><ele>1274.0</ele><time>2026-05-01T07:54:10.371Z</time></trkpt><trkpt lat="46.647262766666664" lon="11.216537500000001"><ele>1274.0</ele><time>2026-05-01T07:54:11.35Z</time></trkpt><trkpt lat="46.64736091666667" lon="11.216649399999998"><ele>1274.0</ele><time>2026-05-01T07:54:12.376Z</time></trkpt><trkpt lat="46.647453933333324" lon="11.216781150000001"><ele>1274.0</ele><time>2026-05-01T07:54:13.353Z</time></trkpt><trkpt lat="46.64752985" lon="11.21692065"><ele>1274.0</ele><time>2026-05-01T07:54:14.351Z</time></trkpt><trkpt lat="46.64760303333334" lon="11.217061416666665"><ele>1274.0</ele><time>2026-05-01T07:54:15.372Z</time></trkpt><trkpt lat="46.6476537" lon="11.217195983333333"><ele>1274.0</ele><time>2026-05-01T07:54:16.37Z</time></trkpt><trkpt lat="46.64768049999999" lon="11.217336583333335"><ele>1274.0</ele><time>2026-05-01T07:54:17.369Z</time></trkpt><trkpt lat="46.647626978684535" lon="11.217523130693964"><ele>1274.0</ele><time>2026-05-01T07:54:18.374Z</time></trkpt><trkpt lat="46.64766359816992" lon="11.21766341103396"><ele>1274.0</ele><time>2026-05-01T07:54:19.353Z</time></trkpt><trkpt lat="46.647720516666666" lon="11.21778595"><ele>1268.5</ele><time>2026-05-01T07:54:20.35Z</time></trkpt><trkpt lat="46.64773135000001" lon="11.217935133333334"><ele>1263.0</ele><time>2026-05-01T07:54:21.351Z</time></trkpt><trkpt lat="46.647742199999996" lon="11.218084466666667"><ele>1257.5</ele><time>2026-05-01T07:54:22.353Z</time></trkpt><trkpt lat="46.64775305" lon="11.2182338"><ele>1252.0</ele><time>2026-05-01T07:54:23.351Z</time></trkpt><trkpt lat="46.64805282759877" lon="11.218325539888214"><ele>1251.3333333333333</ele><time>2026-05-01T07:54:24.372Z</time></trkpt><trkpt lat="46.64812609733995" lon="11.218206409230746"><ele>1250.6666666666667</ele><time>2026-05-01T07:54:25.371Z</time></trkpt><trkpt lat="46.64820101261681" lon="11.218293266395499"><ele>1250.0</ele><time>2026-05-01T07:54:26.366Z</time></trkpt><trkpt lat="46.64848177523109" lon="11.218603988728967"><ele>1250.0</ele><time>2026-05-01T07:54:28.372Z</time></trkpt><trkpt lat="46.648513272199345" lon="11.21873510236793"><ele>1250.0</ele><time>2026-05-01T07:54:29.351Z</time></trkpt><trkpt lat="46.64848672208806" lon="11.219022050000001"><ele>1250.0</ele><time>2026-05-01T07:54:30.376Z</time></trkpt><trkpt lat="46.64848919546553" lon="11.219150171332831"><ele>1250.0</ele><time>2026-05-01T07:54:31.373Z</time></trkpt><trkpt lat="46.64849019095055" lon="11.219324213954417"><ele>1248.75</ele><time>2026-05-01T07:54:32.359Z</time></trkpt><trkpt lat="46.648474049686584" lon="11.21949622304418"><ele>1247.5</ele><time>2026-05-01T07:54:33.372Z</time></trkpt><trkpt lat="46.648439479041954" lon="11.219697328172153"><ele>1246.25</ele><time>2026-05-01T07:54:34.371Z</time></trkpt><trkpt lat="46.64839130598254" lon="11.21988804879368"><ele>1245.0</ele><time>2026-05-01T07:54:35.365Z</time></trkpt><trkpt lat="46.64832071640994" lon="11.220065274790967"><ele>1245.0</ele><time>2026-05-01T07:54:36.352Z</time></trkpt><trkpt lat="46.64825016552512" lon="11.220234131708745"><ele>1245.0</ele><time>2026-05-01T07:54:37.37Z</time></trkpt><trkpt lat="46.64821526045271" lon="11.220382133317404"><ele>1245.0</ele><time>2026-05-01T07:54:38.372Z</time></trkpt><trkpt lat="46.64813332518395" lon="11.220550590480924"><ele>1245.0</ele><time>2026-05-01T07:54:39.351Z</time></trkpt><trkpt lat="46.64808330079534" lon="11.220722969646886"><ele>1246.5</ele><time>2026-05-01T07:54:40.373Z</time></trkpt><trkpt lat="46.648032928367854" lon="11.220896548048628"><ele>1248.0</ele><time>2026-05-01T07:54:41.36Z</time></trkpt><trkpt lat="46.64816244072645" lon="11.220937869097167"><ele>1249.5</ele><time>2026-05-01T07:54:42.351Z</time></trkpt><trkpt lat="46.648152047673385" lon="11.221099897131783"><ele>1251.0</ele><time>2026-05-01T07:54:43.381Z</time></trkpt><trkpt lat="46.64828437263907" lon="11.221365608567325"><ele>1225.0</ele><time>2026-05-01T07:54:44.351Z</time></trkpt><trkpt lat="46.647539566666666" lon="11.221467316666669"><ele>1226.25</ele><time>2026-05-01T07:54:45.352Z</time></trkpt><trkpt lat="46.64745051666667" lon="11.221642683333334"><ele>1227.5</ele><time>2026-05-01T07:54:46.373Z</time></trkpt><trkpt lat="46.64736783333333" lon="11.22180835"><ele>1228.75</ele><time>2026-05-01T07:54:47.373Z</time></trkpt><trkpt lat="46.647295283333335" lon="11.221960000000001"><ele>1230.0</ele><time>2026-05-01T07:54:48.372Z</time></trkpt><trkpt lat="46.64723078333333" lon="11.222107833333332"><ele>1230.0</ele><time>2026-05-01T07:54:49.371Z</time></trkpt><trkpt lat="46.647180150000004" lon="11.222261483333334"><ele>1230.0</ele><time>2026-05-01T07:54:50.392Z</time></trkpt><trkpt lat="46.647141899999994" lon="11.222424833333333"><ele>1230.0</ele><time>2026-05-01T07:54:51.355Z</time></trkpt><trkpt lat="46.64712123333334" lon="11.222594683333332"><ele>1230.0</ele><time>2026-05-01T07:54:52.358Z</time></trkpt><trkpt lat="46.64711528333334" lon="11.222770133333333"><ele>1232.5</ele><time>2026-05-01T07:54:53.352Z</time></trkpt><trkpt lat="46.647118750000004" lon="11.22295163333333"><ele>1235.0</ele><time>2026-05-01T07:54:54.352Z</time></trkpt><trkpt lat="46.647127033333334" lon="11.223133900000002"><ele>1237.5</ele><time>2026-05-01T07:54:55.372Z</time></trkpt><trkpt lat="46.6471369" lon="11.223305583333335"><ele>1240.0</ele><time>2026-05-01T07:54:56.374Z</time></trkpt><trkpt lat="46.64713913333333" lon="11.223476049999999"><ele>1241.25</ele><time>2026-05-01T07:54:57.372Z</time></trkpt><trkpt lat="46.6471214" lon="11.223650283333333"><ele>1242.5</ele><time>2026-05-01T07:54:58.35Z</time></trkpt><trkpt lat="46.64709613333333" lon="11.223826383333334"><ele>1243.75</ele><time>2026-05-01T07:54:59.381Z</time></trkpt><trkpt lat="46.64706606666667" lon="11.224011133333333"><ele>1245.0</ele><time>2026-05-01T07:55:00.376Z</time></trkpt><trkpt lat="46.647023183333346" lon="11.2241877"><ele>1257.5</ele><time>2026-05-01T07:55:01.353Z</time></trkpt><trkpt lat="46.64689291134703" lon="11.224275200044133"><ele>1270.0</ele><time>2026-05-01T07:55:02.35Z</time></trkpt><trkpt lat="46.64681351897624" lon="11.224378151336701"><ele>1282.5</ele><time>2026-05-01T07:55:03.372Z</time></trkpt><trkpt lat="46.6467403927862" lon="11.224510351717877"><ele>1295.0</ele><time>2026-05-01T07:55:04.37Z</time></trkpt><trkpt lat="46.646667266397905" lon="11.224642551867756"><ele>1295.0</ele><time>2026-05-01T07:55:05.37Z</time></trkpt><trkpt lat="46.64657442678667" lon="11.224675330206596"><ele>1295.0</ele><time>2026-05-01T07:55:06.376Z</time></trkpt><trkpt lat="46.64649378698332" lon="11.224786757850197"><ele>1295.0</ele><time>2026-05-01T07:55:07.351Z</time></trkpt><trkpt lat="46.64640987211593" lon="11.224834071551388"><ele>1295.0</ele><time>2026-05-01T07:55:08.351Z</time></trkpt><trkpt lat="46.64632712006478" lon="11.224934579521559"><ele>1295.0</ele><time>2026-05-01T07:55:09.376Z</time></trkpt><trkpt lat="46.64625312872889" lon="11.225050534628688"><ele>1294.0</ele><time>2026-05-01T07:55:10.353Z</time></trkpt><trkpt lat="46.6461928114105" lon="11.224985537361036"><ele>1293.0</ele><time>2026-05-01T07:55:11.351Z</time></trkpt><trkpt lat="46.6465034" lon="11.225974116666665"><ele>1297.5</ele><time>2026-05-01T07:55:12.351Z</time></trkpt><trkpt lat="46.64645623333334" lon="11.226136183333333"><ele>1302.0</ele><time>2026-05-01T07:55:13.37Z</time></trkpt><trkpt lat="46.64640893333333" lon="11.226298733333334"><ele>1306.5</ele><time>2026-05-01T07:55:14.351Z</time></trkpt><trkpt lat="46.64636168333333" lon="11.226461116666668"><ele>1311.0</ele><time>2026-05-01T07:55:15.392Z</time></trkpt><trkpt lat="46.6463144" lon="11.226623666666667"><ele>1315.6666666666667</ele><time>2026-05-01T07:55:16.37Z</time></trkpt><trkpt lat="46.646267183333336" lon="11.226785883333331"><ele>1320.3333333333335</ele><time>2026-05-01T07:55:17.366Z</time></trkpt><trkpt lat="46.64621995" lon="11.226948266666668"><ele>1325.0</ele><time>2026-05-01T07:55:18.374Z</time></trkpt><trkpt lat="46.64507821666666" lon="11.225201100000001"><ele>1316.2</ele><time>2026-05-01T07:55:19.372Z</time></trkpt><trkpt lat="46.645077549999996" lon="11.225334783333334"><ele>1307.4</ele><time>2026-05-01T07:55:20.35Z</time></trkpt><trkpt lat="46.64497336666666" lon="11.225402066666668"><ele>1298.6</ele><time>2026-05-01T07:55:22.388Z</time></trkpt><trkpt lat="46.644859499999995" lon="11.225469566666668"><ele>1289.8</ele><time>2026-05-01T07:55:24.376Z</time></trkpt><trkpt lat="46.64475365" lon="11.225520416666665"><ele>1281.0</ele><time>2026-05-01T07:55:26.368Z</time></trkpt><trkpt lat="46.64463355" lon="11.225515116666667"><ele>1281.0</ele><time>2026-05-01T07:55:28.372Z</time></trkpt><trkpt lat="46.64455936666667" lon="11.225514100000002"><ele>1281.0</ele><time>2026-05-01T07:55:30.355Z</time></trkpt><trkpt lat="46.64448564999999" lon="11.225596433333331"><ele>1281.0</ele><time>2026-05-01T07:55:34.372Z</time></trkpt><trkpt lat="46.64441118333334" lon="11.225682400000002"><ele>1281.0</ele><time>2026-05-01T07:55:36.372Z</time></trkpt><trkpt lat="46.64435731666667" lon="11.225738816666668"><ele>1281.0</ele><time>2026-05-01T07:55:37.37Z</time></trkpt><trkpt lat="46.644290016666666" lon="11.225799300000002"><ele>1281.0</ele><time>2026-05-01T07:55:38.353Z</time></trkpt><trkpt lat="46.644205416666665" lon="11.225861733333334"><ele>1279.6</ele><time>2026-05-01T07:55:39.376Z</time></trkpt><trkpt lat="46.64411534999999" lon="11.225923066666667"><ele>1278.1999999999998</ele><time>2026-05-01T07:55:40.353Z</time></trkpt><trkpt lat="46.64401926666666" lon="11.225987466666668"><ele>1276.8000000000002</ele><time>2026-05-01T07:55:41.352Z</time></trkpt><trkpt lat="46.64391257109437" lon="11.226032198171923"><ele>1275.4</ele><time>2026-05-01T07:55:42.372Z</time></trkpt><trkpt lat="46.64381311814376" lon="11.226105166606475"><ele>1274.0</ele><time>2026-05-01T07:55:43.37Z</time></trkpt><trkpt lat="46.643721445944706" lon="11.2261749262684"><ele>1274.0</ele><time>2026-05-01T07:55:44.371Z</time></trkpt><trkpt lat="46.64363642370644" lon="11.22624044633214"><ele>1274.0</ele><time>2026-05-01T07:55:45.376Z</time></trkpt><trkpt lat="46.643553332417326" lon="11.22630528292763"><ele>1274.0</ele><time>2026-05-01T07:55:46.351Z</time></trkpt><trkpt lat="46.64347248333333" lon="11.2263943"><ele>1274.0</ele><time>2026-05-01T07:55:47.353Z</time></trkpt><trkpt lat="46.643383583333325" lon="11.226461783333331"><ele>1274.0</ele><time>2026-05-01T07:55:48.374Z</time></trkpt><trkpt lat="46.64329793333333" lon="11.226535000000002"><ele>1273.75</ele><time>2026-05-01T07:55:49.354Z</time></trkpt><trkpt lat="46.64320948333334" lon="11.226611233333331"><ele>1273.5</ele><time>2026-05-01T07:55:50.352Z</time></trkpt><trkpt lat="46.64301999999999" lon="11.226784183333333"><ele>1273.25</ele><time>2026-05-01T07:55:52.351Z</time></trkpt><trkpt lat="46.64291836666666" lon="11.22687935"><ele>1273.0</ele><time>2026-05-01T07:55:53.367Z</time></trkpt><trkpt lat="46.64281105" lon="11.226975450000001"><ele>1272.5</ele><time>2026-05-01T07:55:54.373Z</time></trkpt><trkpt lat="46.64269333052477" lon="11.227055154595533"><ele>1272.0</ele><time>2026-05-01T07:55:55.371Z</time></trkpt><trkpt lat="46.64259640000001" lon="11.227172333333332"><ele>1271.5</ele><time>2026-05-01T07:55:56.36Z</time></trkpt><trkpt lat="46.642493916666666" lon="11.2272711"><ele>1271.0</ele><time>2026-05-01T07:55:57.35Z</time></trkpt><trkpt lat="46.642395916666665" lon="11.2273797"><ele>1271.0</ele><time>2026-05-01T07:55:58.352Z</time></trkpt><trkpt lat="46.64230428333334" lon="11.227498966666667"><ele>1271.0</ele><time>2026-05-01T07:55:59.352Z</time></trkpt><trkpt lat="46.64220408545538" lon="11.227605510250672"><ele>1271.0</ele><time>2026-05-01T07:56:00.376Z</time></trkpt><trkpt lat="46.642134750000004" lon="11.2277519"><ele>1271.0</ele><time>2026-05-01T07:56:01.371Z</time></trkpt><trkpt lat="46.64206904999999" lon="11.227877066666666"><ele>1271.0</ele><time>2026-05-01T07:56:02.352Z</time></trkpt><trkpt lat="46.642015199999996" lon="11.227979966666664"><ele>1271.0</ele><time>2026-05-01T07:56:03.37Z</time></trkpt><trkpt lat="46.64197428333334" lon="11.228060283333331"><ele>1271.0</ele><time>2026-05-01T07:56:04.37Z</time></trkpt><trkpt lat="46.641909383333335" lon="11.228201499999999"><ele>1271.0</ele><time>2026-05-01T07:56:06.372Z</time></trkpt><trkpt lat="46.64186956666667" lon="11.228293583333333"><ele>1271.0</ele><time>2026-05-01T07:56:07.37Z</time></trkpt><trkpt lat="46.64181938333333" lon="11.228404816666668"><ele>1271.0</ele><time>2026-05-01T07:56:08.351Z</time></trkpt><trkpt lat="46.64175449999999" lon="11.228538"><ele>1269.6666666666667</ele><time>2026-05-01T07:56:09.375Z</time></trkpt><trkpt lat="46.641672500000006" lon="11.228685633333335"><ele>1268.3333333333333</ele><time>2026-05-01T07:56:10.351Z</time></trkpt><trkpt lat="46.64157361666666" lon="11.228857166666668"><ele>1267.0</ele><time>2026-05-01T07:56:11.359Z</time></trkpt><trkpt lat="46.64144423333334" lon="11.229041050000001"><ele>1267.0</ele><time>2026-05-01T07:56:12.353Z</time></trkpt><trkpt lat="46.64128383333333" lon="11.229228250000002"><ele>1267.0</ele><time>2026-05-01T07:56:13.351Z</time></trkpt><trkpt lat="46.64109011666667" lon="11.229405266666665"><ele>1267.0</ele><time>2026-05-01T07:56:14.371Z</time></trkpt><trkpt lat="46.64086252189539" lon="11.22954478570565"><ele>1263.5</ele><time>2026-05-01T07:56:15.376Z</time></trkpt><trkpt lat="46.64062700919595" lon="11.229705780971885"><ele>1260.0</ele><time>2026-05-01T07:56:16.373Z</time></trkpt><trkpt lat="46.640387331623906" lon="11.229869614431982"><ele>1253.5</ele><time>2026-05-01T07:56:17.352Z</time></trkpt><trkpt lat="46.640147189967195" lon="11.23003177673769"><ele>1247.0</ele><time>2026-05-01T07:56:18.375Z</time></trkpt><trkpt lat="46.63991544127222" lon="11.230188175381047"><ele>1247.0</ele><time>2026-05-01T07:56:19.368Z</time></trkpt><trkpt lat="46.63969591788095" lon="11.230338621751988"><ele>1247.0</ele><time>2026-05-01T07:56:20.351Z</time></trkpt><trkpt lat="46.63948406888913" lon="11.230482782432835"><ele>1248.0</ele><time>2026-05-01T07:56:21.373Z</time></trkpt><trkpt lat="46.63927806574917" lon="11.23061399941354"><ele>1249.0</ele><time>2026-05-01T07:56:22.352Z</time></trkpt><trkpt lat="46.63907878906079" lon="11.230737906893607"><ele>1250.0</ele><time>2026-05-01T07:56:23.366Z</time></trkpt><trkpt lat="46.638881653162" lon="11.230856220270917"><ele>1250.0</ele><time>2026-05-01T07:56:24.376Z</time></trkpt><trkpt lat="46.63868661602025" lon="11.23096601475738"><ele>1250.0</ele><time>2026-05-01T07:56:25.37Z</time></trkpt><trkpt lat="46.63849730573433" lon="11.23106858194629"><ele>1250.0</ele><time>2026-05-01T07:56:26.352Z</time></trkpt><trkpt lat="46.63831702165134" lon="11.231165196705781"><ele>1247.6666666666667</ele><time>2026-05-01T07:56:27.376Z</time></trkpt><trkpt lat="46.63814420945476" lon="11.231256648398578"><ele>1245.3333333333333</ele><time>2026-05-01T07:56:28.374Z</time></trkpt><trkpt lat="46.63797965091806" lon="11.23134373230151"><ele>1243.0</ele><time>2026-05-01T07:56:29.352Z</time></trkpt><trkpt lat="46.6378168484878" lon="11.231429725160012"><ele>1243.6666666666665</ele><time>2026-05-01T07:56:31.371Z</time></trkpt><trkpt lat="46.637652764815165" lon="11.231515223412114"><ele>1244.3333333333333</ele><time>2026-05-01T07:56:32.355Z</time></trkpt><trkpt lat="46.63749736666667" lon="11.231618800000001"><ele>1245.0</ele><time>2026-05-01T07:56:33.371Z</time></trkpt><trkpt lat="46.63734686666666" lon="11.231719383333333"><ele>1245.0</ele><time>2026-05-01T07:56:34.352Z</time></trkpt><trkpt lat="46.63720180000001" lon="11.231853683333334"><ele>1245.0</ele><time>2026-05-01T07:56:35.355Z</time></trkpt><trkpt lat="46.637064133333325" lon="11.232012066666668"><ele>1245.0</ele><time>2026-05-01T07:56:36.372Z</time></trkpt><trkpt lat="46.63693369999999" lon="11.232170216666669"><ele>1245.0</ele><time>2026-05-01T07:56:37.369Z</time></trkpt><trkpt lat="46.63680355" lon="11.232299866666665"><ele>1245.0</ele><time>2026-05-01T07:56:38.373Z</time></trkpt><trkpt lat="46.63666788333333" lon="11.232387116666667"><ele>1245.0</ele><time>2026-05-01T07:56:39.35Z</time></trkpt><trkpt lat="46.63652591666668" lon="11.232421733333334"><ele>1245.0</ele><time>2026-05-01T07:56:40.37Z</time></trkpt><trkpt lat="46.63625916666667" lon="11.232308"><ele>1245.0</ele><time>2026-05-01T07:56:41.35Z</time></trkpt><trkpt lat="46.63615478333333" lon="11.232190133333331"><ele>1245.0</ele><time>2026-05-01T07:56:42.371Z</time></trkpt><trkpt lat="46.636075116666674" lon="11.232034866666666"><ele>1247.25</ele><time>2026-05-01T07:56:43.351Z</time></trkpt><trkpt lat="46.63602338333334" lon="11.231854916666668"><ele>1249.5</ele><time>2026-05-01T07:56:44.352Z</time></trkpt><trkpt lat="46.63599831666667" lon="11.231664916666666"><ele>1251.75</ele><time>2026-05-01T07:56:45.371Z</time></trkpt><trkpt lat="46.63601296666668" lon="11.231467283333332"><ele>1254.0</ele><time>2026-05-01T07:56:46.37Z</time></trkpt><trkpt lat="46.6361604467508" lon="11.231102290894698"><ele>1254.0</ele><time>2026-05-01T07:56:48.352Z</time></trkpt><trkpt lat="46.63626494958048" lon="11.230918641563461"><ele>1254.0</ele><time>2026-05-01T07:56:49.371Z</time></trkpt><trkpt lat="46.6363755062592" lon="11.230727341236372"><ele>1254.0</ele><time>2026-05-01T07:56:50.351Z</time></trkpt><trkpt lat="46.6364862857644" lon="11.23052326717754"><ele>1258.6666666666667</ele><time>2026-05-01T07:56:51.38Z</time></trkpt><trkpt lat="46.63658615387617" lon="11.230292045417322"><ele>1263.3333333333335</ele><time>2026-05-01T07:56:52.37Z</time></trkpt><trkpt lat="46.63666592761371" lon="11.230029021118726"><ele>1268.0</ele><time>2026-05-01T07:56:53.367Z</time></trkpt><trkpt lat="46.636702866666674" lon="11.2297464"><ele>1267.0</ele><time>2026-05-01T07:56:54.352Z</time></trkpt><trkpt lat="46.63673226666667" lon="11.229466483333333"><ele>1266.0</ele><time>2026-05-01T07:56:55.373Z</time></trkpt><trkpt lat="46.63672683333333" lon="11.229179649999999"><ele>1265.0</ele><time>2026-05-01T07:56:56.357Z</time></trkpt><trkpt lat="46.6366859" lon="11.228889550000002"><ele>1265.0</ele><time>2026-05-01T07:56:57.373Z</time></trkpt><trkpt lat="46.63663265356051" lon="11.228594244351592"><ele>1265.0</ele><time>2026-05-01T07:56:58.389Z</time></trkpt><trkpt lat="46.63653424001557" lon="11.228313146764167"><ele>1265.0</ele><time>2026-05-01T07:56:59.352Z</time></trkpt><trkpt lat="46.636391149999994" lon="11.228056800000001"><ele>1269.5</ele><time>2026-05-01T07:57:00.359Z</time></trkpt><trkpt lat="46.63624889999999" lon="11.227785999999998"><ele>1274.0</ele><time>2026-05-01T07:57:01.371Z</time></trkpt><trkpt lat="46.6361011" lon="11.227513833333333"><ele>1267.0</ele><time>2026-05-01T07:57:02.373Z</time></trkpt><trkpt lat="46.63594488333334" lon="11.227238216666668"><ele>1260.0</ele><time>2026-05-01T07:57:03.373Z</time></trkpt><trkpt lat="46.635780866666664" lon="11.226963699999999"><ele>1260.0</ele><time>2026-05-01T07:57:04.37Z</time></trkpt><trkpt lat="46.63560458333333" lon="11.226693516666668"><ele>1260.0</ele><time>2026-05-01T07:57:05.352Z</time></trkpt><trkpt lat="46.63541623333334" lon="11.226432166666667"><ele>1264.5</ele><time>2026-05-01T07:57:06.371Z</time></trkpt><trkpt lat="46.63523014266477" lon="11.226160320019577"><ele>1269.0</ele><time>2026-05-01T07:57:07.364Z</time></trkpt><trkpt lat="46.635036435077275" lon="11.22592822342539"><ele>1269.0</ele><time>2026-05-01T07:57:08.352Z</time></trkpt><trkpt lat="46.63484616666666" lon="11.225736916666666"><ele>1269.0</ele><time>2026-05-01T07:57:09.373Z</time></trkpt><trkpt lat="46.63468366666666" lon="11.225535400000002"><ele>1269.0</ele><time>2026-05-01T07:57:10.353Z</time></trkpt><trkpt lat="46.634544483333336" lon="11.225324149999999"><ele>1276.0</ele><time>2026-05-01T07:57:11.366Z</time></trkpt><trkpt lat="46.63443813333333" lon="11.225091249999998"><ele>1283.0</ele><time>2026-05-01T07:57:12.371Z</time></trkpt><trkpt lat="46.6343733" lon="11.224834116666667"><ele>1290.0</ele><time>2026-05-01T07:57:13.369Z</time></trkpt><trkpt lat="46.634351066666675" lon="11.224559816666666"><ele>1290.0</ele><time>2026-05-01T07:57:14.35Z</time></trkpt><trkpt lat="46.63437331666667" lon="11.224281283333335"><ele>1290.0</ele><time>2026-05-01T07:57:15.372Z</time></trkpt><trkpt lat="46.634444050000006" lon="11.224013166666667"><ele>1290.0</ele><time>2026-05-01T07:57:16.355Z</time></trkpt><trkpt lat="46.63455608333333" lon="11.2237713"><ele>1282.3333333333333</ele><time>2026-05-01T07:57:17.352Z</time></trkpt><trkpt lat="46.6347032" lon="11.223561466666668"><ele>1274.6666666666665</ele><time>2026-05-01T07:57:18.353Z</time></trkpt><trkpt lat="46.63487853333333" lon="11.2233806"><ele>1267.0</ele><time>2026-05-01T07:57:19.373Z</time></trkpt><trkpt lat="46.635069566666665" lon="11.223215516666668"><ele>1271.5</ele><time>2026-05-01T07:57:20.354Z</time></trkpt><trkpt lat="46.635271916666674" lon="11.223045516666666"><ele>1276.0</ele><time>2026-05-01T07:57:21.371Z</time></trkpt><trkpt lat="46.63548421666666" lon="11.222863849999998"><ele>1276.0</ele><time>2026-05-01T07:57:22.37Z</time></trkpt><trkpt lat="46.635698133333335" lon="11.222677616666667"><ele>1276.0</ele><time>2026-05-01T07:57:23.36Z</time></trkpt><trkpt lat="46.635904200000006" lon="11.222494166666669"><ele>1275.3333333333333</ele><time>2026-05-01T07:57:24.378Z</time></trkpt><trkpt lat="46.63609395" lon="11.222308466666666"><ele>1274.6666666666667</ele><time>2026-05-01T07:57:25.354Z</time></trkpt><trkpt lat="46.63626415" lon="11.22211"><ele>1274.0</ele><time>2026-05-01T07:57:26.352Z</time></trkpt><trkpt lat="46.636403249999994" lon="11.22187961666667"><ele>1274.0</ele><time>2026-05-01T07:57:27.371Z</time></trkpt><trkpt lat="46.63650265" lon="11.221621116666665"><ele>1274.0</ele><time>2026-05-01T07:57:28.372Z</time></trkpt><trkpt lat="46.63657008333333" lon="11.221350083333334"><ele>1274.0</ele><time>2026-05-01T07:57:29.364Z</time></trkpt><trkpt lat="46.636600050000006" lon="11.221071116666666"><ele>1275.3333333333335</ele><time>2026-05-01T07:57:30.372Z</time></trkpt><trkpt lat="46.63658459999999" lon="11.220765933333332"><ele>1276.6666666666667</ele><time>2026-05-01T07:57:31.369Z</time></trkpt><trkpt lat="46.63653486666667" lon="11.2204477"><ele>1278.0</ele><time>2026-05-01T07:57:32.352Z</time></trkpt><trkpt lat="46.63646901666666" lon="11.220126366666667"><ele>1272.0</ele><time>2026-05-01T07:57:33.371Z</time></trkpt><trkpt lat="46.6364044" lon="11.2198022"><ele>1266.0</ele><time>2026-05-01T07:57:34.358Z</time></trkpt><trkpt lat="46.63633553333334" lon="11.219485883333334"><ele>1266.0</ele><time>2026-05-01T07:57:35.352Z</time></trkpt><trkpt lat="46.63624931666667" lon="11.219181916666665"><ele>1266.0</ele><time>2026-05-01T07:57:36.371Z</time></trkpt><trkpt lat="46.6361326" lon="11.2188891"><ele>1276.0</ele><time>2026-05-01T07:57:37.358Z</time></trkpt><trkpt lat="46.63599935449798" lon="11.218589534400753"><ele>1286.0</ele><time>2026-05-01T07:57:38.353Z</time></trkpt><trkpt lat="46.63582802903081" lon="11.21832097990557"><ele>1283.0</ele><time>2026-05-01T07:57:39.373Z</time></trkpt><trkpt lat="46.63563416035123" lon="11.21807666908386"><ele>1280.0</ele><time>2026-05-01T07:57:40.358Z</time></trkpt><trkpt lat="46.63540681319047" lon="11.217883303932943"><ele>1288.0</ele><time>2026-05-01T07:57:41.353Z</time></trkpt><trkpt lat="46.63515532931281" lon="11.217733476517283"><ele>1296.0</ele><time>2026-05-01T07:57:42.352Z</time></trkpt><trkpt lat="46.634886743373634" lon="11.21760782659339"><ele>1296.0</ele><time>2026-05-01T07:57:43.37Z</time></trkpt><trkpt lat="46.63461315669582" lon="11.217485396390048"><ele>1296.0</ele><time>2026-05-01T07:57:44.351Z</time></trkpt><trkpt lat="46.63434479878765" lon="11.217368924940324"><ele>1296.5</ele><time>2026-05-01T07:57:45.351Z</time></trkpt><trkpt lat="46.63408213333334" lon="11.217322466666667"><ele>1297.0</ele><time>2026-05-01T07:57:46.366Z</time></trkpt><trkpt lat="46.63384851666666" lon="11.217214799999999"><ele>1303.0</ele><time>2026-05-01T07:57:47.353Z</time></trkpt><trkpt lat="46.63337726666667" lon="11.216976916666665"><ele>1303.0</ele><time>2026-05-01T07:57:49.37Z</time></trkpt><trkpt lat="46.63313111666666" lon="11.216848350000003"><ele>1303.0</ele><time>2026-05-01T07:57:50.354Z</time></trkpt><trkpt lat="46.632893749999994" lon="11.216715983333332"><ele>1306.0</ele><time>2026-05-01T07:57:51.355Z</time></trkpt><trkpt lat="46.63266248333333" lon="11.216594549999998"><ele>1309.0</ele><time>2026-05-01T07:57:52.362Z</time></trkpt><trkpt lat="46.63242626666667" lon="11.21649145"><ele>1305.5</ele><time>2026-05-01T07:57:53.353Z</time></trkpt><trkpt lat="46.63217493333333" lon="11.216408550000002"><ele>1302.0</ele><time>2026-05-01T07:57:54.353Z</time></trkpt><trkpt lat="46.631910733333335" lon="11.2163458"><ele>1296.0</ele><time>2026-05-01T07:57:55.358Z</time></trkpt><trkpt lat="46.63164481666666" lon="11.216302150000002"><ele>1290.0</ele><time>2026-05-01T07:57:56.361Z</time></trkpt><trkpt lat="46.63139061666668" lon="11.21627295"><ele>1290.0</ele><time>2026-05-01T07:57:57.363Z</time></trkpt><trkpt lat="46.63114733333333" lon="11.216245866666668"><ele>1290.0</ele><time>2026-05-01T07:57:58.362Z</time></trkpt><trkpt lat="46.6309166" lon="11.216209166666665"><ele>1288.3333333333333</ele><time>2026-05-01T07:57:59.353Z</time></trkpt><trkpt lat="46.6307019" lon="11.2161427"><ele>1286.6666666666665</ele><time>2026-05-01T07:58:00.366Z</time></trkpt><trkpt lat="46.63050643333332" lon="11.216055066666668"><ele>1285.0</ele><time>2026-05-01T07:58:01.371Z</time></trkpt><trkpt lat="46.63032883333333" lon="11.215949183333331"><ele>1284.6666666666665</ele><time>2026-05-01T07:58:02.352Z</time></trkpt><trkpt lat="46.630173250000006" lon="11.215819083333333"><ele>1284.3333333333333</ele><time>2026-05-01T07:58:03.356Z</time></trkpt><trkpt lat="46.630024516666666" lon="11.215691633333332"><ele>1284.0</ele><time>2026-05-01T07:58:04.359Z</time></trkpt><trkpt lat="46.62987921666666" lon="11.215572083333333"><ele>1284.0</ele><time>2026-05-01T07:58:05.353Z</time></trkpt><trkpt lat="46.62973798333334" lon="11.215474683333333"><ele>1284.0</ele><time>2026-05-01T07:58:06.352Z</time></trkpt><trkpt lat="46.62959083333333" lon="11.215400183333335"><ele>1284.0</ele><time>2026-05-01T07:58:07.371Z</time></trkpt><trkpt lat="46.62942771666667" lon="11.2153581"><ele>1284.3333333333333</ele><time>2026-05-01T07:58:08.352Z</time></trkpt><trkpt lat="46.62924246666667" lon="11.21535595"><ele>1284.6666666666665</ele><time>2026-05-01T07:58:09.352Z</time></trkpt><trkpt lat="46.629031133333335" lon="11.215378916666669"><ele>1285.0</ele><time>2026-05-01T07:58:10.359Z</time></trkpt><trkpt lat="46.628802416666666" lon="11.215390066666666"><ele>1285.0</ele><time>2026-05-01T07:58:11.352Z</time></trkpt><trkpt lat="46.62857768333333" lon="11.215369983333334"><ele>1285.0</ele><time>2026-05-01T07:58:12.353Z</time></trkpt><trkpt lat="46.62837135" lon="11.215298516666666"><ele>1285.0</ele><time>2026-05-01T07:58:13.363Z</time></trkpt><trkpt lat="46.628180566666664" lon="11.215170766666665"><ele>1285.0</ele><time>2026-05-01T07:58:14.354Z</time></trkpt><trkpt lat="46.62801461666666" lon="11.214995483333333"><ele>1285.0</ele><time>2026-05-01T07:58:15.363Z</time></trkpt><trkpt lat="46.62788073333333" lon="11.214775883333333"><ele>1285.0</ele><time>2026-05-01T07:58:16.358Z</time></trkpt><trkpt lat="46.62778194999999" lon="11.214523616666668"><ele>1290.6666666666665</ele><time>2026-05-01T07:58:17.355Z</time></trkpt><trkpt lat="46.62772646666667" lon="11.214248549999999"><ele>1296.3333333333333</ele><time>2026-05-01T07:58:18.366Z</time></trkpt><trkpt lat="46.62771236666667" lon="11.21395495"><ele>1302.0</ele><time>2026-05-01T07:58:19.358Z</time></trkpt><trkpt lat="46.627738683333334" lon="11.213650633333335"><ele>1299.3333333333333</ele><time>2026-05-01T07:58:20.361Z</time></trkpt><trkpt lat="46.62781365000001" lon="11.213352583333334"><ele>1296.6666666666665</ele><time>2026-05-01T07:58:21.353Z</time></trkpt><trkpt lat="46.627930366666675" lon="11.213063683333331"><ele>1294.0</ele><time>2026-05-01T07:58:22.357Z</time></trkpt><trkpt lat="46.62806818333333" lon="11.212796616666665"><ele>1294.0</ele><time>2026-05-01T07:58:23.353Z</time></trkpt><trkpt lat="46.62820655000001" lon="11.212551399999999"><ele>1294.0</ele><time>2026-05-01T07:58:24.363Z</time></trkpt><trkpt lat="46.62832216666667" lon="11.212302583333335"><ele>1294.0</ele><time>2026-05-01T07:58:25.367Z</time></trkpt><trkpt lat="46.62840428333334" lon="11.212035333333331"><ele>1295.6666666666665</ele><time>2026-05-01T07:58:26.354Z</time></trkpt><trkpt lat="46.62844888333334" lon="11.211751016666664"><ele>1297.3333333333333</ele><time>2026-05-01T07:58:27.353Z</time></trkpt><trkpt lat="46.628457583333336" lon="11.211468566666667"><ele>1299.0</ele><time>2026-05-01T07:58:28.369Z</time></trkpt><trkpt lat="46.62842930000001" lon="11.211185883333334"><ele>1299.6666666666667</ele><time>2026-05-01T07:58:29.369Z</time></trkpt><trkpt lat="46.62836073333333" lon="11.210913366666666"><ele>1300.3333333333335</ele><time>2026-05-01T07:58:30.353Z</time></trkpt><trkpt lat="46.6282623" lon="11.210668233333335"><ele>1301.0</ele><time>2026-05-01T07:58:31.358Z</time></trkpt><trkpt lat="46.62815065" lon="11.210452933333332"><ele>1298.6666666666667</ele><time>2026-05-01T07:58:32.353Z</time></trkpt><trkpt lat="46.628014633333336" lon="11.210273416666666"><ele>1296.3333333333333</ele><time>2026-05-01T07:58:33.358Z</time></trkpt><trkpt lat="46.627854" lon="11.210133599999999"><ele>1294.0</ele><time>2026-05-01T07:58:34.352Z</time></trkpt><trkpt lat="46.62766833333333" lon="11.210036133333332"><ele>1291.0</ele><time>2026-05-01T07:58:35.353Z</time></trkpt><trkpt lat="46.62745996666666" lon="11.209982416666666"><ele>1288.0</ele><time>2026-05-01T07:58:36.357Z</time></trkpt><trkpt lat="46.627233866666664" lon="11.20996405"><ele>1285.0</ele><time>2026-05-01T07:58:37.353Z</time></trkpt><trkpt lat="46.62699636666666" lon="11.209960899999999"><ele>1286.5</ele><time>2026-05-01T07:58:38.353Z</time></trkpt><trkpt lat="46.626761466666665" lon="11.209949133333335"><ele>1288.0</ele><time>2026-05-01T07:58:39.353Z</time></trkpt><trkpt lat="46.626541216666666" lon="11.209916533333335"><ele>1288.0</ele><time>2026-05-01T07:58:40.362Z</time></trkpt><trkpt lat="46.62633743333334" lon="11.209852716666667"><ele>1288.0</ele><time>2026-05-01T07:58:41.353Z</time></trkpt><trkpt lat="46.62614923333334" lon="11.20976185"><ele>1288.0</ele><time>2026-05-01T07:58:42.353Z</time></trkpt><trkpt lat="46.62597631666666" lon="11.209648716666667"><ele>1283.5</ele><time>2026-05-01T07:58:43.365Z</time></trkpt><trkpt lat="46.625819283333335" lon="11.209524933333332"><ele>1279.0</ele><time>2026-05-01T07:58:44.354Z</time></trkpt><trkpt lat="46.62552143333334" lon="11.209312299999999"><ele>1279.0</ele><time>2026-05-01T07:58:46.358Z</time></trkpt><trkpt lat="46.62536658333333" lon="11.20924175"><ele>1279.0</ele><time>2026-05-01T07:58:47.363Z</time></trkpt><trkpt lat="46.62519423333333" lon="11.20921015"><ele>1279.0</ele><time>2026-05-01T07:58:48.356Z</time></trkpt><trkpt lat="46.625005849999994" lon="11.2092287"><ele>1277.3333333333333</ele><time>2026-05-01T07:58:49.358Z</time></trkpt><trkpt lat="46.62480996666667" lon="11.209294083333335"><ele>1275.6666666666667</ele><time>2026-05-01T07:58:50.355Z</time></trkpt><trkpt lat="46.62460925" lon="11.209398633333334"><ele>1274.0</ele><time>2026-05-01T07:58:51.357Z</time></trkpt><trkpt lat="46.62440539999999" lon="11.20952775"><ele>1266.0</ele><time>2026-05-01T07:58:52.355Z</time></trkpt><trkpt lat="46.62419498333334" lon="11.209666116666666"><ele>1258.0</ele><time>2026-05-01T07:58:53.353Z</time></trkpt><trkpt lat="46.62398011666668" lon="11.209800066666666"><ele>1263.5</ele><time>2026-05-01T07:58:54.371Z</time></trkpt><trkpt lat="46.62376005095011" lon="11.209893140287985"><ele>1269.0</ele><time>2026-05-01T07:58:55.359Z</time></trkpt><trkpt lat="46.623539615728085" lon="11.209991119225684"><ele>1269.0</ele><time>2026-05-01T07:58:56.354Z</time></trkpt><trkpt lat="46.62331184999999" lon="11.210095333333333"><ele>1269.0</ele><time>2026-05-01T07:58:57.357Z</time></trkpt><trkpt lat="46.623068066666676" lon="11.210159933333333"><ele>1269.0</ele><time>2026-05-01T07:58:58.372Z</time></trkpt><trkpt lat="46.622815800000005" lon="11.2102065"><ele>1269.0</ele><time>2026-05-01T07:58:59.354Z</time></trkpt><trkpt lat="46.62255426666667" lon="11.210237733333335"><ele>1265.5</ele><time>2026-05-01T07:59:00.365Z</time></trkpt><trkpt lat="46.62228643333333" lon="11.210254433333333"><ele>1262.0</ele><time>2026-05-01T07:59:01.37Z</time></trkpt><trkpt lat="46.622016116666664" lon="11.210265116666669"><ele>1259.5</ele><time>2026-05-01T07:59:02.351Z</time></trkpt><trkpt lat="46.62174779672396" lon="11.210237245316751"><ele>1257.0</ele><time>2026-05-01T07:59:03.351Z</time></trkpt><trkpt lat="46.621490854415136" lon="11.210243485135873"><ele>1257.0</ele><time>2026-05-01T07:59:04.358Z</time></trkpt><trkpt lat="46.621249950000006" lon="11.210266966666666"><ele>1257.0</ele><time>2026-05-01T07:59:05.355Z</time></trkpt><trkpt lat="46.62101675" lon="11.210266733333333"><ele>1258.5</ele><time>2026-05-01T07:59:06.357Z</time></trkpt><trkpt lat="46.62078265" lon="11.2102692"><ele>1260.0</ele><time>2026-05-01T07:59:07.358Z</time></trkpt><trkpt lat="46.62054835" lon="11.210288283333332"><ele>1255.5</ele><time>2026-05-01T07:59:08.361Z</time></trkpt><trkpt lat="46.62031278333334" lon="11.2103263"><ele>1251.0</ele><time>2026-05-01T07:59:09.364Z</time></trkpt><trkpt lat="46.620073950000005" lon="11.2103793"><ele>1251.0</ele><time>2026-05-01T07:59:10.372Z</time></trkpt><trkpt lat="46.619834350000005" lon="11.210456600000002"><ele>1251.0</ele><time>2026-05-01T07:59:11.354Z</time></trkpt><trkpt lat="46.619590768108125" lon="11.210530515336318"><ele>1259.0</ele><time>2026-05-01T07:59:12.353Z</time></trkpt><trkpt lat="46.61935472796822" lon="11.210650169482344"><ele>1267.0</ele><time>2026-05-01T07:59:13.37Z</time></trkpt><trkpt lat="46.619120721090596" lon="11.210787894822552"><ele>1267.0</ele><time>2026-05-01T07:59:14.354Z</time></trkpt><trkpt lat="46.61888770051861" lon="11.210946000753907"><ele>1267.0</ele><time>2026-05-01T07:59:15.372Z</time></trkpt><trkpt lat="46.61866005763148" lon="11.211121475626515"><ele>1268.0</ele><time>2026-05-01T07:59:16.358Z</time></trkpt><trkpt lat="46.61845661666666" lon="11.211335216666665"><ele>1269.0</ele><time>2026-05-01T07:59:17.361Z</time></trkpt><trkpt lat="46.61826223333334" lon="11.211521733333333"><ele>1269.0</ele><time>2026-05-01T07:59:18.357Z</time></trkpt><trkpt lat="46.61808296666666" lon="11.211720233333333"><ele>1269.0</ele><time>2026-05-01T07:59:19.369Z</time></trkpt><trkpt lat="46.617927983333324" lon="11.211941333333336"><ele>1269.0</ele><time>2026-05-01T07:59:20.365Z</time></trkpt><trkpt lat="46.61780208333333" lon="11.212170666666667"><ele>1267.0</ele><time>2026-05-01T07:59:21.355Z</time></trkpt><trkpt lat="46.61770203333334" lon="11.212407700000002"><ele>1265.0</ele><time>2026-05-01T07:59:22.363Z</time></trkpt><trkpt lat="46.61761928333333" lon="11.212656799999998"><ele>1263.0</ele><time>2026-05-01T07:59:23.352Z</time></trkpt><trkpt lat="46.61754723333333" lon="11.212928216666668"><ele>1266.6666666666667</ele><time>2026-05-01T07:59:24.373Z</time></trkpt><trkpt lat="46.617487916666676" lon="11.213229166666666"><ele>1270.3333333333335</ele><time>2026-05-01T07:59:25.37Z</time></trkpt><trkpt lat="46.61743536666666" lon="11.21355125"><ele>1274.0</ele><time>2026-05-01T07:59:26.359Z</time></trkpt><trkpt lat="46.61738591666667" lon="11.213862316666667"><ele>1275.6666666666667</ele><time>2026-05-01T07:59:27.366Z</time></trkpt><trkpt lat="46.617333366666664" lon="11.214158083333333"><ele>1277.3333333333333</ele><time>2026-05-01T07:59:28.363Z</time></trkpt><trkpt lat="46.61728298333335" lon="11.214442833333331"><ele>1279.0</ele><time>2026-05-01T07:59:29.353Z</time></trkpt><trkpt lat="46.61723533333334" lon="11.2147111"><ele>1281.3333333333333</ele><time>2026-05-01T07:59:30.374Z</time></trkpt><trkpt lat="46.61717706666667" lon="11.2149769"><ele>1283.6666666666667</ele><time>2026-05-01T07:59:31.359Z</time></trkpt><trkpt lat="46.617114916666665" lon="11.215232816666667"><ele>1286.0</ele><time>2026-05-01T07:59:32.355Z</time></trkpt><trkpt lat="46.61704185" lon="11.215487283333333"><ele>1286.0</ele><time>2026-05-01T07:59:33.363Z</time></trkpt><trkpt lat="46.61698702923497" lon="11.215765209119638"><ele>1286.0</ele><time>2026-05-01T07:59:34.358Z</time></trkpt><trkpt lat="46.61681375" lon="11.216000483333335"><ele>1286.0</ele><time>2026-05-01T07:59:35.358Z</time></trkpt><trkpt lat="46.616665100000006" lon="11.216243916666667"><ele>1275.5</ele><time>2026-05-01T07:59:36.363Z</time></trkpt><trkpt lat="46.616498166666666" lon="11.21646725"><ele>1265.0</ele><time>2026-05-01T07:59:37.372Z</time></trkpt><trkpt lat="46.61631413333333" lon="11.216667483333334"><ele>1260.0</ele><time>2026-05-01T07:59:38.379Z</time></trkpt><trkpt lat="46.61611321666666" lon="11.216845283333335"><ele>1255.0</ele><time>2026-05-01T07:59:39.357Z</time></trkpt><trkpt lat="46.615894950000005" lon="11.216993866666668"><ele>1255.0</ele><time>2026-05-01T07:59:40.35Z</time></trkpt><trkpt lat="46.61567031666667" lon="11.2171193"><ele>1255.0</ele><time>2026-05-01T07:59:41.353Z</time></trkpt><trkpt lat="46.615440383333336" lon="11.217233316666666"><ele>1257.5</ele><time>2026-05-01T07:59:42.372Z</time></trkpt><trkpt lat="46.615204733333336" lon="11.217346883333335"><ele>1260.0</ele><time>2026-05-01T07:59:43.358Z</time></trkpt><trkpt lat="46.61496981666666" lon="11.217459383333335"><ele>1260.0</ele><time>2026-05-01T07:59:44.359Z</time></trkpt><trkpt lat="46.61450365" lon="11.2176857"><ele>1257.0</ele><time>2026-05-01T07:59:46.358Z</time></trkpt><trkpt lat="46.61429158333333" lon="11.217822433333334"><ele>1254.0</ele><time>2026-05-01T07:59:47.353Z</time></trkpt><trkpt lat="46.61409251666667" lon="11.21799175"><ele>1256.3333333333333</ele><time>2026-05-01T07:59:48.366Z</time></trkpt><trkpt lat="46.61391226666667" lon="11.218185983333335"><ele>1258.6666666666665</ele><time>2026-05-01T07:59:49.35Z</time></trkpt><trkpt lat="46.613754300000004" lon="11.218399166666664"><ele>1261.0</ele><time>2026-05-01T07:59:50.352Z</time></trkpt><trkpt lat="46.61363066666666" lon="11.218623549999998"><ele>1261.0</ele><time>2026-05-01T07:59:51.363Z</time></trkpt><trkpt lat="46.613542566666666" lon="11.2188545"><ele>1261.0</ele><time>2026-05-01T07:59:52.359Z</time></trkpt><trkpt lat="46.61348979999999" lon="11.219091533333335"><ele>1261.0</ele><time>2026-05-01T07:59:53.353Z</time></trkpt><trkpt lat="46.61347385000001" lon="11.219335"><ele>1261.0</ele><time>2026-05-01T07:59:54.365Z</time></trkpt><trkpt lat="46.61348621666666" lon="11.219581216666665"><ele>1261.0</ele><time>2026-05-01T07:59:55.363Z</time></trkpt><trkpt lat="46.61352453333334" lon="11.219815449999999"><ele>1261.0</ele><time>2026-05-01T07:59:56.363Z</time></trkpt><trkpt lat="46.61358801666667" lon="11.220031916666668"><ele>1270.3333333333333</ele><time>2026-05-01T07:59:57.372Z</time></trkpt><trkpt lat="46.61367598333333" lon="11.220225283333331"><ele>1279.6666666666667</ele><time>2026-05-01T07:59:58.374Z</time></trkpt><trkpt lat="46.61379315000001" lon="11.220397166666666"><ele>1289.0</ele><time>2026-05-01T07:59:59.353Z</time></trkpt><trkpt lat="46.61393873333333" lon="11.2205417"><ele>1286.6666666666667</ele><time>2026-05-01T08:00:00.364Z</time></trkpt><trkpt lat="46.614113550000006" lon="11.22065725"><ele>1284.3333333333333</ele><time>2026-05-01T08:00:01.371Z</time></trkpt><trkpt lat="46.61430666666667" lon="11.220746949999999"><ele>1282.0</ele><time>2026-05-01T08:00:02.354Z</time></trkpt><trkpt lat="46.61450528333333" lon="11.220829883333334"><ele>1282.0</ele><time>2026-05-01T08:00:03.385Z</time></trkpt><trkpt lat="46.614698399999995" lon="11.220907733333336"><ele>1282.0</ele><time>2026-05-01T08:00:04.37Z</time></trkpt><trkpt lat="46.61488315" lon="11.2209851"><ele>1282.0</ele><time>2026-05-01T08:00:05.367Z</time></trkpt><trkpt lat="46.61506015" lon="11.221063333333332"><ele>1282.0</ele><time>2026-05-01T08:00:06.372Z</time></trkpt><trkpt lat="46.615231200000004" lon="11.221147483333334"><ele>1282.0</ele><time>2026-05-01T08:00:08.354Z</time></trkpt><trkpt lat="46.61539373333333" lon="11.221236933333333"><ele>1282.0</ele><time>2026-05-01T08:00:09.36Z</time></trkpt><trkpt lat="46.61555441666666" lon="11.221338283333335"><ele>1286.5</ele><time>2026-05-01T08:00:10.361Z</time></trkpt><trkpt lat="46.615716133333336" lon="11.2214523"><ele>1291.0</ele><time>2026-05-01T08:00:11.353Z</time></trkpt><trkpt lat="46.61604751666667" lon="11.221705100000001"><ele>1284.3333333333333</ele><time>2026-05-01T08:00:12.36Z</time></trkpt><trkpt lat="46.61621818333333" lon="11.221839566666665"><ele>1277.6666666666667</ele><time>2026-05-01T08:00:13.372Z</time></trkpt><trkpt lat="46.61638381666666" lon="11.22197635"><ele>1271.0</ele><time>2026-05-01T08:00:14.354Z</time></trkpt><trkpt lat="46.61654273333333" lon="11.222115316666669"><ele>1271.0</ele><time>2026-05-01T08:00:15.363Z</time></trkpt><trkpt lat="46.61669251666667" lon="11.222262433333333"><ele>1271.0</ele><time>2026-05-01T08:00:16.371Z</time></trkpt><trkpt lat="46.61682803333333" lon="11.222430450000001"><ele>1271.0</ele><time>2026-05-01T08:00:17.353Z</time></trkpt><trkpt lat="46.61694961666667" lon="11.222619950000002"><ele>1272.6666666666667</ele><time>2026-05-01T08:00:18.366Z</time></trkpt><trkpt lat="46.61707091666668" lon="11.222814316666666"><ele>1274.3333333333333</ele><time>2026-05-01T08:00:19.363Z</time></trkpt><trkpt lat="46.61720485000001" lon="11.222992066666666"><ele>1276.0</ele><time>2026-05-01T08:00:20.352Z</time></trkpt><trkpt lat="46.61735614999999" lon="11.223144699999999"><ele>1276.3333333333333</ele><time>2026-05-01T08:00:21.362Z</time></trkpt><trkpt lat="46.617523150000004" lon="11.22327935"><ele>1276.6666666666667</ele><time>2026-05-01T08:00:22.359Z</time></trkpt><trkpt lat="46.617696266666655" lon="11.22340485"><ele>1277.0</ele><time>2026-05-01T08:00:23.353Z</time></trkpt><trkpt lat="46.617863066666665" lon="11.223523266666666"><ele>1277.0</ele><time>2026-05-01T08:00:24.364Z</time></trkpt><trkpt lat="46.61801676666667" lon="11.223644033333334"><ele>1277.0</ele><time>2026-05-01T08:00:25.37Z</time></trkpt><trkpt lat="46.6181544" lon="11.223771766666669"><ele>1277.0</ele><time>2026-05-01T08:00:26.354Z</time></trkpt><trkpt lat="46.618276" lon="11.223922216666665"><ele>1270.6666666666667</ele><time>2026-05-01T08:00:27.358Z</time></trkpt><trkpt lat="46.61838076666666" lon="11.224101116666667"><ele>1264.3333333333333</ele><time>2026-05-01T08:00:28.354Z</time></trkpt><trkpt lat="46.618465533333335" lon="11.224308116666668"><ele>1258.0</ele><time>2026-05-01T08:00:29.352Z</time></trkpt><trkpt lat="46.61852296666666" lon="11.22453565"><ele>1258.0</ele><time>2026-05-01T08:00:30.357Z</time></trkpt><trkpt lat="46.618547983333336" lon="11.224778633333335"><ele>1258.0</ele><time>2026-05-01T08:00:31.359Z</time></trkpt><trkpt lat="46.618542250000004" lon="11.225023749999998"><ele>1258.0</ele><time>2026-05-01T08:00:32.359Z</time></trkpt><trkpt lat="46.61850583333333" lon="11.225255250000002"><ele>1257.0</ele><time>2026-05-01T08:00:33.363Z</time></trkpt><trkpt lat="46.61843796666667" lon="11.225464316666667"><ele>1256.0</ele><time>2026-05-01T08:00:34.371Z</time></trkpt><trkpt lat="46.61834323333332" lon="11.225658933333333"><ele>1255.0</ele><time>2026-05-01T08:00:35.352Z</time></trkpt><trkpt lat="46.61822586666667" lon="11.225831416666665"><ele>1252.3333333333333</ele><time>2026-05-01T08:00:36.364Z</time></trkpt><trkpt lat="46.618093483333325" lon="11.225986100000002"><ele>1249.6666666666667</ele><time>2026-05-01T08:00:37.355Z</time></trkpt><trkpt lat="46.61795141666667" lon="11.226141600000002"><ele>1247.0</ele><time>2026-05-01T08:00:38.359Z</time></trkpt><trkpt lat="46.617806766666675" lon="11.226294600000001"><ele>1247.0</ele><time>2026-05-01T08:00:39.368Z</time></trkpt><trkpt lat="46.6176565" lon="11.226442100000002"><ele>1247.0</ele><time>2026-05-01T08:00:40.357Z</time></trkpt><trkpt lat="46.6175009" lon="11.226579483333335"><ele>1247.0</ele><time>2026-05-01T08:00:41.366Z</time></trkpt><trkpt lat="46.61733868333334" lon="11.226709016666666"><ele>1248.0</ele><time>2026-05-01T08:00:42.371Z</time></trkpt><trkpt lat="46.61717006666666" lon="11.226827783333333"><ele>1249.0</ele><time>2026-05-01T08:00:43.371Z</time></trkpt><trkpt lat="46.616995983333325" lon="11.226937816666668"><ele>1250.0</ele><time>2026-05-01T08:00:44.354Z</time></trkpt><trkpt lat="46.61681668333334" lon="11.227042916666669"><ele>1250.0</ele><time>2026-05-01T08:00:45.365Z</time></trkpt><trkpt lat="46.616634700000006" lon="11.227145"><ele>1250.0</ele><time>2026-05-01T08:00:46.372Z</time></trkpt><trkpt lat="46.616444666666666" lon="11.227235499999997"><ele>1250.0</ele><time>2026-05-01T08:00:47.353Z</time></trkpt><trkpt lat="46.6162488" lon="11.22731663333333"><ele>1250.3333333333335</ele><time>2026-05-01T08:00:48.363Z</time></trkpt><trkpt lat="46.61604394120743" lon="11.227355897981615"><ele>1250.6666666666667</ele><time>2026-05-01T08:00:49.37Z</time></trkpt><trkpt lat="46.615838623449896" lon="11.227408669572538"><ele>1251.0</ele><time>2026-05-01T08:00:50.353Z</time></trkpt><trkpt lat="46.6156304656451" lon="11.22745653075024"><ele>1251.0</ele><time>2026-05-01T08:00:51.372Z</time></trkpt><trkpt lat="46.61541924932052" lon="11.227505482470658"><ele>1251.0</ele><time>2026-05-01T08:00:53.353Z</time></trkpt><trkpt lat="46.61520779376294" lon="11.22755935865029"><ele>1251.0</ele><time>2026-05-01T08:00:54.358Z</time></trkpt><trkpt lat="46.614995691374" lon="11.227620913521887"><ele>1246.0</ele><time>2026-05-01T08:00:55.37Z</time></trkpt><trkpt lat="46.614553091319834" lon="11.227759613805512"><ele>1240.0</ele><time>2026-05-01T08:00:56.354Z</time></trkpt><trkpt lat="46.61432814396974" lon="11.227840513421325"><ele>1234.0</ele><time>2026-05-01T08:00:57.358Z</time></trkpt><trkpt lat="46.61410482612285" lon="11.227927063323966"><ele>1234.0</ele><time>2026-05-01T08:00:58.374Z</time></trkpt><trkpt lat="46.61388823333334" lon="11.228041483333334"><ele>1234.0</ele><time>2026-05-01T08:00:59.355Z</time></trkpt><trkpt lat="46.61366076666666" lon="11.228124733333335"><ele>1238.0</ele><time>2026-05-01T08:01:00.352Z</time></trkpt><trkpt lat="46.61343145000001" lon="11.228204000000002"><ele>1242.0</ele><time>2026-05-01T08:01:01.368Z</time></trkpt><trkpt lat="46.61319858333333" lon="11.228279950000001"><ele>1242.0</ele><time>2026-05-01T08:01:02.354Z</time></trkpt><trkpt lat="46.612962383333326" lon="11.228355083333334"><ele>1242.0</ele><time>2026-05-01T08:01:03.358Z</time></trkpt><trkpt lat="46.61272386666666" lon="11.228427383333335"><ele>1242.5</ele><time>2026-05-01T08:01:04.362Z</time></trkpt><trkpt lat="46.61248478333333" lon="11.228497966666666"><ele>1243.0</ele><time>2026-05-01T08:01:05.353Z</time></trkpt><trkpt lat="46.61224435618077" lon="11.22853599659764"><ele>1243.0</ele><time>2026-05-01T08:01:06.357Z</time></trkpt><trkpt lat="46.61200529693198" lon="11.228576977936255"><ele>1243.0</ele><time>2026-05-01T08:01:08.355Z</time></trkpt><trkpt lat="46.61177328294573" lon="11.228575884967647"><ele>1243.5</ele><time>2026-05-01T08:01:09.364Z</time></trkpt><trkpt lat="46.61154693004333" lon="11.228532195707606"><ele>1244.0</ele><time>2026-05-01T08:01:10.373Z</time></trkpt><trkpt lat="46.61112758158211" lon="11.228334698001648"><ele>1246.3333333333335</ele><time>2026-05-01T08:01:11.353Z</time></trkpt><trkpt lat="46.61093230177678" lon="11.2281937708831"><ele>1248.6666666666667</ele><time>2026-05-01T08:01:12.363Z</time></trkpt><trkpt lat="46.610740351447916" lon="11.228054306497757"><ele>1251.0</ele><time>2026-05-01T08:01:13.37Z</time></trkpt><trkpt lat="46.610548287790316" lon="11.227941469089586"><ele>1246.0</ele><time>2026-05-01T08:01:14.356Z</time></trkpt><trkpt lat="46.61035983240691" lon="11.227855402092555"><ele>1241.0</ele><time>2026-05-01T08:01:15.357Z</time></trkpt><trkpt lat="46.6101696355568" lon="11.22779787502833"><ele>1236.0</ele><time>2026-05-01T08:01:16.361Z</time></trkpt><trkpt lat="46.60997015123863" lon="11.227742837425264"><ele>1236.0</ele><time>2026-05-01T08:01:17.353Z</time></trkpt><trkpt lat="46.609764835074685" lon="11.227687569545926"><ele>1236.0</ele><time>2026-05-01T08:01:18.351Z</time></trkpt><trkpt lat="46.60955403678239" lon="11.227634924627239"><ele>1236.0</ele><time>2026-05-01T08:01:19.351Z</time></trkpt><trkpt lat="46.609334575954" lon="11.227576991489306"><ele>1236.6666666666667</ele><time>2026-05-01T08:01:20.356Z</time></trkpt><trkpt lat="46.60911749568048" lon="11.227516755615193"><ele>1237.3333333333335</ele><time>2026-05-01T08:01:21.354Z</time></trkpt><trkpt lat="46.60892424685547" lon="11.22746324321265"><ele>1238.0</ele><time>2026-05-01T08:01:22.367Z</time></trkpt><trkpt lat="46.60876000314544" lon="11.227417351015264"><ele>1238.0</ele><time>2026-05-01T08:01:23.357Z</time></trkpt><trkpt lat="46.608610283333334" lon="11.227403983333334"><ele>1238.0</ele><time>2026-05-01T08:01:24.354Z</time></trkpt><trkpt lat="46.60846908333333" lon="11.227353816666668"><ele>1238.0</ele><time>2026-05-01T08:01:25.365Z</time></trkpt><trkpt lat="46.608341349999996" lon="11.227290983333335"><ele>1238.0</ele><time>2026-05-01T08:01:26.354Z</time></trkpt><trkpt lat="46.608217200000006" lon="11.227218233333334"><ele>1235.5</ele><time>2026-05-01T08:01:27.363Z</time></trkpt><trkpt lat="46.60810377993584" lon="11.22710526051905"><ele>1233.0</ele><time>2026-05-01T08:01:28.375Z</time></trkpt><trkpt lat="46.60799519999424" lon="11.227008160662589"><ele>1230.5</ele><time>2026-05-01T08:01:29.353Z</time></trkpt><trkpt lat="46.60788674969731" lon="11.22690071584863"><ele>1228.0</ele><time>2026-05-01T08:01:30.354Z</time></trkpt><trkpt lat="46.60777693153631" lon="11.226783380133227"><ele>1225.75</ele><time>2026-05-01T08:01:31.362Z</time></trkpt><trkpt lat="46.607668625559114" lon="11.226649440129783"><ele>1223.5</ele><time>2026-05-01T08:01:32.363Z</time></trkpt><trkpt lat="46.607554893163375" lon="11.226522003573109"><ele>1221.25</ele><time>2026-05-01T08:01:33.355Z</time></trkpt><trkpt lat="46.607429716589124" lon="11.226403321810473"><ele>1219.0</ele><time>2026-05-01T08:01:34.358Z</time></trkpt><trkpt lat="46.60729068534691" lon="11.226311214969062"><ele>1216.0</ele><time>2026-05-01T08:01:35.353Z</time></trkpt><trkpt lat="46.60714118805581" lon="11.226257381305908"><ele>1213.0</ele><time>2026-05-01T08:01:36.364Z</time></trkpt><trkpt lat="46.60683765963891" lon="11.226262352410961"><ele>1212.25</ele><time>2026-05-01T08:01:38.353Z</time></trkpt><trkpt lat="46.606696524931316" lon="11.226283878429244"><ele>1211.5</ele><time>2026-05-01T08:01:39.365Z</time></trkpt><trkpt lat="46.60656018739489" lon="11.2263088820301"><ele>1210.75</ele><time>2026-05-01T08:01:40.372Z</time></trkpt><trkpt lat="46.6064280403929" lon="11.226333117070881"><ele>1210.0</ele><time>2026-05-01T08:01:41.355Z</time></trkpt><trkpt lat="46.60630492559787" lon="11.226355697273625"><ele>1210.0</ele><time>2026-05-01T08:01:42.364Z</time></trkpt><trkpt lat="46.60618997961302" lon="11.226385543765131"><ele>1210.0</ele><time>2026-05-01T08:01:43.351Z</time></trkpt><trkpt lat="46.606089283333326" lon="11.226449533333334"><ele>1210.0</ele><time>2026-05-01T08:01:44.353Z</time></trkpt><trkpt lat="46.60599058333334" lon="11.22650615"><ele>1210.0</ele><time>2026-05-01T08:01:45.366Z</time></trkpt><trkpt lat="46.605897383333335" lon="11.226586349999998"><ele>1210.0</ele><time>2026-05-01T08:01:46.361Z</time></trkpt><trkpt lat="46.605812533333335" lon="11.226686483333332"><ele>1210.25</ele><time>2026-05-01T08:01:47.352Z</time></trkpt><trkpt lat="46.60573581666666" lon="11.226801716666667"><ele>1210.5</ele><time>2026-05-01T08:01:48.361Z</time></trkpt><trkpt lat="46.60567293333334" lon="11.226935783333332"><ele>1210.75</ele><time>2026-05-01T08:01:49.364Z</time></trkpt><trkpt lat="46.6056273" lon="11.227089333333334"><ele>1211.0</ele><time>2026-05-01T08:01:50.363Z</time></trkpt><trkpt lat="46.605592099999996" lon="11.227257833333333"><ele>1212.75</ele><time>2026-05-01T08:01:51.363Z</time></trkpt><trkpt lat="46.60555483333332" lon="11.227433883333331"><ele>1214.5</ele><time>2026-05-01T08:01:52.358Z</time></trkpt><trkpt lat="46.60551151666667" lon="11.227613833333331"><ele>1216.25</ele><time>2026-05-01T08:01:53.354Z</time></trkpt><trkpt lat="46.60546266666667" lon="11.227793883333332"><ele>1218.0</ele><time>2026-05-01T08:01:54.366Z</time></trkpt><trkpt lat="46.60541185" lon="11.22797725"><ele>1217.0</ele><time>2026-05-01T08:01:55.364Z</time></trkpt><trkpt lat="46.605354750000004" lon="11.228166016666668"><ele>1216.0</ele><time>2026-05-01T08:01:56.354Z</time></trkpt><trkpt lat="46.605296949999996" lon="11.22836095"><ele>1215.0</ele><time>2026-05-01T08:01:57.353Z</time></trkpt><trkpt lat="46.605245" lon="11.228564933333333"><ele>1214.0</ele><time>2026-05-01T08:01:58.363Z</time></trkpt><trkpt lat="46.605186143503715" lon="11.22877187548889"><ele>1217.0</ele><time>2026-05-01T08:01:59.365Z</time></trkpt><trkpt lat="46.60518206666668" lon="11.228996500000003"><ele>1220.0</ele><time>2026-05-01T08:02:00.362Z</time></trkpt><trkpt lat="46.605175800000005" lon="11.229216000000001"><ele>1223.0</ele><time>2026-05-01T08:02:01.368Z</time></trkpt><trkpt lat="46.60515838333335" lon="11.229427433333335"><ele>1223.0</ele><time>2026-05-01T08:02:02.354Z</time></trkpt><trkpt lat="46.60510715" lon="11.229618033333335"><ele>1223.0</ele><time>2026-05-01T08:02:03.356Z</time></trkpt><trkpt lat="46.6050196" lon="11.229767900000002"><ele>1223.0</ele><time>2026-05-01T08:02:04.354Z</time></trkpt><trkpt lat="46.60490893333334" lon="11.229902183333335"><ele>1223.0</ele><time>2026-05-01T08:02:05.355Z</time></trkpt><trkpt lat="46.604785516666674" lon="11.230030333333332"><ele>1227.6666666666667</ele><time>2026-05-01T08:02:07.363Z</time></trkpt><trkpt lat="46.60465018333333" lon="11.23014775"><ele>1232.3333333333333</ele><time>2026-05-01T08:02:08.359Z</time></trkpt><trkpt lat="46.604508550000006" lon="11.230252566666666"><ele>1237.0</ele><time>2026-05-01T08:02:09.367Z</time></trkpt><trkpt lat="46.60436225" lon="11.23033665"><ele>1237.0</ele><time>2026-05-01T08:02:10.363Z</time></trkpt><trkpt lat="46.60422416666667" lon="11.230426166666666"><ele>1237.0</ele><time>2026-05-01T08:02:11.353Z</time></trkpt><trkpt lat="46.604014783333334" lon="11.230699766666666"><ele>1237.0</ele><time>2026-05-01T08:02:12.361Z</time></trkpt><trkpt lat="46.603949183333334" lon="11.230884366666665"><ele>1240.5</ele><time>2026-05-01T08:02:13.354Z</time></trkpt><trkpt lat="46.603906316666674" lon="11.231088166666666"><ele>1244.0</ele><time>2026-05-01T08:02:14.352Z</time></trkpt><trkpt lat="46.60388979999999" lon="11.231304966666668"><ele>1247.5</ele><time>2026-05-01T08:02:15.351Z</time></trkpt><trkpt lat="46.60390361666667" lon="11.231524750000002"><ele>1251.0</ele><time>2026-05-01T08:02:16.363Z</time></trkpt><trkpt lat="46.603945733333326" lon="11.231737933333333"><ele>1253.6666666666667</ele><time>2026-05-01T08:02:17.352Z</time></trkpt><trkpt lat="46.60399174341366" lon="11.2319599504635"><ele>1256.3333333333335</ele><time>2026-05-01T08:02:18.372Z</time></trkpt><trkpt lat="46.60405252067945" lon="11.232175504549014"><ele>1259.0</ele><time>2026-05-01T08:02:19.37Z</time></trkpt><trkpt lat="46.604119116666666" lon="11.232382633333335"><ele>1261.0</ele><time>2026-05-01T08:02:20.363Z</time></trkpt><trkpt lat="46.604141666666656" lon="11.232598533333332"><ele>1263.0</ele><time>2026-05-01T08:02:21.367Z</time></trkpt><trkpt lat="46.604123466666664" lon="11.232806266666666"><ele>1265.0</ele><time>2026-05-01T08:02:22.373Z</time></trkpt><trkpt lat="46.604060200000006" lon="11.232999633333336"><ele>1267.0</ele><time>2026-05-01T08:02:23.354Z</time></trkpt><trkpt lat="46.60396385000001" lon="11.233176649999999"><ele>1266.6666666666665</ele><time>2026-05-01T08:02:24.363Z</time></trkpt><trkpt lat="46.60385543333334" lon="11.233347416666666"><ele>1266.3333333333333</ele><time>2026-05-01T08:02:25.364Z</time></trkpt><trkpt lat="46.603743550000004" lon="11.2335267"><ele>1266.0</ele><time>2026-05-01T08:02:26.359Z</time></trkpt><trkpt lat="46.60362963333334" lon="11.233708316666664"><ele>1266.0</ele><time>2026-05-01T08:02:27.372Z</time></trkpt><trkpt lat="46.60351996666667" lon="11.233881616666666"><ele>1266.0</ele><time>2026-05-01T08:02:28.363Z</time></trkpt><trkpt lat="46.603436200000004" lon="11.234051116666667"><ele>1266.0</ele><time>2026-05-01T08:02:29.363Z</time></trkpt><trkpt lat="46.60339493333333" lon="11.234228100000001"><ele>1266.0</ele><time>2026-05-01T08:02:30.358Z</time></trkpt><trkpt lat="46.6033958" lon="11.234412966666666"><ele>1268.6666666666667</ele><time>2026-05-01T08:02:31.37Z</time></trkpt><trkpt lat="46.60344806666667" lon="11.2345809"><ele>1271.3333333333335</ele><time>2026-05-01T08:02:32.352Z</time></trkpt><trkpt lat="46.603641100000004" lon="11.234816999999998"><ele>1274.0</ele><time>2026-05-01T08:02:34.372Z</time></trkpt><trkpt lat="46.603773000000004" lon="11.234871566666667"><ele>1279.3333333333335</ele><time>2026-05-01T08:02:35.356Z</time></trkpt><trkpt lat="46.60392101666666" lon="11.234910400000002"><ele>1284.6666666666667</ele><time>2026-05-01T08:02:36.374Z</time></trkpt><trkpt lat="46.604078166666675" lon="11.234943616666666"><ele>1290.0</ele><time>2026-05-01T08:02:37.37Z</time></trkpt><trkpt lat="46.604248016666666" lon="11.234965816666667"><ele>1290.0</ele><time>2026-05-01T08:02:38.359Z</time></trkpt><trkpt lat="46.60442476666667" lon="11.23497915"><ele>1290.0</ele><time>2026-05-01T08:02:39.364Z</time></trkpt><trkpt lat="46.60460951666667" lon="11.234977583333334"><ele>1290.0</ele><time>2026-05-01T08:02:40.363Z</time></trkpt><trkpt lat="46.60480296666666" lon="11.23495705"><ele>1290.0</ele><time>2026-05-01T08:02:41.354Z</time></trkpt><trkpt lat="46.60500283333334" lon="11.23492545"><ele>1290.0</ele><time>2026-05-01T08:02:42.358Z</time></trkpt><trkpt lat="46.60520456666667" lon="11.234889983333336"><ele>1290.0</ele><time>2026-05-01T08:02:43.363Z</time></trkpt><trkpt lat="46.6054031" lon="11.234862549999997"><ele>1290.0</ele><time>2026-05-01T08:02:44.353Z</time></trkpt><trkpt lat="46.60559556666667" lon="11.234857033333332"><ele>1290.0</ele><time>2026-05-01T08:02:45.365Z</time></trkpt><trkpt lat="46.605786933333334" lon="11.2348673"><ele>1290.0</ele><time>2026-05-01T08:02:46.364Z</time></trkpt><trkpt lat="46.60598078333334" lon="11.234883216666667"><ele>1290.0</ele><time>2026-05-01T08:02:47.353Z</time></trkpt><trkpt lat="46.60617375" lon="11.23491145"><ele>1290.0</ele><time>2026-05-01T08:02:48.372Z</time></trkpt><trkpt lat="46.60636649999999" lon="11.234946666666668"><ele>1290.0</ele><time>2026-05-01T08:02:49.371Z</time></trkpt><trkpt lat="46.60655788333333" lon="11.234988483333334"><ele>1290.0</ele><time>2026-05-01T08:02:50.354Z</time></trkpt><trkpt lat="46.60674946666666" lon="11.2350329"><ele>1290.0</ele><time>2026-05-01T08:02:51.356Z</time></trkpt><trkpt lat="46.606938883333335" lon="11.235085316666668"><ele>1290.0</ele><time>2026-05-01T08:02:52.352Z</time></trkpt><trkpt lat="46.60712343333333" lon="11.235147116666667"><ele>1290.6666666666667</ele><time>2026-05-01T08:02:53.353Z</time></trkpt><trkpt lat="46.607301033333336" lon="11.235232266666666"><ele>1291.3333333333335</ele><time>2026-05-01T08:02:54.374Z</time></trkpt><trkpt lat="46.60745936666667" lon="11.235353650000002"><ele>1292.0</ele><time>2026-05-01T08:02:55.363Z</time></trkpt><trkpt lat="46.60759706666666" lon="11.235509066666669"><ele>1295.3333333333335</ele><time>2026-05-01T08:02:56.359Z</time></trkpt><trkpt lat="46.60770443333334" lon="11.2356976"><ele>1298.6666666666667</ele><time>2026-05-01T08:02:58.363Z</time></trkpt><trkpt lat="46.60778081666667" lon="11.235911316666668"><ele>1302.0</ele><time>2026-05-01T08:02:59.352Z</time></trkpt><trkpt lat="46.60783503333334" lon="11.236133883333332"><ele>1305.0</ele><time>2026-05-01T08:03:00.354Z</time></trkpt><trkpt lat="46.60789410411041" lon="11.236588557029014"><ele>1308.0</ele><time>2026-05-01T08:03:01.374Z</time></trkpt><trkpt lat="46.60791714067571" lon="11.23680220445989"><ele>1308.0</ele><time>2026-05-01T08:03:02.354Z</time></trkpt><trkpt lat="46.60793458961609" lon="11.237006752104543"><ele>1308.0</ele><time>2026-05-01T08:03:03.364Z</time></trkpt><trkpt lat="46.60795233952848" lon="11.237205213553036"><ele>1308.0</ele><time>2026-05-01T08:03:04.363Z</time></trkpt><trkpt lat="46.60798643333333" lon="11.23739705"><ele>1308.0</ele><time>2026-05-01T08:03:05.354Z</time></trkpt><trkpt lat="46.608003499999995" lon="11.237591516666665"><ele>1310.25</ele><time>2026-05-01T08:03:06.368Z</time></trkpt><trkpt lat="46.60802476666667" lon="11.237783083333333"><ele>1312.5</ele><time>2026-05-01T08:03:07.369Z</time></trkpt><trkpt lat="46.60804398333333" lon="11.237973233333332"><ele>1314.75</ele><time>2026-05-01T08:03:08.364Z</time></trkpt><trkpt lat="46.60804294999999" lon="11.238162800000001"><ele>1317.0</ele><time>2026-05-01T08:03:09.373Z</time></trkpt><trkpt lat="46.60801293333334" lon="11.238348633333331"><ele>1318.5</ele><time>2026-05-01T08:03:10.372Z</time></trkpt><trkpt lat="46.60795840000001" lon="11.238527549999999"><ele>1320.0</ele><time>2026-05-01T08:03:11.355Z</time></trkpt><trkpt lat="46.607901999999996" lon="11.238703533333336"><ele>1321.5</ele><time>2026-05-01T08:03:12.363Z</time></trkpt><trkpt lat="46.60785763333333" lon="11.238884483333333"><ele>1323.0</ele><time>2026-05-01T08:03:13.368Z</time></trkpt><trkpt lat="46.60784518333333" lon="11.23907065"><ele>1323.0</ele><time>2026-05-01T08:03:14.353Z</time></trkpt><trkpt lat="46.60787001666666" lon="11.23925556666667"><ele>1323.0</ele><time>2026-05-01T08:03:15.366Z</time></trkpt><trkpt lat="46.607913083333344" lon="11.23943905"><ele>1323.0</ele><time>2026-05-01T08:03:16.372Z</time></trkpt><trkpt lat="46.60795605" lon="11.239625516666669"><ele>1323.0</ele><time>2026-05-01T08:03:17.367Z</time></trkpt><trkpt lat="46.60799965" lon="11.23981435"><ele>1322.25</ele><time>2026-05-01T08:03:18.366Z</time></trkpt><trkpt lat="46.60804436666667" lon="11.240009083333332"><ele>1321.5</ele><time>2026-05-01T08:03:19.349Z</time></trkpt><trkpt lat="46.608085100000004" lon="11.24021705"><ele>1320.75</ele><time>2026-05-01T08:03:20.354Z</time></trkpt><trkpt lat="46.60812073333333" lon="11.240433133333333"><ele>1320.0</ele><time>2026-05-01T08:03:21.363Z</time></trkpt><trkpt lat="46.608154633333335" lon="11.240643749999998"><ele>1318.3333333333333</ele><time>2026-05-01T08:03:22.363Z</time></trkpt><trkpt lat="46.608198666666674" lon="11.240849033333333"><ele>1316.6666666666665</ele><time>2026-05-01T08:03:23.359Z</time></trkpt><trkpt lat="46.60826153333335" lon="11.241048133333333"><ele>1315.0</ele><time>2026-05-01T08:03:24.362Z</time></trkpt><trkpt lat="46.608346250000004" lon="11.241243733333333"><ele>1315.0</ele><time>2026-05-01T08:03:25.361Z</time></trkpt><trkpt lat="46.60844411666667" lon="11.241442016666667"><ele>1315.0</ele><time>2026-05-01T08:03:26.352Z</time></trkpt><trkpt lat="46.60853915" lon="11.241637433333336"><ele>1315.0</ele><time>2026-05-01T08:03:27.354Z</time></trkpt><trkpt lat="46.608626599999994" lon="11.241830766666665"><ele>1314.0</ele><time>2026-05-01T08:03:28.352Z</time></trkpt><trkpt lat="46.608707933333335" lon="11.242014"><ele>1313.0</ele><time>2026-05-01T08:03:29.359Z</time></trkpt><trkpt lat="46.60879031666667" lon="11.242186016666668"><ele>1312.0</ele><time>2026-05-01T08:03:30.366Z</time></trkpt><trkpt lat="46.608880983333336" lon="11.2423419"><ele>1311.0</ele><time>2026-05-01T08:03:31.364Z</time></trkpt><trkpt lat="46.6089875" lon="11.242476416666666"><ele>1311.0</ele><time>2026-05-01T08:03:32.359Z</time></trkpt><trkpt lat="46.60910823333334" lon="11.242584466666665"><ele>1311.0</ele><time>2026-05-01T08:03:33.365Z</time></trkpt><trkpt lat="46.6092416" lon="11.242679716666665"><ele>1311.0</ele><time>2026-05-01T08:03:34.362Z</time></trkpt><trkpt lat="46.60937523333334" lon="11.242770499999997"><ele>1311.0</ele><time>2026-05-01T08:03:35.364Z</time></trkpt><trkpt lat="46.60949485" lon="11.242881416666668"><ele>1309.75</ele><time>2026-05-01T08:03:36.364Z</time></trkpt><trkpt lat="46.60959866666667" lon="11.243019683333333"><ele>1308.5</ele><time>2026-05-01T08:03:37.37Z</time></trkpt><trkpt lat="46.609690316666665" lon="11.243168866666668"><ele>1307.25</ele><time>2026-05-01T08:03:38.355Z</time></trkpt><trkpt lat="46.60978321666667" lon="11.243311416666664"><ele>1306.0</ele><time>2026-05-01T08:03:39.358Z</time></trkpt><trkpt lat="46.609888516666665" lon="11.243430583333334"><ele>1306.0</ele><time>2026-05-01T08:03:40.354Z</time></trkpt><trkpt lat="46.61001045" lon="11.243532799999999"><ele>1306.0</ele><time>2026-05-01T08:03:41.355Z</time></trkpt><trkpt lat="46.61014221666666" lon="11.243628083333332"><ele>1306.0</ele><time>2026-05-01T08:03:42.357Z</time></trkpt><trkpt lat="46.61028256666667" lon="11.243713866666665"><ele>1306.0</ele><time>2026-05-01T08:03:43.363Z</time></trkpt><trkpt lat="46.610431150000004" lon="11.243785849999998"><ele>1303.6666666666665</ele><time>2026-05-01T08:03:44.355Z</time></trkpt><trkpt lat="46.61058218333333" lon="11.243851616666666"><ele>1301.3333333333333</ele><time>2026-05-01T08:03:45.354Z</time></trkpt><trkpt lat="46.61072559999999" lon="11.243932433333335"><ele>1299.0</ele><time>2026-05-01T08:03:46.364Z</time></trkpt><trkpt lat="46.61084340000001" lon="11.244053133333333"><ele>1299.0</ele><time>2026-05-01T08:03:47.355Z</time></trkpt><trkpt lat="46.61093436666666" lon="11.244210366666668"><ele>1299.0</ele><time>2026-05-01T08:03:48.365Z</time></trkpt><trkpt lat="46.61101286666667" lon="11.244380083333333"><ele>1299.0</ele><time>2026-05-01T08:03:49.354Z</time></trkpt><trkpt lat="46.61109761666667" lon="11.244555466666668"><ele>1299.0</ele><time>2026-05-01T08:03:50.354Z</time></trkpt><trkpt lat="46.61118785" lon="11.244736783333334"><ele>1300.0</ele><time>2026-05-01T08:03:51.357Z</time></trkpt><trkpt lat="46.611283183333335" lon="11.24492595"><ele>1301.0</ele><time>2026-05-01T08:03:52.363Z</time></trkpt><trkpt lat="46.61138076666666" lon="11.245115349999999"><ele>1302.0</ele><time>2026-05-01T08:03:53.355Z</time></trkpt><trkpt lat="46.6114829" lon="11.24531295"><ele>1302.0</ele><time>2026-05-01T08:03:54.372Z</time></trkpt><trkpt lat="46.61158383333333" lon="11.245517316666666"><ele>1302.0</ele><time>2026-05-01T08:03:55.37Z</time></trkpt><trkpt lat="46.6116831" lon="11.245718716666666"><ele>1302.0</ele><time>2026-05-01T08:03:56.354Z</time></trkpt><trkpt lat="46.611791216666674" lon="11.24591475"><ele>1300.0</ele><time>2026-05-01T08:03:57.364Z</time></trkpt><trkpt lat="46.61191614999999" lon="11.246088066666667"><ele>1298.0</ele><time>2026-05-01T08:03:58.373Z</time></trkpt><trkpt lat="46.612052116666675" lon="11.246241366666666"><ele>1296.0</ele><time>2026-05-01T08:03:59.355Z</time></trkpt><trkpt lat="46.61218051666666" lon="11.246403183333332"><ele>1292.3333333333333</ele><time>2026-05-01T08:04:00.357Z</time></trkpt><trkpt lat="46.61229505" lon="11.246588683333334"><ele>1288.6666666666665</ele><time>2026-05-01T08:04:01.363Z</time></trkpt><trkpt lat="46.612382833333335" lon="11.246797183333335"><ele>1285.0</ele><time>2026-05-01T08:04:02.353Z</time></trkpt><trkpt lat="46.61243755000001" lon="11.247026349999999"><ele>1285.0</ele><time>2026-05-01T08:04:03.373Z</time></trkpt><trkpt lat="46.61246135" lon="11.247256733333332"><ele>1285.0</ele><time>2026-05-01T08:04:04.364Z</time></trkpt><trkpt lat="46.612451066666665" lon="11.247480666666668"><ele>1285.0</ele><time>2026-05-01T08:04:05.355Z</time></trkpt><trkpt lat="46.61241126666667" lon="11.247686283333332"><ele>1283.5</ele><time>2026-05-01T08:04:06.358Z</time></trkpt><trkpt lat="46.61233598901799" lon="11.247862798169185"><ele>1282.0</ele><time>2026-05-01T08:04:07.351Z</time></trkpt><trkpt lat="46.61225963902866" lon="11.248041964837933"><ele>1280.5</ele><time>2026-05-01T08:04:08.359Z</time></trkpt><trkpt lat="46.61218242149319" lon="11.248220103622538"><ele>1279.0</ele><time>2026-05-01T08:04:09.358Z</time></trkpt><trkpt lat="46.61210859976485" lon="11.248406307731214"><ele>1279.0</ele><time>2026-05-01T08:04:10.363Z</time></trkpt><trkpt lat="46.612063233333345" lon="11.248625466666665"><ele>1279.0</ele><time>2026-05-01T08:04:11.355Z</time></trkpt><trkpt lat="46.612019016666665" lon="11.248849583333334"><ele>1279.0</ele><time>2026-05-01T08:04:12.35Z</time></trkpt><trkpt lat="46.61198214999999" lon="11.249082216666666"><ele>1274.3333333333333</ele><time>2026-05-01T08:04:13.372Z</time></trkpt><trkpt lat="46.61194373333333" lon="11.249314716666667"><ele>1269.6666666666667</ele><time>2026-05-01T08:04:14.353Z</time></trkpt><trkpt lat="46.61187530722934" lon="11.24953205344467"><ele>1265.0</ele><time>2026-05-01T08:04:15.364Z</time></trkpt><trkpt lat="46.61181676005469" lon="11.249750486933738"><ele>1264.6666666666667</ele><time>2026-05-01T08:04:16.364Z</time></trkpt><trkpt lat="46.611753081284554" lon="11.249962560094282"><ele>1264.3333333333333</ele><time>2026-05-01T08:04:17.355Z</time></trkpt><trkpt lat="46.611682912542825" lon="11.250170374197394"><ele>1264.0</ele><time>2026-05-01T08:04:18.358Z</time></trkpt><trkpt lat="46.611608723581" lon="11.250370764898747"><ele>1264.0</ele><time>2026-05-01T08:04:19.364Z</time></trkpt><trkpt lat="46.61153088400833" lon="11.250570915565032"><ele>1264.0</ele><time>2026-05-01T08:04:20.354Z</time></trkpt><trkpt lat="46.61145409761196" lon="11.25077390489116"><ele>1264.0</ele><time>2026-05-01T08:04:21.365Z</time></trkpt><trkpt lat="46.61137878215381" lon="11.250977354594516"><ele>1265.0</ele><time>2026-05-01T08:04:22.366Z</time></trkpt><trkpt lat="46.6113190169025" lon="11.251197340488842"><ele>1266.0</ele><time>2026-05-01T08:04:23.359Z</time></trkpt><trkpt lat="46.61127322774641" lon="11.251422430357776"><ele>1267.0</ele><time>2026-05-01T08:04:24.364Z</time></trkpt><trkpt lat="46.61124770814743" lon="11.251657934454768"><ele>1267.0</ele><time>2026-05-01T08:04:25.351Z</time></trkpt><trkpt lat="46.611254816666666" lon="11.251896783333333"><ele>1267.0</ele><time>2026-05-01T08:04:26.354Z</time></trkpt><trkpt lat="46.61125099999999" lon="11.2521371"><ele>1267.0</ele><time>2026-05-01T08:04:27.366Z</time></trkpt><trkpt lat="46.611250333333324" lon="11.252376433333332"><ele>1264.0</ele><time>2026-05-01T08:04:28.364Z</time></trkpt><trkpt lat="46.61125165" lon="11.252618700000001"><ele>1261.0</ele><time>2026-05-01T08:04:29.355Z</time></trkpt><trkpt lat="46.611250516666665" lon="11.25310015"><ele>1259.3333333333333</ele><time>2026-05-01T08:04:31.37Z</time></trkpt><trkpt lat="46.61124353333333" lon="11.253340566666667"><ele>1257.6666666666667</ele><time>2026-05-01T08:04:32.354Z</time></trkpt><trkpt lat="46.611224983333344" lon="11.25357785"><ele>1256.0</ele><time>2026-05-01T08:04:33.356Z</time></trkpt><trkpt lat="46.611191733333335" lon="11.25380235"><ele>1256.0</ele><time>2026-05-01T08:04:34.364Z</time></trkpt><trkpt lat="46.61115741666668" lon="11.254025583333334"><ele>1256.0</ele><time>2026-05-01T08:04:35.355Z</time></trkpt><trkpt lat="46.611130249999995" lon="11.254242649999998"><ele>1256.0</ele><time>2026-05-01T08:04:36.356Z</time></trkpt><trkpt lat="46.61111615" lon="11.254451100000002"><ele>1251.75</ele><time>2026-05-01T08:04:37.37Z</time></trkpt><trkpt lat="46.61109967076736" lon="11.254653781669312"><ele>1247.5</ele><time>2026-05-01T08:04:38.36Z</time></trkpt><trkpt lat="46.6111184" lon="11.25484606666667"><ele>1243.25</ele><time>2026-05-01T08:04:39.365Z</time></trkpt><trkpt lat="46.61109795000001" lon="11.255029366666669"><ele>1239.0</ele><time>2026-05-01T08:04:40.362Z</time></trkpt><trkpt lat="46.6110562" lon="11.255201383333333"><ele>1239.0</ele><time>2026-05-01T08:04:41.355Z</time></trkpt><trkpt lat="46.61102171666666" lon="11.255368883333333"><ele>1239.0</ele><time>2026-05-01T08:04:42.364Z</time></trkpt><trkpt lat="46.61101426666667" lon="11.255533733333335"><ele>1239.0</ele><time>2026-05-01T08:04:43.362Z</time></trkpt><trkpt lat="46.61101349414183" lon="11.255698575721759"><ele>1239.0</ele><time>2026-05-01T08:04:44.365Z</time></trkpt><trkpt lat="46.611040417500945" lon="11.255852882350771"><ele>1239.2</ele><time>2026-05-01T08:04:45.355Z</time></trkpt><trkpt lat="46.6110649319672" lon="11.255998234867842"><ele>1239.4</ele><time>2026-05-01T08:04:46.364Z</time></trkpt><trkpt lat="46.61108186666667" lon="11.256143349999999"><ele>1239.6</ele><time>2026-05-01T08:04:47.355Z</time></trkpt><trkpt lat="46.61105715" lon="11.256283"><ele>1239.8</ele><time>2026-05-01T08:04:48.37Z</time></trkpt><trkpt lat="46.6110075" lon="11.2564073"><ele>1240.0</ele><time>2026-05-01T08:04:49.372Z</time></trkpt><trkpt lat="46.61093883333333" lon="11.256512966666666"><ele>1238.8</ele><time>2026-05-01T08:04:50.354Z</time></trkpt><trkpt lat="46.610854599999996" lon="11.256593416666666"><ele>1237.6</ele><time>2026-05-01T08:04:51.366Z</time></trkpt><trkpt lat="46.61075626666668" lon="11.256638366666667"><ele>1236.4</ele><time>2026-05-01T08:04:53.37Z</time></trkpt><trkpt lat="46.610645483333336" lon="11.256652683333336"><ele>1235.2</ele><time>2026-05-01T08:04:54.356Z</time></trkpt><trkpt lat="46.61052743333333" lon="11.25663035"><ele>1234.0</ele><time>2026-05-01T08:04:55.373Z</time></trkpt><trkpt lat="46.61029141666666" lon="11.256514033333334"><ele>1235.5</ele><time>2026-05-01T08:04:56.354Z</time></trkpt><trkpt lat="46.61017663333334" lon="11.256427216666669"><ele>1237.0</ele><time>2026-05-01T08:04:57.37Z</time></trkpt><trkpt lat="46.6100778835896" lon="11.256299849630835"><ele>1238.5</ele><time>2026-05-01T08:04:58.364Z</time></trkpt><trkpt lat="46.609975168672506" lon="11.256170594394979"><ele>1240.0</ele><time>2026-05-01T08:04:59.355Z</time></trkpt><trkpt lat="46.60987897897831" lon="11.25602070430806"><ele>1240.0</ele><time>2026-05-01T08:05:00.365Z</time></trkpt><trkpt lat="46.60979433579461" lon="11.25584734530978"><ele>1240.0</ele><time>2026-05-01T08:05:01.35Z</time></trkpt><trkpt lat="46.609723210279405" lon="11.255656354883143"><ele>1240.0</ele><time>2026-05-01T08:05:02.354Z</time></trkpt><trkpt lat="46.60966506977435" lon="11.255448585595467"><ele>1240.0</ele><time>2026-05-01T08:05:03.358Z</time></trkpt><trkpt lat="46.609627666518875" lon="11.255227401054208"><ele>1239.3333333333333</ele><time>2026-05-01T08:05:04.364Z</time></trkpt><trkpt lat="46.60959836955334" lon="11.254999906059284"><ele>1238.6666666666667</ele><time>2026-05-01T08:05:05.354Z</time></trkpt><trkpt lat="46.609564289265535" lon="11.254772974278346"><ele>1238.0</ele><time>2026-05-01T08:05:06.367Z</time></trkpt><trkpt lat="46.60950484975176" lon="11.254554950121012"><ele>1243.0</ele><time>2026-05-01T08:05:07.363Z</time></trkpt><trkpt lat="46.60943263898213" lon="11.254358039835989"><ele>1248.0</ele><time>2026-05-01T08:05:08.353Z</time></trkpt><trkpt lat="46.609342747236504" lon="11.254174166362617"><ele>1253.0</ele><time>2026-05-01T08:05:09.351Z</time></trkpt><trkpt lat="46.609248353851704" lon="11.254000986832374"><ele>1249.6666666666667</ele><time>2026-05-01T08:05:10.364Z</time></trkpt><trkpt lat="46.60914982229189" lon="11.253838189674614"><ele>1246.3333333333333</ele><time>2026-05-01T08:05:11.367Z</time></trkpt><trkpt lat="46.609045329010165" lon="11.253684729054278"><ele>1243.0</ele><time>2026-05-01T08:05:12.354Z</time></trkpt><trkpt lat="46.608933782421886" lon="11.253533570187138"><ele>1243.0</ele><time>2026-05-01T08:05:13.364Z</time></trkpt><trkpt lat="46.608817611920905" lon="11.253389039194156"><ele>1243.0</ele><time>2026-05-01T08:05:14.354Z</time></trkpt><trkpt lat="46.60869008333334" lon="11.253265266666665"><ele>1243.0</ele><time>2026-05-01T08:05:15.358Z</time></trkpt><trkpt lat="46.60857843333333" lon="11.253119983333333"><ele>1245.0</ele><time>2026-05-01T08:05:16.371Z</time></trkpt><trkpt lat="46.60847650000001" lon="11.252966783333333"><ele>1247.0</ele><time>2026-05-01T08:05:17.355Z</time></trkpt><trkpt lat="46.608374850000004" lon="11.252813649999998"><ele>1249.0</ele><time>2026-05-01T08:05:18.355Z</time></trkpt><trkpt lat="46.608261516666666" lon="11.252676833333332"><ele>1251.0</ele><time>2026-05-01T08:05:19.364Z</time></trkpt><trkpt lat="46.60813468333334" lon="11.252561833333333"><ele>1251.0</ele><time>2026-05-01T08:05:20.357Z</time></trkpt><trkpt lat="46.60800556666666" lon="11.25245725"><ele>1251.0</ele><time>2026-05-01T08:05:21.354Z</time></trkpt><trkpt lat="46.607877099999996" lon="11.252350116666666"><ele>1251.0</ele><time>2026-05-01T08:05:22.363Z</time></trkpt><trkpt lat="46.6077563" lon="11.252246233333334"><ele>1251.0</ele><time>2026-05-01T08:05:23.354Z</time></trkpt><trkpt lat="46.60763335" lon="11.252152016666665"><ele>1246.3333333333333</ele><time>2026-05-01T08:05:24.367Z</time></trkpt><trkpt lat="46.60750255" lon="11.252077933333332"><ele>1241.6666666666665</ele><time>2026-05-01T08:05:25.357Z</time></trkpt><trkpt lat="46.607200399999996" lon="11.252023933333332"><ele>1237.0</ele><time>2026-05-01T08:05:27.372Z</time></trkpt><trkpt lat="46.60703826666666" lon="11.252029333333333"><ele>1236.0</ele><time>2026-05-01T08:05:28.349Z</time></trkpt><trkpt lat="46.60687051666667" lon="11.252038233333332"><ele>1235.0</ele><time>2026-05-01T08:05:29.353Z</time></trkpt><trkpt lat="46.606699250000005" lon="11.252044366666667"><ele>1234.0</ele><time>2026-05-01T08:05:30.354Z</time></trkpt><trkpt lat="46.60653529999999" lon="11.252050383333335"><ele>1234.0</ele><time>2026-05-01T08:05:31.37Z</time></trkpt><trkpt lat="46.606373916666676" lon="11.252053249999998"><ele>1234.0</ele><time>2026-05-01T08:05:32.365Z</time></trkpt><trkpt lat="46.606211316666666" lon="11.2520544"><ele>1234.0</ele><time>2026-05-01T08:05:33.358Z</time></trkpt><trkpt lat="46.60604555" lon="11.25205706666667"><ele>1234.6666666666665</ele><time>2026-05-01T08:05:34.373Z</time></trkpt><trkpt lat="46.60588401666667" lon="11.252066766666667"><ele>1235.3333333333333</ele><time>2026-05-01T08:05:35.355Z</time></trkpt><trkpt lat="46.60573056666667" lon="11.252087600000001"><ele>1236.0</ele><time>2026-05-01T08:05:36.366Z</time></trkpt><trkpt lat="46.605576066666664" lon="11.252115633333336"><ele>1236.0</ele><time>2026-05-01T08:05:37.362Z</time></trkpt><trkpt lat="46.60542573333334" lon="11.252148166666666"><ele>1236.0</ele><time>2026-05-01T08:05:38.353Z</time></trkpt><trkpt lat="46.60527605000001" lon="11.252184050000002"><ele>1236.0</ele><time>2026-05-01T08:05:39.374Z</time></trkpt><trkpt lat="46.6051247" lon="11.252224166666668"><ele>1236.0</ele><time>2026-05-01T08:05:40.362Z</time></trkpt><trkpt lat="46.604972733333334" lon="11.252268516666668"><ele>1236.0</ele><time>2026-05-01T08:05:41.354Z</time></trkpt><trkpt lat="46.604821650000005" lon="11.2523188"><ele>1236.0</ele><time>2026-05-01T08:05:42.354Z</time></trkpt><trkpt lat="46.60465944412674" lon="11.252357924566354"><ele>1237.3333333333333</ele><time>2026-05-01T08:05:43.371Z</time></trkpt><trkpt lat="46.60450857290058" lon="11.252466475406365"><ele>1238.6666666666665</ele><time>2026-05-01T08:05:44.36Z</time></trkpt><trkpt lat="46.60437661666666" lon="11.252607183333335"><ele>1240.0</ele><time>2026-05-01T08:05:45.363Z</time></trkpt><trkpt lat="46.604233433333334" lon="11.252705666666667"><ele>1240.0</ele><time>2026-05-01T08:05:46.362Z</time></trkpt><trkpt lat="46.6040797841752" lon="11.252751818438409"><ele>1240.0</ele><time>2026-05-01T08:05:47.363Z</time></trkpt><trkpt lat="46.60392877856678" lon="11.25281243458864"><ele>1240.0</ele><time>2026-05-01T08:05:48.35Z</time></trkpt><trkpt lat="46.60378344878233" lon="11.2528795144793"><ele>1240.3333333333333</ele><time>2026-05-01T08:05:49.371Z</time></trkpt><trkpt lat="46.60363935385474" lon="11.252966571750003"><ele>1240.6666666666667</ele><time>2026-05-01T08:05:50.363Z</time></trkpt><trkpt lat="46.60349986367237" lon="11.253061331710082"><ele>1241.0</ele><time>2026-05-01T08:05:51.367Z</time></trkpt><trkpt lat="46.603354757242364" lon="11.253156919146917"><ele>1241.0</ele><time>2026-05-01T08:05:52.362Z</time></trkpt><trkpt lat="46.603206319489686" lon="11.253246846760987"><ele>1241.0</ele><time>2026-05-01T08:05:53.354Z</time></trkpt><trkpt lat="46.603050656659526" lon="11.25332499487933"><ele>1241.0</ele><time>2026-05-01T08:05:54.37Z</time></trkpt><trkpt lat="46.602885537007865" lon="11.253379340989259"><ele>1239.3333333333335</ele><time>2026-05-01T08:05:55.364Z</time></trkpt><trkpt lat="46.602711611534374" lon="11.253415372651244"><ele>1237.6666666666667</ele><time>2026-05-01T08:05:56.354Z</time></trkpt><trkpt lat="46.60253455043606" lon="11.253431788680428"><ele>1236.0</ele><time>2026-05-01T08:05:58.364Z</time></trkpt><trkpt lat="46.60235513149125" lon="11.25342115054157"><ele>1236.0</ele><time>2026-05-01T08:05:59.359Z</time></trkpt><trkpt lat="46.60201467326892" lon="11.253333740764335"><ele>1236.0</ele><time>2026-05-01T08:06:00.374Z</time></trkpt><trkpt lat="46.60185703150596" lon="11.253265490523452"><ele>1237.3333333333333</ele><time>2026-05-01T08:06:01.372Z</time></trkpt><trkpt lat="46.60169810664774" lon="11.253194385859546"><ele>1238.6666666666665</ele><time>2026-05-01T08:06:03.364Z</time></trkpt><trkpt lat="46.60153328452091" lon="11.253125919489168"><ele>1240.0</ele><time>2026-05-01T08:06:04.362Z</time></trkpt><trkpt lat="46.60135915000001" lon="11.253093433333335"><ele>1234.5</ele><time>2026-05-01T08:06:05.355Z</time></trkpt><trkpt lat="46.60102991300576" lon="11.252805799866808"><ele>1229.0</ele><time>2026-05-01T08:06:06.373Z</time></trkpt><trkpt lat="46.60086650044207" lon="11.252579838453583"><ele>1229.0</ele><time>2026-05-01T08:06:07.369Z</time></trkpt><trkpt lat="46.60066576049299" lon="11.252361142971091"><ele>1229.0</ele><time>2026-05-01T08:06:08.353Z</time></trkpt><trkpt lat="46.60044283716196" lon="11.252142798370135"><ele>1229.0</ele><time>2026-05-01T08:06:09.353Z</time></trkpt><trkpt lat="46.60020256735197" lon="11.251911079972924"><ele>1229.0</ele><time>2026-05-01T08:06:10.362Z</time></trkpt><trkpt lat="46.59996332468757" lon="11.251680782894574"><ele>1229.0</ele><time>2026-05-01T08:06:11.354Z</time></trkpt><trkpt lat="46.59973886352387" lon="11.251464441017722"><ele>1229.0</ele><time>2026-05-01T08:06:12.364Z</time></trkpt><trkpt lat="46.59953174331424" lon="11.251263850266938"><ele>1231.3333333333335</ele><time>2026-05-01T08:06:13.362Z</time></trkpt><trkpt lat="46.59935015383121" lon="11.251085637019287"><ele>1233.6666666666667</ele><time>2026-05-01T08:06:14.354Z</time></trkpt><trkpt lat="46.59921386978656" lon="11.250916487802249"><ele>1236.0</ele><time>2026-05-01T08:06:15.364Z</time></trkpt><trkpt lat="46.599116236763194" lon="11.250737474250581"><ele>1236.3333333333333</ele><time>2026-05-01T08:06:16.361Z</time></trkpt><trkpt lat="46.599053100000006" lon="11.250527183333334"><ele>1236.6666666666665</ele><time>2026-05-01T08:06:17.355Z</time></trkpt><trkpt lat="46.599068211719995" lon="11.250281192362227"><ele>1237.0</ele><time>2026-05-01T08:06:18.369Z</time></trkpt><trkpt lat="46.59907708536721" lon="11.250009042136346"><ele>1237.3333333333333</ele><time>2026-05-01T08:06:19.37Z</time></trkpt><trkpt lat="46.599050122542955" lon="11.249725447442875"><ele>1237.6666666666667</ele><time>2026-05-01T08:06:20.362Z</time></trkpt><trkpt lat="46.59899236608512" lon="11.249449283536265"><ele>1238.0</ele><time>2026-05-01T08:06:21.379Z</time></trkpt><trkpt lat="46.598921616666665" lon="11.249171133333334"><ele>1239.3333333333335</ele><time>2026-05-01T08:06:22.369Z</time></trkpt><trkpt lat="46.598895616666674" lon="11.248868516666668"><ele>1240.6666666666667</ele><time>2026-05-01T08:06:23.354Z</time></trkpt><trkpt lat="46.5988871" lon="11.248578216666665"><ele>1242.0</ele><time>2026-05-01T08:06:24.364Z</time></trkpt><trkpt lat="46.598899171591384" lon="11.248310536059872"><ele>1239.0</ele><time>2026-05-01T08:06:25.363Z</time></trkpt><trkpt lat="46.598885333206205" lon="11.24805859705804"><ele>1236.0</ele><time>2026-05-01T08:06:26.353Z</time></trkpt><trkpt lat="46.59884234999999" lon="11.247822900000003"><ele>1233.0</ele><time>2026-05-01T08:06:27.363Z</time></trkpt><trkpt lat="46.59880053208425" lon="11.247580885372308"><ele>1233.0</ele><time>2026-05-01T08:06:28.37Z</time></trkpt><trkpt lat="46.598700308177875" lon="11.247347835948917"><ele>1233.0</ele><time>2026-05-01T08:06:29.354Z</time></trkpt><trkpt lat="46.59855668091541" lon="11.247130101952312"><ele>1233.0</ele><time>2026-05-01T08:06:30.352Z</time></trkpt><trkpt lat="46.59839415503072" lon="11.246920334639743"><ele>1234.0</ele><time>2026-05-01T08:06:31.371Z</time></trkpt><trkpt lat="46.59823400295995" lon="11.246714855701338"><ele>1235.0</ele><time>2026-05-01T08:06:32.354Z</time></trkpt><trkpt lat="46.59807204525214" lon="11.246513965345832"><ele>1236.0</ele><time>2026-05-01T08:06:33.363Z</time></trkpt><trkpt lat="46.59788456294409" lon="11.246356862983674"><ele>1241.6666666666667</ele><time>2026-05-01T08:06:34.39Z</time></trkpt><trkpt lat="46.597681543642096" lon="11.24625412476339"><ele>1247.3333333333335</ele><time>2026-05-01T08:06:35.355Z</time></trkpt><trkpt lat="46.59746667321476" lon="11.246161007509102"><ele>1253.0</ele><time>2026-05-01T08:06:36.353Z</time></trkpt><trkpt lat="46.59724239824962" lon="11.246065809512222"><ele>1253.0</ele><time>2026-05-01T08:06:37.374Z</time></trkpt><trkpt lat="46.59701257539982" lon="11.245969496852336"><ele>1253.0</ele><time>2026-05-01T08:06:38.359Z</time></trkpt><trkpt lat="46.596781394200114" lon="11.245868999283779"><ele>1262.5</ele><time>2026-05-01T08:06:39.351Z</time></trkpt><trkpt lat="46.59655059665961" lon="11.245761578778632"><ele>1272.0</ele><time>2026-05-01T08:06:40.373Z</time></trkpt><trkpt lat="46.596328980358976" lon="11.245643502853905"><ele>1272.0</ele><time>2026-05-01T08:06:41.359Z</time></trkpt><trkpt lat="46.59611624270637" lon="11.245497887802722"><ele>1272.0</ele><time>2026-05-01T08:06:42.364Z</time></trkpt><trkpt lat="46.595909513470104" lon="11.245296810578695"><ele>1272.0</ele><time>2026-05-01T08:06:43.364Z</time></trkpt><trkpt lat="46.5957029724133" lon="11.245072410518327"><ele>1272.0</ele><time>2026-05-01T08:06:44.354Z</time></trkpt><trkpt lat="46.59549556222981" lon="11.244843307952179"><ele>1273.0</ele><time>2026-05-01T08:06:45.355Z</time></trkpt><trkpt lat="46.59529789729433" lon="11.244624645600206"><ele>1274.0</ele><time>2026-05-01T08:06:46.363Z</time></trkpt><trkpt lat="46.59511805616668" lon="11.244426373460692"><ele>1274.0</ele><time>2026-05-01T08:06:47.366Z</time></trkpt><trkpt lat="46.59494637780748" lon="11.244254018734381"><ele>1274.0</ele><time>2026-05-01T08:06:48.373Z</time></trkpt><trkpt lat="46.594757471668814" lon="11.244127344591366"><ele>1274.0</ele><time>2026-05-01T08:06:49.373Z</time></trkpt><trkpt lat="46.594552022523985" lon="11.244064928953396"><ele>1279.0</ele><time>2026-05-01T08:06:50.357Z</time></trkpt><trkpt lat="46.59433798955755" lon="11.244027851463466"><ele>1284.0</ele><time>2026-05-01T08:06:51.37Z</time></trkpt><trkpt lat="46.594107770750064" lon="11.244007661846718"><ele>1289.0</ele><time>2026-05-01T08:06:52.357Z</time></trkpt><trkpt lat="46.593866161564954" lon="11.244007988613804"><ele>1293.5</ele><time>2026-05-01T08:06:53.389Z</time></trkpt><trkpt lat="46.593615541526745" lon="11.244041732601737"><ele>1298.0</ele><time>2026-05-01T08:06:54.361Z</time></trkpt><trkpt lat="46.59336495644538" lon="11.244062394302002"><ele>1298.0</ele><time>2026-05-01T08:06:55.363Z</time></trkpt><trkpt lat="46.59311016662617" lon="11.244064753528534"><ele>1298.0</ele><time>2026-05-01T08:06:56.353Z</time></trkpt><trkpt lat="46.59286694354824" lon="11.244067005698826"><ele>1300.3333333333335</ele><time>2026-05-01T08:06:57.356Z</time></trkpt><trkpt lat="46.592645899999994" lon="11.244082683333334"><ele>1302.6666666666667</ele><time>2026-05-01T08:06:58.369Z</time></trkpt><trkpt lat="46.592437483333335" lon="11.244059850000001"><ele>1305.0</ele><time>2026-05-01T08:06:59.354Z</time></trkpt><trkpt lat="46.592248683333345" lon="11.244001199999998"><ele>1303.0</ele><time>2026-05-01T08:07:00.358Z</time></trkpt><trkpt lat="46.59208433333333" lon="11.243901000000001"><ele>1301.0</ele><time>2026-05-01T08:07:01.356Z</time></trkpt><trkpt lat="46.59194275" lon="11.243765733333332"><ele>1299.0</ele><time>2026-05-01T08:07:02.366Z</time></trkpt><trkpt lat="46.59181646666666" lon="11.2436162"><ele>1299.0</ele><time>2026-05-01T08:07:03.365Z</time></trkpt><trkpt lat="46.591697366666665" lon="11.243466333333332"><ele>1299.0</ele><time>2026-05-01T08:07:04.37Z</time></trkpt><trkpt lat="46.59157623333334" lon="11.243322366666666"><ele>1299.0</ele><time>2026-05-01T08:07:05.354Z</time></trkpt><trkpt lat="46.591458366666664" lon="11.243182433333333"><ele>1300.0</ele><time>2026-05-01T08:07:06.354Z</time></trkpt><trkpt lat="46.59134703333334" lon="11.243052566666666"><ele>1301.0</ele><time>2026-05-01T08:07:07.365Z</time></trkpt><trkpt lat="46.59123588333333" lon="11.24293746666667"><ele>1302.0</ele><time>2026-05-01T08:07:08.354Z</time></trkpt><trkpt lat="46.591122899999995" lon="11.242843666666666"><ele>1303.0</ele><time>2026-05-01T08:07:09.356Z</time></trkpt><trkpt lat="46.59100695" lon="11.242779316666669"><ele>1303.0</ele><time>2026-05-01T08:07:10.351Z</time></trkpt><trkpt lat="46.59090228333333" lon="11.242753783333335"><ele>1303.0</ele><time>2026-05-01T08:07:11.37Z</time></trkpt><trkpt lat="46.59080213333333" lon="11.24276755"><ele>1303.0</ele><time>2026-05-01T08:07:12.364Z</time></trkpt><trkpt lat="46.590700133333335" lon="11.242833516666668"><ele>1303.0</ele><time>2026-05-01T08:07:13.364Z</time></trkpt><trkpt lat="46.590616566666654" lon="11.242947483333333"><ele>1303.0</ele><time>2026-05-01T08:07:14.356Z</time></trkpt><trkpt lat="46.590539266666674" lon="11.243080866666666"><ele>1303.8000000000002</ele><time>2026-05-01T08:07:15.373Z</time></trkpt><trkpt lat="46.59046665000001" lon="11.243214266666667"><ele>1304.6</ele><time>2026-05-01T08:07:16.364Z</time></trkpt><trkpt lat="46.590400383333325" lon="11.24333868333333"><ele>1305.4</ele><time>2026-05-01T08:07:17.355Z</time></trkpt><trkpt lat="46.59033271666667" lon="11.243463233333333"><ele>1306.1999999999998</ele><time>2026-05-01T08:07:18.361Z</time></trkpt><trkpt lat="46.59026183333334" lon="11.243580616666668"><ele>1307.0</ele><time>2026-05-01T08:07:19.371Z</time></trkpt><trkpt lat="46.59019275000001" lon="11.243697483333337"><ele>1307.5</ele><time>2026-05-01T08:07:20.358Z</time></trkpt><trkpt lat="46.5901351" lon="11.243817583333335"><ele>1308.0</ele><time>2026-05-01T08:07:21.355Z</time></trkpt><trkpt lat="46.590087733333334" lon="11.243929066666666"><ele>1308.5</ele><time>2026-05-01T08:07:22.372Z</time></trkpt><trkpt lat="46.59001341666667" lon="11.244099466666666"><ele>1309.0</ele><time>2026-05-01T08:07:24.352Z</time></trkpt><trkpt lat="46.5898956" lon="11.2442002"><ele>1304.5</ele><time>2026-05-01T08:07:26.354Z</time></trkpt><trkpt lat="46.589804466666656" lon="11.244233566666667"><ele>1300.0</ele><time>2026-05-01T08:07:27.366Z</time></trkpt><trkpt lat="46.58969211666666" lon="11.244256133333332"><ele>1295.5</ele><time>2026-05-01T08:07:28.364Z</time></trkpt><trkpt lat="46.58955995" lon="11.244276766666667"><ele>1291.0</ele><time>2026-05-01T08:07:29.364Z</time></trkpt><trkpt lat="46.58942966666667" lon="11.244280566666665"><ele>1287.25</ele><time>2026-05-01T08:07:30.363Z</time></trkpt><trkpt lat="46.589307016666666" lon="11.244265633333335"><ele>1283.5</ele><time>2026-05-01T08:07:31.363Z</time></trkpt><trkpt lat="46.58918525000001" lon="11.244221266666665"><ele>1279.75</ele><time>2026-05-01T08:07:32.354Z</time></trkpt><trkpt lat="46.58906636666667" lon="11.244154383333335"><ele>1276.0</ele><time>2026-05-01T08:07:33.365Z</time></trkpt><trkpt lat="46.58893798333333" lon="11.244074350000002"><ele>1276.0</ele><time>2026-05-01T08:07:34.35Z</time></trkpt><trkpt lat="46.58880461666666" lon="11.243998949999998"><ele>1276.0</ele><time>2026-05-01T08:07:35.356Z</time></trkpt><trkpt lat="46.58866196666666" lon="11.243926383333333"><ele>1276.0</ele><time>2026-05-01T08:07:36.37Z</time></trkpt><trkpt lat="46.588514" lon="11.243854916666665"><ele>1277.3333333333333</ele><time>2026-05-01T08:07:37.37Z</time></trkpt><trkpt lat="46.58835353333334" lon="11.243783050000001"><ele>1278.6666666666667</ele><time>2026-05-01T08:07:38.383Z</time></trkpt><trkpt lat="46.58818886666666" lon="11.243700616666667"><ele>1280.0</ele><time>2026-05-01T08:07:39.355Z</time></trkpt><trkpt lat="46.58803196666666" lon="11.243620133333332"><ele>1280.0</ele><time>2026-05-01T08:07:40.365Z</time></trkpt><trkpt lat="46.587885166666666" lon="11.243545066666666"><ele>1280.0</ele><time>2026-05-01T08:07:41.356Z</time></trkpt><trkpt lat="46.58774441666666" lon="11.243474833333334"><ele>1280.0</ele><time>2026-05-01T08:07:42.373Z</time></trkpt><trkpt lat="46.58760081666666" lon="11.243409666666667"><ele>1275.3333333333335</ele><time>2026-05-01T08:07:43.352Z</time></trkpt><trkpt lat="46.58744658333333" lon="11.243354299999998"><ele>1270.6666666666667</ele><time>2026-05-01T08:07:44.357Z</time></trkpt><trkpt lat="46.58728268333332" lon="11.243305366666668"><ele>1266.0</ele><time>2026-05-01T08:07:45.355Z</time></trkpt><trkpt lat="46.587108533333335" lon="11.243259033333334"><ele>1263.3333333333333</ele><time>2026-05-01T08:07:46.364Z</time></trkpt><trkpt lat="46.58692753333333" lon="11.243222566666669"><ele>1260.6666666666665</ele><time>2026-05-01T08:07:47.36Z</time></trkpt><trkpt lat="46.58674325" lon="11.243201433333335"><ele>1258.0</ele><time>2026-05-01T08:07:48.368Z</time></trkpt><trkpt lat="46.58654896666667" lon="11.24320705"><ele>1258.0</ele><time>2026-05-01T08:07:49.364Z</time></trkpt><trkpt lat="46.586349783333326" lon="11.2432395"><ele>1258.0</ele><time>2026-05-01T08:07:50.356Z</time></trkpt><trkpt lat="46.586141850000004" lon="11.243290216666667"><ele>1258.0</ele><time>2026-05-01T08:07:51.365Z</time></trkpt><trkpt lat="46.58593416666666" lon="11.243351050000001"><ele>1260.3333333333333</ele><time>2026-05-01T08:07:52.372Z</time></trkpt><trkpt lat="46.58574573333334" lon="11.243413749999998"><ele>1262.6666666666667</ele><time>2026-05-01T08:07:53.356Z</time></trkpt><trkpt lat="46.58557436666666" lon="11.243488500000002"><ele>1265.0</ele><time>2026-05-01T08:07:54.362Z</time></trkpt><trkpt lat="46.58541183333333" lon="11.243569883333333"><ele>1269.6666666666667</ele><time>2026-05-01T08:07:55.365Z</time></trkpt><trkpt lat="46.585250133333325" lon="11.243640149999997"><ele>1274.3333333333333</ele><time>2026-05-01T08:07:56.364Z</time></trkpt><trkpt lat="46.585085633333335" lon="11.243686533333333"><ele>1279.0</ele><time>2026-05-01T08:07:57.356Z</time></trkpt><trkpt lat="46.58491875" lon="11.243713433333335"><ele>1279.0</ele><time>2026-05-01T08:07:58.365Z</time></trkpt><trkpt lat="46.58474661666667" lon="11.243739699999999"><ele>1279.0</ele><time>2026-05-01T08:07:59.356Z</time></trkpt><trkpt lat="46.58457011666666" lon="11.243787366666666"><ele>1279.0</ele><time>2026-05-01T08:08:00.361Z</time></trkpt><trkpt lat="46.58439593333332" lon="11.243851066666666"><ele>1277.3333333333333</ele><time>2026-05-01T08:08:01.351Z</time></trkpt><trkpt lat="46.58423200000001" lon="11.243908016666666"><ele>1275.6666666666667</ele><time>2026-05-01T08:08:02.355Z</time></trkpt><trkpt lat="46.584063105679746" lon="11.243906848890978"><ele>1274.0</ele><time>2026-05-01T08:08:03.355Z</time></trkpt><trkpt lat="46.58389742801193" lon="11.243918004090286"><ele>1274.0</ele><time>2026-05-01T08:08:04.364Z</time></trkpt><trkpt lat="46.583735429405856" lon="11.243897553744748"><ele>1274.0</ele><time>2026-05-01T08:08:05.371Z</time></trkpt><trkpt lat="46.58356767991948" lon="11.243854133706218"><ele>1274.0</ele><time>2026-05-01T08:08:06.367Z</time></trkpt><trkpt lat="46.58339483414946" lon="11.243790315125727"><ele>1270.0</ele><time>2026-05-01T08:08:07.364Z</time></trkpt><trkpt lat="46.58320916213986" lon="11.243715715819462"><ele>1266.0</ele><time>2026-05-01T08:08:08.355Z</time></trkpt><trkpt lat="46.58301895348807" lon="11.243644485084289"><ele>1262.0</ele><time>2026-05-01T08:08:09.365Z</time></trkpt><trkpt lat="46.58283682640712" lon="11.243576742446297"><ele>1255.6666666666667</ele><time>2026-05-01T08:08:10.352Z</time></trkpt><trkpt lat="46.58266780970393" lon="11.243510754106621"><ele>1249.3333333333333</ele><time>2026-05-01T08:08:11.357Z</time></trkpt><trkpt lat="46.58251719356016" lon="11.24343409884534"><ele>1243.0</ele><time>2026-05-01T08:08:12.367Z</time></trkpt><trkpt lat="46.582392670813725" lon="11.243323492152596"><ele>1242.6666666666665</ele><time>2026-05-01T08:08:13.365Z</time></trkpt><trkpt lat="46.582191183378605" lon="11.243018374386354"><ele>1242.3333333333333</ele><time>2026-05-01T08:08:15.365Z</time></trkpt><trkpt lat="46.58207048823432" lon="11.242872490767873"><ele>1242.0</ele><time>2026-05-01T08:08:16.37Z</time></trkpt><trkpt lat="46.58193078460618" lon="11.242744409229786"><ele>1242.0</ele><time>2026-05-01T08:08:17.354Z</time></trkpt><trkpt lat="46.58177300837308" lon="11.242649843521285"><ele>1242.0</ele><time>2026-05-01T08:08:18.367Z</time></trkpt><trkpt lat="46.58160655124715" lon="11.242570719012024"><ele>1242.0</ele><time>2026-05-01T08:08:19.365Z</time></trkpt><trkpt lat="46.581442851103084" lon="11.242497265131567"><ele>1242.0</ele><time>2026-05-01T08:08:20.355Z</time></trkpt><trkpt lat="46.581286923126434" lon="11.242428210585583"><ele>1242.0</ele><time>2026-05-01T08:08:21.356Z</time></trkpt><trkpt lat="46.58113315000001" lon="11.24238785"><ele>1242.0</ele><time>2026-05-01T08:08:22.362Z</time></trkpt><trkpt lat="46.58099239933314" lon="11.242306910300412"><ele>1241.5</ele><time>2026-05-01T08:08:23.373Z</time></trkpt><trkpt lat="46.58084736593003" lon="11.242262759101445"><ele>1241.0</ele><time>2026-05-01T08:08:24.365Z</time></trkpt><trkpt lat="46.58070643619941" lon="11.24222280876295"><ele>1240.5</ele><time>2026-05-01T08:08:25.363Z</time></trkpt><trkpt lat="46.580567821310794" lon="11.242181073885686"><ele>1240.0</ele><time>2026-05-01T08:08:26.36Z</time></trkpt><trkpt lat="46.580425705912376" lon="11.242133556568293"><ele>1234.0</ele><time>2026-05-01T08:08:27.364Z</time></trkpt><trkpt lat="46.58026989858228" lon="11.242075635005635"><ele>1228.0</ele><time>2026-05-01T08:08:28.356Z</time></trkpt><trkpt lat="46.580106369235935" lon="11.242000484163379"><ele>1222.0</ele><time>2026-05-01T08:08:29.355Z</time></trkpt><trkpt lat="46.579943052013014" lon="11.241905520384728"><ele>1222.0</ele><time>2026-05-01T08:08:30.356Z</time></trkpt><trkpt lat="46.57978883944198" lon="11.241771361269276"><ele>1222.0</ele><time>2026-05-01T08:08:31.372Z</time></trkpt><trkpt lat="46.57963057207314" lon="11.241642566225748"><ele>1222.0</ele><time>2026-05-01T08:08:32.355Z</time></trkpt><trkpt lat="46.57946142239678" lon="11.241557494062882"><ele>1218.3333333333333</ele><time>2026-05-01T08:08:33.361Z</time></trkpt><trkpt lat="46.57929024926065" lon="11.241510273292793"><ele>1214.6666666666667</ele><time>2026-05-01T08:08:34.364Z</time></trkpt><trkpt lat="46.57911743936093" lon="11.24151243571365"><ele>1211.0</ele><time>2026-05-01T08:08:35.354Z</time></trkpt><trkpt lat="46.57896124916244" lon="11.241548847286516"><ele>1211.0</ele><time>2026-05-01T08:08:36.362Z</time></trkpt><trkpt lat="46.57883148532348" lon="11.241579758423649"><ele>1211.0</ele><time>2026-05-01T08:08:38.352Z</time></trkpt><trkpt lat="46.57871734295283" lon="11.24157452160321"><ele>1211.0</ele><time>2026-05-01T08:08:39.364Z</time></trkpt><trkpt lat="46.57850244595974" lon="11.241422485277408"><ele>1209.0</ele><time>2026-05-01T08:08:40.363Z</time></trkpt><trkpt lat="46.578389279385185" lon="11.241296621455461"><ele>1207.0</ele><time>2026-05-01T08:08:42.373Z</time></trkpt><trkpt lat="46.57826999626285" lon="11.241155715426897"><ele>1205.0</ele><time>2026-05-01T08:08:43.365Z</time></trkpt><trkpt lat="46.57814669127918" lon="11.240990826289972"><ele>1205.0</ele><time>2026-05-01T08:08:44.356Z</time></trkpt><trkpt lat="46.57802668733631" lon="11.240810555724812"><ele>1205.0</ele><time>2026-05-01T08:08:45.365Z</time></trkpt><trkpt lat="46.577902033333345" lon="11.240643050000003"><ele>1205.0</ele><time>2026-05-01T08:08:46.374Z</time></trkpt><trkpt lat="46.57774630000001" lon="11.240251866666664"><ele>1200.0</ele><time>2026-05-01T08:08:47.353Z</time></trkpt><trkpt lat="46.577714829583115" lon="11.240042307566629"><ele>1195.0</ele><time>2026-05-01T08:08:48.365Z</time></trkpt><trkpt lat="46.577682093357026" lon="11.23984492203692"><ele>1190.0</ele><time>2026-05-01T08:08:49.37Z</time></trkpt><trkpt lat="46.57764215941045" lon="11.239653480807869"><ele>1185.0</ele><time>2026-05-01T08:08:50.353Z</time></trkpt><trkpt lat="46.57757303884463" lon="11.239476897168984"><ele>1185.0</ele><time>2026-05-01T08:08:51.373Z</time></trkpt><trkpt lat="46.57748509592677" lon="11.239332447040415"><ele>1185.0</ele><time>2026-05-01T08:08:52.362Z</time></trkpt><trkpt lat="46.57739152320116" lon="11.239203460966563"><ele>1185.0</ele><time>2026-05-01T08:08:53.363Z</time></trkpt><trkpt lat="46.57729589446426" lon="11.23907881911423"><ele>1185.0</ele><time>2026-05-01T08:08:54.363Z</time></trkpt><trkpt lat="46.577199405969786" lon="11.238955577454112"><ele>1187.5</ele><time>2026-05-01T08:08:55.37Z</time></trkpt><trkpt lat="46.57710158250337" lon="11.238835460665815"><ele>1190.0</ele><time>2026-05-01T08:08:56.357Z</time></trkpt><trkpt lat="46.577002828929686" lon="11.238723002871698"><ele>1192.5</ele><time>2026-05-01T08:08:57.364Z</time></trkpt><trkpt lat="46.57690934875534" lon="11.2386287465142"><ele>1195.0</ele><time>2026-05-01T08:08:58.364Z</time></trkpt><trkpt lat="46.576825144572325" lon="11.238555282316753"><ele>1191.5</ele><time>2026-05-01T08:08:59.355Z</time></trkpt><trkpt lat="46.57673587501099" lon="11.238510479123693"><ele>1188.0</ele><time>2026-05-01T08:09:00.352Z</time></trkpt><trkpt lat="46.57664533984497" lon="11.23851952962296"><ele>1184.5</ele><time>2026-05-01T08:09:01.404Z</time></trkpt><trkpt lat="46.576566786787325" lon="11.238573311392214"><ele>1181.0</ele><time>2026-05-01T08:09:02.353Z</time></trkpt><trkpt lat="46.57652353333333" lon="11.238677616666665"><ele>1177.5</ele><time>2026-05-01T08:09:03.362Z</time></trkpt><trkpt lat="46.57648051666666" lon="11.238787316666667"><ele>1174.0</ele><time>2026-05-01T08:09:04.383Z</time></trkpt><trkpt lat="46.57644708333334" lon="11.238910783333331"><ele>1173.2</ele><time>2026-05-01T08:09:05.381Z</time></trkpt><trkpt lat="46.57642115" lon="11.239034"><ele>1172.4</ele><time>2026-05-01T08:09:06.398Z</time></trkpt><trkpt lat="46.5764061" lon="11.2391646"><ele>1171.6</ele><time>2026-05-01T08:09:07.394Z</time></trkpt><trkpt lat="46.576406133333336" lon="11.239301816666666"><ele>1170.8</ele><time>2026-05-01T08:09:08.383Z</time></trkpt><trkpt lat="46.57642081666667" lon="11.239441"><ele>1170.0</ele><time>2026-05-01T08:09:09.405Z</time></trkpt><trkpt lat="46.57644766666667" lon="11.239585966666667"><ele>1170.0</ele><time>2026-05-01T08:09:10.424Z</time></trkpt><trkpt lat="46.576465166666665" lon="11.239739516666669"><ele>1170.0</ele><time>2026-05-01T08:09:11.35Z</time></trkpt><trkpt lat="46.57645420000001" lon="11.239899649999998"><ele>1170.0</ele><time>2026-05-01T08:09:12.369Z</time></trkpt><trkpt lat="46.576414850000006" lon="11.240063983333334"><ele>1170.0</ele><time>2026-05-01T08:09:13.372Z</time></trkpt><trkpt lat="46.57635440000001" lon="11.240229800000002"><ele>1169.6666666666667</ele><time>2026-05-01T08:09:14.383Z</time></trkpt><trkpt lat="46.57619296666667" lon="11.240566016666666"><ele>1169.3333333333335</ele><time>2026-05-01T08:09:16.352Z</time></trkpt><trkpt lat="46.57612426666667" lon="11.240759316666667"><ele>1169.0</ele><time>2026-05-01T08:09:17.352Z</time></trkpt><trkpt lat="46.57607585" lon="11.24098326666667"><ele>1165.5</ele><time>2026-05-01T08:09:18.37Z</time></trkpt><trkpt lat="46.57605251666667" lon="11.241234083333334"><ele>1162.0</ele><time>2026-05-01T08:09:19.371Z</time></trkpt><trkpt lat="46.576054266666674" lon="11.241814"><ele>1162.0</ele><time>2026-05-01T08:09:21.37Z</time></trkpt><trkpt lat="46.57607636666667" lon="11.242123916666666"><ele>1162.0</ele><time>2026-05-01T08:09:22.351Z</time></trkpt><trkpt lat="46.576124083333326" lon="11.242417633333332"><ele>1162.0</ele><time>2026-05-01T08:09:23.357Z</time></trkpt><trkpt lat="46.5761999" lon="11.2426964"><ele>1163.6666666666665</ele><time>2026-05-01T08:09:24.37Z</time></trkpt><trkpt lat="46.57630376666666" lon="11.242965066666667"><ele>1165.3333333333333</ele><time>2026-05-01T08:09:25.387Z</time></trkpt><trkpt lat="46.576439416666666" lon="11.243206816666667"><ele>1167.0</ele><time>2026-05-01T08:09:26.356Z</time></trkpt><trkpt lat="46.57660009999999" lon="11.243414416666667"><ele>1167.0</ele><time>2026-05-01T08:09:27.352Z</time></trkpt><trkpt lat="46.5767703" lon="11.243596833333335"><ele>1167.0</ele><time>2026-05-01T08:09:28.362Z</time></trkpt><trkpt lat="46.576926300000004" lon="11.243781100000001"><ele>1167.0</ele><time>2026-05-01T08:09:29.35Z</time></trkpt><trkpt lat="46.577051883333326" lon="11.243988416666665"><ele>1168.3333333333333</ele><time>2026-05-01T08:09:30.351Z</time></trkpt><trkpt lat="46.577152483333336" lon="11.244218833333331"><ele>1169.6666666666665</ele><time>2026-05-01T08:09:31.352Z</time></trkpt><trkpt lat="46.57725383333333" lon="11.244453500000002"><ele>1171.0</ele><time>2026-05-01T08:09:33.373Z</time></trkpt><trkpt lat="46.57737538333334" lon="11.244666983333332"><ele>1170.6666666666665</ele><time>2026-05-01T08:09:34.352Z</time></trkpt><trkpt lat="46.5775202" lon="11.244847666666665"><ele>1170.3333333333333</ele><time>2026-05-01T08:09:35.35Z</time></trkpt><trkpt lat="46.57768893333334" lon="11.244994916666668"><ele>1170.0</ele><time>2026-05-01T08:09:36.352Z</time></trkpt><trkpt lat="46.57808536666666" lon="11.245218766666667"><ele>1172.6666666666667</ele><time>2026-05-01T08:09:37.365Z</time></trkpt><trkpt lat="46.5782991" lon="11.245321966666666"><ele>1175.3333333333335</ele><time>2026-05-01T08:09:38.351Z</time></trkpt><trkpt lat="46.57850666666667" lon="11.24541235"><ele>1178.0</ele><time>2026-05-01T08:09:39.371Z</time></trkpt><trkpt lat="46.57870450000001" lon="11.245497250000001"><ele>1179.6666666666667</ele><time>2026-05-01T08:09:40.352Z</time></trkpt><trkpt lat="46.578900583333336" lon="11.245568733333334"><ele>1181.3333333333333</ele><time>2026-05-01T08:09:41.371Z</time></trkpt><trkpt lat="46.57910221666666" lon="11.245626816666666"><ele>1183.0</ele><time>2026-05-01T08:09:42.353Z</time></trkpt><trkpt lat="46.57931685" lon="11.2456665"><ele>1178.0</ele><time>2026-05-01T08:09:43.351Z</time></trkpt><trkpt lat="46.57954491666666" lon="11.2456967"><ele>1173.0</ele><time>2026-05-01T08:09:44.357Z</time></trkpt><trkpt lat="46.579787950000004" lon="11.24572885"><ele>1173.0</ele><time>2026-05-01T08:09:45.37Z</time></trkpt><trkpt lat="46.580045166666665" lon="11.2457774"><ele>1173.0</ele><time>2026-05-01T08:09:46.352Z</time></trkpt><trkpt lat="46.5803101" lon="11.2458591"><ele>1176.5</ele><time>2026-05-01T08:09:47.352Z</time></trkpt><trkpt lat="46.580575883333324" lon="11.245976016666669"><ele>1180.0</ele><time>2026-05-01T08:09:48.372Z</time></trkpt><trkpt lat="46.580828016666665" lon="11.246115000000001"><ele>1180.0</ele><time>2026-05-01T08:09:49.352Z</time></trkpt><trkpt lat="46.581067299999994" lon="11.246251133333333"><ele>1180.0</ele><time>2026-05-01T08:09:50.373Z</time></trkpt><trkpt lat="46.58130801666666" lon="11.246356383333334"><ele>1177.0</ele><time>2026-05-01T08:09:51.37Z</time></trkpt><trkpt lat="46.581556850000005" lon="11.246437333333333"><ele>1174.0</ele><time>2026-05-01T08:09:52.352Z</time></trkpt><trkpt lat="46.58181153333334" lon="11.246508649999997"><ele>1179.5</ele><time>2026-05-01T08:09:53.352Z</time></trkpt><trkpt lat="46.582060433333325" lon="11.246578916666666"><ele>1185.0</ele><time>2026-05-01T08:09:54.37Z</time></trkpt><trkpt lat="46.582294850000004" lon="11.246634333333333"><ele>1185.0</ele><time>2026-05-01T08:09:55.367Z</time></trkpt><trkpt lat="46.5825152" lon="11.24665995"><ele>1185.0</ele><time>2026-05-01T08:09:56.352Z</time></trkpt><trkpt lat="46.58272903333333" lon="11.2466654"><ele>1185.0</ele><time>2026-05-01T08:09:57.37Z</time></trkpt><trkpt lat="46.582944366666666" lon="11.246677849999998"><ele>1186.5</ele><time>2026-05-01T08:09:58.354Z</time></trkpt><trkpt lat="46.58316416666667" lon="11.246723783333334"><ele>1188.0</ele><time>2026-05-01T08:09:59.367Z</time></trkpt><trkpt lat="46.5833881" lon="11.24681385"><ele>1188.0</ele><time>2026-05-01T08:10:00.349Z</time></trkpt><trkpt lat="46.58361235000001" lon="11.246931300000002"><ele>1188.0</ele><time>2026-05-01T08:10:01.35Z</time></trkpt><trkpt lat="46.58383473333333" lon="11.247064633333332"><ele>1192.5</ele><time>2026-05-01T08:10:02.352Z</time></trkpt><trkpt lat="46.584054483333325" lon="11.247202750000001"><ele>1197.0</ele><time>2026-05-01T08:10:03.37Z</time></trkpt><trkpt lat="46.584267783333345" lon="11.247335216666666"><ele>1191.3333333333333</ele><time>2026-05-01T08:10:04.357Z</time></trkpt><trkpt lat="46.58447133333334" lon="11.247458300000002"><ele>1185.6666666666665</ele><time>2026-05-01T08:10:05.352Z</time></trkpt><trkpt lat="46.58466703333333" lon="11.247547283333331"><ele>1180.0</ele><time>2026-05-01T08:10:06.37Z</time></trkpt><trkpt lat="46.58486453333334" lon="11.247581666666667"><ele>1180.0</ele><time>2026-05-01T08:10:07.351Z</time></trkpt><trkpt lat="46.58507001666667" lon="11.247567816666665"><ele>1180.0</ele><time>2026-05-01T08:10:08.366Z</time></trkpt><trkpt lat="46.58528395" lon="11.247534366666665"><ele>1180.0</ele><time>2026-05-01T08:10:10.353Z</time></trkpt><trkpt lat="46.585506766666676" lon="11.247498266666666"><ele>1176.5</ele><time>2026-05-01T08:10:11.352Z</time></trkpt><trkpt lat="46.585939566666674" lon="11.247431833333334"><ele>1173.0</ele><time>2026-05-01T08:10:12.37Z</time></trkpt><trkpt lat="46.586139933333335" lon="11.247403016666665"><ele>1174.3333333333333</ele><time>2026-05-01T08:10:13.357Z</time></trkpt><trkpt lat="46.586329400000004" lon="11.247392866666667"><ele>1175.6666666666665</ele><time>2026-05-01T08:10:14.366Z</time></trkpt><trkpt lat="46.58650655" lon="11.2474289"><ele>1177.0</ele><time>2026-05-01T08:10:15.37Z</time></trkpt><trkpt lat="46.586816016666674" lon="11.247669699999998"><ele>1177.0</ele><time>2026-05-01T08:10:17.372Z</time></trkpt><trkpt lat="46.58693656666666" lon="11.247870299999999"><ele>1177.0</ele><time>2026-05-01T08:10:18.355Z</time></trkpt><trkpt lat="46.587027383333336" lon="11.248107916666667"><ele>1177.0</ele><time>2026-05-01T08:10:19.352Z</time></trkpt><trkpt lat="46.587099333333335" lon="11.248365783333334"><ele>1176.0</ele><time>2026-05-01T08:10:20.351Z</time></trkpt><trkpt lat="46.58716250000001" lon="11.2486326"><ele>1175.0</ele><time>2026-05-01T08:10:21.37Z</time></trkpt><trkpt lat="46.58720738333333" lon="11.248907683333334"><ele>1174.0</ele><time>2026-05-01T08:10:22.366Z</time></trkpt><trkpt lat="46.587226550000004" lon="11.2491985"><ele>1174.0</ele><time>2026-05-01T08:10:23.364Z</time></trkpt><trkpt lat="46.58723464999999" lon="11.249492383333333"><ele>1174.0</ele><time>2026-05-01T08:10:24.372Z</time></trkpt><trkpt lat="46.58724666666667" lon="11.249776333333333"><ele>1174.0</ele><time>2026-05-01T08:10:25.351Z</time></trkpt><trkpt lat="46.587268883333344" lon="11.250044483333333"><ele>1172.3333333333333</ele><time>2026-05-01T08:10:26.35Z</time></trkpt><trkpt lat="46.58730058333334" lon="11.250301383333333"><ele>1170.6666666666667</ele><time>2026-05-01T08:10:27.351Z</time></trkpt><trkpt lat="46.58733461666667" lon="11.2505465"><ele>1169.0</ele><time>2026-05-01T08:10:28.352Z</time></trkpt><trkpt lat="46.58736619999999" lon="11.250782883333333"><ele>1168.3333333333335</ele><time>2026-05-01T08:10:29.352Z</time></trkpt><trkpt lat="46.58739116666667" lon="11.251014416666665"><ele>1167.6666666666667</ele><time>2026-05-01T08:10:30.371Z</time></trkpt><trkpt lat="46.587409750000006" lon="11.251241233333332"><ele>1167.0</ele><time>2026-05-01T08:10:31.352Z</time></trkpt><trkpt lat="46.58742048333333" lon="11.251464733333334"><ele>1165.25</ele><time>2026-05-01T08:10:32.363Z</time></trkpt><trkpt lat="46.58742778333333" lon="11.251682266666666"><ele>1163.5</ele><time>2026-05-01T08:10:33.37Z</time></trkpt><trkpt lat="46.58743403333333" lon="11.251893783333331"><ele>1161.75</ele><time>2026-05-01T08:10:34.361Z</time></trkpt><trkpt lat="46.58744501666667" lon="11.252100933333333"><ele>1160.0</ele><time>2026-05-01T08:10:35.352Z</time></trkpt><trkpt lat="46.587459433333336" lon="11.252303016666668"><ele>1157.5</ele><time>2026-05-01T08:10:36.351Z</time></trkpt><trkpt lat="46.58747343333333" lon="11.2524992"><ele>1155.0</ele><time>2026-05-01T08:10:37.351Z</time></trkpt><trkpt lat="46.58748716666667" lon="11.252689816666667"><ele>1152.5</ele><time>2026-05-01T08:10:38.352Z</time></trkpt><trkpt lat="46.5875022" lon="11.252877283333332"><ele>1150.0</ele><time>2026-05-01T08:10:39.371Z</time></trkpt><trkpt lat="46.58751856666666" lon="11.25305976666667"><ele>1147.75</ele><time>2026-05-01T08:10:40.351Z</time></trkpt><trkpt lat="46.58753333333334" lon="11.253236116666669"><ele>1145.5</ele><time>2026-05-01T08:10:41.365Z</time></trkpt><trkpt lat="46.58754686666666" lon="11.253407233333334"><ele>1143.25</ele><time>2026-05-01T08:10:42.352Z</time></trkpt><trkpt lat="46.58755691666667" lon="11.253577233333333"><ele>1141.0</ele><time>2026-05-01T08:10:43.35Z</time></trkpt><trkpt lat="46.58756700000001" lon="11.253741200000002"><ele>1141.0</ele><time>2026-05-01T08:10:44.352Z</time></trkpt><trkpt lat="46.587578933333326" lon="11.253898516666668"><ele>1141.0</ele><time>2026-05-01T08:10:45.372Z</time></trkpt><trkpt lat="46.58759125" lon="11.254045566666665"><ele>1141.0</ele><time>2026-05-01T08:10:46.355Z</time></trkpt><trkpt lat="46.58759505" lon="11.25417205"><ele>1141.0</ele><time>2026-05-01T08:10:47.35Z</time></trkpt><trkpt lat="46.58757533333334" lon="11.254264299999999"><ele>1141.0</ele><time>2026-05-01T08:10:48.372Z</time></trkpt><trkpt lat="46.587472016666666" lon="11.254287800000002"><ele>1141.0</ele><time>2026-05-01T08:10:50.393Z</time></trkpt><trkpt lat="46.587419133333334" lon="11.254230549999999"><ele>1141.0</ele><time>2026-05-01T08:10:51.37Z</time></trkpt><trkpt lat="46.58736683333333" lon="11.254150516666668"><ele>1141.0</ele><time>2026-05-01T08:10:52.352Z</time></trkpt><trkpt lat="46.5873081" lon="11.254058616666669"><ele>1141.0</ele><time>2026-05-01T08:10:53.355Z</time></trkpt><trkpt lat="46.58723868333334" lon="11.253961266666666"><ele>1141.0</ele><time>2026-05-01T08:10:54.372Z</time></trkpt><trkpt lat="46.58715085" lon="11.253862616666668"><ele>1141.0</ele><time>2026-05-01T08:10:55.357Z</time></trkpt><trkpt lat="46.58705036666667" lon="11.2537726"><ele>1136.75</ele><time>2026-05-01T08:10:56.356Z</time></trkpt><trkpt lat="46.58694125" lon="11.253694383333334"><ele>1132.5</ele><time>2026-05-01T08:10:57.37Z</time></trkpt><trkpt lat="46.58683078333333" lon="11.25362383333333"><ele>1128.25</ele><time>2026-05-01T08:10:58.351Z</time></trkpt><trkpt lat="46.586720966666654" lon="11.25356545"><ele>1124.0</ele><time>2026-05-01T08:10:59.358Z</time></trkpt><trkpt lat="46.5866078" lon="11.253524699999998"><ele>1124.0</ele><time>2026-05-01T08:11:00.373Z</time></trkpt><trkpt lat="46.58649168333333" lon="11.253505766666668"><ele>1124.0</ele><time>2026-05-01T08:11:01.352Z</time></trkpt><trkpt lat="46.58637468333333" lon="11.253508733333335"><ele>1124.0</ele><time>2026-05-01T08:11:02.352Z</time></trkpt><trkpt lat="46.58625696666667" lon="11.253516633333334"><ele>1124.0</ele><time>2026-05-01T08:11:03.352Z</time></trkpt><trkpt lat="46.58614065" lon="11.253523266666665"><ele>1121.0</ele><time>2026-05-01T08:11:04.349Z</time></trkpt><trkpt lat="46.5860238725499" lon="11.253496421009926"><ele>1118.0</ele><time>2026-05-01T08:11:05.356Z</time></trkpt><trkpt lat="46.58590480680849" lon="11.253490340092897"><ele>1115.0</ele><time>2026-05-01T08:11:06.372Z</time></trkpt><trkpt lat="46.58578864733511" lon="11.25348158511252"><ele>1112.0</ele><time>2026-05-01T08:11:07.355Z</time></trkpt><trkpt lat="46.58567152941868" lon="11.253472578909166"><ele>1112.0</ele><time>2026-05-01T08:11:08.351Z</time></trkpt><trkpt lat="46.585555551718244" lon="11.253463660403986"><ele>1112.0</ele><time>2026-05-01T08:11:09.386Z</time></trkpt><trkpt lat="46.58544158363875" lon="11.253453399119682"><ele>1112.0</ele><time>2026-05-01T08:11:10.353Z</time></trkpt><trkpt lat="46.58532637527568" lon="11.253453282480574"><ele>1112.0</ele><time>2026-05-01T08:11:11.353Z</time></trkpt><trkpt lat="46.58523191563738" lon="11.253515404641535"><ele>1112.0</ele><time>2026-05-01T08:11:12.35Z</time></trkpt><trkpt lat="46.585186683333326" lon="11.253635249999999"><ele>1110.8</ele><time>2026-05-01T08:11:13.351Z</time></trkpt><trkpt lat="46.585159983333334" lon="11.253762083333333"><ele>1109.6</ele><time>2026-05-01T08:11:14.352Z</time></trkpt><trkpt lat="46.585146866666676" lon="11.253911083333332"><ele>1108.3999999999999</ele><time>2026-05-01T08:11:15.37Z</time></trkpt><trkpt lat="46.58513626666666" lon="11.2540855"><ele>1107.2</ele><time>2026-05-01T08:11:16.351Z</time></trkpt><trkpt lat="46.58513163333333" lon="11.254268366666668"><ele>1106.0</ele><time>2026-05-01T08:11:17.37Z</time></trkpt><trkpt lat="46.58513225" lon="11.2544551"><ele>1104.75</ele><time>2026-05-01T08:11:18.372Z</time></trkpt><trkpt lat="46.585113699999994" lon="11.254641666666664"><ele>1103.5</ele><time>2026-05-01T08:11:19.352Z</time></trkpt><trkpt lat="46.58506560000001" lon="11.254816316666664"><ele>1102.25</ele><time>2026-05-01T08:11:20.357Z</time></trkpt><trkpt lat="46.58500805" lon="11.254975516666665"><ele>1101.0</ele><time>2026-05-01T08:11:21.372Z</time></trkpt><trkpt lat="46.58495793333333" lon="11.255130416666669"><ele>1100.5</ele><time>2026-05-01T08:11:22.352Z</time></trkpt><trkpt lat="46.58492419999999" lon="11.255287216666666"><ele>1100.0</ele><time>2026-05-01T08:11:23.352Z</time></trkpt><trkpt lat="46.58490988333333" lon="11.255446166666665"><ele>1099.5</ele><time>2026-05-01T08:11:24.371Z</time></trkpt><trkpt lat="46.58492351666667" lon="11.25561146666667"><ele>1099.0</ele><time>2026-05-01T08:11:25.373Z</time></trkpt><trkpt lat="46.5849645" lon="11.255782866666669"><ele>1097.75</ele><time>2026-05-01T08:11:26.37Z</time></trkpt><trkpt lat="46.585020633333336" lon="11.25596106666667"><ele>1096.5</ele><time>2026-05-01T08:11:27.37Z</time></trkpt><trkpt lat="46.58508391666666" lon="11.256152466666666"><ele>1095.25</ele><time>2026-05-01T08:11:28.351Z</time></trkpt><trkpt lat="46.58514286666667" lon="11.256363283333334"><ele>1094.0</ele><time>2026-05-01T08:11:29.352Z</time></trkpt><trkpt lat="46.58519083333334" lon="11.256594233333333"><ele>1090.3333333333335</ele><time>2026-05-01T08:11:30.351Z</time></trkpt><trkpt lat="46.585229766666664" lon="11.256827200000002"><ele>1086.6666666666667</ele><time>2026-05-01T08:11:31.366Z</time></trkpt><trkpt lat="46.58526746666667" lon="11.257049233333332"><ele>1083.0</ele><time>2026-05-01T08:11:32.35Z</time></trkpt><trkpt lat="46.58531815" lon="11.2572559"><ele>1089.0</ele><time>2026-05-01T08:11:33.371Z</time></trkpt><trkpt lat="46.58537703333333" lon="11.257435933333333"><ele>1095.0</ele><time>2026-05-01T08:11:34.35Z</time></trkpt><trkpt lat="46.585422599999994" lon="11.257604016666669"><ele>1101.0</ele><time>2026-05-01T08:11:35.364Z</time></trkpt><trkpt lat="46.585429616666666" lon="11.25777255"><ele>1107.0</ele><time>2026-05-01T08:11:36.371Z</time></trkpt><trkpt lat="46.58539290000001" lon="11.25793815"><ele>1105.75</ele><time>2026-05-01T08:11:37.351Z</time></trkpt><trkpt lat="46.585314" lon="11.258084433333334"><ele>1104.5</ele><time>2026-05-01T08:11:38.352Z</time></trkpt><trkpt lat="46.58520326666667" lon="11.258183950000001"><ele>1103.25</ele><time>2026-05-01T08:11:39.372Z</time></trkpt><trkpt lat="46.5850783" lon="11.258217100000001"><ele>1102.0</ele><time>2026-05-01T08:11:40.357Z</time></trkpt><trkpt lat="46.58495666666666" lon="11.2581776"><ele>1097.25</ele><time>2026-05-01T08:11:41.352Z</time></trkpt><trkpt lat="46.58484878333334" lon="11.258070049999999"><ele>1092.5</ele><time>2026-05-01T08:11:42.371Z</time></trkpt><trkpt lat="46.58475065" lon="11.257909016666668"><ele>1087.75</ele><time>2026-05-01T08:11:43.352Z</time></trkpt><trkpt lat="46.5846453" lon="11.257728883333334"><ele>1083.0</ele><time>2026-05-01T08:11:44.351Z</time></trkpt><trkpt lat="46.58452461666668" lon="11.257559250000002"><ele>1087.3333333333333</ele><time>2026-05-01T08:11:45.371Z</time></trkpt><trkpt lat="46.584384116666655" lon="11.2574114"><ele>1091.6666666666665</ele><time>2026-05-01T08:11:46.352Z</time></trkpt><trkpt lat="46.58421958333333" lon="11.257294416666666"><ele>1096.0</ele><time>2026-05-01T08:11:47.352Z</time></trkpt><trkpt lat="46.58403748333334" lon="11.257197616666668"><ele>1091.0</ele><time>2026-05-01T08:11:48.373Z</time></trkpt><trkpt lat="46.58384103333333" lon="11.25711986666667"><ele>1086.0</ele><time>2026-05-01T08:11:49.351Z</time></trkpt><trkpt lat="46.583653100000014" lon="11.257039333333333"><ele>1081.0</ele><time>2026-05-01T08:11:50.351Z</time></trkpt><trkpt lat="46.58347541666667" lon="11.256954583333334"><ele>1081.0</ele><time>2026-05-01T08:11:51.371Z</time></trkpt><trkpt lat="46.58330493333333" lon="11.2568579"><ele>1081.0</ele><time>2026-05-01T08:11:52.35Z</time></trkpt><trkpt lat="46.58313325" lon="11.256747949999998"><ele>1081.0</ele><time>2026-05-01T08:11:53.373Z</time></trkpt><trkpt lat="46.582958016666666" lon="11.2566194"><ele>1078.3333333333333</ele><time>2026-05-01T08:11:54.376Z</time></trkpt><trkpt lat="46.58278021666667" lon="11.256469633333333"><ele>1075.6666666666667</ele><time>2026-05-01T08:11:55.35Z</time></trkpt><trkpt lat="46.58261098333334" lon="11.256308183333333"><ele>1073.0</ele><time>2026-05-01T08:11:56.351Z</time></trkpt><trkpt lat="46.582453050000005" lon="11.256147416666664"><ele>1073.0</ele><time>2026-05-01T08:11:57.37Z</time></trkpt><trkpt lat="46.582307141202065" lon="11.255972646824807"><ele>1073.0</ele><time>2026-05-01T08:11:58.363Z</time></trkpt><trkpt lat="46.58214380252905" lon="11.255833085832995"><ele>1073.0</ele><time>2026-05-01T08:11:59.352Z</time></trkpt><trkpt lat="46.58196204408035" lon="11.255741236957498"><ele>1076.6666666666667</ele><time>2026-05-01T08:12:00.374Z</time></trkpt><trkpt lat="46.58175855983614" lon="11.25568626510215"><ele>1080.3333333333333</ele><time>2026-05-01T08:12:01.364Z</time></trkpt><trkpt lat="46.58153311666666" lon="11.25567615"><ele>1084.0</ele><time>2026-05-01T08:12:02.352Z</time></trkpt><trkpt lat="46.58130105000001" lon="11.255631000000003"><ele>1065.5</ele><time>2026-05-01T08:12:03.349Z</time></trkpt><trkpt lat="46.581061950000006" lon="11.255576466666666"><ele>1047.0</ele><time>2026-05-01T08:12:04.349Z</time></trkpt><trkpt lat="46.58082198333333" lon="11.255503883333331"><ele>1047.0</ele><time>2026-05-01T08:12:05.352Z</time></trkpt><trkpt lat="46.580588199999994" lon="11.255430483333337"><ele>1047.0</ele><time>2026-05-01T08:12:06.371Z</time></trkpt><trkpt lat="46.5803651" lon="11.255370933333333"><ele>1050.0</ele><time>2026-05-01T08:12:07.351Z</time></trkpt><trkpt lat="46.58014883333334" lon="11.255316983333334"><ele>1053.0</ele><time>2026-05-01T08:12:08.351Z</time></trkpt><trkpt lat="46.579940533333335" lon="11.255269333333334"><ele>1056.0</ele><time>2026-05-01T08:12:09.372Z</time></trkpt><trkpt lat="46.57973306666666" lon="11.255227483333332"><ele>1056.0</ele><time>2026-05-01T08:12:10.349Z</time></trkpt><trkpt lat="46.579521850000006" lon="11.255191899999998"><ele>1056.0</ele><time>2026-05-01T08:12:11.352Z</time></trkpt><trkpt lat="46.5793124" lon="11.2551607"><ele>1056.0</ele><time>2026-05-01T08:12:12.365Z</time></trkpt><trkpt lat="46.5788783" lon="11.25509395"><ele>1050.0</ele><time>2026-05-01T08:12:14.35Z</time></trkpt><trkpt lat="46.57866233333333" lon="11.255056533333335"><ele>1044.0</ele><time>2026-05-01T08:12:15.372Z</time></trkpt><trkpt lat="46.578446833333324" lon="11.255024050000001"><ele>1038.0</ele><time>2026-05-01T08:12:16.352Z</time></trkpt><trkpt lat="46.578237300000005" lon="11.254998566666666"><ele>1038.0</ele><time>2026-05-01T08:12:17.351Z</time></trkpt><trkpt lat="46.57802629999999" lon="11.254975733333334"><ele>1038.0</ele><time>2026-05-01T08:12:18.372Z</time></trkpt><trkpt lat="46.57781986666667" lon="11.254952116666667"><ele>1038.0</ele><time>2026-05-01T08:12:19.351Z</time></trkpt><trkpt lat="46.57762043333334" lon="11.254929983333334"><ele>1039.3333333333333</ele><time>2026-05-01T08:12:20.35Z</time></trkpt><trkpt lat="46.577428116666674" lon="11.254900333333335"><ele>1040.6666666666665</ele><time>2026-05-01T08:12:21.351Z</time></trkpt><trkpt lat="46.57724493333333" lon="11.254875083333332"><ele>1042.0</ele><time>2026-05-01T08:12:22.35Z</time></trkpt><trkpt lat="46.577071510868016" lon="11.254847138299258"><ele>1043.0</ele><time>2026-05-01T08:12:23.351Z</time></trkpt><trkpt lat="46.57690560387676" lon="11.254855432268377"><ele>1044.0</ele><time>2026-05-01T08:12:24.372Z</time></trkpt><trkpt lat="46.57673672310394" lon="11.25487861519025"><ele>1045.0</ele><time>2026-05-01T08:12:25.351Z</time></trkpt><trkpt lat="46.57656307181356" lon="11.254916575911787"><ele>1045.0</ele><time>2026-05-01T08:12:26.385Z</time></trkpt><trkpt lat="46.57638360355138" lon="11.254975686350633"><ele>1045.0</ele><time>2026-05-01T08:12:27.371Z</time></trkpt><trkpt lat="46.57619721147438" lon="11.255044004842382"><ele>1045.0</ele><time>2026-05-01T08:12:28.351Z</time></trkpt><trkpt lat="46.576003570740454" lon="11.2551143849814"><ele>1039.6666666666665</ele><time>2026-05-01T08:12:29.353Z</time></trkpt><trkpt lat="46.57580582971862" lon="11.255185832781796"><ele>1034.3333333333333</ele><time>2026-05-01T08:12:30.354Z</time></trkpt><trkpt lat="46.57560236512931" lon="11.255265470353441"><ele>1029.0</ele><time>2026-05-01T08:12:31.366Z</time></trkpt><trkpt lat="46.57539531422692" lon="11.255381571716896"><ele>1027.6666666666667</ele><time>2026-05-01T08:12:32.35Z</time></trkpt><trkpt lat="46.57520399136456" lon="11.255510974671788"><ele>1026.3333333333335</ele><time>2026-05-01T08:12:33.371Z</time></trkpt><trkpt lat="46.57500960901122" lon="11.2556424469421"><ele>1025.0</ele><time>2026-05-01T08:12:34.351Z</time></trkpt><trkpt lat="46.57482739321307" lon="11.255774499056086"><ele>1026.6666666666667</ele><time>2026-05-01T08:12:35.357Z</time></trkpt><trkpt lat="46.574705066666674" lon="11.256044133333333"><ele>1028.3333333333333</ele><time>2026-05-01T08:12:36.37Z</time></trkpt><trkpt lat="46.57454961666667" lon="11.256159933333333"><ele>1030.0</ele><time>2026-05-01T08:12:37.351Z</time></trkpt><trkpt lat="46.57440866666667" lon="11.25625645"><ele>1030.0</ele><time>2026-05-01T08:12:38.351Z</time></trkpt><trkpt lat="46.574276" lon="11.256348233333332"><ele>1030.0</ele><time>2026-05-01T08:12:39.353Z</time></trkpt><trkpt lat="46.57415481666667" lon="11.256420816666667"><ele>1030.0</ele><time>2026-05-01T08:12:40.364Z</time></trkpt><trkpt lat="46.57404313333333" lon="11.25647415"><ele>1030.0</ele><time>2026-05-01T08:12:41.351Z</time></trkpt><trkpt lat="46.573932633333335" lon="11.2565401"><ele>1032.5</ele><time>2026-05-01T08:12:42.372Z</time></trkpt><trkpt lat="46.57382648333334" lon="11.25662975"><ele>1035.0</ele><time>2026-05-01T08:12:43.353Z</time></trkpt><trkpt lat="46.57372279999999" lon="11.256734083333335"><ele>1037.5</ele><time>2026-05-01T08:12:44.351Z</time></trkpt><trkpt lat="46.573618999999994" lon="11.256846800000002"><ele>1040.0</ele><time>2026-05-01T08:12:45.375Z</time></trkpt><trkpt lat="46.57351215" lon="11.256959883333332"><ele>1040.0</ele><time>2026-05-01T08:12:46.351Z</time></trkpt><trkpt lat="46.573401866666664" lon="11.257063333333333"><ele>1040.0</ele><time>2026-05-01T08:12:47.351Z</time></trkpt><trkpt lat="46.57328663333333" lon="11.257147166666668"><ele>1040.0</ele><time>2026-05-01T08:12:48.351Z</time></trkpt><trkpt lat="46.57316448333333" lon="11.257210383333332"><ele>1040.0</ele><time>2026-05-01T08:12:49.373Z</time></trkpt><trkpt lat="46.573042933333326" lon="11.257263266666667"><ele>1042.75</ele><time>2026-05-01T08:12:50.35Z</time></trkpt><trkpt lat="46.57292068333333" lon="11.257317783333335"><ele>1045.5</ele><time>2026-05-01T08:12:51.372Z</time></trkpt><trkpt lat="46.57279796666667" lon="11.257376283333334"><ele>1048.25</ele><time>2026-05-01T08:12:52.35Z</time></trkpt><trkpt lat="46.57267811666667" lon="11.257436116666668"><ele>1051.0</ele><time>2026-05-01T08:12:53.371Z</time></trkpt><trkpt lat="46.57256075" lon="11.257500966666665"><ele>1051.0</ele><time>2026-05-01T08:12:54.354Z</time></trkpt><trkpt lat="46.57243928333334" lon="11.257560833333333"><ele>1051.0</ele><time>2026-05-01T08:12:55.351Z</time></trkpt><trkpt lat="46.57231683333333" lon="11.257625800000001"><ele>1051.0</ele><time>2026-05-01T08:12:56.351Z</time></trkpt><trkpt lat="46.57219475" lon="11.257704116666666"><ele>1051.0</ele><time>2026-05-01T08:12:57.351Z</time></trkpt><trkpt lat="46.57207303333333" lon="11.257794166666667"><ele>1052.75</ele><time>2026-05-01T08:12:58.351Z</time></trkpt><trkpt lat="46.571955849999995" lon="11.257892883333334"><ele>1054.5</ele><time>2026-05-01T08:12:59.351Z</time></trkpt><trkpt lat="46.571842849999996" lon="11.258001016666666"><ele>1056.25</ele><time>2026-05-01T08:13:00.354Z</time></trkpt><trkpt lat="46.5717325" lon="11.258118483333332"><ele>1058.0</ele><time>2026-05-01T08:13:01.351Z</time></trkpt><trkpt lat="46.571627883333335" lon="11.258245700000002"><ele>1058.0</ele><time>2026-05-01T08:13:02.37Z</time></trkpt><trkpt lat="46.571530883333324" lon="11.258382"><ele>1058.0</ele><time>2026-05-01T08:13:03.372Z</time></trkpt><trkpt lat="46.571442383333334" lon="11.258528316666665"><ele>1058.0</ele><time>2026-05-01T08:13:04.353Z</time></trkpt><trkpt lat="46.57136238333332" lon="11.258684316666665"><ele>1058.0</ele><time>2026-05-01T08:13:05.351Z</time></trkpt><trkpt lat="46.57129801666667" lon="11.258859600000003"><ele>1060.8</ele><time>2026-05-01T08:13:06.371Z</time></trkpt><trkpt lat="46.57125311666667" lon="11.25902865"><ele>1063.6</ele><time>2026-05-01T08:13:07.368Z</time></trkpt><trkpt lat="46.57122788333332" lon="11.25918675"><ele>1066.4</ele><time>2026-05-01T08:13:08.35Z</time></trkpt><trkpt lat="46.571215516666676" lon="11.259338833333333"><ele>1069.2</ele><time>2026-05-01T08:13:09.372Z</time></trkpt><trkpt lat="46.571207566666665" lon="11.259493266666668"><ele>1072.0</ele><time>2026-05-01T08:13:10.352Z</time></trkpt><trkpt lat="46.57120133333333" lon="11.259645983333334"><ele>1072.5</ele><time>2026-05-01T08:13:11.37Z</time></trkpt><trkpt lat="46.57118848333332" lon="11.259801866666665"><ele>1073.0</ele><time>2026-05-01T08:13:12.371Z</time></trkpt><trkpt lat="46.57116451666668" lon="11.259945550000001"><ele>1073.5</ele><time>2026-05-01T08:13:13.351Z</time></trkpt><trkpt lat="46.571057116666665" lon="11.260170916666668"><ele>1074.0</ele><time>2026-05-01T08:13:15.371Z</time></trkpt><trkpt lat="46.570985" lon="11.260243149999999"><ele>1074.0</ele><time>2026-05-01T08:13:16.364Z</time></trkpt><trkpt lat="46.57091363333334" lon="11.260288866666668"><ele>1074.0</ele><time>2026-05-01T08:13:17.353Z</time></trkpt><trkpt lat="46.570835583333334" lon="11.260318516666667"><ele>1074.0</ele><time>2026-05-01T08:13:18.354Z</time></trkpt><trkpt lat="46.57075313333333" lon="11.260335583333331"><ele>1074.0</ele><time>2026-05-01T08:13:19.351Z</time></trkpt><trkpt lat="46.570669716666664" lon="11.260344116666666"><ele>1074.0</ele><time>2026-05-01T08:13:20.355Z</time></trkpt><trkpt lat="46.570578033333334" lon="11.260345749999999"><ele>1074.0</ele><time>2026-05-01T08:13:21.372Z</time></trkpt><trkpt lat="46.57048311666667" lon="11.260352666666664"><ele>1074.0</ele><time>2026-05-01T08:13:22.351Z</time></trkpt><trkpt lat="46.570389516666665" lon="11.260367633333331"><ele>1074.0</ele><time>2026-05-01T08:13:23.353Z</time></trkpt><trkpt lat="46.570300583333335" lon="11.260397716666667"><ele>1074.0</ele><time>2026-05-01T08:13:24.371Z</time></trkpt><trkpt lat="46.57021665" lon="11.260438233333332"><ele>1074.0</ele><time>2026-05-01T08:13:25.358Z</time></trkpt><trkpt lat="46.570132283333336" lon="11.260487099999999"><ele>1074.0</ele><time>2026-05-01T08:13:26.368Z</time></trkpt><trkpt lat="46.57005566666667" lon="11.2605473"><ele>1077.4</ele><time>2026-05-01T08:13:27.371Z</time></trkpt><trkpt lat="46.569986283333336" lon="11.26062005"><ele>1080.8000000000002</ele><time>2026-05-01T08:13:28.352Z</time></trkpt><trkpt lat="46.569916866666674" lon="11.260701866666667"><ele>1084.1999999999998</ele><time>2026-05-01T08:13:29.373Z</time></trkpt><trkpt lat="46.5698502" lon="11.26079651666667"><ele>1087.6</ele><time>2026-05-01T08:13:30.352Z</time></trkpt><trkpt lat="46.56978938333334" lon="11.260906683333333"><ele>1091.0</ele><time>2026-05-01T08:13:31.352Z</time></trkpt><trkpt lat="46.569735233333326" lon="11.261026633333332"><ele>1091.0</ele><time>2026-05-01T08:13:32.363Z</time></trkpt><trkpt lat="46.56969155" lon="11.261159016666667"><ele>1091.0</ele><time>2026-05-01T08:13:33.372Z</time></trkpt><trkpt lat="46.569656699999996" lon="11.2612959"><ele>1091.0</ele><time>2026-05-01T08:13:34.351Z</time></trkpt><trkpt lat="46.56963388333333" lon="11.261437350000003"><ele>1091.0</ele><time>2026-05-01T08:13:35.364Z</time></trkpt><trkpt lat="46.569625349999995" lon="11.2615747"><ele>1091.0</ele><time>2026-05-01T08:13:36.374Z</time></trkpt><trkpt lat="46.56962231666666" lon="11.261714233333333"><ele>1092.0</ele><time>2026-05-01T08:13:37.356Z</time></trkpt><trkpt lat="46.56962411666667" lon="11.261854333333334"><ele>1093.0</ele><time>2026-05-01T08:13:39.351Z</time></trkpt><trkpt lat="46.569617566666665" lon="11.262141783333334"><ele>1094.0</ele><time>2026-05-01T08:13:40.352Z</time></trkpt><trkpt lat="46.56959411666667" lon="11.262285183333331"><ele>1095.0</ele><time>2026-05-01T08:13:41.354Z</time></trkpt><trkpt lat="46.569534653740256" lon="11.26239742797795"><ele>1094.2</ele><time>2026-05-01T08:13:42.351Z</time></trkpt><trkpt lat="46.56947828333333" lon="11.262516183333332"><ele>1093.4</ele><time>2026-05-01T08:13:43.351Z</time></trkpt><trkpt lat="46.56938926666667" lon="11.2625946"><ele>1092.6</ele><time>2026-05-01T08:13:44.362Z</time></trkpt><trkpt lat="46.56928183333333" lon="11.262643733333334"><ele>1091.8</ele><time>2026-05-01T08:13:45.371Z</time></trkpt><trkpt lat="46.569165483333336" lon="11.2626545"><ele>1091.0</ele><time>2026-05-01T08:13:46.35Z</time></trkpt><trkpt lat="46.569049316666664" lon="11.262626383333334"><ele>1091.0</ele><time>2026-05-01T08:13:47.351Z</time></trkpt><trkpt lat="46.56894162216636" lon="11.262545462761892"><ele>1091.0</ele><time>2026-05-01T08:13:48.366Z</time></trkpt><trkpt lat="46.568823933333334" lon="11.262507449999998"><ele>1091.0</ele><time>2026-05-01T08:13:49.351Z</time></trkpt><trkpt lat="46.56871231666668" lon="11.2624657"><ele>1091.0</ele><time>2026-05-01T08:13:50.349Z</time></trkpt><trkpt lat="46.56859800000001" lon="11.262458883333332"><ele>1089.0</ele><time>2026-05-01T08:13:51.371Z</time></trkpt><trkpt lat="46.568477066666674" lon="11.262472866666666"><ele>1087.0</ele><time>2026-05-01T08:13:52.351Z</time></trkpt><trkpt lat="46.568346516666665" lon="11.26249805"><ele>1085.0</ele><time>2026-05-01T08:13:53.357Z</time></trkpt><trkpt lat="46.568211649999995" lon="11.262519133333335"><ele>1083.0</ele><time>2026-05-01T08:13:54.371Z</time></trkpt><trkpt lat="46.568073549999994" lon="11.262520766666668"><ele>1083.0</ele><time>2026-05-01T08:13:55.352Z</time></trkpt><trkpt lat="46.5679384" lon="11.262515350000001"><ele>1083.0</ele><time>2026-05-01T08:13:56.353Z</time></trkpt><trkpt lat="46.56781250000001" lon="11.262520283333332"><ele>1083.0</ele><time>2026-05-01T08:13:57.37Z</time></trkpt><trkpt lat="46.5676782" lon="11.262526266666663"><ele>1083.0</ele><time>2026-05-01T08:13:58.354Z</time></trkpt><trkpt lat="46.56753583333334" lon="11.262539833333335"><ele>1082.5</ele><time>2026-05-01T08:13:59.352Z</time></trkpt><trkpt lat="46.56738901800316" lon="11.262554496356314"><ele>1082.0</ele><time>2026-05-01T08:14:00.359Z</time></trkpt><trkpt lat="46.56724927023352" lon="11.262601558029475"><ele>1081.5</ele><time>2026-05-01T08:14:01.352Z</time></trkpt><trkpt lat="46.56711344814368" lon="11.262657248280659"><ele>1081.0</ele><time>2026-05-01T08:14:02.386Z</time></trkpt><trkpt lat="46.566980806938616" lon="11.262722858139483"><ele>1077.5</ele><time>2026-05-01T08:14:03.371Z</time></trkpt><trkpt lat="46.56685225717112" lon="11.262790888581483"><ele>1074.0</ele><time>2026-05-01T08:14:04.352Z</time></trkpt><trkpt lat="46.56672820283325" lon="11.26285883688285"><ele>1070.5</ele><time>2026-05-01T08:14:05.351Z</time></trkpt><trkpt lat="46.566605795179534" lon="11.262926678150347"><ele>1067.0</ele><time>2026-05-01T08:14:06.352Z</time></trkpt><trkpt lat="46.56648470978922" lon="11.262996210555395"><ele>1067.0</ele><time>2026-05-01T08:14:07.351Z</time></trkpt><trkpt lat="46.56636197717949" lon="11.263069535479179"><ele>1067.0</ele><time>2026-05-01T08:14:08.353Z</time></trkpt><trkpt lat="46.566241027954895" lon="11.263150058885683"><ele>1067.0</ele><time>2026-05-01T08:14:09.352Z</time></trkpt><trkpt lat="46.56611984657463" lon="11.263235020487825"><ele>1067.0</ele><time>2026-05-01T08:14:10.352Z</time></trkpt><trkpt lat="46.5660042891382" lon="11.263325220607399"><ele>1070.5</ele><time>2026-05-01T08:14:11.358Z</time></trkpt><trkpt lat="46.56589205232655" lon="11.263416821424679"><ele>1074.0</ele><time>2026-05-01T08:14:12.371Z</time></trkpt><trkpt lat="46.565781496350425" lon="11.263510770799801"><ele>1077.5</ele><time>2026-05-01T08:14:13.352Z</time></trkpt><trkpt lat="46.5656741487497" lon="11.263609172320114"><ele>1081.0</ele><time>2026-05-01T08:14:14.352Z</time></trkpt><trkpt lat="46.56556950635966" lon="11.26371462590469"><ele>1081.0</ele><time>2026-05-01T08:14:15.354Z</time></trkpt><trkpt lat="46.56546711294803" lon="11.26382577522561"><ele>1081.0</ele><time>2026-05-01T08:14:16.374Z</time></trkpt><trkpt lat="46.56537017903862" lon="11.263942772950891"><ele>1081.0</ele><time>2026-05-01T08:14:17.352Z</time></trkpt><trkpt lat="46.5652736494069" lon="11.264066215283389"><ele>1081.0</ele><time>2026-05-01T08:14:18.373Z</time></trkpt><trkpt lat="46.56517794565128" lon="11.264195583906353"><ele>1080.5</ele><time>2026-05-01T08:14:19.388Z</time></trkpt><trkpt lat="46.565084976043806" lon="11.264328062149419"><ele>1080.0</ele><time>2026-05-01T08:14:20.354Z</time></trkpt><trkpt lat="46.56498785189002" lon="11.264460739948397"><ele>1079.5</ele><time>2026-05-01T08:14:21.389Z</time></trkpt><trkpt lat="46.56489080854099" lon="11.264587257478446"><ele>1079.0</ele><time>2026-05-01T08:14:22.352Z</time></trkpt><trkpt lat="46.56480723333334" lon="11.264716300000002"><ele>1079.0</ele><time>2026-05-01T08:14:23.352Z</time></trkpt><trkpt lat="46.56471321666667" lon="11.264807450000001"><ele>1079.0</ele><time>2026-05-01T08:14:24.352Z</time></trkpt><trkpt lat="46.564624183333336" lon="11.264891599999999"><ele>1079.0</ele><time>2026-05-01T08:14:25.35Z</time></trkpt><trkpt lat="46.56453566666667" lon="11.264967149999999"><ele>1079.0</ele><time>2026-05-01T08:14:26.352Z</time></trkpt><trkpt lat="46.56444458333334" lon="11.265028816666666"><ele>1079.0</ele><time>2026-05-01T08:14:27.37Z</time></trkpt><trkpt lat="46.56435163333334" lon="11.26506048333333"><ele>1079.0</ele><time>2026-05-01T08:14:28.35Z</time></trkpt><trkpt lat="46.56425916666667" lon="11.265067833333333"><ele>1079.0</ele><time>2026-05-01T08:14:29.371Z</time></trkpt><trkpt lat="46.56416836666668" lon="11.265066883333335"><ele>1079.0</ele><time>2026-05-01T08:14:30.371Z</time></trkpt><trkpt lat="46.56408103333333" lon="11.265065383333335"><ele>1079.0</ele><time>2026-05-01T08:14:31.351Z</time></trkpt><trkpt lat="46.563995383333335" lon="11.265069216666665"><ele>1079.0</ele><time>2026-05-01T08:14:32.354Z</time></trkpt><trkpt lat="46.56390323427971" lon="11.26505653597501"><ele>1079.0</ele><time>2026-05-01T08:14:33.373Z</time></trkpt><trkpt lat="46.5638058203001" lon="11.26509043628219"><ele>1079.0</ele><time>2026-05-01T08:14:34.352Z</time></trkpt><trkpt lat="46.563712357363464" lon="11.265155866025024"><ele>1079.0</ele><time>2026-05-01T08:14:35.352Z</time></trkpt><trkpt lat="46.563635833333336" lon="11.26525445"><ele>1079.0</ele><time>2026-05-01T08:14:36.371Z</time></trkpt><trkpt lat="46.56355023333334" lon="11.265329966666666"><ele>1079.0</ele><time>2026-05-01T08:14:37.354Z</time></trkpt><trkpt lat="46.56346140000001" lon="11.265395683333335"><ele>1079.0</ele><time>2026-05-01T08:14:38.371Z</time></trkpt><trkpt lat="46.56336813333334" lon="11.265431816666668"><ele>1077.0</ele><time>2026-05-01T08:14:39.373Z</time></trkpt><trkpt lat="46.56327495" lon="11.265436683333332"><ele>1075.0</ele><time>2026-05-01T08:14:40.351Z</time></trkpt><trkpt lat="46.56318346666667" lon="11.265421633333336"><ele>1073.0</ele><time>2026-05-01T08:14:41.352Z</time></trkpt><trkpt lat="46.563088566666664" lon="11.265399316666667"><ele>1071.0</ele><time>2026-05-01T08:14:42.371Z</time></trkpt><trkpt lat="46.56298964999999" lon="11.265372483333332"><ele>1069.0</ele><time>2026-05-01T08:14:43.366Z</time></trkpt><trkpt lat="46.56288606666667" lon="11.265344683333335"><ele>1067.6000000000001</ele><time>2026-05-01T08:14:44.35Z</time></trkpt><trkpt lat="46.56277851666667" lon="11.26532385"><ele>1066.2</ele><time>2026-05-01T08:14:45.372Z</time></trkpt><trkpt lat="46.56266676666668" lon="11.265316183333335"><ele>1064.8000000000002</ele><time>2026-05-01T08:14:46.373Z</time></trkpt><trkpt lat="46.562554600000006" lon="11.2653303"><ele>1063.4</ele><time>2026-05-01T08:14:47.367Z</time></trkpt><trkpt lat="46.56244741666666" lon="11.265359433333332"><ele>1062.0</ele><time>2026-05-01T08:14:48.373Z</time></trkpt><trkpt lat="46.562339800000004" lon="11.265405133333335"><ele>1062.0</ele><time>2026-05-01T08:14:49.351Z</time></trkpt><trkpt lat="46.562232783333336" lon="11.265457583333333"><ele>1062.0</ele><time>2026-05-01T08:14:50.353Z</time></trkpt><trkpt lat="46.56212861666666" lon="11.265499433333332"><ele>1062.0</ele><time>2026-05-01T08:14:51.371Z</time></trkpt><trkpt lat="46.56202705000001" lon="11.265512833333334"><ele>1062.0</ele><time>2026-05-01T08:14:52.355Z</time></trkpt><trkpt lat="46.561937883333336" lon="11.265490466666666"><ele>1062.0</ele><time>2026-05-01T08:14:53.349Z</time></trkpt><trkpt lat="46.561866983333324" lon="11.265437100000002"><ele>1061.8333333333333</ele><time>2026-05-01T08:14:54.371Z</time></trkpt><trkpt lat="46.5618101" lon="11.265366433333336"><ele>1061.6666666666667</ele><time>2026-05-01T08:14:55.351Z</time></trkpt><trkpt lat="46.56176571666666" lon="11.265280499999998"><ele>1061.5</ele><time>2026-05-01T08:14:56.352Z</time></trkpt><trkpt lat="46.561733583333336" lon="11.2651778"><ele>1061.3333333333335</ele><time>2026-05-01T08:14:57.371Z</time></trkpt><trkpt lat="46.56171228333333" lon="11.265057316666665"><ele>1061.1666666666667</ele><time>2026-05-01T08:14:58.356Z</time></trkpt><trkpt lat="46.561700900000005" lon="11.264922233333333"><ele>1061.0</ele><time>2026-05-01T08:14:59.348Z</time></trkpt><trkpt lat="46.561696466666675" lon="11.264773583333332"><ele>1061.0</ele><time>2026-05-01T08:15:00.372Z</time></trkpt><trkpt lat="46.561643816666674" lon="11.264492083333334"><ele>1061.0</ele><time>2026-05-01T08:15:02.352Z</time></trkpt><trkpt lat="46.56158260000001" lon="11.264364583333334"><ele>1061.0</ele><time>2026-05-01T08:15:03.373Z</time></trkpt><trkpt lat="46.561504866666674" lon="11.2642518"><ele>1061.0</ele><time>2026-05-01T08:15:04.353Z</time></trkpt><trkpt lat="46.56141736666667" lon="11.264150066666666"><ele>1061.0</ele><time>2026-05-01T08:15:05.367Z</time></trkpt><trkpt lat="46.56132123333333" lon="11.264050300000001"><ele>1061.0</ele><time>2026-05-01T08:15:06.371Z</time></trkpt><trkpt lat="46.561230099999996" lon="11.263940200000002"><ele>1061.0</ele><time>2026-05-01T08:15:07.354Z</time></trkpt><trkpt lat="46.56115585" lon="11.263814950000002"><ele>1061.0</ele><time>2026-05-01T08:15:08.352Z</time></trkpt><trkpt lat="46.561100016666664" lon="11.263675249999999"><ele>1061.25</ele><time>2026-05-01T08:15:09.352Z</time></trkpt><trkpt lat="46.56105813333334" lon="11.263518249999999"><ele>1061.5</ele><time>2026-05-01T08:15:10.351Z</time></trkpt><trkpt lat="46.56103141666667" lon="11.263332933333333"><ele>1061.75</ele><time>2026-05-01T08:15:11.352Z</time></trkpt><trkpt lat="46.56101736666666" lon="11.263134433333333"><ele>1062.0</ele><time>2026-05-01T08:15:12.371Z</time></trkpt><trkpt lat="46.561015233333336" lon="11.262933466666667"><ele>1061.0</ele><time>2026-05-01T08:15:13.352Z</time></trkpt><trkpt lat="46.561024200000006" lon="11.2627347"><ele>1060.0</ele><time>2026-05-01T08:15:14.351Z</time></trkpt><trkpt lat="46.561040983333335" lon="11.262545450000001"><ele>1059.0</ele><time>2026-05-01T08:15:15.352Z</time></trkpt><trkpt lat="46.56105771666667" lon="11.262357583333335"><ele>1058.0</ele><time>2026-05-01T08:15:16.352Z</time></trkpt><trkpt lat="46.561070633333344" lon="11.262159333333333"><ele>1056.5</ele><time>2026-05-01T08:15:17.352Z</time></trkpt><trkpt lat="46.56107856666666" lon="11.261948216666667"><ele>1055.0</ele><time>2026-05-01T08:15:18.371Z</time></trkpt><trkpt lat="46.561075216666666" lon="11.261735700000001"><ele>1053.5</ele><time>2026-05-01T08:15:19.351Z</time></trkpt><trkpt lat="46.561061900000006" lon="11.261528016666666"><ele>1052.0</ele><time>2026-05-01T08:15:20.371Z</time></trkpt><trkpt lat="46.56104068333334" lon="11.261335283333336"><ele>1050.0</ele><time>2026-05-01T08:15:21.358Z</time></trkpt><trkpt lat="46.561014066666665" lon="11.261151633333334"><ele>1048.0</ele><time>2026-05-01T08:15:22.349Z</time></trkpt><trkpt lat="46.56097718333334" lon="11.260971333333336"><ele>1046.0</ele><time>2026-05-01T08:15:23.351Z</time></trkpt><trkpt lat="46.56092983333333" lon="11.260788849999997"><ele>1044.0</ele><time>2026-05-01T08:15:24.379Z</time></trkpt><trkpt lat="46.560874094613304" lon="11.260587404978018"><ele>1043.0</ele><time>2026-05-01T08:15:25.352Z</time></trkpt><trkpt lat="46.56078909728221" lon="11.260358212761357"><ele>1042.0</ele><time>2026-05-01T08:15:26.351Z</time></trkpt><trkpt lat="46.56067563277847" lon="11.260119987273548"><ele>1041.0</ele><time>2026-05-01T08:15:27.352Z</time></trkpt><trkpt lat="46.56055279410487" lon="11.259891138388552"><ele>1043.6666666666667</ele><time>2026-05-01T08:15:28.372Z</time></trkpt><trkpt lat="46.560423283333336" lon="11.259689150000002"><ele>1046.3333333333335</ele><time>2026-05-01T08:15:29.349Z</time></trkpt><trkpt lat="46.56030428333333" lon="11.259485849999999"><ele>1049.0</ele><time>2026-05-01T08:15:30.374Z</time></trkpt><trkpt lat="46.560201516666666" lon="11.25927525"><ele>1049.0</ele><time>2026-05-01T08:15:31.356Z</time></trkpt><trkpt lat="46.56011101666667" lon="11.259048683333333"><ele>1049.0</ele><time>2026-05-01T08:15:32.351Z</time></trkpt><trkpt lat="46.560023916666665" lon="11.258799633333334"><ele>1049.0</ele><time>2026-05-01T08:15:33.354Z</time></trkpt><trkpt lat="46.5599669" lon="11.258515216666668"><ele>1049.0</ele><time>2026-05-01T08:15:34.354Z</time></trkpt><trkpt lat="46.55994733333334" lon="11.258202149999999"><ele>1049.0</ele><time>2026-05-01T08:15:35.353Z</time></trkpt><trkpt lat="46.55995711666666" lon="11.257856916666666"><ele>1044.0</ele><time>2026-05-01T08:15:36.371Z</time></trkpt><trkpt lat="46.55997885" lon="11.257477616666664"><ele>1039.0</ele><time>2026-05-01T08:15:37.351Z</time></trkpt><trkpt lat="46.560004805330884" lon="11.25707719167024"><ele>1038.5</ele><time>2026-05-01T08:15:38.352Z</time></trkpt><trkpt lat="46.56000035528541" lon="11.256675391649662"><ele>1038.0</ele><time>2026-05-01T08:15:39.373Z</time></trkpt><trkpt lat="46.559962266666666" lon="11.25630195"><ele>1038.0</ele><time>2026-05-01T08:15:40.359Z</time></trkpt><trkpt lat="46.55998317281302" lon="11.255939108663064"><ele>1038.0</ele><time>2026-05-01T08:15:41.353Z</time></trkpt><trkpt lat="46.56000840996112" lon="11.255577949207447"><ele>1037.0</ele><time>2026-05-01T08:15:42.355Z</time></trkpt><trkpt lat="46.56003556815501" lon="11.255215762605047"><ele>1036.0</ele><time>2026-05-01T08:15:43.349Z</time></trkpt><trkpt lat="46.56004691666667" lon="11.254849666666667"><ele>1043.0</ele><time>2026-05-01T08:15:44.349Z</time></trkpt><trkpt lat="46.56008253333333" lon="11.254495783333335"><ele>1050.0</ele><time>2026-05-01T08:15:45.371Z</time></trkpt><trkpt lat="46.56014149999999" lon="11.25416105"><ele>1053.6666666666667</ele><time>2026-05-01T08:15:46.351Z</time></trkpt><trkpt lat="46.56024536187529" lon="11.25386660686515"><ele>1057.3333333333335</ele><time>2026-05-01T08:15:47.359Z</time></trkpt><trkpt lat="46.56034534006537" lon="11.253596726202042"><ele>1061.0</ele><time>2026-05-01T08:15:48.373Z</time></trkpt><trkpt lat="46.56043694342132" lon="11.253347321454463"><ele>1047.3333333333335</ele><time>2026-05-01T08:15:49.355Z</time></trkpt><trkpt lat="46.560517627935454" lon="11.253099474580862"><ele>1033.6666666666667</ele><time>2026-05-01T08:15:50.351Z</time></trkpt><trkpt lat="46.560563842207834" lon="11.25285157771954"><ele>1020.0</ele><time>2026-05-01T08:15:51.352Z</time></trkpt><trkpt lat="46.56055725563" lon="11.252615060642482"><ele>1020.0</ele><time>2026-05-01T08:15:52.351Z</time></trkpt><trkpt lat="46.56049403817785" lon="11.2524133865737"><ele>1020.0</ele><time>2026-05-01T08:15:53.353Z</time></trkpt><trkpt lat="46.56038783740393" lon="11.2522485075484"><ele>1020.0</ele><time>2026-05-01T08:15:54.354Z</time></trkpt><trkpt lat="46.56025022429072" lon="11.25212721084518"><ele>1028.6666666666667</ele><time>2026-05-01T08:15:55.353Z</time></trkpt><trkpt lat="46.560099266666676" lon="11.252026666666666"><ele>1037.3333333333335</ele><time>2026-05-01T08:15:56.353Z</time></trkpt><trkpt lat="46.55997931666668" lon="11.251856449999998"><ele>1046.0</ele><time>2026-05-01T08:15:57.372Z</time></trkpt><trkpt lat="46.559900033333335" lon="11.251656766666668"><ele>1043.0</ele><time>2026-05-01T08:15:58.351Z</time></trkpt><trkpt lat="46.55986556666667" lon="11.251431933333333"><ele>1040.0</ele><time>2026-05-01T08:15:59.351Z</time></trkpt><trkpt lat="46.55987708333334" lon="11.251197066666668"><ele>1037.0</ele><time>2026-05-01T08:16:00.355Z</time></trkpt><trkpt lat="46.559934097421795" lon="11.250981807227376"><ele>1035.6666666666667</ele><time>2026-05-01T08:16:01.351Z</time></trkpt><trkpt lat="46.559956208684916" lon="11.250554202483855"><ele>1034.3333333333333</ele><time>2026-05-01T08:16:03.352Z</time></trkpt><trkpt lat="46.559901075595334" lon="11.250354028151808"><ele>1033.0</ele><time>2026-05-01T08:16:04.35Z</time></trkpt><trkpt lat="46.5597984184111" lon="11.250177459261572"><ele>1033.0</ele><time>2026-05-01T08:16:05.372Z</time></trkpt><trkpt lat="46.55966821258252" lon="11.250018376365668"><ele>1033.0</ele><time>2026-05-01T08:16:06.373Z</time></trkpt><trkpt lat="46.559516683333335" lon="11.249867283333334"><ele>1033.0</ele><time>2026-05-01T08:16:07.35Z</time></trkpt><trkpt lat="46.559387050000005" lon="11.249642266666667"><ele>1034.3333333333333</ele><time>2026-05-01T08:16:08.352Z</time></trkpt><trkpt lat="46.559255699999994" lon="11.249408833333334"><ele>1035.6666666666667</ele><time>2026-05-01T08:16:09.351Z</time></trkpt><trkpt lat="46.55910097082715" lon="11.24922660737275"><ele>1037.0</ele><time>2026-05-01T08:16:10.353Z</time></trkpt><trkpt lat="46.55900284999999" lon="11.248979066666669"><ele>1040.0</ele><time>2026-05-01T08:16:11.355Z</time></trkpt><trkpt lat="46.55887451666668" lon="11.248797533333333"><ele>1043.0</ele><time>2026-05-01T08:16:12.372Z</time></trkpt><trkpt lat="46.5587334" lon="11.248639516666666"><ele>1046.0</ele><time>2026-05-01T08:16:13.351Z</time></trkpt><trkpt lat="46.558568650000005" lon="11.248509016666667"><ele>1046.0</ele><time>2026-05-01T08:16:14.371Z</time></trkpt><trkpt lat="46.55838451666667" lon="11.248410433333333"><ele>1046.0</ele><time>2026-05-01T08:16:15.371Z</time></trkpt><trkpt lat="46.55819743333333" lon="11.248344999999999"><ele>1046.0</ele><time>2026-05-01T08:16:16.349Z</time></trkpt><trkpt lat="46.55802056666666" lon="11.24829735"><ele>1045.6666666666667</ele><time>2026-05-01T08:16:17.351Z</time></trkpt><trkpt lat="46.557859549999996" lon="11.248240433333335"><ele>1045.3333333333333</ele><time>2026-05-01T08:16:18.352Z</time></trkpt><trkpt lat="46.557715983333345" lon="11.248148133333332"><ele>1045.0</ele><time>2026-05-01T08:16:19.367Z</time></trkpt><trkpt lat="46.55760468333333" lon="11.248006933333333"><ele>1040.0</ele><time>2026-05-01T08:16:20.351Z</time></trkpt><trkpt lat="46.5575318" lon="11.247817066666668"><ele>1035.0</ele><time>2026-05-01T08:16:21.352Z</time></trkpt><trkpt lat="46.557492749999994" lon="11.247582849999999"><ele>1030.0</ele><time>2026-05-01T08:16:22.373Z</time></trkpt><trkpt lat="46.557474150000004" lon="11.247317983333335"><ele>1028.0</ele><time>2026-05-01T08:16:23.367Z</time></trkpt><trkpt lat="46.55745866666666" lon="11.247053433333333"><ele>1026.0</ele><time>2026-05-01T08:16:24.372Z</time></trkpt><trkpt lat="46.55743926666667" lon="11.246797599999999"><ele>1024.0</ele><time>2026-05-01T08:16:25.351Z</time></trkpt><trkpt lat="46.55740725000001" lon="11.24655575"><ele>1017.6666666666666</ele><time>2026-05-01T08:16:26.35Z</time></trkpt><trkpt lat="46.557349949999995" lon="11.246334516666666"><ele>1011.3333333333333</ele><time>2026-05-01T08:16:27.352Z</time></trkpt><trkpt lat="46.55725986666666" lon="11.246144299999997"><ele>1005.0</ele><time>2026-05-01T08:16:28.356Z</time></trkpt><trkpt lat="46.557142899999995" lon="11.245993700000001"><ele>1006.0</ele><time>2026-05-01T08:16:29.35Z</time></trkpt><trkpt lat="46.55700448333334" lon="11.245891083333333"><ele>1007.0</ele><time>2026-05-01T08:16:30.372Z</time></trkpt><trkpt lat="46.55684548333333" lon="11.245842249999999"><ele>1008.0</ele><time>2026-05-01T08:16:31.35Z</time></trkpt><trkpt lat="46.556682183333336" lon="11.24585195"><ele>1008.0</ele><time>2026-05-01T08:16:32.364Z</time></trkpt><trkpt lat="46.5565243" lon="11.2459171"><ele>1008.0</ele><time>2026-05-01T08:16:33.373Z</time></trkpt><trkpt lat="46.55637815" lon="11.246043816666667"><ele>1008.0</ele><time>2026-05-01T08:16:34.35Z</time></trkpt><trkpt lat="46.55624635000001" lon="11.246234883333333"><ele>1004.0</ele><time>2026-05-01T08:16:35.351Z</time></trkpt><trkpt lat="46.556118000000005" lon="11.246465333333333"><ele>1000.0</ele><time>2026-05-01T08:16:36.372Z</time></trkpt><trkpt lat="46.55598315" lon="11.246712266666668"><ele>996.0</ele><time>2026-05-01T08:16:37.359Z</time></trkpt><trkpt lat="46.55583705000001" lon="11.24697075"><ele>996.0</ele><time>2026-05-01T08:16:38.35Z</time></trkpt><trkpt lat="46.55568265" lon="11.247249966666667"><ele>996.0</ele><time>2026-05-01T08:16:39.352Z</time></trkpt><trkpt lat="46.55536465" lon="11.247806366666667"><ele>989.5</ele><time>2026-05-01T08:16:41.351Z</time></trkpt><trkpt lat="46.55520883333333" lon="11.248066850000003"><ele>983.0</ele><time>2026-05-01T08:16:42.372Z</time></trkpt><trkpt lat="46.55505936666667" lon="11.24829555"><ele>983.0</ele><time>2026-05-01T08:16:43.374Z</time></trkpt><trkpt lat="46.55491218333333" lon="11.248477633333334"><ele>983.0</ele><time>2026-05-01T08:16:44.351Z</time></trkpt><trkpt lat="46.554753833333336" lon="11.24859885"><ele>983.0</ele><time>2026-05-01T08:16:45.352Z</time></trkpt><trkpt lat="46.5545877" lon="11.248671766666666"><ele>980.3333333333334</ele><time>2026-05-01T08:16:46.352Z</time></trkpt><trkpt lat="46.55442148333333" lon="11.248731416666665"><ele>977.6666666666667</ele><time>2026-05-01T08:16:47.349Z</time></trkpt><trkpt lat="46.55426273333334" lon="11.248821416666665"><ele>975.0</ele><time>2026-05-01T08:16:48.374Z</time></trkpt><trkpt lat="46.55411444999999" lon="11.248959833333334"><ele>975.0</ele><time>2026-05-01T08:16:49.351Z</time></trkpt><trkpt lat="46.55396771666667" lon="11.249134949999998"><ele>975.0</ele><time>2026-05-01T08:16:50.364Z</time></trkpt><trkpt lat="46.553831499999994" lon="11.249354016666665"><ele>975.0</ele><time>2026-05-01T08:16:51.352Z</time></trkpt><trkpt lat="46.55370801666667" lon="11.249599633333332"><ele>967.3333333333333</ele><time>2026-05-01T08:16:52.352Z</time></trkpt><trkpt lat="46.553592349999995" lon="11.2498438"><ele>959.6666666666666</ele><time>2026-05-01T08:16:53.351Z</time></trkpt><trkpt lat="46.553463916666665" lon="11.250065166666666"><ele>952.0</ele><time>2026-05-01T08:16:54.371Z</time></trkpt><trkpt lat="46.55331296666667" lon="11.250243583333335"><ele>952.0</ele><time>2026-05-01T08:16:55.372Z</time></trkpt><trkpt lat="46.553143016666674" lon="11.250358266666668"><ele>952.0</ele><time>2026-05-01T08:16:56.35Z</time></trkpt><trkpt lat="46.55296306666668" lon="11.250419766666667"><ele>952.0</ele><time>2026-05-01T08:16:57.373Z</time></trkpt><trkpt lat="46.5527868" lon="11.250482683333333"><ele>948.3333333333333</ele><time>2026-05-01T08:16:58.351Z</time></trkpt><trkpt lat="46.55261921666667" lon="11.250587166666666"><ele>944.6666666666667</ele><time>2026-05-01T08:16:59.351Z</time></trkpt><trkpt lat="46.552460116666666" lon="11.250746183333334"><ele>941.0</ele><time>2026-05-01T08:17:00.393Z</time></trkpt><trkpt lat="46.55230653333333" lon="11.250952983333333"><ele>941.0</ele><time>2026-05-01T08:17:01.36Z</time></trkpt><trkpt lat="46.55214666666667" lon="11.251182666666665"><ele>941.0</ele><time>2026-05-01T08:17:02.353Z</time></trkpt><trkpt lat="46.55179918333334" lon="11.251666583333334"><ele>931.5</ele><time>2026-05-01T08:17:04.357Z</time></trkpt><trkpt lat="46.551621383333334" lon="11.251897533333333"><ele>922.0</ele><time>2026-05-01T08:17:05.35Z</time></trkpt><trkpt lat="46.551438866666665" lon="11.252099433333335"><ele>922.0</ele><time>2026-05-01T08:17:06.372Z</time></trkpt><trkpt lat="46.55124835" lon="11.252280133333334"><ele>922.0</ele><time>2026-05-01T08:17:07.351Z</time></trkpt><trkpt lat="46.55104693333333" lon="11.252439066666666"><ele>918.0</ele><time>2026-05-01T08:17:08.373Z</time></trkpt><trkpt lat="46.550832650000004" lon="11.252578683333335"><ele>914.0</ele><time>2026-05-01T08:17:09.373Z</time></trkpt><trkpt lat="46.55060728333333" lon="11.252693283333334"><ele>914.0</ele><time>2026-05-01T08:17:10.352Z</time></trkpt><trkpt lat="46.5503773" lon="11.252777499999999"><ele>914.0</ele><time>2026-05-01T08:17:11.351Z</time></trkpt><trkpt lat="46.550156733333345" lon="11.252844249999999"><ele>912.3333333333334</ele><time>2026-05-01T08:17:12.372Z</time></trkpt><trkpt lat="46.549955983333334" lon="11.252905449999998"><ele>910.6666666666667</ele><time>2026-05-01T08:17:13.352Z</time></trkpt><trkpt lat="46.5497664" lon="11.25297555"><ele>909.0</ele><time>2026-05-01T08:17:14.351Z</time></trkpt><trkpt lat="46.549589100000006" lon="11.253075449999999"><ele>902.0</ele><time>2026-05-01T08:17:15.372Z</time></trkpt><trkpt lat="46.54943296666667" lon="11.253217816666664"><ele>895.0</ele><time>2026-05-01T08:17:16.35Z</time></trkpt><trkpt lat="46.54929791666667" lon="11.253404916666668"><ele>888.0</ele><time>2026-05-01T08:17:17.366Z</time></trkpt><trkpt lat="46.5491756" lon="11.253620916666668"><ele>888.0</ele><time>2026-05-01T08:17:18.352Z</time></trkpt><trkpt lat="46.549056366666676" lon="11.253835966666667"><ele>888.0</ele><time>2026-05-01T08:17:19.351Z</time></trkpt><trkpt lat="46.548918617732355" lon="11.254022764406544"><ele>888.0</ele><time>2026-05-01T08:17:20.351Z</time></trkpt><trkpt lat="46.5487876856336" lon="11.25421004901544"><ele>880.6666666666667</ele><time>2026-05-01T08:17:21.372Z</time></trkpt><trkpt lat="46.54865267080869" lon="11.254382792771182"><ele>873.3333333333334</ele><time>2026-05-01T08:17:22.351Z</time></trkpt><trkpt lat="46.548508453964416" lon="11.254546262072259"><ele>866.0</ele><time>2026-05-01T08:17:23.359Z</time></trkpt><trkpt lat="46.54836358983209" lon="11.254698463106932"><ele>873.6666666666667</ele><time>2026-05-01T08:17:24.372Z</time></trkpt><trkpt lat="46.548232683333325" lon="11.254873833333333"><ele>881.3333333333333</ele><time>2026-05-01T08:17:25.351Z</time></trkpt><trkpt lat="46.548084349999996" lon="11.254998266666666"><ele>889.0</ele><time>2026-05-01T08:17:26.365Z</time></trkpt><trkpt lat="46.5479478" lon="11.255105016666667"><ele>879.5</ele><time>2026-05-01T08:17:27.372Z</time></trkpt><trkpt lat="46.54782081666667" lon="11.255202200000001"><ele>870.0</ele><time>2026-05-01T08:17:28.352Z</time></trkpt><trkpt lat="46.54770271666666" lon="11.255311333333335"><ele>860.5</ele><time>2026-05-01T08:17:29.349Z</time></trkpt><trkpt lat="46.547598550000004" lon="11.255447416666668"><ele>851.0</ele><time>2026-05-01T08:17:30.375Z</time></trkpt><trkpt lat="46.54751506666667" lon="11.255608800000001"><ele>854.0</ele><time>2026-05-01T08:17:31.356Z</time></trkpt><trkpt lat="46.54745273333333" lon="11.255786883333332"><ele>857.0</ele><time>2026-05-01T08:17:32.353Z</time></trkpt><trkpt lat="46.54740163333332" lon="11.255983383333334"><ele>860.0</ele><time>2026-05-01T08:17:33.355Z</time></trkpt><trkpt lat="46.54736043333334" lon="11.256204266666668"><ele>863.0</ele><time>2026-05-01T08:17:34.355Z</time></trkpt><trkpt lat="46.547337133333336" lon="11.256437566666666"><ele>865.6666666666667</ele><time>2026-05-01T08:17:35.367Z</time></trkpt><trkpt lat="46.547328900000004" lon="11.2566717"><ele>868.3333333333333</ele><time>2026-05-01T08:17:36.383Z</time></trkpt><trkpt lat="46.54733181666667" lon="11.256897900000002"><ele>871.0</ele><time>2026-05-01T08:17:37.349Z</time></trkpt><trkpt lat="46.5473422" lon="11.257104016666666"><ele>872.0</ele><time>2026-05-01T08:17:38.349Z</time></trkpt><trkpt lat="46.54734791666666" lon="11.25730025"><ele>873.0</ele><time>2026-05-01T08:17:39.372Z</time></trkpt><trkpt lat="46.547333983333324" lon="11.257484616666668"><ele>874.0</ele><time>2026-05-01T08:17:40.351Z</time></trkpt><trkpt lat="46.547299249999995" lon="11.257658683333332"><ele>875.0</ele><time>2026-05-01T08:17:41.355Z</time></trkpt><trkpt lat="46.54724093333333" lon="11.257812899999998"><ele>875.0</ele><time>2026-05-01T08:17:42.372Z</time></trkpt><trkpt lat="46.54716211666667" lon="11.257939783333331"><ele>875.0</ele><time>2026-05-01T08:17:43.352Z</time></trkpt><trkpt lat="46.547079200000006" lon="11.258060283333336"><ele>875.0</ele><time>2026-05-01T08:17:44.356Z</time></trkpt><trkpt lat="46.54700101666668" lon="11.258191666666669"><ele>875.0</ele><time>2026-05-01T08:17:45.372Z</time></trkpt><trkpt lat="46.546908896503" lon="11.258297072337061"><ele>867.0000000000001</ele><time>2026-05-01T08:17:46.35Z</time></trkpt><trkpt lat="46.546841092130585" lon="11.258416188238305"><ele>859.0</ele><time>2026-05-01T08:17:47.351Z</time></trkpt><trkpt lat="46.546780393434155" lon="11.258530082299233"><ele>851.0</ele><time>2026-05-01T08:17:48.374Z</time></trkpt><trkpt lat="46.546724243413124" lon="11.258622991513844"><ele>843.0</ele><time>2026-05-01T08:17:49.351Z</time></trkpt><trkpt lat="46.546663083333335" lon="11.258693183333332"><ele>835.0000000000001</ele><time>2026-05-01T08:17:50.352Z</time></trkpt><trkpt lat="46.5465955" lon="11.258668566666666"><ele>827.0</ele><time>2026-05-01T08:17:51.372Z</time></trkpt><trkpt lat="46.546550866666664" lon="11.258597349999999"><ele>827.0</ele><time>2026-05-01T08:17:52.35Z</time></trkpt><trkpt lat="46.54657266666666" lon="11.258422150000001"><ele>827.0</ele><time>2026-05-01T08:17:54.372Z</time></trkpt><trkpt lat="46.54662969999999" lon="11.258344700000002"><ele>827.0</ele><time>2026-05-01T08:17:55.368Z</time></trkpt><trkpt lat="46.54670168333334" lon="11.2582749"><ele>827.0</ele><time>2026-05-01T08:17:56.351Z</time></trkpt><trkpt lat="46.54678121666667" lon="11.258195433333333"><ele>827.0</ele><time>2026-05-01T08:17:57.352Z</time></trkpt><trkpt lat="46.546862533333325" lon="11.258093833333332"><ele>824.75</ele><time>2026-05-01T08:17:58.351Z</time></trkpt><trkpt lat="46.54693318333334" lon="11.257971683333336"><ele>822.5</ele><time>2026-05-01T08:17:59.351Z</time></trkpt><trkpt lat="46.54699158333332" lon="11.257831333333334"><ele>820.25</ele><time>2026-05-01T08:18:00.376Z</time></trkpt><trkpt lat="46.5470305" lon="11.2576702"><ele>818.0</ele><time>2026-05-01T08:18:01.35Z</time></trkpt><trkpt lat="46.54704221666666" lon="11.257475833333334"><ele>812.0</ele><time>2026-05-01T08:18:02.35Z</time></trkpt><trkpt lat="46.54704985359455" lon="11.257237095752366"><ele>806.0</ele><time>2026-05-01T08:18:03.371Z</time></trkpt><trkpt lat="46.54700176653181" lon="11.256635343530611"><ele>805.0</ele><time>2026-05-01T08:18:05.352Z</time></trkpt><trkpt lat="46.54698107488049" lon="11.256308316795577"><ele>804.0</ele><time>2026-05-01T08:18:06.372Z</time></trkpt><trkpt lat="46.54696402423444" lon="11.255993544436487"><ele>803.0</ele><time>2026-05-01T08:18:07.354Z</time></trkpt><trkpt lat="46.54693732010857" lon="11.255692752505936"><ele>803.3333333333334</ele><time>2026-05-01T08:18:08.351Z</time></trkpt><trkpt lat="46.5468817240254" lon="11.255421712758626"><ele>803.6666666666667</ele><time>2026-05-01T08:18:09.373Z</time></trkpt><trkpt lat="46.54681201666667" lon="11.255186933333334"><ele>804.0</ele><time>2026-05-01T08:18:10.351Z</time></trkpt><trkpt lat="46.546787166666675" lon="11.254952266666665"><ele>800.25</ele><time>2026-05-01T08:18:11.35Z</time></trkpt><trkpt lat="46.54680668333334" lon="11.254735433333334"><ele>796.5</ele><time>2026-05-01T08:18:12.372Z</time></trkpt><trkpt lat="46.546871333333335" lon="11.254548283333333"><ele>792.75</ele><time>2026-05-01T08:18:13.371Z</time></trkpt><trkpt lat="46.54697756666666" lon="11.254389933333334"><ele>789.0</ele><time>2026-05-01T08:18:14.351Z</time></trkpt><trkpt lat="46.54711971666667" lon="11.254253283333332"><ele>788.6666666666667</ele><time>2026-05-01T08:18:15.373Z</time></trkpt><trkpt lat="46.54726963333333" lon="11.254101466666668"><ele>788.3333333333334</ele><time>2026-05-01T08:18:16.351Z</time></trkpt><trkpt lat="46.54739134999999" lon="11.253908233333334"><ele>788.0</ele><time>2026-05-01T08:18:17.357Z</time></trkpt><trkpt lat="46.547485099999996" lon="11.253690950000003"><ele>788.0</ele><time>2026-05-01T08:18:18.373Z</time></trkpt><trkpt lat="46.54757366666666" lon="11.253476483333335"><ele>788.0</ele><time>2026-05-01T08:18:19.351Z</time></trkpt><trkpt lat="46.54767969999999" lon="11.253280616666666"><ele>788.0</ele><time>2026-05-01T08:18:20.35Z</time></trkpt><trkpt lat="46.54780563333334" lon="11.253128783333333"><ele>792.5</ele><time>2026-05-01T08:18:21.372Z</time></trkpt><trkpt lat="46.54794406666666" lon="11.253015216666665"><ele>797.0</ele><time>2026-05-01T08:18:22.373Z</time></trkpt><trkpt lat="46.54807935" lon="11.252918499999998"><ele>801.5</ele><time>2026-05-01T08:18:23.351Z</time></trkpt><trkpt lat="46.54819479999999" lon="11.252840233333332"><ele>806.0</ele><time>2026-05-01T08:18:24.352Z</time></trkpt><trkpt lat="46.54826905" lon="11.252745699999998"><ele>806.0</ele><time>2026-05-01T08:18:25.351Z</time></trkpt><trkpt lat="46.54829003333332" lon="11.252629349999998"><ele>806.0</ele><time>2026-05-01T08:18:26.351Z</time></trkpt><trkpt lat="46.54829079636677" lon="11.252509769395393"><ele>806.0</ele><time>2026-05-01T08:18:27.353Z</time></trkpt><trkpt lat="46.54822479690932" lon="11.25236688127439"><ele>806.0</ele><time>2026-05-01T08:18:28.352Z</time></trkpt><trkpt lat="46.54808692856994" lon="11.252344124049886"><ele>806.0</ele><time>2026-05-01T08:18:29.351Z</time></trkpt><trkpt lat="46.54797070419601" lon="11.252478229212482"><ele>806.0</ele><time>2026-05-01T08:18:30.375Z</time></trkpt><trkpt lat="46.547892512339935" lon="11.252614014872131"><ele>806.0</ele><time>2026-05-01T08:18:31.366Z</time></trkpt><trkpt lat="46.54780147968523" lon="11.252736360514247"><ele>806.0</ele><time>2026-05-01T08:18:32.352Z</time></trkpt><trkpt lat="46.54766594928167" lon="11.252881404490381"><ele>806.0</ele><time>2026-05-01T08:18:33.353Z</time></trkpt><trkpt lat="46.54750687319316" lon="11.253050008802292"><ele>800.0</ele><time>2026-05-01T08:18:34.367Z</time></trkpt><trkpt lat="46.54733562241077" lon="11.253233575330432"><ele>794.0</ele><time>2026-05-01T08:18:35.351Z</time></trkpt><trkpt lat="46.5471683255508" lon="11.253417928567044"><ele>788.0</ele><time>2026-05-01T08:18:36.381Z</time></trkpt><trkpt lat="46.54699610912112" lon="11.253562179625138"><ele>778.0</ele><time>2026-05-01T08:18:37.35Z</time></trkpt><trkpt lat="46.54681076397303" lon="11.253635424285518"><ele>768.0</ele><time>2026-05-01T08:18:38.349Z</time></trkpt><trkpt lat="46.54661800727762" lon="11.253664659358925"><ele>758.0</ele><time>2026-05-01T08:18:39.376Z</time></trkpt><trkpt lat="46.54642690817383" lon="11.253717705978103"><ele>758.0</ele><time>2026-05-01T08:18:40.364Z</time></trkpt><trkpt lat="46.546263242634495" lon="11.253827341385879"><ele>758.0</ele><time>2026-05-01T08:18:41.352Z</time></trkpt><trkpt lat="46.5461325860377" lon="11.253981912474913"><ele>758.0</ele><time>2026-05-01T08:18:42.372Z</time></trkpt><trkpt lat="46.546028153760695" lon="11.254176565588493"><ele>757.3333333333333</ele><time>2026-05-01T08:18:43.352Z</time></trkpt><trkpt lat="46.5459551613227" lon="11.254410013559056"><ele>756.6666666666666</ele><time>2026-05-01T08:18:44.35Z</time></trkpt><trkpt lat="46.54590618544689" lon="11.254676957160521"><ele>756.0</ele><time>2026-05-01T08:18:45.355Z</time></trkpt><trkpt lat="46.54587168219963" lon="11.254975484608094"><ele>755.6666666666666</ele><time>2026-05-01T08:18:46.351Z</time></trkpt><trkpt lat="46.545849225110054" lon="11.255291129643078"><ele>755.3333333333333</ele><time>2026-05-01T08:18:47.352Z</time></trkpt><trkpt lat="46.54584036348763" lon="11.255605149994691"><ele>755.0</ele><time>2026-05-01T08:18:48.371Z</time></trkpt><trkpt lat="46.54584757353819" lon="11.255905165816854"><ele>754.3333333333333</ele><time>2026-05-01T08:18:49.351Z</time></trkpt><trkpt lat="46.54585847551805" lon="11.2561959055434"><ele>753.6666666666666</ele><time>2026-05-01T08:18:50.35Z</time></trkpt><trkpt lat="46.54585608538663" lon="11.256477350332421"><ele>753.0</ele><time>2026-05-01T08:18:51.372Z</time></trkpt><trkpt lat="46.54583137529035" lon="11.25674450494794"><ele>752.3333333333334</ele><time>2026-05-01T08:18:52.352Z</time></trkpt><trkpt lat="46.54578631225271" lon="11.256997093073922"><ele>751.6666666666667</ele><time>2026-05-01T08:18:53.357Z</time></trkpt><trkpt lat="46.54572409501087" lon="11.257230059075107"><ele>751.0</ele><time>2026-05-01T08:18:54.354Z</time></trkpt><trkpt lat="46.545648968194676" lon="11.257446951091806"><ele>751.0</ele><time>2026-05-01T08:18:55.351Z</time></trkpt><trkpt lat="46.54556489678556" lon="11.257638442900586"><ele>751.0</ele><time>2026-05-01T08:18:56.351Z</time></trkpt><trkpt lat="46.545476888855276" lon="11.257801568879612"><ele>751.0</ele><time>2026-05-01T08:18:57.353Z</time></trkpt><trkpt lat="46.54540095805327" lon="11.257946577748669"><ele>751.0</ele><time>2026-05-01T08:18:58.352Z</time></trkpt><trkpt lat="46.54533814906208" lon="11.258063159353895"><ele>746.1666666666667</ele><time>2026-05-01T08:18:59.36Z</time></trkpt><trkpt lat="46.545284491721574" lon="11.258132480155416"><ele>741.3333333333334</ele><time>2026-05-01T08:19:00.376Z</time></trkpt><trkpt lat="46.54522365" lon="11.258166133333335"><ele>736.5</ele><time>2026-05-01T08:19:01.354Z</time></trkpt><trkpt lat="46.545171550000006" lon="11.258097116666665"><ele>731.6666666666666</ele><time>2026-05-01T08:19:02.352Z</time></trkpt><trkpt lat="46.54515896666666" lon="11.25798715"><ele>726.8333333333333</ele><time>2026-05-01T08:19:03.351Z</time></trkpt><trkpt lat="46.54519560000001" lon="11.257864033333334"><ele>722.0</ele><time>2026-05-01T08:19:04.35Z</time></trkpt><trkpt lat="46.545339549999994" lon="11.257590816666667"><ele>719.3333333333333</ele><time>2026-05-01T08:19:06.371Z</time></trkpt><trkpt lat="46.545374333333335" lon="11.257397883333333"><ele>716.6666666666666</ele><time>2026-05-01T08:19:07.355Z</time></trkpt><trkpt lat="46.54536425" lon="11.257179433333333"><ele>714.0</ele><time>2026-05-01T08:19:08.354Z</time></trkpt><trkpt lat="46.54532163333334" lon="11.256936366666665"><ele>714.0</ele><time>2026-05-01T08:19:09.374Z</time></trkpt><trkpt lat="46.545270550000005" lon="11.256670699999999"><ele>714.0</ele><time>2026-05-01T08:19:10.351Z</time></trkpt><trkpt lat="46.54521865" lon="11.256396383333334"><ele>714.0</ele><time>2026-05-01T08:19:11.369Z</time></trkpt><trkpt lat="46.5451688" lon="11.256125566666665"><ele>713.6666666666666</ele><time>2026-05-01T08:19:12.353Z</time></trkpt><trkpt lat="46.54512419999999" lon="11.255864333333333"><ele>713.3333333333333</ele><time>2026-05-01T08:19:13.352Z</time></trkpt><trkpt lat="46.54508552050645" lon="11.255610141410509"><ele>713.0</ele><time>2026-05-01T08:19:14.353Z</time></trkpt><trkpt lat="46.545015071944135" lon="11.255377745567609"><ele>715.3333333333333</ele><time>2026-05-01T08:19:15.372Z</time></trkpt><trkpt lat="46.5449172180167" lon="11.255177082552729"><ele>717.6666666666666</ele><time>2026-05-01T08:19:16.352Z</time></trkpt><trkpt lat="46.544804320288485" lon="11.255010675793661"><ele>720.0</ele><time>2026-05-01T08:19:17.37Z</time></trkpt><trkpt lat="46.54469259092529" lon="11.25485529988796"><ele>719.75</ele><time>2026-05-01T08:19:18.375Z</time></trkpt><trkpt lat="46.544596047307955" lon="11.254695629070394"><ele>719.5</ele><time>2026-05-01T08:19:19.351Z</time></trkpt><trkpt lat="46.54453490320405" lon="11.254517706162956"><ele>719.25</ele><time>2026-05-01T08:19:20.351Z</time></trkpt><trkpt lat="46.54449196666666" lon="11.254329199999999"><ele>719.0</ele><time>2026-05-01T08:19:21.353Z</time></trkpt><trkpt lat="46.54450298333333" lon="11.254130366666669"><ele>713.5</ele><time>2026-05-01T08:19:22.352Z</time></trkpt><trkpt lat="46.544544483333326" lon="11.2539472"><ele>708.0</ele><time>2026-05-01T08:19:23.352Z</time></trkpt><trkpt lat="46.54461811666666" lon="11.25378685"><ele>702.5</ele><time>2026-05-01T08:19:24.372Z</time></trkpt><trkpt lat="46.54471036666667" lon="11.253656966666664"><ele>697.0</ele><time>2026-05-01T08:19:25.352Z</time></trkpt><trkpt lat="46.544804649999996" lon="11.253553083333333"><ele>697.0</ele><time>2026-05-01T08:19:26.37Z</time></trkpt><trkpt lat="46.54486973333334" lon="11.253447066666668"><ele>697.0</ele><time>2026-05-01T08:19:27.374Z</time></trkpt><trkpt lat="46.5448757" lon="11.253327533333334"><ele>697.0</ele><time>2026-05-01T08:19:28.353Z</time></trkpt><trkpt lat="46.54483387970203" lon="11.253202754418956"><ele>697.0</ele><time>2026-05-01T08:19:29.354Z</time></trkpt><trkpt lat="46.54473406017378" lon="11.25316886542415"><ele>697.0</ele><time>2026-05-01T08:19:30.353Z</time></trkpt><trkpt lat="46.54464124281223" lon="11.253243631370092"><ele>697.0</ele><time>2026-05-01T08:19:31.368Z</time></trkpt><trkpt lat="46.54458163333334" lon="11.253385766666668"><ele>697.0</ele><time>2026-05-01T08:19:32.352Z</time></trkpt><trkpt lat="46.54449575" lon="11.25352795"><ele>697.0</ele><time>2026-05-01T08:19:33.372Z</time></trkpt><trkpt lat="46.5443885" lon="11.253676399999998"><ele>697.0</ele><time>2026-05-01T08:19:34.374Z</time></trkpt><trkpt lat="46.54425751666666" lon="11.253831849999997"><ele>691.6666666666667</ele><time>2026-05-01T08:19:35.368Z</time></trkpt><trkpt lat="46.5441139448215" lon="11.253982289466764"><ele>686.3333333333334</ele><time>2026-05-01T08:19:36.372Z</time></trkpt><trkpt lat="46.544016483333344" lon="11.254200449999999"><ele>681.0</ele><time>2026-05-01T08:19:37.352Z</time></trkpt><trkpt lat="46.54393305" lon="11.254437483333334"><ele>681.0</ele><time>2026-05-01T08:19:38.352Z</time></trkpt><trkpt lat="46.54387263333333" lon="11.254689233333332"><ele>681.0</ele><time>2026-05-01T08:19:39.351Z</time></trkpt><trkpt lat="46.543814966666666" lon="11.254929499999998"><ele>681.0</ele><time>2026-05-01T08:19:40.357Z</time></trkpt><trkpt lat="46.543754050000004" lon="11.255157016666665"><ele>672.3333333333334</ele><time>2026-05-01T08:19:41.363Z</time></trkpt><trkpt lat="46.543691949999996" lon="11.255370966666666"><ele>663.6666666666667</ele><time>2026-05-01T08:19:42.372Z</time></trkpt><trkpt lat="46.543639633333335" lon="11.255577333333333"><ele>655.0</ele><time>2026-05-01T08:19:43.351Z</time></trkpt><trkpt lat="46.543618116666664" lon="11.25577765"><ele>655.0</ele><time>2026-05-01T08:19:44.372Z</time></trkpt><trkpt lat="46.54363208333333" lon="11.255969149999999"><ele>655.0</ele><time>2026-05-01T08:19:45.353Z</time></trkpt><trkpt lat="46.54365288333334" lon="11.256145266666664"><ele>655.0</ele><time>2026-05-01T08:19:46.35Z</time></trkpt><trkpt lat="46.5436424" lon="11.256301116666668"><ele>655.0</ele><time>2026-05-01T08:19:47.35Z</time></trkpt><trkpt lat="46.54359209999999" lon="11.25642515"><ele>656.75</ele><time>2026-05-01T08:19:48.375Z</time></trkpt><trkpt lat="46.543502797172174" lon="11.25649538146677"><ele>658.5</ele><time>2026-05-01T08:19:49.354Z</time></trkpt><trkpt lat="46.543412575307656" lon="11.25659069623481"><ele>660.25</ele><time>2026-05-01T08:19:50.352Z</time></trkpt><trkpt lat="46.54330992742592" lon="11.256704304866169"><ele>662.0</ele><time>2026-05-01T08:19:51.373Z</time></trkpt><trkpt lat="46.54321001879028" lon="11.256844619337576"><ele>662.0</ele><time>2026-05-01T08:19:52.352Z</time></trkpt><trkpt lat="46.54314841666666" lon="11.257023233333332"><ele>662.0</ele><time>2026-05-01T08:19:53.352Z</time></trkpt><trkpt lat="46.543114683333336" lon="11.257202383333333"><ele>662.0</ele><time>2026-05-01T08:19:54.373Z</time></trkpt><trkpt lat="46.54312848333334" lon="11.257376849999998"><ele>662.0</ele><time>2026-05-01T08:19:55.354Z</time></trkpt><trkpt lat="46.54316019296722" lon="11.257575050993688"><ele>661.6666666666666</ele><time>2026-05-01T08:19:56.354Z</time></trkpt><trkpt lat="46.5432223057853" lon="11.25780479359125"><ele>661.3333333333334</ele><time>2026-05-01T08:19:57.353Z</time></trkpt><trkpt lat="46.54328684952463" lon="11.258055659731527"><ele>661.0</ele><time>2026-05-01T08:19:58.368Z</time></trkpt><trkpt lat="46.54334164050006" lon="11.258319250299902"><ele>657.6666666666667</ele><time>2026-05-01T08:19:59.352Z</time></trkpt><trkpt lat="46.54338193366623" lon="11.258581450086707"><ele>654.3333333333334</ele><time>2026-05-01T08:20:00.373Z</time></trkpt><trkpt lat="46.54339979868888" lon="11.258838280101703"><ele>651.0</ele><time>2026-05-01T08:20:01.352Z</time></trkpt><trkpt lat="46.54340455928279" lon="11.259092033333332"><ele>646.6666666666666</ele><time>2026-05-01T08:20:02.365Z</time></trkpt><trkpt lat="46.54340230463069" lon="11.259338980451"><ele>642.3333333333333</ele><time>2026-05-01T08:20:03.353Z</time></trkpt><trkpt lat="46.54340102654274" lon="11.259579596710033"><ele>638.0</ele><time>2026-05-01T08:20:04.352Z</time></trkpt><trkpt lat="46.5434119263965" lon="11.259813393146727"><ele>635.75</ele><time>2026-05-01T08:20:05.352Z</time></trkpt><trkpt lat="46.54344086405009" lon="11.260031443151245"><ele>633.5</ele><time>2026-05-01T08:20:06.372Z</time></trkpt><trkpt lat="46.543471238831465" lon="11.26023629682944"><ele>631.25</ele><time>2026-05-01T08:20:07.352Z</time></trkpt><trkpt lat="46.54349591666668" lon="11.260425783333336"><ele>629.0</ele><time>2026-05-01T08:20:08.35Z</time></trkpt><trkpt lat="46.543457599999996" lon="11.260599666666668"><ele>629.0</ele><time>2026-05-01T08:20:09.361Z</time></trkpt><trkpt lat="46.543379783333336" lon="11.260749966666667"><ele>629.0</ele><time>2026-05-01T08:20:10.352Z</time></trkpt><trkpt lat="46.54326538333333" lon="11.260868883333334"><ele>629.0</ele><time>2026-05-01T08:20:11.35Z</time></trkpt><trkpt lat="46.54312581666666" lon="11.260943650000002"><ele>629.0</ele><time>2026-05-01T08:20:12.393Z</time></trkpt><trkpt lat="46.542976530487024" lon="11.260954501998453"><ele>614.6666666666666</ele><time>2026-05-01T08:20:13.352Z</time></trkpt><trkpt lat="46.542828960247476" lon="11.261001918096122"><ele>600.3333333333334</ele><time>2026-05-01T08:20:14.352Z</time></trkpt><trkpt lat="46.542691594729384" lon="11.261121859206"><ele>586.0</ele><time>2026-05-01T08:20:15.373Z</time></trkpt><trkpt lat="46.54259118370097" lon="11.261316575470223"><ele>593.0</ele><time>2026-05-01T08:20:16.374Z</time></trkpt><trkpt lat="46.54254148005416" lon="11.26154425186287"><ele>600.0</ele><time>2026-05-01T08:20:17.352Z</time></trkpt><trkpt lat="46.54253356087252" lon="11.261798907149126"><ele>607.0</ele><time>2026-05-01T08:20:18.376Z</time></trkpt><trkpt lat="46.54253057061557" lon="11.262058698478299"><ele>605.3333333333334</ele><time>2026-05-01T08:20:19.357Z</time></trkpt><trkpt lat="46.54252088586122" lon="11.262328498517304"><ele>603.6666666666666</ele><time>2026-05-01T08:20:20.365Z</time></trkpt><trkpt lat="46.54250246666667" lon="11.262609549999997"><ele>602.0</ele><time>2026-05-01T08:20:21.373Z</time></trkpt><trkpt lat="46.54245331666666" lon="11.262878533333332"><ele>601.6666666666666</ele><time>2026-05-01T08:20:22.355Z</time></trkpt><trkpt lat="46.542411983333345" lon="11.263136216666664"><ele>601.3333333333334</ele><time>2026-05-01T08:20:23.354Z</time></trkpt><trkpt lat="46.54238713333334" lon="11.263382066666669"><ele>601.0</ele><time>2026-05-01T08:20:24.373Z</time></trkpt><trkpt lat="46.542379716666666" lon="11.263610333333334"><ele>601.0</ele><time>2026-05-01T08:20:25.35Z</time></trkpt><trkpt lat="46.5423798" lon="11.263819849999999"><ele>601.0</ele><time>2026-05-01T08:20:26.351Z</time></trkpt><trkpt lat="46.542367966666674" lon="11.264009949999998"><ele>601.0</ele><time>2026-05-01T08:20:27.372Z</time></trkpt><trkpt lat="46.542322433333325" lon="11.264173133333333"><ele>601.0</ele><time>2026-05-01T08:20:28.353Z</time></trkpt><trkpt lat="46.542218496831524" lon="11.264247241983718"><ele>599.5</ele><time>2026-05-01T08:20:29.355Z</time></trkpt><trkpt lat="46.542119533333334" lon="11.264289881359453"><ele>598.0</ele><time>2026-05-01T08:20:30.354Z</time></trkpt><trkpt lat="46.542008067036335" lon="11.264276023680845"><ele>596.5</ele><time>2026-05-01T08:20:31.352Z</time></trkpt><trkpt lat="46.541905854467224" lon="11.264199803647982"><ele>595.0</ele><time>2026-05-01T08:20:32.352Z</time></trkpt><trkpt lat="46.54181321746331" lon="11.264059652583606"><ele>589.6666666666667</ele><time>2026-05-01T08:20:33.373Z</time></trkpt><trkpt lat="46.54171701805324" lon="11.263884513196562"><ele>584.3333333333334</ele><time>2026-05-01T08:20:34.354Z</time></trkpt><trkpt lat="46.54159670166864" lon="11.263699207256227"><ele>579.0</ele><time>2026-05-01T08:20:35.361Z</time></trkpt><trkpt lat="46.54145897094841" lon="11.263509959229536"><ele>579.0</ele><time>2026-05-01T08:20:36.373Z</time></trkpt><trkpt lat="46.54131765028993" lon="11.263331779538227"><ele>579.0</ele><time>2026-05-01T08:20:37.352Z</time></trkpt><trkpt lat="46.54116622230048" lon="11.263163255552607"><ele>579.0</ele><time>2026-05-01T08:20:38.357Z</time></trkpt><trkpt lat="46.541016414431645" lon="11.263008813814702"><ele>570.3333333333334</ele><time>2026-05-01T08:20:39.353Z</time></trkpt><trkpt lat="46.54085374827928" lon="11.262854420858819"><ele>561.6666666666667</ele><time>2026-05-01T08:20:40.351Z</time></trkpt><trkpt lat="46.54066621329742" lon="11.262705061035406"><ele>553.0</ele><time>2026-05-01T08:20:41.351Z</time></trkpt><trkpt lat="46.54045368115918" lon="11.262569618703788"><ele>561.5</ele><time>2026-05-01T08:20:42.374Z</time></trkpt><trkpt lat="46.54021813139473" lon="11.262470956403568"><ele>570.0</ele><time>2026-05-01T08:20:43.363Z</time></trkpt><trkpt lat="46.53998217221322" lon="11.262400180837318"><ele>570.0</ele><time>2026-05-01T08:20:44.354Z</time></trkpt><trkpt lat="46.53975526740528" lon="11.262332902949842"><ele>570.0</ele><time>2026-05-01T08:20:45.372Z</time></trkpt><trkpt lat="46.53954443005909" lon="11.262261727807964"><ele>570.0</ele><time>2026-05-01T08:20:46.351Z</time></trkpt><trkpt lat="46.539353233993154" lon="11.262153930447095"><ele>561.3333333333334</ele><time>2026-05-01T08:20:47.35Z</time></trkpt><trkpt lat="46.53918122440573" lon="11.262000773841146"><ele>552.6666666666667</ele><time>2026-05-01T08:20:48.353Z</time></trkpt><trkpt lat="46.539023829533186" lon="11.261826827294675"><ele>544.0</ele><time>2026-05-01T08:20:49.353Z</time></trkpt><trkpt lat="46.53886759143713" lon="11.26165804016698"><ele>546.6666666666667</ele><time>2026-05-01T08:20:50.353Z</time></trkpt><trkpt lat="46.53870432291675" lon="11.26152996009137"><ele>549.3333333333334</ele><time>2026-05-01T08:20:51.373Z</time></trkpt><trkpt lat="46.53852167543061" lon="11.26146317777295"><ele>552.0</ele><time>2026-05-01T08:20:52.352Z</time></trkpt><trkpt lat="46.53833064340669" lon="11.261457292730942"><ele>552.0</ele><time>2026-05-01T08:20:53.356Z</time></trkpt><trkpt lat="46.53813321074721" lon="11.261473467101128"><ele>552.0</ele><time>2026-05-01T08:20:54.373Z</time></trkpt><trkpt lat="46.537923705139654" lon="11.26147413246191"><ele>552.0</ele><time>2026-05-01T08:20:55.354Z</time></trkpt><trkpt lat="46.537714080487035" lon="11.261465256295576"><ele>536.6666666666666</ele><time>2026-05-01T08:20:56.365Z</time></trkpt><trkpt lat="46.53751195910419" lon="11.261441454516426"><ele>521.3333333333333</ele><time>2026-05-01T08:20:57.373Z</time></trkpt><trkpt lat="46.537320495538125" lon="11.261406517699632"><ele>506.0</ele><time>2026-05-01T08:20:58.353Z</time></trkpt><trkpt lat="46.53713259576015" lon="11.261353377380514"><ele>505.3333333333333</ele><time>2026-05-01T08:20:59.353Z</time></trkpt><trkpt lat="46.5369472220067" lon="11.261290846156395"><ele>504.66666666666663</ele><time>2026-05-01T08:21:00.373Z</time></trkpt><trkpt lat="46.53675995292932" lon="11.261249408403565"><ele>504.0</ele><time>2026-05-01T08:21:01.356Z</time></trkpt><trkpt lat="46.536425433333335" lon="11.261480516666666"><ele>508.0</ele><time>2026-05-01T08:21:03.372Z</time></trkpt><trkpt lat="46.53627683333334" lon="11.261601183333335"><ele>512.0</ele><time>2026-05-01T08:21:04.35Z</time></trkpt><trkpt lat="46.53612926666666" lon="11.26174055"><ele>516.0</ele><time>2026-05-01T08:21:05.352Z</time></trkpt><trkpt lat="46.535976250000004" lon="11.2618338"><ele>516.0</ele><time>2026-05-01T08:21:06.372Z</time></trkpt><trkpt lat="46.535825466666665" lon="11.261859983333332"><ele>516.0</ele><time>2026-05-01T08:21:07.367Z</time></trkpt><trkpt lat="46.53568681666667" lon="11.261846566666668"><ele>516.0</ele><time>2026-05-01T08:21:08.373Z</time></trkpt><trkpt lat="46.535565399999996" lon="11.261837133333332"><ele>516.0</ele><time>2026-05-01T08:21:09.353Z</time></trkpt><trkpt lat="46.53546686666667" lon="11.261824433333333"><ele>516.0</ele><time>2026-05-01T08:21:10.356Z</time></trkpt><trkpt lat="46.53538295" lon="11.261786716666666"><ele>516.0</ele><time>2026-05-01T08:21:11.352Z</time></trkpt><trkpt lat="46.53534689999999" lon="11.261705749999999"><ele>516.0</ele><time>2026-05-01T08:21:12.373Z</time></trkpt><trkpt lat="46.53529749298473" lon="11.261596495877557"><ele>516.0</ele><time>2026-05-01T08:21:13.355Z</time></trkpt><trkpt lat="46.535321545147724" lon="11.261406807300773"><ele>516.0</ele><time>2026-05-01T08:21:14.357Z</time></trkpt><trkpt lat="46.53546262606619" lon="11.261469630157745"><ele>516.0</ele><time>2026-05-01T08:21:15.374Z</time></trkpt><trkpt lat="46.53552265969598" lon="11.261539620231492"><ele>516.0</ele><time>2026-05-01T08:21:16.358Z</time></trkpt><trkpt lat="46.535595657553564" lon="11.261612039919545"><ele>516.0</ele><time>2026-05-01T08:21:17.353Z</time></trkpt><trkpt lat="46.53569751940435" lon="11.261658576378556"><ele>516.0</ele><time>2026-05-01T08:21:18.375Z</time></trkpt><trkpt lat="46.535803351153135" lon="11.261660006438099"><ele>516.0</ele><time>2026-05-01T08:21:19.352Z</time></trkpt><trkpt lat="46.53591228663464" lon="11.261623908903283"><ele>516.0</ele><time>2026-05-01T08:21:20.353Z</time></trkpt><trkpt lat="46.53601524312306" lon="11.261534797725611"><ele>516.0</ele><time>2026-05-01T08:21:21.354Z</time></trkpt><trkpt lat="46.5361077" lon="11.261401866666667"><ele>516.0</ele><time>2026-05-01T08:21:22.352Z</time></trkpt><trkpt lat="46.53616968333334" lon="11.261230899999997"><ele>516.0</ele><time>2026-05-01T08:21:23.352Z</time></trkpt><trkpt lat="46.5362143818042" lon="11.261052701490321"><ele>512.0</ele><time>2026-05-01T08:21:24.373Z</time></trkpt><trkpt lat="46.53630009661023" lon="11.26088430945289"><ele>508.0</ele><time>2026-05-01T08:21:25.372Z</time></trkpt><trkpt lat="46.53643448068515" lon="11.260773169366312"><ele>504.0</ele><time>2026-05-01T08:21:26.351Z</time></trkpt><trkpt lat="46.53658667187761" lon="11.260700807886723"><ele>504.0</ele><time>2026-05-01T08:21:27.373Z</time></trkpt><trkpt lat="46.53675636443859" lon="11.26063467439721"><ele>504.0</ele><time>2026-05-01T08:21:28.362Z</time></trkpt><trkpt lat="46.53694657657993" lon="11.260571600408877"><ele>504.0</ele><time>2026-05-01T08:21:29.356Z</time></trkpt><trkpt lat="46.53715713369803" lon="11.260516003777845"><ele>488.0</ele><time>2026-05-01T08:21:30.374Z</time></trkpt><trkpt lat="46.537380303653975" lon="11.260464036557119"><ele>472.0</ele><time>2026-05-01T08:21:31.352Z</time></trkpt><trkpt lat="46.53760423263233" lon="11.260413664799879"><ele>472.0</ele><time>2026-05-01T08:21:32.353Z</time></trkpt><trkpt lat="46.53781438333334" lon="11.260389750000002"><ele>472.0</ele><time>2026-05-01T08:21:33.373Z</time></trkpt><trkpt lat="46.538040550000005" lon="11.260281400000002"><ele>472.0</ele><time>2026-05-01T08:21:34.372Z</time></trkpt><trkpt lat="46.53829566666666" lon="11.2601245"><ele>480.5</ele><time>2026-05-01T08:21:35.352Z</time></trkpt><trkpt lat="46.53855289999999" lon="11.25997528333333"><ele>489.0</ele><time>2026-05-01T08:21:36.373Z</time></trkpt><trkpt lat="46.53881514999999" lon="11.259835516666664"><ele>478.0</ele><time>2026-05-01T08:21:37.352Z</time></trkpt><trkpt lat="46.53903738926527" lon="11.259607634715202"><ele>467.0</ele><time>2026-05-01T08:21:38.354Z</time></trkpt><trkpt lat="46.53921286842015" lon="11.259345174012344"><ele>467.0</ele><time>2026-05-01T08:21:39.353Z</time></trkpt><trkpt lat="46.539232670638086" lon="11.259081618265572"><ele>467.0</ele><time>2026-05-01T08:21:40.351Z</time></trkpt><trkpt lat="46.539198600740484" lon="11.258898375618143"><ele>467.0</ele><time>2026-05-01T08:21:42.354Z</time></trkpt><trkpt lat="46.539181323470565" lon="11.258700200490942"><ele>458.3333333333333</ele><time>2026-05-01T08:21:43.372Z</time></trkpt><trkpt lat="46.53913067902062" lon="11.258480360910621"><ele>449.66666666666663</ele><time>2026-05-01T08:21:44.351Z</time></trkpt><trkpt lat="46.53905559778394" lon="11.258297490401583"><ele>441.0</ele><time>2026-05-01T08:21:45.373Z</time></trkpt><trkpt lat="46.53894578333334" lon="11.25812318333333"><ele>432.33333333333337</ele><time>2026-05-01T08:21:46.354Z</time></trkpt><trkpt lat="46.53879428333333" lon="11.258016000000001"><ele>423.6666666666667</ele><time>2026-05-01T08:21:47.352Z</time></trkpt><trkpt lat="46.538635066666664" lon="11.257952133333333"><ele>415.0</ele><time>2026-05-01T08:21:48.382Z</time></trkpt><trkpt lat="46.538475033333334" lon="11.257943666666666"><ele>415.0</ele><time>2026-05-01T08:21:49.352Z</time></trkpt><trkpt lat="46.53830418333334" lon="11.25798585"><ele>415.0</ele><time>2026-05-01T08:21:50.352Z</time></trkpt><trkpt lat="46.53813278333334" lon="11.25806655"><ele>415.0</ele><time>2026-05-01T08:21:51.373Z</time></trkpt><trkpt lat="46.53797273333333" lon="11.258193100000002"><ele>419.33333333333337</ele><time>2026-05-01T08:21:52.372Z</time></trkpt><trkpt lat="46.537831966666666" lon="11.258362166666666"><ele>423.66666666666663</ele><time>2026-05-01T08:21:53.352Z</time></trkpt><trkpt lat="46.5377036" lon="11.25854305"><ele>428.0</ele><time>2026-05-01T08:21:54.373Z</time></trkpt><trkpt lat="46.53757861666666" lon="11.258722516666667"><ele>428.0</ele><time>2026-05-01T08:21:55.352Z</time></trkpt><trkpt lat="46.53744993333333" lon="11.258887683333333"><ele>428.0</ele><time>2026-05-01T08:21:56.352Z</time></trkpt><trkpt lat="46.5373073" lon="11.259013350000004"><ele>428.0</ele><time>2026-05-01T08:21:57.357Z</time></trkpt><trkpt lat="46.5371537" lon="11.25908831666667"><ele>428.66666666666663</ele><time>2026-05-01T08:21:58.354Z</time></trkpt><trkpt lat="46.536991050000005" lon="11.259108483333334"><ele>429.33333333333337</ele><time>2026-05-01T08:21:59.351Z</time></trkpt><trkpt lat="46.536814266666674" lon="11.259082033333334"><ele>430.0</ele><time>2026-05-01T08:22:00.354Z</time></trkpt><trkpt lat="46.53662753333333" lon="11.259025066666666"><ele>430.0</ele><time>2026-05-01T08:22:01.352Z</time></trkpt><trkpt lat="46.53644176666667" lon="11.258954999999998"><ele>430.0</ele><time>2026-05-01T08:22:02.352Z</time></trkpt><trkpt lat="46.53608166666666" lon="11.258839016666665"><ele>418.33333333333337</ele><time>2026-05-01T08:22:04.352Z</time></trkpt><trkpt lat="46.53590311666667" lon="11.258819650000001"><ele>406.66666666666663</ele><time>2026-05-01T08:22:05.352Z</time></trkpt><trkpt lat="46.535727216666665" lon="11.258843033333335"><ele>395.0</ele><time>2026-05-01T08:22:06.354Z</time></trkpt><trkpt lat="46.535559600000006" lon="11.258921433333335"><ele>396.3333333333333</ele><time>2026-05-01T08:22:07.352Z</time></trkpt><trkpt lat="46.53540159999999" lon="11.259045383333333"><ele>397.66666666666663</ele><time>2026-05-01T08:22:08.351Z</time></trkpt><trkpt lat="46.53524338333333" lon="11.259174616666666"><ele>399.0</ele><time>2026-05-01T08:22:09.353Z</time></trkpt><trkpt lat="46.53507601666667" lon="11.25925525"><ele>399.0</ele><time>2026-05-01T08:22:10.357Z</time></trkpt><trkpt lat="46.534905300000005" lon="11.259274933333332"><ele>399.0</ele><time>2026-05-01T08:22:11.372Z</time></trkpt><trkpt lat="46.534750349999996" lon="11.259262116666667"><ele>399.0</ele><time>2026-05-01T08:22:12.373Z</time></trkpt><trkpt lat="46.53461608333334" lon="11.259247433333334"><ele>402.2</ele><time>2026-05-01T08:22:13.353Z</time></trkpt><trkpt lat="46.53449966666667" lon="11.259240083333333"><ele>405.4</ele><time>2026-05-01T08:22:14.353Z</time></trkpt><trkpt lat="46.534394683333325" lon="11.259215233333336"><ele>408.6</ele><time>2026-05-01T08:22:15.353Z</time></trkpt><trkpt lat="46.534310616666666" lon="11.259168466666665"><ele>411.8</ele><time>2026-05-01T08:22:16.352Z</time></trkpt><trkpt lat="46.53425383333333" lon="11.259093166666666"><ele>415.0</ele><time>2026-05-01T08:22:17.354Z</time></trkpt><trkpt lat="46.534227916666666" lon="11.258988366666665"><ele>407.8</ele><time>2026-05-01T08:22:18.354Z</time></trkpt><trkpt lat="46.53424781666666" lon="11.258881383333335"><ele>400.6</ele><time>2026-05-01T08:22:19.349Z</time></trkpt><trkpt lat="46.5343135" lon="11.258800116666663"><ele>393.4</ele><time>2026-05-01T08:22:20.354Z</time></trkpt><trkpt lat="46.53440725" lon="11.25877621666667"><ele>386.2</ele><time>2026-05-01T08:22:21.373Z</time></trkpt><trkpt lat="46.53450951666667" lon="11.258811233333333"><ele>379.0</ele><time>2026-05-01T08:22:22.352Z</time></trkpt><trkpt lat="46.53461578333332" lon="11.258870000000002"><ele>379.0</ele><time>2026-05-01T08:22:23.355Z</time></trkpt><trkpt lat="46.5347389" lon="11.258910716666668"><ele>379.0</ele><time>2026-05-01T08:22:24.353Z</time></trkpt><trkpt lat="46.534871249999995" lon="11.258887333333332"><ele>379.0</ele><time>2026-05-01T08:22:25.352Z</time></trkpt><trkpt lat="46.53500091666666" lon="11.258792349999998"><ele>379.0</ele><time>2026-05-01T08:22:26.351Z</time></trkpt><trkpt lat="46.535111883333336" lon="11.258637366666669"><ele>379.0</ele><time>2026-05-01T08:22:27.354Z</time></trkpt><trkpt lat="46.53519348333332" lon="11.258437316666667"><ele>379.0</ele><time>2026-05-01T08:22:28.354Z</time></trkpt><trkpt lat="46.53526313333333" lon="11.258223366666668"><ele>379.0</ele><time>2026-05-01T08:22:29.351Z</time></trkpt><trkpt lat="46.53533396666666" lon="11.258012416666666"><ele>375.0</ele><time>2026-05-01T08:22:30.354Z</time></trkpt><trkpt lat="46.53541701666666" lon="11.257826366666666"><ele>371.0</ele><time>2026-05-01T08:22:31.352Z</time></trkpt><trkpt lat="46.53552581666666" lon="11.257687533333334"><ele>367.0</ele><time>2026-05-01T08:22:32.352Z</time></trkpt><trkpt lat="46.53565193333334" lon="11.257602850000001"><ele>363.0</ele><time>2026-05-01T08:22:33.373Z</time></trkpt><trkpt lat="46.5357825" lon="11.257582150000001"><ele>363.0</ele><time>2026-05-01T08:22:34.352Z</time></trkpt><trkpt lat="46.535908199999994" lon="11.257617583333333"><ele>363.0</ele><time>2026-05-01T08:22:35.352Z</time></trkpt><trkpt lat="46.53603256666667" lon="11.257686833333333"><ele>363.0</ele><time>2026-05-01T08:22:36.372Z</time></trkpt><trkpt lat="46.53615388333333" lon="11.257754066666667"><ele>363.0</ele><time>2026-05-01T08:22:37.353Z</time></trkpt><trkpt lat="46.53627125" lon="11.257785899999998"><ele>362.0</ele><time>2026-05-01T08:22:38.373Z</time></trkpt><trkpt lat="46.536376249999996" lon="11.2577493"><ele>361.0</ele><time>2026-05-01T08:22:39.354Z</time></trkpt><trkpt lat="46.5364523" lon="11.2576501"><ele>360.0</ele><time>2026-05-01T08:22:40.354Z</time></trkpt><trkpt lat="46.53647996666667" lon="11.257517733333334"><ele>359.0</ele><time>2026-05-01T08:22:41.354Z</time></trkpt><trkpt lat="46.53647448339557" lon="11.257365764239127"><ele>358.0</ele><time>2026-05-01T08:22:42.354Z</time></trkpt><trkpt lat="46.53639963638106" lon="11.25721770127109"><ele>358.0</ele><time>2026-05-01T08:22:43.368Z</time></trkpt><trkpt lat="46.536276478763085" lon="11.257121735502379"><ele>358.0</ele><time>2026-05-01T08:22:44.353Z</time></trkpt><trkpt lat="46.536125308641466" lon="11.257084527272044"><ele>358.0</ele><time>2026-05-01T08:22:45.354Z</time></trkpt><trkpt lat="46.53596278044985" lon="11.257096360082834"><ele>350.3333333333333</ele><time>2026-05-01T08:22:46.351Z</time></trkpt><trkpt lat="46.53579252293046" lon="11.257111663008057"><ele>342.6666666666667</ele><time>2026-05-01T08:22:47.37Z</time></trkpt><trkpt lat="46.53560602266995" lon="11.25711083024947"><ele>335.0</ele><time>2026-05-01T08:22:48.375Z</time></trkpt><trkpt lat="46.53541098476331" lon="11.25709473943796"><ele>334.33333333333337</ele><time>2026-05-01T08:22:49.353Z</time></trkpt><trkpt lat="46.53522133343102" lon="11.257072485193058"><ele>333.6666666666667</ele><time>2026-05-01T08:22:50.353Z</time></trkpt><trkpt lat="46.535042076780826" lon="11.257051450700798"><ele>333.0</ele><time>2026-05-01T08:22:51.373Z</time></trkpt><trkpt lat="46.53487353740552" lon="11.257035578361586"><ele>333.0</ele><time>2026-05-01T08:22:52.359Z</time></trkpt><trkpt lat="46.534705625133356" lon="11.257030448161757"><ele>333.0</ele><time>2026-05-01T08:22:53.355Z</time></trkpt><trkpt lat="46.534538408689386" lon="11.257044524746505"><ele>333.0</ele><time>2026-05-01T08:22:54.373Z</time></trkpt><trkpt lat="46.534380694001456" lon="11.257079704500285"><ele>331.0</ele><time>2026-05-01T08:22:55.353Z</time></trkpt><trkpt lat="46.53421776175896" lon="11.25711786428063"><ele>329.0</ele><time>2026-05-01T08:22:56.37Z</time></trkpt><trkpt lat="46.53403945793369" lon="11.257164872394085"><ele>327.0</ele><time>2026-05-01T08:22:57.373Z</time></trkpt><trkpt lat="46.533857179460796" lon="11.257213002047681"><ele>330.6666666666667</ele><time>2026-05-01T08:22:58.354Z</time></trkpt><trkpt lat="46.53367767685572" lon="11.257257950541463"><ele>334.33333333333337</ele><time>2026-05-01T08:22:59.356Z</time></trkpt><trkpt lat="46.53350533333334" lon="11.257308283333336"><ele>338.0</ele><time>2026-05-01T08:23:00.352Z</time></trkpt><trkpt lat="46.533335466666664" lon="11.257313066666665"><ele>338.0</ele><time>2026-05-01T08:23:01.357Z</time></trkpt><trkpt lat="46.53317340000001" lon="11.257293883333334"><ele>338.0</ele><time>2026-05-01T08:23:02.355Z</time></trkpt><trkpt lat="46.53302263333334" lon="11.25723105"><ele>338.0</ele><time>2026-05-01T08:23:03.373Z</time></trkpt><trkpt lat="46.53278828144843" lon="11.25695056469321"><ele>331.33333333333337</ele><time>2026-05-01T08:23:05.37Z</time></trkpt><trkpt lat="46.53267253180757" lon="11.25680227645213"><ele>324.6666666666667</ele><time>2026-05-01T08:23:06.352Z</time></trkpt><trkpt lat="46.53255307756242" lon="11.256652727375782"><ele>318.0</ele><time>2026-05-01T08:23:07.351Z</time></trkpt><trkpt lat="46.532421478051674" lon="11.256520664706267"><ele>312.0</ele><time>2026-05-01T08:23:08.353Z</time></trkpt><trkpt lat="46.53226708333333" lon="11.2564312"><ele>306.0</ele><time>2026-05-01T08:23:09.354Z</time></trkpt><trkpt lat="46.53210345000001" lon="11.256338033333334"><ele>300.0</ele><time>2026-05-01T08:23:10.368Z</time></trkpt><trkpt lat="46.53193491666666" lon="11.256249433333336"><ele>300.0</ele><time>2026-05-01T08:23:11.354Z</time></trkpt><trkpt lat="46.53176298333333" lon="11.256149133333334"><ele>300.0</ele><time>2026-05-01T08:23:12.373Z</time></trkpt><trkpt lat="46.53158928333334" lon="11.2560247"><ele>300.0</ele><time>2026-05-01T08:23:13.353Z</time></trkpt><trkpt lat="46.53141573333334" lon="11.255863083333333"><ele>300.0</ele><time>2026-05-01T08:23:14.369Z</time></trkpt><trkpt lat="46.53124691666667" lon="11.255686033333332"><ele>300.0</ele><time>2026-05-01T08:23:15.354Z</time></trkpt><trkpt lat="46.53108323333332" lon="11.2555125"><ele>300.0</ele><time>2026-05-01T08:23:16.353Z</time></trkpt><trkpt lat="46.53091993333334" lon="11.255357266666666"><ele>293.0</ele><time>2026-05-01T08:23:17.353Z</time></trkpt><trkpt lat="46.530751650000006" lon="11.255228083333334"><ele>286.0</ele><time>2026-05-01T08:23:18.375Z</time></trkpt><trkpt lat="46.530587031344844" lon="11.255097253863863"><ele>279.0</ele><time>2026-05-01T08:23:19.353Z</time></trkpt><trkpt lat="46.530417287188165" lon="11.254997612951344"><ele>283.6666666666667</ele><time>2026-05-01T08:23:20.352Z</time></trkpt><trkpt lat="46.53025024915975" lon="11.254903886631205"><ele>288.33333333333337</ele><time>2026-05-01T08:23:21.373Z</time></trkpt><trkpt lat="46.530087528202365" lon="11.25481264339071"><ele>293.0</ele><time>2026-05-01T08:23:22.352Z</time></trkpt><trkpt lat="46.52992428333334" lon="11.254741033333335"><ele>283.0</ele><time>2026-05-01T08:23:23.353Z</time></trkpt><trkpt lat="46.529769883120714" lon="11.254615939537997"><ele>273.0</ele><time>2026-05-01T08:23:24.393Z</time></trkpt><trkpt lat="46.52960611201645" lon="11.254512250898657"><ele>263.0</ele><time>2026-05-01T08:23:25.353Z</time></trkpt><trkpt lat="46.52943046860429" lon="11.254424560307895"><ele>263.0</ele><time>2026-05-01T08:23:26.353Z</time></trkpt><trkpt lat="46.529253623395384" lon="11.254366497459813"><ele>263.0</ele><time>2026-05-01T08:23:27.373Z</time></trkpt><trkpt lat="46.52908626970244" lon="11.254313238684878"><ele>263.0</ele><time>2026-05-01T08:23:28.358Z</time></trkpt><trkpt lat="46.52893264675522" lon="11.254249343319776"><ele>263.0</ele><time>2026-05-01T08:23:29.353Z</time></trkpt><trkpt lat="46.52879905259357" lon="11.25417244027413"><ele>263.0</ele><time>2026-05-01T08:23:30.354Z</time></trkpt><trkpt lat="46.52869070405753" lon="11.25408321211454"><ele>263.0</ele><time>2026-05-01T08:23:31.353Z</time></trkpt><trkpt lat="46.5286074996981" lon="11.253969126293029"><ele>263.0</ele><time>2026-05-01T08:23:32.351Z</time></trkpt><trkpt lat="46.52854378333333" lon="11.2538256"><ele>260.75</ele><time>2026-05-01T08:23:33.373Z</time></trkpt><trkpt lat="46.52854065" lon="11.253655833333335"><ele>258.5</ele><time>2026-05-01T08:23:34.355Z</time></trkpt><trkpt lat="46.52856673333334" lon="11.253485350000002"><ele>256.25</ele><time>2026-05-01T08:23:35.351Z</time></trkpt><trkpt lat="46.52859685" lon="11.253318916666666"><ele>254.0</ele><time>2026-05-01T08:23:36.373Z</time></trkpt><trkpt lat="46.528609" lon="11.253151483333333"><ele>252.39999999999998</ele><time>2026-05-01T08:23:37.353Z</time></trkpt><trkpt lat="46.52859633333334" lon="11.252996066666666"><ele>250.79999999999998</ele><time>2026-05-01T08:23:38.351Z</time></trkpt><trkpt lat="46.52856246666666" lon="11.252862383333335"><ele>249.20000000000002</ele><time>2026-05-01T08:23:39.358Z</time></trkpt><trkpt lat="46.52852030000001" lon="11.252760616666668"><ele>247.60000000000002</ele><time>2026-05-01T08:23:40.356Z</time></trkpt><trkpt lat="46.52845458333333" lon="11.252641383333334"><ele>246.0</ele><time>2026-05-01T08:23:42.354Z</time></trkpt><trkpt lat="46.52840812880157" lon="11.252570628747366"><ele>246.0</ele><time>2026-05-01T08:23:45.373Z</time></trkpt><trkpt lat="46.52829346548346" lon="11.252587743872294"><ele>246.00000000000003</ele><time>2026-05-01T08:23:46.354Z</time></trkpt><trkpt lat="46.528231427809644" lon="11.252675345394701"><ele>246.00000000000003</ele><time>2026-05-01T08:23:47.361Z</time></trkpt><trkpt lat="46.52814918333333" lon="11.252788416666666"><ele>246.0</ele><time>2026-05-01T08:23:48.374Z</time></trkpt><trkpt lat="46.528039683333326" lon="11.252891683333333"><ele>246.0</ele><time>2026-05-01T08:23:49.35Z</time></trkpt><trkpt lat="46.52791591666667" lon="11.252989516666666"><ele>245.66666666666669</ele><time>2026-05-01T08:23:50.355Z</time></trkpt><trkpt lat="46.527777283333336" lon="11.253075233333334"><ele>245.33333333333334</ele><time>2026-05-01T08:23:51.354Z</time></trkpt><trkpt lat="46.527624683333336" lon="11.253145683333333"><ele>245.0</ele><time>2026-05-01T08:23:52.353Z</time></trkpt><trkpt lat="46.52745875000001" lon="11.253199400000002"><ele>249.66666666666669</ele><time>2026-05-01T08:23:53.354Z</time></trkpt><trkpt lat="46.52728203333333" lon="11.253241766666667"><ele>254.33333333333331</ele><time>2026-05-01T08:23:54.374Z</time></trkpt><trkpt lat="46.52709677802571" lon="11.253227738563911"><ele>259.0</ele><time>2026-05-01T08:23:55.353Z</time></trkpt><trkpt lat="46.52691755000001" lon="11.253290016666666"><ele>259.0</ele><time>2026-05-01T08:23:56.355Z</time></trkpt><trkpt lat="46.52674220000001" lon="11.253294716666668"><ele>259.0</ele><time>2026-05-01T08:23:57.373Z</time></trkpt><trkpt lat="46.52657726666666" lon="11.2532903"><ele>259.0</ele><time>2026-05-01T08:23:58.354Z</time></trkpt><trkpt lat="46.52642548333333" lon="11.253269016666664"><ele>259.0</ele><time>2026-05-01T08:23:59.366Z</time></trkpt><trkpt lat="46.526283116666676" lon="11.253233216666667"><ele>259.0</ele><time>2026-05-01T08:24:00.354Z</time></trkpt><trkpt lat="46.526154126679884" lon="11.25315013805558"><ele>259.0</ele><time>2026-05-01T08:24:01.353Z</time></trkpt><trkpt lat="46.526022890586106" lon="11.253101171995775"><ele>259.0</ele><time>2026-05-01T08:24:02.354Z</time></trkpt><trkpt lat="46.5258915618714" lon="11.25304505488011"><ele>255.5</ele><time>2026-05-01T08:24:03.373Z</time></trkpt><trkpt lat="46.52576191587767" lon="11.25296745182458"><ele>252.0</ele><time>2026-05-01T08:24:04.355Z</time></trkpt><trkpt lat="46.52563494236376" lon="11.252880618671188"><ele>248.5</ele><time>2026-05-01T08:24:05.365Z</time></trkpt><trkpt lat="46.5255088528167" lon="11.252794416391243"><ele>245.0</ele><time>2026-05-01T08:24:06.374Z</time></trkpt><trkpt lat="46.525390325277485" lon="11.252713656912743"><ele>245.0</ele><time>2026-05-01T08:24:07.354Z</time></trkpt><trkpt lat="46.525278439346565" lon="11.252638192563955"><ele>245.0</ele><time>2026-05-01T08:24:08.366Z</time></trkpt><trkpt lat="46.52517373853798" lon="11.252571044238431"><ele>245.0</ele><time>2026-05-01T08:24:09.354Z</time></trkpt><trkpt lat="46.525082587480306" lon="11.252533625865189"><ele>245.0</ele><time>2026-05-01T08:24:10.353Z</time></trkpt><trkpt lat="46.524999300000005" lon="11.252526816666666"><ele>245.0</ele><time>2026-05-01T08:24:11.353Z</time></trkpt><trkpt lat="46.52494115" lon="11.252436766666666"><ele>245.0</ele><time>2026-05-01T08:24:12.374Z</time></trkpt><trkpt lat="46.52488813333333" lon="11.252342316666667"><ele>245.0</ele><time>2026-05-01T08:24:13.353Z</time></trkpt><trkpt lat="46.52482598333332" lon="11.252287166666667"><ele>245.0</ele><time>2026-05-01T08:24:14.354Z</time></trkpt><trkpt lat="46.52476003333333" lon="11.252275899999999"><ele>245.0</ele><time>2026-05-01T08:24:15.373Z</time></trkpt><trkpt lat="46.52469655" lon="11.2523043"><ele>245.0</ele><time>2026-05-01T08:24:16.355Z</time></trkpt><trkpt lat="46.52465146666667" lon="11.252375883333332"><ele>245.0</ele><time>2026-05-01T08:24:17.353Z</time></trkpt><trkpt lat="46.52463265" lon="11.25248605"><ele>245.0</ele><time>2026-05-01T08:24:18.374Z</time></trkpt><trkpt lat="46.52462476666666" lon="11.25261021666667"><ele>245.0</ele><time>2026-05-01T08:24:19.368Z</time></trkpt><trkpt lat="46.52459801666667" lon="11.252737566666667"><ele>245.0</ele><time>2026-05-01T08:24:20.352Z</time></trkpt><trkpt lat="46.5245368" lon="11.252858150000002"><ele>245.0</ele><time>2026-05-01T08:24:21.376Z</time></trkpt><trkpt lat="46.52444563333333" lon="11.2529661"><ele>245.0</ele><time>2026-05-01T08:24:22.353Z</time></trkpt><trkpt lat="46.52434148333334" lon="11.253075599999999"><ele>245.0</ele><time>2026-05-01T08:24:23.353Z</time></trkpt><trkpt lat="46.524234783333334" lon="11.253199500000001"><ele>247.33333333333334</ele><time>2026-05-01T08:24:24.354Z</time></trkpt><trkpt lat="46.52412573333333" lon="11.253350416666668"><ele>249.66666666666669</ele><time>2026-05-01T08:24:25.353Z</time></trkpt><trkpt lat="46.524015350000006" lon="11.253538783333333"><ele>252.0</ele><time>2026-05-01T08:24:26.354Z</time></trkpt><trkpt lat="46.523912616666664" lon="11.25373945"><ele>252.0</ele><time>2026-05-01T08:24:27.374Z</time></trkpt><trkpt lat="46.523825733333325" lon="11.253929283333331"><ele>252.0</ele><time>2026-05-01T08:24:28.362Z</time></trkpt><trkpt lat="46.523744533333335" lon="11.254101466666668"><ele>252.0</ele><time>2026-05-01T08:24:29.352Z</time></trkpt><trkpt lat="46.5236666" lon="11.254260133333332"><ele>252.0</ele><time>2026-05-01T08:24:30.354Z</time></trkpt><trkpt lat="46.523585583333336" lon="11.254393616666666"><ele>251.25</ele><time>2026-05-01T08:24:31.355Z</time></trkpt><trkpt lat="46.523498283333325" lon="11.254502749999999"><ele>250.5</ele><time>2026-05-01T08:24:32.354Z</time></trkpt><trkpt lat="46.52340221666666" lon="11.254609516666669"><ele>249.75</ele><time>2026-05-01T08:24:33.375Z</time></trkpt><trkpt lat="46.523298116666666" lon="11.25471425"><ele>249.0</ele><time>2026-05-01T08:24:34.384Z</time></trkpt><trkpt lat="46.52318983333333" lon="11.254819383333333"><ele>249.0</ele><time>2026-05-01T08:24:35.384Z</time></trkpt><trkpt lat="46.52308848333334" lon="11.2549288"><ele>249.0</ele><time>2026-05-01T08:24:36.4Z</time></trkpt><trkpt lat="46.522994000000004" lon="11.255030533333334"><ele>249.0</ele><time>2026-05-01T08:24:37.364Z</time></trkpt><trkpt lat="46.522897417088636" lon="11.25510554132588"><ele>249.0</ele><time>2026-05-01T08:24:38.382Z</time></trkpt><trkpt lat="46.52282830000001" lon="11.255222600000002"><ele>248.79999999999998</ele><time>2026-05-01T08:24:39.412Z</time></trkpt><trkpt lat="46.52275353333333" lon="11.2553243"><ele>248.59999999999997</ele><time>2026-05-01T08:24:40.436Z</time></trkpt><trkpt lat="46.522687499999996" lon="11.255435366666665"><ele>248.4</ele><time>2026-05-01T08:24:41.367Z</time></trkpt><trkpt lat="46.52262981666666" lon="11.255553916666667"><ele>248.2</ele><time>2026-05-01T08:24:42.375Z</time></trkpt><trkpt lat="46.52257313333333" lon="11.255677749999998"><ele>248.0</ele><time>2026-05-01T08:24:43.367Z</time></trkpt><trkpt lat="46.522516066666675" lon="11.255804033333334"><ele>248.0</ele><time>2026-05-01T08:24:44.371Z</time></trkpt><trkpt lat="46.52245798333333" lon="11.255930283333331"><ele>248.0</ele><time>2026-05-01T08:24:45.364Z</time></trkpt><trkpt lat="46.522401699999996" lon="11.256052583333334"><ele>248.0</ele><time>2026-05-01T08:24:46.373Z</time></trkpt><trkpt lat="46.52235026666667" lon="11.256164499999999"><ele>248.0</ele><time>2026-05-01T08:24:47.371Z</time></trkpt><trkpt lat="46.5223022" lon="11.256266166666666"><ele>248.0</ele><time>2026-05-01T08:24:48.363Z</time></trkpt><trkpt lat="46.5222534" lon="11.256371383333333"><ele>247.8</ele><time>2026-05-01T08:24:49.365Z</time></trkpt><trkpt lat="46.52220151666667" lon="11.256486233333332"><ele>247.60000000000002</ele><time>2026-05-01T08:24:50.349Z</time></trkpt><trkpt lat="46.52214103333334" lon="11.256607183333331"><ele>247.39999999999998</ele><time>2026-05-01T08:24:51.374Z</time></trkpt><trkpt lat="46.522071149999995" lon="11.256745333333333"><ele>247.2</ele><time>2026-05-01T08:24:52.364Z</time></trkpt><trkpt lat="46.5219730956904" lon="11.256864706484873"><ele>247.0</ele><time>2026-05-01T08:24:53.371Z</time></trkpt><trkpt lat="46.52188246666666" lon="11.257020183333333"><ele>246.0</ele><time>2026-05-01T08:24:54.365Z</time></trkpt><trkpt lat="46.5217816" lon="11.25715305"><ele>245.0</ele><time>2026-05-01T08:24:55.373Z</time></trkpt><trkpt lat="46.52159778333333" lon="11.257412700000003"><ele>244.0</ele><time>2026-05-01T08:24:57.368Z</time></trkpt><trkpt lat="46.52150353333333" lon="11.25754305"><ele>243.75</ele><time>2026-05-01T08:24:58.376Z</time></trkpt><trkpt lat="46.52141095" lon="11.257674716666667"><ele>243.5</ele><time>2026-05-01T08:24:59.352Z</time></trkpt><trkpt lat="46.521321549999996" lon="11.2578021"><ele>243.25</ele><time>2026-05-01T08:25:00.361Z</time></trkpt><trkpt lat="46.52123508333334" lon="11.257930533333335"><ele>243.0</ele><time>2026-05-01T08:25:01.366Z</time></trkpt><trkpt lat="46.521151233333335" lon="11.258058383333333"><ele>243.5</ele><time>2026-05-01T08:25:02.374Z</time></trkpt><trkpt lat="46.52106861666666" lon="11.258182066666667"><ele>244.0</ele><time>2026-05-01T08:25:03.367Z</time></trkpt><trkpt lat="46.52098888333333" lon="11.258305"><ele>244.5</ele><time>2026-05-01T08:25:04.367Z</time></trkpt><trkpt lat="46.520915133333325" lon="11.258432433333335"><ele>245.0</ele><time>2026-05-01T08:25:05.372Z</time></trkpt><trkpt lat="46.52084896666667" lon="11.258566883333334"><ele>245.0</ele><time>2026-05-01T08:25:06.363Z</time></trkpt><trkpt lat="46.520787366666674" lon="11.258699316666666"><ele>245.0</ele><time>2026-05-01T08:25:07.363Z</time></trkpt><trkpt lat="46.52073166666667" lon="11.258813850000001"><ele>245.0</ele><time>2026-05-01T08:25:08.351Z</time></trkpt><trkpt lat="46.52067951666667" lon="11.258924933333333"><ele>245.0</ele><time>2026-05-01T08:25:09.356Z</time></trkpt><trkpt lat="46.520624533333326" lon="11.259041916666668"><ele>245.0</ele><time>2026-05-01T08:25:10.368Z</time></trkpt><trkpt lat="46.520562383333335" lon="11.259151316666664"><ele>246.0</ele><time>2026-05-01T08:25:11.352Z</time></trkpt><trkpt lat="46.520497416666664" lon="11.259260233333334"><ele>247.0</ele><time>2026-05-01T08:25:12.366Z</time></trkpt><trkpt lat="46.520414188898464" lon="11.259347663642163"><ele>248.0</ele><time>2026-05-01T08:25:13.373Z</time></trkpt><trkpt lat="46.52034014180192" lon="11.259451168610886"><ele>249.0</ele><time>2026-05-01T08:25:14.384Z</time></trkpt><trkpt lat="46.5202655794928" lon="11.259555393554582"><ele>250.0</ele><time>2026-05-01T08:25:15.364Z</time></trkpt><trkpt lat="46.52018885878255" lon="11.259662636217707"><ele>250.2</ele><time>2026-05-01T08:25:16.364Z</time></trkpt><trkpt lat="46.52011112747318" lon="11.259769520558176"><ele>250.4</ele><time>2026-05-01T08:25:17.351Z</time></trkpt><trkpt lat="46.52004298333333" lon="11.259893866666667"><ele>250.60000000000002</ele><time>2026-05-01T08:25:18.365Z</time></trkpt><trkpt lat="46.51996456666668" lon="11.260002033333334"><ele>250.8</ele><time>2026-05-01T08:25:19.373Z</time></trkpt><trkpt lat="46.5198853" lon="11.260107816666668"><ele>251.0</ele><time>2026-05-01T08:25:20.373Z</time></trkpt><trkpt lat="46.51981601666667" lon="11.260213749999998"><ele>251.4</ele><time>2026-05-01T08:25:21.364Z</time></trkpt><trkpt lat="46.51973736020755" lon="11.260299944612726"><ele>251.8</ele><time>2026-05-01T08:25:22.364Z</time></trkpt><trkpt lat="46.51967051895798" lon="11.260398397615903"><ele>252.20000000000002</ele><time>2026-05-01T08:25:23.387Z</time></trkpt><trkpt lat="46.519605215790854" lon="11.26049586266675"><ele>252.60000000000002</ele><time>2026-05-01T08:25:24.366Z</time></trkpt><trkpt lat="46.51953936618996" lon="11.260594143277633"><ele>253.0</ele><time>2026-05-01T08:25:25.363Z</time></trkpt><trkpt lat="46.51946929054944" lon="11.260698732424151"><ele>253.2</ele><time>2026-05-01T08:25:26.37Z</time></trkpt><trkpt lat="46.51942196666667" lon="11.260839183333333"><ele>253.4</ele><time>2026-05-01T08:25:27.367Z</time></trkpt><trkpt lat="46.51935446666667" lon="11.260949650000002"><ele>253.59999999999997</ele><time>2026-05-01T08:25:28.367Z</time></trkpt><trkpt lat="46.51928161666666" lon="11.261055283333333"><ele>253.79999999999998</ele><time>2026-05-01T08:25:29.371Z</time></trkpt><trkpt lat="46.51920543333333" lon="11.261163999999999"><ele>254.0</ele><time>2026-05-01T08:25:30.366Z</time></trkpt><trkpt lat="46.51911061578023" lon="11.261248194777222"><ele>254.0</ele><time>2026-05-01T08:25:31.351Z</time></trkpt><trkpt lat="46.51904303647343" lon="11.261357987258851"><ele>253.99999999999997</ele><time>2026-05-01T08:25:32.395Z</time></trkpt><trkpt lat="46.51897834769036" lon="11.261463666641891"><ele>253.99999999999997</ele><time>2026-05-01T08:25:33.368Z</time></trkpt><trkpt lat="46.51891212146939" lon="11.26157270718802"><ele>254.0</ele><time>2026-05-01T08:25:34.366Z</time></trkpt><trkpt lat="46.518855216666665" lon="11.261701033333335"><ele>254.0</ele><time>2026-05-01T08:25:35.353Z</time></trkpt><trkpt lat="46.518781366666666" lon="11.26181485"><ele>254.0</ele><time>2026-05-01T08:25:36.363Z</time></trkpt><trkpt lat="46.518707633333335" lon="11.261932083333333"><ele>254.0</ele><time>2026-05-01T08:25:37.373Z</time></trkpt><trkpt lat="46.51862493144405" lon="11.262042967235194"><ele>254.0</ele><time>2026-05-01T08:25:38.375Z</time></trkpt><trkpt lat="46.51855446346154" lon="11.262177087610523"><ele>254.0</ele><time>2026-05-01T08:25:39.367Z</time></trkpt><trkpt lat="46.51849149474333" lon="11.26232387545766"><ele>254.0</ele><time>2026-05-01T08:25:40.353Z</time></trkpt><trkpt lat="46.518446216666675" lon="11.262481749999997"><ele>254.0</ele><time>2026-05-01T08:25:41.372Z</time></trkpt><trkpt lat="46.51837424193145" lon="11.262622327945255"><ele>254.0</ele><time>2026-05-01T08:25:42.364Z</time></trkpt><trkpt lat="46.5183160114121" lon="11.262770580264899"><ele>254.0</ele><time>2026-05-01T08:25:43.366Z</time></trkpt><trkpt lat="46.51825618026377" lon="11.262921388470456"><ele>254.0</ele><time>2026-05-01T08:25:44.371Z</time></trkpt><trkpt lat="46.51820991666666" lon="11.26308635"><ele>254.0</ele><time>2026-05-01T08:25:45.365Z</time></trkpt><trkpt lat="46.51814563333334" lon="11.263238866666667"><ele>254.0</ele><time>2026-05-01T08:25:46.366Z</time></trkpt><trkpt lat="46.51807910000001" lon="11.263395"><ele>254.0</ele><time>2026-05-01T08:25:47.371Z</time></trkpt><trkpt lat="46.51801195" lon="11.26355835"><ele>254.5</ele><time>2026-05-01T08:25:48.364Z</time></trkpt><trkpt lat="46.51794278333334" lon="11.263724383333331"><ele>255.0</ele><time>2026-05-01T08:25:49.366Z</time></trkpt><trkpt lat="46.517867983333325" lon="11.263886266666669"><ele>255.5</ele><time>2026-05-01T08:25:50.351Z</time></trkpt><trkpt lat="46.517784133333336" lon="11.264042016666666"><ele>256.0</ele><time>2026-05-01T08:25:51.365Z</time></trkpt><trkpt lat="46.51768581666667" lon="11.264181816666666"><ele>257.5</ele><time>2026-05-01T08:25:52.365Z</time></trkpt><trkpt lat="46.517582999999995" lon="11.264313266666665"><ele>259.0</ele><time>2026-05-01T08:25:53.371Z</time></trkpt><trkpt lat="46.51748458333333" lon="11.264443366666667"><ele>260.5</ele><time>2026-05-01T08:25:54.365Z</time></trkpt><trkpt lat="46.5173863" lon="11.264564199999999"><ele>262.0</ele><time>2026-05-01T08:25:55.369Z</time></trkpt><trkpt lat="46.51728851666667" lon="11.264676633333332"><ele>261.66666666666663</ele><time>2026-05-01T08:25:56.372Z</time></trkpt><trkpt lat="46.51710046666667" lon="11.264910583333334"><ele>261.3333333333333</ele><time>2026-05-01T08:25:58.367Z</time></trkpt><trkpt lat="46.5170079" lon="11.265036233333333"><ele>261.0</ele><time>2026-05-01T08:25:59.373Z</time></trkpt><trkpt lat="46.51691281666667" lon="11.265161633333333"><ele>261.0</ele><time>2026-05-01T08:26:00.362Z</time></trkpt><trkpt lat="46.5168211" lon="11.265282100000002"><ele>261.0</ele><time>2026-05-01T08:26:01.367Z</time></trkpt><trkpt lat="46.5167285" lon="11.265399366666667"><ele>261.0</ele><time>2026-05-01T08:26:02.372Z</time></trkpt><trkpt lat="46.516631249999996" lon="11.265516716666665"><ele>261.0</ele><time>2026-05-01T08:26:03.363Z</time></trkpt><trkpt lat="46.51653246666666" lon="11.265632333333334"><ele>260.0</ele><time>2026-05-01T08:26:04.365Z</time></trkpt><trkpt lat="46.51643258333334" lon="11.265748900000002"><ele>259.0</ele><time>2026-05-01T08:26:05.371Z</time></trkpt><trkpt lat="46.51632806666667" lon="11.265856533333334"><ele>258.0</ele><time>2026-05-01T08:26:06.364Z</time></trkpt><trkpt lat="46.51621973333334" lon="11.265958366666666"><ele>257.0</ele><time>2026-05-01T08:26:07.367Z</time></trkpt><trkpt lat="46.51611061666668" lon="11.266058016666666"><ele>257.0</ele><time>2026-05-01T08:26:08.369Z</time></trkpt><trkpt lat="46.51600456666667" lon="11.266167166666666"><ele>257.0</ele><time>2026-05-01T08:26:09.366Z</time></trkpt><trkpt lat="46.515902800000006" lon="11.266287566666666"><ele>257.0</ele><time>2026-05-01T08:26:10.365Z</time></trkpt><trkpt lat="46.51580911666667" lon="11.266416350000002"><ele>257.0</ele><time>2026-05-01T08:26:11.369Z</time></trkpt><trkpt lat="46.51572254999999" lon="11.266554266666667"><ele>257.25</ele><time>2026-05-01T08:26:12.364Z</time></trkpt><trkpt lat="46.51564163333334" lon="11.266692149999999"><ele>257.5</ele><time>2026-05-01T08:26:13.361Z</time></trkpt><trkpt lat="46.515561533333326" lon="11.266832683333334"><ele>257.75</ele><time>2026-05-01T08:26:14.353Z</time></trkpt><trkpt lat="46.51547763333333" lon="11.266973416666666"><ele>258.0</ele><time>2026-05-01T08:26:15.365Z</time></trkpt><trkpt lat="46.51538973333333" lon="11.267119033333334"><ele>257.0</ele><time>2026-05-01T08:26:16.367Z</time></trkpt><trkpt lat="46.515300333333336" lon="11.267268016666666"><ele>256.0</ele><time>2026-05-01T08:26:17.37Z</time></trkpt><trkpt lat="46.51521218333333" lon="11.267417433333334"><ele>255.0</ele><time>2026-05-01T08:26:18.377Z</time></trkpt><trkpt lat="46.5151256" lon="11.267574366666668"><ele>254.0</ele><time>2026-05-01T08:26:19.365Z</time></trkpt><trkpt lat="46.51504168333333" lon="11.267729999999998"><ele>254.0</ele><time>2026-05-01T08:26:20.372Z</time></trkpt><trkpt lat="46.51495873333333" lon="11.267881366666666"><ele>254.0</ele><time>2026-05-01T08:26:21.366Z</time></trkpt><trkpt lat="46.51487873333334" lon="11.268031016666663"><ele>254.0</ele><time>2026-05-01T08:26:22.357Z</time></trkpt><trkpt lat="46.51480061666666" lon="11.268172499999999"><ele>254.0</ele><time>2026-05-01T08:26:23.372Z</time></trkpt><trkpt lat="46.51472645" lon="11.26831385"><ele>254.0</ele><time>2026-05-01T08:26:24.365Z</time></trkpt><trkpt lat="46.51465495000001" lon="11.268453116666668"><ele>254.0</ele><time>2026-05-01T08:26:25.373Z</time></trkpt><trkpt lat="46.51458693333334" lon="11.268591966666667"><ele>254.0</ele><time>2026-05-01T08:26:26.366Z</time></trkpt><trkpt lat="46.51452136666667" lon="11.268733283333331"><ele>254.0</ele><time>2026-05-01T08:26:27.352Z</time></trkpt><trkpt lat="46.514456966666664" lon="11.26886845"><ele>253.75</ele><time>2026-05-01T08:26:28.367Z</time></trkpt><trkpt lat="46.51439176666666" lon="11.269001416666669"><ele>253.5</ele><time>2026-05-01T08:26:29.352Z</time></trkpt><trkpt lat="46.51432693333333" lon="11.26913515"><ele>253.25</ele><time>2026-05-01T08:26:30.363Z</time></trkpt><trkpt lat="46.51426453333333" lon="11.269276016666668"><ele>253.0</ele><time>2026-05-01T08:26:31.354Z</time></trkpt><trkpt lat="46.51420011666667" lon="11.269422716666668"><ele>253.0</ele><time>2026-05-01T08:26:32.371Z</time></trkpt><trkpt lat="46.5141341" lon="11.269569833333334"><ele>253.0</ele><time>2026-05-01T08:26:33.366Z</time></trkpt><trkpt lat="46.514063033333336" lon="11.269716866666666"><ele>253.0</ele><time>2026-05-01T08:26:34.367Z</time></trkpt><trkpt lat="46.51399265" lon="11.269865016666666"><ele>253.0</ele><time>2026-05-01T08:26:35.373Z</time></trkpt><trkpt lat="46.513918666666655" lon="11.270008883333333"><ele>252.0</ele><time>2026-05-01T08:26:36.364Z</time></trkpt><trkpt lat="46.513844" lon="11.270154933333332"><ele>251.0</ele><time>2026-05-01T08:26:37.365Z</time></trkpt><trkpt lat="46.51376598333333" lon="11.27030445"><ele>250.0</ele><time>2026-05-01T08:26:38.37Z</time></trkpt><trkpt lat="46.51367871666667" lon="11.27044545"><ele>249.0</ele><time>2026-05-01T08:26:39.365Z</time></trkpt><trkpt lat="46.51358571666666" lon="11.270575633333332"><ele>248.0</ele><time>2026-05-01T08:26:40.373Z</time></trkpt><trkpt lat="46.51348688333334" lon="11.270695783333334"><ele>247.0</ele><time>2026-05-01T08:26:41.37Z</time></trkpt><trkpt lat="46.51338479999999" lon="11.270819300000001"><ele>246.0</ele><time>2026-05-01T08:26:42.365Z</time></trkpt><trkpt lat="46.51328266666666" lon="11.270946333333333"><ele>245.0</ele><time>2026-05-01T08:26:43.369Z</time></trkpt><trkpt lat="46.513178583333335" lon="11.271075916666666"><ele>245.0</ele><time>2026-05-01T08:26:44.373Z</time></trkpt><trkpt lat="46.51307406666667" lon="11.271208916666668"><ele>245.0</ele><time>2026-05-01T08:26:45.352Z</time></trkpt><trkpt lat="46.51297138333333" lon="11.271343466666666"><ele>245.0</ele><time>2026-05-01T08:26:46.365Z</time></trkpt><trkpt lat="46.512872083333335" lon="11.271477633333333"><ele>245.0</ele><time>2026-05-01T08:26:47.372Z</time></trkpt><trkpt lat="46.51277461666667" lon="11.271613100000001"><ele>245.0</ele><time>2026-05-01T08:26:48.366Z</time></trkpt><trkpt lat="46.51268308333333" lon="11.271756000000002"><ele>245.0</ele><time>2026-05-01T08:26:49.366Z</time></trkpt><trkpt lat="46.5125979" lon="11.271903499999999"><ele>245.0</ele><time>2026-05-01T08:26:50.384Z</time></trkpt><trkpt lat="46.51251523333333" lon="11.272047083333334"><ele>245.0</ele><time>2026-05-01T08:26:51.366Z</time></trkpt><trkpt lat="46.512432999999994" lon="11.272190166666666"><ele>245.5</ele><time>2026-05-01T08:26:52.367Z</time></trkpt><trkpt lat="46.512353916666676" lon="11.272328116666666"><ele>246.0</ele><time>2026-05-01T08:26:53.351Z</time></trkpt><trkpt lat="46.512276400000005" lon="11.272464333333335"><ele>246.5</ele><time>2026-05-01T08:26:54.371Z</time></trkpt><trkpt lat="46.51219928333334" lon="11.272599166666666"><ele>247.0</ele><time>2026-05-01T08:26:55.366Z</time></trkpt><trkpt lat="46.51212086666666" lon="11.272734099999997"><ele>247.0</ele><time>2026-05-01T08:26:56.372Z</time></trkpt><trkpt lat="46.512044683333336" lon="11.272862833333333"><ele>247.0</ele><time>2026-05-01T08:26:57.366Z</time></trkpt><trkpt lat="46.51197465" lon="11.272984116666665"><ele>247.0</ele><time>2026-05-01T08:26:58.367Z</time></trkpt><trkpt lat="46.51190855" lon="11.273094133333332"><ele>247.0</ele><time>2026-05-01T08:26:59.358Z</time></trkpt><trkpt lat="46.51185085000001" lon="11.2731958"><ele>247.0</ele><time>2026-05-01T08:27:00.363Z</time></trkpt><trkpt lat="46.51179978333333" lon="11.273289949999999"><ele>247.0</ele><time>2026-05-01T08:27:01.366Z</time></trkpt><trkpt lat="46.511744650000004" lon="11.273388250000002"><ele>247.0</ele><time>2026-05-01T08:27:02.373Z</time></trkpt><trkpt lat="46.51168753333333" lon="11.273490966666667"><ele>247.0</ele><time>2026-05-01T08:27:03.371Z</time></trkpt><trkpt lat="46.51162648333334" lon="11.273593033333336"><ele>247.0</ele><time>2026-05-01T08:27:04.364Z</time></trkpt><trkpt lat="46.51156243333333" lon="11.273694333333333"><ele>247.0</ele><time>2026-05-01T08:27:05.372Z</time></trkpt><trkpt lat="46.51149675" lon="11.273796583333334"><ele>247.0</ele><time>2026-05-01T08:27:06.364Z</time></trkpt><trkpt lat="46.5114269" lon="11.273892666666667"><ele>247.0</ele><time>2026-05-01T08:27:07.364Z</time></trkpt><trkpt lat="46.5113549" lon="11.273985216666665"><ele>247.0</ele><time>2026-05-01T08:27:08.356Z</time></trkpt><trkpt lat="46.5112646302957" lon="11.27404573073392"><ele>247.0</ele><time>2026-05-01T08:27:09.367Z</time></trkpt><trkpt lat="46.511175721186326" lon="11.274119248061131"><ele>247.0</ele><time>2026-05-01T08:27:10.366Z</time></trkpt><trkpt lat="46.51108374111961" lon="11.274197148953677"><ele>247.0</ele><time>2026-05-01T08:27:11.372Z</time></trkpt><trkpt lat="46.51099350771341" lon="11.274275439365207"><ele>247.0</ele><time>2026-05-01T08:27:12.37Z</time></trkpt><trkpt lat="46.51090989973773" lon="11.274348443704307"><ele>247.0</ele><time>2026-05-01T08:27:13.365Z</time></trkpt><trkpt lat="46.510828512359275" lon="11.274419338703156"><ele>247.0</ele><time>2026-05-01T08:27:14.372Z</time></trkpt><trkpt lat="46.51074534531119" lon="11.2744917136515"><ele>247.0</ele><time>2026-05-01T08:27:15.365Z</time></trkpt><trkpt lat="46.5106783" lon="11.27460486666667"><ele>247.0</ele><time>2026-05-01T08:27:16.364Z</time></trkpt><trkpt lat="46.51060075" lon="11.274678449999998"><ele>247.0</ele><time>2026-05-01T08:27:17.358Z</time></trkpt><trkpt lat="46.51052531666666" lon="11.274749233333335"><ele>247.0</ele><time>2026-05-01T08:27:18.367Z</time></trkpt><trkpt lat="46.51045453333333" lon="11.27483295"><ele>247.0</ele><time>2026-05-01T08:27:19.35Z</time></trkpt><trkpt lat="46.510366289073836" lon="11.274900220506066"><ele>247.0</ele><time>2026-05-01T08:27:20.356Z</time></trkpt><trkpt lat="46.5103180616875" lon="11.27502562128221"><ele>247.6</ele><time>2026-05-01T08:27:21.371Z</time></trkpt><trkpt lat="46.51027236822014" lon="11.27515594426761"><ele>248.2</ele><time>2026-05-01T08:27:22.356Z</time></trkpt><trkpt lat="46.51022907093096" lon="11.275282940349609"><ele>248.8</ele><time>2026-05-01T08:27:23.371Z</time></trkpt><trkpt lat="46.51018532110165" lon="11.275409877362453"><ele>249.4</ele><time>2026-05-01T08:27:24.371Z</time></trkpt><trkpt lat="46.5101564" lon="11.275542366666665"><ele>250.0</ele><time>2026-05-01T08:27:25.365Z</time></trkpt><trkpt lat="46.510111800000004" lon="11.275657599999999"><ele>250.6</ele><time>2026-05-01T08:27:26.359Z</time></trkpt><trkpt lat="46.51007293333333" lon="11.275769549999998"><ele>251.2</ele><time>2026-05-01T08:27:27.367Z</time></trkpt><trkpt lat="46.51003638333333" lon="11.275882866666667"><ele>251.8</ele><time>2026-05-01T08:27:28.365Z</time></trkpt><trkpt lat="46.50999428333333" lon="11.276001"><ele>252.4</ele><time>2026-05-01T08:27:29.351Z</time></trkpt><trkpt lat="46.509951883333336" lon="11.276123266666664"><ele>253.0</ele><time>2026-05-01T08:27:30.355Z</time></trkpt><trkpt lat="46.50990726666667" lon="11.276244383333335"><ele>253.0</ele><time>2026-05-01T08:27:31.37Z</time></trkpt><trkpt lat="46.509864199999996" lon="11.27637265"><ele>253.0</ele><time>2026-05-01T08:27:32.37Z</time></trkpt><trkpt lat="46.50981900000001" lon="11.276500549999998"><ele>253.0</ele><time>2026-05-01T08:27:33.365Z</time></trkpt><trkpt lat="46.50977135" lon="11.276630283333335"><ele>253.0</ele><time>2026-05-01T08:27:34.373Z</time></trkpt><trkpt lat="46.509723733333345" lon="11.276762949999998"><ele>253.0</ele><time>2026-05-01T08:27:35.354Z</time></trkpt><trkpt lat="46.5096808" lon="11.276900366666666"><ele>252.8</ele><time>2026-05-01T08:27:36.366Z</time></trkpt><trkpt lat="46.509645783333326" lon="11.277047899999998"><ele>252.60000000000002</ele><time>2026-05-01T08:27:37.368Z</time></trkpt><trkpt lat="46.509617116666675" lon="11.277200833333332"><ele>252.39999999999998</ele><time>2026-05-01T08:27:38.375Z</time></trkpt><trkpt lat="46.50959645" lon="11.277357983333332"><ele>252.2</ele><time>2026-05-01T08:27:39.372Z</time></trkpt><trkpt lat="46.509579050000006" lon="11.277509049999999"><ele>252.0</ele><time>2026-05-01T08:27:40.364Z</time></trkpt><trkpt lat="46.50956333333334" lon="11.277660783333332"><ele>252.0</ele><time>2026-05-01T08:27:41.372Z</time></trkpt><trkpt lat="46.50954421666667" lon="11.277811616666666"><ele>252.0</ele><time>2026-05-01T08:27:42.364Z</time></trkpt><trkpt lat="46.50952898333333" lon="11.277960233333332"><ele>252.0</ele><time>2026-05-01T08:27:43.35Z</time></trkpt><trkpt lat="46.5095181" lon="11.278105683333335"><ele>252.0</ele><time>2026-05-01T08:27:44.368Z</time></trkpt><trkpt lat="46.50950555" lon="11.278250666666667"><ele>252.0</ele><time>2026-05-01T08:27:45.367Z</time></trkpt><trkpt lat="46.50948798333334" lon="11.278397616666666"><ele>252.2</ele><time>2026-05-01T08:27:46.351Z</time></trkpt><trkpt lat="46.5094617" lon="11.278543283333333"><ele>252.39999999999998</ele><time>2026-05-01T08:27:47.37Z</time></trkpt><trkpt lat="46.509419466666664" lon="11.278684449999998"><ele>252.60000000000002</ele><time>2026-05-01T08:27:48.373Z</time></trkpt><trkpt lat="46.50936501666666" lon="11.278815699999999"><ele>252.8</ele><time>2026-05-01T08:27:49.352Z</time></trkpt><trkpt lat="46.509303900000006" lon="11.278939633333335"><ele>253.0</ele><time>2026-05-01T08:27:50.372Z</time></trkpt><trkpt lat="46.50924011666665" lon="11.279055416666665"><ele>253.0</ele><time>2026-05-01T08:27:51.368Z</time></trkpt><trkpt lat="46.50917403333333" lon="11.279166383333333"><ele>253.0</ele><time>2026-05-01T08:27:52.364Z</time></trkpt><trkpt lat="46.509111266666665" lon="11.279279483333335"><ele>253.0</ele><time>2026-05-01T08:27:53.354Z</time></trkpt><trkpt lat="46.508974710577306" lon="11.279508194479472"><ele>253.0</ele><time>2026-05-01T08:27:55.366Z</time></trkpt><trkpt lat="46.508902029548366" lon="11.279623173833436"><ele>253.0</ele><time>2026-05-01T08:27:56.37Z</time></trkpt><trkpt lat="46.50882104113314" lon="11.279731569826945"><ele>253.0</ele><time>2026-05-01T08:27:57.365Z</time></trkpt><trkpt lat="46.50873542233532" lon="11.279839189694508"><ele>253.0</ele><time>2026-05-01T08:27:58.359Z</time></trkpt><trkpt lat="46.508652879142836" lon="11.27995036897543"><ele>253.0</ele><time>2026-05-01T08:27:59.375Z</time></trkpt><trkpt lat="46.508578351455625" lon="11.280069542518953"><ele>253.0</ele><time>2026-05-01T08:28:00.366Z</time></trkpt><trkpt lat="46.508527316666665" lon="11.280205233333334"><ele>252.60000000000002</ele><time>2026-05-01T08:28:01.365Z</time></trkpt><trkpt lat="46.5084711" lon="11.280334966666665"><ele>252.20000000000002</ele><time>2026-05-01T08:28:02.354Z</time></trkpt><trkpt lat="46.508418283333334" lon="11.280468499999998"><ele>251.8</ele><time>2026-05-01T08:28:03.352Z</time></trkpt><trkpt lat="46.508370866666674" lon="11.280601149999999"><ele>251.4</ele><time>2026-05-01T08:28:04.365Z</time></trkpt><trkpt lat="46.508314279303654" lon="11.280722949179065"><ele>251.0</ele><time>2026-05-01T08:28:05.352Z</time></trkpt><trkpt lat="46.508270937320965" lon="11.280858054723728"><ele>251.0</ele><time>2026-05-01T08:28:06.364Z</time></trkpt><trkpt lat="46.5082337761276" lon="11.281003555512852"><ele>251.00000000000003</ele><time>2026-05-01T08:28:07.351Z</time></trkpt><trkpt lat="46.508210616666666" lon="11.281158083333333"><ele>251.00000000000003</ele><time>2026-05-01T08:28:08.374Z</time></trkpt><trkpt lat="46.50817688333333" lon="11.281307633333332"><ele>251.0</ele><time>2026-05-01T08:28:09.371Z</time></trkpt><trkpt lat="46.50814449999999" lon="11.281461966666665"><ele>251.0</ele><time>2026-05-01T08:28:10.373Z</time></trkpt><trkpt lat="46.50810886666666" lon="11.281620983333335"><ele>250.75</ele><time>2026-05-01T08:28:11.352Z</time></trkpt><trkpt lat="46.508071766666674" lon="11.281787550000002"><ele>250.5</ele><time>2026-05-01T08:28:12.352Z</time></trkpt><trkpt lat="46.50803586666666" lon="11.281957016666668"><ele>250.25</ele><time>2026-05-01T08:28:13.378Z</time></trkpt><trkpt lat="46.50799241666667" lon="11.282135716666668"><ele>250.0</ele><time>2026-05-01T08:28:14.351Z</time></trkpt><trkpt lat="46.507949833333335" lon="11.282322283333334"><ele>249.5</ele><time>2026-05-01T08:28:15.368Z</time></trkpt><trkpt lat="46.50791031666666" lon="11.2825153"><ele>249.0</ele><time>2026-05-01T08:28:16.373Z</time></trkpt><trkpt lat="46.507868433333336" lon="11.282715283333333"><ele>248.5</ele><time>2026-05-01T08:28:17.351Z</time></trkpt><trkpt lat="46.50782561666667" lon="11.282919533333331"><ele>248.0</ele><time>2026-05-01T08:28:18.363Z</time></trkpt><trkpt lat="46.50778281666667" lon="11.283124233333334"><ele>245.75</ele><time>2026-05-01T08:28:19.36Z</time></trkpt><trkpt lat="46.50773761666666" lon="11.283325583333333"><ele>243.5</ele><time>2026-05-01T08:28:20.368Z</time></trkpt><trkpt lat="46.50768863333332" lon="11.283523766666667"><ele>241.25</ele><time>2026-05-01T08:28:21.358Z</time></trkpt><trkpt lat="46.50763771666667" lon="11.283711349999999"><ele>239.0</ele><time>2026-05-01T08:28:22.377Z</time></trkpt><trkpt lat="46.507582883333335" lon="11.2838898"><ele>238.75</ele><time>2026-05-01T08:28:23.37Z</time></trkpt><trkpt lat="46.50752383333333" lon="11.284051700000003"><ele>238.5</ele><time>2026-05-01T08:28:24.364Z</time></trkpt><trkpt lat="46.507462266666664" lon="11.2842118"><ele>238.25</ele><time>2026-05-01T08:28:25.374Z</time></trkpt><trkpt lat="46.50739985" lon="11.284373066666667"><ele>238.0</ele><time>2026-05-01T08:28:26.389Z</time></trkpt><trkpt lat="46.507339699999996" lon="11.284543683333334"><ele>238.0</ele><time>2026-05-01T08:28:27.356Z</time></trkpt><trkpt lat="46.50727946666666" lon="11.284713166666664"><ele>238.0</ele><time>2026-05-01T08:28:28.375Z</time></trkpt><trkpt lat="46.507217733333334" lon="11.284875099999999"><ele>238.0</ele><time>2026-05-01T08:28:29.352Z</time></trkpt><trkpt lat="46.507161950000004" lon="11.285030083333334"><ele>238.0</ele><time>2026-05-01T08:28:30.359Z</time></trkpt><trkpt lat="46.50710266666666" lon="11.28517265"><ele>237.60000000000002</ele><time>2026-05-01T08:28:31.378Z</time></trkpt><trkpt lat="46.50704016666667" lon="11.285308633333335"><ele>237.20000000000002</ele><time>2026-05-01T08:28:32.357Z</time></trkpt><trkpt lat="46.50698148333333" lon="11.28544733333333"><ele>236.8</ele><time>2026-05-01T08:28:33.357Z</time></trkpt><trkpt lat="46.50692940000001" lon="11.28558705"><ele>236.4</ele><time>2026-05-01T08:28:34.378Z</time></trkpt><trkpt lat="46.50688531666667" lon="11.285731433333334"><ele>236.0</ele><time>2026-05-01T08:28:35.36Z</time></trkpt><trkpt lat="46.506854216666675" lon="11.285880583333334"><ele>236.0</ele><time>2026-05-01T08:28:36.358Z</time></trkpt><trkpt lat="46.50682845" lon="11.286037966666667"><ele>236.0</ele><time>2026-05-01T08:28:37.352Z</time></trkpt><trkpt lat="46.50681171666667" lon="11.286205800000001"><ele>236.0</ele><time>2026-05-01T08:28:38.352Z</time></trkpt><trkpt lat="46.50680798333333" lon="11.286376533333334"><ele>236.0</ele><time>2026-05-01T08:28:39.364Z</time></trkpt><trkpt lat="46.50681195000001" lon="11.286557033333334"><ele>236.75</ele><time>2026-05-01T08:28:40.377Z</time></trkpt><trkpt lat="46.50682253333333" lon="11.286743583333335"><ele>237.5</ele><time>2026-05-01T08:28:41.368Z</time></trkpt><trkpt lat="46.50683751666667" lon="11.286936033333332"><ele>238.25</ele><time>2026-05-01T08:28:42.352Z</time></trkpt><trkpt lat="46.506853066666665" lon="11.287125450000001"><ele>239.0</ele><time>2026-05-01T08:28:43.374Z</time></trkpt><trkpt lat="46.506866249999995" lon="11.287316300000002"><ele>239.0</ele><time>2026-05-01T08:28:44.357Z</time></trkpt><trkpt lat="46.506871450000006" lon="11.28750375"><ele>239.0</ele><time>2026-05-01T08:28:45.365Z</time></trkpt><trkpt lat="46.50687545000001" lon="11.287686900000002"><ele>239.0</ele><time>2026-05-01T08:28:46.378Z</time></trkpt><trkpt lat="46.506882250000004" lon="11.287863599999998"><ele>239.0</ele><time>2026-05-01T08:28:47.352Z</time></trkpt><trkpt lat="46.506885616666665" lon="11.288036883333332"><ele>239.25</ele><time>2026-05-01T08:28:48.369Z</time></trkpt><trkpt lat="46.50688643333333" lon="11.288211916666668"><ele>239.5</ele><time>2026-05-01T08:28:49.35Z</time></trkpt><trkpt lat="46.50687261666667" lon="11.288383549999999"><ele>239.75</ele><time>2026-05-01T08:28:50.355Z</time></trkpt><trkpt lat="46.506841566666665" lon="11.288545866666668"><ele>240.0</ele><time>2026-05-01T08:28:51.357Z</time></trkpt><trkpt lat="46.506796" lon="11.288698649999999"><ele>240.0</ele><time>2026-05-01T08:28:52.378Z</time></trkpt><trkpt lat="46.506738116666675" lon="11.288838583333332"><ele>240.0</ele><time>2026-05-01T08:28:53.366Z</time></trkpt><trkpt lat="46.50666998333333" lon="11.288962483333334"><ele>240.0</ele><time>2026-05-01T08:28:54.356Z</time></trkpt><trkpt lat="46.50651638333334" lon="11.289189666666667"><ele>240.0</ele><time>2026-05-01T08:28:56.351Z</time></trkpt><trkpt lat="46.50644608333334" lon="11.289305083333334"><ele>240.0</ele><time>2026-05-01T08:28:57.372Z</time></trkpt><trkpt lat="46.50637963333334" lon="11.289426966666667"><ele>240.0</ele><time>2026-05-01T08:28:58.395Z</time></trkpt><trkpt lat="46.50631466666667" lon="11.28955093333333"><ele>240.0</ele><time>2026-05-01T08:28:59.367Z</time></trkpt><trkpt lat="46.506250699999995" lon="11.289680416666666"><ele>240.0</ele><time>2026-05-01T08:29:00.364Z</time></trkpt><trkpt lat="46.50618850000001" lon="11.289811316666665"><ele>240.0</ele><time>2026-05-01T08:29:01.374Z</time></trkpt><trkpt lat="46.506109172170646" lon="11.289922952477076"><ele>240.0</ele><time>2026-05-01T08:29:02.357Z</time></trkpt><trkpt lat="46.506058249999995" lon="11.290066750000001"><ele>240.0</ele><time>2026-05-01T08:29:03.36Z</time></trkpt><trkpt lat="46.50599820000001" lon="11.290195766666667"><ele>240.0</ele><time>2026-05-01T08:29:04.374Z</time></trkpt><trkpt lat="46.5059474" lon="11.290332466666666"><ele>240.0</ele><time>2026-05-01T08:29:05.376Z</time></trkpt><trkpt lat="46.505904133333324" lon="11.290476133333335"><ele>240.0</ele><time>2026-05-01T08:29:06.37Z</time></trkpt><trkpt lat="46.50586516666667" lon="11.290624916666665"><ele>240.75</ele><time>2026-05-01T08:29:07.38Z</time></trkpt><trkpt lat="46.505827033333325" lon="11.290778699999997"><ele>241.5</ele><time>2026-05-01T08:29:08.351Z</time></trkpt><trkpt lat="46.50578846666668" lon="11.290930533333336"><ele>242.25</ele><time>2026-05-01T08:29:09.358Z</time></trkpt><trkpt lat="46.505751" lon="11.291084000000001"><ele>243.0</ele><time>2026-05-01T08:29:10.378Z</time></trkpt><trkpt lat="46.50571393333333" lon="11.2912431"><ele>243.0</ele><time>2026-05-01T08:29:11.352Z</time></trkpt><trkpt lat="46.50567798333333" lon="11.291405600000001"><ele>243.0</ele><time>2026-05-01T08:29:12.357Z</time></trkpt><trkpt lat="46.505637449999995" lon="11.291565566666668"><ele>243.0</ele><time>2026-05-01T08:29:13.378Z</time></trkpt><trkpt lat="46.5055939" lon="11.291727883333333"><ele>243.0</ele><time>2026-05-01T08:29:14.354Z</time></trkpt><trkpt lat="46.505549116666664" lon="11.291898783333332"><ele>243.25</ele><time>2026-05-01T08:29:15.368Z</time></trkpt><trkpt lat="46.50550791666666" lon="11.292068083333332"><ele>243.5</ele><time>2026-05-01T08:29:16.378Z</time></trkpt><trkpt lat="46.505462083333335" lon="11.29224095"><ele>243.75</ele><time>2026-05-01T08:29:17.354Z</time></trkpt><trkpt lat="46.50541315" lon="11.292415799999999"><ele>244.0</ele><time>2026-05-01T08:29:18.363Z</time></trkpt><trkpt lat="46.50536751666667" lon="11.292592483333332"><ele>244.0</ele><time>2026-05-01T08:29:19.352Z</time></trkpt><trkpt lat="46.505318100000004" lon="11.292763566666668"><ele>244.0</ele><time>2026-05-01T08:29:20.356Z</time></trkpt><trkpt lat="46.50526721666667" lon="11.29293435"><ele>244.0</ele><time>2026-05-01T08:29:21.359Z</time></trkpt><trkpt lat="46.50521680000001" lon="11.293105116666668"><ele>244.0</ele><time>2026-05-01T08:29:22.375Z</time></trkpt><trkpt lat="46.50516341666667" lon="11.29327805"><ele>243.75</ele><time>2026-05-01T08:29:23.354Z</time></trkpt><trkpt lat="46.50510923333333" lon="11.293447016666669"><ele>243.5</ele><time>2026-05-01T08:29:24.358Z</time></trkpt><trkpt lat="46.50505416666667" lon="11.29361915"><ele>243.25</ele><time>2026-05-01T08:29:25.377Z</time></trkpt><trkpt lat="46.50499695" lon="11.293785649999998"><ele>243.0</ele><time>2026-05-01T08:29:26.352Z</time></trkpt><trkpt lat="46.50493521666667" lon="11.293946966666667"><ele>243.0</ele><time>2026-05-01T08:29:27.364Z</time></trkpt><trkpt lat="46.504868050000006" lon="11.294104383333334"><ele>243.0</ele><time>2026-05-01T08:29:28.379Z</time></trkpt><trkpt lat="46.504795099999996" lon="11.29425428333333"><ele>243.0</ele><time>2026-05-01T08:29:29.368Z</time></trkpt><trkpt lat="46.5047184" lon="11.294402883333332"><ele>243.0</ele><time>2026-05-01T08:29:30.363Z</time></trkpt><trkpt lat="46.50463876666666" lon="11.294551333333333"><ele>241.0</ele><time>2026-05-01T08:29:31.376Z</time></trkpt><trkpt lat="46.504550900000005" lon="11.29469185"><ele>239.0</ele><time>2026-05-01T08:29:32.352Z</time></trkpt><trkpt lat="46.50445696666667" lon="11.294831716666666"><ele>237.0</ele><time>2026-05-01T08:29:33.366Z</time></trkpt><trkpt lat="46.504363233333336" lon="11.294981833333335"><ele>235.0</ele><time>2026-05-01T08:29:34.352Z</time></trkpt><trkpt lat="46.504262516666664" lon="11.295139349999998"><ele>235.0</ele><time>2026-05-01T08:29:35.357Z</time></trkpt><trkpt lat="46.50415206666666" lon="11.295316016666666"><ele>235.0</ele><time>2026-05-01T08:29:36.358Z</time></trkpt><trkpt lat="46.504014148041776" lon="11.295500290371637"><ele>235.0</ele><time>2026-05-01T08:29:37.378Z</time></trkpt><trkpt lat="46.50386785434247" lon="11.29571276469675"><ele>235.33333333333331</ele><time>2026-05-01T08:29:38.355Z</time></trkpt><trkpt lat="46.50373191666666" lon="11.295943066666666"><ele>235.66666666666669</ele><time>2026-05-01T08:29:39.349Z</time></trkpt><trkpt lat="46.50358736666667" lon="11.296144499999999"><ele>236.0</ele><time>2026-05-01T08:29:40.352Z</time></trkpt><trkpt lat="46.50344966666666" lon="11.296344150000001"><ele>236.33333333333334</ele><time>2026-05-01T08:29:41.352Z</time></trkpt><trkpt lat="46.50331545000001" lon="11.296537316666669"><ele>236.66666666666669</ele><time>2026-05-01T08:29:42.357Z</time></trkpt><trkpt lat="46.50318015" lon="11.296727400000002"><ele>237.0</ele><time>2026-05-01T08:29:43.352Z</time></trkpt><trkpt lat="46.503044066666675" lon="11.296919283333333"><ele>235.0</ele><time>2026-05-01T08:29:44.354Z</time></trkpt><trkpt lat="46.50290823333333" lon="11.297111916666665"><ele>233.0</ele><time>2026-05-01T08:29:45.358Z</time></trkpt><trkpt lat="46.502771716666665" lon="11.297303416666667"><ele>231.0</ele><time>2026-05-01T08:29:46.378Z</time></trkpt><trkpt lat="46.50263503333334" lon="11.297494216666667"><ele>230.0</ele><time>2026-05-01T08:29:47.356Z</time></trkpt><trkpt lat="46.50249895" lon="11.297689300000002"><ele>229.0</ele><time>2026-05-01T08:29:48.353Z</time></trkpt><trkpt lat="46.5023636" lon="11.297883500000001"><ele>228.0</ele><time>2026-05-01T08:29:49.374Z</time></trkpt><trkpt lat="46.50222480000001" lon="11.298077100000002"><ele>231.0</ele><time>2026-05-01T08:29:50.355Z</time></trkpt><trkpt lat="46.502087550000006" lon="11.298271133333332"><ele>234.0</ele><time>2026-05-01T08:29:51.363Z</time></trkpt><trkpt lat="46.50195158333332" lon="11.298467416666664"><ele>237.0</ele><time>2026-05-01T08:29:52.351Z</time></trkpt><trkpt lat="46.50181668333333" lon="11.298661683333334"><ele>237.0</ele><time>2026-05-01T08:29:53.355Z</time></trkpt><trkpt lat="46.501682200000005" lon="11.298858233333332"><ele>237.0</ele><time>2026-05-01T08:29:54.368Z</time></trkpt><trkpt lat="46.50154431666666" lon="11.299058800000001"><ele>237.0</ele><time>2026-05-01T08:29:55.374Z</time></trkpt><trkpt lat="46.50126286666667" lon="11.299459549999998"><ele>237.0</ele><time>2026-05-01T08:29:57.371Z</time></trkpt><trkpt lat="46.50112578333333" lon="11.299657333333336"><ele>237.0</ele><time>2026-05-01T08:29:58.373Z</time></trkpt><trkpt lat="46.50098976666666" lon="11.299850199999998"><ele>237.0</ele><time>2026-05-01T08:29:59.35Z</time></trkpt><trkpt lat="46.500856199999994" lon="11.3000404"><ele>237.0</ele><time>2026-05-01T08:30:00.358Z</time></trkpt><trkpt lat="46.500723349999994" lon="11.30022775"><ele>237.0</ele><time>2026-05-01T08:30:01.378Z</time></trkpt><trkpt lat="46.50059305" lon="11.300415816666668"><ele>237.0</ele><time>2026-05-01T08:30:02.351Z</time></trkpt><trkpt lat="46.50046058333334" lon="11.3006096"><ele>237.0</ele><time>2026-05-01T08:30:03.358Z</time></trkpt><trkpt lat="46.50032616666667" lon="11.30080365"><ele>237.0</ele><time>2026-05-01T08:30:04.378Z</time></trkpt><trkpt lat="46.50019041666666" lon="11.300996750000001"><ele>237.0</ele><time>2026-05-01T08:30:05.352Z</time></trkpt><trkpt lat="46.50005416666666" lon="11.301194950000003"><ele>237.0</ele><time>2026-05-01T08:30:06.358Z</time></trkpt><trkpt lat="46.499917599999996" lon="11.301394033333334"><ele>237.0</ele><time>2026-05-01T08:30:07.374Z</time></trkpt><trkpt lat="46.49977888333333" lon="11.301594450000001"><ele>237.0</ele><time>2026-05-01T08:30:08.351Z</time></trkpt><trkpt lat="46.49964031666667" lon="11.301795516666667"><ele>237.0</ele><time>2026-05-01T08:30:09.35Z</time></trkpt><trkpt lat="46.49950058333334" lon="11.301999183333331"><ele>237.0</ele><time>2026-05-01T08:30:10.352Z</time></trkpt><trkpt lat="46.499359633333334" lon="11.302208316666668"><ele>237.0</ele><time>2026-05-01T08:30:11.36Z</time></trkpt><trkpt lat="46.499219216666674" lon="11.302415250000001"><ele>237.0</ele><time>2026-05-01T08:30:12.358Z</time></trkpt><trkpt lat="46.499066046773585" lon="11.302603749262758"><ele>237.0</ele><time>2026-05-01T08:30:13.374Z</time></trkpt><trkpt lat="46.49893521666666" lon="11.3028251"><ele>237.0</ele><time>2026-05-01T08:30:14.368Z</time></trkpt><trkpt lat="46.49879728333333" lon="11.303017333333333"><ele>237.33333333333331</ele><time>2026-05-01T08:30:15.358Z</time></trkpt><trkpt lat="46.49866823333333" lon="11.303198666666667"><ele>237.66666666666666</ele><time>2026-05-01T08:30:16.374Z</time></trkpt><trkpt lat="46.49855001666666" lon="11.303366316666667"><ele>238.0</ele><time>2026-05-01T08:30:17.353Z</time></trkpt><trkpt lat="46.49844575" lon="11.303513516666664"><ele>238.0</ele><time>2026-05-01T08:30:18.351Z</time></trkpt><trkpt lat="46.49835385" lon="11.303640233333333"><ele>238.0</ele><time>2026-05-01T08:30:19.373Z</time></trkpt><trkpt lat="46.49827548333333" lon="11.30374778333333"><ele>238.0</ele><time>2026-05-01T08:30:20.357Z</time></trkpt><trkpt lat="46.498208716666674" lon="11.303839216666667"><ele>238.0</ele><time>2026-05-01T08:30:21.36Z</time></trkpt><trkpt lat="46.49815296666667" lon="11.3039118"><ele>238.0</ele><time>2026-05-01T08:30:22.356Z</time></trkpt><trkpt lat="46.49810753333333" lon="11.303980583333335"><ele>238.16666666666666</ele><time>2026-05-01T08:30:23.354Z</time></trkpt><trkpt lat="46.498039133333336" lon="11.304071766666667"><ele>238.33333333333331</ele><time>2026-05-01T08:30:25.374Z</time></trkpt><trkpt lat="46.49798465000001" lon="11.304152083333333"><ele>238.5</ele><time>2026-05-01T08:30:28.376Z</time></trkpt><trkpt lat="46.49794035" lon="11.304239933333333"><ele>238.66666666666669</ele><time>2026-05-01T08:30:48.363Z</time></trkpt><trkpt lat="46.49788743333333" lon="11.3043254"><ele>238.83333333333334</ele><time>2026-05-01T08:30:49.374Z</time></trkpt><trkpt lat="46.49781945" lon="11.304428849999999"><ele>239.0</ele><time>2026-05-01T08:30:50.369Z</time></trkpt><trkpt lat="46.497740099999994" lon="11.304545016666669"><ele>236.66666666666669</ele><time>2026-05-01T08:30:51.358Z</time></trkpt><trkpt lat="46.49762499505982" lon="11.304674751564228"><ele>234.33333333333331</ele><time>2026-05-01T08:30:52.379Z</time></trkpt><trkpt lat="46.49749379415198" lon="11.304858766906044"><ele>232.0</ele><time>2026-05-01T08:30:53.352Z</time></trkpt><trkpt lat="46.49735480881609" lon="11.305059872801227"><ele>232.0</ele><time>2026-05-01T08:30:54.367Z</time></trkpt><trkpt lat="46.49722472369374" lon="11.305245888083332"><ele>232.0</ele><time>2026-05-01T08:30:55.401Z</time></trkpt><trkpt lat="46.497114702572674" lon="11.305400599278341"><ele>232.0</ele><time>2026-05-01T08:30:56.355Z</time></trkpt><trkpt lat="46.497032749999995" lon="11.305548600000002"><ele>233.2</ele><time>2026-05-01T08:30:57.358Z</time></trkpt><trkpt lat="46.496944316666664" lon="11.30566813333333"><ele>234.39999999999998</ele><time>2026-05-01T08:30:58.376Z</time></trkpt><trkpt lat="46.49686185" lon="11.305781816666668"><ele>235.60000000000002</ele><time>2026-05-01T08:30:59.352Z</time></trkpt><trkpt lat="46.49678798333333" lon="11.305888633333334"><ele>236.8</ele><time>2026-05-01T08:31:00.358Z</time></trkpt><trkpt lat="46.49672021666667" lon="11.3059888"><ele>238.0</ele><time>2026-05-01T08:31:01.379Z</time></trkpt><trkpt lat="46.49665196666666" lon="11.3060834"><ele>237.99999999999997</ele><time>2026-05-01T08:31:02.352Z</time></trkpt><trkpt lat="46.496583300000005" lon="11.306181316666668"><ele>238.0</ele><time>2026-05-01T08:31:03.363Z</time></trkpt><trkpt lat="46.49651651666666" lon="11.306276800000001"><ele>238.0</ele><time>2026-05-01T08:31:04.354Z</time></trkpt><trkpt lat="46.49645423333333" lon="11.306362349999999"><ele>238.0</ele><time>2026-05-01T08:31:05.352Z</time></trkpt><trkpt lat="46.496398633333335" lon="11.3064378"><ele>237.99999999999997</ele><time>2026-05-01T08:31:06.374Z</time></trkpt><trkpt lat="46.496344966666655" lon="11.306516549999998"><ele>238.0</ele><time>2026-05-01T08:31:07.351Z</time></trkpt><trkpt lat="46.49628976666666" lon="11.306593983333334"><ele>237.60000000000002</ele><time>2026-05-01T08:31:08.368Z</time></trkpt><trkpt lat="46.49623113333333" lon="11.306682133333334"><ele>237.20000000000002</ele><time>2026-05-01T08:31:09.367Z</time></trkpt><trkpt lat="46.49616290000001" lon="11.306777199999999"><ele>236.8</ele><time>2026-05-01T08:31:10.353Z</time></trkpt><trkpt lat="46.49608886666666" lon="11.306880266666667"><ele>236.4</ele><time>2026-05-01T08:31:11.369Z</time></trkpt><trkpt lat="46.49601141666667" lon="11.30699525"><ele>236.0</ele><time>2026-05-01T08:31:12.364Z</time></trkpt><trkpt lat="46.49592786666667" lon="11.307119516666669"><ele>236.0</ele><time>2026-05-01T08:31:13.35Z</time></trkpt><trkpt lat="46.49584016666666" lon="11.3072359"><ele>236.0</ele><time>2026-05-01T08:31:14.352Z</time></trkpt><trkpt lat="46.49575316666666" lon="11.307355866666668"><ele>236.0</ele><time>2026-05-01T08:31:15.351Z</time></trkpt><trkpt lat="46.49566718333334" lon="11.307481616666665"><ele>236.0</ele><time>2026-05-01T08:31:16.374Z</time></trkpt><trkpt lat="46.49558186666666" lon="11.307608016666666"><ele>235.75</ele><time>2026-05-01T08:31:17.351Z</time></trkpt><trkpt lat="46.495494066666666" lon="11.307741383333333"><ele>235.5</ele><time>2026-05-01T08:31:18.366Z</time></trkpt><trkpt lat="46.495398933333334" lon="11.307880599999997"><ele>235.25</ele><time>2026-05-01T08:31:19.351Z</time></trkpt><trkpt lat="46.495289400000004" lon="11.308032833333334"><ele>235.0</ele><time>2026-05-01T08:31:20.352Z</time></trkpt><trkpt lat="46.495175966666665" lon="11.308195883333333"><ele>236.0</ele><time>2026-05-01T08:31:21.359Z</time></trkpt><trkpt lat="46.49506871666667" lon="11.30835485"><ele>237.0</ele><time>2026-05-01T08:31:22.351Z</time></trkpt><trkpt lat="46.49497066666667" lon="11.308504550000002"><ele>238.0</ele><time>2026-05-01T08:31:23.355Z</time></trkpt><trkpt lat="46.49488320000001" lon="11.308646183333334"><ele>239.0</ele><time>2026-05-01T08:31:24.353Z</time></trkpt><trkpt lat="46.494806966666665" lon="11.308777300000001"><ele>239.0</ele><time>2026-05-01T08:31:25.375Z</time></trkpt><trkpt lat="46.494736849999995" lon="11.308905883333335"><ele>238.99999999999997</ele><time>2026-05-01T08:31:26.356Z</time></trkpt><trkpt lat="46.4946688" lon="11.309033166666666"><ele>238.99999999999997</ele><time>2026-05-01T08:31:27.37Z</time></trkpt><trkpt lat="46.494601349999996" lon="11.3091621"><ele>239.0</ele><time>2026-05-01T08:31:28.352Z</time></trkpt><trkpt lat="46.494532283333335" lon="11.309293716666664"><ele>239.0</ele><time>2026-05-01T08:31:29.354Z</time></trkpt><trkpt lat="46.49446678333334" lon="11.30943175"><ele>238.79999999999998</ele><time>2026-05-01T08:31:30.366Z</time></trkpt><trkpt lat="46.49440716666667" lon="11.3095747"><ele>238.59999999999997</ele><time>2026-05-01T08:31:31.353Z</time></trkpt><trkpt lat="46.49435393333333" lon="11.30971445"><ele>238.4</ele><time>2026-05-01T08:31:32.355Z</time></trkpt><trkpt lat="46.49430528333334" lon="11.309845150000001"><ele>238.2</ele><time>2026-05-01T08:31:34.374Z</time></trkpt><trkpt lat="46.49426226666666" lon="11.309962483333333"><ele>238.0</ele><time>2026-05-01T08:31:35.368Z</time></trkpt><trkpt lat="46.49422271666668" lon="11.310078283333333"><ele>238.0</ele><time>2026-05-01T08:31:36.366Z</time></trkpt><trkpt lat="46.49415234999999" lon="11.31028386666667"><ele>238.0</ele><time>2026-05-01T08:31:37.379Z</time></trkpt><trkpt lat="46.49411623333334" lon="11.310371516666665"><ele>238.0</ele><time>2026-05-01T08:31:38.387Z</time></trkpt><trkpt lat="46.49405436666666" lon="11.310493283333336"><ele>238.0</ele><time>2026-05-01T08:31:40.349Z</time></trkpt><trkpt lat="46.49400618333334" lon="11.310570700000001"><ele>238.0</ele><time>2026-05-01T08:31:42.365Z</time></trkpt><trkpt lat="46.49391808333333" lon="11.310634133333332"><ele>238.0</ele><time>2026-05-01T08:31:44.356Z</time></trkpt><trkpt lat="46.49380601666667" lon="11.310677383333331"><ele>238.0</ele><time>2026-05-01T08:31:46.35Z</time></trkpt><trkpt lat="46.49373359999999" lon="11.310789616666668"><ele>238.0</ele><time>2026-05-01T08:31:48.365Z</time></trkpt><trkpt lat="46.49373841666667" lon="11.310944349999998"><ele>238.0</ele><time>2026-05-01T08:31:50.353Z</time></trkpt><trkpt lat="46.49379583333333" lon="11.311092183333335"><ele>238.0</ele><time>2026-05-01T08:31:52.375Z</time></trkpt><trkpt lat="46.49387088333332" lon="11.31128345"><ele>238.0</ele><time>2026-05-01T08:31:54.364Z</time></trkpt><trkpt lat="46.493896083333325" lon="11.311399"><ele>238.0</ele><time>2026-05-01T08:31:55.375Z</time></trkpt><trkpt lat="46.493913516666666" lon="11.311527566666665"><ele>238.0</ele><time>2026-05-01T08:31:56.358Z</time></trkpt><trkpt lat="46.49392181666667" lon="11.311665716666669"><ele>238.0</ele><time>2026-05-01T08:31:57.359Z</time></trkpt><trkpt lat="46.49392841666666" lon="11.311799900000002"><ele>238.0</ele><time>2026-05-01T08:31:58.351Z</time></trkpt><trkpt lat="46.493936133333335" lon="11.311928983333333"><ele>238.0</ele><time>2026-05-01T08:31:59.354Z</time></trkpt><trkpt lat="46.49392990185684" lon="11.312056479489932"><ele>238.0</ele><time>2026-05-01T08:32:00.352Z</time></trkpt><trkpt lat="46.493958750000004" lon="11.312179083333334"><ele>238.0</ele><time>2026-05-01T08:32:01.375Z</time></trkpt><trkpt lat="46.49396976666667" lon="11.3123106"><ele>238.0</ele><time>2026-05-01T08:32:02.369Z</time></trkpt><trkpt lat="46.49397668333333" lon="11.312445366666669"><ele>238.0</ele><time>2026-05-01T08:32:03.358Z</time></trkpt><trkpt lat="46.493982966666664" lon="11.312588000000002"><ele>238.5</ele><time>2026-05-01T08:32:04.379Z</time></trkpt><trkpt lat="46.49400235" lon="11.312876583333331"><ele>239.0</ele><time>2026-05-01T08:32:06.364Z</time></trkpt><trkpt lat="46.49401344999999" lon="11.313020933333332"><ele>239.5</ele><time>2026-05-01T08:32:07.352Z</time></trkpt><trkpt lat="46.494022516666675" lon="11.313161966666666"><ele>240.0</ele><time>2026-05-01T08:32:08.355Z</time></trkpt><trkpt lat="46.49403073333333" lon="11.313298116666665"><ele>240.0</ele><time>2026-05-01T08:32:09.371Z</time></trkpt><trkpt lat="46.49403900000001" lon="11.313424249999999"><ele>240.0</ele><time>2026-05-01T08:32:10.401Z</time></trkpt><trkpt lat="46.49404526666667" lon="11.313538083333333"><ele>240.0</ele><time>2026-05-01T08:32:11.369Z</time></trkpt><trkpt lat="46.494049833333335" lon="11.313635566666667"><ele>240.0</ele><time>2026-05-01T08:32:12.366Z</time></trkpt><trkpt lat="46.49404911666667" lon="11.313788499999998"><ele>240.0</ele><time>2026-05-01T08:32:14.37Z</time></trkpt><trkpt lat="46.494056183333335" lon="11.313912116666666"><ele>240.0</ele><time>2026-05-01T08:32:16.375Z</time></trkpt><trkpt lat="46.49405998333333" lon="11.314006733333333"><ele>239.5</ele><time>2026-05-01T08:32:19.377Z</time></trkpt><trkpt lat="46.494061366666664" lon="11.314132633333335"><ele>239.0</ele><time>2026-05-01T08:32:57.362Z</time></trkpt><trkpt lat="46.494077133333334" lon="11.314309716666667"><ele>238.5</ele><time>2026-05-01T08:32:59.351Z</time></trkpt><trkpt lat="46.49408568333333" lon="11.314413000000002"><ele>238.0</ele><time>2026-05-01T08:33:00.357Z</time></trkpt><trkpt lat="46.49409288333333" lon="11.31452703333333"><ele>237.5</ele><time>2026-05-01T08:33:01.352Z</time></trkpt><trkpt lat="46.49409990000001" lon="11.3146477"><ele>237.0</ele><time>2026-05-01T08:33:02.357Z</time></trkpt><trkpt lat="46.49410738333333" lon="11.314775249999999"><ele>238.2</ele><time>2026-05-01T08:33:03.365Z</time></trkpt><trkpt lat="46.494116166666664" lon="11.314910433333335"><ele>239.39999999999998</ele><time>2026-05-01T08:33:04.357Z</time></trkpt><trkpt lat="46.49412526666667" lon="11.315048266666668"><ele>240.60000000000002</ele><time>2026-05-01T08:33:05.357Z</time></trkpt><trkpt lat="46.49413361666667" lon="11.315195466666669"><ele>241.8</ele><time>2026-05-01T08:33:06.37Z</time></trkpt><trkpt lat="46.49414466666667" lon="11.315353100000001"><ele>243.0</ele><time>2026-05-01T08:33:07.375Z</time></trkpt><trkpt lat="46.49415668333332" lon="11.315521266666668"><ele>243.0</ele><time>2026-05-01T08:33:08.368Z</time></trkpt><trkpt lat="46.49417356666666" lon="11.315708299999997"><ele>243.0</ele><time>2026-05-01T08:33:09.373Z</time></trkpt><trkpt lat="46.49419113333334" lon="11.315905833333334"><ele>243.0</ele><time>2026-05-01T08:33:10.374Z</time></trkpt><trkpt lat="46.49420613333333" lon="11.31609535"><ele>243.0</ele><time>2026-05-01T08:33:11.356Z</time></trkpt><trkpt lat="46.49421986666666" lon="11.316276550000003"><ele>243.25</ele><time>2026-05-01T08:33:12.365Z</time></trkpt><trkpt lat="46.49423288333334" lon="11.316454233333332"><ele>243.5</ele><time>2026-05-01T08:33:13.352Z</time></trkpt><trkpt lat="46.49424381666666" lon="11.316632516666669"><ele>243.75</ele><time>2026-05-01T08:33:14.353Z</time></trkpt><trkpt lat="46.49425391666667" lon="11.316814283333333"><ele>244.0</ele><time>2026-05-01T08:33:15.371Z</time></trkpt><trkpt lat="46.494258450000004" lon="11.317002366666669"><ele>244.0</ele><time>2026-05-01T08:33:16.375Z</time></trkpt><trkpt lat="46.49426256666667" lon="11.31719175"><ele>244.0</ele><time>2026-05-01T08:33:17.353Z</time></trkpt><trkpt lat="46.49427001666667" lon="11.317379650000003"><ele>244.0</ele><time>2026-05-01T08:33:18.363Z</time></trkpt><trkpt lat="46.494278550000004" lon="11.317561983333334"><ele>244.0</ele><time>2026-05-01T08:33:19.375Z</time></trkpt><trkpt lat="46.49428666666666" lon="11.31774785"><ele>245.25</ele><time>2026-05-01T08:33:20.353Z</time></trkpt><trkpt lat="46.494296600000006" lon="11.3179321"><ele>246.5</ele><time>2026-05-01T08:33:21.357Z</time></trkpt><trkpt lat="46.4943063" lon="11.3181137"><ele>247.75</ele><time>2026-05-01T08:33:22.352Z</time></trkpt><trkpt lat="46.49432143333333" lon="11.318298883333332"><ele>249.0</ele><time>2026-05-01T08:33:23.364Z</time></trkpt><trkpt lat="46.49433401666666" lon="11.318486233333333"><ele>249.0</ele><time>2026-05-01T08:33:24.366Z</time></trkpt><trkpt lat="46.49434183333333" lon="11.318675116666668"><ele>249.0</ele><time>2026-05-01T08:33:25.376Z</time></trkpt><trkpt lat="46.49434973333333" lon="11.318863016666667"><ele>249.0</ele><time>2026-05-01T08:33:26.369Z</time></trkpt><trkpt lat="46.494360533333335" lon="11.319050066666668"><ele>249.0</ele><time>2026-05-01T08:33:27.359Z</time></trkpt><trkpt lat="46.49437308333332" lon="11.3192365"><ele>249.0</ele><time>2026-05-01T08:33:28.377Z</time></trkpt><trkpt lat="46.49438526666667" lon="11.319422216666664"><ele>249.0</ele><time>2026-05-01T08:33:29.352Z</time></trkpt><trkpt lat="46.49439443333334" lon="11.319605483333332"><ele>249.0</ele><time>2026-05-01T08:33:30.349Z</time></trkpt><trkpt lat="46.49440668333333" lon="11.319783183333334"><ele>249.0</ele><time>2026-05-01T08:33:31.358Z</time></trkpt><trkpt lat="46.494420850000004" lon="11.319959933333333"><ele>248.25</ele><time>2026-05-01T08:33:32.357Z</time></trkpt><trkpt lat="46.49443128333334" lon="11.32013785"><ele>247.5</ele><time>2026-05-01T08:33:33.359Z</time></trkpt><trkpt lat="46.49444158333334" lon="11.32031245"><ele>246.75</ele><time>2026-05-01T08:33:34.358Z</time></trkpt><trkpt lat="46.49445416666668" lon="11.320487400000001"><ele>246.0</ele><time>2026-05-01T08:33:35.356Z</time></trkpt><trkpt lat="46.494468016666666" lon="11.320669050000001"><ele>246.0</ele><time>2026-05-01T08:33:36.371Z</time></trkpt><trkpt lat="46.494480300000006" lon="11.320857966666665"><ele>246.0</ele><time>2026-05-01T08:33:37.375Z</time></trkpt><trkpt lat="46.49449378333333" lon="11.321043233333334"><ele>246.0</ele><time>2026-05-01T08:33:38.353Z</time></trkpt><trkpt lat="46.49450409999999" lon="11.3212291"><ele>246.0</ele><time>2026-05-01T08:33:39.374Z</time></trkpt><trkpt lat="46.4945136" lon="11.3214156"><ele>246.5</ele><time>2026-05-01T08:33:40.378Z</time></trkpt><trkpt lat="46.4945247" lon="11.3216005"><ele>247.0</ele><time>2026-05-01T08:33:41.371Z</time></trkpt><trkpt lat="46.4945275" lon="11.321781133333332"><ele>247.5</ele><time>2026-05-01T08:33:42.359Z</time></trkpt><trkpt lat="46.49453360000001" lon="11.321967683333332"><ele>248.0</ele><time>2026-05-01T08:33:43.375Z</time></trkpt><trkpt lat="46.494547700000005" lon="11.3221586"><ele>247.75</ele><time>2026-05-01T08:33:44.371Z</time></trkpt><trkpt lat="46.49455846666667" lon="11.3223481"><ele>247.5</ele><time>2026-05-01T08:33:45.371Z</time></trkpt><trkpt lat="46.49456828333333" lon="11.322539833333334"><ele>247.25</ele><time>2026-05-01T08:33:46.395Z</time></trkpt><trkpt lat="46.49457873333334" lon="11.322729650000001"><ele>247.0</ele><time>2026-05-01T08:33:47.353Z</time></trkpt><trkpt lat="46.494586116666675" lon="11.322924366666665"><ele>248.25</ele><time>2026-05-01T08:33:48.363Z</time></trkpt><trkpt lat="46.494593" lon="11.323118600000003"><ele>249.5</ele><time>2026-05-01T08:33:49.377Z</time></trkpt><trkpt lat="46.49460248333333" lon="11.323305233333334"><ele>250.75</ele><time>2026-05-01T08:33:50.358Z</time></trkpt><trkpt lat="46.494613216666664" lon="11.323487566666666"><ele>252.0</ele><time>2026-05-01T08:33:51.375Z</time></trkpt><trkpt lat="46.49462366666667" lon="11.323669500000003"><ele>252.0</ele><time>2026-05-01T08:33:52.377Z</time></trkpt><trkpt lat="46.49463406666667" lon="11.323851083333333"><ele>252.0</ele><time>2026-05-01T08:33:53.37Z</time></trkpt><trkpt lat="46.49464545000001" lon="11.324034950000003"><ele>252.0</ele><time>2026-05-01T08:33:54.373Z</time></trkpt><trkpt lat="46.49466553333333" lon="11.324398766666665"><ele>252.5</ele><time>2026-05-01T08:33:56.352Z</time></trkpt><trkpt lat="46.49467643333334" lon="11.324583383333334"><ele>253.0</ele><time>2026-05-01T08:33:57.365Z</time></trkpt><trkpt lat="46.494684916666664" lon="11.324768133333336"><ele>253.5</ele><time>2026-05-01T08:33:58.382Z</time></trkpt><trkpt lat="46.49469243333333" lon="11.324951500000001"><ele>254.0</ele><time>2026-05-01T08:33:59.353Z</time></trkpt><trkpt lat="46.494702733333334" lon="11.325134616666665"><ele>254.0</ele><time>2026-05-01T08:34:00.363Z</time></trkpt><trkpt lat="46.494713299999994" lon="11.325317916666664"><ele>254.0</ele><time>2026-05-01T08:34:01.353Z</time></trkpt><trkpt lat="46.494726850000006" lon="11.325502766666666"><ele>254.0</ele><time>2026-05-01T08:34:02.367Z</time></trkpt><trkpt lat="46.494738383333335" lon="11.3256874"><ele>254.0</ele><time>2026-05-01T08:34:03.374Z</time></trkpt><trkpt lat="46.4947493" lon="11.3258675"><ele>252.75</ele><time>2026-05-01T08:34:04.38Z</time></trkpt><trkpt lat="46.49475906666667" lon="11.326049616666667"><ele>251.5</ele><time>2026-05-01T08:34:05.37Z</time></trkpt><trkpt lat="46.49477033333332" lon="11.326233466666668"><ele>250.25</ele><time>2026-05-01T08:34:06.366Z</time></trkpt><trkpt lat="46.49478391666666" lon="11.326420566666664"><ele>249.0</ele><time>2026-05-01T08:34:07.4Z</time></trkpt><trkpt lat="46.49479823333333" lon="11.326614549999999"><ele>249.0</ele><time>2026-05-01T08:34:08.358Z</time></trkpt><trkpt lat="46.49481218333334" lon="11.326814916666669"><ele>249.0</ele><time>2026-05-01T08:34:09.359Z</time></trkpt><trkpt lat="46.49482601666667" lon="11.3270174"><ele>249.0</ele><time>2026-05-01T08:34:10.375Z</time></trkpt><trkpt lat="46.494839799999994" lon="11.327218916666668"><ele>249.0</ele><time>2026-05-01T08:34:11.353Z</time></trkpt><trkpt lat="46.494851233333335" lon="11.327412250000002"><ele>249.2</ele><time>2026-05-01T08:34:12.373Z</time></trkpt><trkpt lat="46.494858449999995" lon="11.327587883333335"><ele>249.39999999999998</ele><time>2026-05-01T08:34:13.379Z</time></trkpt><trkpt lat="46.494868033333326" lon="11.327745683333333"><ele>249.6</ele><time>2026-05-01T08:34:14.358Z</time></trkpt><trkpt lat="46.49487721666666" lon="11.327899683333332"><ele>249.8</ele><time>2026-05-01T08:34:15.372Z</time></trkpt><trkpt lat="46.49488488333333" lon="11.328054999999997"><ele>250.0</ele><time>2026-05-01T08:34:16.356Z</time></trkpt><trkpt lat="46.49488855" lon="11.3282119"><ele>250.0</ele><time>2026-05-01T08:34:17.368Z</time></trkpt><trkpt lat="46.49489431666666" lon="11.328380699999999"><ele>250.0</ele><time>2026-05-01T08:34:18.377Z</time></trkpt><trkpt lat="46.494898766666665" lon="11.328553416666667"><ele>250.0</ele><time>2026-05-01T08:34:19.351Z</time></trkpt><trkpt lat="46.494902583333335" lon="11.328725433333334"><ele>250.0</ele><time>2026-05-01T08:34:20.353Z</time></trkpt><trkpt lat="46.49490953333334" lon="11.328900316666667"><ele>250.0</ele><time>2026-05-01T08:34:21.373Z</time></trkpt><trkpt lat="46.49492071666667" lon="11.329079166666668"><ele>250.0</ele><time>2026-05-01T08:34:22.357Z</time></trkpt><trkpt lat="46.49493798333334" lon="11.329261183333333"><ele>250.0</ele><time>2026-05-01T08:34:23.356Z</time></trkpt><trkpt lat="46.49495265" lon="11.329445733333333"><ele>250.0</ele><time>2026-05-01T08:34:24.373Z</time></trkpt><trkpt lat="46.49495074857509" lon="11.329636164970339"><ele>250.0</ele><time>2026-05-01T08:34:25.375Z</time></trkpt><trkpt lat="46.494962076019064" lon="11.329825777059444"><ele>250.0</ele><time>2026-05-01T08:34:26.352Z</time></trkpt><trkpt lat="46.49497228669441" lon="11.330010870823797"><ele>250.0</ele><time>2026-05-01T08:34:27.352Z</time></trkpt><trkpt lat="46.494980036954445" lon="11.330195862119664"><ele>250.0</ele><time>2026-05-01T08:34:28.352Z</time></trkpt><trkpt lat="46.49498419828996" lon="11.33038181830653"><ele>250.5</ele><time>2026-05-01T08:34:29.356Z</time></trkpt><trkpt lat="46.494995309508845" lon="11.330563958369474"><ele>251.0</ele><time>2026-05-01T08:34:30.359Z</time></trkpt><trkpt lat="46.49500696372184" lon="11.330746667337651"><ele>251.5</ele><time>2026-05-01T08:34:31.352Z</time></trkpt><trkpt lat="46.495018594985154" lon="11.330929016243555"><ele>252.0</ele><time>2026-05-01T08:34:32.357Z</time></trkpt><trkpt lat="46.495030118567364" lon="11.331109676604099"><ele>252.0</ele><time>2026-05-01T08:34:33.366Z</time></trkpt><trkpt lat="46.49503994319368" lon="11.331280281538605"><ele>252.0</ele><time>2026-05-01T08:34:34.375Z</time></trkpt><trkpt lat="46.495048357483256" lon="11.331428565389952"><ele>252.0</ele><time>2026-05-01T08:34:35.353Z</time></trkpt><trkpt lat="46.49505435430921" lon="11.331541673405741"><ele>252.0</ele><time>2026-05-01T08:34:36.354Z</time></trkpt><trkpt lat="46.495062362934426" lon="11.33169373329253"><ele>252.0</ele><time>2026-05-01T08:34:38.368Z</time></trkpt><trkpt lat="46.49506785722601" lon="11.331798053438131"><ele>252.14285714285714</ele><time>2026-05-01T08:34:40.35Z</time></trkpt><trkpt lat="46.49508171666667" lon="11.331889750000002"><ele>252.28571428571428</ele><time>2026-05-01T08:34:43.375Z</time></trkpt><trkpt lat="46.49507371666667" lon="11.332005283333334"><ele>252.42857142857144</ele><time>2026-05-01T08:34:47.357Z</time></trkpt><trkpt lat="46.495068966666665" lon="11.332098533333332"><ele>252.57142857142858</ele><time>2026-05-01T08:34:49.376Z</time></trkpt><trkpt lat="46.49506553333333" lon="11.332197266666666"><ele>252.71428571428572</ele><time>2026-05-01T08:34:52.375Z</time></trkpt><trkpt lat="46.495070333333324" lon="11.332296566666667"><ele>252.8571428571429</ele><time>2026-05-01T08:34:55.377Z</time></trkpt><trkpt lat="46.49508434999999" lon="11.332419899999998"><ele>253.00000000000003</ele><time>2026-05-01T08:34:58.353Z</time></trkpt><trkpt lat="46.49510205" lon="11.332541199999998"><ele>253.00000000000003</ele><time>2026-05-01T08:35:01.376Z</time></trkpt><trkpt lat="46.495097316666666" lon="11.332639983333337"><ele>253.0</ele><time>2026-05-01T08:35:03.363Z</time></trkpt><trkpt lat="46.49509611666667" lon="11.332732649999999"><ele>253.00000000000003</ele><time>2026-05-01T08:35:05.354Z</time></trkpt><trkpt lat="46.49510335" lon="11.33286825"><ele>253.00000000000003</ele><time>2026-05-01T08:35:07.376Z</time></trkpt><trkpt lat="46.495107250000004" lon="11.332960533333335"><ele>253.0</ele><time>2026-05-01T08:35:08.359Z</time></trkpt><trkpt lat="46.49511236666667" lon="11.33306495"><ele>253.00000000000003</ele><time>2026-05-01T08:35:09.359Z</time></trkpt><trkpt lat="46.495118783333325" lon="11.333177866666665"><ele>253.00000000000003</ele><time>2026-05-01T08:35:10.376Z</time></trkpt><trkpt lat="46.49512200000001" lon="11.3332895"><ele>253.33333333333331</ele><time>2026-05-01T08:35:11.354Z</time></trkpt><trkpt lat="46.49513026666666" lon="11.333394733333334"><ele>253.66666666666666</ele><time>2026-05-01T08:35:12.37Z</time></trkpt><trkpt lat="46.49514455" lon="11.333502066666664"><ele>254.0</ele><time>2026-05-01T08:35:13.376Z</time></trkpt><trkpt lat="46.4951535" lon="11.333609483333332"><ele>254.33333333333331</ele><time>2026-05-01T08:35:14.354Z</time></trkpt><trkpt lat="46.495162" lon="11.333718516666666"><ele>254.66666666666666</ele><time>2026-05-01T08:35:15.372Z</time></trkpt><trkpt lat="46.495166950000005" lon="11.333832566666668"><ele>255.0</ele><time>2026-05-01T08:35:16.375Z</time></trkpt><trkpt lat="46.495170433333335" lon="11.333947699999998"><ele>255.0</ele><time>2026-05-01T08:35:17.37Z</time></trkpt><trkpt lat="46.49517843333333" lon="11.334068316666665"><ele>255.0</ele><time>2026-05-01T08:35:18.372Z</time></trkpt><trkpt lat="46.495185850000006" lon="11.334195983333332"><ele>255.0</ele><time>2026-05-01T08:35:19.376Z</time></trkpt><trkpt lat="46.49519261666666" lon="11.3343269"><ele>255.0</ele><time>2026-05-01T08:35:20.357Z</time></trkpt><trkpt lat="46.49519811666668" lon="11.33445945"><ele>255.0</ele><time>2026-05-01T08:35:21.371Z</time></trkpt><trkpt lat="46.49520420000001" lon="11.334586266666667"><ele>255.0</ele><time>2026-05-01T08:35:22.401Z</time></trkpt><trkpt lat="46.495210549999996" lon="11.33470335"><ele>255.5</ele><time>2026-05-01T08:35:23.357Z</time></trkpt><trkpt lat="46.49521218333333" lon="11.334801783333335"><ele>256.0</ele><time>2026-05-01T08:35:24.366Z</time></trkpt><trkpt lat="46.49520495" lon="11.334964483333334"><ele>256.5</ele><time>2026-05-01T08:35:26.372Z</time></trkpt><trkpt lat="46.49521656666667" lon="11.33507215"><ele>257.0</ele><time>2026-05-01T08:35:28.381Z</time></trkpt><trkpt lat="46.4952508" lon="11.335174433333334"><ele>257.5</ele><time>2026-05-01T08:35:53.37Z</time></trkpt><trkpt lat="46.495267600000005" lon="11.335330033333333"><ele>258.0</ele><time>2026-05-01T08:35:56.356Z</time></trkpt><trkpt lat="46.49528076666667" lon="11.335485583333332"><ele>258.3333333333333</ele><time>2026-05-01T08:35:58.351Z</time></trkpt><trkpt lat="46.495302966666664" lon="11.33565035"><ele>258.6666666666667</ele><time>2026-05-01T08:36:00.373Z</time></trkpt><trkpt lat="46.49531064999999" lon="11.335746533333335"><ele>259.0</ele><time>2026-05-01T08:36:01.378Z</time></trkpt><trkpt lat="46.495311316666665" lon="11.33585085"><ele>259.33333333333337</ele><time>2026-05-01T08:36:02.367Z</time></trkpt><trkpt lat="46.495311066666666" lon="11.335964200000001"><ele>259.6666666666667</ele><time>2026-05-01T08:36:03.352Z</time></trkpt><trkpt lat="46.495309383333336" lon="11.33608415"><ele>260.0</ele><time>2026-05-01T08:36:04.355Z</time></trkpt><trkpt lat="46.49530776666667" lon="11.336204883333336"><ele>260.0</ele><time>2026-05-01T08:36:05.37Z</time></trkpt><trkpt lat="46.49530401666666" lon="11.336320733333332"><ele>260.0</ele><time>2026-05-01T08:36:06.366Z</time></trkpt><trkpt lat="46.49529958333333" lon="11.336427683333334"><ele>260.0</ele><time>2026-05-01T08:36:07.354Z</time></trkpt><trkpt lat="46.495292649999996" lon="11.336534016666667"><ele>260.0</ele><time>2026-05-01T08:36:08.354Z</time></trkpt><trkpt lat="46.49527965" lon="11.336646433333332"><ele>260.0</ele><time>2026-05-01T08:36:09.371Z</time></trkpt><trkpt lat="46.495261799999994" lon="11.336763833333334"><ele>260.0</ele><time>2026-05-01T08:36:10.352Z</time></trkpt><trkpt lat="46.495244283333335" lon="11.336887200000001"><ele>260.2</ele><time>2026-05-01T08:36:11.37Z</time></trkpt><trkpt lat="46.49522650000001" lon="11.337014266666666"><ele>260.4</ele><time>2026-05-01T08:36:12.354Z</time></trkpt><trkpt lat="46.49521273333333" lon="11.337141299999999"><ele>260.6</ele><time>2026-05-01T08:36:13.376Z</time></trkpt><trkpt lat="46.495197833333336" lon="11.337271983333336"><ele>260.8</ele><time>2026-05-01T08:36:14.356Z</time></trkpt><trkpt lat="46.49518445000001" lon="11.337405216666665"><ele>261.0</ele><time>2026-05-01T08:36:15.365Z</time></trkpt><trkpt lat="46.49517726666666" lon="11.337538383333333"><ele>261.0</ele><time>2026-05-01T08:36:16.351Z</time></trkpt><trkpt lat="46.49517221666667" lon="11.337664433333336"><ele>261.0</ele><time>2026-05-01T08:36:17.351Z</time></trkpt><trkpt lat="46.49516546666668" lon="11.3377824"><ele>261.0</ele><time>2026-05-01T08:36:18.374Z</time></trkpt><trkpt lat="46.49515351666667" lon="11.337886883333331"><ele>261.0</ele><time>2026-05-01T08:36:19.351Z</time></trkpt><trkpt lat="46.495141916666675" lon="11.337987033333333"><ele>261.0</ele><time>2026-05-01T08:36:20.371Z</time></trkpt><trkpt lat="46.495131166666674" lon="11.338089383333333"><ele>261.0</ele><time>2026-05-01T08:36:21.36Z</time></trkpt><trkpt lat="46.495121383333334" lon="11.3381978"><ele>261.1666666666667</ele><time>2026-05-01T08:36:22.352Z</time></trkpt><trkpt lat="46.495113766666655" lon="11.338312966666669"><ele>261.3333333333333</ele><time>2026-05-01T08:36:23.356Z</time></trkpt><trkpt lat="46.4951012" lon="11.338434099999999"><ele>261.5</ele><time>2026-05-01T08:36:24.37Z</time></trkpt><trkpt lat="46.49508521666666" lon="11.3385556"><ele>261.66666666666663</ele><time>2026-05-01T08:36:25.39Z</time></trkpt><trkpt lat="46.49506963333333" lon="11.338677216666667"><ele>261.8333333333333</ele><time>2026-05-01T08:36:26.401Z</time></trkpt><trkpt lat="46.49505571666667" lon="11.338797399999999"><ele>262.0</ele><time>2026-05-01T08:36:27.37Z</time></trkpt><trkpt lat="46.49504700000001" lon="11.33891166666667"><ele>262.0</ele><time>2026-05-01T08:36:28.379Z</time></trkpt><trkpt lat="46.49503483333333" lon="11.33901975"><ele>262.0</ele><time>2026-05-01T08:36:29.358Z</time></trkpt><trkpt lat="46.49502238333333" lon="11.339123716666666"><ele>262.0</ele><time>2026-05-01T08:36:30.374Z</time></trkpt><trkpt lat="46.49500891666667" lon="11.339217583333335"><ele>262.0</ele><time>2026-05-01T08:36:31.376Z</time></trkpt><trkpt lat="46.49499049999999" lon="11.339370650000001"><ele>262.0</ele><time>2026-05-01T08:36:33.365Z</time></trkpt><trkpt lat="46.49497681666667" lon="11.339525116666668"><ele>262.0</ele><time>2026-05-01T08:36:35.364Z</time></trkpt><trkpt lat="46.494955733333335" lon="11.339709816666668"><ele>262.0</ele><time>2026-05-01T08:36:37.378Z</time></trkpt><trkpt lat="46.49494135" lon="11.339808816666668"><ele>262.0</ele><time>2026-05-01T08:36:38.358Z</time></trkpt><trkpt lat="46.49493065" lon="11.339911883333333"><ele>262.0</ele><time>2026-05-01T08:36:39.359Z</time></trkpt><trkpt lat="46.49491423333334" lon="11.340015316666666"><ele>262.0</ele><time>2026-05-01T08:36:40.376Z</time></trkpt><trkpt lat="46.494905349999996" lon="11.340115866666668"><ele>262.0</ele><time>2026-05-01T08:36:41.355Z</time></trkpt><trkpt lat="46.4948976" lon="11.340219933333334"><ele>262.0</ele><time>2026-05-01T08:36:42.352Z</time></trkpt><trkpt lat="46.49488786666667" lon="11.340324916666669"><ele>262.0</ele><time>2026-05-01T08:36:43.38Z</time></trkpt><trkpt lat="46.49488128333334" lon="11.340433416666668"><ele>262.3333333333333</ele><time>2026-05-01T08:36:44.358Z</time></trkpt><trkpt lat="46.494872" lon="11.340550949999999"><ele>262.66666666666663</ele><time>2026-05-01T08:36:45.373Z</time></trkpt><trkpt lat="46.49486568333334" lon="11.3406669"><ele>263.0</ele><time>2026-05-01T08:36:46.351Z</time></trkpt><trkpt lat="46.49486298333333" lon="11.340775433333333"><ele>263.3333333333333</ele><time>2026-05-01T08:36:47.367Z</time></trkpt><trkpt lat="46.49485721666667" lon="11.340883083333331"><ele>263.6666666666667</ele><time>2026-05-01T08:36:48.35Z</time></trkpt><trkpt lat="46.49485" lon="11.340997083333331"><ele>264.0</ele><time>2026-05-01T08:36:49.375Z</time></trkpt><trkpt lat="46.49484055" lon="11.341116816666666"><ele>264.0</ele><time>2026-05-01T08:36:50.374Z</time></trkpt><trkpt lat="46.49483140000001" lon="11.341241250000001"><ele>264.0</ele><time>2026-05-01T08:36:51.367Z</time></trkpt><trkpt lat="46.49481835" lon="11.341369283333332"><ele>264.0</ele><time>2026-05-01T08:36:52.357Z</time></trkpt><trkpt lat="46.49480165" lon="11.341500049999999"><ele>264.0</ele><time>2026-05-01T08:36:53.352Z</time></trkpt><trkpt lat="46.49478741666667" lon="11.34162855"><ele>264.0</ele><time>2026-05-01T08:36:54.37Z</time></trkpt><trkpt lat="46.49477361666667" lon="11.341752183333332"><ele>264.0</ele><time>2026-05-01T08:36:55.356Z</time></trkpt><trkpt lat="46.494762366666656" lon="11.341877033333333"><ele>263.2</ele><time>2026-05-01T08:36:56.363Z</time></trkpt><trkpt lat="46.49474455" lon="11.342003216666667"><ele>262.4</ele><time>2026-05-01T08:36:57.374Z</time></trkpt><trkpt lat="46.49471148333333" lon="11.342236516666665"><ele>261.6</ele><time>2026-05-01T08:36:59.356Z</time></trkpt><trkpt lat="46.49469791666667" lon="11.342331866666665"><ele>260.8</ele><time>2026-05-01T08:37:00.374Z</time></trkpt><trkpt lat="46.49467971666666" lon="11.342485583333334"><ele>260.0</ele><time>2026-05-01T08:37:02.359Z</time></trkpt><trkpt lat="46.494670833333345" lon="11.342577266666668"><ele>260.0</ele><time>2026-05-01T08:37:04.357Z</time></trkpt><trkpt lat="46.49466638333333" lon="11.342697183333334"><ele>260.0</ele><time>2026-05-01T08:37:13.35Z</time></trkpt><trkpt lat="46.494666083333335" lon="11.342819566666666"><ele>260.0</ele><time>2026-05-01T08:37:16.353Z</time></trkpt><trkpt lat="46.49466971666667" lon="11.342922366666668"><ele>260.0</ele><time>2026-05-01T08:37:20.373Z</time></trkpt><trkpt lat="46.49466253333334" lon="11.343014883333334"><ele>260.0</ele><time>2026-05-01T08:37:34.355Z</time></trkpt><trkpt lat="46.4946436" lon="11.34318548333333"><ele>260.0</ele><time>2026-05-01T08:37:36.372Z</time></trkpt><trkpt lat="46.49463805" lon="11.343288183333334"><ele>260.5</ele><time>2026-05-01T08:37:37.376Z</time></trkpt><trkpt lat="46.49463645000001" lon="11.343384716666666"><ele>261.0</ele><time>2026-05-01T08:37:38.357Z</time></trkpt><trkpt lat="46.494636099999994" lon="11.34348685"><ele>261.5</ele><time>2026-05-01T08:37:39.358Z</time></trkpt><trkpt lat="46.49463901666667" lon="11.343597900000002"><ele>262.0</ele><time>2026-05-01T08:37:40.376Z</time></trkpt><trkpt lat="46.494641533333336" lon="11.343715133333335"><ele>262.5</ele><time>2026-05-01T08:37:41.356Z</time></trkpt><trkpt lat="46.49464568333333" lon="11.343837083333334"><ele>263.0</ele><time>2026-05-01T08:37:42.363Z</time></trkpt><trkpt lat="46.494648049999995" lon="11.343962733333335"><ele>263.0</ele><time>2026-05-01T08:37:43.351Z</time></trkpt><trkpt lat="46.49464938333334" lon="11.344091016666669"><ele>263.0</ele><time>2026-05-01T08:37:44.37Z</time></trkpt><trkpt lat="46.494649349999996" lon="11.344224400000002"><ele>263.0</ele><time>2026-05-01T08:37:45.364Z</time></trkpt><trkpt lat="46.49465023333334" lon="11.3443593"><ele>263.0</ele><time>2026-05-01T08:37:46.376Z</time></trkpt><trkpt lat="46.49465491666666" lon="11.344498233333335"><ele>263.0</ele><time>2026-05-01T08:37:47.357Z</time></trkpt><trkpt lat="46.494656733333336" lon="11.344644216666667"><ele>263.0</ele><time>2026-05-01T08:37:48.355Z</time></trkpt><trkpt lat="46.49465376666667" lon="11.34479598333333"><ele>263.0</ele><time>2026-05-01T08:37:49.376Z</time></trkpt><trkpt lat="46.494650166666666" lon="11.344949283333335"><ele>263.0</ele><time>2026-05-01T08:37:50.354Z</time></trkpt><trkpt lat="46.49465863333334" lon="11.345107350000001"><ele>263.0</ele><time>2026-05-01T08:37:51.369Z</time></trkpt><trkpt lat="46.49466215" lon="11.345273783333335"><ele>263.0</ele><time>2026-05-01T08:37:52.352Z</time></trkpt><trkpt lat="46.49466535" lon="11.345438000000001"><ele>263.6</ele><time>2026-05-01T08:37:53.354Z</time></trkpt><trkpt lat="46.49466578333333" lon="11.345592600000002"><ele>264.20000000000005</ele><time>2026-05-01T08:37:54.367Z</time></trkpt><trkpt lat="46.49466904999999" lon="11.345735999999999"><ele>264.8</ele><time>2026-05-01T08:37:55.376Z</time></trkpt><trkpt lat="46.49466898333333" lon="11.34586835"><ele>265.40000000000003</ele><time>2026-05-01T08:37:56.37Z</time></trkpt><trkpt lat="46.49466933333333" lon="11.34599485"><ele>266.0</ele><time>2026-05-01T08:37:57.371Z</time></trkpt><trkpt lat="46.49467068333333" lon="11.3461245"><ele>266.5</ele><time>2026-05-01T08:37:58.375Z</time></trkpt><trkpt lat="46.49466743333334" lon="11.346391733333334"><ele>267.0</ele><time>2026-05-01T08:38:00.361Z</time></trkpt><trkpt lat="46.4946654" lon="11.346530383333334"><ele>267.5</ele><time>2026-05-01T08:38:01.381Z</time></trkpt><trkpt lat="46.494662500000004" lon="11.346676133333334"><ele>268.0</ele><time>2026-05-01T08:38:02.388Z</time></trkpt><trkpt lat="46.494663083333336" lon="11.346828"><ele>268.0</ele><time>2026-05-01T08:38:03.366Z</time></trkpt><trkpt lat="46.49466525" lon="11.34698265"><ele>268.0</ele><time>2026-05-01T08:38:04.357Z</time></trkpt><trkpt lat="46.49467168333334" lon="11.347132516666667"><ele>268.0</ele><time>2026-05-01T08:38:05.356Z</time></trkpt><trkpt lat="46.49468135" lon="11.347277433333334"><ele>268.0</ele><time>2026-05-01T08:38:06.367Z</time></trkpt><trkpt lat="46.494693283333326" lon="11.347420633333336"><ele>268.0</ele><time>2026-05-01T08:38:07.376Z</time></trkpt><trkpt lat="46.49470971666666" lon="11.347562916666668"><ele>267.2</ele><time>2026-05-01T08:38:08.354Z</time></trkpt><trkpt lat="46.49472826666667" lon="11.347711866666668"><ele>266.4</ele><time>2026-05-01T08:38:09.364Z</time></trkpt><trkpt lat="46.49474586666667" lon="11.347863250000001"><ele>265.59999999999997</ele><time>2026-05-01T08:38:10.354Z</time></trkpt><trkpt lat="46.49476433333333" lon="11.348007350000001"><ele>264.8</ele><time>2026-05-01T08:38:11.383Z</time></trkpt><trkpt lat="46.494781399999994" lon="11.3481495"><ele>264.0</ele><time>2026-05-01T08:38:12.371Z</time></trkpt><trkpt lat="46.49479518333333" lon="11.348285666666666"><ele>264.0</ele><time>2026-05-01T08:38:13.35Z</time></trkpt><trkpt lat="46.49480713333334" lon="11.348415383333334"><ele>264.0</ele><time>2026-05-01T08:38:14.355Z</time></trkpt><trkpt lat="46.494819899999996" lon="11.348544433333332"><ele>264.0</ele><time>2026-05-01T08:38:15.36Z</time></trkpt><trkpt lat="46.49483396666666" lon="11.348672216666667"><ele>264.0</ele><time>2026-05-01T08:38:16.376Z</time></trkpt><trkpt lat="46.49485156666666" lon="11.348804216666668"><ele>264.0</ele><time>2026-05-01T08:38:17.354Z</time></trkpt><trkpt lat="46.494870049999996" lon="11.348936866666667"><ele>264.3333333333333</ele><time>2026-05-01T08:38:18.368Z</time></trkpt><trkpt lat="46.49489078333333" lon="11.3490681"><ele>264.6666666666667</ele><time>2026-05-01T08:38:19.377Z</time></trkpt><trkpt lat="46.494911699999996" lon="11.349199233333332"><ele>265.0</ele><time>2026-05-01T08:38:20.362Z</time></trkpt><trkpt lat="46.4949294" lon="11.349329916666665"><ele>265.33333333333337</ele><time>2026-05-01T08:38:21.371Z</time></trkpt><trkpt lat="46.494944800000006" lon="11.349454050000002"><ele>265.6666666666667</ele><time>2026-05-01T08:38:22.356Z</time></trkpt><trkpt lat="46.494958016666665" lon="11.349575666666667"><ele>266.0</ele><time>2026-05-01T08:38:23.369Z</time></trkpt><trkpt lat="46.49497476666667" lon="11.34969925"><ele>266.0</ele><time>2026-05-01T08:38:24.352Z</time></trkpt><trkpt lat="46.49499666666667" lon="11.349829150000001"><ele>266.0</ele><time>2026-05-01T08:38:25.352Z</time></trkpt><trkpt lat="46.49501516666666" lon="11.34996335"><ele>266.0</ele><time>2026-05-01T08:38:26.372Z</time></trkpt><trkpt lat="46.49502421666666" lon="11.350108583333332"><ele>266.0</ele><time>2026-05-01T08:38:27.374Z</time></trkpt><trkpt lat="46.495059172878314" lon="11.350241231255758"><ele>266.0</ele><time>2026-05-01T08:38:28.378Z</time></trkpt><trkpt lat="46.495077759443035" lon="11.350368561166457"><ele>266.0</ele><time>2026-05-01T08:38:29.373Z</time></trkpt><trkpt lat="46.495113677009805" lon="11.350614618632585"><ele>266.0</ele><time>2026-05-01T08:38:31.377Z</time></trkpt><trkpt lat="46.49513156664382" lon="11.350738048545956"><ele>266.0</ele><time>2026-05-01T08:38:32.357Z</time></trkpt><trkpt lat="46.495149390199835" lon="11.350861654527543"><ele>266.0</ele><time>2026-05-01T08:38:33.37Z</time></trkpt><trkpt lat="46.49516679758594" lon="11.350982380065714"><ele>266.0</ele><time>2026-05-01T08:38:34.398Z</time></trkpt><trkpt lat="46.49518433032673" lon="11.35110397652064"><ele>266.0</ele><time>2026-05-01T08:38:35.355Z</time></trkpt><trkpt lat="46.49520173551633" lon="11.35122468835831"><ele>266.0</ele><time>2026-05-01T08:38:36.366Z</time></trkpt><trkpt lat="46.49521935178346" lon="11.35133872666675"><ele>266.0</ele><time>2026-05-01T08:38:37.377Z</time></trkpt><trkpt lat="46.495235553399105" lon="11.351453130433379"><ele>266.0</ele><time>2026-05-01T08:38:38.364Z</time></trkpt><trkpt lat="46.49525229245676" lon="11.351571329671104"><ele>266.0</ele><time>2026-05-01T08:38:39.366Z</time></trkpt><trkpt lat="46.49526830344147" lon="11.351684387148515"><ele>266.0</ele><time>2026-05-01T08:38:40.352Z</time></trkpt><trkpt lat="46.49528330876044" lon="11.351790343564788"><ele>265.83333333333337</ele><time>2026-05-01T08:38:41.355Z</time></trkpt><trkpt lat="46.4952966891687" lon="11.35188311807125"><ele>265.6666666666667</ele><time>2026-05-01T08:38:42.351Z</time></trkpt><trkpt lat="46.49530987602932" lon="11.351974376362147"><ele>265.5</ele><time>2026-05-01T08:38:43.379Z</time></trkpt><trkpt lat="46.495334385236056" lon="11.352143989397545"><ele>265.3333333333333</ele><time>2026-05-01T08:38:45.355Z</time></trkpt><trkpt lat="46.495347746699345" lon="11.35223682295289"><ele>265.16666666666663</ele><time>2026-05-01T08:38:46.377Z</time></trkpt><trkpt lat="46.49536649662407" lon="11.352389348257576"><ele>265.0</ele><time>2026-05-01T08:38:48.367Z</time></trkpt><trkpt lat="46.495380542303664" lon="11.352527860300363"><ele>265.0</ele><time>2026-05-01T08:38:50.357Z</time></trkpt><trkpt lat="46.49539308170159" lon="11.352712212767813"><ele>265.0</ele><time>2026-05-01T08:38:52.381Z</time></trkpt><trkpt lat="46.49538101850803" lon="11.352820972977787"><ele>265.0</ele><time>2026-05-01T08:38:54.363Z</time></trkpt><trkpt lat="46.49535733489359" lon="11.35296390014627"><ele>265.0</ele><time>2026-05-01T08:38:56.357Z</time></trkpt><trkpt lat="46.49533334566234" lon="11.353079948499662"><ele>265.0</ele><time>2026-05-01T08:38:58.355Z</time></trkpt><trkpt lat="46.49530025900497" lon="11.35321718376042"><ele>265.6</ele><time>2026-05-01T08:39:00.367Z</time></trkpt><trkpt lat="46.49526826958529" lon="11.353343699745624"><ele>266.2</ele><time>2026-05-01T08:39:02.363Z</time></trkpt><trkpt lat="46.49523345686591" lon="11.353477982680523"><ele>266.8</ele><time>2026-05-01T08:39:04.391Z</time></trkpt><trkpt lat="46.49521025365011" lon="11.353567484243312"><ele>267.4</ele><time>2026-05-01T08:39:06.363Z</time></trkpt><trkpt lat="46.495179867388075" lon="11.353682954282737"><ele>268.0</ele><time>2026-05-01T08:39:09.365Z</time></trkpt><trkpt lat="46.494998268409006" lon="11.353927318064017"><ele>268.0</ele><time>2026-05-01T08:39:11.356Z</time></trkpt><trkpt lat="46.49491728593419" lon="11.35396980802602"><ele>268.0</ele><time>2026-05-01T08:39:13.352Z</time></trkpt><trkpt lat="46.49480941666667" lon="11.353804033333333"><ele>268.0</ele><time>2026-05-01T08:39:39.37Z</time></trkpt><trkpt lat="46.494754349999994" lon="11.353938349999998"><ele>268.0</ele><time>2026-05-01T08:39:41.356Z</time></trkpt><trkpt lat="46.4946318209533" lon="11.354045265768933"><ele>268.0</ele><time>2026-05-01T08:39:43.35Z</time></trkpt><trkpt lat="46.49459455299967" lon="11.35420453126387"><ele>268.0</ele><time>2026-05-01T08:39:45.367Z</time></trkpt><trkpt lat="46.494576025426994" lon="11.35430301455154"><ele>268.0</ele><time>2026-05-01T08:39:46.38Z</time></trkpt><trkpt lat="46.49455554606088" lon="11.354406781936634"><ele>268.0</ele><time>2026-05-01T08:39:47.364Z</time></trkpt><trkpt lat="46.49453261887217" lon="11.354512740711684"><ele>268.0</ele><time>2026-05-01T08:39:48.353Z</time></trkpt><trkpt lat="46.49451142202094" lon="11.354604619915582"><ele>268.0</ele><time>2026-05-01T08:39:49.356Z</time></trkpt><trkpt lat="46.494485354788544" lon="11.354713449159293"><ele>266.5</ele><time>2026-05-01T08:39:50.373Z</time></trkpt><trkpt lat="46.494422854094175" lon="11.354922647263056"><ele>265.0</ele><time>2026-05-01T08:39:52.354Z</time></trkpt><trkpt lat="46.49490728226472" lon="11.355313876514868"><ele>265.0</ele><time>2026-05-01T08:39:53.37Z</time></trkpt><trkpt lat="46.49498460365924" lon="11.355294069661444"><ele>265.0</ele><time>2026-05-01T08:39:54.363Z</time></trkpt><trkpt lat="46.49506207135629" lon="11.355321228021936"><ele>265.0</ele><time>2026-05-01T08:39:55.36Z</time></trkpt><trkpt lat="46.495223466666666" lon="11.355942883333332"><ele>264.8333333333333</ele><time>2026-05-01T08:39:59.368Z</time></trkpt><trkpt lat="46.49527688333333" lon="11.356039483333332"><ele>264.66666666666663</ele><time>2026-05-01T08:40:00.372Z</time></trkpt><trkpt lat="46.49534055" lon="11.35614488333333"><ele>264.5</ele><time>2026-05-01T08:40:01.377Z</time></trkpt><trkpt lat="46.49540005" lon="11.356241116666668"><ele>264.3333333333333</ele><time>2026-05-01T08:40:02.356Z</time></trkpt><trkpt lat="46.495459" lon="11.356334233333333"><ele>264.1666666666667</ele><time>2026-05-01T08:40:03.367Z</time></trkpt><trkpt lat="46.495514566666664" lon="11.356428033333335"><ele>264.0</ele><time>2026-05-01T08:40:04.392Z</time></trkpt><trkpt lat="46.49556671666666" lon="11.356525266666665"><ele>264.8333333333333</ele><time>2026-05-01T08:40:05.407Z</time></trkpt><trkpt lat="46.49561884999999" lon="11.35662005"><ele>265.6666666666667</ele><time>2026-05-01T08:40:06.398Z</time></trkpt><trkpt lat="46.495674066666666" lon="11.3567093"><ele>266.5</ele><time>2026-05-01T08:40:07.354Z</time></trkpt><trkpt lat="46.495729333333344" lon="11.356793416666669"><ele>267.33333333333337</ele><time>2026-05-01T08:40:08.371Z</time></trkpt><trkpt lat="46.495784433333334" lon="11.356879"><ele>268.1666666666667</ele><time>2026-05-01T08:40:09.393Z</time></trkpt><trkpt lat="46.495852049999996" lon="11.356955066666668"><ele>269.0</ele><time>2026-05-01T08:40:10.378Z</time></trkpt><trkpt lat="46.495922916666665" lon="11.357033133333335"><ele>269.0</ele><time>2026-05-01T08:40:11.353Z</time></trkpt><trkpt lat="46.495987799999995" lon="11.35712853333333"><ele>269.0</ele><time>2026-05-01T08:40:12.372Z</time></trkpt><trkpt lat="46.49605353333333" lon="11.357229983333331"><ele>269.0</ele><time>2026-05-01T08:40:13.35Z</time></trkpt><trkpt lat="46.49611708333333" lon="11.357338316666668"><ele>269.0</ele><time>2026-05-01T08:40:14.35Z</time></trkpt><trkpt lat="46.4961786" lon="11.357446066666666"><ele>269.0</ele><time>2026-05-01T08:40:15.35Z</time></trkpt><trkpt lat="46.496237266666675" lon="11.357536566666667"><ele>269.0</ele><time>2026-05-01T08:40:16.352Z</time></trkpt><trkpt lat="46.496285050000004" lon="11.35760855"><ele>269.0</ele><time>2026-05-01T08:40:17.352Z</time></trkpt><trkpt lat="46.49636588333333" lon="11.357705883333333"><ele>269.0</ele><time>2026-05-01T08:40:19.371Z</time></trkpt><trkpt lat="46.49644798333334" lon="11.357748616666667"><ele>269.0</ele><time>2026-05-01T08:40:21.37Z</time></trkpt><trkpt lat="46.496511283333334" lon="11.357799966666668"><ele>269.0</ele><time>2026-05-01T08:40:23.356Z</time></trkpt><trkpt lat="46.496564683333325" lon="11.357873816666666"><ele>269.0</ele><time>2026-05-01T08:40:26.351Z</time></trkpt><trkpt lat="46.49662811666667" lon="11.357908116666666"><ele>269.0</ele><time>2026-05-01T08:40:54.353Z</time></trkpt><trkpt lat="46.496699233333324" lon="11.357955033333335"><ele>269.0</ele><time>2026-05-01T08:40:56.372Z</time></trkpt><trkpt lat="46.49679904077519" lon="11.358018748694187"><ele>269.0</ele><time>2026-05-01T08:40:58.359Z</time></trkpt><trkpt lat="46.49685495000001" lon="11.358213699999999"><ele>269.0</ele><time>2026-05-01T08:41:00.354Z</time></trkpt><trkpt lat="46.496904816666664" lon="11.358357266666667"><ele>269.0</ele><time>2026-05-01T08:41:02.371Z</time></trkpt><trkpt lat="46.49693418333333" lon="11.358506499999999"><ele>269.1666666666667</ele><time>2026-05-01T08:41:04.351Z</time></trkpt><trkpt lat="46.49697266666667" lon="11.358692233333333"><ele>269.33333333333337</ele><time>2026-05-01T08:41:06.354Z</time></trkpt><trkpt lat="46.496997583333325" lon="11.358790050000001"><ele>269.5</ele><time>2026-05-01T08:41:07.355Z</time></trkpt><trkpt lat="46.49703048333334" lon="11.358884633333332"><ele>269.6666666666667</ele><time>2026-05-01T08:41:08.352Z</time></trkpt><trkpt lat="46.49706825" lon="11.358978783333336"><ele>269.8333333333333</ele><time>2026-05-01T08:41:09.373Z</time></trkpt><trkpt lat="46.49710991666667" lon="11.359076116666664"><ele>270.0</ele><time>2026-05-01T08:41:10.35Z</time></trkpt><trkpt lat="46.49715148333333" lon="11.3591735"><ele>270.4</ele><time>2026-05-01T08:41:11.371Z</time></trkpt><trkpt lat="46.4972108301798" lon="11.359240837001046"><ele>270.8</ele><time>2026-05-01T08:41:12.37Z</time></trkpt><trkpt lat="46.497253" lon="11.359343033333335"><ele>271.2</ele><time>2026-05-01T08:41:13.364Z</time></trkpt><trkpt lat="46.49736866666667" lon="11.359529883333336"><ele>271.6</ele><time>2026-05-01T08:41:15.352Z</time></trkpt><trkpt lat="46.49743028333334" lon="11.359628216666666"><ele>272.0</ele><time>2026-05-01T08:41:16.354Z</time></trkpt><trkpt lat="46.49749053333333" lon="11.359729366666667"><ele>270.5</ele><time>2026-05-01T08:41:17.371Z</time></trkpt><trkpt lat="46.49754246666666" lon="11.359820833333332"><ele>269.0</ele><time>2026-05-01T08:41:18.376Z</time></trkpt><trkpt lat="46.49758858333333" lon="11.3599"><ele>267.5</ele><time>2026-05-01T08:41:19.359Z</time></trkpt><trkpt lat="46.497626000000004" lon="11.359974483333334"><ele>266.0</ele><time>2026-05-01T08:41:20.371Z</time></trkpt><trkpt lat="46.49766901666667" lon="11.36004225"><ele>264.5</ele><time>2026-05-01T08:41:21.352Z</time></trkpt><trkpt lat="46.49770068333334" lon="11.360186016666667"><ele>263.0</ele><time>2026-05-01T08:41:23.366Z</time></trkpt><trkpt lat="46.497766378436644" lon="11.36030437004348"><ele>263.0</ele><time>2026-05-01T08:41:25.354Z</time></trkpt><trkpt lat="46.49783101666667" lon="11.360331016666665"><ele>263.0</ele><time>2026-05-01T08:41:26.38Z</time></trkpt><trkpt lat="46.49789526666667" lon="11.36039035"><ele>263.0</ele><time>2026-05-01T08:41:27.37Z</time></trkpt><trkpt lat="46.49796478333332" lon="11.360468050000001"><ele>263.0</ele><time>2026-05-01T08:41:28.351Z</time></trkpt><trkpt lat="46.498037566666675" lon="11.360563433333335"><ele>263.0</ele><time>2026-05-01T08:41:29.352Z</time></trkpt><trkpt lat="46.498106" lon="11.360677383333332"><ele>263.0</ele><time>2026-05-01T08:41:30.371Z</time></trkpt><trkpt lat="46.49817855" lon="11.360808550000002"><ele>262.8</ele><time>2026-05-01T08:41:31.352Z</time></trkpt><trkpt lat="46.498251700000004" lon="11.360944116666667"><ele>262.6</ele><time>2026-05-01T08:41:32.354Z</time></trkpt><trkpt lat="46.498327366666665" lon="11.361077483333334"><ele>262.4</ele><time>2026-05-01T08:41:33.352Z</time></trkpt><trkpt lat="46.49839553333333" lon="11.361201300000001"><ele>262.2</ele><time>2026-05-01T08:41:34.366Z</time></trkpt><trkpt lat="46.49846103333333" lon="11.3613151"><ele>262.0</ele><time>2026-05-01T08:41:35.355Z</time></trkpt><trkpt lat="46.49852391666666" lon="11.361428216666665"><ele>262.5</ele><time>2026-05-01T08:41:36.352Z</time></trkpt><trkpt lat="46.49855449208704" lon="11.36157442919891"><ele>263.0</ele><time>2026-05-01T08:41:37.351Z</time></trkpt><trkpt lat="46.49859825379871" lon="11.36172547666285"><ele>263.5</ele><time>2026-05-01T08:41:38.38Z</time></trkpt><trkpt lat="46.498632354150544" lon="11.361890397987587"><ele>264.0</ele><time>2026-05-01T08:41:39.353Z</time></trkpt><trkpt lat="46.49867384358601" lon="11.362063782647922"><ele>263.75</ele><time>2026-05-01T08:41:40.35Z</time></trkpt><trkpt lat="46.498759850000006" lon="11.36221255"><ele>263.5</ele><time>2026-05-01T08:41:41.352Z</time></trkpt><trkpt lat="46.49882845" lon="11.362372533333334"><ele>263.25</ele><time>2026-05-01T08:41:42.352Z</time></trkpt><trkpt lat="46.498904816666666" lon="11.362511383333333"><ele>263.0</ele><time>2026-05-01T08:41:43.352Z</time></trkpt><trkpt lat="46.498982016666666" lon="11.362627300000002"><ele>263.0</ele><time>2026-05-01T08:41:44.37Z</time></trkpt><trkpt lat="46.499036953025694" lon="11.362752920037416"><ele>263.0</ele><time>2026-05-01T08:41:45.352Z</time></trkpt><trkpt lat="46.49910008910247" lon="11.362850425152756"><ele>263.0</ele><time>2026-05-01T08:41:46.356Z</time></trkpt><trkpt lat="46.499159273847226" lon="11.362938154469342"><ele>263.0</ele><time>2026-05-01T08:41:47.357Z</time></trkpt><trkpt lat="46.49921344527327" lon="11.363013196198281"><ele>263.0</ele><time>2026-05-01T08:41:48.352Z</time></trkpt><trkpt lat="46.499264802467934" lon="11.363081821691988"><ele>263.0</ele><time>2026-05-01T08:41:49.354Z</time></trkpt><trkpt lat="46.49931062350014" lon="11.363146853788251"><ele>263.2</ele><time>2026-05-01T08:41:50.349Z</time></trkpt><trkpt lat="46.49936983333334" lon="11.363182866666666"><ele>263.4</ele><time>2026-05-01T08:41:51.356Z</time></trkpt><trkpt lat="46.4994106" lon="11.363335416666667"><ele>263.59999999999997</ele><time>2026-05-01T08:41:53.37Z</time></trkpt><trkpt lat="46.49946058333333" lon="11.363477516666668"><ele>263.8</ele><time>2026-05-01T08:41:55.372Z</time></trkpt><trkpt lat="46.499552433333335" lon="11.363535566666668"><ele>264.0</ele><time>2026-05-01T08:41:57.352Z</time></trkpt><trkpt lat="46.49965535" lon="11.36357905"><ele>264.5</ele><time>2026-05-01T08:41:59.374Z</time></trkpt><trkpt lat="46.49974203333333" lon="11.363636866666665"><ele>265.0</ele><time>2026-05-01T08:42:01.352Z</time></trkpt><trkpt lat="46.4998317" lon="11.363741999999998"><ele>265.5</ele><time>2026-05-01T08:42:03.352Z</time></trkpt><trkpt lat="46.49988953333334" lon="11.363797033333334"><ele>266.0</ele><time>2026-05-01T08:42:04.367Z</time></trkpt><trkpt lat="46.4999477" lon="11.363854516666668"><ele>266.5</ele><time>2026-05-01T08:42:05.373Z</time></trkpt><trkpt lat="46.50000589999999" lon="11.363912416666668"><ele>267.0</ele><time>2026-05-01T08:42:06.352Z</time></trkpt><trkpt lat="46.50006823333333" lon="11.364061099999999"><ele>267.0</ele><time>2026-05-01T08:42:08.373Z</time></trkpt><trkpt lat="46.500098449999996" lon="11.364169766666665"><ele>267.0</ele><time>2026-05-01T08:42:09.352Z</time></trkpt><trkpt lat="46.500123183333336" lon="11.36429133333333"><ele>267.0</ele><time>2026-05-01T08:42:10.352Z</time></trkpt><trkpt lat="46.50013976666667" lon="11.364423766666668"><ele>267.0</ele><time>2026-05-01T08:42:11.37Z</time></trkpt><trkpt lat="46.50015194999999" lon="11.364567333333332"><ele>267.0</ele><time>2026-05-01T08:42:12.35Z</time></trkpt><trkpt lat="46.500163766666674" lon="11.364717766666669"><ele>266.8</ele><time>2026-05-01T08:42:13.373Z</time></trkpt><trkpt lat="46.50018221666666" lon="11.364865133333335"><ele>266.6</ele><time>2026-05-01T08:42:14.37Z</time></trkpt><trkpt lat="46.500191516666675" lon="11.365002766666665"><ele>266.40000000000003</ele><time>2026-05-01T08:42:15.353Z</time></trkpt><trkpt lat="46.50022177849736" lon="11.365124263427541"><ele>266.2</ele><time>2026-05-01T08:42:16.352Z</time></trkpt><trkpt lat="46.50022428985188" lon="11.365252664858831"><ele>266.0</ele><time>2026-05-01T08:42:17.372Z</time></trkpt><trkpt lat="46.50020662118935" lon="11.36538601070356"><ele>266.0</ele><time>2026-05-01T08:42:18.351Z</time></trkpt><trkpt lat="46.50017545667152" lon="11.365520111517343"><ele>266.0</ele><time>2026-05-01T08:42:19.374Z</time></trkpt><trkpt lat="46.50013357458239" lon="11.365650754388314"><ele>266.0</ele><time>2026-05-01T08:42:20.373Z</time></trkpt><trkpt lat="46.50007836666667" lon="11.365755616666668"><ele>266.0</ele><time>2026-05-01T08:42:21.352Z</time></trkpt><trkpt lat="46.500033216666665" lon="11.365848249999999"><ele>266.0</ele><time>2026-05-01T08:42:22.355Z</time></trkpt><trkpt lat="46.499990399999994" lon="11.365926316666666"><ele>266.0</ele><time>2026-05-01T08:42:23.353Z</time></trkpt><trkpt lat="46.499935416666666" lon="11.365992216666667"><ele>266.0</ele><time>2026-05-01T08:42:24.352Z</time></trkpt><trkpt lat="46.49987131666667" lon="11.36604595"><ele>266.0</ele><time>2026-05-01T08:42:25.353Z</time></trkpt><trkpt lat="46.499789899921296" lon="11.366049557288244"><ele>266.0</ele><time>2026-05-01T08:42:26.371Z</time></trkpt><trkpt lat="46.49970411666666" lon="11.366058483333333"><ele>266.0</ele><time>2026-05-01T08:42:27.353Z</time></trkpt><trkpt lat="46.49961578528463" lon="11.36605012058635"><ele>266.0</ele><time>2026-05-01T08:42:28.352Z</time></trkpt><trkpt lat="46.49952712307307" lon="11.366051342107996"><ele>266.0</ele><time>2026-05-01T08:42:29.374Z</time></trkpt><trkpt lat="46.49941812552425" lon="11.366080803008863"><ele>265.8</ele><time>2026-05-01T08:42:30.351Z</time></trkpt><trkpt lat="46.49932044846939" lon="11.366065265327068"><ele>265.6</ele><time>2026-05-01T08:42:31.355Z</time></trkpt><trkpt lat="46.49921245279265" lon="11.366013679276532"><ele>265.4</ele><time>2026-05-01T08:42:32.352Z</time></trkpt><trkpt lat="46.4991382203332" lon="11.365914010941227"><ele>265.2</ele><time>2026-05-01T08:42:33.352Z</time></trkpt><trkpt lat="46.49908642403124" lon="11.365823865024565"><ele>265.0</ele><time>2026-05-01T08:42:34.35Z</time></trkpt><trkpt lat="46.49903539101065" lon="11.365733263264262"><ele>265.0</ele><time>2026-05-01T08:42:35.375Z</time></trkpt><trkpt lat="46.49898114350619" lon="11.365636954269554"><ele>265.0</ele><time>2026-05-01T08:42:36.356Z</time></trkpt><trkpt lat="46.49892628701456" lon="11.365541420000335"><ele>265.0</ele><time>2026-05-01T08:42:37.374Z</time></trkpt><trkpt lat="46.498865458420845" lon="11.365440987119115"><ele>265.0</ele><time>2026-05-01T08:42:38.375Z</time></trkpt><trkpt lat="46.49880822300314" lon="11.365346487011548"><ele>265.0</ele><time>2026-05-01T08:42:39.351Z</time></trkpt><trkpt lat="46.4987529689211" lon="11.365254924227235"><ele>265.0</ele><time>2026-05-01T08:42:40.352Z</time></trkpt><trkpt lat="46.49870130856848" lon="11.36516894918958"><ele>264.2</ele><time>2026-05-01T08:42:41.373Z</time></trkpt><trkpt lat="46.498691583333326" lon="11.365039366666666"><ele>263.4</ele><time>2026-05-01T08:42:42.352Z</time></trkpt><trkpt lat="46.49864826666666" lon="11.364964650000001"><ele>262.6</ele><time>2026-05-01T08:42:43.352Z</time></trkpt><trkpt lat="46.498559483333345" lon="11.364874116666666"><ele>261.8</ele><time>2026-05-01T08:42:45.373Z</time></trkpt><trkpt lat="46.49842848333333" lon="11.3649147"><ele>261.0</ele><time>2026-05-01T08:42:47.353Z</time></trkpt><trkpt lat="46.49835344408849" lon="11.364935633971445"><ele>261.0</ele><time>2026-05-01T08:42:48.352Z</time></trkpt><trkpt lat="46.49830234330403" lon="11.365001100721209"><ele>261.0</ele><time>2026-05-01T08:42:49.367Z</time></trkpt><trkpt lat="46.49823109574131" lon="11.365132025346854"><ele>261.0</ele><time>2026-05-01T08:42:51.36Z</time></trkpt><trkpt lat="46.49816514208777" lon="11.365257058012627"><ele>261.0</ele><time>2026-05-01T08:42:53.351Z</time></trkpt><trkpt lat="46.49812758333334" lon="11.365361066666667"><ele>261.0</ele><time>2026-05-01T08:42:54.371Z</time></trkpt><trkpt lat="46.498065600000004" lon="11.365474966666667"><ele>261.2</ele><time>2026-05-01T08:42:55.37Z</time></trkpt><trkpt lat="46.49799998333333" lon="11.365593733333332"><ele>261.40000000000003</ele><time>2026-05-01T08:42:56.351Z</time></trkpt><trkpt lat="46.497943533333334" lon="11.36570945"><ele>261.6</ele><time>2026-05-01T08:42:57.351Z</time></trkpt><trkpt lat="46.49790131666667" lon="11.36582895"><ele>261.8</ele><time>2026-05-01T08:42:58.372Z</time></trkpt><trkpt lat="46.49784520363652" lon="11.365919548362319"><ele>262.0</ele><time>2026-05-01T08:42:59.364Z</time></trkpt><trkpt lat="46.49780114865503" lon="11.366013446119226"><ele>262.2</ele><time>2026-05-01T08:43:00.356Z</time></trkpt><trkpt lat="46.49775375572614" lon="11.366110587993292"><ele>262.4</ele><time>2026-05-01T08:43:01.352Z</time></trkpt><trkpt lat="46.49770304852084" lon="11.36620819556353"><ele>262.6</ele><time>2026-05-01T08:43:02.372Z</time></trkpt><trkpt lat="46.497661083333334" lon="11.366325300000002"><ele>262.8</ele><time>2026-05-01T08:43:03.369Z</time></trkpt><trkpt lat="46.497592299999994" lon="11.366432699999999"><ele>263.0</ele><time>2026-05-01T08:43:04.37Z</time></trkpt><trkpt lat="46.49752955" lon="11.36654475"><ele>263.0</ele><time>2026-05-01T08:43:05.373Z</time></trkpt><trkpt lat="46.497449257859444" lon="11.36663251245702"><ele>263.0</ele><time>2026-05-01T08:43:06.352Z</time></trkpt><trkpt lat="46.49737548207843" lon="11.366735113972156"><ele>263.0</ele><time>2026-05-01T08:43:07.352Z</time></trkpt><trkpt lat="46.49730391709222" lon="11.36683887259329"><ele>263.0</ele><time>2026-05-01T08:43:08.355Z</time></trkpt><trkpt lat="46.49723224683328" lon="11.36694363818399"><ele>263.0</ele><time>2026-05-01T08:43:09.354Z</time></trkpt><trkpt lat="46.49716085414982" lon="11.36704738190011"><ele>263.0</ele><time>2026-05-01T08:43:10.352Z</time></trkpt><trkpt lat="46.4970919534654" lon="11.367147493006009"><ele>263.0</ele><time>2026-05-01T08:43:11.371Z</time></trkpt><trkpt lat="46.49702812511673" lon="11.367240232092245"><ele>263.0</ele><time>2026-05-01T08:43:12.351Z</time></trkpt><trkpt lat="46.49696769349082" lon="11.367328329172231"><ele>263.0</ele><time>2026-05-01T08:43:13.353Z</time></trkpt><trkpt lat="46.496909342020224" lon="11.367413289862387"><ele>263.0</ele><time>2026-05-01T08:43:14.372Z</time></trkpt><trkpt lat="46.49685055368794" lon="11.367498886564423"><ele>263.0</ele><time>2026-05-01T08:43:15.353Z</time></trkpt><trkpt lat="46.496788878256154" lon="11.367588686959547"><ele>262.83333333333337</ele><time>2026-05-01T08:43:16.354Z</time></trkpt><trkpt lat="46.49673443260041" lon="11.367667960687603"><ele>262.6666666666667</ele><time>2026-05-01T08:43:17.352Z</time></trkpt><trkpt lat="46.49668053617565" lon="11.36774643475011"><ele>262.5</ele><time>2026-05-01T08:43:18.364Z</time></trkpt><trkpt lat="46.49661014447768" lon="11.367846111815453"><ele>262.3333333333333</ele><time>2026-05-01T08:43:19.355Z</time></trkpt><trkpt lat="46.49653451604597" lon="11.367946194302561"><ele>262.16666666666663</ele><time>2026-05-01T08:43:20.373Z</time></trkpt><trkpt lat="46.49646232976989" lon="11.368033283984131"><ele>262.0</ele><time>2026-05-01T08:43:21.357Z</time></trkpt><trkpt lat="46.49638863147643" lon="11.368103161261311"><ele>262.16666666666663</ele><time>2026-05-01T08:43:22.351Z</time></trkpt><trkpt lat="46.496327799999996" lon="11.368171283333334"><ele>262.3333333333333</ele><time>2026-05-01T08:43:23.372Z</time></trkpt><trkpt lat="46.49625495" lon="11.368208616666667"><ele>262.5</ele><time>2026-05-01T08:43:24.351Z</time></trkpt><trkpt lat="46.496166433333336" lon="11.368228083333335"><ele>262.6666666666667</ele><time>2026-05-01T08:43:25.352Z</time></trkpt><trkpt lat="46.496068650000005" lon="11.368227200000002"><ele>262.83333333333337</ele><time>2026-05-01T08:43:26.372Z</time></trkpt><trkpt lat="46.49597269999999" lon="11.368222016666667"><ele>263.0</ele><time>2026-05-01T08:43:27.353Z</time></trkpt><trkpt lat="46.49588448333334" lon="11.368213733333334"><ele>263.0</ele><time>2026-05-01T08:43:28.357Z</time></trkpt><trkpt lat="46.495802100000006" lon="11.368204983333332"><ele>263.0</ele><time>2026-05-01T08:43:29.372Z</time></trkpt><trkpt lat="46.4957178" lon="11.368192783333333"><ele>263.0</ele><time>2026-05-01T08:43:30.351Z</time></trkpt><trkpt lat="46.49562938333334" lon="11.368181350000002"><ele>263.0</ele><time>2026-05-01T08:43:31.364Z</time></trkpt><trkpt lat="46.49553821666667" lon="11.368168199999998"><ele>263.0</ele><time>2026-05-01T08:43:32.373Z</time></trkpt><trkpt lat="46.495445283333325" lon="11.368158349999998"><ele>263.0</ele><time>2026-05-01T08:43:33.351Z</time></trkpt><trkpt lat="46.495352749999995" lon="11.368149266666668"><ele>263.1666666666667</ele><time>2026-05-01T08:43:34.351Z</time></trkpt><trkpt lat="46.495262683333344" lon="11.368131083333333"><ele>263.33333333333337</ele><time>2026-05-01T08:43:35.372Z</time></trkpt><trkpt lat="46.49517761666666" lon="11.368103416666669"><ele>263.5</ele><time>2026-05-01T08:43:36.353Z</time></trkpt><trkpt lat="46.49509458333334" lon="11.368065133333333"><ele>263.6666666666667</ele><time>2026-05-01T08:43:37.351Z</time></trkpt><trkpt lat="46.49501558333333" lon="11.36801011666667"><ele>263.8333333333333</ele><time>2026-05-01T08:43:38.372Z</time></trkpt><trkpt lat="46.49494020000001" lon="11.367932450000001"><ele>264.0</ele><time>2026-05-01T08:43:39.351Z</time></trkpt><trkpt lat="46.49487216666667" lon="11.367834933333333"><ele>264.0</ele><time>2026-05-01T08:43:40.373Z</time></trkpt><trkpt lat="46.49481236666667" lon="11.367719600000003"><ele>264.0</ele><time>2026-05-01T08:43:41.372Z</time></trkpt><trkpt lat="46.494754283333336" lon="11.367602949999998"><ele>264.0</ele><time>2026-05-01T08:43:42.352Z</time></trkpt><trkpt lat="46.49469275" lon="11.3675061"><ele>264.0</ele><time>2026-05-01T08:43:43.352Z</time></trkpt><trkpt lat="46.49462183333333" lon="11.367446"><ele>264.0</ele><time>2026-05-01T08:43:44.371Z</time></trkpt><trkpt lat="46.49453946666666" lon="11.36742663333333"><ele>264.0</ele><time>2026-05-01T08:43:45.35Z</time></trkpt><trkpt lat="46.49445486666667" lon="11.367453266666667"><ele>264.0</ele><time>2026-05-01T08:43:46.351Z</time></trkpt><trkpt lat="46.494376716666665" lon="11.367512600000001"><ele>264.0</ele><time>2026-05-01T08:43:47.35Z</time></trkpt><trkpt lat="46.49430936666666" lon="11.367582016666667"><ele>264.0</ele><time>2026-05-01T08:43:48.351Z</time></trkpt><trkpt lat="46.494248500000005" lon="11.3676484"><ele>264.0</ele><time>2026-05-01T08:43:49.371Z</time></trkpt><trkpt lat="46.49414134191764" lon="11.367735981533183"><ele>264.0</ele><time>2026-05-01T08:43:51.353Z</time></trkpt><trkpt lat="46.49406667729337" lon="11.367799638190247"><ele>264.0</ele><time>2026-05-01T08:43:53.372Z</time></trkpt><trkpt lat="46.49400578333333" lon="11.367850916666665"><ele>264.0</ele><time>2026-05-01T08:43:56.371Z</time></trkpt><trkpt lat="46.49393334821567" lon="11.367914997635186"><ele>264.0</ele><time>2026-05-01T08:47:36.084Z</time></trkpt><trkpt lat="46.493859631946975" lon="11.36797877864204"><ele>264.0</ele><time>2026-05-01T08:47:37.081Z</time></trkpt><trkpt lat="46.49376766590559" lon="11.368057832122384"><ele>264.0</ele><time>2026-05-01T08:47:38.1Z</time></trkpt><trkpt lat="46.49366385281447" lon="11.368147016275483"><ele>264.4</ele><time>2026-05-01T08:47:39.1Z</time></trkpt><trkpt lat="46.49355453211007" lon="11.368239451917733"><ele>264.79999999999995</ele><time>2026-05-01T08:47:40.082Z</time></trkpt><trkpt lat="46.49345350776136" lon="11.36832249899191"><ele>265.20000000000005</ele><time>2026-05-01T08:47:41.099Z</time></trkpt><trkpt lat="46.493367728973745" lon="11.368390850399884"><ele>265.6</ele><time>2026-05-01T08:47:42.099Z</time></trkpt><trkpt lat="46.49329822938964" lon="11.368445893719967"><ele>266.0</ele><time>2026-05-01T08:47:43.083Z</time></trkpt><trkpt lat="46.49319653533392" lon="11.368520975920115"><ele>266.0</ele><time>2026-05-01T08:47:45.102Z</time></trkpt><trkpt lat="46.49313255" lon="11.368582583333332"><ele>266.0</ele><time>2026-05-01T08:47:46.115Z</time></trkpt><trkpt lat="46.49304513333333" lon="11.368633733333336"><ele>266.0</ele><time>2026-05-01T08:47:47.1Z</time></trkpt><trkpt lat="46.49294751666667" lon="11.368693949999999"><ele>266.0</ele><time>2026-05-01T08:47:48.101Z</time></trkpt><trkpt lat="46.49284586666666" lon="11.368752666666667"><ele>266.0</ele><time>2026-05-01T08:47:49.115Z</time></trkpt><trkpt lat="46.49275268333334" lon="11.368805816666667"><ele>266.6666666666667</ele><time>2026-05-01T08:47:50.103Z</time></trkpt><trkpt lat="46.492664049999995" lon="11.36885675"><ele>267.33333333333337</ele><time>2026-05-01T08:47:51.103Z</time></trkpt><trkpt lat="46.49258594999999" lon="11.368900933333334"><ele>268.0</ele><time>2026-05-01T08:47:52.082Z</time></trkpt><trkpt lat="46.49251761666667" lon="11.368941549999999"><ele>268.6666666666667</ele><time>2026-05-01T08:47:53.1Z</time></trkpt><trkpt lat="46.49245658333332" lon="11.368976916666668"><ele>269.3333333333333</ele><time>2026-05-01T08:47:54.1Z</time></trkpt><trkpt lat="46.49237623333334" lon="11.369036750000001"><ele>270.0</ele><time>2026-05-01T08:47:56.1Z</time></trkpt><trkpt lat="46.49229171666666" lon="11.369062183333332"><ele>270.6</ele><time>2026-05-01T08:47:58.082Z</time></trkpt><trkpt lat="46.49215938333333" lon="11.369057100000001"><ele>271.2</ele><time>2026-05-01T08:48:00.1Z</time></trkpt><trkpt lat="46.492086050000005" lon="11.369057416666665"><ele>271.8</ele><time>2026-05-01T08:48:01.115Z</time></trkpt><trkpt lat="46.49201733333333" lon="11.369085783333333"><ele>272.4</ele><time>2026-05-01T08:48:02.08Z</time></trkpt><trkpt lat="46.491970083333335" lon="11.369148399999998"><ele>273.0</ele><time>2026-05-01T08:48:03.101Z</time></trkpt><trkpt lat="46.49194412820762" lon="11.36932954696229"><ele>273.0</ele><time>2026-05-01T08:48:05.081Z</time></trkpt><trkpt lat="46.49199183333334" lon="11.369429816666665"><ele>273.0</ele><time>2026-05-01T08:48:06.08Z</time></trkpt><trkpt lat="46.49203038333333" lon="11.369556599999997"><ele>273.0</ele><time>2026-05-01T08:48:07.083Z</time></trkpt><trkpt lat="46.49206436666667" lon="11.369707750000002"><ele>273.0</ele><time>2026-05-01T08:48:08.101Z</time></trkpt><trkpt lat="46.49209746666667" lon="11.369872966666666"><ele>273.0</ele><time>2026-05-01T08:48:09.123Z</time></trkpt><trkpt lat="46.49213468333335" lon="11.37005175"><ele>272.5</ele><time>2026-05-01T08:48:10.083Z</time></trkpt><trkpt lat="46.492175583333335" lon="11.370239966666668"><ele>272.0</ele><time>2026-05-01T08:48:11.097Z</time></trkpt><trkpt lat="46.49221646666667" lon="11.37042585"><ele>271.5</ele><time>2026-05-01T08:48:12.078Z</time></trkpt><trkpt lat="46.492253266666665" lon="11.370599416666668"><ele>271.0</ele><time>2026-05-01T08:48:13.085Z</time></trkpt><trkpt lat="46.492285816666666" lon="11.37076685"><ele>271.0</ele><time>2026-05-01T08:48:14.101Z</time></trkpt><trkpt lat="46.49231976666666" lon="11.370938733333332"><ele>271.0</ele><time>2026-05-01T08:48:15.081Z</time></trkpt><trkpt lat="46.49235435000001" lon="11.371116916666665"><ele>271.0</ele><time>2026-05-01T08:48:16.082Z</time></trkpt><trkpt lat="46.492389616666664" lon="11.371297433333332"><ele>271.0</ele><time>2026-05-01T08:48:17.097Z</time></trkpt><trkpt lat="46.49242416666666" lon="11.371486433333333"><ele>271.0</ele><time>2026-05-01T08:48:18.086Z</time></trkpt><trkpt lat="46.49246348333333" lon="11.371680516666666"><ele>271.0</ele><time>2026-05-01T08:48:19.086Z</time></trkpt><trkpt lat="46.492506233333344" lon="11.3718832"><ele>271.0</ele><time>2026-05-01T08:48:20.1Z</time></trkpt><trkpt lat="46.492550816666665" lon="11.372095250000001"><ele>271.0</ele><time>2026-05-01T08:48:21.081Z</time></trkpt><trkpt lat="46.49259546666667" lon="11.372309033333334"><ele>272.0</ele><time>2026-05-01T08:48:22.081Z</time></trkpt><trkpt lat="46.4926416" lon="11.372516983333332"><ele>273.0</ele><time>2026-05-01T08:48:23.084Z</time></trkpt><trkpt lat="46.492686033333335" lon="11.372722216666668"><ele>274.0</ele><time>2026-05-01T08:48:24.102Z</time></trkpt><trkpt lat="46.49273016666666" lon="11.372923983333333"><ele>275.0</ele><time>2026-05-01T08:48:25.081Z</time></trkpt><trkpt lat="46.492771149999996" lon="11.37312345"><ele>274.0</ele><time>2026-05-01T08:48:26.083Z</time></trkpt><trkpt lat="46.49281040000001" lon="11.37332211666667"><ele>273.0</ele><time>2026-05-01T08:48:27.081Z</time></trkpt><trkpt lat="46.49284984999999" lon="11.373522033333332"><ele>272.0</ele><time>2026-05-01T08:48:28.083Z</time></trkpt><trkpt lat="46.49288863333333" lon="11.373726216666666"><ele>271.0</ele><time>2026-05-01T08:48:29.101Z</time></trkpt><trkpt lat="46.49292578333334" lon="11.373935633333332"><ele>271.0</ele><time>2026-05-01T08:48:30.081Z</time></trkpt><trkpt lat="46.49296508333334" lon="11.37414625"><ele>271.0</ele><time>2026-05-01T08:48:31.085Z</time></trkpt><trkpt lat="46.49300658333333" lon="11.374361216666667"><ele>271.0</ele><time>2026-05-01T08:48:32.098Z</time></trkpt><trkpt lat="46.49305089999999" lon="11.374577033333333"><ele>271.25</ele><time>2026-05-01T08:48:33.08Z</time></trkpt><trkpt lat="46.4930933" lon="11.374785966666666"><ele>271.5</ele><time>2026-05-01T08:48:34.117Z</time></trkpt><trkpt lat="46.493131383333335" lon="11.374981916666664"><ele>271.75</ele><time>2026-05-01T08:48:35.1Z</time></trkpt><trkpt lat="46.493168033333326" lon="11.375165650000001"><ele>272.0</ele><time>2026-05-01T08:48:36.096Z</time></trkpt><trkpt lat="46.49320251666666" lon="11.375341033333331"><ele>272.0</ele><time>2026-05-01T08:48:37.083Z</time></trkpt><trkpt lat="46.49323906666667" lon="11.375515716666667"><ele>272.0</ele><time>2026-05-01T08:48:38.102Z</time></trkpt><trkpt lat="46.493277516666666" lon="11.3756934"><ele>272.0</ele><time>2026-05-01T08:48:39.102Z</time></trkpt><trkpt lat="46.49331366666667" lon="11.37587735"><ele>272.0</ele><time>2026-05-01T08:48:40.117Z</time></trkpt><trkpt lat="46.4933505" lon="11.376063500000003"><ele>273.0</ele><time>2026-05-01T08:48:41.123Z</time></trkpt><trkpt lat="46.493388833333334" lon="11.376249666666668"><ele>274.0</ele><time>2026-05-01T08:48:42.081Z</time></trkpt><trkpt lat="46.49342570000001" lon="11.37643405"><ele>275.0</ele><time>2026-05-01T08:48:43.082Z</time></trkpt><trkpt lat="46.49346403333334" lon="11.376617483333332"><ele>276.0</ele><time>2026-05-01T08:48:44.103Z</time></trkpt><trkpt lat="46.493506233333335" lon="11.376799333333334"><ele>277.5</ele><time>2026-05-01T08:48:45.104Z</time></trkpt><trkpt lat="46.49354646666667" lon="11.376985733333333"><ele>279.0</ele><time>2026-05-01T08:48:46.121Z</time></trkpt><trkpt lat="46.49358658333334" lon="11.377177966666666"><ele>280.5</ele><time>2026-05-01T08:48:47.097Z</time></trkpt><trkpt lat="46.49361057698293" lon="11.377375980058957"><ele>282.0</ele><time>2026-05-01T08:48:48.08Z</time></trkpt><trkpt lat="46.493645896322185" lon="11.377568036836816"><ele>283.25</ele><time>2026-05-01T08:48:49.09Z</time></trkpt><trkpt lat="46.49368774999999" lon="11.377766750000001"><ele>284.5</ele><time>2026-05-01T08:48:50.095Z</time></trkpt><trkpt lat="46.49370815" lon="11.377976450000002"><ele>285.75</ele><time>2026-05-01T08:48:51.081Z</time></trkpt><trkpt lat="46.49371599999999" lon="11.378189516666664"><ele>287.0</ele><time>2026-05-01T08:48:52.083Z</time></trkpt><trkpt lat="46.4937127" lon="11.378406949999997"><ele>289.6666666666667</ele><time>2026-05-01T08:48:53.1Z</time></trkpt><trkpt lat="46.4937045" lon="11.378629"><ele>292.3333333333333</ele><time>2026-05-01T08:48:54.09Z</time></trkpt><trkpt lat="46.493675301726306" lon="11.37884820395508"><ele>295.0</ele><time>2026-05-01T08:48:55.117Z</time></trkpt><trkpt lat="46.49367805" lon="11.379069733333333"><ele>295.0</ele><time>2026-05-01T08:48:56.1Z</time></trkpt><trkpt lat="46.49366425" lon="11.379280633333334"><ele>295.0</ele><time>2026-05-01T08:48:57.103Z</time></trkpt><trkpt lat="46.49365371666666" lon="11.379482216666668"><ele>295.0</ele><time>2026-05-01T08:48:58.083Z</time></trkpt><trkpt lat="46.49364350000001" lon="11.379683083333335"><ele>295.0</ele><time>2026-05-01T08:48:59.092Z</time></trkpt><trkpt lat="46.49363263333333" lon="11.379881633333332"><ele>293.25</ele><time>2026-05-01T08:49:00.1Z</time></trkpt><trkpt lat="46.49362435" lon="11.380067550000001"><ele>291.5</ele><time>2026-05-01T08:49:01.117Z</time></trkpt><trkpt lat="46.49361951666667" lon="11.380244616666667"><ele>289.75</ele><time>2026-05-01T08:49:02.1Z</time></trkpt><trkpt lat="46.49359822299372" lon="11.38041829804307"><ele>288.0</ele><time>2026-05-01T08:49:03.08Z</time></trkpt><trkpt lat="46.493591319864535" lon="11.380597965988853"><ele>288.0</ele><time>2026-05-01T08:49:04.118Z</time></trkpt><trkpt lat="46.49358411946578" lon="11.380785370949752"><ele>288.0</ele><time>2026-05-01T08:49:05.101Z</time></trkpt><trkpt lat="46.493590933333344" lon="11.380976500000001"><ele>288.0</ele><time>2026-05-01T08:49:06.098Z</time></trkpt><trkpt lat="46.4935828" lon="11.381168483333333"><ele>288.0</ele><time>2026-05-01T08:49:07.083Z</time></trkpt><trkpt lat="46.49357466666667" lon="11.381365633333333"><ele>288.5</ele><time>2026-05-01T08:49:08.089Z</time></trkpt><trkpt lat="46.49354838190687" lon="11.381563999125266"><ele>289.0</ele><time>2026-05-01T08:49:09.08Z</time></trkpt><trkpt lat="46.493537365109596" lon="11.381766736866535"><ele>289.5</ele><time>2026-05-01T08:49:10.083Z</time></trkpt><trkpt lat="46.49352758956937" lon="11.381970047767181"><ele>290.0</ele><time>2026-05-01T08:49:11.101Z</time></trkpt><trkpt lat="46.49351863328926" lon="11.382169181129107"><ele>291.0</ele><time>2026-05-01T08:49:12.081Z</time></trkpt><trkpt lat="46.493509646928196" lon="11.382367016082725"><ele>292.0</ele><time>2026-05-01T08:49:13.083Z</time></trkpt><trkpt lat="46.49350081519799" lon="11.382562037215827"><ele>293.0</ele><time>2026-05-01T08:49:14.097Z</time></trkpt><trkpt lat="46.49349189860092" lon="11.382758932349075"><ele>294.0</ele><time>2026-05-01T08:49:15.091Z</time></trkpt><trkpt lat="46.49348135673028" lon="11.382955515689813"><ele>293.25</ele><time>2026-05-01T08:49:16.083Z</time></trkpt><trkpt lat="46.49346754201698" lon="11.383154691437054"><ele>292.5</ele><time>2026-05-01T08:49:17.08Z</time></trkpt><trkpt lat="46.49344658732392" lon="11.383356712054164"><ele>291.75</ele><time>2026-05-01T08:49:18.102Z</time></trkpt><trkpt lat="46.49342068521759" lon="11.383565209185733"><ele>291.0</ele><time>2026-05-01T08:49:19.091Z</time></trkpt><trkpt lat="46.49339225701734" lon="11.383772611168611"><ele>290.0</ele><time>2026-05-01T08:49:20.104Z</time></trkpt><trkpt lat="46.49336142028874" lon="11.383981743042304"><ele>289.0</ele><time>2026-05-01T08:49:21.091Z</time></trkpt><trkpt lat="46.49333010972883" lon="11.384190320688171"><ele>288.0</ele><time>2026-05-01T08:49:22.115Z</time></trkpt><trkpt lat="46.49329839792761" lon="11.384397220551072"><ele>287.0</ele><time>2026-05-01T08:49:23.101Z</time></trkpt><trkpt lat="46.49326644135563" lon="11.384605717376706"><ele>284.6666666666667</ele><time>2026-05-01T08:49:24.091Z</time></trkpt><trkpt lat="46.493236128956504" lon="11.384822981429467"><ele>282.3333333333333</ele><time>2026-05-01T08:49:25.083Z</time></trkpt><trkpt lat="46.49320936968206" lon="11.385041233496551"><ele>280.0</ele><time>2026-05-01T08:49:26.101Z</time></trkpt><trkpt lat="46.49325903333333" lon="11.385278033333336"><ele>280.0</ele><time>2026-05-01T08:49:27.08Z</time></trkpt><trkpt lat="46.49324154999999" lon="11.385496816666667"><ele>280.0</ele><time>2026-05-01T08:49:28.083Z</time></trkpt><trkpt lat="46.49322638333333" lon="11.385712283333332"><ele>280.0</ele><time>2026-05-01T08:49:29.08Z</time></trkpt><trkpt lat="46.49321736666668" lon="11.385928766666664"><ele>279.66666666666663</ele><time>2026-05-01T08:49:30.101Z</time></trkpt><trkpt lat="46.49314592997773" lon="11.386140865296998"><ele>279.3333333333333</ele><time>2026-05-01T08:49:31.081Z</time></trkpt><trkpt lat="46.493148378132574" lon="11.38635284817369"><ele>279.0</ele><time>2026-05-01T08:49:32.098Z</time></trkpt><trkpt lat="46.493155403637815" lon="11.386566376198243"><ele>279.0</ele><time>2026-05-01T08:49:33.102Z</time></trkpt><trkpt lat="46.49316729025578" lon="11.386770901973184"><ele>279.0</ele><time>2026-05-01T08:49:34.083Z</time></trkpt><trkpt lat="46.49318387377596" lon="11.386975198601487"><ele>279.0</ele><time>2026-05-01T08:49:35.081Z</time></trkpt><trkpt lat="46.49320311534589" lon="11.38718287182484"><ele>279.0</ele><time>2026-05-01T08:49:36.102Z</time></trkpt><trkpt lat="46.49322361359405" lon="11.387393407258662"><ele>279.0</ele><time>2026-05-01T08:49:37.119Z</time></trkpt><trkpt lat="46.49324312433852" lon="11.387603570125032"><ele>279.0</ele><time>2026-05-01T08:49:38.078Z</time></trkpt><trkpt lat="46.49327855" lon="11.387813716666669"><ele>279.0</ele><time>2026-05-01T08:49:39.079Z</time></trkpt><trkpt lat="46.49329723333334" lon="11.388027266666667"><ele>279.0</ele><time>2026-05-01T08:49:40.092Z</time></trkpt><trkpt lat="46.493316666666665" lon="11.388243849999999"><ele>279.0</ele><time>2026-05-01T08:49:41.097Z</time></trkpt><trkpt lat="46.493335200000004" lon="11.388460033333335"><ele>279.0</ele><time>2026-05-01T08:49:42.102Z</time></trkpt><trkpt lat="46.493353283333335" lon="11.388676683333331"><ele>279.0</ele><time>2026-05-01T08:49:43.083Z</time></trkpt><trkpt lat="46.49337824999999" lon="11.388891016666665"><ele>279.0</ele><time>2026-05-01T08:49:44.098Z</time></trkpt><trkpt lat="46.493404049999995" lon="11.389106166666666"><ele>279.0</ele><time>2026-05-01T08:49:45.126Z</time></trkpt><trkpt lat="46.49342511666667" lon="11.389311583333333"><ele>279.0</ele><time>2026-05-01T08:49:46.116Z</time></trkpt><trkpt lat="46.49344268333333" lon="11.389499366666666"><ele>279.0</ele><time>2026-05-01T08:49:47.08Z</time></trkpt><trkpt lat="46.49345683333333" lon="11.389679816666666"><ele>279.75</ele><time>2026-05-01T08:49:48.08Z</time></trkpt><trkpt lat="46.49347101666667" lon="11.389858199999999"><ele>280.5</ele><time>2026-05-01T08:49:49.097Z</time></trkpt><trkpt lat="46.49348576666666" lon="11.390036499999999"><ele>281.25</ele><time>2026-05-01T08:49:50.097Z</time></trkpt><trkpt lat="46.493502033333336" lon="11.39021855"><ele>282.0</ele><time>2026-05-01T08:49:51.101Z</time></trkpt><trkpt lat="46.4935208" lon="11.390403616666667"><ele>284.25</ele><time>2026-05-01T08:49:52.083Z</time></trkpt><trkpt lat="46.493541883333336" lon="11.390582533333335"><ele>286.5</ele><time>2026-05-01T08:49:53.101Z</time></trkpt><trkpt lat="46.49356266666667" lon="11.390758366666667"><ele>288.75</ele><time>2026-05-01T08:49:54.085Z</time></trkpt><trkpt lat="46.4935812" lon="11.390927383333334"><ele>291.0</ele><time>2026-05-01T08:49:55.083Z</time></trkpt><trkpt lat="46.49358224181861" lon="11.391092197799757"><ele>291.0</ele><time>2026-05-01T08:49:56.101Z</time></trkpt><trkpt lat="46.493611099999995" lon="11.39124565"><ele>291.0</ele><time>2026-05-01T08:49:57.079Z</time></trkpt><trkpt lat="46.49362185" lon="11.391397066666666"><ele>291.0</ele><time>2026-05-01T08:49:58.082Z</time></trkpt><trkpt lat="46.493631533333335" lon="11.39154705"><ele>291.0</ele><time>2026-05-01T08:49:59.098Z</time></trkpt><trkpt lat="46.49364541666667" lon="11.391683183333335"><ele>291.0</ele><time>2026-05-01T08:50:00.101Z</time></trkpt><trkpt lat="46.49365468333334" lon="11.39180465"><ele>290.6666666666667</ele><time>2026-05-01T08:50:01.082Z</time></trkpt><trkpt lat="46.49364783333334" lon="11.391906633333335"><ele>290.3333333333333</ele><time>2026-05-01T08:50:02.101Z</time></trkpt><trkpt lat="46.49361911666667" lon="11.391990849999997"><ele>290.0</ele><time>2026-05-01T08:50:03.082Z</time></trkpt><trkpt lat="46.49358247917899" lon="11.392095022570993"><ele>289.66666666666663</ele><time>2026-05-01T08:50:04.082Z</time></trkpt><trkpt lat="46.493514013139446" lon="11.392146676394603"><ele>289.3333333333333</ele><time>2026-05-01T08:50:05.1Z</time></trkpt><trkpt lat="46.4934383564982" lon="11.392212305320447"><ele>289.0</ele><time>2026-05-01T08:50:06.102Z</time></trkpt><trkpt lat="46.49331130577599" lon="11.392198642333089"><ele>289.0</ele><time>2026-05-01T08:50:07.083Z</time></trkpt><trkpt lat="46.493216616666665" lon="11.392298183333333"><ele>289.0</ele><time>2026-05-01T08:50:08.101Z</time></trkpt><trkpt lat="46.49311061666667" lon="11.392391283333334"><ele>289.0</ele><time>2026-05-01T08:50:09.102Z</time></trkpt><trkpt lat="46.493009683333334" lon="11.392519066666665"><ele>289.0</ele><time>2026-05-01T08:50:10.093Z</time></trkpt><trkpt lat="46.49292311666667" lon="11.392694500000001"><ele>288.75</ele><time>2026-05-01T08:50:11.101Z</time></trkpt><trkpt lat="46.4928352" lon="11.392874633333333"><ele>288.5</ele><time>2026-05-01T08:50:12.08Z</time></trkpt><trkpt lat="46.49274005000001" lon="11.393018683333333"><ele>288.25</ele><time>2026-05-01T08:50:13.083Z</time></trkpt><trkpt lat="46.49260678697371" lon="11.393059905652912"><ele>288.0</ele><time>2026-05-01T08:50:14.101Z</time></trkpt><trkpt lat="46.492513614420595" lon="11.393148162135294"><ele>289.5</ele><time>2026-05-01T08:50:15.101Z</time></trkpt><trkpt lat="46.49242436001618" lon="11.3932375008754"><ele>291.0</ele><time>2026-05-01T08:50:16.082Z</time></trkpt><trkpt lat="46.49234480477551" lon="11.393380093807744"><ele>292.5</ele><time>2026-05-01T08:50:17.123Z</time></trkpt><trkpt lat="46.49229774083836" lon="11.393537720562023"><ele>294.0</ele><time>2026-05-01T08:50:18.08Z</time></trkpt><trkpt lat="46.492256605668125" lon="11.393696874096406"><ele>294.75</ele><time>2026-05-01T08:50:19.096Z</time></trkpt><trkpt lat="46.49221434662406" lon="11.393865805381823"><ele>295.5</ele><time>2026-05-01T08:50:20.101Z</time></trkpt><trkpt lat="46.49217235520017" lon="11.394039500242371"><ele>296.25</ele><time>2026-05-01T08:50:21.091Z</time></trkpt><trkpt lat="46.49212943063215" lon="11.394217862569095"><ele>297.0</ele><time>2026-05-01T08:50:22.117Z</time></trkpt><trkpt lat="46.4920865024276" lon="11.394401235781421"><ele>297.0</ele><time>2026-05-01T08:50:23.081Z</time></trkpt><trkpt lat="46.4920440979731" lon="11.394582371703393"><ele>297.0</ele><time>2026-05-01T08:50:24.106Z</time></trkpt><trkpt lat="46.49200351464312" lon="11.39475327892096"><ele>297.0</ele><time>2026-05-01T08:50:25.116Z</time></trkpt><trkpt lat="46.49196041235402" lon="11.394913026878589"><ele>297.0</ele><time>2026-05-01T08:50:26.103Z</time></trkpt><trkpt lat="46.49190932071928" lon="11.395049273194473"><ele>300.0</ele><time>2026-05-01T08:50:27.08Z</time></trkpt><trkpt lat="46.49183254848425" lon="11.3951597111935"><ele>303.0</ele><time>2026-05-01T08:50:28.089Z</time></trkpt><trkpt lat="46.49172103790916" lon="11.395232877519396"><ele>306.0</ele><time>2026-05-01T08:50:29.1Z</time></trkpt><trkpt lat="46.491597641583766" lon="11.395293627547431"><ele>309.0</ele><time>2026-05-01T08:50:30.093Z</time></trkpt><trkpt lat="46.49148770868401" lon="11.395343667304049"><ele>309.0</ele><time>2026-05-01T08:50:31.118Z</time></trkpt><trkpt lat="46.49138919931196" lon="11.395363456477535"><ele>309.0</ele><time>2026-05-01T08:50:32.103Z</time></trkpt><trkpt lat="46.491293680757316" lon="11.395348975070187"><ele>309.0</ele><time>2026-05-01T08:50:33.081Z</time></trkpt><trkpt lat="46.49120673979352" lon="11.395327574938241"><ele>309.0</ele><time>2026-05-01T08:50:34.083Z</time></trkpt><trkpt lat="46.49112816998222" lon="11.395385400533597"><ele>309.0</ele><time>2026-05-01T08:50:35.096Z</time></trkpt><trkpt lat="46.491115705724994" lon="11.395510009638649"><ele>309.0</ele><time>2026-05-01T08:50:36.102Z</time></trkpt><trkpt lat="46.491189360830944" lon="11.395596832331718"><ele>309.0</ele><time>2026-05-01T08:50:37.091Z</time></trkpt><trkpt lat="46.4912691" lon="11.395590450000002"><ele>309.0</ele><time>2026-05-01T08:50:38.101Z</time></trkpt><trkpt lat="46.49134206666666" lon="11.395574866666667"><ele>309.0</ele><time>2026-05-01T08:50:39.08Z</time></trkpt><trkpt lat="46.49142533333333" lon="11.395544583333333"><ele>309.0</ele><time>2026-05-01T08:50:40.083Z</time></trkpt><trkpt lat="46.49152528333334" lon="11.395513066666668"><ele>309.0</ele><time>2026-05-01T08:50:41.098Z</time></trkpt><trkpt lat="46.49164163333333" lon="11.395481083333333"><ele>309.0</ele><time>2026-05-01T08:50:42.08Z</time></trkpt><trkpt lat="46.49177971666666" lon="11.395444333333334"><ele>309.0</ele><time>2026-05-01T08:50:43.083Z</time></trkpt><trkpt lat="46.49193213333333" lon="11.395402183333333"><ele>309.0</ele><time>2026-05-01T08:50:44.093Z</time></trkpt><trkpt lat="46.492078916666664" lon="11.395335283333333"><ele>309.0</ele><time>2026-05-01T08:50:45.103Z</time></trkpt><trkpt lat="46.49220735" lon="11.39522425"><ele>313.6666666666667</ele><time>2026-05-01T08:50:46.092Z</time></trkpt><trkpt lat="46.4923207" lon="11.395062133333331"><ele>318.33333333333337</ele><time>2026-05-01T08:50:47.1Z</time></trkpt><trkpt lat="46.492422000000005" lon="11.394875649999998"><ele>323.0</ele><time>2026-05-01T08:50:48.08Z</time></trkpt><trkpt lat="46.49252164999999" lon="11.394707650000003"><ele>319.59999999999997</ele><time>2026-05-01T08:50:49.083Z</time></trkpt><trkpt lat="46.492617416666654" lon="11.394578116666665"><ele>316.2</ele><time>2026-05-01T08:50:50.098Z</time></trkpt><trkpt lat="46.49269611666667" lon="11.394474633333335"><ele>312.8</ele><time>2026-05-01T08:50:51.081Z</time></trkpt><trkpt lat="46.49276056666666" lon="11.394399700000001"><ele>309.4</ele><time>2026-05-01T08:50:52.083Z</time></trkpt><trkpt lat="46.49282126666667" lon="11.394372516666667"><ele>306.0</ele><time>2026-05-01T08:50:53.081Z</time></trkpt><trkpt lat="46.49287636430298" lon="11.394473150687451"><ele>306.0</ele><time>2026-05-01T08:50:55.09Z</time></trkpt><trkpt lat="46.492810930784856" lon="11.394581411632103"><ele>306.0</ele><time>2026-05-01T08:50:57.083Z</time></trkpt><trkpt lat="46.492736226036136" lon="11.394647019621274"><ele>306.0</ele><time>2026-05-01T08:50:58.083Z</time></trkpt><trkpt lat="46.49265609424721" lon="11.394742849463618"><ele>306.0</ele><time>2026-05-01T08:50:59.081Z</time></trkpt><trkpt lat="46.49258017809193" lon="11.394871821296084"><ele>306.0</ele><time>2026-05-01T08:51:00.078Z</time></trkpt><trkpt lat="46.492506159234466" lon="11.395038515887295"><ele>311.6666666666667</ele><time>2026-05-01T08:51:01.117Z</time></trkpt><trkpt lat="46.49242766933427" lon="11.395232747144346"><ele>317.33333333333337</ele><time>2026-05-01T08:51:02.1Z</time></trkpt><trkpt lat="46.492344667598736" lon="11.395438140197196"><ele>323.0</ele><time>2026-05-01T08:51:03.079Z</time></trkpt><trkpt lat="46.49226164647889" lon="11.39560549801735"><ele>325.25</ele><time>2026-05-01T08:51:04.081Z</time></trkpt><trkpt lat="46.49215898333333" lon="11.395737433333332"><ele>327.5</ele><time>2026-05-01T08:51:05.101Z</time></trkpt><trkpt lat="46.49202236666667" lon="11.3958214"><ele>329.75</ele><time>2026-05-01T08:51:06.101Z</time></trkpt><trkpt lat="46.491872216666664" lon="11.395892833333335"><ele>332.0</ele><time>2026-05-01T08:51:07.084Z</time></trkpt><trkpt lat="46.49171253333334" lon="11.395960099999998"><ele>332.25</ele><time>2026-05-01T08:51:08.101Z</time></trkpt><trkpt lat="46.49156345" lon="11.396027966666667"><ele>332.5</ele><time>2026-05-01T08:51:09.081Z</time></trkpt><trkpt lat="46.491429100000005" lon="11.396090699999998"><ele>332.75</ele><time>2026-05-01T08:51:10.115Z</time></trkpt><trkpt lat="46.49129050050132" lon="11.396129852958907"><ele>333.0</ele><time>2026-05-01T08:51:11.101Z</time></trkpt><trkpt lat="46.491183601190194" lon="11.396254781662584"><ele>343.0</ele><time>2026-05-01T08:51:12.102Z</time></trkpt><trkpt lat="46.49111462611146" lon="11.396420435716928"><ele>353.0</ele><time>2026-05-01T08:51:13.082Z</time></trkpt><trkpt lat="46.49108924839473" lon="11.396613500590282"><ele>363.0</ele><time>2026-05-01T08:51:14.093Z</time></trkpt><trkpt lat="46.49112449999999" lon="11.396798850000001"><ele>373.0</ele><time>2026-05-01T08:51:15.1Z</time></trkpt><trkpt lat="46.49118313333333" lon="11.396984000000002"><ele>373.0</ele><time>2026-05-01T08:51:16.094Z</time></trkpt><trkpt lat="46.49124953333334" lon="11.397162383333333"><ele>373.0</ele><time>2026-05-01T08:51:17.1Z</time></trkpt><trkpt lat="46.491291749999995" lon="11.397340249999997"><ele>373.0</ele><time>2026-05-01T08:51:18.102Z</time></trkpt><trkpt lat="46.491295733333324" lon="11.397514383333332"><ele>373.0</ele><time>2026-05-01T08:51:19.084Z</time></trkpt><trkpt lat="46.49124191046624" lon="11.397659432977587"><ele>374.75</ele><time>2026-05-01T08:51:20.098Z</time></trkpt><trkpt lat="46.491185650000006" lon="11.397817983333335"><ele>376.5</ele><time>2026-05-01T08:51:21.113Z</time></trkpt><trkpt lat="46.49110819999999" lon="11.397964783333334"><ele>378.25</ele><time>2026-05-01T08:51:22.09Z</time></trkpt><trkpt lat="46.491049249999996" lon="11.3981207"><ele>380.0</ele><time>2026-05-01T08:51:23.101Z</time></trkpt><trkpt lat="46.4910247" lon="11.3982755"><ele>380.0</ele><time>2026-05-01T08:51:24.081Z</time></trkpt><trkpt lat="46.49103298333333" lon="11.398410016666666"><ele>380.0</ele><time>2026-05-01T08:51:25.094Z</time></trkpt><trkpt lat="46.491037350354276" lon="11.398536046811092"><ele>380.0</ele><time>2026-05-01T08:51:26.101Z</time></trkpt><trkpt lat="46.49105441868519" lon="11.398631533875449"><ele>380.0</ele><time>2026-05-01T08:51:27.101Z</time></trkpt><trkpt lat="46.49100968333334" lon="11.3987403"><ele>380.0</ele><time>2026-05-01T08:51:29.101Z</time></trkpt><trkpt lat="46.490946833333325" lon="11.398709533333333"><ele>380.0</ele><time>2026-05-01T08:51:30.086Z</time></trkpt><trkpt lat="46.490905383333335" lon="11.398619949999999"><ele>380.0</ele><time>2026-05-01T08:51:31.084Z</time></trkpt><trkpt lat="46.4908912" lon="11.398485799999998"><ele>380.0</ele><time>2026-05-01T08:51:32.101Z</time></trkpt><trkpt lat="46.49087921666666" lon="11.39831525"><ele>380.0</ele><time>2026-05-01T08:51:33.103Z</time></trkpt><trkpt lat="46.49088402625364" lon="11.398113360323558"><ele>380.0</ele><time>2026-05-01T08:51:34.082Z</time></trkpt><trkpt lat="46.490877072583345" lon="11.397914274155248"><ele>380.33333333333337</ele><time>2026-05-01T08:51:35.098Z</time></trkpt><trkpt lat="46.49086723333333" lon="11.3977468"><ele>380.6666666666667</ele><time>2026-05-01T08:51:36.08Z</time></trkpt><trkpt lat="46.49087773333334" lon="11.397606716666667"><ele>381.0</ele><time>2026-05-01T08:51:37.084Z</time></trkpt><trkpt lat="46.490849016666665" lon="11.397510116666668"><ele>381.3333333333333</ele><time>2026-05-01T08:51:38.101Z</time></trkpt><trkpt lat="46.490785996818644" lon="11.397445489387467"><ele>381.66666666666663</ele><time>2026-05-01T08:51:39.08Z</time></trkpt><trkpt lat="46.4907086437807" lon="11.397478539684823"><ele>382.0</ele><time>2026-05-01T08:51:40.083Z</time></trkpt><trkpt lat="46.49067756666667" lon="11.397585616666666"><ele>382.0</ele><time>2026-05-01T08:51:41.102Z</time></trkpt><trkpt lat="46.49065698333334" lon="11.397710300000004"><ele>382.0</ele><time>2026-05-01T08:51:42.083Z</time></trkpt><trkpt lat="46.490657350000006" lon="11.397877633333334"><ele>382.0</ele><time>2026-05-01T08:51:43.081Z</time></trkpt><trkpt lat="46.490657799999994" lon="11.398072366666668"><ele>382.0</ele><time>2026-05-01T08:51:44.097Z</time></trkpt><trkpt lat="46.49065900000001" lon="11.398287999999999"><ele>381.5</ele><time>2026-05-01T08:51:45.103Z</time></trkpt><trkpt lat="46.49065743333333" lon="11.398505800000002"><ele>381.0</ele><time>2026-05-01T08:51:46.079Z</time></trkpt><trkpt lat="46.490651616666675" lon="11.398703483333334"><ele>380.5</ele><time>2026-05-01T08:51:47.104Z</time></trkpt><trkpt lat="46.49062595000001" lon="11.398879616666667"><ele>380.0</ele><time>2026-05-01T08:51:48.097Z</time></trkpt><trkpt lat="46.49057394999999" lon="11.399048583333336"><ele>379.25</ele><time>2026-05-01T08:51:49.08Z</time></trkpt><trkpt lat="46.490508266666666" lon="11.399221250000002"><ele>378.5</ele><time>2026-05-01T08:51:50.097Z</time></trkpt><trkpt lat="46.4904353" lon="11.3994087"><ele>377.75</ele><time>2026-05-01T08:51:51.103Z</time></trkpt><trkpt lat="46.49036495" lon="11.399616916666664"><ele>377.0</ele><time>2026-05-01T08:51:52.117Z</time></trkpt><trkpt lat="46.49030586666666" lon="11.399850150000002"><ele>395.6666666666667</ele><time>2026-05-01T08:51:53.123Z</time></trkpt><trkpt lat="46.49025676666667" lon="11.400086633333334"><ele>414.33333333333337</ele><time>2026-05-01T08:51:54.077Z</time></trkpt><trkpt lat="46.49021973333333" lon="11.400303416666668"><ele>433.0</ele><time>2026-05-01T08:51:55.12Z</time></trkpt><trkpt lat="46.49020846666667" lon="11.400505233333336"><ele>434.75</ele><time>2026-05-01T08:51:56.1Z</time></trkpt><trkpt lat="46.49023373333333" lon="11.400706866666667"><ele>436.5</ele><time>2026-05-01T08:51:57.1Z</time></trkpt><trkpt lat="46.49028446666666" lon="11.400904199999998"><ele>438.25</ele><time>2026-05-01T08:51:58.08Z</time></trkpt><trkpt lat="46.49031988333333" lon="11.401097133333332"><ele>440.0</ele><time>2026-05-01T08:51:59.102Z</time></trkpt><trkpt lat="46.49033209999999" lon="11.401290083333333"><ele>441.5</ele><time>2026-05-01T08:52:00.08Z</time></trkpt><trkpt lat="46.49029935961875" lon="11.401466548407946"><ele>443.0</ele><time>2026-05-01T08:52:01.083Z</time></trkpt><trkpt lat="46.490268756054256" lon="11.401644644382738"><ele>444.5</ele><time>2026-05-01T08:52:02.098Z</time></trkpt><trkpt lat="46.490267079456174" lon="11.401845830338136"><ele>446.0</ele><time>2026-05-01T08:52:03.08Z</time></trkpt><trkpt lat="46.49031811666667" lon="11.402026999999999"><ele>447.75</ele><time>2026-05-01T08:52:04.084Z</time></trkpt><trkpt lat="46.49033528333332" lon="11.402205333333331"><ele>449.5</ele><time>2026-05-01T08:52:05.098Z</time></trkpt><trkpt lat="46.49033325" lon="11.4023749"><ele>451.25</ele><time>2026-05-01T08:52:06.092Z</time></trkpt><trkpt lat="46.49034660000001" lon="11.402529333333332"><ele>453.0</ele><time>2026-05-01T08:52:07.084Z</time></trkpt><trkpt lat="46.49040006666667" lon="11.402663566666668"><ele>445.5</ele><time>2026-05-01T08:52:08.102Z</time></trkpt><trkpt lat="46.490473666666674" lon="11.402795183333334"><ele>438.0</ele><time>2026-05-01T08:52:09.08Z</time></trkpt><trkpt lat="46.490542149999996" lon="11.402933800000001"><ele>430.5</ele><time>2026-05-01T08:52:10.081Z</time></trkpt><trkpt lat="46.49057215416021" lon="11.403087595532643"><ele>423.0</ele><time>2026-05-01T08:52:11.094Z</time></trkpt><trkpt lat="46.49061428292593" lon="11.403241639829327"><ele>423.0</ele><time>2026-05-01T08:52:12.102Z</time></trkpt><trkpt lat="46.49067624999999" lon="11.403377916666667"><ele>423.0</ele><time>2026-05-01T08:52:13.081Z</time></trkpt><trkpt lat="46.49070785" lon="11.403523016666666"><ele>423.0</ele><time>2026-05-01T08:52:14.098Z</time></trkpt><trkpt lat="46.49069898984345" lon="11.403670166848748"><ele>423.0</ele><time>2026-05-01T08:52:15.08Z</time></trkpt><trkpt lat="46.49069605680669" lon="11.403821989404662"><ele>423.0</ele><time>2026-05-01T08:52:16.081Z</time></trkpt><trkpt lat="46.49070022947962" lon="11.403976895516541"><ele>425.0</ele><time>2026-05-01T08:52:17.098Z</time></trkpt><trkpt lat="46.490732516418056" lon="11.404130681459263"><ele>427.0</ele><time>2026-05-01T08:52:18.094Z</time></trkpt><trkpt lat="46.49079140859836" lon="11.404256719453887"><ele>428.99999999999994</ele><time>2026-05-01T08:52:19.081Z</time></trkpt><trkpt lat="46.490836765870704" lon="11.404367009596555"><ele>431.0</ele><time>2026-05-01T08:52:20.089Z</time></trkpt><trkpt lat="46.490864001865916" lon="11.404485220292639"><ele>433.0</ele><time>2026-05-01T08:52:21.079Z</time></trkpt><trkpt lat="46.49086062226174" lon="11.404606021784524"><ele>435.59999999999997</ele><time>2026-05-01T08:52:22.118Z</time></trkpt><trkpt lat="46.49084434999426" lon="11.40473700445473"><ele>438.19999999999993</ele><time>2026-05-01T08:52:23.102Z</time></trkpt><trkpt lat="46.49082986413758" lon="11.404922103884253"><ele>440.8</ele><time>2026-05-01T08:52:24.081Z</time></trkpt><trkpt lat="46.490864869138534" lon="11.405106782560468"><ele>443.4</ele><time>2026-05-01T08:52:25.137Z</time></trkpt><trkpt lat="46.490900181209255" lon="11.405214230987772"><ele>446.0</ele><time>2026-05-01T08:52:26.102Z</time></trkpt><trkpt lat="46.490854850000005" lon="11.405351283333333"><ele>446.0</ele><time>2026-05-01T08:52:28.081Z</time></trkpt><trkpt lat="46.490777883333344" lon="11.405263583333332"><ele>446.0</ele><time>2026-05-01T08:52:30.08Z</time></trkpt><trkpt lat="46.49076931666667" lon="11.405135983333333"><ele>446.0</ele><time>2026-05-01T08:52:31.099Z</time></trkpt><trkpt lat="46.49076766666667" lon="11.404955216666668"><ele>446.0</ele><time>2026-05-01T08:52:32.079Z</time></trkpt><trkpt lat="46.49074916666667" lon="11.404759550000001"><ele>446.0</ele><time>2026-05-01T08:52:33.08Z</time></trkpt><trkpt lat="46.4906952" lon="11.404595716666664"><ele>442.75</ele><time>2026-05-01T08:52:34.081Z</time></trkpt><trkpt lat="46.49059421666666" lon="11.4044697"><ele>439.5</ele><time>2026-05-01T08:52:35.102Z</time></trkpt><trkpt lat="46.490496150000006" lon="11.404351816666669"><ele>436.25</ele><time>2026-05-01T08:52:36.092Z</time></trkpt><trkpt lat="46.49042077660717" lon="11.40421849435899"><ele>433.0</ele><time>2026-05-01T08:52:37.084Z</time></trkpt><trkpt lat="46.490409900509" lon="11.404037109122276"><ele>441.25</ele><time>2026-05-01T08:52:38.101Z</time></trkpt><trkpt lat="46.4904134826605" lon="11.4038594"><ele>449.5</ele><time>2026-05-01T08:52:39.078Z</time></trkpt><trkpt lat="46.490403283333336" lon="11.403688333333333"><ele>457.75</ele><time>2026-05-01T08:52:40.089Z</time></trkpt><trkpt lat="46.49033093333334" lon="11.40354075"><ele>466.0</ele><time>2026-05-01T08:52:41.085Z</time></trkpt><trkpt lat="46.49021948333334" lon="11.403412966666668"><ele>466.0</ele><time>2026-05-01T08:52:42.08Z</time></trkpt><trkpt lat="46.49008128333333" lon="11.403279916666667"><ele>466.0</ele><time>2026-05-01T08:52:43.08Z</time></trkpt><trkpt lat="46.48994235" lon="11.403139783333332"><ele>466.0</ele><time>2026-05-01T08:52:44.102Z</time></trkpt><trkpt lat="46.48981134962482" lon="11.403010164622575"><ele>461.6666666666667</ele><time>2026-05-01T08:52:45.08Z</time></trkpt><trkpt lat="46.4897376671608" lon="11.402809467039475"><ele>457.33333333333337</ele><time>2026-05-01T08:52:46.081Z</time></trkpt><trkpt lat="46.489702425579694" lon="11.402572701366077"><ele>453.0</ele><time>2026-05-01T08:52:47.101Z</time></trkpt><trkpt lat="46.48967041707756" lon="11.402305623858089"><ele>450.66666666666663</ele><time>2026-05-01T08:52:48.08Z</time></trkpt><trkpt lat="46.48963663943736" lon="11.402024217066117"><ele>448.3333333333333</ele><time>2026-05-01T08:52:49.078Z</time></trkpt><trkpt lat="46.48963577213066" lon="11.401751795560129"><ele>446.0</ele><time>2026-05-01T08:52:50.079Z</time></trkpt><trkpt lat="46.48964988856493" lon="11.401498581555563"><ele>444.0</ele><time>2026-05-01T08:52:51.085Z</time></trkpt><trkpt lat="46.48964216088463" lon="11.401249457023496"><ele>442.0</ele><time>2026-05-01T08:52:52.095Z</time></trkpt><trkpt lat="46.489605193664595" lon="11.401014835568471"><ele>440.0</ele><time>2026-05-01T08:52:53.104Z</time></trkpt><trkpt lat="46.48956266547676" lon="11.400811722640073"><ele>449.6</ele><time>2026-05-01T08:52:54.081Z</time></trkpt><trkpt lat="46.48953087764753" lon="11.40063227255066"><ele>459.2</ele><time>2026-05-01T08:52:55.081Z</time></trkpt><trkpt lat="46.489512780292614" lon="11.400505013040934"><ele>468.79999999999995</ele><time>2026-05-01T08:52:56.102Z</time></trkpt><trkpt lat="46.48947809999999" lon="11.400426766666666"><ele>478.4</ele><time>2026-05-01T08:52:57.08Z</time></trkpt><trkpt lat="46.48939600202134" lon="11.400380488041097"><ele>488.0</ele><time>2026-05-01T08:52:58.08Z</time></trkpt><trkpt lat="46.48929554591898" lon="11.400469340442282"><ele>490.25</ele><time>2026-05-01T08:52:59.079Z</time></trkpt><trkpt lat="46.48930328063904" lon="11.400667638981952"><ele>492.5</ele><time>2026-05-01T08:53:00.083Z</time></trkpt><trkpt lat="46.48936407175228" lon="11.400799465650344"><ele>494.75</ele><time>2026-05-01T08:53:01.094Z</time></trkpt><trkpt lat="46.48942121482103" lon="11.40094238752314"><ele>497.0</ele><time>2026-05-01T08:53:02.099Z</time></trkpt><trkpt lat="46.48945894009368" lon="11.401096402187417"><ele>497.0</ele><time>2026-05-01T08:53:03.08Z</time></trkpt><trkpt lat="46.4894629772096" lon="11.401242173575797"><ele>497.00000000000006</ele><time>2026-05-01T08:53:04.079Z</time></trkpt><trkpt lat="46.48944187633822" lon="11.40136836324816"><ele>497.00000000000006</ele><time>2026-05-01T08:53:05.098Z</time></trkpt><trkpt lat="46.48938891154041" lon="11.401511378631179"><ele>497.0</ele><time>2026-05-01T08:53:06.087Z</time></trkpt><trkpt lat="46.489324033361655" lon="11.401685610515283"><ele>497.0</ele><time>2026-05-01T08:53:07.084Z</time></trkpt><trkpt lat="46.48926742709055" lon="11.401895858539103"><ele>497.3333333333333</ele><time>2026-05-01T08:53:08.102Z</time></trkpt><trkpt lat="46.48923202775035" lon="11.4021345122302"><ele>497.66666666666663</ele><time>2026-05-01T08:53:09.102Z</time></trkpt><trkpt lat="46.48921600615998" lon="11.402391926387116"><ele>498.0</ele><time>2026-05-01T08:53:10.086Z</time></trkpt><trkpt lat="46.48921767886657" lon="11.402679768209786"><ele>498.66666666666663</ele><time>2026-05-01T08:53:11.099Z</time></trkpt><trkpt lat="46.489231398050194" lon="11.402980546513806"><ele>499.3333333333333</ele><time>2026-05-01T08:53:12.102Z</time></trkpt><trkpt lat="46.48924318306164" lon="11.403290936942641"><ele>500.0</ele><time>2026-05-01T08:53:13.081Z</time></trkpt><trkpt lat="46.489249271098146" lon="11.403608854952914"><ele>506.3333333333333</ele><time>2026-05-01T08:53:14.102Z</time></trkpt><trkpt lat="46.48925197850631" lon="11.403922236022233"><ele>512.6666666666666</ele><time>2026-05-01T08:53:15.081Z</time></trkpt><trkpt lat="46.48926366932091" lon="11.404224679547545"><ele>519.0</ele><time>2026-05-01T08:53:16.081Z</time></trkpt><trkpt lat="46.48927989383711" lon="11.40451618582333"><ele>521.6666666666666</ele><time>2026-05-01T08:53:17.102Z</time></trkpt><trkpt lat="46.48929121658652" lon="11.404804884315093"><ele>524.3333333333333</ele><time>2026-05-01T08:53:18.081Z</time></trkpt><trkpt lat="46.48931323333333" lon="11.405093283333333"><ele>527.0</ele><time>2026-05-01T08:53:19.081Z</time></trkpt><trkpt lat="46.4893129" lon="11.405380816666664"><ele>529.6666666666666</ele><time>2026-05-01T08:53:20.099Z</time></trkpt><trkpt lat="46.48931255000001" lon="11.405670516666666"><ele>532.3333333333334</ele><time>2026-05-01T08:53:21.081Z</time></trkpt><trkpt lat="46.48931103333333" lon="11.405962983333332"><ele>535.0</ele><time>2026-05-01T08:53:22.091Z</time></trkpt><trkpt lat="46.48930301666665" lon="11.40626195"><ele>535.6666666666667</ele><time>2026-05-01T08:53:23.102Z</time></trkpt><trkpt lat="46.48928431666666" lon="11.406554850000001"><ele>536.3333333333334</ele><time>2026-05-01T08:53:24.099Z</time></trkpt><trkpt lat="46.489242919279285" lon="11.406816574640432"><ele>537.0</ele><time>2026-05-01T08:53:25.081Z</time></trkpt><trkpt lat="46.48922204336586" lon="11.4070554359604"><ele>536.5</ele><time>2026-05-01T08:53:26.102Z</time></trkpt><trkpt lat="46.489217695698535" lon="11.407268627099667"><ele>536.0</ele><time>2026-05-01T08:53:27.081Z</time></trkpt><trkpt lat="46.48923124384395" lon="11.407455003822616"><ele>535.5</ele><time>2026-05-01T08:53:28.081Z</time></trkpt><trkpt lat="46.48925796666668" lon="11.407606816666664"><ele>535.0</ele><time>2026-05-01T08:53:29.099Z</time></trkpt><trkpt lat="46.48925028333333" lon="11.407737349999998"><ele>535.0</ele><time>2026-05-01T08:53:30.105Z</time></trkpt><trkpt lat="46.48921088333333" lon="11.40782748333333"><ele>535.0</ele><time>2026-05-01T08:53:31.082Z</time></trkpt><trkpt lat="46.48915116666667" lon="11.407864183333333"><ele>535.0</ele><time>2026-05-01T08:53:32.101Z</time></trkpt><trkpt lat="46.489081750000004" lon="11.407836783333334"><ele>535.0</ele><time>2026-05-01T08:53:33.091Z</time></trkpt><trkpt lat="46.489033500000005" lon="11.407755783333336"><ele>535.0</ele><time>2026-05-01T08:53:34.12Z</time></trkpt><trkpt lat="46.48902048333333" lon="11.407633266666668"><ele>535.0</ele><time>2026-05-01T08:53:35.099Z</time></trkpt><trkpt lat="46.4890321" lon="11.407482283333332"><ele>535.0</ele><time>2026-05-01T08:53:36.081Z</time></trkpt><trkpt lat="46.4890423" lon="11.407297233333335"><ele>535.0</ele><time>2026-05-01T08:53:37.116Z</time></trkpt><trkpt lat="46.48902759999999" lon="11.4070776"><ele>535.0</ele><time>2026-05-01T08:53:38.097Z</time></trkpt><trkpt lat="46.48898171666667" lon="11.406834383333335"><ele>535.0</ele><time>2026-05-01T08:53:39.102Z</time></trkpt><trkpt lat="46.48891153333334" lon="11.406570233333332"><ele>535.0</ele><time>2026-05-01T08:53:40.118Z</time></trkpt><trkpt lat="46.488839150000004" lon="11.406297716666666"><ele>535.0</ele><time>2026-05-01T08:53:41.099Z</time></trkpt><trkpt lat="46.488786399999995" lon="11.406027016666666"><ele>535.0</ele><time>2026-05-01T08:53:42.092Z</time></trkpt><trkpt lat="46.488775167901444" lon="11.405750176970388"><ele>535.0</ele><time>2026-05-01T08:53:43.081Z</time></trkpt><trkpt lat="46.48876169765231" lon="11.40545842724676"><ele>535.0</ele><time>2026-05-01T08:53:44.102Z</time></trkpt><trkpt lat="46.488746645817926" lon="11.405177413116522"><ele>548.0</ele><time>2026-05-01T08:53:45.102Z</time></trkpt><trkpt lat="46.48872069992255" lon="11.404933754538572"><ele>561.0</ele><time>2026-05-01T08:53:46.098Z</time></trkpt><trkpt lat="46.48866598608903" lon="11.40471414882267"><ele>574.0</ele><time>2026-05-01T08:53:47.102Z</time></trkpt><trkpt lat="46.488571077131645" lon="11.404512361885283"><ele>574.0</ele><time>2026-05-01T08:53:48.079Z</time></trkpt><trkpt lat="46.48844545" lon="11.404325983333335"><ele>574.0</ele><time>2026-05-01T08:53:49.083Z</time></trkpt><trkpt lat="46.48833279801585" lon="11.404088105278658"><ele>574.0</ele><time>2026-05-01T08:53:50.081Z</time></trkpt><trkpt lat="46.48819513354661" lon="11.4038689316854"><ele>584.5</ele><time>2026-05-01T08:53:51.092Z</time></trkpt><trkpt lat="46.4880398545595" lon="11.403642074771748"><ele>595.0</ele><time>2026-05-01T08:53:52.08Z</time></trkpt><trkpt lat="46.487860738168784" lon="11.403409209631752"><ele>595.0</ele><time>2026-05-01T08:53:53.078Z</time></trkpt><trkpt lat="46.48767545574998" lon="11.403191200453554"><ele>595.0</ele><time>2026-05-01T08:53:54.08Z</time></trkpt><trkpt lat="46.48750138333333" lon="11.403012233333333"><ele>587.6666666666667</ele><time>2026-05-01T08:53:55.084Z</time></trkpt><trkpt lat="46.48737016666668" lon="11.402796133333334"><ele>580.3333333333334</ele><time>2026-05-01T08:53:56.09Z</time></trkpt><trkpt lat="46.48726071666667" lon="11.402563266666666"><ele>573.0</ele><time>2026-05-01T08:53:57.101Z</time></trkpt><trkpt lat="46.48717379056425" lon="11.402313366941137"><ele>578.6666666666666</ele><time>2026-05-01T08:53:58.08Z</time></trkpt><trkpt lat="46.487080392773" lon="11.402085405401985"><ele>584.3333333333333</ele><time>2026-05-01T08:53:59.102Z</time></trkpt><trkpt lat="46.48698407957265" lon="11.401883534068059"><ele>590.0</ele><time>2026-05-01T08:54:00.089Z</time></trkpt><trkpt lat="46.486863831673006" lon="11.401702605975357"><ele>590.0</ele><time>2026-05-01T08:54:01.081Z</time></trkpt><trkpt lat="46.48673051590892" lon="11.401550313027569"><ele>590.0</ele><time>2026-05-01T08:54:02.098Z</time></trkpt><trkpt lat="46.48659553943017" lon="11.4014249413865"><ele>590.0</ele><time>2026-05-01T08:54:03.081Z</time></trkpt><trkpt lat="46.48645094040102" lon="11.401362470552847"><ele>590.0</ele><time>2026-05-01T08:54:04.085Z</time></trkpt><trkpt lat="46.486312017185924" lon="11.401342171312846"><ele>590.0</ele><time>2026-05-01T08:54:05.08Z</time></trkpt><trkpt lat="46.486183898084086" lon="11.401361366171773"><ele>590.0</ele><time>2026-05-01T08:54:06.081Z</time></trkpt><trkpt lat="46.48606311310546" lon="11.40141022682532"><ele>590.0</ele><time>2026-05-01T08:54:07.085Z</time></trkpt><trkpt lat="46.48594480317862" lon="11.401484466608855"><ele>595.0</ele><time>2026-05-01T08:54:08.103Z</time></trkpt><trkpt lat="46.48582779270794" lon="11.401599176569798"><ele>600.0</ele><time>2026-05-01T08:54:09.093Z</time></trkpt><trkpt lat="46.485705164622324" lon="11.401714682777666"><ele>605.0</ele><time>2026-05-01T08:54:10.081Z</time></trkpt><trkpt lat="46.48557478283916" lon="11.401865728487033"><ele>605.0</ele><time>2026-05-01T08:54:11.102Z</time></trkpt><trkpt lat="46.48546807146069" lon="11.402046503122632"><ele>605.0</ele><time>2026-05-01T08:54:12.103Z</time></trkpt><trkpt lat="46.48537969064519" lon="11.402214850916272"><ele>605.0</ele><time>2026-05-01T08:54:13.08Z</time></trkpt><trkpt lat="46.48528397907526" lon="11.402342885416594"><ele>605.0</ele><time>2026-05-01T08:54:14.079Z</time></trkpt><trkpt lat="46.48515391895405" lon="11.40243418881016"><ele>607.5</ele><time>2026-05-01T08:54:15.081Z</time></trkpt><trkpt lat="46.48501379718766" lon="11.402509819137954"><ele>610.0</ele><time>2026-05-01T08:54:16.081Z</time></trkpt><trkpt lat="46.48488639827003" lon="11.402577385342827"><ele>612.5</ele><time>2026-05-01T08:54:17.102Z</time></trkpt><trkpt lat="46.484791615423866" lon="11.40263676263328"><ele>615.0</ele><time>2026-05-01T08:54:18.081Z</time></trkpt><trkpt lat="46.48472049389506" lon="11.40269453864511"><ele>615.0</ele><time>2026-05-01T08:54:19.081Z</time></trkpt><trkpt lat="46.484667647660046" lon="11.402795252315869"><ele>615.0</ele><time>2026-05-01T08:54:20.103Z</time></trkpt><trkpt lat="46.484635255977544" lon="11.402933159252342"><ele>615.0</ele><time>2026-05-01T08:54:21.079Z</time></trkpt><trkpt lat="46.48460429135417" lon="11.403104241098898"><ele>615.0</ele><time>2026-05-01T08:54:22.08Z</time></trkpt><trkpt lat="46.48456484407202" lon="11.403306005114949"><ele>612.3333333333334</ele><time>2026-05-01T08:54:23.079Z</time></trkpt><trkpt lat="46.48450631299586" lon="11.403532023371685"><ele>609.6666666666667</ele><time>2026-05-01T08:54:24.083Z</time></trkpt><trkpt lat="46.484429465869134" lon="11.403766273663447"><ele>607.0</ele><time>2026-05-01T08:54:25.085Z</time></trkpt><trkpt lat="46.484345012485846" lon="11.40399769927004"><ele>611.75</ele><time>2026-05-01T08:54:26.102Z</time></trkpt><trkpt lat="46.48426872788843" lon="11.404204942222272"><ele>616.5</ele><time>2026-05-01T08:54:27.082Z</time></trkpt><trkpt lat="46.48420508878594" lon="11.404383485925576"><ele>621.25</ele><time>2026-05-01T08:54:28.095Z</time></trkpt><trkpt lat="46.48415564113887" lon="11.404561463786907"><ele>626.0</ele><time>2026-05-01T08:54:29.103Z</time></trkpt><trkpt lat="46.48412723255662" lon="11.404758257194905"><ele>630.0</ele><time>2026-05-01T08:54:30.102Z</time></trkpt><trkpt lat="46.48411534179542" lon="11.40497337024221"><ele>634.0</ele><time>2026-05-01T08:54:31.127Z</time></trkpt><trkpt lat="46.484101827626446" lon="11.405198614367077"><ele>638.0</ele><time>2026-05-01T08:54:32.102Z</time></trkpt><trkpt lat="46.48408011752172" lon="11.405432171896694"><ele>643.6666666666666</ele><time>2026-05-01T08:54:33.081Z</time></trkpt><trkpt lat="46.484054151549586" lon="11.405671670594213"><ele>649.3333333333334</ele><time>2026-05-01T08:54:34.081Z</time></trkpt><trkpt lat="46.48403967229907" lon="11.405895841637271"><ele>655.0</ele><time>2026-05-01T08:54:35.099Z</time></trkpt><trkpt lat="46.48403095255869" lon="11.40608805540267"><ele>655.0</ele><time>2026-05-01T08:54:36.103Z</time></trkpt><trkpt lat="46.48401025667696" lon="11.406247411619688"><ele>655.0</ele><time>2026-05-01T08:54:37.09Z</time></trkpt><trkpt lat="46.48396984906779" lon="11.406378463756894"><ele>655.0</ele><time>2026-05-01T08:54:38.103Z</time></trkpt><trkpt lat="46.48390237566444" lon="11.4064715293695"><ele>655.0</ele><time>2026-05-01T08:54:39.081Z</time></trkpt><trkpt lat="46.483809730743594" lon="11.406546087396872"><ele>655.0</ele><time>2026-05-01T08:54:40.119Z</time></trkpt><trkpt lat="46.48369529664081" lon="11.406627215004312"><ele>657.75</ele><time>2026-05-01T08:54:41.103Z</time></trkpt><trkpt lat="46.48357873621737" lon="11.406750675901161"><ele>660.5</ele><time>2026-05-01T08:54:42.088Z</time></trkpt><trkpt lat="46.483470549006356" lon="11.406893749221698"><ele>663.25</ele><time>2026-05-01T08:54:43.081Z</time></trkpt><trkpt lat="46.48336928581039" lon="11.40705620737783"><ele>666.0</ele><time>2026-05-01T08:54:44.105Z</time></trkpt><trkpt lat="46.483301350149404" lon="11.40722441527776"><ele>666.0</ele><time>2026-05-01T08:54:45.082Z</time></trkpt><trkpt lat="46.48325416694541" lon="11.407338153386155"><ele>666.0</ele><time>2026-05-01T08:54:46.092Z</time></trkpt><trkpt lat="46.48320599542101" lon="11.407432364002716"><ele>666.0</ele><time>2026-05-01T08:54:47.103Z</time></trkpt><trkpt lat="46.48319085918513" lon="11.407541383333333"><ele>666.0</ele><time>2026-05-01T08:54:48.08Z</time></trkpt><trkpt lat="46.48323690000001" lon="11.407610716666667"><ele>666.0</ele><time>2026-05-01T08:54:49.082Z</time></trkpt><trkpt lat="46.48333736666667" lon="11.407700183333334"><ele>666.0</ele><time>2026-05-01T08:54:51.09Z</time></trkpt><trkpt lat="46.48345378333333" lon="11.407701783333335"><ele>666.0</ele><time>2026-05-01T08:54:53.103Z</time></trkpt><trkpt lat="46.483520966666674" lon="11.4076869"><ele>666.0</ele><time>2026-05-01T08:54:54.08Z</time></trkpt><trkpt lat="46.48360986666667" lon="11.407678316666667"><ele>666.0</ele><time>2026-05-01T08:54:55.091Z</time></trkpt><trkpt lat="46.483715066666676" lon="11.407674483333336"><ele>666.0</ele><time>2026-05-01T08:54:56.098Z</time></trkpt><trkpt lat="46.48381801666666" lon="11.407662533333331"><ele>666.0</ele><time>2026-05-01T08:54:57.108Z</time></trkpt><trkpt lat="46.4839084" lon="11.407652083333335"><ele>669.5999999999999</ele><time>2026-05-01T08:54:58.081Z</time></trkpt><trkpt lat="46.48399266666667" lon="11.4076341"><ele>673.2</ele><time>2026-05-01T08:54:59.103Z</time></trkpt><trkpt lat="46.484082633333344" lon="11.407587183333332"><ele>676.8</ele><time>2026-05-01T08:55:00.099Z</time></trkpt><trkpt lat="46.484176766666664" lon="11.407512333333333"><ele>680.4000000000001</ele><time>2026-05-01T08:55:01.08Z</time></trkpt><trkpt lat="46.48427015" lon="11.407408666666665"><ele>684.0</ele><time>2026-05-01T08:55:02.111Z</time></trkpt><trkpt lat="46.484355766666674" lon="11.40728475"><ele>681.0</ele><time>2026-05-01T08:55:03.081Z</time></trkpt><trkpt lat="46.48443323333333" lon="11.407148249999999"><ele>678.0</ele><time>2026-05-01T08:55:04.102Z</time></trkpt><trkpt lat="46.484497633333326" lon="11.407003533333333"><ele>675.0</ele><time>2026-05-01T08:55:05.127Z</time></trkpt><trkpt lat="46.48454526666666" lon="11.406867016666668"><ele>672.0</ele><time>2026-05-01T08:55:06.081Z</time></trkpt><trkpt lat="46.48458130000001" lon="11.406750583333334"><ele>669.0</ele><time>2026-05-01T08:55:07.082Z</time></trkpt><trkpt lat="46.484613733333326" lon="11.406637233333333"><ele>676.25</ele><time>2026-05-01T08:55:08.103Z</time></trkpt><trkpt lat="46.4846449" lon="11.406502466666666"><ele>683.5</ele><time>2026-05-01T08:55:09.081Z</time></trkpt><trkpt lat="46.48467213333334" lon="11.406345783333332"><ele>690.75</ele><time>2026-05-01T08:55:10.119Z</time></trkpt><trkpt lat="46.484712249999994" lon="11.406172450000001"><ele>698.0</ele><time>2026-05-01T08:55:11.103Z</time></trkpt><trkpt lat="46.48476448333332" lon="11.4059792"><ele>698.0</ele><time>2026-05-01T08:55:12.105Z</time></trkpt><trkpt lat="46.48482819999999" lon="11.405778416666665"><ele>698.0</ele><time>2026-05-01T08:55:13.081Z</time></trkpt><trkpt lat="46.48490038333333" lon="11.405589216666666"><ele>698.0</ele><time>2026-05-01T08:55:14.095Z</time></trkpt><trkpt lat="46.484970766666656" lon="11.405416866666668"><ele>698.0</ele><time>2026-05-01T08:55:15.081Z</time></trkpt><trkpt lat="46.485039400000005" lon="11.405276716666668"><ele>698.3333333333333</ele><time>2026-05-01T08:55:16.081Z</time></trkpt><trkpt lat="46.48511957559785" lon="11.40520485397663"><ele>698.6666666666666</ele><time>2026-05-01T08:55:17.103Z</time></trkpt><trkpt lat="46.48518113333333" lon="11.405143266666668"><ele>699.0</ele><time>2026-05-01T08:55:18.081Z</time></trkpt><trkpt lat="46.48525395" lon="11.405142233333335"><ele>699.3333333333334</ele><time>2026-05-01T08:55:19.08Z</time></trkpt><trkpt lat="46.485331098933486" lon="11.405201280864699"><ele>699.6666666666667</ele><time>2026-05-01T08:55:20.099Z</time></trkpt><trkpt lat="46.485434412562356" lon="11.405254983083701"><ele>700.0</ele><time>2026-05-01T08:55:21.079Z</time></trkpt><trkpt lat="46.48555653680398" lon="11.405290433808862"><ele>700.0</ele><time>2026-05-01T08:55:22.089Z</time></trkpt><trkpt lat="46.485679187337944" lon="11.405285304856355"><ele>700.0</ele><time>2026-05-01T08:55:23.097Z</time></trkpt><trkpt lat="46.48577154966207" lon="11.405274245903893"><ele>700.0</ele><time>2026-05-01T08:55:24.104Z</time></trkpt><trkpt lat="46.48585566666668" lon="11.40527205"><ele>700.0</ele><time>2026-05-01T08:55:25.118Z</time></trkpt><trkpt lat="46.48595306666667" lon="11.405341466666668"><ele>700.0</ele><time>2026-05-01T08:55:26.103Z</time></trkpt><trkpt lat="46.48605646666667" lon="11.40543295"><ele>699.0</ele><time>2026-05-01T08:55:27.083Z</time></trkpt><trkpt lat="46.486141950000004" lon="11.405548333333336"><ele>698.0</ele><time>2026-05-01T08:55:28.082Z</time></trkpt><trkpt lat="46.48619695000001" lon="11.4056968"><ele>697.0</ele><time>2026-05-01T08:55:29.1Z</time></trkpt><trkpt lat="46.48622896666668" lon="11.40586013333333"><ele>696.0</ele><time>2026-05-01T08:55:30.08Z</time></trkpt><trkpt lat="46.486268866666656" lon="11.406023616666667"><ele>696.0</ele><time>2026-05-01T08:55:31.085Z</time></trkpt><trkpt lat="46.48632949999999" lon="11.406189533333334"><ele>696.0</ele><time>2026-05-01T08:55:32.093Z</time></trkpt><trkpt lat="46.4864018" lon="11.406345416666667"><ele>696.0</ele><time>2026-05-01T08:55:33.086Z</time></trkpt><trkpt lat="46.48646531666666" lon="11.4064748"><ele>696.0</ele><time>2026-05-01T08:55:34.081Z</time></trkpt><trkpt lat="46.48651266666668" lon="11.4066118"><ele>697.5999999999999</ele><time>2026-05-01T08:55:35.106Z</time></trkpt><trkpt lat="46.48654113333333" lon="11.406760016666665"><ele>699.2</ele><time>2026-05-01T08:55:36.125Z</time></trkpt><trkpt lat="46.48655518333333" lon="11.406914883333332"><ele>700.8</ele><time>2026-05-01T08:55:37.107Z</time></trkpt><trkpt lat="46.48655551666667" lon="11.40707335"><ele>702.4000000000001</ele><time>2026-05-01T08:55:38.121Z</time></trkpt><trkpt lat="46.486551049999996" lon="11.407241783333331"><ele>704.0</ele><time>2026-05-01T08:55:39.129Z</time></trkpt><trkpt lat="46.48653765" lon="11.407405333333333"><ele>704.0</ele><time>2026-05-01T08:55:40.12Z</time></trkpt><trkpt lat="46.486503383333336" lon="11.407562466666665"><ele>704.0</ele><time>2026-05-01T08:55:41.091Z</time></trkpt><trkpt lat="46.486445249999996" lon="11.40772075"><ele>704.0</ele><time>2026-05-01T08:55:42.085Z</time></trkpt><trkpt lat="46.48636753333333" lon="11.407880833333335"><ele>704.0</ele><time>2026-05-01T08:55:43.088Z</time></trkpt><trkpt lat="46.486274349999995" lon="11.408048933333335"><ele>717.3333333333333</ele><time>2026-05-01T08:55:44.1Z</time></trkpt><trkpt lat="46.486178833333334" lon="11.408246416666667"><ele>730.6666666666666</ele><time>2026-05-01T08:55:45.092Z</time></trkpt><trkpt lat="46.486096233333335" lon="11.4084638"><ele>744.0</ele><time>2026-05-01T08:55:46.083Z</time></trkpt><trkpt lat="46.4860294" lon="11.408666283333332"><ele>741.25</ele><time>2026-05-01T08:55:47.093Z</time></trkpt><trkpt lat="46.485979583333325" lon="11.408841600000002"><ele>738.5</ele><time>2026-05-01T08:55:48.083Z</time></trkpt><trkpt lat="46.48593631666666" lon="11.408995299999999"><ele>735.75</ele><time>2026-05-01T08:55:49.085Z</time></trkpt><trkpt lat="46.48588225" lon="11.4091322"><ele>733.0</ele><time>2026-05-01T08:55:50.103Z</time></trkpt><trkpt lat="46.4858112" lon="11.409267416666667"><ele>733.0</ele><time>2026-05-01T08:55:51.083Z</time></trkpt><trkpt lat="46.485714172665695" lon="11.409393049450689"><ele>733.0</ele><time>2026-05-01T08:55:52.084Z</time></trkpt><trkpt lat="46.485624640404424" lon="11.40954365447483"><ele>733.0</ele><time>2026-05-01T08:55:53.094Z</time></trkpt><trkpt lat="46.485529578409626" lon="11.409700354277845"><ele>733.0</ele><time>2026-05-01T08:55:54.085Z</time></trkpt><trkpt lat="46.4854294973649" lon="11.409856059415075"><ele>737.0</ele><time>2026-05-01T08:55:55.082Z</time></trkpt><trkpt lat="46.48532903314276" lon="11.410009782161591"><ele>741.0</ele><time>2026-05-01T08:55:56.093Z</time></trkpt><trkpt lat="46.48523772401542" lon="11.410173925884118"><ele>745.0</ele><time>2026-05-01T08:55:57.085Z</time></trkpt><trkpt lat="46.48516588451373" lon="11.410335845373606"><ele>749.0</ele><time>2026-05-01T08:55:58.085Z</time></trkpt><trkpt lat="46.485108056492926" lon="11.410490872548959"><ele>750.0</ele><time>2026-05-01T08:55:59.088Z</time></trkpt><trkpt lat="46.48508259016979" lon="11.41067302587532"><ele>751.0</ele><time>2026-05-01T08:56:00.085Z</time></trkpt><trkpt lat="46.48507462588428" lon="11.410861989359809"><ele>752.0</ele><time>2026-05-01T08:56:01.084Z</time></trkpt><trkpt lat="46.48505862955971" lon="11.41105896270417"><ele>753.0</ele><time>2026-05-01T08:56:02.093Z</time></trkpt><trkpt lat="46.48502901062388" lon="11.411271597894826"><ele>753.6666666666666</ele><time>2026-05-01T08:56:03.096Z</time></trkpt><trkpt lat="46.48499008118383" lon="11.411493631343921"><ele>754.3333333333333</ele><time>2026-05-01T08:56:04.092Z</time></trkpt><trkpt lat="46.484935727675314" lon="11.411718579975867"><ele>755.0</ele><time>2026-05-01T08:56:05.093Z</time></trkpt><trkpt lat="46.484862891411055" lon="11.411969309246325"><ele>754.3333333333333</ele><time>2026-05-01T08:56:06.085Z</time></trkpt><trkpt lat="46.48480810759695" lon="11.412247192997881"><ele>753.6666666666666</ele><time>2026-05-01T08:56:07.089Z</time></trkpt><trkpt lat="46.48477832659025" lon="11.412492422904958"><ele>753.0</ele><time>2026-05-01T08:56:08.078Z</time></trkpt><trkpt lat="46.484746090087796" lon="11.412705584830336"><ele>753.0</ele><time>2026-05-01T08:56:09.083Z</time></trkpt><trkpt lat="46.484708586303604" lon="11.412864300872622"><ele>753.0</ele><time>2026-05-01T08:56:10.084Z</time></trkpt><trkpt lat="46.48466899744493" lon="11.412959555142043"><ele>753.0</ele><time>2026-05-01T08:56:11.093Z</time></trkpt><trkpt lat="46.48452815" lon="11.413042983333332"><ele>753.0</ele><time>2026-05-01T08:56:13.079Z</time></trkpt><trkpt lat="46.484415870694875" lon="11.413011218014326"><ele>761.6666666666667</ele><time>2026-05-01T08:56:14.093Z</time></trkpt><trkpt lat="46.484275247016406" lon="11.412991159468236"><ele>770.3333333333334</ele><time>2026-05-01T08:56:15.085Z</time></trkpt><trkpt lat="46.484101949063295" lon="11.412990360275161"><ele>779.0</ele><time>2026-05-01T08:56:16.087Z</time></trkpt><trkpt lat="46.48392190267867" lon="11.413007174668763"><ele>784.6666666666667</ele><time>2026-05-01T08:56:17.097Z</time></trkpt><trkpt lat="46.4837364167475" lon="11.413026119527553"><ele>790.3333333333333</ele><time>2026-05-01T08:56:18.091Z</time></trkpt><trkpt lat="46.48355074478029" lon="11.413041787778308"><ele>796.0</ele><time>2026-05-01T08:56:19.088Z</time></trkpt><trkpt lat="46.48337025987614" lon="11.413052414474777"><ele>796.0</ele><time>2026-05-01T08:56:20.095Z</time></trkpt><trkpt lat="46.48318915366964" lon="11.413057035142952"><ele>796.0</ele><time>2026-05-01T08:56:21.088Z</time></trkpt><trkpt lat="46.48302482078669" lon="11.413056185823217"><ele>796.0</ele><time>2026-05-01T08:56:22.081Z</time></trkpt><trkpt lat="46.4828787455342" lon="11.41305314417988"><ele>798.75</ele><time>2026-05-01T08:56:23.094Z</time></trkpt><trkpt lat="46.48273990951889" lon="11.413050253271729"><ele>801.5</ele><time>2026-05-01T08:56:24.087Z</time></trkpt><trkpt lat="46.48260187236076" lon="11.413052721803698"><ele>804.25</ele><time>2026-05-01T08:56:25.086Z</time></trkpt><trkpt lat="46.48246900979148" lon="11.413065850308714"><ele>807.0</ele><time>2026-05-01T08:56:26.093Z</time></trkpt><trkpt lat="46.48234506666666" lon="11.413086209871903"><ele>807.0</ele><time>2026-05-01T08:56:27.096Z</time></trkpt><trkpt lat="46.48222780489431" lon="11.413083212471074"><ele>807.0</ele><time>2026-05-01T08:56:28.088Z</time></trkpt><trkpt lat="46.48212984032727" lon="11.413056735843625"><ele>807.0</ele><time>2026-05-01T08:56:29.094Z</time></trkpt><trkpt lat="46.482043658304164" lon="11.412997507864501"><ele>807.0</ele><time>2026-05-01T08:56:30.089Z</time></trkpt><trkpt lat="46.48196212988299" lon="11.412925065503046"><ele>807.0</ele><time>2026-05-01T08:56:31.1Z</time></trkpt><trkpt lat="46.481889810470754" lon="11.412847673357502"><ele>806.0</ele><time>2026-05-01T08:56:32.093Z</time></trkpt><trkpt lat="46.48182897527867" lon="11.412765301465665"><ele>805.0</ele><time>2026-05-01T08:56:33.078Z</time></trkpt><trkpt lat="46.48176925" lon="11.412681166666667"><ele>804.0</ele><time>2026-05-01T08:56:34.085Z</time></trkpt><trkpt lat="46.481731933333336" lon="11.41257145"><ele>803.0</ele><time>2026-05-01T08:56:35.099Z</time></trkpt><trkpt lat="46.48171245" lon="11.412464266666666"><ele>802.0</ele><time>2026-05-01T08:56:36.114Z</time></trkpt><trkpt lat="46.48169838333333" lon="11.412362733333335"><ele>801.0</ele><time>2026-05-01T08:56:37.084Z</time></trkpt><trkpt lat="46.481680516666664" lon="11.412179733333335"><ele>796.0</ele><time>2026-05-01T08:56:39.107Z</time></trkpt><trkpt lat="46.481680965189334" lon="11.41206501052784"><ele>791.0</ele><time>2026-05-01T08:56:40.086Z</time></trkpt><trkpt lat="46.481645622272715" lon="11.411953008236251"><ele>786.0</ele><time>2026-05-01T08:56:41.095Z</time></trkpt><trkpt lat="46.48157726522188" lon="11.411893362564346"><ele>781.0</ele><time>2026-05-01T08:56:42.106Z</time></trkpt><trkpt lat="46.48151572588957" lon="11.41185880479263"><ele>776.0</ele><time>2026-05-01T08:56:43.083Z</time></trkpt><trkpt lat="46.48144867173762" lon="11.411834491655078"><ele>771.0</ele><time>2026-05-01T08:56:44.091Z</time></trkpt><trkpt lat="46.48137801271522" lon="11.41182128700188"><ele>771.0</ele><time>2026-05-01T08:56:45.091Z</time></trkpt><trkpt lat="46.48129792818688" lon="11.411821715588008"><ele>771.0</ele><time>2026-05-01T08:56:46.087Z</time></trkpt><trkpt lat="46.481209458857435" lon="11.411850123791563"><ele>771.0</ele><time>2026-05-01T08:56:47.091Z</time></trkpt><trkpt lat="46.48112151134483" lon="11.411894552153043"><ele>771.0</ele><time>2026-05-01T08:56:48.105Z</time></trkpt><trkpt lat="46.481030864564154" lon="11.411950087340008"><ele>771.0</ele><time>2026-05-01T08:56:49.084Z</time></trkpt><trkpt lat="46.480939880134564" lon="11.412015737885412"><ele>772.6666666666666</ele><time>2026-05-01T08:56:50.096Z</time></trkpt><trkpt lat="46.48086105273012" lon="11.412082123663756"><ele>774.3333333333333</ele><time>2026-05-01T08:56:51.104Z</time></trkpt><trkpt lat="46.48078615400932" lon="11.412145953291603"><ele>776.0</ele><time>2026-05-01T08:56:52.086Z</time></trkpt><trkpt lat="46.4807229040113" lon="11.412195140850768"><ele>777.6666666666666</ele><time>2026-05-01T08:56:53.092Z</time></trkpt><trkpt lat="46.480648149234355" lon="11.412237777774774"><ele>779.3333333333333</ele><time>2026-05-01T08:56:54.104Z</time></trkpt><trkpt lat="46.480565827056274" lon="11.412277048353332"><ele>781.0</ele><time>2026-05-01T08:56:55.086Z</time></trkpt><trkpt lat="46.480486622297285" lon="11.412310967982728"><ele>788.4</ele><time>2026-05-01T08:56:56.091Z</time></trkpt><trkpt lat="46.480403970922524" lon="11.412340517146735"><ele>795.8</ele><time>2026-05-01T08:56:57.106Z</time></trkpt><trkpt lat="46.4803133527736" lon="11.412366832182578"><ele>803.1999999999999</ele><time>2026-05-01T08:56:58.083Z</time></trkpt><trkpt lat="46.48021702544914" lon="11.412387903887446"><ele>810.5999999999999</ele><time>2026-05-01T08:56:59.089Z</time></trkpt><trkpt lat="46.480116155097974" lon="11.412404940648383"><ele>818.0</ele><time>2026-05-01T08:57:00.104Z</time></trkpt><trkpt lat="46.48001689992555" lon="11.412421704628311"><ele>818.0</ele><time>2026-05-01T08:57:01.086Z</time></trkpt><trkpt lat="46.47993280557123" lon="11.412434261583371"><ele>818.0</ele><time>2026-05-01T08:57:02.096Z</time></trkpt><trkpt lat="46.4798650079142" lon="11.41244306088817"><ele>818.0</ele><time>2026-05-01T08:57:03.105Z</time></trkpt><trkpt lat="46.479798483333326" lon="11.41244511002232"><ele>818.0</ele><time>2026-05-01T08:57:04.086Z</time></trkpt><trkpt lat="46.47973306591862" lon="11.412438315869192"><ele>818.0</ele><time>2026-05-01T08:57:05.091Z</time></trkpt><trkpt lat="46.479663030212336" lon="11.412430254825345"><ele>818.0</ele><time>2026-05-01T08:57:06.104Z</time></trkpt><trkpt lat="46.47957367948513" lon="11.412419200892211"><ele>818.0</ele><time>2026-05-01T08:57:07.087Z</time></trkpt><trkpt lat="46.479425068921614" lon="11.412438561528896"><ele>819.6666666666667</ele><time>2026-05-01T08:57:08.092Z</time></trkpt><trkpt lat="46.479266158676126" lon="11.41248811478624"><ele>821.3333333333333</ele><time>2026-05-01T08:57:09.106Z</time></trkpt><trkpt lat="46.47908982110057" lon="11.412528954213665"><ele>823.0</ele><time>2026-05-01T08:57:10.089Z</time></trkpt><trkpt lat="46.478919643456216" lon="11.412550880731146"><ele>820.25</ele><time>2026-05-01T08:57:11.104Z</time></trkpt><trkpt lat="46.478765632113245" lon="11.412581294996972"><ele>817.5</ele><time>2026-05-01T08:57:12.082Z</time></trkpt><trkpt lat="46.478632829731055" lon="11.412644438028591"><ele>814.75</ele><time>2026-05-01T08:57:13.084Z</time></trkpt><trkpt lat="46.478517453270314" lon="11.41272966374085"><ele>812.0</ele><time>2026-05-01T08:57:14.092Z</time></trkpt><trkpt lat="46.47840447163926" lon="11.412821208466838"><ele>812.0</ele><time>2026-05-01T08:57:15.107Z</time></trkpt><trkpt lat="46.47828141252857" lon="11.412921559268694"><ele>812.0</ele><time>2026-05-01T08:57:16.086Z</time></trkpt><trkpt lat="46.47814431055023" lon="11.413033361571754"><ele>812.0</ele><time>2026-05-01T08:57:17.081Z</time></trkpt><trkpt lat="46.47799742948359" lon="11.413143237064356"><ele>821.0</ele><time>2026-05-01T08:57:18.108Z</time></trkpt><trkpt lat="46.47783625844964" lon="11.413248267899693"><ele>830.0</ele><time>2026-05-01T08:57:19.087Z</time></trkpt><trkpt lat="46.47767973407636" lon="11.41334115121145"><ele>839.0</ele><time>2026-05-01T08:57:20.091Z</time></trkpt><trkpt lat="46.47750114312696" lon="11.413422997601588"><ele>839.0</ele><time>2026-05-01T08:57:21.107Z</time></trkpt><trkpt lat="46.47733238606648" lon="11.41347785655632"><ele>839.0</ele><time>2026-05-01T08:57:22.081Z</time></trkpt><trkpt lat="46.477177494880074" lon="11.413500462885883"><ele>839.0</ele><time>2026-05-01T08:57:23.104Z</time></trkpt><trkpt lat="46.47701185906198" lon="11.413522435450075"><ele>836.75</ele><time>2026-05-01T08:57:24.107Z</time></trkpt><trkpt lat="46.476865398954196" lon="11.413596071236762"><ele>834.5</ele><time>2026-05-01T08:57:25.084Z</time></trkpt><trkpt lat="46.47672847563101" lon="11.413640723810074"><ele>832.25</ele><time>2026-05-01T08:57:26.093Z</time></trkpt><trkpt lat="46.47659967659508" lon="11.41368683053222"><ele>830.0</ele><time>2026-05-01T08:57:27.106Z</time></trkpt><trkpt lat="46.47649158423171" lon="11.413721362879526"><ele>830.0</ele><time>2026-05-01T08:57:28.083Z</time></trkpt><trkpt lat="46.476393058255695" lon="11.413730458262384"><ele>830.0</ele><time>2026-05-01T08:57:29.09Z</time></trkpt><trkpt lat="46.47627469524817" lon="11.41368836964637"><ele>830.0</ele><time>2026-05-01T08:57:30.105Z</time></trkpt><trkpt lat="46.4761183511425" lon="11.413629386142727"><ele>830.0</ele><time>2026-05-01T08:57:31.081Z</time></trkpt><trkpt lat="46.475960059149386" lon="11.413628328523394"><ele>832.6666666666667</ele><time>2026-05-01T08:57:32.094Z</time></trkpt><trkpt lat="46.475803058629026" lon="11.413637981501035"><ele>835.3333333333333</ele><time>2026-05-01T08:57:33.105Z</time></trkpt><trkpt lat="46.475653015661194" lon="11.413631204852239"><ele>838.0</ele><time>2026-05-01T08:57:34.086Z</time></trkpt><trkpt lat="46.47550739179131" lon="11.41359638416851"><ele>840.5</ele><time>2026-05-01T08:57:35.103Z</time></trkpt><trkpt lat="46.47536554453065" lon="11.41354619654336"><ele>843.0</ele><time>2026-05-01T08:57:36.105Z</time></trkpt><trkpt lat="46.475226319192" lon="11.413477191095813"><ele>845.5</ele><time>2026-05-01T08:57:37.086Z</time></trkpt><trkpt lat="46.475105462217435" lon="11.41340590421281"><ele>848.0</ele><time>2026-05-01T08:57:38.09Z</time></trkpt><trkpt lat="46.4750122831161" lon="11.413345574087275"><ele>848.0000000000001</ele><time>2026-05-01T08:57:39.08Z</time></trkpt><trkpt lat="46.474912577033564" lon="11.413289182237666"><ele>848.0</ele><time>2026-05-01T08:57:40.082Z</time></trkpt><trkpt lat="46.47481772328349" lon="11.413313964076423"><ele>848.0</ele><time>2026-05-01T08:57:41.094Z</time></trkpt><trkpt lat="46.474755669947136" lon="11.413352365500488"><ele>848.0</ele><time>2026-05-01T08:57:42.106Z</time></trkpt><trkpt lat="46.47468771416892" lon="11.413389946857414"><ele>848.0000000000001</ele><time>2026-05-01T08:57:43.086Z</time></trkpt><trkpt lat="46.47461598627354" lon="11.4134172526848"><ele>848.0</ele><time>2026-05-01T08:57:44.081Z</time></trkpt><trkpt lat="46.4745301343102" lon="11.41341617393852"><ele>846.5999999999999</ele><time>2026-05-01T08:57:45.116Z</time></trkpt><trkpt lat="46.47444793257015" lon="11.413381349616277"><ele>845.1999999999999</ele><time>2026-05-01T08:57:46.084Z</time></trkpt><trkpt lat="46.47434014381046" lon="11.413357162233156"><ele>843.8</ele><time>2026-05-01T08:57:47.094Z</time></trkpt><trkpt lat="46.474238245210756" lon="11.413384009247514"><ele>842.4</ele><time>2026-05-01T08:57:48.079Z</time></trkpt><trkpt lat="46.47416206606902" lon="11.413460987460342"><ele>841.0</ele><time>2026-05-01T08:57:49.09Z</time></trkpt><trkpt lat="46.474090651876175" lon="11.413551714590335"><ele>840.9999999999999</ele><time>2026-05-01T08:57:50.091Z</time></trkpt><trkpt lat="46.47402115450031" lon="11.41364038675576"><ele>841.0</ele><time>2026-05-01T08:57:51.105Z</time></trkpt><trkpt lat="46.473953773382256" lon="11.413711761225906"><ele>841.0</ele><time>2026-05-01T08:57:52.086Z</time></trkpt><trkpt lat="46.473893719420495" lon="11.413782744334585"><ele>841.0</ele><time>2026-05-01T08:57:53.081Z</time></trkpt><trkpt lat="46.47387875969074" lon="11.413893783333332"><ele>840.9999999999999</ele><time>2026-05-01T08:57:54.09Z</time></trkpt><trkpt lat="46.47397666666667" lon="11.413938833333335"><ele>841.0</ele><time>2026-05-01T08:57:56.09Z</time></trkpt><trkpt lat="46.47404696666667" lon="11.41389578333333"><ele>841.0</ele><time>2026-05-01T08:57:57.106Z</time></trkpt><trkpt lat="46.47411269999999" lon="11.413816266666666"><ele>841.0</ele><time>2026-05-01T08:57:58.092Z</time></trkpt><trkpt lat="46.47417765" lon="11.413736216666665"><ele>841.0</ele><time>2026-05-01T08:57:59.089Z</time></trkpt><trkpt lat="46.47423735000001" lon="11.413683783333333"><ele>841.0</ele><time>2026-05-01T08:58:00.104Z</time></trkpt><trkpt lat="46.47434669999999" lon="11.413671233333332"><ele>841.0</ele><time>2026-05-01T08:58:02.101Z</time></trkpt><trkpt lat="46.474433193988055" lon="11.413812737972838"><ele>850.5999999999999</ele><time>2026-05-01T08:58:04.094Z</time></trkpt><trkpt lat="46.474496001331644" lon="11.413900154135822"><ele>860.2</ele><time>2026-05-01T08:58:05.091Z</time></trkpt><trkpt lat="46.47458853047004" lon="11.413965179207102"><ele>869.8000000000001</ele><time>2026-05-01T08:58:06.107Z</time></trkpt><trkpt lat="46.474676656282064" lon="11.41398677869018"><ele>879.4000000000001</ele><time>2026-05-01T08:58:07.089Z</time></trkpt><trkpt lat="46.474769" lon="11.413968816666667"><ele>889.0</ele><time>2026-05-01T08:58:08.091Z</time></trkpt><trkpt lat="46.4748654" lon="11.413984266666667"><ele>889.5</ele><time>2026-05-01T08:58:09.079Z</time></trkpt><trkpt lat="46.474948236060285" lon="11.414069909152222"><ele>890.0</ele><time>2026-05-01T08:58:10.086Z</time></trkpt><trkpt lat="46.47505171616411" lon="11.414154462683056"><ele>890.5</ele><time>2026-05-01T08:58:11.091Z</time></trkpt><trkpt lat="46.475171781440075" lon="11.4142594733271"><ele>891.0</ele><time>2026-05-01T08:58:12.085Z</time></trkpt><trkpt lat="46.47529569495351" lon="11.414365824391083"><ele>891.0</ele><time>2026-05-01T08:58:13.086Z</time></trkpt><trkpt lat="46.47542849587866" lon="11.414462046359292"><ele>891.0</ele><time>2026-05-01T08:58:14.091Z</time></trkpt><trkpt lat="46.47557234999999" lon="11.414540466666665"><ele>891.0</ele><time>2026-05-01T08:58:15.105Z</time></trkpt><trkpt lat="46.47571195" lon="11.414635966666667"><ele>896.5</ele><time>2026-05-01T08:58:16.094Z</time></trkpt><trkpt lat="46.475849966666665" lon="11.414711816666667"><ele>902.0</ele><time>2026-05-01T08:58:17.094Z</time></trkpt><trkpt lat="46.475986799999994" lon="11.414757816666667"><ele>907.5</ele><time>2026-05-01T08:58:18.105Z</time></trkpt><trkpt lat="46.476126033333344" lon="11.414801766666669"><ele>913.0</ele><time>2026-05-01T08:58:19.086Z</time></trkpt><trkpt lat="46.476277616666664" lon="11.41486105"><ele>913.0</ele><time>2026-05-01T08:58:20.094Z</time></trkpt><trkpt lat="46.476432599999995" lon="11.414903983333334"><ele>913.0</ele><time>2026-05-01T08:58:21.078Z</time></trkpt><trkpt lat="46.47657734999999" lon="11.414933316666668"><ele>913.0</ele><time>2026-05-01T08:58:22.086Z</time></trkpt><trkpt lat="46.476709416666665" lon="11.4149798"><ele>913.0</ele><time>2026-05-01T08:58:23.091Z</time></trkpt><trkpt lat="46.47683335" lon="11.415050316666669"><ele>913.0</ele><time>2026-05-01T08:58:24.105Z</time></trkpt><trkpt lat="46.476968311325805" lon="11.415102767796121"><ele>913.0</ele><time>2026-05-01T08:58:25.091Z</time></trkpt><trkpt lat="46.47710965157776" lon="11.415138922187893"><ele>913.0</ele><time>2026-05-01T08:58:26.096Z</time></trkpt><trkpt lat="46.477259384955374" lon="11.415184893796644"><ele>913.0</ele><time>2026-05-01T08:58:27.105Z</time></trkpt><trkpt lat="46.4774090926666" lon="11.41523587716014"><ele>913.3333333333333</ele><time>2026-05-01T08:58:28.086Z</time></trkpt><trkpt lat="46.4775593043045" lon="11.415291830112709"><ele>913.6666666666667</ele><time>2026-05-01T08:58:29.097Z</time></trkpt><trkpt lat="46.47771361284525" lon="11.415354669916535"><ele>914.0</ele><time>2026-05-01T08:58:30.081Z</time></trkpt><trkpt lat="46.477866237841255" lon="11.415422777421087"><ele>922.6666666666667</ele><time>2026-05-01T08:58:31.086Z</time></trkpt><trkpt lat="46.47802113327766" lon="11.41550079836674"><ele>931.3333333333333</ele><time>2026-05-01T08:58:32.09Z</time></trkpt><trkpt lat="46.47817563697455" lon="11.415586771027478"><ele>940.0</ele><time>2026-05-01T08:58:33.084Z</time></trkpt><trkpt lat="46.4783160423654" lon="11.415666422062243"><ele>940.0</ele><time>2026-05-01T08:58:34.095Z</time></trkpt><trkpt lat="46.47842782371848" lon="11.415724760413093"><ele>940.0</ele><time>2026-05-01T08:58:35.084Z</time></trkpt><trkpt lat="46.47849956666668" lon="11.4157433"><ele>940.0</ele><time>2026-05-01T08:58:36.106Z</time></trkpt><trkpt lat="46.47857533333334" lon="11.415727916666667"><ele>940.0</ele><time>2026-05-01T08:58:37.093Z</time></trkpt><trkpt lat="46.47864261666667" lon="11.415813916666666"><ele>940.0</ele><time>2026-05-01T08:58:39.107Z</time></trkpt><trkpt lat="46.47856177378785" lon="11.415878927647173"><ele>940.0</ele><time>2026-05-01T08:58:41.092Z</time></trkpt><trkpt lat="46.478481221050664" lon="11.415870057220083"><ele>940.0</ele><time>2026-05-01T08:58:42.081Z</time></trkpt><trkpt lat="46.47836606418341" lon="11.415854911032445"><ele>940.0</ele><time>2026-05-01T08:58:43.09Z</time></trkpt><trkpt lat="46.47822967778931" lon="11.41584279058666"><ele>940.0</ele><time>2026-05-01T08:58:44.092Z</time></trkpt><trkpt lat="46.47808544921013" lon="11.415810431490602"><ele>940.0</ele><time>2026-05-01T08:58:45.105Z</time></trkpt><trkpt lat="46.47794765894301" lon="11.415776362990993"><ele>940.0</ele><time>2026-05-01T08:58:46.086Z</time></trkpt><trkpt lat="46.47780339999999" lon="11.415770114709455"><ele>940.0</ele><time>2026-05-01T08:58:47.094Z</time></trkpt><trkpt lat="46.47765219647384" lon="11.415778442039496"><ele>940.0</ele><time>2026-05-01T08:58:48.104Z</time></trkpt><trkpt lat="46.47749330957495" lon="11.415818973780924"><ele>942.75</ele><time>2026-05-01T08:58:49.085Z</time></trkpt><trkpt lat="46.47735745713758" lon="11.41586758473869"><ele>945.5</ele><time>2026-05-01T08:58:50.091Z</time></trkpt><trkpt lat="46.4772328" lon="11.415874712844579"><ele>948.25</ele><time>2026-05-01T08:58:51.081Z</time></trkpt><trkpt lat="46.47712813330655" lon="11.41587169627566"><ele>951.0</ele><time>2026-05-01T08:58:52.084Z</time></trkpt><trkpt lat="46.47701766890562" lon="11.415870302121965"><ele>951.0</ele><time>2026-05-01T08:58:53.091Z</time></trkpt><trkpt lat="46.47696907368259" lon="11.416013796334905"><ele>950.9999999999999</ele><time>2026-05-01T08:58:54.108Z</time></trkpt><trkpt lat="46.477044250000006" lon="11.416081799999999"><ele>950.9999999999999</ele><time>2026-05-01T08:58:55.086Z</time></trkpt><trkpt lat="46.477104999999995" lon="11.4161201"><ele>951.0</ele><time>2026-05-01T08:58:56.097Z</time></trkpt><trkpt lat="46.4772035" lon="11.416138699999998"><ele>951.0</ele><time>2026-05-01T08:58:57.106Z</time></trkpt><trkpt lat="46.477321366666665" lon="11.416163449999999"><ele>951.0</ele><time>2026-05-01T08:58:58.082Z</time></trkpt><trkpt lat="46.4774432" lon="11.416211749999999"><ele>951.0</ele><time>2026-05-01T08:58:59.092Z</time></trkpt><trkpt lat="46.47757721092232" lon="11.416299886861383"><ele>951.0</ele><time>2026-05-01T08:59:00.105Z</time></trkpt><trkpt lat="46.477706412012594" lon="11.41642128392331"><ele>951.0</ele><time>2026-05-01T08:59:01.087Z</time></trkpt><trkpt lat="46.47784067863548" lon="11.41654656628899"><ele>954.0</ele><time>2026-05-01T08:59:02.092Z</time></trkpt><trkpt lat="46.4779699055288" lon="11.41666653668479"><ele>957.0</ele><time>2026-05-01T08:59:03.108Z</time></trkpt><trkpt lat="46.4780957286433" lon="11.416775987777324"><ele>960.0</ele><time>2026-05-01T08:59:04.094Z</time></trkpt><trkpt lat="46.47819851241653" lon="11.416881969966148"><ele>963.0</ele><time>2026-05-01T08:59:05.09Z</time></trkpt><trkpt lat="46.47827919744118" lon="11.41697253362077"><ele>963.0</ele><time>2026-05-01T08:59:06.108Z</time></trkpt><trkpt lat="46.478344168760096" lon="11.417052878377756"><ele>963.0</ele><time>2026-05-01T08:59:07.08Z</time></trkpt><trkpt lat="46.47839007798412" lon="11.41712935909551"><ele>963.0</ele><time>2026-05-01T08:59:08.095Z</time></trkpt><trkpt lat="46.47844068205308" lon="11.417257052211527"><ele>963.0</ele><time>2026-05-01T08:59:09.107Z</time></trkpt><trkpt lat="46.47849609882549" lon="11.417417243100283"><ele>963.0</ele><time>2026-05-01T08:59:10.086Z</time></trkpt><trkpt lat="46.47856264800222" lon="11.41759956087394"><ele>969.0</ele><time>2026-05-01T08:59:11.087Z</time></trkpt><trkpt lat="46.478652147757025" lon="11.417786669894234"><ele>975.0</ele><time>2026-05-01T08:59:12.105Z</time></trkpt><trkpt lat="46.47874401231908" lon="11.417966529962552"><ele>981.0</ele><time>2026-05-01T08:59:13.086Z</time></trkpt><trkpt lat="46.4788175237569" lon="11.418160687516432"><ele>981.75</ele><time>2026-05-01T08:59:14.092Z</time></trkpt><trkpt lat="46.478876825378784" lon="11.418379221827864"><ele>982.5</ele><time>2026-05-01T08:59:15.105Z</time></trkpt><trkpt lat="46.478931184327195" lon="11.418578567042973"><ele>983.25</ele><time>2026-05-01T08:59:16.085Z</time></trkpt><trkpt lat="46.47896944393222" lon="11.418749275742371"><ele>984.0</ele><time>2026-05-01T08:59:17.096Z</time></trkpt><trkpt lat="46.47899861546683" lon="11.418921217832365"><ele>989.0</ele><time>2026-05-01T08:59:18.105Z</time></trkpt><trkpt lat="46.47903834293905" lon="11.419095183029498"><ele>994.0</ele><time>2026-05-01T08:59:19.086Z</time></trkpt><trkpt lat="46.479108712225845" lon="11.419246367730779"><ele>999.0</ele><time>2026-05-01T08:59:20.091Z</time></trkpt><trkpt lat="46.479205343270934" lon="11.419353824198184"><ele>1004.0</ele><time>2026-05-01T08:59:21.118Z</time></trkpt><trkpt lat="46.479330089270924" lon="11.41940815435752"><ele>1004.0</ele><time>2026-05-01T08:59:22.086Z</time></trkpt><trkpt lat="46.47945361043223" lon="11.419425982106912"><ele>1004.0</ele><time>2026-05-01T08:59:23.092Z</time></trkpt><trkpt lat="46.47957228456406" lon="11.419444615034612"><ele>1004.0</ele><time>2026-05-01T08:59:24.108Z</time></trkpt><trkpt lat="46.479682145576255" lon="11.419477494102784"><ele>1004.0</ele><time>2026-05-01T08:59:25.081Z</time></trkpt><trkpt lat="46.479790071866525" lon="11.419543936314728"><ele>1001.0</ele><time>2026-05-01T08:59:26.091Z</time></trkpt><trkpt lat="46.479889848458065" lon="11.41963586924134"><ele>998.0</ele><time>2026-05-01T08:59:27.106Z</time></trkpt><trkpt lat="46.47999463296248" lon="11.419742780394749"><ele>995.0</ele><time>2026-05-01T08:59:28.084Z</time></trkpt><trkpt lat="46.480108947074385" lon="11.419808555528196"><ele>992.0</ele><time>2026-05-01T08:59:29.09Z</time></trkpt><trkpt lat="46.48020865255553" lon="11.419835114134631"><ele>997.2</ele><time>2026-05-01T08:59:30.091Z</time></trkpt><trkpt lat="46.48029946666667" lon="11.419842283333333"><ele>1002.4000000000001</ele><time>2026-05-01T08:59:31.087Z</time></trkpt><trkpt lat="46.480365666666664" lon="11.419885616666667"><ele>1007.5999999999999</ele><time>2026-05-01T08:59:32.092Z</time></trkpt><trkpt lat="46.48040448333333" lon="11.42002633333333"><ele>1012.8</ele><time>2026-05-01T08:59:34.092Z</time></trkpt><trkpt lat="46.48026998333333" lon="11.420068016666669"><ele>1018.0</ele><time>2026-05-01T08:59:36.107Z</time></trkpt><trkpt lat="46.48017906666667" lon="11.420048433333333"><ele>1018.0</ele><time>2026-05-01T08:59:37.087Z</time></trkpt><trkpt lat="46.480076966666665" lon="11.4200197"><ele>1018.0</ele><time>2026-05-01T08:59:38.08Z</time></trkpt><trkpt lat="46.47995561666667" lon="11.4199894"><ele>1018.0</ele><time>2026-05-01T08:59:39.085Z</time></trkpt><trkpt lat="46.47982144636597" lon="11.419990055764686"><ele>1018.0</ele><time>2026-05-01T08:59:40.087Z</time></trkpt><trkpt lat="46.47968823333334" lon="11.419951933333335"><ele>1022.3333333333333</ele><time>2026-05-01T08:59:41.095Z</time></trkpt><trkpt lat="46.479544950000005" lon="11.419950683333331"><ele>1026.6666666666667</ele><time>2026-05-01T08:59:42.107Z</time></trkpt><trkpt lat="46.47938339432188" lon="11.41998315145634"><ele>1031.0</ele><time>2026-05-01T08:59:43.085Z</time></trkpt><trkpt lat="46.47921300971487" lon="11.419942041785628"><ele>1031.0</ele><time>2026-05-01T08:59:44.091Z</time></trkpt><trkpt lat="46.47904955106607" lon="11.419898164069492"><ele>1031.0</ele><time>2026-05-01T08:59:45.083Z</time></trkpt><trkpt lat="46.47888963765906" lon="11.419857061022173"><ele>1031.0</ele><time>2026-05-01T08:59:46.087Z</time></trkpt><trkpt lat="46.47873691666667" lon="11.419819883333332"><ele>1036.6666666666667</ele><time>2026-05-01T08:59:47.091Z</time></trkpt><trkpt lat="46.4785848" lon="11.419831883333332"><ele>1042.3333333333333</ele><time>2026-05-01T08:59:48.116Z</time></trkpt><trkpt lat="46.478430949999996" lon="11.4198274"><ele>1048.0</ele><time>2026-05-01T08:59:49.087Z</time></trkpt><trkpt lat="46.47828321666666" lon="11.419773549999999"><ele>1048.0</ele><time>2026-05-01T08:59:50.092Z</time></trkpt><trkpt lat="46.47814601666668" lon="11.419684166666666"><ele>1048.0</ele><time>2026-05-01T08:59:51.105Z</time></trkpt><trkpt lat="46.47801821666667" lon="11.419594666666667"><ele>1048.0</ele><time>2026-05-01T08:59:52.085Z</time></trkpt><trkpt lat="46.477912399999994" lon="11.419509533333335"><ele>1048.0</ele><time>2026-05-01T08:59:53.092Z</time></trkpt><trkpt lat="46.47782183333334" lon="11.419424883333333"><ele>1047.8</ele><time>2026-05-01T08:59:54.107Z</time></trkpt><trkpt lat="46.47774043333334" lon="11.419354233333335"><ele>1047.6</ele><time>2026-05-01T08:59:55.088Z</time></trkpt><trkpt lat="46.477666295909906" lon="11.419306318420125"><ele>1047.4</ele><time>2026-05-01T08:59:56.094Z</time></trkpt><trkpt lat="46.47754102657736" lon="11.419333137499724"><ele>1047.2</ele><time>2026-05-01T08:59:57.09Z</time></trkpt><trkpt lat="46.47752741058659" lon="11.419509894648025"><ele>1047.0</ele><time>2026-05-01T08:59:58.085Z</time></trkpt><trkpt lat="46.47759946141345" lon="11.419611301062792"><ele>1047.2</ele><time>2026-05-01T08:59:59.091Z</time></trkpt><trkpt lat="46.47767414442974" lon="11.419665837619151"><ele>1047.4</ele><time>2026-05-01T09:00:00.107Z</time></trkpt><trkpt lat="46.477754867918" lon="11.419732722361616"><ele>1047.6</ele><time>2026-05-01T09:00:01.087Z</time></trkpt><trkpt lat="46.47783197471526" lon="11.419819494163375"><ele>1047.8</ele><time>2026-05-01T09:00:02.097Z</time></trkpt><trkpt lat="46.47792417024187" lon="11.419949491992124"><ele>1048.0</ele><time>2026-05-01T09:00:03.11Z</time></trkpt><trkpt lat="46.478029906883364" lon="11.420103093466356"><ele>1048.0</ele><time>2026-05-01T09:00:04.086Z</time></trkpt><trkpt lat="46.47815899336523" lon="11.420272334095978"><ele>1048.0</ele><time>2026-05-01T09:00:05.092Z</time></trkpt><trkpt lat="46.47832456790493" lon="11.420388955866036"><ele>1048.0</ele><time>2026-05-01T09:00:06.107Z</time></trkpt><trkpt lat="46.47845724364979" lon="11.420488820020562"><ele>1049.4</ele><time>2026-05-01T09:00:07.086Z</time></trkpt><trkpt lat="46.47858446174678" lon="11.420569032705028"><ele>1050.8</ele><time>2026-05-01T09:00:08.095Z</time></trkpt><trkpt lat="46.47868573790481" lon="11.420650662242341"><ele>1052.2</ele><time>2026-05-01T09:00:09.084Z</time></trkpt><trkpt lat="46.478765492042974" lon="11.420727207853599"><ele>1053.6</ele><time>2026-05-01T09:00:10.09Z</time></trkpt><trkpt lat="46.4788243056957" lon="11.42080941920772"><ele>1055.0</ele><time>2026-05-01T09:00:11.09Z</time></trkpt><trkpt lat="46.47887165597661" lon="11.420889607731832"><ele>1055.0</ele><time>2026-05-01T09:00:12.107Z</time></trkpt><trkpt lat="46.47891087969462" lon="11.42098856340482"><ele>1055.0</ele><time>2026-05-01T09:00:13.085Z</time></trkpt><trkpt lat="46.47893363226725" lon="11.42113036483205"><ele>1055.0</ele><time>2026-05-01T09:00:14.09Z</time></trkpt><trkpt lat="46.47895854257032" lon="11.421264278017368"><ele>1055.0</ele><time>2026-05-01T09:00:15.087Z</time></trkpt><trkpt lat="46.47897788193435" lon="11.42136888945344"><ele>1055.0</ele><time>2026-05-01T09:00:16.087Z</time></trkpt><trkpt lat="46.4789901394033" lon="11.421464199946376"><ele>1055.0</ele><time>2026-05-01T09:00:18.106Z</time></trkpt><trkpt lat="46.47892987190927" lon="11.421530814043441"><ele>1058.0</ele><time>2026-05-01T09:00:20.092Z</time></trkpt><trkpt lat="46.47886459699528" lon="11.421444489180102"><ele>1061.0</ele><time>2026-05-01T09:00:21.106Z</time></trkpt><trkpt lat="46.47879533455553" lon="11.421342799792908"><ele>1064.0</ele><time>2026-05-01T09:00:22.088Z</time></trkpt><trkpt lat="46.47871525000001" lon="11.421253116666668"><ele>1067.0</ele><time>2026-05-01T09:00:23.093Z</time></trkpt><trkpt lat="46.47860021666667" lon="11.42120485"><ele>1070.0</ele><time>2026-05-01T09:00:24.087Z</time></trkpt><trkpt lat="46.478480483333335" lon="11.421154433333335"><ele>1070.75</ele><time>2026-05-01T09:00:25.087Z</time></trkpt><trkpt lat="46.478347500000005" lon="11.421097683333334"><ele>1071.5</ele><time>2026-05-01T09:00:26.096Z</time></trkpt><trkpt lat="46.478201866666666" lon="11.421039266666666"><ele>1072.25</ele><time>2026-05-01T09:00:27.106Z</time></trkpt><trkpt lat="46.47805976666667" lon="11.420984766666667"><ele>1073.0</ele><time>2026-05-01T09:00:28.087Z</time></trkpt><trkpt lat="46.47792153357048" lon="11.420917748604944"><ele>1079.0</ele><time>2026-05-01T09:00:29.081Z</time></trkpt><trkpt lat="46.477769703137916" lon="11.420860733431255"><ele>1085.0</ele><time>2026-05-01T09:00:30.107Z</time></trkpt><trkpt lat="46.47758744418875" lon="11.42082173300428"><ele>1091.0</ele><time>2026-05-01T09:00:31.088Z</time></trkpt><trkpt lat="46.47737899374711" lon="11.420817810222005"><ele>1091.0</ele><time>2026-05-01T09:00:32.09Z</time></trkpt><trkpt lat="46.477178329119" lon="11.420785424341103"><ele>1091.0</ele><time>2026-05-01T09:00:33.108Z</time></trkpt><trkpt lat="46.47700045050964" lon="11.420727487676338"><ele>1091.0</ele><time>2026-05-01T09:00:34.082Z</time></trkpt><trkpt lat="46.47683427771985" lon="11.420704089062767"><ele>1095.3333333333335</ele><time>2026-05-01T09:00:35.092Z</time></trkpt><trkpt lat="46.47666892495458" lon="11.42067766977968"><ele>1099.6666666666667</ele><time>2026-05-01T09:00:36.082Z</time></trkpt><trkpt lat="46.4764744278678" lon="11.420683089766989"><ele>1104.0</ele><time>2026-05-01T09:00:37.087Z</time></trkpt><trkpt lat="46.47628356765386" lon="11.420714642252323"><ele>1108.0</ele><time>2026-05-01T09:00:38.08Z</time></trkpt><trkpt lat="46.47612379813691" lon="11.420753571382596"><ele>1112.0</ele><time>2026-05-01T09:00:39.107Z</time></trkpt><trkpt lat="46.47601731666667" lon="11.420775713364353"><ele>1116.0</ele><time>2026-05-01T09:00:40.089Z</time></trkpt><trkpt lat="46.4759180598814" lon="11.420764918407178"><ele>1120.0</ele><time>2026-05-01T09:00:41.091Z</time></trkpt><trkpt lat="46.47580409773062" lon="11.42073786276504"><ele>1120.0</ele><time>2026-05-01T09:00:42.106Z</time></trkpt><trkpt lat="46.47569283333334" lon="11.420723083333334"><ele>1120.0</ele><time>2026-05-01T09:00:43.081Z</time></trkpt><trkpt lat="46.475600333333325" lon="11.420586716666666"><ele>1120.0</ele><time>2026-05-01T09:00:44.091Z</time></trkpt><trkpt lat="46.47549188333334" lon="11.420414750000003"><ele>1120.0</ele><time>2026-05-01T09:00:45.106Z</time></trkpt><trkpt lat="46.47538083333334" lon="11.420239350000001"><ele>1119.75</ele><time>2026-05-01T09:00:46.09Z</time></trkpt><trkpt lat="46.475278566666674" lon="11.420088466666668"><ele>1119.5</ele><time>2026-05-01T09:00:47.105Z</time></trkpt><trkpt lat="46.475172549999996" lon="11.419954983333332"><ele>1119.25</ele><time>2026-05-01T09:00:48.106Z</time></trkpt><trkpt lat="46.475066586353485" lon="11.419825035364944"><ele>1119.0</ele><time>2026-05-01T09:00:49.087Z</time></trkpt><trkpt lat="46.47493278690839" lon="11.419721442863361"><ele>1119.0</ele><time>2026-05-01T09:00:50.094Z</time></trkpt><trkpt lat="46.474782301843945" lon="11.419657060452998"><ele>1119.0</ele><time>2026-05-01T09:00:51.087Z</time></trkpt><trkpt lat="46.47463993333334" lon="11.419592583333333"><ele>1119.0</ele><time>2026-05-01T09:00:52.082Z</time></trkpt><trkpt lat="46.47453829209693" lon="11.419469021418456"><ele>1119.0</ele><time>2026-05-01T09:00:53.092Z</time></trkpt><trkpt lat="46.47443983227115" lon="11.419360584566098"><ele>1118.25</ele><time>2026-05-01T09:00:54.081Z</time></trkpt><trkpt lat="46.47432199640432" lon="11.419299473143521"><ele>1117.5</ele><time>2026-05-01T09:00:55.087Z</time></trkpt><trkpt lat="46.474195776721224" lon="11.419265420930236"><ele>1116.75</ele><time>2026-05-01T09:00:56.102Z</time></trkpt><trkpt lat="46.47407201239991" lon="11.419233065445047"><ele>1116.0</ele><time>2026-05-01T09:00:57.118Z</time></trkpt><trkpt lat="46.473954287310136" lon="11.419204549811349"><ele>1116.0</ele><time>2026-05-01T09:00:58.087Z</time></trkpt><trkpt lat="46.47382441011724" lon="11.419202288863131"><ele>1116.0</ele><time>2026-05-01T09:00:59.097Z</time></trkpt><trkpt lat="46.473702466666666" lon="11.419262383333335"><ele>1116.0</ele><time>2026-05-01T09:01:00.107Z</time></trkpt><trkpt lat="46.47356583333333" lon="11.419235433333332"><ele>1116.0</ele><time>2026-05-01T09:01:01.098Z</time></trkpt><trkpt lat="46.4734165" lon="11.419194899999999"><ele>1119.75</ele><time>2026-05-01T09:01:02.092Z</time></trkpt><trkpt lat="46.47325926666667" lon="11.419162333333334"><ele>1123.5</ele><time>2026-05-01T09:01:03.109Z</time></trkpt><trkpt lat="46.47311079999999" lon="11.419138816666669"><ele>1127.25</ele><time>2026-05-01T09:01:04.089Z</time></trkpt><trkpt lat="46.47298693333334" lon="11.419124250000001"><ele>1131.0</ele><time>2026-05-01T09:01:05.105Z</time></trkpt><trkpt lat="46.472880450000005" lon="11.419123383333334"><ele>1131.75</ele><time>2026-05-01T09:01:06.091Z</time></trkpt><trkpt lat="46.47276640712187" lon="11.419113053956234"><ele>1132.5</ele><time>2026-05-01T09:01:07.087Z</time></trkpt><trkpt lat="46.47264462919393" lon="11.419150134850552"><ele>1133.25</ele><time>2026-05-01T09:01:08.093Z</time></trkpt><trkpt lat="46.47252696666666" lon="11.419231066666669"><ele>1134.0</ele><time>2026-05-01T09:01:09.106Z</time></trkpt><trkpt lat="46.47238921666666" lon="11.419302850000001"><ele>1134.0</ele><time>2026-05-01T09:01:10.091Z</time></trkpt><trkpt lat="46.472248266666675" lon="11.419376316666668"><ele>1134.0</ele><time>2026-05-01T09:01:11.095Z</time></trkpt><trkpt lat="46.472119133333344" lon="11.419456566666668"><ele>1134.0</ele><time>2026-05-01T09:01:12.108Z</time></trkpt><trkpt lat="46.47198753962252" lon="11.419534568818875"><ele>1134.0</ele><time>2026-05-01T09:01:13.086Z</time></trkpt><trkpt lat="46.471871218544486" lon="11.419673082501747"><ele>1136.6666666666667</ele><time>2026-05-01T09:01:14.102Z</time></trkpt><trkpt lat="46.47176565" lon="11.419853366666667"><ele>1139.3333333333335</ele><time>2026-05-01T09:01:15.087Z</time></trkpt><trkpt lat="46.47163318333334" lon="11.420013383333332"><ele>1142.0</ele><time>2026-05-01T09:01:16.087Z</time></trkpt><trkpt lat="46.471496466666665" lon="11.420173949999999"><ele>1142.0</ele><time>2026-05-01T09:01:17.09Z</time></trkpt><trkpt lat="46.4713582194889" lon="11.420311691586743"><ele>1142.0</ele><time>2026-05-01T09:01:18.107Z</time></trkpt><trkpt lat="46.471245473422286" lon="11.420455061172216"><ele>1142.0</ele><time>2026-05-01T09:01:19.09Z</time></trkpt><trkpt lat="46.4711371294597" lon="11.420614865490593"><ele>1143.3333333333335</ele><time>2026-05-01T09:01:20.092Z</time></trkpt><trkpt lat="46.4710427634989" lon="11.420807792015651"><ele>1144.6666666666667</ele><time>2026-05-01T09:01:21.107Z</time></trkpt><trkpt lat="46.47094979606805" lon="11.420993107606492"><ele>1146.0</ele><time>2026-05-01T09:01:22.091Z</time></trkpt><trkpt lat="46.47086038344059" lon="11.421157572773584"><ele>1146.0</ele><time>2026-05-01T09:01:23.093Z</time></trkpt><trkpt lat="46.470776946241166" lon="11.421292210160804"><ele>1146.0</ele><time>2026-05-01T09:01:24.13Z</time></trkpt><trkpt lat="46.470707499999996" lon="11.421414916666667"><ele>1146.0</ele><time>2026-05-01T09:01:25.088Z</time></trkpt><trkpt lat="46.470626800000005" lon="11.421493950000002"><ele>1146.0</ele><time>2026-05-01T09:01:26.102Z</time></trkpt><trkpt lat="46.47055056666667" lon="11.421565516666666"><ele>1146.0</ele><time>2026-05-01T09:01:27.107Z</time></trkpt><trkpt lat="46.47048831666666" lon="11.421644983333334"><ele>1142.2</ele><time>2026-05-01T09:01:28.089Z</time></trkpt><trkpt lat="46.47041895554911" lon="11.421723776676846"><ele>1138.3999999999999</ele><time>2026-05-01T09:01:29.094Z</time></trkpt><trkpt lat="46.47035748447304" lon="11.421824675290777"><ele>1134.6</ele><time>2026-05-01T09:01:30.108Z</time></trkpt><trkpt lat="46.47029476396966" lon="11.421918052807476"><ele>1130.8</ele><time>2026-05-01T09:01:31.091Z</time></trkpt><trkpt lat="46.4702521604327" lon="11.422026583333333"><ele>1127.0</ele><time>2026-05-01T09:01:32.102Z</time></trkpt><trkpt lat="46.470326199999995" lon="11.422138866666666"><ele>1136.25</ele><time>2026-05-01T09:01:34.088Z</time></trkpt><trkpt lat="46.47046661666666" lon="11.422111883333331"><ele>1145.5</ele><time>2026-05-01T09:01:36.107Z</time></trkpt><trkpt lat="46.47058326666667" lon="11.42209195"><ele>1154.75</ele><time>2026-05-01T09:01:37.092Z</time></trkpt><trkpt lat="46.470722366666664" lon="11.422072066666667"><ele>1164.0</ele><time>2026-05-01T09:01:38.097Z</time></trkpt><trkpt lat="46.47086854999999" lon="11.422046799999997"><ele>1164.0</ele><time>2026-05-01T09:01:39.108Z</time></trkpt><trkpt lat="46.471012583333334" lon="11.422019533333332"><ele>1164.0</ele><time>2026-05-01T09:01:40.088Z</time></trkpt><trkpt lat="46.47114781666667" lon="11.421979083333333"><ele>1164.0</ele><time>2026-05-01T09:01:41.098Z</time></trkpt><trkpt lat="46.4712792" lon="11.421925666666668"><ele>1164.0</ele><time>2026-05-01T09:01:42.079Z</time></trkpt><trkpt lat="46.471409919040795" lon="11.421884649367263"><ele>1166.8</ele><time>2026-05-01T09:01:43.088Z</time></trkpt><trkpt lat="46.47153455132766" lon="11.42182380384277"><ele>1169.6000000000001</ele><time>2026-05-01T09:01:44.093Z</time></trkpt><trkpt lat="46.47163134018238" lon="11.421749603841926"><ele>1172.4</ele><time>2026-05-01T09:01:45.107Z</time></trkpt><trkpt lat="46.47170911671997" lon="11.421683182526099"><ele>1175.2</ele><time>2026-05-01T09:01:46.097Z</time></trkpt><trkpt lat="46.47176187657038" lon="11.421628692930662"><ele>1178.0</ele><time>2026-05-01T09:01:47.094Z</time></trkpt><trkpt lat="46.47185148754322" lon="11.421606413651443"><ele>1178.0</ele><time>2026-05-01T09:01:49.086Z</time></trkpt><trkpt lat="46.471818434539415" lon="11.42171727180159"><ele>1178.0</ele><time>2026-05-01T09:01:50.095Z</time></trkpt><trkpt lat="46.47177846666666" lon="11.421792133333335"><ele>1178.0</ele><time>2026-05-01T09:01:51.085Z</time></trkpt><trkpt lat="46.471747650000005" lon="11.421912666666667"><ele>1178.0</ele><time>2026-05-01T09:01:52.089Z</time></trkpt><trkpt lat="46.47170918333333" lon="11.422045733333333"><ele>1178.0</ele><time>2026-05-01T09:01:53.092Z</time></trkpt><trkpt lat="46.47166943333333" lon="11.422196866666665"><ele>1178.0</ele><time>2026-05-01T09:01:54.108Z</time></trkpt><trkpt lat="46.47162146666666" lon="11.422366399999998"><ele>1177.0</ele><time>2026-05-01T09:01:55.088Z</time></trkpt><trkpt lat="46.4715521" lon="11.422529366666666"><ele>1176.0</ele><time>2026-05-01T09:01:56.093Z</time></trkpt><trkpt lat="46.47145118333333" lon="11.4226703"><ele>1175.0</ele><time>2026-05-01T09:01:57.108Z</time></trkpt><trkpt lat="46.471339066666665" lon="11.422773766666667"><ele>1174.0</ele><time>2026-05-01T09:01:58.092Z</time></trkpt><trkpt lat="46.471239883333325" lon="11.422842833333336"><ele>1174.0</ele><time>2026-05-01T09:01:59.098Z</time></trkpt><trkpt lat="46.47115181815603" lon="11.422880515926504"><ele>1174.0</ele><time>2026-05-01T09:02:00.107Z</time></trkpt><trkpt lat="46.47110336579399" lon="11.423003635301097"><ele>1174.0</ele><time>2026-05-01T09:02:01.088Z</time></trkpt><trkpt lat="46.471151979464395" lon="11.423119793109663"><ele>1174.0</ele><time>2026-05-01T09:02:02.093Z</time></trkpt><trkpt lat="46.471226522313295" lon="11.423169410067745"><ele>1174.0</ele><time>2026-05-01T09:02:03.106Z</time></trkpt><trkpt lat="46.471322702335755" lon="11.423177365289442"><ele>1179.25</ele><time>2026-05-01T09:02:04.088Z</time></trkpt><trkpt lat="46.47142694109391" lon="11.423178058614617"><ele>1184.5</ele><time>2026-05-01T09:02:05.093Z</time></trkpt><trkpt lat="46.47154755067606" lon="11.423174175809423"><ele>1189.75</ele><time>2026-05-01T09:02:06.108Z</time></trkpt><trkpt lat="46.4716694043303" lon="11.423173478992906"><ele>1195.0</ele><time>2026-05-01T09:02:07.088Z</time></trkpt><trkpt lat="46.47177586838836" lon="11.423210811055789"><ele>1195.0</ele><time>2026-05-01T09:02:08.106Z</time></trkpt><trkpt lat="46.471871583335734" lon="11.423311277288647"><ele>1195.0</ele><time>2026-05-01T09:02:09.079Z</time></trkpt><trkpt lat="46.472002257187455" lon="11.423421767129682"><ele>1195.0</ele><time>2026-05-01T09:02:10.078Z</time></trkpt><trkpt lat="46.472149666269274" lon="11.423515830418053"><ele>1195.0</ele><time>2026-05-01T09:02:11.093Z</time></trkpt><trkpt lat="46.47228617063982" lon="11.423583928688986"><ele>1195.2</ele><time>2026-05-01T09:02:12.107Z</time></trkpt><trkpt lat="46.472411655363395" lon="11.423629523601"><ele>1195.4</ele><time>2026-05-01T09:02:13.088Z</time></trkpt><trkpt lat="46.47250769877168" lon="11.423648656880754"><ele>1195.6</ele><time>2026-05-01T09:02:14.081Z</time></trkpt><trkpt lat="46.47257425857108" lon="11.42367426822248"><ele>1195.8</ele><time>2026-05-01T09:02:16.089Z</time></trkpt><trkpt lat="46.47247754263353" lon="11.423766451732108"><ele>1196.0</ele><time>2026-05-01T09:02:20.092Z</time></trkpt><trkpt lat="46.472385050019504" lon="11.423788240294227"><ele>1198.5</ele><time>2026-05-01T09:02:21.108Z</time></trkpt><trkpt lat="46.47227772585634" lon="11.423844249571564"><ele>1201.0</ele><time>2026-05-01T09:02:22.09Z</time></trkpt><trkpt lat="46.472176539663636" lon="11.423967425137475"><ele>1203.5</ele><time>2026-05-01T09:02:23.091Z</time></trkpt><trkpt lat="46.472091103560054" lon="11.42412959234086"><ele>1206.0</ele><time>2026-05-01T09:02:24.106Z</time></trkpt><trkpt lat="46.472016969840965" lon="11.424315815367217"><ele>1206.0</ele><time>2026-05-01T09:02:25.088Z</time></trkpt><trkpt lat="46.471945154720906" lon="11.424499432392805"><ele>1206.0</ele><time>2026-05-01T09:02:26.093Z</time></trkpt><trkpt lat="46.47188112461561" lon="11.424663144709587"><ele>1206.0</ele><time>2026-05-01T09:02:27.108Z</time></trkpt><trkpt lat="46.47181606029127" lon="11.424786050091383"><ele>1206.0</ele><time>2026-05-01T09:02:28.084Z</time></trkpt><trkpt lat="46.47171976927921" lon="11.424881278900683"><ele>1208.25</ele><time>2026-05-01T09:02:29.097Z</time></trkpt><trkpt lat="46.47159889747534" lon="11.424945952315822"><ele>1210.5</ele><time>2026-05-01T09:02:30.106Z</time></trkpt><trkpt lat="46.471470518581654" lon="11.425037420953153"><ele>1212.75</ele><time>2026-05-01T09:02:31.088Z</time></trkpt><trkpt lat="46.47135625473073" lon="11.425119506238893"><ele>1215.0</ele><time>2026-05-01T09:02:32.096Z</time></trkpt><trkpt lat="46.471257787649215" lon="11.425188168084356"><ele>1215.0</ele><time>2026-05-01T09:02:33.118Z</time></trkpt><trkpt lat="46.47115288052538" lon="11.425274660490672"><ele>1215.0</ele><time>2026-05-01T09:02:34.088Z</time></trkpt><trkpt lat="46.471075432915974" lon="11.425413938248607"><ele>1215.0</ele><time>2026-05-01T09:02:35.091Z</time></trkpt><trkpt lat="46.47101129889871" lon="11.425568386438812"><ele>1215.0</ele><time>2026-05-01T09:02:36.08Z</time></trkpt><trkpt lat="46.47092989791125" lon="11.425686519673748"><ele>1221.0</ele><time>2026-05-01T09:02:37.086Z</time></trkpt><trkpt lat="46.47083266666667" lon="11.425792083333333"><ele>1227.0</ele><time>2026-05-01T09:02:38.095Z</time></trkpt><trkpt lat="46.470706001949615" lon="11.425803111345552"><ele>1233.0</ele><time>2026-05-01T09:02:39.107Z</time></trkpt><trkpt lat="46.47057147184802" lon="11.42582868317896"><ele>1239.0</ele><time>2026-05-01T09:02:40.088Z</time></trkpt><trkpt lat="46.4704417432912" lon="11.425856590136874"><ele>1238.0</ele><time>2026-05-01T09:02:41.091Z</time></trkpt><trkpt lat="46.47031576253254" lon="11.42589497221206"><ele>1237.0</ele><time>2026-05-01T09:02:42.09Z</time></trkpt><trkpt lat="46.47018551136787" lon="11.425978250498526"><ele>1236.0</ele><time>2026-05-01T09:02:43.085Z</time></trkpt><trkpt lat="46.47007106723359" lon="11.426112369655934"><ele>1235.0</ele><time>2026-05-01T09:02:44.091Z</time></trkpt><trkpt lat="46.469961117885" lon="11.426242267451297"><ele>1242.25</ele><time>2026-05-01T09:02:45.107Z</time></trkpt><trkpt lat="46.46983924059218" lon="11.42633690235176"><ele>1249.5</ele><time>2026-05-01T09:02:46.082Z</time></trkpt><trkpt lat="46.46970767468624" lon="11.426416533581502"><ele>1256.75</ele><time>2026-05-01T09:02:47.082Z</time></trkpt><trkpt lat="46.469565392858755" lon="11.426467028177"><ele>1264.0</ele><time>2026-05-01T09:02:48.11Z</time></trkpt><trkpt lat="46.469425152676514" lon="11.426532569264065"><ele>1264.0</ele><time>2026-05-01T09:02:49.088Z</time></trkpt><trkpt lat="46.4692970690221" lon="11.426589447699168"><ele>1264.0</ele><time>2026-05-01T09:02:50.092Z</time></trkpt><trkpt lat="46.46916636801838" lon="11.426617992777182"><ele>1264.0</ele><time>2026-05-01T09:02:51.108Z</time></trkpt><trkpt lat="46.46903863997285" lon="11.426631090830682"><ele>1264.0</ele><time>2026-05-01T09:02:52.088Z</time></trkpt><trkpt lat="46.468905868480846" lon="11.426638519148977"><ele>1258.75</ele><time>2026-05-01T09:02:53.094Z</time></trkpt><trkpt lat="46.46876432321792" lon="11.426648192092113"><ele>1253.5</ele><time>2026-05-01T09:02:54.108Z</time></trkpt><trkpt lat="46.46862376010257" lon="11.426667938726217"><ele>1248.25</ele><time>2026-05-01T09:02:55.088Z</time></trkpt><trkpt lat="46.46848034291218" lon="11.42670285068663"><ele>1243.0</ele><time>2026-05-01T09:02:56.096Z</time></trkpt><trkpt lat="46.46833833639519" lon="11.426767370407655"><ele>1243.0</ele><time>2026-05-01T09:02:57.107Z</time></trkpt><trkpt lat="46.468218096068874" lon="11.426834196874744"><ele>1243.0</ele><time>2026-05-01T09:02:58.089Z</time></trkpt><trkpt lat="46.46810978652209" lon="11.426896000971883"><ele>1243.0</ele><time>2026-05-01T09:02:59.093Z</time></trkpt><trkpt lat="46.46800181550264" lon="11.426967838998355"><ele>1243.0</ele><time>2026-05-01T09:03:00.117Z</time></trkpt><trkpt lat="46.46789880987292" lon="11.427093654550802"><ele>1242.5</ele><time>2026-05-01T09:03:01.086Z</time></trkpt><trkpt lat="46.467806616666664" lon="11.427249333333336"><ele>1242.0</ele><time>2026-05-01T09:03:02.092Z</time></trkpt><trkpt lat="46.46769268333334" lon="11.427389066666668"><ele>1241.5</ele><time>2026-05-01T09:03:03.079Z</time></trkpt><trkpt lat="46.46758426666667" lon="11.427539549999997"><ele>1241.0</ele><time>2026-05-01T09:03:04.088Z</time></trkpt><trkpt lat="46.46748881666667" lon="11.427696900000003"><ele>1241.0</ele><time>2026-05-01T09:03:05.092Z</time></trkpt><trkpt lat="46.46740211666667" lon="11.427861116666667"><ele>1241.0</ele><time>2026-05-01T09:03:06.11Z</time></trkpt><trkpt lat="46.467328683333335" lon="11.428034283333334"><ele>1241.0</ele><time>2026-05-01T09:03:07.088Z</time></trkpt><trkpt lat="46.46727223333333" lon="11.428222233333335"><ele>1241.0</ele><time>2026-05-01T09:03:08.093Z</time></trkpt><trkpt lat="46.467232700000004" lon="11.428415233333332"><ele>1248.0</ele><time>2026-05-01T09:03:09.093Z</time></trkpt><trkpt lat="46.46720308333333" lon="11.428618383333333"><ele>1255.0</ele><time>2026-05-01T09:03:10.09Z</time></trkpt><trkpt lat="46.467187883333324" lon="11.428848016666667"><ele>1262.0</ele><time>2026-05-01T09:03:11.102Z</time></trkpt><trkpt lat="46.46717766666667" lon="11.429090183333335"><ele>1263.3333333333335</ele><time>2026-05-01T09:03:12.106Z</time></trkpt><trkpt lat="46.46715596666666" lon="11.429334083333334"><ele>1264.6666666666667</ele><time>2026-05-01T09:03:13.086Z</time></trkpt><trkpt lat="46.46711938333333" lon="11.429565283333332"><ele>1266.0</ele><time>2026-05-01T09:03:14.098Z</time></trkpt><trkpt lat="46.46708181666666" lon="11.429785183333335"><ele>1252.6666666666667</ele><time>2026-05-01T09:03:15.108Z</time></trkpt><trkpt lat="46.46705146666666" lon="11.430011983333333"><ele>1239.3333333333335</ele><time>2026-05-01T09:03:16.09Z</time></trkpt><trkpt lat="46.46703373333333" lon="11.430240566666665"><ele>1226.0</ele><time>2026-05-01T09:03:17.094Z</time></trkpt><trkpt lat="46.46701543333334" lon="11.430452533333336"><ele>1228.5</ele><time>2026-05-01T09:03:18.109Z</time></trkpt><trkpt lat="46.46697185" lon="11.43064325"><ele>1231.0</ele><time>2026-05-01T09:03:19.086Z</time></trkpt><trkpt lat="46.466894550000006" lon="11.430821116666667"><ele>1233.5</ele><time>2026-05-01T09:03:20.091Z</time></trkpt><trkpt lat="46.46679653333334" lon="11.431006649999999"><ele>1236.0</ele><time>2026-05-01T09:03:21.107Z</time></trkpt><trkpt lat="46.466704650000004" lon="11.431194249999999"><ele>1241.0</ele><time>2026-05-01T09:03:22.09Z</time></trkpt><trkpt lat="46.46661751666667" lon="11.431365416666665"><ele>1246.0</ele><time>2026-05-01T09:03:23.093Z</time></trkpt><trkpt lat="46.46652568333334" lon="11.43150671666667"><ele>1251.0</ele><time>2026-05-01T09:03:24.107Z</time></trkpt><trkpt lat="46.46643048333334" lon="11.431621283333333"><ele>1256.0</ele><time>2026-05-01T09:03:25.089Z</time></trkpt><trkpt lat="46.46635336666666" lon="11.431735633333336"><ele>1256.0</ele><time>2026-05-01T09:03:26.096Z</time></trkpt><trkpt lat="46.46630933333332" lon="11.431860700000001"><ele>1256.0</ele><time>2026-05-01T09:03:27.112Z</time></trkpt><trkpt lat="46.4662932" lon="11.431986749999998"><ele>1256.0</ele><time>2026-05-01T09:03:28.088Z</time></trkpt><trkpt lat="46.46628053333334" lon="11.432111666666666"><ele>1256.0</ele><time>2026-05-01T09:03:29.093Z</time></trkpt><trkpt lat="46.46626056666667" lon="11.432238866666667"><ele>1256.0</ele><time>2026-05-01T09:03:30.107Z</time></trkpt><trkpt lat="46.466237533333334" lon="11.432367833333334"><ele>1250.6</ele><time>2026-05-01T09:03:31.088Z</time></trkpt><trkpt lat="46.46621759999999" lon="11.43250768333333"><ele>1245.1999999999998</ele><time>2026-05-01T09:03:32.081Z</time></trkpt><trkpt lat="46.466201399999996" lon="11.432660983333335"><ele>1239.8000000000002</ele><time>2026-05-01T09:03:33.11Z</time></trkpt><trkpt lat="46.46617464147957" lon="11.432823880299416"><ele>1234.4</ele><time>2026-05-01T09:03:34.089Z</time></trkpt><trkpt lat="46.46616561003738" lon="11.433000616547428"><ele>1229.0</ele><time>2026-05-01T09:03:35.093Z</time></trkpt><trkpt lat="46.4661602666636" lon="11.433187037095452"><ele>1229.0</ele><time>2026-05-01T09:03:36.089Z</time></trkpt><trkpt lat="46.466163387273845" lon="11.43338627397721"><ele>1229.0</ele><time>2026-05-01T09:03:37.088Z</time></trkpt><trkpt lat="46.46617448374622" lon="11.433592770970957"><ele>1229.0</ele><time>2026-05-01T09:03:38.096Z</time></trkpt><trkpt lat="46.4662120979822" lon="11.433794024843447"><ele>1229.0</ele><time>2026-05-01T09:03:39.109Z</time></trkpt><trkpt lat="46.4662317606644" lon="11.433992466666666"><ele>1229.75</ele><time>2026-05-01T09:03:40.089Z</time></trkpt><trkpt lat="46.466221372152845" lon="11.434188724588843"><ele>1230.5</ele><time>2026-05-01T09:03:41.08Z</time></trkpt><trkpt lat="46.4661929" lon="11.434379366666667"><ele>1231.25</ele><time>2026-05-01T09:03:42.109Z</time></trkpt><trkpt lat="46.46611948333333" lon="11.4345282"><ele>1232.0</ele><time>2026-05-01T09:03:43.088Z</time></trkpt><trkpt lat="46.46601721754609" lon="11.434621420061402"><ele>1234.5</ele><time>2026-05-01T09:03:44.091Z</time></trkpt><trkpt lat="46.46594007645634" lon="11.434759894195231"><ele>1237.0</ele><time>2026-05-01T09:03:45.109Z</time></trkpt><trkpt lat="46.465908716666675" lon="11.434935383333334"><ele>1239.5</ele><time>2026-05-01T09:03:46.081Z</time></trkpt><trkpt lat="46.46586926666667" lon="11.435113083333333"><ele>1242.0</ele><time>2026-05-01T09:03:47.094Z</time></trkpt><trkpt lat="46.46583531666667" lon="11.435289783333333"><ele>1244.0</ele><time>2026-05-01T09:03:48.11Z</time></trkpt><trkpt lat="46.465815916666664" lon="11.43547065"><ele>1246.0</ele><time>2026-05-01T09:03:49.089Z</time></trkpt><trkpt lat="46.46581083333334" lon="11.4356611"><ele>1248.0</ele><time>2026-05-01T09:03:50.082Z</time></trkpt><trkpt lat="46.46580314999999" lon="11.435865116666665"><ele>1250.0</ele><time>2026-05-01T09:03:51.109Z</time></trkpt><trkpt lat="46.46578653333333" lon="11.436073299999997"><ele>1250.0</ele><time>2026-05-01T09:03:52.091Z</time></trkpt><trkpt lat="46.46577111666667" lon="11.436270366666667"><ele>1250.0</ele><time>2026-05-01T09:03:53.094Z</time></trkpt><trkpt lat="46.465760916666675" lon="11.436454499999998"><ele>1250.0</ele><time>2026-05-01T09:03:54.108Z</time></trkpt><trkpt lat="46.46576728333333" lon="11.436624916666664"><ele>1250.0</ele><time>2026-05-01T09:03:55.091Z</time></trkpt><trkpt lat="46.46579164999999" lon="11.436793866666669"><ele>1250.25</ele><time>2026-05-01T09:03:56.097Z</time></trkpt><trkpt lat="46.465824149999996" lon="11.436971166666668"><ele>1250.5</ele><time>2026-05-01T09:03:57.108Z</time></trkpt><trkpt lat="46.46584708333333" lon="11.437143283333334"><ele>1250.75</ele><time>2026-05-01T09:03:58.096Z</time></trkpt><trkpt lat="46.46583746666667" lon="11.437317499999999"><ele>1251.0</ele><time>2026-05-01T09:03:59.08Z</time></trkpt><trkpt lat="46.46579428333333" lon="11.437508583333333"><ele>1251.25</ele><time>2026-05-01T09:04:00.081Z</time></trkpt><trkpt lat="46.46573678333333" lon="11.437692366666665"><ele>1251.5</ele><time>2026-05-01T09:04:01.088Z</time></trkpt><trkpt lat="46.46569071666666" lon="11.43786435"><ele>1251.75</ele><time>2026-05-01T09:04:02.093Z</time></trkpt><trkpt lat="46.4656479189437" lon="11.438048182718699"><ele>1252.0</ele><time>2026-05-01T09:04:03.091Z</time></trkpt><trkpt lat="46.46562956165117" lon="11.438255415182748"><ele>1255.6666666666665</ele><time>2026-05-01T09:04:04.085Z</time></trkpt><trkpt lat="46.465634666666666" lon="11.438481816666668"><ele>1259.3333333333333</ele><time>2026-05-01T09:04:05.093Z</time></trkpt><trkpt lat="46.46562331666667" lon="11.438715566666668"><ele>1263.0</ele><time>2026-05-01T09:04:06.108Z</time></trkpt><trkpt lat="46.465611800000005" lon="11.438935966666667"><ele>1265.25</ele><time>2026-05-01T09:04:07.088Z</time></trkpt><trkpt lat="46.46560595" lon="11.439137566666666"><ele>1267.5</ele><time>2026-05-01T09:04:08.086Z</time></trkpt><trkpt lat="46.465619333333336" lon="11.439327433333334"><ele>1269.75</ele><time>2026-05-01T09:04:09.081Z</time></trkpt><trkpt lat="46.465654066666666" lon="11.439512533333334"><ele>1272.0</ele><time>2026-05-01T09:04:10.086Z</time></trkpt><trkpt lat="46.465697733333336" lon="11.439698133333332"><ele>1272.5</ele><time>2026-05-01T09:04:11.092Z</time></trkpt><trkpt lat="46.4657423" lon="11.439885816666667"><ele>1273.0</ele><time>2026-05-01T09:04:12.11Z</time></trkpt><trkpt lat="46.46578148333333" lon="11.440084850000002"><ele>1273.5</ele><time>2026-05-01T09:04:13.089Z</time></trkpt><trkpt lat="46.46580458333332" lon="11.440299466666666"><ele>1274.0</ele><time>2026-05-01T09:04:14.094Z</time></trkpt><trkpt lat="46.46582073333334" lon="11.440523583333334"><ele>1274.25</ele><time>2026-05-01T09:04:15.109Z</time></trkpt><trkpt lat="46.46579259681455" lon="11.440737525405233"><ele>1274.5</ele><time>2026-05-01T09:04:16.089Z</time></trkpt><trkpt lat="46.46576992844339" lon="11.440930706767839"><ele>1274.75</ele><time>2026-05-01T09:04:17.079Z</time></trkpt><trkpt lat="46.46574987356549" lon="11.441104937202663"><ele>1275.0</ele><time>2026-05-01T09:04:18.091Z</time></trkpt><trkpt lat="46.46574006985606" lon="11.44126183933972"><ele>1275.0</ele><time>2026-05-01T09:04:19.093Z</time></trkpt><trkpt lat="46.46573689226025" lon="11.441406712331258"><ele>1275.0</ele><time>2026-05-01T09:04:20.078Z</time></trkpt><trkpt lat="46.46574409878086" lon="11.441549080867498"><ele>1275.0</ele><time>2026-05-01T09:04:21.125Z</time></trkpt><trkpt lat="46.46576169311845" lon="11.441693091277024"><ele>1275.0</ele><time>2026-05-01T09:04:22.092Z</time></trkpt><trkpt lat="46.46578301309788" lon="11.441830297839884"><ele>1275.0</ele><time>2026-05-01T09:04:23.094Z</time></trkpt><trkpt lat="46.46580067227512" lon="11.441973983148195"><ele>1275.0</ele><time>2026-05-01T09:04:24.108Z</time></trkpt><trkpt lat="46.46581380776527" lon="11.442112616516859"><ele>1275.0</ele><time>2026-05-01T09:04:25.088Z</time></trkpt><trkpt lat="46.46582558643557" lon="11.44223692976719"><ele>1275.0</ele><time>2026-05-01T09:04:26.103Z</time></trkpt><trkpt lat="46.46584355490533" lon="11.442363422274548"><ele>1275.0</ele><time>2026-05-01T09:04:27.089Z</time></trkpt><trkpt lat="46.46587944585193" lon="11.442493613054461"><ele>1275.0</ele><time>2026-05-01T09:04:28.088Z</time></trkpt><trkpt lat="46.46594051244142" lon="11.442626534990351"><ele>1274.0</ele><time>2026-05-01T09:04:29.096Z</time></trkpt><trkpt lat="46.46601280488442" lon="11.4427625708593"><ele>1273.0</ele><time>2026-05-01T09:04:30.107Z</time></trkpt><trkpt lat="46.466097803747736" lon="11.442896586161503"><ele>1272.0</ele><time>2026-05-01T09:04:31.09Z</time></trkpt><trkpt lat="46.46620284172874" lon="11.443006395070388"><ele>1271.0</ele><time>2026-05-01T09:04:32.097Z</time></trkpt><trkpt lat="46.4663295" lon="11.443070033333333"><ele>1273.5</ele><time>2026-05-01T09:04:33.108Z</time></trkpt><trkpt lat="46.46646323333333" lon="11.443135316666666"><ele>1276.0</ele><time>2026-05-01T09:04:34.087Z</time></trkpt><trkpt lat="46.46659631666667" lon="11.443208816666667"><ele>1278.5</ele><time>2026-05-01T09:04:35.093Z</time></trkpt><trkpt lat="46.46672230000001" lon="11.443296083333333"><ele>1281.0</ele><time>2026-05-01T09:04:36.13Z</time></trkpt><trkpt lat="46.466839516666674" lon="11.443392933333334"><ele>1281.0</ele><time>2026-05-01T09:04:37.088Z</time></trkpt><trkpt lat="46.466945450000004" lon="11.443494466666667"><ele>1281.0</ele><time>2026-05-01T09:04:38.101Z</time></trkpt><trkpt lat="46.46703383333333" lon="11.443609566666666"><ele>1281.0</ele><time>2026-05-01T09:04:39.081Z</time></trkpt><trkpt lat="46.46710016666666" lon="11.443746949999998"><ele>1281.0</ele><time>2026-05-01T09:04:40.088Z</time></trkpt><trkpt lat="46.46713644999999" lon="11.443905333333332"><ele>1280.75</ele><time>2026-05-01T09:04:41.093Z</time></trkpt><trkpt lat="46.46715016666667" lon="11.444083833333332"><ele>1280.5</ele><time>2026-05-01T09:04:42.108Z</time></trkpt><trkpt lat="46.46712492659889" lon="11.444274298378321"><ele>1280.25</ele><time>2026-05-01T09:04:43.09Z</time></trkpt><trkpt lat="46.46712509307047" lon="11.444492391108515"><ele>1280.0</ele><time>2026-05-01T09:04:44.092Z</time></trkpt><trkpt lat="46.467148409222055" lon="11.44471105457261"><ele>1282.3333333333335</ele><time>2026-05-01T09:04:45.081Z</time></trkpt><trkpt lat="46.467167100347076" lon="11.444936609136688"><ele>1284.6666666666667</ele><time>2026-05-01T09:04:46.089Z</time></trkpt><trkpt lat="46.46718619561055" lon="11.445160459900155"><ele>1287.0</ele><time>2026-05-01T09:04:47.094Z</time></trkpt><trkpt lat="46.46721217494618" lon="11.44535930177008"><ele>1287.75</ele><time>2026-05-01T09:04:48.108Z</time></trkpt><trkpt lat="46.46723376275104" lon="11.445533657565791"><ele>1288.5</ele><time>2026-05-01T09:04:49.092Z</time></trkpt><trkpt lat="46.4672178840362" lon="11.445713325194907"><ele>1289.25</ele><time>2026-05-01T09:04:50.099Z</time></trkpt><trkpt lat="46.46717667650607" lon="11.445906243729173"><ele>1290.0</ele><time>2026-05-01T09:04:51.107Z</time></trkpt><trkpt lat="46.46715603333334" lon="11.446117016666669"><ele>1285.6666666666667</ele><time>2026-05-01T09:04:52.088Z</time></trkpt><trkpt lat="46.46710855119798" lon="11.44632600340465"><ele>1281.3333333333335</ele><time>2026-05-01T09:04:53.081Z</time></trkpt><trkpt lat="46.467086009436485" lon="11.446546903261511"><ele>1277.0</ele><time>2026-05-01T09:04:54.082Z</time></trkpt><trkpt lat="46.467087294872016" lon="11.44676554369842"><ele>1277.0</ele><time>2026-05-01T09:04:55.097Z</time></trkpt><trkpt lat="46.46709981666666" lon="11.446956699999998"><ele>1277.0</ele><time>2026-05-01T09:04:56.093Z</time></trkpt><trkpt lat="46.46707275000001" lon="11.447133733333331"><ele>1277.0</ele><time>2026-05-01T09:04:57.108Z</time></trkpt><trkpt lat="46.467006097344644" lon="11.447272115347175"><ele>1277.0</ele><time>2026-05-01T09:04:58.097Z</time></trkpt><trkpt lat="46.46692644752341" lon="11.447403471040587"><ele>1277.75</ele><time>2026-05-01T09:04:59.093Z</time></trkpt><trkpt lat="46.46685000247055" lon="11.447564795145551"><ele>1278.5</ele><time>2026-05-01T09:05:00.108Z</time></trkpt><trkpt lat="46.466790733549715" lon="11.447762348327792"><ele>1279.25</ele><time>2026-05-01T09:05:01.09Z</time></trkpt><trkpt lat="46.46674571666668" lon="11.447946033333336"><ele>1280.0</ele><time>2026-05-01T09:05:02.096Z</time></trkpt><trkpt lat="46.466671383333335" lon="11.44807145"><ele>1280.2</ele><time>2026-05-01T09:05:03.089Z</time></trkpt><trkpt lat="46.46658134999999" lon="11.448139283333335"><ele>1280.4</ele><time>2026-05-01T09:05:04.099Z</time></trkpt><trkpt lat="46.46648318333334" lon="11.448159816666664"><ele>1280.6</ele><time>2026-05-01T09:05:05.093Z</time></trkpt><trkpt lat="46.466383783333335" lon="11.448147166666669"><ele>1280.8</ele><time>2026-05-01T09:05:06.107Z</time></trkpt><trkpt lat="46.46628534999999" lon="11.448103900000001"><ele>1281.0</ele><time>2026-05-01T09:05:07.087Z</time></trkpt><trkpt lat="46.4661761" lon="11.448038016666665"><ele>1281.0</ele><time>2026-05-01T09:05:08.095Z</time></trkpt><trkpt lat="46.466052133333335" lon="11.447987033333334"><ele>1281.0</ele><time>2026-05-01T09:05:09.109Z</time></trkpt><trkpt lat="46.465923216666674" lon="11.447985300000001"><ele>1281.0</ele><time>2026-05-01T09:05:10.088Z</time></trkpt><trkpt lat="46.46580235" lon="11.448034883333332"><ele>1281.0</ele><time>2026-05-01T09:05:11.095Z</time></trkpt><trkpt lat="46.4657057" lon="11.448124416666667"><ele>1281.0</ele><time>2026-05-01T09:05:12.089Z</time></trkpt><trkpt lat="46.46562815000001" lon="11.4482212"><ele>1281.0</ele><time>2026-05-01T09:05:13.093Z</time></trkpt><trkpt lat="46.46555218333333" lon="11.4482826"><ele>1281.0</ele><time>2026-05-01T09:05:14.097Z</time></trkpt><trkpt lat="46.465466850000006" lon="11.448302000000002"><ele>1281.0</ele><time>2026-05-01T09:05:15.109Z</time></trkpt><trkpt lat="46.46536953333333" lon="11.448300366666668"><ele>1281.0</ele><time>2026-05-01T09:05:16.089Z</time></trkpt><trkpt lat="46.46526098333334" lon="11.44830005"><ele>1282.75</ele><time>2026-05-01T09:05:17.094Z</time></trkpt><trkpt lat="46.46514418333333" lon="11.448300266666669"><ele>1284.5</ele><time>2026-05-01T09:05:18.108Z</time></trkpt><trkpt lat="46.46500803333333" lon="11.448293333333334"><ele>1286.25</ele><time>2026-05-01T09:05:19.088Z</time></trkpt><trkpt lat="46.464869699999994" lon="11.448283183333334"><ele>1288.0</ele><time>2026-05-01T09:05:20.099Z</time></trkpt><trkpt lat="46.46474171666667" lon="11.448245766666666"><ele>1288.0</ele><time>2026-05-01T09:05:21.109Z</time></trkpt><trkpt lat="46.464615933333334" lon="11.448177583333333"><ele>1288.0</ele><time>2026-05-01T09:05:22.091Z</time></trkpt><trkpt lat="46.46450443106006" lon="11.448081920844121"><ele>1288.0</ele><time>2026-05-01T09:05:23.097Z</time></trkpt><trkpt lat="46.464383883333326" lon="11.4480696"><ele>1288.0</ele><time>2026-05-01T09:05:24.108Z</time></trkpt><trkpt lat="46.464274366666665" lon="11.448083983333333"><ele>1287.0</ele><time>2026-05-01T09:05:25.089Z</time></trkpt><trkpt lat="46.464180983333335" lon="11.448164816666667"><ele>1286.0</ele><time>2026-05-01T09:05:26.093Z</time></trkpt><trkpt lat="46.464090683333346" lon="11.448279549999999"><ele>1285.0</ele><time>2026-05-01T09:05:27.109Z</time></trkpt><trkpt lat="46.464004433333336" lon="11.448395616666668"><ele>1284.0</ele><time>2026-05-01T09:05:28.089Z</time></trkpt><trkpt lat="46.46393015000001" lon="11.448494283333332"><ele>1283.0</ele><time>2026-05-01T09:05:29.094Z</time></trkpt><trkpt lat="46.46387428333335" lon="11.448560666666665"><ele>1282.8000000000002</ele><time>2026-05-01T09:05:30.081Z</time></trkpt><trkpt lat="46.46376220329111" lon="11.448634772990108"><ele>1282.6</ele><time>2026-05-01T09:05:32.097Z</time></trkpt><trkpt lat="46.463723433333335" lon="11.448559283333335"><ele>1282.4</ele><time>2026-05-01T09:05:33.108Z</time></trkpt><trkpt lat="46.463660600000004" lon="11.44848623333333"><ele>1282.1999999999998</ele><time>2026-05-01T09:05:34.09Z</time></trkpt><trkpt lat="46.46359543333333" lon="11.448394833333335"><ele>1282.0</ele><time>2026-05-01T09:05:35.09Z</time></trkpt><trkpt lat="46.46352968333334" lon="11.448271816666667"><ele>1282.0</ele><time>2026-05-01T09:05:36.108Z</time></trkpt><trkpt lat="46.46346213333333" lon="11.448127600000001"><ele>1282.0</ele><time>2026-05-01T09:05:37.088Z</time></trkpt><trkpt lat="46.46339185" lon="11.44798611666667"><ele>1282.0</ele><time>2026-05-01T09:05:38.095Z</time></trkpt><trkpt lat="46.46332698333334" lon="11.447846916666666"><ele>1282.0</ele><time>2026-05-01T09:05:39.109Z</time></trkpt><trkpt lat="46.46326793333333" lon="11.447702499999998"><ele>1280.75</ele><time>2026-05-01T09:05:40.099Z</time></trkpt><trkpt lat="46.463213333333336" lon="11.447555666666664"><ele>1279.5</ele><time>2026-05-01T09:05:41.093Z</time></trkpt><trkpt lat="46.463162983333326" lon="11.447407850000001"><ele>1278.25</ele><time>2026-05-01T09:05:42.109Z</time></trkpt><trkpt lat="46.46312525" lon="11.447243966666667"><ele>1277.0</ele><time>2026-05-01T09:05:43.09Z</time></trkpt><trkpt lat="46.463098783333336" lon="11.447056633333332"><ele>1274.0</ele><time>2026-05-01T09:05:44.096Z</time></trkpt><trkpt lat="46.46307385" lon="11.446851383333334"><ele>1271.0</ele><time>2026-05-01T09:05:45.118Z</time></trkpt><trkpt lat="46.463044499999995" lon="11.4466252"><ele>1268.0</ele><time>2026-05-01T09:05:46.088Z</time></trkpt><trkpt lat="46.463011466666664" lon="11.446389233333333"><ele>1266.3333333333335</ele><time>2026-05-01T09:05:47.081Z</time></trkpt><trkpt lat="46.462969699999995" lon="11.446161333333336"><ele>1264.6666666666667</ele><time>2026-05-01T09:05:48.082Z</time></trkpt><trkpt lat="46.46291861666667" lon="11.445943183333336"><ele>1263.0</ele><time>2026-05-01T09:05:49.081Z</time></trkpt><trkpt lat="46.46287063333333" lon="11.445734516666667"><ele>1259.8</ele><time>2026-05-01T09:05:50.096Z</time></trkpt><trkpt lat="46.462834566666665" lon="11.445558766666666"><ele>1256.6</ele><time>2026-05-01T09:05:51.11Z</time></trkpt><trkpt lat="46.46280345" lon="11.445427783333331"><ele>1253.4</ele><time>2026-05-01T09:05:52.088Z</time></trkpt><trkpt lat="46.46279586666666" lon="11.4453118"><ele>1250.2</ele><time>2026-05-01T09:05:53.095Z</time></trkpt><trkpt lat="46.46282213333334" lon="11.445200700000003"><ele>1247.0</ele><time>2026-05-01T09:05:54.093Z</time></trkpt><trkpt lat="46.46287338333333" lon="11.445081666666665"><ele>1247.2</ele><time>2026-05-01T09:05:55.087Z</time></trkpt><trkpt lat="46.46293451666667" lon="11.444953516666665"><ele>1247.4</ele><time>2026-05-01T09:05:56.094Z</time></trkpt><trkpt lat="46.46298336666667" lon="11.444830316666666"><ele>1247.6</ele><time>2026-05-01T09:05:57.08Z</time></trkpt><trkpt lat="46.46301104999999" lon="11.444706783333332"><ele>1247.8</ele><time>2026-05-01T09:05:58.081Z</time></trkpt><trkpt lat="46.46302099999999" lon="11.444576416666665"><ele>1248.0</ele><time>2026-05-01T09:05:59.094Z</time></trkpt><trkpt lat="46.46302403333334" lon="11.444442833333335"><ele>1248.0</ele><time>2026-05-01T09:06:00.108Z</time></trkpt><trkpt lat="46.46303248333334" lon="11.444317166666666"><ele>1248.0</ele><time>2026-05-01T09:06:01.09Z</time></trkpt><trkpt lat="46.463048316666665" lon="11.444199633333335"><ele>1248.0</ele><time>2026-05-01T09:06:02.094Z</time></trkpt><trkpt lat="46.463069533333325" lon="11.444090533333334"><ele>1248.0</ele><time>2026-05-01T09:06:03.092Z</time></trkpt><trkpt lat="46.463099516666674" lon="11.443992233333331"><ele>1248.0</ele><time>2026-05-01T09:06:04.088Z</time></trkpt><trkpt lat="46.46314638801228" lon="11.443896445958336"><ele>1248.0</ele><time>2026-05-01T09:06:05.099Z</time></trkpt><trkpt lat="46.46322245137228" lon="11.443831394693202"><ele>1243.8</ele><time>2026-05-01T09:06:06.108Z</time></trkpt><trkpt lat="46.46329587577718" lon="11.443775723730388"><ele>1239.6</ele><time>2026-05-01T09:06:07.088Z</time></trkpt><trkpt lat="46.463360949999995" lon="11.443752549999997"><ele>1235.4</ele><time>2026-05-01T09:06:08.094Z</time></trkpt><trkpt lat="46.46349555719689" lon="11.443729176754927"><ele>1231.2</ele><time>2026-05-01T09:06:10.089Z</time></trkpt><trkpt lat="46.46356259999999" lon="11.443737149999999"><ele>1227.0</ele><time>2026-05-01T09:06:11.097Z</time></trkpt><trkpt lat="46.46362444473552" lon="11.443587594752069"><ele>1227.0</ele><time>2026-05-01T09:06:13.09Z</time></trkpt><trkpt lat="46.463559925115845" lon="11.443477211089236"><ele>1227.0</ele><time>2026-05-01T09:06:14.08Z</time></trkpt><trkpt lat="46.463474154755716" lon="11.44345786712355"><ele>1227.0</ele><time>2026-05-01T09:06:15.108Z</time></trkpt><trkpt lat="46.46338741054804" lon="11.443452586677983"><ele>1227.0</ele><time>2026-05-01T09:06:16.089Z</time></trkpt><trkpt lat="46.46328941652648" lon="11.44345790170523"><ele>1227.0</ele><time>2026-05-01T09:06:17.096Z</time></trkpt><trkpt lat="46.46318944060141" lon="11.443476405285004"><ele>1227.0</ele><time>2026-05-01T09:06:18.082Z</time></trkpt><trkpt lat="46.46309855026389" lon="11.443508086974301"><ele>1227.0</ele><time>2026-05-01T09:06:19.088Z</time></trkpt><trkpt lat="46.46300915395423" lon="11.443551701472995"><ele>1227.0</ele><time>2026-05-01T09:06:20.097Z</time></trkpt><trkpt lat="46.46292821240825" lon="11.443609851843792"><ele>1227.0</ele><time>2026-05-01T09:06:21.094Z</time></trkpt><trkpt lat="46.46285855004122" lon="11.443671024129447"><ele>1227.0</ele><time>2026-05-01T09:06:22.091Z</time></trkpt><trkpt lat="46.46279257784985" lon="11.443735036868995"><ele>1227.0</ele><time>2026-05-01T09:06:23.094Z</time></trkpt><trkpt lat="46.46272713434819" lon="11.443811559327738"><ele>1226.1666666666667</ele><time>2026-05-01T09:06:24.108Z</time></trkpt><trkpt lat="46.462668004391254" lon="11.443901889169723"><ele>1225.3333333333333</ele><time>2026-05-01T09:06:25.092Z</time></trkpt><trkpt lat="46.462612992106855" lon="11.443995562926094"><ele>1224.5</ele><time>2026-05-01T09:06:26.099Z</time></trkpt><trkpt lat="46.46255931668273" lon="11.444092458206889"><ele>1223.6666666666665</ele><time>2026-05-01T09:06:27.11Z</time></trkpt><trkpt lat="46.46250558333333" lon="11.44420085"><ele>1222.8333333333333</ele><time>2026-05-01T09:06:28.094Z</time></trkpt><trkpt lat="46.4624164" lon="11.444249783333332"><ele>1222.0</ele><time>2026-05-01T09:06:29.097Z</time></trkpt><trkpt lat="46.46232284999999" lon="11.444250666666669"><ele>1222.0</ele><time>2026-05-01T09:06:30.08Z</time></trkpt><trkpt lat="46.46223256666667" lon="11.444205016666668"><ele>1222.0</ele><time>2026-05-01T09:06:31.087Z</time></trkpt><trkpt lat="46.46214808333334" lon="11.444130783333332"><ele>1222.0</ele><time>2026-05-01T09:06:32.096Z</time></trkpt><trkpt lat="46.46206888333333" lon="11.4440517"><ele>1222.0</ele><time>2026-05-01T09:06:33.11Z</time></trkpt><trkpt lat="46.46198893333333" lon="11.443988633333333"><ele>1222.0</ele><time>2026-05-01T09:06:34.088Z</time></trkpt><trkpt lat="46.4619018925657" lon="11.44393220576494"><ele>1219.4</ele><time>2026-05-01T09:06:35.093Z</time></trkpt><trkpt lat="46.46180301443532" lon="11.443948471921228"><ele>1216.8000000000002</ele><time>2026-05-01T09:06:36.11Z</time></trkpt><trkpt lat="46.46169638333335" lon="11.443981033333333"><ele>1214.2</ele><time>2026-05-01T09:06:37.09Z</time></trkpt><trkpt lat="46.46158188333334" lon="11.443953533333335"><ele>1211.6000000000001</ele><time>2026-05-01T09:06:38.094Z</time></trkpt><trkpt lat="46.46146906666666" lon="11.443919483333332"><ele>1209.0</ele><time>2026-05-01T09:06:39.111Z</time></trkpt><trkpt lat="46.461362050178884" lon="11.443870663948758"><ele>1205.8</ele><time>2026-05-01T09:06:40.089Z</time></trkpt><trkpt lat="46.46125523878535" lon="11.44386690682611"><ele>1202.6000000000001</ele><time>2026-05-01T09:06:41.095Z</time></trkpt><trkpt lat="46.46115381385084" lon="11.443890582526238"><ele>1199.4</ele><time>2026-05-01T09:06:42.109Z</time></trkpt><trkpt lat="46.46105907610353" lon="11.44394663738036"><ele>1196.2</ele><time>2026-05-01T09:06:43.09Z</time></trkpt><trkpt lat="46.460975676418286" lon="11.444037546144127"><ele>1193.0</ele><time>2026-05-01T09:06:44.096Z</time></trkpt><trkpt lat="46.460897089371855" lon="11.444148324927395"><ele>1193.0</ele><time>2026-05-01T09:06:45.109Z</time></trkpt><trkpt lat="46.460829325328795" lon="11.444271896184764"><ele>1193.0</ele><time>2026-05-01T09:06:46.087Z</time></trkpt><trkpt lat="46.46077781472194" lon="11.444406227949932"><ele>1193.0</ele><time>2026-05-01T09:06:47.094Z</time></trkpt><trkpt lat="46.460741439904446" lon="11.444542968324587"><ele>1193.0</ele><time>2026-05-01T09:06:48.11Z</time></trkpt><trkpt lat="46.46072033331704" lon="11.444691957569088"><ele>1193.0</ele><time>2026-05-01T09:06:49.089Z</time></trkpt><trkpt lat="46.46071571738008" lon="11.44486385092421"><ele>1193.0</ele><time>2026-05-01T09:06:50.095Z</time></trkpt><trkpt lat="46.46071866876615" lon="11.44504279075644"><ele>1193.0</ele><time>2026-05-01T09:06:51.109Z</time></trkpt><trkpt lat="46.46072103089968" lon="11.445211885408401"><ele>1193.0</ele><time>2026-05-01T09:06:52.09Z</time></trkpt><trkpt lat="46.46072045935841" lon="11.445377513921093"><ele>1193.0</ele><time>2026-05-01T09:06:53.083Z</time></trkpt><trkpt lat="46.460709838603584" lon="11.445527586471758"><ele>1192.0</ele><time>2026-05-01T09:06:54.109Z</time></trkpt><trkpt lat="46.46067609356143" lon="11.445663559300607"><ele>1191.0</ele><time>2026-05-01T09:06:55.089Z</time></trkpt><trkpt lat="46.46063691555253" lon="11.445794121914018"><ele>1190.0</ele><time>2026-05-01T09:06:56.093Z</time></trkpt><trkpt lat="46.46059293765467" lon="11.445925560744227"><ele>1189.0</ele><time>2026-05-01T09:06:57.108Z</time></trkpt><trkpt lat="46.46054408042456" lon="11.446058015069777"><ele>1188.0</ele><time>2026-05-01T09:06:58.082Z</time></trkpt><trkpt lat="46.460489782312195" lon="11.446190541310157"><ele>1185.6</ele><time>2026-05-01T09:06:59.095Z</time></trkpt><trkpt lat="46.46043260176514" lon="11.44630648077695"><ele>1183.1999999999998</ele><time>2026-05-01T09:07:00.081Z</time></trkpt><trkpt lat="46.46035955923963" lon="11.446394092027925"><ele>1180.8</ele><time>2026-05-01T09:07:01.089Z</time></trkpt><trkpt lat="46.460280091227915" lon="11.446460940589468"><ele>1178.3999999999999</ele><time>2026-05-01T09:07:02.08Z</time></trkpt><trkpt lat="46.46020263636096" lon="11.44653204947733"><ele>1176.0</ele><time>2026-05-01T09:07:03.109Z</time></trkpt><trkpt lat="46.46012028745676" lon="11.446619787316552"><ele>1176.0</ele><time>2026-05-01T09:07:04.09Z</time></trkpt><trkpt lat="46.460054356290634" lon="11.446732583364827"><ele>1176.0</ele><time>2026-05-01T09:07:05.097Z</time></trkpt><trkpt lat="46.45999265563405" lon="11.44684586445334"><ele>1176.0</ele><time>2026-05-01T09:07:06.086Z</time></trkpt><trkpt lat="46.45992912521191" lon="11.446957042527568"><ele>1176.0</ele><time>2026-05-01T09:07:07.083Z</time></trkpt><trkpt lat="46.459854934844536" lon="11.447053085587424"><ele>1176.0</ele><time>2026-05-01T09:07:08.098Z</time></trkpt><trkpt lat="46.45975798535152" lon="11.44712226695128"><ele>1175.25</ele><time>2026-05-01T09:07:09.109Z</time></trkpt><trkpt lat="46.459650177440544" lon="11.447184878777897"><ele>1174.5</ele><time>2026-05-01T09:07:10.09Z</time></trkpt><trkpt lat="46.459536458065934" lon="11.447246927427217"><ele>1173.75</ele><time>2026-05-01T09:07:11.079Z</time></trkpt><trkpt lat="46.4594210555649" lon="11.447309894393655"><ele>1173.0</ele><time>2026-05-01T09:07:12.081Z</time></trkpt><trkpt lat="46.45930487672924" lon="11.447370333941606"><ele>1173.0</ele><time>2026-05-01T09:07:13.089Z</time></trkpt><trkpt lat="46.459189712835226" lon="11.447415003139378"><ele>1173.0</ele><time>2026-05-01T09:07:14.095Z</time></trkpt><trkpt lat="46.45906700305668" lon="11.447454336238337"><ele>1173.0</ele><time>2026-05-01T09:07:15.083Z</time></trkpt><trkpt lat="46.458953692434655" lon="11.447508182188294"><ele>1173.0</ele><time>2026-05-01T09:07:16.086Z</time></trkpt><trkpt lat="46.45885505501556" lon="11.447575324523715"><ele>1171.6666666666667</ele><time>2026-05-01T09:07:17.096Z</time></trkpt><trkpt lat="46.45877154497653" lon="11.447662580162744"><ele>1170.3333333333333</ele><time>2026-05-01T09:07:18.11Z</time></trkpt><trkpt lat="46.45870446315656" lon="11.447752647688109"><ele>1169.0</ele><time>2026-05-01T09:07:19.096Z</time></trkpt><trkpt lat="46.45864846939415" lon="11.44782904996428"><ele>1167.6666666666665</ele><time>2026-05-01T09:07:20.1Z</time></trkpt><trkpt lat="46.45859331730924" lon="11.447904303272386"><ele>1166.3333333333333</ele><time>2026-05-01T09:07:21.081Z</time></trkpt><trkpt lat="46.45853736066916" lon="11.448002675225876"><ele>1165.0</ele><time>2026-05-01T09:07:22.088Z</time></trkpt><trkpt lat="46.45849112577858" lon="11.448126261361917"><ele>1165.0</ele><time>2026-05-01T09:07:23.096Z</time></trkpt><trkpt lat="46.45851575" lon="11.448291749999997"><ele>1165.0</ele><time>2026-05-01T09:07:24.109Z</time></trkpt><trkpt lat="46.4584823" lon="11.448432383333333"><ele>1165.0</ele><time>2026-05-01T09:07:25.093Z</time></trkpt><trkpt lat="46.45845283333333" lon="11.448586666666666"><ele>1165.0</ele><time>2026-05-01T09:07:26.094Z</time></trkpt><trkpt lat="46.458422816666676" lon="11.448763683333333"><ele>1167.0</ele><time>2026-05-01T09:07:27.079Z</time></trkpt><trkpt lat="46.45830408108518" lon="11.44892025292689"><ele>1169.0</ele><time>2026-05-01T09:07:28.089Z</time></trkpt><trkpt lat="46.45826422136122" lon="11.44907264217228"><ele>1171.0</ele><time>2026-05-01T09:07:29.082Z</time></trkpt><trkpt lat="46.458207630991616" lon="11.449176737495428"><ele>1173.0</ele><time>2026-05-01T09:07:30.095Z</time></trkpt><trkpt lat="46.458140371978644" lon="11.44925157340218"><ele>1175.0</ele><time>2026-05-01T09:07:31.09Z</time></trkpt><trkpt lat="46.45805407404195" lon="11.449333387853997"><ele>1175.0</ele><time>2026-05-01T09:07:32.093Z</time></trkpt><trkpt lat="46.45796245982871" lon="11.449415840671625"><ele>1175.0</ele><time>2026-05-01T09:07:33.079Z</time></trkpt><trkpt lat="46.45785572952543" lon="11.449517070849991"><ele>1175.0</ele><time>2026-05-01T09:07:34.093Z</time></trkpt><trkpt lat="46.45774308090145" lon="11.449641291038825"><ele>1175.0</ele><time>2026-05-01T09:07:35.098Z</time></trkpt><trkpt lat="46.45763826394364" lon="11.44976689675881"><ele>1174.0</ele><time>2026-05-01T09:07:36.11Z</time></trkpt><trkpt lat="46.4575394779715" lon="11.449874573128628"><ele>1173.0</ele><time>2026-05-01T09:07:37.091Z</time></trkpt><trkpt lat="46.45743120375117" lon="11.449973038251887"><ele>1172.0</ele><time>2026-05-01T09:07:38.083Z</time></trkpt><trkpt lat="46.457318859096134" lon="11.450075988870115"><ele>1171.0</ele><time>2026-05-01T09:07:39.09Z</time></trkpt><trkpt lat="46.4572094124517" lon="11.450206985251105"><ele>1168.0</ele><time>2026-05-01T09:07:40.092Z</time></trkpt><trkpt lat="46.4571104028279" lon="11.450356934732122"><ele>1165.0</ele><time>2026-05-01T09:07:41.094Z</time></trkpt><trkpt lat="46.45701866651785" lon="11.450527875058897"><ele>1162.0</ele><time>2026-05-01T09:07:42.108Z</time></trkpt><trkpt lat="46.45693147562089" lon="11.450703475376448"><ele>1159.0</ele><time>2026-05-01T09:07:43.091Z</time></trkpt><trkpt lat="46.45683718099698" lon="11.450900420111537"><ele>1159.0</ele><time>2026-05-01T09:07:44.094Z</time></trkpt><trkpt lat="46.45673841653088" lon="11.451117381531658"><ele>1159.0</ele><time>2026-05-01T09:07:45.11Z</time></trkpt><trkpt lat="46.456658943747065" lon="11.451324687060847"><ele>1159.0</ele><time>2026-05-01T09:07:46.089Z</time></trkpt><trkpt lat="46.45658959974002" lon="11.451506852032086"><ele>1156.6000000000001</ele><time>2026-05-01T09:07:47.098Z</time></trkpt><trkpt lat="46.45653251048077" lon="11.451659295470723"><ele>1154.2</ele><time>2026-05-01T09:07:48.092Z</time></trkpt><trkpt lat="46.45647520293832" lon="11.451765902322693"><ele>1151.8000000000002</ele><time>2026-05-01T09:07:49.09Z</time></trkpt><trkpt lat="46.45640063588809" lon="11.451866623874109"><ele>1149.4</ele><time>2026-05-01T09:07:50.095Z</time></trkpt><trkpt lat="46.456307569972246" lon="11.451969310226893"><ele>1147.0</ele><time>2026-05-01T09:07:51.079Z</time></trkpt><trkpt lat="46.45619240798386" lon="11.452102568565685"><ele>1158.0</ele><time>2026-05-01T09:07:52.089Z</time></trkpt><trkpt lat="46.456082731301585" lon="11.452240200551909"><ele>1169.0</ele><time>2026-05-01T09:07:53.097Z</time></trkpt><trkpt lat="46.45597005063512" lon="11.452386853796442"><ele>1180.0</ele><time>2026-05-01T09:07:54.08Z</time></trkpt><trkpt lat="46.455855015265186" lon="11.452545852855884"><ele>1180.0</ele><time>2026-05-01T09:07:55.09Z</time></trkpt><trkpt lat="46.45575541099151" lon="11.452704147386742"><ele>1180.0</ele><time>2026-05-01T09:07:56.1Z</time></trkpt><trkpt lat="46.45567284956515" lon="11.452848759914264"><ele>1180.0</ele><time>2026-05-01T09:07:57.08Z</time></trkpt><trkpt lat="46.45560792792418" lon="11.452973170239442"><ele>1180.0</ele><time>2026-05-01T09:07:58.092Z</time></trkpt><trkpt lat="46.455542437039895" lon="11.45311082153785"><ele>1178.0</ele><time>2026-05-01T09:07:59.094Z</time></trkpt><trkpt lat="46.455485975254646" lon="11.453326861710586"><ele>1176.0</ele><time>2026-05-01T09:08:00.11Z</time></trkpt><trkpt lat="46.45547137170202" lon="11.453509756018153"><ele>1174.0</ele><time>2026-05-01T09:08:01.093Z</time></trkpt><trkpt lat="46.455460466664846" lon="11.453699562175089"><ele>1172.0</ele><time>2026-05-01T09:08:02.099Z</time></trkpt><trkpt lat="46.45545165231896" lon="11.453908892817578"><ele>1172.0</ele><time>2026-05-01T09:08:03.081Z</time></trkpt><trkpt lat="46.45543641116118" lon="11.454146010025145"><ele>1172.0</ele><time>2026-05-01T09:08:04.094Z</time></trkpt><trkpt lat="46.455431474374635" lon="11.454384415738676"><ele>1172.0</ele><time>2026-05-01T09:08:05.101Z</time></trkpt><trkpt lat="46.45541635886223" lon="11.454606262225143"><ele>1175.3333333333335</ele><time>2026-05-01T09:08:06.081Z</time></trkpt><trkpt lat="46.45536534237263" lon="11.454815679377534"><ele>1178.6666666666667</ele><time>2026-05-01T09:08:07.095Z</time></trkpt><trkpt lat="46.45528414162116" lon="11.455010525923132"><ele>1182.0</ele><time>2026-05-01T09:08:08.096Z</time></trkpt><trkpt lat="46.45519291195476" lon="11.455190313475153"><ele>1182.0</ele><time>2026-05-01T09:08:09.081Z</time></trkpt><trkpt lat="46.455110901725554" lon="11.455331723506434"><ele>1182.0</ele><time>2026-05-01T09:08:10.098Z</time></trkpt><trkpt lat="46.45503080542734" lon="11.455467792851168"><ele>1182.0</ele><time>2026-05-01T09:08:11.094Z</time></trkpt><trkpt lat="46.45497105012236" lon="11.455641177428191"><ele>1182.0</ele><time>2026-05-01T09:08:12.112Z</time></trkpt><trkpt lat="46.45494713274663" lon="11.455820195158108"><ele>1187.0</ele><time>2026-05-01T09:08:13.092Z</time></trkpt><trkpt lat="46.454926507979906" lon="11.456010243451216"><ele>1192.0</ele><time>2026-05-01T09:08:14.097Z</time></trkpt><trkpt lat="46.45490735969188" lon="11.456204569823282"><ele>1197.0</ele><time>2026-05-01T09:08:15.109Z</time></trkpt><trkpt lat="46.454874756280766" lon="11.456376364775755"><ele>1202.0</ele><time>2026-05-01T09:08:16.09Z</time></trkpt><trkpt lat="46.45480734387654" lon="11.456531511484135"><ele>1199.2</ele><time>2026-05-01T09:08:17.094Z</time></trkpt><trkpt lat="46.4547120374092" lon="11.456677183410546"><ele>1196.4</ele><time>2026-05-01T09:08:18.081Z</time></trkpt><trkpt lat="46.45464236070326" lon="11.456831004956836"><ele>1193.6</ele><time>2026-05-01T09:08:19.091Z</time></trkpt><trkpt lat="46.45460400452594" lon="11.456961409296186"><ele>1190.8</ele><time>2026-05-01T09:08:20.095Z</time></trkpt><trkpt lat="46.45455504999743" lon="11.457054823905029"><ele>1188.0</ele><time>2026-05-01T09:08:21.109Z</time></trkpt><trkpt lat="46.45448185" lon="11.45714575"><ele>1195.25</ele><time>2026-05-01T09:08:22.089Z</time></trkpt><trkpt lat="46.454367681472625" lon="11.457167674919573"><ele>1202.5</ele><time>2026-05-01T09:08:23.095Z</time></trkpt><trkpt lat="46.454243814979534" lon="11.457212354666105"><ele>1209.75</ele><time>2026-05-01T09:08:24.11Z</time></trkpt><trkpt lat="46.454120309306" lon="11.457283091518818"><ele>1217.0</ele><time>2026-05-01T09:08:25.089Z</time></trkpt><trkpt lat="46.45399871902457" lon="11.457369072524715"><ele>1217.0</ele><time>2026-05-01T09:08:26.094Z</time></trkpt><trkpt lat="46.453865761241076" lon="11.457442092415327"><ele>1217.0</ele><time>2026-05-01T09:08:27.11Z</time></trkpt><trkpt lat="46.45371868559541" lon="11.457517100280368"><ele>1217.0</ele><time>2026-05-01T09:08:28.094Z</time></trkpt><trkpt lat="46.45356671592598" lon="11.45760292779781"><ele>1212.6666666666667</ele><time>2026-05-01T09:08:29.094Z</time></trkpt><trkpt lat="46.45342243471795" lon="11.45765661077424"><ele>1208.3333333333333</ele><time>2026-05-01T09:08:30.11Z</time></trkpt><trkpt lat="46.45327249773504" lon="11.45765680027848"><ele>1204.0</ele><time>2026-05-01T09:08:31.09Z</time></trkpt><trkpt lat="46.45311487067136" lon="11.457663033120362"><ele>1204.0</ele><time>2026-05-01T09:08:32.096Z</time></trkpt><trkpt lat="46.45296670709489" lon="11.457698990579404"><ele>1204.0</ele><time>2026-05-01T09:08:33.082Z</time></trkpt><trkpt lat="46.45284044523633" lon="11.457768039398005"><ele>1204.0</ele><time>2026-05-01T09:08:34.099Z</time></trkpt><trkpt lat="46.45272774338685" lon="11.457873118893461"><ele>1204.0</ele><time>2026-05-01T09:08:35.096Z</time></trkpt><trkpt lat="46.452631581618235" lon="11.458019901878155"><ele>1207.75</ele><time>2026-05-01T09:08:36.109Z</time></trkpt><trkpt lat="46.45255463945164" lon="11.458175397101705"><ele>1211.5</ele><time>2026-05-01T09:08:37.095Z</time></trkpt><trkpt lat="46.452483729578816" lon="11.45831846669223"><ele>1215.25</ele><time>2026-05-01T09:08:38.094Z</time></trkpt><trkpt lat="46.45240965684753" lon="11.458460688451648"><ele>1219.0</ele><time>2026-05-01T09:08:39.088Z</time></trkpt><trkpt lat="46.4523480608964" lon="11.458629638792441"><ele>1221.8</ele><time>2026-05-01T09:08:40.088Z</time></trkpt><trkpt lat="46.45232520187659" lon="11.45880049291484"><ele>1224.6000000000001</ele><time>2026-05-01T09:08:41.093Z</time></trkpt><trkpt lat="46.452331909868924" lon="11.458965047745723"><ele>1227.4</ele><time>2026-05-01T09:08:42.109Z</time></trkpt><trkpt lat="46.45234438952279" lon="11.459094621864953"><ele>1230.2</ele><time>2026-05-01T09:08:43.084Z</time></trkpt><trkpt lat="46.45233741921161" lon="11.459228535710961"><ele>1233.0</ele><time>2026-05-01T09:08:44.094Z</time></trkpt><trkpt lat="46.45229505752463" lon="11.459349251962385"><ele>1233.0</ele><time>2026-05-01T09:08:45.081Z</time></trkpt><trkpt lat="46.45222324079775" lon="11.459474255614412"><ele>1233.0</ele><time>2026-05-01T09:08:46.089Z</time></trkpt><trkpt lat="46.45213570973237" lon="11.459610973923908"><ele>1233.0</ele><time>2026-05-01T09:08:47.091Z</time></trkpt><trkpt lat="46.45204030786529" lon="11.459751190604692"><ele>1233.0</ele><time>2026-05-01T09:08:48.108Z</time></trkpt><trkpt lat="46.45193115179203" lon="11.459885155561796"><ele>1228.0</ele><time>2026-05-01T09:08:49.09Z</time></trkpt><trkpt lat="46.451819833685704" lon="11.460037048223427"><ele>1223.0</ele><time>2026-05-01T09:08:50.094Z</time></trkpt><trkpt lat="46.45171820614879" lon="11.46022594124653"><ele>1218.0</ele><time>2026-05-01T09:08:51.108Z</time></trkpt><trkpt lat="46.451628060207256" lon="11.460427300616532"><ele>1223.6666666666667</ele><time>2026-05-01T09:08:52.087Z</time></trkpt><trkpt lat="46.45153330218198" lon="11.460632737608066"><ele>1229.3333333333335</ele><time>2026-05-01T09:08:53.098Z</time></trkpt><trkpt lat="46.451441556962514" lon="11.460822680693099"><ele>1235.0</ele><time>2026-05-01T09:08:54.11Z</time></trkpt><trkpt lat="46.4513615930533" lon="11.46099616497324"><ele>1235.0</ele><time>2026-05-01T09:08:55.091Z</time></trkpt><trkpt lat="46.45130625817256" lon="11.461177674532827"><ele>1235.0</ele><time>2026-05-01T09:08:56.096Z</time></trkpt><trkpt lat="46.45127770561053" lon="11.461368029804717"><ele>1235.0</ele><time>2026-05-01T09:08:57.121Z</time></trkpt><trkpt lat="46.45126653783958" lon="11.461564788578297"><ele>1235.0</ele><time>2026-05-01T09:08:58.091Z</time></trkpt><trkpt lat="46.45126325238947" lon="11.461761524434477"><ele>1231.0</ele><time>2026-05-01T09:08:59.098Z</time></trkpt><trkpt lat="46.451253879453155" lon="11.461947666641533"><ele>1227.0</ele><time>2026-05-01T09:09:00.111Z</time></trkpt><trkpt lat="46.45123898706958" lon="11.462107382769537"><ele>1223.0</ele><time>2026-05-01T09:09:01.081Z</time></trkpt><trkpt lat="46.45122926061779" lon="11.462264083333332"><ele>1219.0</ele><time>2026-05-01T09:09:02.096Z</time></trkpt><trkpt lat="46.45125245125807" lon="11.46241536687729"><ele>1219.0</ele><time>2026-05-01T09:09:03.109Z</time></trkpt><trkpt lat="46.45127767054644" lon="11.462525881377903"><ele>1219.0</ele><time>2026-05-01T09:09:04.088Z</time></trkpt><trkpt lat="46.45132048092959" lon="11.462678966748859"><ele>1219.0</ele><time>2026-05-01T09:09:06.092Z</time></trkpt><trkpt lat="46.45136536666667" lon="11.462810533333334"><ele>1219.0</ele><time>2026-05-01T09:09:08.095Z</time></trkpt><trkpt lat="46.45138463333333" lon="11.462911133333334"><ele>1219.0</ele><time>2026-05-01T09:09:10.081Z</time></trkpt><trkpt lat="46.45144091666666" lon="11.46301865"><ele>1225.0</ele><time>2026-05-01T09:09:13.09Z</time></trkpt><trkpt lat="46.451520516666676" lon="11.463166349999998"><ele>1231.0</ele><time>2026-05-01T09:09:15.09Z</time></trkpt><trkpt lat="46.45157706666667" lon="11.463253066666667"><ele>1237.0</ele><time>2026-05-01T09:09:16.09Z</time></trkpt><trkpt lat="46.45164733333333" lon="11.463345"><ele>1243.0</ele><time>2026-05-01T09:09:17.081Z</time></trkpt><trkpt lat="46.45173785" lon="11.463436266666667"><ele>1249.0</ele><time>2026-05-01T09:09:18.11Z</time></trkpt><trkpt lat="46.45184093333334" lon="11.463523333333333"><ele>1249.0</ele><time>2026-05-01T09:09:19.092Z</time></trkpt><trkpt lat="46.45193643333334" lon="11.46360685"><ele>1249.0</ele><time>2026-05-01T09:09:20.095Z</time></trkpt><trkpt lat="46.45202545" lon="11.463685883333333"><ele>1249.0</ele><time>2026-05-01T09:09:21.112Z</time></trkpt><trkpt lat="46.45210985000001" lon="11.463765966666665"><ele>1249.0</ele><time>2026-05-01T09:09:22.089Z</time></trkpt><trkpt lat="46.45219116666667" lon="11.463849166666668"><ele>1249.0</ele><time>2026-05-01T09:09:23.098Z</time></trkpt><trkpt lat="46.45227535000001" lon="11.463927566666666"><ele>1250.4</ele><time>2026-05-01T09:09:24.082Z</time></trkpt><trkpt lat="46.45235588333333" lon="11.463998933333334"><ele>1251.8000000000002</ele><time>2026-05-01T09:09:25.092Z</time></trkpt><trkpt lat="46.45242495000001" lon="11.464063633333335"><ele>1253.1999999999998</ele><time>2026-05-01T09:09:26.098Z</time></trkpt><trkpt lat="46.45249068333332" lon="11.46414685"><ele>1254.6</ele><time>2026-05-01T09:09:27.11Z</time></trkpt><trkpt lat="46.45253052803172" lon="11.46428115385702"><ele>1256.0</ele><time>2026-05-01T09:09:28.091Z</time></trkpt><trkpt lat="46.45257724221554" lon="11.4644114572642"><ele>1256.0</ele><time>2026-05-01T09:09:29.096Z</time></trkpt><trkpt lat="46.45261629854643" lon="11.464536618040631"><ele>1256.0</ele><time>2026-05-01T09:09:30.11Z</time></trkpt><trkpt lat="46.45263505636283" lon="11.464647828388692"><ele>1256.0</ele><time>2026-05-01T09:09:31.09Z</time></trkpt><trkpt lat="46.45262598113744" lon="11.464751512307618"><ele>1256.0</ele><time>2026-05-01T09:09:32.096Z</time></trkpt><trkpt lat="46.452586514660766" lon="11.46482625903627"><ele>1256.0</ele><time>2026-05-01T09:09:33.094Z</time></trkpt><trkpt lat="46.45252187175849" lon="11.464912175281553"><ele>1256.0</ele><time>2026-05-01T09:09:34.092Z</time></trkpt><trkpt lat="46.45244842704828" lon="11.465006992954354"><ele>1255.25</ele><time>2026-05-01T09:09:35.097Z</time></trkpt><trkpt lat="46.45236618208885" lon="11.465127524779048"><ele>1254.5</ele><time>2026-05-01T09:09:36.11Z</time></trkpt><trkpt lat="46.452276162752234" lon="11.465264300842785"><ele>1253.75</ele><time>2026-05-01T09:09:37.09Z</time></trkpt><trkpt lat="46.45218348574498" lon="11.465424025914205"><ele>1253.0</ele><time>2026-05-01T09:09:38.101Z</time></trkpt><trkpt lat="46.45209601578525" lon="11.46555704460185"><ele>1251.25</ele><time>2026-05-01T09:09:39.111Z</time></trkpt><trkpt lat="46.451987553315355" lon="11.465652414607932"><ele>1249.5</ele><time>2026-05-01T09:09:40.09Z</time></trkpt><trkpt lat="46.451872259409086" lon="11.465754750184004"><ele>1247.75</ele><time>2026-05-01T09:09:41.1Z</time></trkpt><trkpt lat="46.45175975513426" lon="11.465850466186435"><ele>1246.0</ele><time>2026-05-01T09:09:42.11Z</time></trkpt><trkpt lat="46.45165262357843" lon="11.465954979593763"><ele>1246.0</ele><time>2026-05-01T09:09:43.093Z</time></trkpt><trkpt lat="46.45157271667257" lon="11.466087039996454"><ele>1246.0</ele><time>2026-05-01T09:09:44.096Z</time></trkpt><trkpt lat="46.45152704591117" lon="11.466224488035394"><ele>1246.0</ele><time>2026-05-01T09:09:45.109Z</time></trkpt><trkpt lat="46.451493422167275" lon="11.466332205417197"><ele>1246.0</ele><time>2026-05-01T09:09:46.09Z</time></trkpt><trkpt lat="46.451437627000345" lon="11.466421310796523"><ele>1246.0</ele><time>2026-05-01T09:09:47.097Z</time></trkpt><trkpt lat="46.4513410407882" lon="11.466529079938494"><ele>1243.25</ele><time>2026-05-01T09:09:48.08Z</time></trkpt><trkpt lat="46.451250144364685" lon="11.466670127100192"><ele>1240.5</ele><time>2026-05-01T09:09:49.09Z</time></trkpt><trkpt lat="46.45118189265127" lon="11.466807914786951"><ele>1237.75</ele><time>2026-05-01T09:09:50.099Z</time></trkpt><trkpt lat="46.451107596265565" lon="11.466941146500957"><ele>1235.0</ele><time>2026-05-01T09:09:51.091Z</time></trkpt><trkpt lat="46.45103301276737" lon="11.467077981933727"><ele>1239.0</ele><time>2026-05-01T09:09:52.092Z</time></trkpt><trkpt lat="46.450967880651035" lon="11.467222398597501"><ele>1243.0</ele><time>2026-05-01T09:09:53.095Z</time></trkpt><trkpt lat="46.45090757632493" lon="11.467357472494859"><ele>1247.0</ele><time>2026-05-01T09:09:54.111Z</time></trkpt><trkpt lat="46.45084606214701" lon="11.467466450682407"><ele>1251.0</ele><time>2026-05-01T09:09:55.099Z</time></trkpt><trkpt lat="46.450780362087386" lon="11.467552119697535"><ele>1255.0</ele><time>2026-05-01T09:09:56.096Z</time></trkpt><trkpt lat="46.450703986628675" lon="11.467619387113293"><ele>1255.0</ele><time>2026-05-01T09:09:57.109Z</time></trkpt><trkpt lat="46.450616900897046" lon="11.46767242535551"><ele>1255.0</ele><time>2026-05-01T09:09:58.09Z</time></trkpt><trkpt lat="46.450523482613455" lon="11.467730120065212"><ele>1255.0</ele><time>2026-05-01T09:09:59.096Z</time></trkpt><trkpt lat="46.45043040537724" lon="11.467790437492834"><ele>1255.0</ele><time>2026-05-01T09:10:00.091Z</time></trkpt><trkpt lat="46.450333370219575" lon="11.46785395246482"><ele>1255.0</ele><time>2026-05-01T09:10:01.09Z</time></trkpt><trkpt lat="46.45023804332538" lon="11.467920341463001"><ele>1257.75</ele><time>2026-05-01T09:10:02.096Z</time></trkpt><trkpt lat="46.45014242420822" lon="11.467995966653993"><ele>1260.5</ele><time>2026-05-01T09:10:03.111Z</time></trkpt><trkpt lat="46.450051245795066" lon="11.46808513763408"><ele>1263.25</ele><time>2026-05-01T09:10:04.09Z</time></trkpt><trkpt lat="46.44995262539171" lon="11.468182505877618"><ele>1266.0</ele><time>2026-05-01T09:10:05.084Z</time></trkpt><trkpt lat="46.44984905555682" lon="11.468272145345372"><ele>1266.0</ele><time>2026-05-01T09:10:06.11Z</time></trkpt><trkpt lat="46.44974167158794" lon="11.468337641188068"><ele>1266.0</ele><time>2026-05-01T09:10:07.09Z</time></trkpt><trkpt lat="46.44961985861992" lon="11.468382891056894"><ele>1266.0</ele><time>2026-05-01T09:10:08.095Z</time></trkpt><trkpt lat="46.44949396502825" lon="11.468444352343004"><ele>1266.0</ele><time>2026-05-01T09:10:09.109Z</time></trkpt><trkpt lat="46.449379501161026" lon="11.468535820533983"><ele>1267.75</ele><time>2026-05-01T09:10:10.092Z</time></trkpt><trkpt lat="46.449279091647696" lon="11.468672551210172"><ele>1269.5</ele><time>2026-05-01T09:10:11.094Z</time></trkpt><trkpt lat="46.44919409870653" lon="11.468831655063157"><ele>1271.25</ele><time>2026-05-01T09:10:12.11Z</time></trkpt><trkpt lat="46.44912015869237" lon="11.469009156413845"><ele>1273.0</ele><time>2026-05-01T09:10:13.093Z</time></trkpt><trkpt lat="46.44906259931271" lon="11.469214867620792"><ele>1273.0</ele><time>2026-05-01T09:10:14.082Z</time></trkpt><trkpt lat="46.449029218846114" lon="11.46944737064941"><ele>1273.0</ele><time>2026-05-01T09:10:15.111Z</time></trkpt><trkpt lat="46.44900083799894" lon="11.469701911339373"><ele>1273.0</ele><time>2026-05-01T09:10:16.09Z</time></trkpt><trkpt lat="46.448954783927746" lon="11.469981453275008"><ele>1277.6666666666665</ele><time>2026-05-01T09:10:17.099Z</time></trkpt><trkpt lat="46.448924233333344" lon="11.470288466666668"><ele>1282.3333333333333</ele><time>2026-05-01T09:10:18.094Z</time></trkpt><trkpt lat="46.448864766666674" lon="11.470572399999998"><ele>1287.0</ele><time>2026-05-01T09:10:19.085Z</time></trkpt><trkpt lat="46.448809133333334" lon="11.47083535"><ele>1276.6666666666667</ele><time>2026-05-01T09:10:20.1Z</time></trkpt><trkpt lat="46.44876956666667" lon="11.47110315"><ele>1266.3333333333335</ele><time>2026-05-01T09:10:21.112Z</time></trkpt><trkpt lat="46.44873871666667" lon="11.471383016666667"><ele>1256.0</ele><time>2026-05-01T09:10:22.1Z</time></trkpt><trkpt lat="46.44870671666666" lon="11.471662233333332"><ele>1256.0</ele><time>2026-05-01T09:10:23.082Z</time></trkpt><trkpt lat="46.4486664" lon="11.47191795"><ele>1256.0</ele><time>2026-05-01T09:10:24.111Z</time></trkpt><trkpt lat="46.44862618333333" lon="11.472131233333334"><ele>1256.0</ele><time>2026-05-01T09:10:25.089Z</time></trkpt><trkpt lat="46.448579785001776" lon="11.472313743025301"><ele>1258.0</ele><time>2026-05-01T09:10:26.103Z</time></trkpt><trkpt lat="46.448587700000004" lon="11.472501083333334"><ele>1260.0</ele><time>2026-05-01T09:10:27.083Z</time></trkpt><trkpt lat="46.448566412460835" lon="11.472688192999252"><ele>1262.0</ele><time>2026-05-01T09:10:28.089Z</time></trkpt><trkpt lat="46.44857202041031" lon="11.472882704346045"><ele>1264.0</ele><time>2026-05-01T09:10:29.096Z</time></trkpt><trkpt lat="46.44857336069264" lon="11.473077833333333"><ele>1266.25</ele><time>2026-05-01T09:10:30.082Z</time></trkpt><trkpt lat="46.44856464151339" lon="11.473270396488594"><ele>1268.5</ele><time>2026-05-01T09:10:31.09Z</time></trkpt><trkpt lat="46.448525354861324" lon="11.473454013924988"><ele>1270.75</ele><time>2026-05-01T09:10:32.082Z</time></trkpt><trkpt lat="46.44845912265906" lon="11.473612419544812"><ele>1273.0</ele><time>2026-05-01T09:10:33.121Z</time></trkpt><trkpt lat="46.44839077293881" lon="11.473750801191906"><ele>1274.2</ele><time>2026-05-01T09:10:34.09Z</time></trkpt><trkpt lat="46.448330606906374" lon="11.473876739506501"><ele>1275.4</ele><time>2026-05-01T09:10:35.094Z</time></trkpt><trkpt lat="46.448294660570724" lon="11.474014424125834"><ele>1276.6000000000001</ele><time>2026-05-01T09:10:36.11Z</time></trkpt><trkpt lat="46.44827029844658" lon="11.474141329018108"><ele>1277.8</ele><time>2026-05-01T09:10:37.091Z</time></trkpt><trkpt lat="46.448244718007466" lon="11.474266762672666"><ele>1279.0</ele><time>2026-05-01T09:10:38.099Z</time></trkpt><trkpt lat="46.44821433794822" lon="11.47439603953808"><ele>1279.0</ele><time>2026-05-01T09:10:39.111Z</time></trkpt><trkpt lat="46.44818245187395" lon="11.474524318030683"><ele>1279.0</ele><time>2026-05-01T09:10:40.09Z</time></trkpt><trkpt lat="46.44816306070099" lon="11.47467905"><ele>1279.0</ele><time>2026-05-01T09:10:41.082Z</time></trkpt><trkpt lat="46.4481769204806" lon="11.474834266382313"><ele>1279.0</ele><time>2026-05-01T09:10:42.095Z</time></trkpt><trkpt lat="46.44819434105016" lon="11.474992987187926"><ele>1279.0</ele><time>2026-05-01T09:10:43.091Z</time></trkpt><trkpt lat="46.44821207605036" lon="11.475162640947211"><ele>1279.0</ele><time>2026-05-01T09:10:44.095Z</time></trkpt><trkpt lat="46.44823046207801" lon="11.475343736801147"><ele>1279.0</ele><time>2026-05-01T09:10:45.111Z</time></trkpt><trkpt lat="46.448254991759896" lon="11.475537041394295"><ele>1279.0</ele><time>2026-05-01T09:10:46.093Z</time></trkpt><trkpt lat="46.448279131921815" lon="11.475737297368864"><ele>1279.0</ele><time>2026-05-01T09:10:47.096Z</time></trkpt><trkpt lat="46.4482998441464" lon="11.475946200808524"><ele>1279.0</ele><time>2026-05-01T09:10:48.111Z</time></trkpt><trkpt lat="46.44832127818319" lon="11.476159868684459"><ele>1279.0</ele><time>2026-05-01T09:10:49.093Z</time></trkpt><trkpt lat="46.448350530533546" lon="11.476366645572162"><ele>1279.0</ele><time>2026-05-01T09:10:50.095Z</time></trkpt><trkpt lat="46.44839104248288" lon="11.476549595955667"><ele>1279.0</ele><time>2026-05-01T09:10:51.091Z</time></trkpt><trkpt lat="46.44844423333334" lon="11.476698616666665"><ele>1279.0</ele><time>2026-05-01T09:10:53.101Z</time></trkpt><trkpt lat="46.44846681760887" lon="11.47683975356887"><ele>1279.0</ele><time>2026-05-01T09:10:54.11Z</time></trkpt><trkpt lat="46.44854283333334" lon="11.477044016666666"><ele>1279.0</ele><time>2026-05-01T09:10:55.091Z</time></trkpt><trkpt lat="46.448556733333334" lon="11.477144183333333"><ele>1279.0</ele><time>2026-05-01T09:10:56.098Z</time></trkpt><trkpt lat="46.4485455356058" lon="11.47724138977774"><ele>1279.0</ele><time>2026-05-01T09:10:57.085Z</time></trkpt><trkpt lat="46.44851967278416" lon="11.477390949933383"><ele>1280.0</ele><time>2026-05-01T09:10:59.094Z</time></trkpt><trkpt lat="46.448449694596974" lon="11.477484237508111"><ele>1281.0</ele><time>2026-05-01T09:11:01.092Z</time></trkpt><trkpt lat="46.44835475690511" lon="11.477539840930973"><ele>1282.0</ele><time>2026-05-01T09:11:03.082Z</time></trkpt><trkpt lat="46.4482397096984" lon="11.477575469314766"><ele>1283.0</ele><time>2026-05-01T09:11:05.104Z</time></trkpt><trkpt lat="46.44817335636409" lon="11.477587949036273"><ele>1284.0</ele><time>2026-05-01T09:11:06.102Z</time></trkpt><trkpt lat="46.44807552971901" lon="11.47765334437718"><ele>1281.0</ele><time>2026-05-01T09:11:08.091Z</time></trkpt><trkpt lat="46.44793273333333" lon="11.477669250000002"><ele>1278.0</ele><time>2026-05-01T09:11:10.116Z</time></trkpt><trkpt lat="46.44783098333334" lon="11.47764015"><ele>1275.0</ele><time>2026-05-01T09:11:11.081Z</time></trkpt><trkpt lat="46.44771578333332" lon="11.477608616666666"><ele>1272.0</ele><time>2026-05-01T09:11:12.082Z</time></trkpt><trkpt lat="46.447592050000004" lon="11.477582116666667"><ele>1272.0</ele><time>2026-05-01T09:11:13.08Z</time></trkpt><trkpt lat="46.44747023333333" lon="11.477562883333333"><ele>1272.0</ele><time>2026-05-01T09:11:14.101Z</time></trkpt><trkpt lat="46.447351983333334" lon="11.477556466666664"><ele>1272.0</ele><time>2026-05-01T09:11:15.103Z</time></trkpt><trkpt lat="46.447242216666666" lon="11.477584149999998"><ele>1272.0</ele><time>2026-05-01T09:11:16.082Z</time></trkpt><trkpt lat="46.44713993333333" lon="11.477653666666667"><ele>1272.25</ele><time>2026-05-01T09:11:17.083Z</time></trkpt><trkpt lat="46.44703646666667" lon="11.477752549999998"><ele>1272.5</ele><time>2026-05-01T09:11:18.08Z</time></trkpt><trkpt lat="46.446928199999995" lon="11.477864700000001"><ele>1272.75</ele><time>2026-05-01T09:11:19.082Z</time></trkpt><trkpt lat="46.4468072" lon="11.477974283333333"><ele>1273.0</ele><time>2026-05-01T09:11:20.083Z</time></trkpt><trkpt lat="46.446677650000005" lon="11.478066216666667"><ele>1273.0</ele><time>2026-05-01T09:11:21.102Z</time></trkpt><trkpt lat="46.446545016666676" lon="11.4781342"><ele>1273.0</ele><time>2026-05-01T09:11:22.082Z</time></trkpt><trkpt lat="46.446411850000004" lon="11.478187083333333"><ele>1273.0</ele><time>2026-05-01T09:11:23.096Z</time></trkpt><trkpt lat="46.44628126666666" lon="11.478229016666669"><ele>1273.0</ele><time>2026-05-01T09:11:24.102Z</time></trkpt><trkpt lat="46.446153283333324" lon="11.4782738"><ele>1269.25</ele><time>2026-05-01T09:11:25.082Z</time></trkpt><trkpt lat="46.44602915000001" lon="11.478336166666669"><ele>1265.5</ele><time>2026-05-01T09:11:26.086Z</time></trkpt><trkpt lat="46.445916316666676" lon="11.478416516666668"><ele>1261.75</ele><time>2026-05-01T09:11:27.104Z</time></trkpt><trkpt lat="46.4458071" lon="11.4785262"><ele>1258.0</ele><time>2026-05-01T09:11:28.079Z</time></trkpt><trkpt lat="46.445696116666674" lon="11.478663866666666"><ele>1260.5</ele><time>2026-05-01T09:11:29.08Z</time></trkpt><trkpt lat="46.445597299999996" lon="11.478822216666668"><ele>1263.0</ele><time>2026-05-01T09:11:30.105Z</time></trkpt><trkpt lat="46.44552208333333" lon="11.479002416666667"><ele>1265.5</ele><time>2026-05-01T09:11:31.089Z</time></trkpt><trkpt lat="46.445473266666674" lon="11.479204699999999"><ele>1268.0</ele><time>2026-05-01T09:11:32.097Z</time></trkpt><trkpt lat="46.44543314999999" lon="11.479427216666668"><ele>1257.6666666666667</ele><time>2026-05-01T09:11:33.081Z</time></trkpt><trkpt lat="46.44539058333333" lon="11.47966985"><ele>1247.3333333333333</ele><time>2026-05-01T09:11:34.08Z</time></trkpt><trkpt lat="46.445333677475105" lon="11.479915118699463"><ele>1237.0</ele><time>2026-05-01T09:11:35.08Z</time></trkpt><trkpt lat="46.445291435158474" lon="11.480163863095848"><ele>1237.0</ele><time>2026-05-01T09:11:36.081Z</time></trkpt><trkpt lat="46.44529513333334" lon="11.480416949999999"><ele>1237.0</ele><time>2026-05-01T09:11:37.082Z</time></trkpt><trkpt lat="46.445276766666666" lon="11.480658133333336"><ele>1237.0</ele><time>2026-05-01T09:11:38.084Z</time></trkpt><trkpt lat="46.445270550000004" lon="11.480882216666664"><ele>1234.5</ele><time>2026-05-01T09:11:39.103Z</time></trkpt><trkpt lat="46.44528783333333" lon="11.481094616666667"><ele>1232.0</ele><time>2026-05-01T09:11:40.082Z</time></trkpt><trkpt lat="46.44533501666667" lon="11.48129165"><ele>1229.5</ele><time>2026-05-01T09:11:41.093Z</time></trkpt><trkpt lat="46.445408" lon="11.481477916666664"><ele>1227.0</ele><time>2026-05-01T09:11:42.102Z</time></trkpt><trkpt lat="46.4455028" lon="11.481672616666666"><ele>1228.3333333333333</ele><time>2026-05-01T09:11:43.097Z</time></trkpt><trkpt lat="46.44560945" lon="11.481873516666667"><ele>1229.6666666666665</ele><time>2026-05-01T09:11:44.084Z</time></trkpt><trkpt lat="46.445690604999236" lon="11.4821144792965"><ele>1231.0</ele><time>2026-05-01T09:11:45.081Z</time></trkpt><trkpt lat="46.44577660107874" lon="11.482362246823419"><ele>1231.0</ele><time>2026-05-01T09:11:46.084Z</time></trkpt><trkpt lat="46.44585843211665" lon="11.482599834986729"><ele>1231.0</ele><time>2026-05-01T09:11:47.084Z</time></trkpt><trkpt lat="46.44593630036628" lon="11.482826316096324"><ele>1231.0</ele><time>2026-05-01T09:11:48.102Z</time></trkpt><trkpt lat="46.446009046284594" lon="11.483044773175989"><ele>1230.0</ele><time>2026-05-01T09:11:49.081Z</time></trkpt><trkpt lat="46.446071155368045" lon="11.483255877452141"><ele>1229.0</ele><time>2026-05-01T09:11:50.094Z</time></trkpt><trkpt lat="46.446114266943525" lon="11.483458827375179"><ele>1228.0</ele><time>2026-05-01T09:11:51.102Z</time></trkpt><trkpt lat="46.44612990431235" lon="11.483653345752595"><ele>1227.0</ele><time>2026-05-01T09:11:52.08Z</time></trkpt><trkpt lat="46.44612616298798" lon="11.483840532835812"><ele>1227.0</ele><time>2026-05-01T09:11:53.078Z</time></trkpt><trkpt lat="46.44611236050597" lon="11.48402255"><ele>1227.0</ele><time>2026-05-01T09:11:54.079Z</time></trkpt><trkpt lat="46.44610268999371" lon="11.484165396881368"><ele>1227.0</ele><time>2026-05-01T09:11:55.085Z</time></trkpt><trkpt lat="46.446061366624875" lon="11.484281657539704"><ele>1227.0</ele><time>2026-05-01T09:11:56.079Z</time></trkpt><trkpt lat="46.44599886938975" lon="11.484346376603659"><ele>1227.0</ele><time>2026-05-01T09:11:57.101Z</time></trkpt><trkpt lat="46.44591471666666" lon="11.484393699999998"><ele>1227.0</ele><time>2026-05-01T09:11:58.08Z</time></trkpt><trkpt lat="46.445818083333336" lon="11.484339649999999"><ele>1227.0</ele><time>2026-05-01T09:11:59.092Z</time></trkpt><trkpt lat="46.445726216666664" lon="11.484232299999999"><ele>1227.0</ele><time>2026-05-01T09:12:00.102Z</time></trkpt><trkpt lat="46.44564163333333" lon="11.484096216666668"><ele>1227.0</ele><time>2026-05-01T09:12:01.08Z</time></trkpt><trkpt lat="46.44555548333332" lon="11.483944083333332"><ele>1224.0</ele><time>2026-05-01T09:12:02.08Z</time></trkpt><trkpt lat="46.44545358333333" lon="11.4837836"><ele>1221.0</ele><time>2026-05-01T09:12:03.081Z</time></trkpt><trkpt lat="46.4453404" lon="11.483617916666667"><ele>1218.0</ele><time>2026-05-01T09:12:04.102Z</time></trkpt><trkpt lat="46.44522229999999" lon="11.483466616666664"><ele>1218.0</ele><time>2026-05-01T09:12:05.08Z</time></trkpt><trkpt lat="46.44509358333333" lon="11.483340533333333"><ele>1218.0</ele><time>2026-05-01T09:12:06.103Z</time></trkpt><trkpt lat="46.44495424391786" lon="11.483198739410794"><ele>1218.0</ele><time>2026-05-01T09:12:07.08Z</time></trkpt><trkpt lat="46.44478519451249" lon="11.48311587165212"><ele>1216.3333333333333</ele><time>2026-05-01T09:12:08.089Z</time></trkpt><trkpt lat="46.44461671031533" lon="11.483035504086278"><ele>1214.6666666666665</ele><time>2026-05-01T09:12:09.122Z</time></trkpt><trkpt lat="46.444444633333326" lon="11.482952716666668"><ele>1213.0</ele><time>2026-05-01T09:12:10.083Z</time></trkpt><trkpt lat="46.444296973803496" lon="11.482804333611222"><ele>1213.0</ele><time>2026-05-01T09:12:11.112Z</time></trkpt><trkpt lat="46.444140244482554" lon="11.482668478483179"><ele>1213.0</ele><time>2026-05-01T09:12:12.081Z</time></trkpt><trkpt lat="46.44397108891519" lon="11.482535922154245"><ele>1213.0</ele><time>2026-05-01T09:12:13.081Z</time></trkpt><trkpt lat="46.443777583333336" lon="11.482444899999999"><ele>1217.6666666666665</ele><time>2026-05-01T09:12:14.08Z</time></trkpt><trkpt lat="46.44358411666667" lon="11.482321416666665"><ele>1222.3333333333333</ele><time>2026-05-01T09:12:15.102Z</time></trkpt><trkpt lat="46.443388333333324" lon="11.482205583333334"><ele>1227.0</ele><time>2026-05-01T09:12:16.081Z</time></trkpt><trkpt lat="46.44319805" lon="11.482100700000002"><ele>1217.6666666666667</ele><time>2026-05-01T09:12:17.096Z</time></trkpt><trkpt lat="46.44304133199184" lon="11.4819695903508"><ele>1208.3333333333335</ele><time>2026-05-01T09:12:18.093Z</time></trkpt><trkpt lat="46.44289789248922" lon="11.481878055067806"><ele>1199.0</ele><time>2026-05-01T09:12:19.082Z</time></trkpt><trkpt lat="46.4427497186693" lon="11.481816617066817"><ele>1199.0</ele><time>2026-05-01T09:12:20.081Z</time></trkpt><trkpt lat="46.44260396396423" lon="11.48180778576707"><ele>1199.0</ele><time>2026-05-01T09:12:21.102Z</time></trkpt><trkpt lat="46.442464386536535" lon="11.481858852771126"><ele>1199.0</ele><time>2026-05-01T09:12:22.079Z</time></trkpt><trkpt lat="46.442350033227285" lon="11.481949713023987"><ele>1199.0</ele><time>2026-05-01T09:12:23.079Z</time></trkpt><trkpt lat="46.44226502035574" lon="11.482043355367303"><ele>1203.6666666666667</ele><time>2026-05-01T09:12:24.102Z</time></trkpt><trkpt lat="46.44219736963606" lon="11.482111774110875"><ele>1208.3333333333335</ele><time>2026-05-01T09:12:25.083Z</time></trkpt><trkpt lat="46.4421173" lon="11.482128316666667"><ele>1213.0</ele><time>2026-05-01T09:12:26.089Z</time></trkpt><trkpt lat="46.442054033333335" lon="11.482066916666668"><ele>1217.6666666666667</ele><time>2026-05-01T09:12:27.091Z</time></trkpt><trkpt lat="46.442018350000005" lon="11.481967483333335"><ele>1222.3333333333333</ele><time>2026-05-01T09:12:28.079Z</time></trkpt><trkpt lat="46.442008050000005" lon="11.481834716666667"><ele>1227.0</ele><time>2026-05-01T09:12:29.083Z</time></trkpt><trkpt lat="46.44200743333334" lon="11.4816691"><ele>1228.25</ele><time>2026-05-01T09:12:30.103Z</time></trkpt><trkpt lat="46.44200308333334" lon="11.481484400000001"><ele>1229.5</ele><time>2026-05-01T09:12:31.085Z</time></trkpt><trkpt lat="46.4419905" lon="11.481296683333335"><ele>1230.75</ele><time>2026-05-01T09:12:32.091Z</time></trkpt><trkpt lat="46.44198065751467" lon="11.48112304241529"><ele>1232.0</ele><time>2026-05-01T09:12:33.081Z</time></trkpt><trkpt lat="46.44193361027198" lon="11.480945766431283"><ele>1226.6666666666667</ele><time>2026-05-01T09:12:34.081Z</time></trkpt><trkpt lat="46.441832398791824" lon="11.480790283078486"><ele>1221.3333333333333</ele><time>2026-05-01T09:12:35.088Z</time></trkpt><trkpt lat="46.44170927301969" lon="11.480649268631744"><ele>1216.0</ele><time>2026-05-01T09:12:36.079Z</time></trkpt><trkpt lat="46.441568067588115" lon="11.480491854158126"><ele>1206.3333333333333</ele><time>2026-05-01T09:12:37.083Z</time></trkpt><trkpt lat="46.44140818129164" lon="11.480336996332573"><ele>1196.6666666666667</ele><time>2026-05-01T09:12:38.084Z</time></trkpt><trkpt lat="46.441251854423385" lon="11.48020204500854"><ele>1187.0</ele><time>2026-05-01T09:12:39.102Z</time></trkpt><trkpt lat="46.44110606596188" lon="11.480076344438514"><ele>1187.0</ele><time>2026-05-01T09:12:40.081Z</time></trkpt><trkpt lat="46.44096735992394" lon="11.479958012343046"><ele>1187.0</ele><time>2026-05-01T09:12:41.084Z</time></trkpt><trkpt lat="46.44080795305288" lon="11.479862589879176"><ele>1187.0</ele><time>2026-05-01T09:12:42.102Z</time></trkpt><trkpt lat="46.44064754907663" lon="11.479860576479336"><ele>1187.0</ele><time>2026-05-01T09:12:43.08Z</time></trkpt><trkpt lat="46.44049254636289" lon="11.479939363763629"><ele>1187.0</ele><time>2026-05-01T09:12:44.088Z</time></trkpt><trkpt lat="46.44036018303024" lon="11.480077043267004"><ele>1187.0</ele><time>2026-05-01T09:12:45.101Z</time></trkpt><trkpt lat="46.44024787895331" lon="11.480213763952877"><ele>1190.4</ele><time>2026-05-01T09:12:46.083Z</time></trkpt><trkpt lat="46.44014266533632" lon="11.480313512321247"><ele>1193.8000000000002</ele><time>2026-05-01T09:12:47.08Z</time></trkpt><trkpt lat="46.440012124039725" lon="11.480383318988787"><ele>1197.2</ele><time>2026-05-01T09:12:48.103Z</time></trkpt><trkpt lat="46.439915393855074" lon="11.48047549906661"><ele>1200.6000000000001</ele><time>2026-05-01T09:12:49.081Z</time></trkpt><trkpt lat="46.439862087482666" lon="11.480525090020635"><ele>1204.0</ele><time>2026-05-01T09:12:50.102Z</time></trkpt><trkpt lat="46.43979541666666" lon="11.480555566666666"><ele>1204.0</ele><time>2026-05-01T09:12:51.103Z</time></trkpt><trkpt lat="46.439741983333334" lon="11.480494166666665"><ele>1204.0</ele><time>2026-05-01T09:12:52.08Z</time></trkpt><trkpt lat="46.4397045" lon="11.480394883333334"><ele>1204.0</ele><time>2026-05-01T09:12:53.09Z</time></trkpt><trkpt lat="46.43968063333334" lon="11.480260766666667"><ele>1204.0</ele><time>2026-05-01T09:12:54.102Z</time></trkpt><trkpt lat="46.43967203333334" lon="11.480128183333333"><ele>1204.0</ele><time>2026-05-01T09:12:55.083Z</time></trkpt><trkpt lat="46.43967726666666" lon="11.48001795"><ele>1204.0</ele><time>2026-05-01T09:12:56.089Z</time></trkpt><trkpt lat="46.439687033333335" lon="11.479913849999999"><ele>1204.0</ele><time>2026-05-01T09:12:57.103Z</time></trkpt><trkpt lat="46.43968961666666" lon="11.479807899999997"><ele>1204.0</ele><time>2026-05-01T09:12:58.083Z</time></trkpt><trkpt lat="46.439682766666664" lon="11.479691583333333"><ele>1204.0</ele><time>2026-05-01T09:12:59.096Z</time></trkpt><trkpt lat="46.43967063333333" lon="11.479591366666666"><ele>1204.0</ele><time>2026-05-01T09:13:00.103Z</time></trkpt><trkpt lat="46.43965208333334" lon="11.479497216666667"><ele>1204.0</ele><time>2026-05-01T09:13:02.084Z</time></trkpt><trkpt lat="46.43966363333334" lon="11.479658766666667"><ele>1204.0</ele><time>2026-05-01T09:13:11.083Z</time></trkpt><trkpt lat="46.43962808333334" lon="11.479775333333336"><ele>1204.0</ele><time>2026-05-01T09:13:13.079Z</time></trkpt><trkpt lat="46.4395301" lon="11.479738349999998"><ele>1204.0</ele><time>2026-05-01T09:13:15.081Z</time></trkpt><trkpt lat="46.43943640635734" lon="11.479608395503428"><ele>1204.0</ele><time>2026-05-01T09:13:17.084Z</time></trkpt><trkpt lat="46.439365653998195" lon="11.479534556713794"><ele>1204.0</ele><time>2026-05-01T09:13:18.103Z</time></trkpt><trkpt lat="46.43926191998575" lon="11.479493407383252"><ele>1204.0</ele><time>2026-05-01T09:13:19.081Z</time></trkpt><trkpt lat="46.439145558362945" lon="11.479507568595647"><ele>1204.0</ele><time>2026-05-01T09:13:20.089Z</time></trkpt><trkpt lat="46.43901768202094" lon="11.479547560842922"><ele>1204.0</ele><time>2026-05-01T09:13:21.102Z</time></trkpt><trkpt lat="46.43887410764923" lon="11.479623204724275"><ele>1204.0</ele><time>2026-05-01T09:13:22.084Z</time></trkpt><trkpt lat="46.438712955224126" lon="11.479747744412107"><ele>1200.6666666666665</ele><time>2026-05-01T09:13:23.081Z</time></trkpt><trkpt lat="46.43856342104126" lon="11.479917942416446"><ele>1197.3333333333333</ele><time>2026-05-01T09:13:24.102Z</time></trkpt><trkpt lat="46.43842063393958" lon="11.480104458903611"><ele>1194.0</ele><time>2026-05-01T09:13:25.08Z</time></trkpt><trkpt lat="46.438283431629436" lon="11.480301337889397"><ele>1194.3333333333333</ele><time>2026-05-01T09:13:26.08Z</time></trkpt><trkpt lat="46.43814753001318" lon="11.48049856234022"><ele>1194.6666666666665</ele><time>2026-05-01T09:13:27.103Z</time></trkpt><trkpt lat="46.43801576695981" lon="11.480687737004315"><ele>1195.0</ele><time>2026-05-01T09:13:28.08Z</time></trkpt><trkpt lat="46.43787950403868" lon="11.480864313856038"><ele>1195.0</ele><time>2026-05-01T09:13:29.083Z</time></trkpt><trkpt lat="46.43773812078711" lon="11.481023258128875"><ele>1195.0</ele><time>2026-05-01T09:13:30.104Z</time></trkpt><trkpt lat="46.43759447075545" lon="11.48117591762543"><ele>1195.0</ele><time>2026-05-01T09:13:31.084Z</time></trkpt><trkpt lat="46.43747171820563" lon="11.481332446205768"><ele>1194.75</ele><time>2026-05-01T09:13:32.084Z</time></trkpt><trkpt lat="46.43735625326382" lon="11.481472234857744"><ele>1194.5</ele><time>2026-05-01T09:13:33.081Z</time></trkpt><trkpt lat="46.437238230760556" lon="11.481603085509935"><ele>1194.25</ele><time>2026-05-01T09:13:34.086Z</time></trkpt><trkpt lat="46.43714197827634" lon="11.481755626631168"><ele>1194.0</ele><time>2026-05-01T09:13:35.081Z</time></trkpt><trkpt lat="46.43708810183265" lon="11.481905814983849"><ele>1194.0</ele><time>2026-05-01T09:13:36.104Z</time></trkpt><trkpt lat="46.43700419602615" lon="11.48200562277943"><ele>1194.0</ele><time>2026-05-01T09:13:37.095Z</time></trkpt><trkpt lat="46.43689073584821" lon="11.482063087706464"><ele>1194.0</ele><time>2026-05-01T09:13:38.084Z</time></trkpt><trkpt lat="46.43675910604129" lon="11.482087349860253"><ele>1194.0</ele><time>2026-05-01T09:13:39.102Z</time></trkpt><trkpt lat="46.43660696977499" lon="11.482109252253188"><ele>1196.6666666666667</ele><time>2026-05-01T09:13:40.102Z</time></trkpt><trkpt lat="46.43647311533467" lon="11.482238138170379"><ele>1199.3333333333335</ele><time>2026-05-01T09:13:41.08Z</time></trkpt><trkpt lat="46.436349141785215" lon="11.482371641341222"><ele>1202.0</ele><time>2026-05-01T09:13:42.102Z</time></trkpt><trkpt lat="46.43622416924044" lon="11.482495947369442"><ele>1202.0</ele><time>2026-05-01T09:13:43.081Z</time></trkpt><trkpt lat="46.43611680212205" lon="11.48262332513009"><ele>1202.0</ele><time>2026-05-01T09:13:44.103Z</time></trkpt><trkpt lat="46.436024333333336" lon="11.48275753333333"><ele>1202.0</ele><time>2026-05-01T09:13:45.091Z</time></trkpt><trkpt lat="46.43589270000001" lon="11.482818283333332"><ele>1202.0</ele><time>2026-05-01T09:13:46.082Z</time></trkpt><trkpt lat="46.43574148333334" lon="11.4828353"><ele>1202.0</ele><time>2026-05-01T09:13:47.08Z</time></trkpt><trkpt lat="46.43556588333333" lon="11.482823283333333"><ele>1202.0</ele><time>2026-05-01T09:13:48.082Z</time></trkpt><trkpt lat="46.43537185" lon="11.482816400000003"><ele>1202.0</ele><time>2026-05-01T09:13:49.095Z</time></trkpt><trkpt lat="46.43517319999999" lon="11.482842383333333"><ele>1204.6666666666667</ele><time>2026-05-01T09:13:50.082Z</time></trkpt><trkpt lat="46.43499438333333" lon="11.482884883333334"><ele>1207.3333333333333</ele><time>2026-05-01T09:13:51.082Z</time></trkpt><trkpt lat="46.43483786666667" lon="11.48295295"><ele>1210.0</ele><time>2026-05-01T09:13:52.081Z</time></trkpt><trkpt lat="46.43470609999999" lon="11.483058416666665"><ele>1202.25</ele><time>2026-05-01T09:13:53.09Z</time></trkpt><trkpt lat="46.43459575" lon="11.483202383333333"><ele>1194.5</ele><time>2026-05-01T09:13:54.095Z</time></trkpt><trkpt lat="46.43450851666667" lon="11.483378116666666"><ele>1186.75</ele><time>2026-05-01T09:13:55.081Z</time></trkpt><trkpt lat="46.43442732973827" lon="11.483538141655464"><ele>1179.0</ele><time>2026-05-01T09:13:56.083Z</time></trkpt><trkpt lat="46.43439218622539" lon="11.48372787584197"><ele>1184.6000000000001</ele><time>2026-05-01T09:13:57.104Z</time></trkpt><trkpt lat="46.434391440737656" lon="11.483905257302213"><ele>1190.2</ele><time>2026-05-01T09:13:58.081Z</time></trkpt><trkpt lat="46.434391588502216" lon="11.484063366116485"><ele>1195.8000000000002</ele><time>2026-05-01T09:13:59.082Z</time></trkpt><trkpt lat="46.434385400000004" lon="11.484203966666666"><ele>1201.4</ele><time>2026-05-01T09:14:00.104Z</time></trkpt><trkpt lat="46.43430935" lon="11.484310266666666"><ele>1207.0</ele><time>2026-05-01T09:14:01.083Z</time></trkpt><trkpt lat="46.43420306666667" lon="11.484366433333332"><ele>1207.0</ele><time>2026-05-01T09:14:02.081Z</time></trkpt><trkpt lat="46.4340804" lon="11.484358999999998"><ele>1207.0</ele><time>2026-05-01T09:14:03.089Z</time></trkpt><trkpt lat="46.43395228333334" lon="11.484287533333333"><ele>1207.0</ele><time>2026-05-01T09:14:04.082Z</time></trkpt><trkpt lat="46.433818" lon="11.484182966666667"><ele>1207.0</ele><time>2026-05-01T09:14:05.084Z</time></trkpt><trkpt lat="46.43367491666667" lon="11.484093050000002"><ele>1205.6666666666665</ele><time>2026-05-01T09:14:06.104Z</time></trkpt><trkpt lat="46.433526666666666" lon="11.484032066666668"><ele>1204.3333333333333</ele><time>2026-05-01T09:14:07.093Z</time></trkpt><trkpt lat="46.43338103333334" lon="11.483999950000001"><ele>1203.0</ele><time>2026-05-01T09:14:08.084Z</time></trkpt><trkpt lat="46.433226116666674" lon="11.483993466666668"><ele>1203.0</ele><time>2026-05-01T09:14:09.101Z</time></trkpt><trkpt lat="46.43305291666667" lon="11.483993683333331"><ele>1203.0</ele><time>2026-05-01T09:14:10.082Z</time></trkpt><trkpt lat="46.432866" lon="11.483969916666666"><ele>1203.0</ele><time>2026-05-01T09:14:11.083Z</time></trkpt><trkpt lat="46.43268565" lon="11.483917100000001"><ele>1202.0</ele><time>2026-05-01T09:14:12.08Z</time></trkpt><trkpt lat="46.43251411666667" lon="11.483861083333332"><ele>1201.0</ele><time>2026-05-01T09:14:13.08Z</time></trkpt><trkpt lat="46.43234041666666" lon="11.483843449999998"><ele>1200.0</ele><time>2026-05-01T09:14:14.082Z</time></trkpt><trkpt lat="46.43217971666666" lon="11.483879466666666"><ele>1193.6666666666667</ele><time>2026-05-01T09:14:15.104Z</time></trkpt><trkpt lat="46.43202878333333" lon="11.483923450000002"><ele>1187.3333333333335</ele><time>2026-05-01T09:14:16.09Z</time></trkpt><trkpt lat="46.4318804969553" lon="11.483984241369878"><ele>1181.0</ele><time>2026-05-01T09:14:17.083Z</time></trkpt><trkpt lat="46.43172524020724" lon="11.483932419331111"><ele>1181.0</ele><time>2026-05-01T09:14:18.104Z</time></trkpt><trkpt lat="46.43159286666667" lon="11.483840200000001"><ele>1181.0</ele><time>2026-05-01T09:14:19.084Z</time></trkpt><trkpt lat="46.43146481666666" lon="11.483783516666664"><ele>1181.0</ele><time>2026-05-01T09:14:20.081Z</time></trkpt><trkpt lat="46.43133438333333" lon="11.483789016666666"><ele>1181.0</ele><time>2026-05-01T09:14:21.083Z</time></trkpt><trkpt lat="46.431214983333334" lon="11.483851583333333"><ele>1178.75</ele><time>2026-05-01T09:14:22.081Z</time></trkpt><trkpt lat="46.431122233333326" lon="11.483967333333332"><ele>1176.5</ele><time>2026-05-01T09:14:23.092Z</time></trkpt><trkpt lat="46.43104725" lon="11.484145633333332"><ele>1174.25</ele><time>2026-05-01T09:14:24.082Z</time></trkpt><trkpt lat="46.43097223333333" lon="11.484366050000002"><ele>1172.0</ele><time>2026-05-01T09:14:25.092Z</time></trkpt><trkpt lat="46.430889300000004" lon="11.484607483333331"><ele>1172.0</ele><time>2026-05-01T09:14:26.103Z</time></trkpt><trkpt lat="46.430801433333336" lon="11.4848672"><ele>1172.0</ele><time>2026-05-01T09:14:27.081Z</time></trkpt><trkpt lat="46.43069336102063" lon="11.485117011018726"><ele>1172.0</ele><time>2026-05-01T09:14:28.093Z</time></trkpt><trkpt lat="46.430596400629135" lon="11.48536359772521"><ele>1178.3333333333335</ele><time>2026-05-01T09:14:29.092Z</time></trkpt><trkpt lat="46.430507160306526" lon="11.485604916105018"><ele>1184.6666666666667</ele><time>2026-05-01T09:14:30.082Z</time></trkpt><trkpt lat="46.43044833333333" lon="11.485845283333333"><ele>1191.0</ele><time>2026-05-01T09:14:31.082Z</time></trkpt><trkpt lat="46.43039105" lon="11.486073066666666"><ele>1176.3333333333333</ele><time>2026-05-01T09:14:32.094Z</time></trkpt><trkpt lat="46.43034253333334" lon="11.486295250000001"><ele>1161.6666666666665</ele><time>2026-05-01T09:14:33.08Z</time></trkpt><trkpt lat="46.430302466666674" lon="11.486524883333333"><ele>1147.0</ele><time>2026-05-01T09:14:34.082Z</time></trkpt><trkpt lat="46.4302742" lon="11.486776566666668"><ele>1147.0</ele><time>2026-05-01T09:14:35.096Z</time></trkpt><trkpt lat="46.430253316666665" lon="11.487035800000001"><ele>1147.0</ele><time>2026-05-01T09:14:36.081Z</time></trkpt><trkpt lat="46.430232233333335" lon="11.4872987"><ele>1147.0</ele><time>2026-05-01T09:14:37.092Z</time></trkpt><trkpt lat="46.4302087" lon="11.487568483333334"><ele>1146.6666666666665</ele><time>2026-05-01T09:14:38.098Z</time></trkpt><trkpt lat="46.430192616666666" lon="11.487834433333333"><ele>1146.3333333333333</ele><time>2026-05-01T09:14:39.08Z</time></trkpt><trkpt lat="46.430180566666664" lon="11.488090866666669"><ele>1146.0</ele><time>2026-05-01T09:14:40.082Z</time></trkpt><trkpt lat="46.43015611666666" lon="11.488336699999998"><ele>1146.0</ele><time>2026-05-01T09:14:41.09Z</time></trkpt><trkpt lat="46.43010903333334" lon="11.488555499999999"><ele>1146.0</ele><time>2026-05-01T09:14:42.082Z</time></trkpt><trkpt lat="46.43004125" lon="11.488748316666667"><ele>1146.0</ele><time>2026-05-01T09:14:43.084Z</time></trkpt><trkpt lat="46.429982466666665" lon="11.48893535"><ele>1146.0</ele><time>2026-05-01T09:14:44.099Z</time></trkpt><trkpt lat="46.42994998333334" lon="11.489132166666666"><ele>1146.25</ele><time>2026-05-01T09:14:45.081Z</time></trkpt><trkpt lat="46.42991633333333" lon="11.489326200000002"><ele>1146.5</ele><time>2026-05-01T09:14:46.082Z</time></trkpt><trkpt lat="46.42985791666667" lon="11.489501849999998"><ele>1146.75</ele><time>2026-05-01T09:14:47.09Z</time></trkpt><trkpt lat="46.429780099999995" lon="11.489661683333335"><ele>1147.0</ele><time>2026-05-01T09:14:48.081Z</time></trkpt><trkpt lat="46.429706249999995" lon="11.489818983333333"><ele>1149.0</ele><time>2026-05-01T09:14:49.083Z</time></trkpt><trkpt lat="46.42965661666667" lon="11.48999265"><ele>1151.0</ele><time>2026-05-01T09:14:50.089Z</time></trkpt><trkpt lat="46.42964008333334" lon="11.490178233333332"><ele>1153.0</ele><time>2026-05-01T09:14:51.081Z</time></trkpt><trkpt lat="46.429657250000005" lon="11.490365149999997"><ele>1155.0</ele><time>2026-05-01T09:14:52.092Z</time></trkpt><trkpt lat="46.42969135" lon="11.490546250000001"><ele>1155.75</ele><time>2026-05-01T09:14:53.093Z</time></trkpt><trkpt lat="46.42971755" lon="11.490724550000001"><ele>1156.5</ele><time>2026-05-01T09:14:54.083Z</time></trkpt><trkpt lat="46.42971755" lon="11.490901033333333"><ele>1157.25</ele><time>2026-05-01T09:14:55.081Z</time></trkpt><trkpt lat="46.42968436666666" lon="11.491070233333335"><ele>1158.0</ele><time>2026-05-01T09:14:56.096Z</time></trkpt><trkpt lat="46.429613183333345" lon="11.491206250000001"><ele>1149.6</ele><time>2026-05-01T09:14:57.085Z</time></trkpt><trkpt lat="46.42952428333333" lon="11.491296266666666"><ele>1141.1999999999998</ele><time>2026-05-01T09:14:58.082Z</time></trkpt><trkpt lat="46.4294214211455" lon="11.491312830118348"><ele>1132.8</ele><time>2026-05-01T09:14:59.091Z</time></trkpt><trkpt lat="46.4293178368608" lon="11.491378341251679"><ele>1124.3999999999999</ele><time>2026-05-01T09:15:00.084Z</time></trkpt><trkpt lat="46.42923526114787" lon="11.491484814044597"><ele>1116.0</ele><time>2026-05-01T09:15:01.084Z</time></trkpt><trkpt lat="46.429182988627566" lon="11.491635296060004"><ele>1116.0</ele><time>2026-05-01T09:15:02.094Z</time></trkpt><trkpt lat="46.42916532468241" lon="11.491833639441925"><ele>1116.0</ele><time>2026-05-01T09:15:03.082Z</time></trkpt><trkpt lat="46.429159128837995" lon="11.492056237707398"><ele>1116.0</ele><time>2026-05-01T09:15:04.083Z</time></trkpt><trkpt lat="46.42915775143014" lon="11.49230551955205"><ele>1116.0</ele><time>2026-05-01T09:15:05.09Z</time></trkpt><trkpt lat="46.42915937980262" lon="11.492573196761606"><ele>1116.0</ele><time>2026-05-01T09:15:06.083Z</time></trkpt><trkpt lat="46.42916099270874" lon="11.492838331627365"><ele>1116.0</ele><time>2026-05-01T09:15:07.085Z</time></trkpt><trkpt lat="46.429163462518254" lon="11.493089657601201"><ele>1116.0</ele><time>2026-05-01T09:15:08.097Z</time></trkpt><trkpt lat="46.429169339828945" lon="11.493338329234824"><ele>1116.0</ele><time>2026-05-01T09:15:09.083Z</time></trkpt><trkpt lat="46.429202192233205" lon="11.493577474476872"><ele>1116.0</ele><time>2026-05-01T09:15:10.084Z</time></trkpt><trkpt lat="46.42925771007676" lon="11.493796945398298"><ele>1112.5</ele><time>2026-05-01T09:15:11.101Z</time></trkpt><trkpt lat="46.42932029481362" lon="11.493999411899111"><ele>1109.0</ele><time>2026-05-01T09:15:12.081Z</time></trkpt><trkpt lat="46.4293811" lon="11.4941827"><ele>1105.5</ele><time>2026-05-01T09:15:13.082Z</time></trkpt><trkpt lat="46.42938903333334" lon="11.494375633333334"><ele>1102.0</ele><time>2026-05-01T09:15:14.091Z</time></trkpt><trkpt lat="46.42933816386183" lon="11.494562398305675"><ele>1102.0</ele><time>2026-05-01T09:15:15.083Z</time></trkpt><trkpt lat="46.42927099079332" lon="11.494729009353518"><ele>1102.0</ele><time>2026-05-01T09:15:16.103Z</time></trkpt><trkpt lat="46.42921124761355" lon="11.494891516111412"><ele>1102.0</ele><time>2026-05-01T09:15:17.091Z</time></trkpt><trkpt lat="46.429170485711175" lon="11.495064437013882"><ele>1102.0</ele><time>2026-05-01T09:15:18.083Z</time></trkpt><trkpt lat="46.429160640691784" lon="11.495256558200676"><ele>1099.75</ele><time>2026-05-01T09:15:19.084Z</time></trkpt><trkpt lat="46.42917815393916" lon="11.49544762249943"><ele>1097.5</ele><time>2026-05-01T09:15:20.098Z</time></trkpt><trkpt lat="46.42923119646148" lon="11.495610731188302"><ele>1095.25</ele><time>2026-05-01T09:15:21.082Z</time></trkpt><trkpt lat="46.42928989162344" lon="11.495753408273558"><ele>1093.0</ele><time>2026-05-01T09:15:22.084Z</time></trkpt><trkpt lat="46.429352450649176" lon="11.495904380514062"><ele>1093.0</ele><time>2026-05-01T09:15:23.101Z</time></trkpt><trkpt lat="46.42941047031936" lon="11.496063333051431"><ele>1093.0</ele><time>2026-05-01T09:15:24.085Z</time></trkpt><trkpt lat="46.42946023051969" lon="11.496234189279319"><ele>1093.0</ele><time>2026-05-01T09:15:25.091Z</time></trkpt><trkpt lat="46.429489061986665" lon="11.496409286450794"><ele>1093.0</ele><time>2026-05-01T09:15:26.091Z</time></trkpt><trkpt lat="46.4294787983531" lon="11.496570380638722"><ele>1092.0</ele><time>2026-05-01T09:15:27.085Z</time></trkpt><trkpt lat="46.42943178165474" lon="11.496751108351809"><ele>1091.0</ele><time>2026-05-01T09:15:28.082Z</time></trkpt><trkpt lat="46.4293702960181" lon="11.496957854528825"><ele>1090.0</ele><time>2026-05-01T09:15:29.092Z</time></trkpt><trkpt lat="46.42932605062482" lon="11.49718315123425"><ele>1090.0</ele><time>2026-05-01T09:15:30.109Z</time></trkpt><trkpt lat="46.429300445971535" lon="11.497433681411009"><ele>1090.0</ele><time>2026-05-01T09:15:31.084Z</time></trkpt><trkpt lat="46.42928400457857" lon="11.49767802829865"><ele>1090.0</ele><time>2026-05-01T09:15:32.091Z</time></trkpt><trkpt lat="46.42925673088517" lon="11.497930512722887"><ele>1091.0</ele><time>2026-05-01T09:15:33.084Z</time></trkpt><trkpt lat="46.42922128890565" lon="11.498195990328568"><ele>1092.0</ele><time>2026-05-01T09:15:34.082Z</time></trkpt><trkpt lat="46.42918235082453" lon="11.49847127504473"><ele>1093.0</ele><time>2026-05-01T09:15:35.091Z</time></trkpt><trkpt lat="46.42914806463405" lon="11.498724886110937"><ele>1095.0</ele><time>2026-05-01T09:15:36.082Z</time></trkpt><trkpt lat="46.429122688527656" lon="11.498965840444392"><ele>1097.0</ele><time>2026-05-01T09:15:37.082Z</time></trkpt><trkpt lat="46.42910730246062" lon="11.499182767903076"><ele>1099.0</ele><time>2026-05-01T09:15:38.094Z</time></trkpt><trkpt lat="46.42911437548047" lon="11.499407339070363"><ele>1098.6666666666665</ele><time>2026-05-01T09:15:39.083Z</time></trkpt><trkpt lat="46.42915010626459" lon="11.499630090670149"><ele>1098.3333333333333</ele><time>2026-05-01T09:15:40.093Z</time></trkpt><trkpt lat="46.42918063786421" lon="11.499855449483645"><ele>1098.0</ele><time>2026-05-01T09:15:41.09Z</time></trkpt><trkpt lat="46.42918174723244" lon="11.500068569178113"><ele>1098.0</ele><time>2026-05-01T09:15:42.081Z</time></trkpt><trkpt lat="46.42915349940237" lon="11.500289421773422"><ele>1098.0</ele><time>2026-05-01T09:15:43.085Z</time></trkpt><trkpt lat="46.42912107206925" lon="11.500510844965184"><ele>1098.0</ele><time>2026-05-01T09:15:44.091Z</time></trkpt><trkpt lat="46.429088844770924" lon="11.500717032508833"><ele>1099.25</ele><time>2026-05-01T09:15:45.083Z</time></trkpt><trkpt lat="46.429059396736825" lon="11.500908531158458"><ele>1100.5</ele><time>2026-05-01T09:15:46.084Z</time></trkpt><trkpt lat="46.42902959141331" lon="11.501103863216676"><ele>1101.75</ele><time>2026-05-01T09:15:47.091Z</time></trkpt><trkpt lat="46.42900079137662" lon="11.50129260744134"><ele>1103.0</ele><time>2026-05-01T09:15:48.083Z</time></trkpt><trkpt lat="46.42897379108862" lon="11.501469556601435"><ele>1104.75</ele><time>2026-05-01T09:15:49.087Z</time></trkpt><trkpt lat="46.428949748334446" lon="11.501634037066006"><ele>1106.5</ele><time>2026-05-01T09:15:50.092Z</time></trkpt><trkpt lat="46.42893158861249" lon="11.501820255109061"><ele>1108.25</ele><time>2026-05-01T09:15:51.085Z</time></trkpt><trkpt lat="46.428921875481684" lon="11.50200615748373"><ele>1110.0</ele><time>2026-05-01T09:15:52.085Z</time></trkpt><trkpt lat="46.42891468958081" lon="11.502213343218303"><ele>1111.0</ele><time>2026-05-01T09:15:53.092Z</time></trkpt><trkpt lat="46.428925700027264" lon="11.502440467596958"><ele>1112.0</ele><time>2026-05-01T09:15:54.083Z</time></trkpt><trkpt lat="46.4289575460527" lon="11.502662355223492"><ele>1113.0</ele><time>2026-05-01T09:15:55.082Z</time></trkpt><trkpt lat="46.42901017891889" lon="11.502888385246305"><ele>1112.0</ele><time>2026-05-01T09:15:56.091Z</time></trkpt><trkpt lat="46.42907284376497" lon="11.50311399925024"><ele>1111.0</ele><time>2026-05-01T09:15:57.091Z</time></trkpt><trkpt lat="46.429098260122764" lon="11.503343083333334"><ele>1110.0</ele><time>2026-05-01T09:15:58.083Z</time></trkpt><trkpt lat="46.42908223777614" lon="11.503597333066717"><ele>1111.3333333333333</ele><time>2026-05-01T09:15:59.091Z</time></trkpt><trkpt lat="46.42906274947355" lon="11.503877035020757"><ele>1112.6666666666665</ele><time>2026-05-01T09:16:00.082Z</time></trkpt><trkpt lat="46.42904852406281" lon="11.504179046341653"><ele>1114.0</ele><time>2026-05-01T09:16:01.084Z</time></trkpt><trkpt lat="46.429042010506876" lon="11.504511130103033"><ele>1118.5</ele><time>2026-05-01T09:16:02.102Z</time></trkpt><trkpt lat="46.42905157595521" lon="11.504866618193022"><ele>1123.0</ele><time>2026-05-01T09:16:03.087Z</time></trkpt><trkpt lat="46.42906686684196" lon="11.505226043479373"><ele>1122.5</ele><time>2026-05-01T09:16:04.083Z</time></trkpt><trkpt lat="46.42907183990129" lon="11.505571821403942"><ele>1122.0</ele><time>2026-05-01T09:16:05.091Z</time></trkpt><trkpt lat="46.429071420014445" lon="11.505897740961721"><ele>1122.0</ele><time>2026-05-01T09:16:06.082Z</time></trkpt><trkpt lat="46.42906885354634" lon="11.50622095410022"><ele>1122.0</ele><time>2026-05-01T09:16:07.084Z</time></trkpt><trkpt lat="46.42905534698107" lon="11.50654272863712"><ele>1122.0</ele><time>2026-05-01T09:16:08.091Z</time></trkpt><trkpt lat="46.42904182534758" lon="11.506861293815815"><ele>1126.5</ele><time>2026-05-01T09:16:09.083Z</time></trkpt><trkpt lat="46.429021547449864" lon="11.507186733325803"><ele>1131.0</ele><time>2026-05-01T09:16:10.083Z</time></trkpt><trkpt lat="46.42899922020729" lon="11.507523253343491"><ele>1131.0</ele><time>2026-05-01T09:16:11.097Z</time></trkpt><trkpt lat="46.42897674657703" lon="11.507861979503696"><ele>1131.0</ele><time>2026-05-01T09:16:12.084Z</time></trkpt><trkpt lat="46.428953308521656" lon="11.508195128889955"><ele>1134.6666666666667</ele><time>2026-05-01T09:16:13.084Z</time></trkpt><trkpt lat="46.42893577395473" lon="11.508516713682981"><ele>1138.3333333333335</ele><time>2026-05-01T09:16:14.098Z</time></trkpt><trkpt lat="46.42893191722826" lon="11.508840352075575"><ele>1142.0</ele><time>2026-05-01T09:16:15.083Z</time></trkpt><trkpt lat="46.42893942678316" lon="11.509154807577195"><ele>1144.6666666666667</ele><time>2026-05-01T09:16:16.084Z</time></trkpt><trkpt lat="46.42895140740563" lon="11.50947522783541"><ele>1147.3333333333333</ele><time>2026-05-01T09:16:17.1Z</time></trkpt><trkpt lat="46.42898158393324" lon="11.509802614897847"><ele>1150.0</ele><time>2026-05-01T09:16:18.084Z</time></trkpt><trkpt lat="46.4290132063749" lon="11.510113569703451"><ele>1150.0</ele><time>2026-05-01T09:16:19.084Z</time></trkpt><trkpt lat="46.42904491413771" lon="11.510397821457486"><ele>1150.0</ele><time>2026-05-01T09:16:20.098Z</time></trkpt><trkpt lat="46.42907477076241" lon="11.510656958131632"><ele>1150.0</ele><time>2026-05-01T09:16:21.084Z</time></trkpt><trkpt lat="46.42911480693554" lon="11.510890341749104"><ele>1150.0</ele><time>2026-05-01T09:16:22.088Z</time></trkpt><trkpt lat="46.429178902888225" lon="11.511101803349858"><ele>1150.0</ele><time>2026-05-01T09:16:23.1Z</time></trkpt><trkpt lat="46.429277420343176" lon="11.511271349515267"><ele>1150.0</ele><time>2026-05-01T09:16:24.088Z</time></trkpt><trkpt lat="46.42936782493067" lon="11.511421551079044"><ele>1150.0</ele><time>2026-05-01T09:16:25.084Z</time></trkpt><trkpt lat="46.42944300061018" lon="11.51156592846679"><ele>1148.6</ele><time>2026-05-01T09:16:26.09Z</time></trkpt><trkpt lat="46.4294889006051" lon="11.511722128451542"><ele>1147.2</ele><time>2026-05-01T09:16:27.087Z</time></trkpt><trkpt lat="46.42950884426716" lon="11.511878858462474"><ele>1145.8</ele><time>2026-05-01T09:16:28.084Z</time></trkpt><trkpt lat="46.42951820888502" lon="11.512026877393264"><ele>1144.4</ele><time>2026-05-01T09:16:29.091Z</time></trkpt><trkpt lat="46.429544003175316" lon="11.512191100907188"><ele>1143.0</ele><time>2026-05-01T09:16:30.083Z</time></trkpt><trkpt lat="46.42961873973895" lon="11.51233661549468"><ele>1147.2</ele><time>2026-05-01T09:16:31.084Z</time></trkpt><trkpt lat="46.42972641743712" lon="11.5124363706081"><ele>1151.4</ele><time>2026-05-01T09:16:32.091Z</time></trkpt><trkpt lat="46.42982914560554" lon="11.512521086729913"><ele>1155.6000000000001</ele><time>2026-05-01T09:16:33.083Z</time></trkpt><trkpt lat="46.42992320946538" lon="11.512594837300895"><ele>1159.8</ele><time>2026-05-01T09:16:34.085Z</time></trkpt><trkpt lat="46.430001890830944" lon="11.512672882834039"><ele>1164.0</ele><time>2026-05-01T09:16:35.091Z</time></trkpt><trkpt lat="46.43007409571317" lon="11.51276148971375"><ele>1164.25</ele><time>2026-05-01T09:16:36.083Z</time></trkpt><trkpt lat="46.43009077808222" lon="11.51294851162798"><ele>1164.5</ele><time>2026-05-01T09:16:38.097Z</time></trkpt><trkpt lat="46.430040025964004" lon="11.51307505799537"><ele>1164.75</ele><time>2026-05-01T09:16:39.082Z</time></trkpt><trkpt lat="46.429969007917755" lon="11.513221195556715"><ele>1165.0</ele><time>2026-05-01T09:16:40.086Z</time></trkpt><trkpt lat="46.42988968570172" lon="11.5133830183729"><ele>1165.0</ele><time>2026-05-01T09:16:41.09Z</time></trkpt><trkpt lat="46.42981546066875" lon="11.513555355372386"><ele>1165.0</ele><time>2026-05-01T09:16:42.088Z</time></trkpt><trkpt lat="46.4297635699879" lon="11.513733476201068"><ele>1165.0</ele><time>2026-05-01T09:16:43.087Z</time></trkpt><trkpt lat="46.4297127993819" lon="11.513921109966745"><ele>1165.0</ele><time>2026-05-01T09:16:44.093Z</time></trkpt><trkpt lat="46.429664636626036" lon="11.514114008761414"><ele>1172.5</ele><time>2026-05-01T09:16:45.081Z</time></trkpt><trkpt lat="46.4296174829663" lon="11.514318535491997"><ele>1180.0</ele><time>2026-05-01T09:16:46.091Z</time></trkpt><trkpt lat="46.429838283333325" lon="11.514684099999998"><ele>1180.0</ele><time>2026-05-01T09:16:47.104Z</time></trkpt><trkpt lat="46.42985889999999" lon="11.51494025"><ele>1180.0</ele><time>2026-05-01T09:16:48.084Z</time></trkpt><trkpt lat="46.4298782" lon="11.515201616666664"><ele>1180.0</ele><time>2026-05-01T09:16:49.082Z</time></trkpt><trkpt lat="46.42989485" lon="11.515451749999999"><ele>1177.75</ele><time>2026-05-01T09:16:50.102Z</time></trkpt><trkpt lat="46.42991761666667" lon="11.515679983333333"><ele>1175.5</ele><time>2026-05-01T09:16:51.085Z</time></trkpt><trkpt lat="46.42995455" lon="11.515885749999999"><ele>1173.25</ele><time>2026-05-01T09:16:52.104Z</time></trkpt><trkpt lat="46.43000048333334" lon="11.516073333333333"><ele>1171.0</ele><time>2026-05-01T09:16:53.096Z</time></trkpt><trkpt lat="46.43005376666666" lon="11.516244416666666"><ele>1169.25</ele><time>2026-05-01T09:16:54.083Z</time></trkpt><trkpt lat="46.430116950000006" lon="11.516404833333334"><ele>1167.5</ele><time>2026-05-01T09:16:55.086Z</time></trkpt><trkpt lat="46.43019081666666" lon="11.516563483333334"><ele>1165.75</ele><time>2026-05-01T09:16:56.084Z</time></trkpt><trkpt lat="46.430262733333336" lon="11.516715900000001"><ele>1164.0</ele><time>2026-05-01T09:16:57.084Z</time></trkpt><trkpt lat="46.4303274" lon="11.516864183333334"><ele>1164.0</ele><time>2026-05-01T09:16:58.091Z</time></trkpt><trkpt lat="46.43039851666668" lon="11.516999366666667"><ele>1164.0</ele><time>2026-05-01T09:16:59.091Z</time></trkpt><trkpt lat="46.430494233333334" lon="11.517114833333334"><ele>1164.0</ele><time>2026-05-01T09:17:00.083Z</time></trkpt><trkpt lat="46.430602416666666" lon="11.5172209"><ele>1164.0</ele><time>2026-05-01T09:17:01.094Z</time></trkpt><trkpt lat="46.43070651666667" lon="11.517330333333332"><ele>1165.25</ele><time>2026-05-01T09:17:02.082Z</time></trkpt><trkpt lat="46.430807083333335" lon="11.517458383333334"><ele>1166.5</ele><time>2026-05-01T09:17:03.081Z</time></trkpt><trkpt lat="46.43090275" lon="11.517606816666666"><ele>1167.75</ele><time>2026-05-01T09:17:04.084Z</time></trkpt><trkpt lat="46.430991049999996" lon="11.517765933333331"><ele>1169.0</ele><time>2026-05-01T09:17:05.083Z</time></trkpt><trkpt lat="46.43107133333333" lon="11.517924866666666"><ele>1169.0</ele><time>2026-05-01T09:17:06.107Z</time></trkpt><trkpt lat="46.43114708333333" lon="11.518079033333334"><ele>1169.0</ele><time>2026-05-01T09:17:07.084Z</time></trkpt><trkpt lat="46.43122018333334" lon="11.518230899999999"><ele>1169.0</ele><time>2026-05-01T09:17:08.097Z</time></trkpt><trkpt lat="46.43129448333334" lon="11.518377316666665"><ele>1169.0</ele><time>2026-05-01T09:17:09.083Z</time></trkpt><trkpt lat="46.431365400000004" lon="11.518513816666667"><ele>1173.0</ele><time>2026-05-01T09:17:10.096Z</time></trkpt><trkpt lat="46.43143034999999" lon="11.518643183333332"><ele>1177.0</ele><time>2026-05-01T09:17:11.091Z</time></trkpt><trkpt lat="46.43148441666667" lon="11.518776466666669"><ele>1181.0</ele><time>2026-05-01T09:17:12.083Z</time></trkpt><trkpt lat="46.43151089999999" lon="11.518917266666666"><ele>1185.0</ele><time>2026-05-01T09:17:13.085Z</time></trkpt><trkpt lat="46.43149566666666" lon="11.519055433333332"><ele>1189.0</ele><time>2026-05-01T09:17:14.104Z</time></trkpt><trkpt lat="46.43143968333333" lon="11.519174133333335"><ele>1189.0</ele><time>2026-05-01T09:17:15.081Z</time></trkpt><trkpt lat="46.43135520000001" lon="11.519248683333336"><ele>1189.0</ele><time>2026-05-01T09:17:16.086Z</time></trkpt><trkpt lat="46.431250633333335" lon="11.519277183333335"><ele>1189.0</ele><time>2026-05-01T09:17:17.091Z</time></trkpt><trkpt lat="46.431144366666665" lon="11.519294749999998"><ele>1189.0</ele><time>2026-05-01T09:17:18.086Z</time></trkpt><trkpt lat="46.43104571666667" lon="11.5193397"><ele>1189.0</ele><time>2026-05-01T09:17:19.096Z</time></trkpt><trkpt lat="46.43096168333333" lon="11.51942155"><ele>1186.8</ele><time>2026-05-01T09:17:20.093Z</time></trkpt><trkpt lat="46.43088948333334" lon="11.519535183333335"><ele>1184.6000000000001</ele><time>2026-05-01T09:17:21.086Z</time></trkpt><trkpt lat="46.43083239999999" lon="11.519665999999999"><ele>1182.4</ele><time>2026-05-01T09:17:22.086Z</time></trkpt><trkpt lat="46.43079083333333" lon="11.519803633333334"><ele>1180.2</ele><time>2026-05-01T09:17:23.092Z</time></trkpt><trkpt lat="46.430772116666674" lon="11.519949216666664"><ele>1178.0</ele><time>2026-05-01T09:17:24.086Z</time></trkpt><trkpt lat="46.430779183333335" lon="11.520095333333332"><ele>1178.0</ele><time>2026-05-01T09:17:25.084Z</time></trkpt><trkpt lat="46.43079420000001" lon="11.52024145"><ele>1178.0</ele><time>2026-05-01T09:17:26.096Z</time></trkpt><trkpt lat="46.430801566666666" lon="11.5203953"><ele>1178.0</ele><time>2026-05-01T09:17:27.085Z</time></trkpt><trkpt lat="46.43079508333334" lon="11.520553933333334"><ele>1178.0</ele><time>2026-05-01T09:17:28.085Z</time></trkpt><trkpt lat="46.4307708" lon="11.520710249999999"><ele>1178.0</ele><time>2026-05-01T09:17:29.091Z</time></trkpt><trkpt lat="46.43072931666667" lon="11.520860716666668"><ele>1178.75</ele><time>2026-05-01T09:17:30.085Z</time></trkpt><trkpt lat="46.43068443333333" lon="11.521014616666665"><ele>1179.5</ele><time>2026-05-01T09:17:31.085Z</time></trkpt><trkpt lat="46.43065105000001" lon="11.521179416666667"><ele>1180.25</ele><time>2026-05-01T09:17:32.091Z</time></trkpt><trkpt lat="46.43063025" lon="11.521354666666666"><ele>1181.0</ele><time>2026-05-01T09:17:33.085Z</time></trkpt><trkpt lat="46.4306167" lon="11.52154031666667"><ele>1181.5</ele><time>2026-05-01T09:17:34.085Z</time></trkpt><trkpt lat="46.43060558333333" lon="11.521738816666668"><ele>1182.0</ele><time>2026-05-01T09:17:35.091Z</time></trkpt><trkpt lat="46.43056864693659" lon="11.521935117033884"><ele>1182.5</ele><time>2026-05-01T09:17:36.083Z</time></trkpt><trkpt lat="46.430548925691895" lon="11.522139614364312"><ele>1183.0</ele><time>2026-05-01T09:17:37.094Z</time></trkpt><trkpt lat="46.430527970299075" lon="11.522344927620818"><ele>1183.25</ele><time>2026-05-01T09:17:38.104Z</time></trkpt><trkpt lat="46.43050612410119" lon="11.52253799476143"><ele>1183.5</ele><time>2026-05-01T09:17:39.083Z</time></trkpt><trkpt lat="46.43047238774206" lon="11.522718358481757"><ele>1183.75</ele><time>2026-05-01T09:17:40.085Z</time></trkpt><trkpt lat="46.43043372252457" lon="11.522900109679385"><ele>1184.0</ele><time>2026-05-01T09:17:41.092Z</time></trkpt><trkpt lat="46.430403060682806" lon="11.523080343547614"><ele>1178.75</ele><time>2026-05-01T09:17:42.085Z</time></trkpt><trkpt lat="46.43038672354405" lon="11.523272812283427"><ele>1173.5</ele><time>2026-05-01T09:17:43.092Z</time></trkpt><trkpt lat="46.430381410831544" lon="11.523465698386753"><ele>1168.25</ele><time>2026-05-01T09:17:44.091Z</time></trkpt><trkpt lat="46.43037219071929" lon="11.52365236989428"><ele>1163.0</ele><time>2026-05-01T09:17:45.082Z</time></trkpt><trkpt lat="46.4303539941496" lon="11.523825987939118"><ele>1163.0</ele><time>2026-05-01T09:17:46.085Z</time></trkpt><trkpt lat="46.430332613424696" lon="11.52398904571501"><ele>1163.0</ele><time>2026-05-01T09:17:47.1Z</time></trkpt><trkpt lat="46.430306033597134" lon="11.52414166017391"><ele>1163.0</ele><time>2026-05-01T09:17:48.085Z</time></trkpt><trkpt lat="46.43027823647672" lon="11.524290647982797"><ele>1163.0</ele><time>2026-05-01T09:17:49.086Z</time></trkpt><trkpt lat="46.430252778358835" lon="11.52442902481245"><ele>1163.0</ele><time>2026-05-01T09:17:50.093Z</time></trkpt><trkpt lat="46.43022519648905" lon="11.524564879224677"><ele>1163.2</ele><time>2026-05-01T09:17:51.083Z</time></trkpt><trkpt lat="46.430191789102444" lon="11.524681242229226"><ele>1163.4</ele><time>2026-05-01T09:17:52.083Z</time></trkpt><trkpt lat="46.430144094606355" lon="11.52478450429154"><ele>1163.6000000000001</ele><time>2026-05-01T09:17:53.093Z</time></trkpt><trkpt lat="46.43008432796153" lon="11.524892084001854"><ele>1163.8</ele><time>2026-05-01T09:17:54.082Z</time></trkpt><trkpt lat="46.430016201360836" lon="11.52501289980942"><ele>1164.0</ele><time>2026-05-01T09:17:55.094Z</time></trkpt><trkpt lat="46.429945152028694" lon="11.525142483627022"><ele>1164.0</ele><time>2026-05-01T09:17:56.099Z</time></trkpt><trkpt lat="46.4298776812264" lon="11.525274979526982"><ele>1164.0</ele><time>2026-05-01T09:17:57.083Z</time></trkpt><trkpt lat="46.42983019797419" lon="11.525426511571977"><ele>1164.0</ele><time>2026-05-01T09:17:58.085Z</time></trkpt><trkpt lat="46.429816233333334" lon="11.52558585"><ele>1164.0</ele><time>2026-05-01T09:17:59.09Z</time></trkpt><trkpt lat="46.42980636666666" lon="11.525741616666668"><ele>1164.0</ele><time>2026-05-01T09:18:00.083Z</time></trkpt><trkpt lat="46.429804883333325" lon="11.525902049999997"><ele>1164.25</ele><time>2026-05-01T09:18:01.086Z</time></trkpt><trkpt lat="46.429792866666666" lon="11.5260671"><ele>1164.5</ele><time>2026-05-01T09:18:02.099Z</time></trkpt><trkpt lat="46.42976508333333" lon="11.5262291"><ele>1164.75</ele><time>2026-05-01T09:18:03.086Z</time></trkpt><trkpt lat="46.42972416666666" lon="11.526389483333332"><ele>1165.0</ele><time>2026-05-01T09:18:04.094Z</time></trkpt><trkpt lat="46.42967351666666" lon="11.526546133333332"><ele>1160.75</ele><time>2026-05-01T09:18:05.099Z</time></trkpt><trkpt lat="46.42962193333333" lon="11.526704533333335"><ele>1156.5</ele><time>2026-05-01T09:18:06.085Z</time></trkpt><trkpt lat="46.42957591666667" lon="11.526864250000003"><ele>1152.25</ele><time>2026-05-01T09:18:07.085Z</time></trkpt><trkpt lat="46.429536250000005" lon="11.52701925"><ele>1148.0</ele><time>2026-05-01T09:18:08.1Z</time></trkpt><trkpt lat="46.429498650000006" lon="11.527167233333333"><ele>1148.0</ele><time>2026-05-01T09:18:09.085Z</time></trkpt><trkpt lat="46.42946225000001" lon="11.527307133333332"><ele>1148.0</ele><time>2026-05-01T09:18:10.086Z</time></trkpt><trkpt lat="46.42942684999999" lon="11.527446883333335"><ele>1148.0</ele><time>2026-05-01T09:18:11.092Z</time></trkpt><trkpt lat="46.429385116666666" lon="11.527585700000001"><ele>1148.0</ele><time>2026-05-01T09:18:12.085Z</time></trkpt><trkpt lat="46.429335099999996" lon="11.527720133333332"><ele>1148.0</ele><time>2026-05-01T09:18:13.092Z</time></trkpt><trkpt lat="46.429277150000004" lon="11.527851166666668"><ele>1149.25</ele><time>2026-05-01T09:18:14.098Z</time></trkpt><trkpt lat="46.429217533333336" lon="11.527981833333333"><ele>1150.5</ele><time>2026-05-01T09:18:15.09Z</time></trkpt><trkpt lat="46.42917033333333" lon="11.5281279"><ele>1151.75</ele><time>2026-05-01T09:18:16.085Z</time></trkpt><trkpt lat="46.42914351666666" lon="11.528295666666668"><ele>1153.0</ele><time>2026-05-01T09:18:17.092Z</time></trkpt><trkpt lat="46.42912046666667" lon="11.52847405"><ele>1153.0</ele><time>2026-05-01T09:18:18.082Z</time></trkpt><trkpt lat="46.4290923" lon="11.528664666666668"><ele>1153.0</ele><time>2026-05-01T09:18:19.088Z</time></trkpt><trkpt lat="46.429049454173516" lon="11.528831397481675"><ele>1153.0</ele><time>2026-05-01T09:18:20.099Z</time></trkpt><trkpt lat="46.42903251671906" lon="11.528957712992451"><ele>1153.0</ele><time>2026-05-01T09:18:21.085Z</time></trkpt><trkpt lat="46.42901613930384" lon="11.52909349270074"><ele>1153.0</ele><time>2026-05-01T09:18:23.081Z</time></trkpt><trkpt lat="46.42907251666667" lon="11.529134749999999"><ele>1154.1666666666665</ele><time>2026-05-01T09:18:26.091Z</time></trkpt><trkpt lat="46.42900851071389" lon="11.529156618122128"><ele>1155.3333333333333</ele><time>2026-05-01T09:18:41.098Z</time></trkpt><trkpt lat="46.428994827962164" lon="11.52929165785195"><ele>1156.5</ele><time>2026-05-01T09:18:43.085Z</time></trkpt><trkpt lat="46.42898454647015" lon="11.529388952121652"><ele>1157.6666666666667</ele><time>2026-05-01T09:18:44.091Z</time></trkpt><trkpt lat="46.428975405001644" lon="11.529499374007715"><ele>1158.8333333333335</ele><time>2026-05-01T09:18:45.086Z</time></trkpt><trkpt lat="46.428963703516864" lon="11.529623829193415"><ele>1160.0</ele><time>2026-05-01T09:18:46.083Z</time></trkpt><trkpt lat="46.42894614502154" lon="11.529765929756966"><ele>1162.25</ele><time>2026-05-01T09:18:47.093Z</time></trkpt><trkpt lat="46.428923515434136" lon="11.529932751247932"><ele>1164.5</ele><time>2026-05-01T09:18:48.084Z</time></trkpt><trkpt lat="46.42889486237995" lon="11.530120406887601"><ele>1166.75</ele><time>2026-05-01T09:18:49.083Z</time></trkpt><trkpt lat="46.428861558246666" lon="11.530326416723206"><ele>1169.0</ele><time>2026-05-01T09:18:50.094Z</time></trkpt><trkpt lat="46.42882926148852" lon="11.530533516610332"><ele>1169.0</ele><time>2026-05-01T09:18:51.084Z</time></trkpt><trkpt lat="46.42880141573165" lon="11.530723880701052"><ele>1169.0</ele><time>2026-05-01T09:18:52.083Z</time></trkpt><trkpt lat="46.42878931655738" lon="11.530911424892343"><ele>1169.0</ele><time>2026-05-01T09:18:53.095Z</time></trkpt><trkpt lat="46.42881024975297" lon="11.531094713641131"><ele>1169.0</ele><time>2026-05-01T09:18:54.084Z</time></trkpt><trkpt lat="46.42885711189723" lon="11.531258722538762"><ele>1169.0</ele><time>2026-05-01T09:18:55.093Z</time></trkpt><trkpt lat="46.42892397258357" lon="11.531403816652121"><ele>1169.0</ele><time>2026-05-01T09:18:56.093Z</time></trkpt><trkpt lat="46.42900053557822" lon="11.531540284005219"><ele>1169.0</ele><time>2026-05-01T09:18:57.083Z</time></trkpt><trkpt lat="46.42908135281763" lon="11.531683563538119"><ele>1169.0</ele><time>2026-05-01T09:18:58.085Z</time></trkpt><trkpt lat="46.42916804113712" lon="11.5318348199846"><ele>1169.0</ele><time>2026-05-01T09:18:59.094Z</time></trkpt><trkpt lat="46.42926133600108" lon="11.531993068328106"><ele>1169.0</ele><time>2026-05-01T09:19:00.084Z</time></trkpt><trkpt lat="46.42935209643402" lon="11.53215949840412"><ele>1169.0</ele><time>2026-05-01T09:19:01.085Z</time></trkpt><trkpt lat="46.429431124332446" lon="11.532342389246722"><ele>1169.0</ele><time>2026-05-01T09:19:02.092Z</time></trkpt><trkpt lat="46.429502272106156" lon="11.532536450436105"><ele>1167.0</ele><time>2026-05-01T09:19:03.083Z</time></trkpt><trkpt lat="46.429564784516614" lon="11.532737278693487"><ele>1165.0</ele><time>2026-05-01T09:19:04.092Z</time></trkpt><trkpt lat="46.42962207548593" lon="11.532953153197917"><ele>1163.0</ele><time>2026-05-01T09:19:05.092Z</time></trkpt><trkpt lat="46.42968378382039" lon="11.533176713395125"><ele>1168.3333333333335</ele><time>2026-05-01T09:19:06.084Z</time></trkpt><trkpt lat="46.42974450306931" lon="11.53339304509371"><ele>1173.6666666666667</ele><time>2026-05-01T09:19:07.086Z</time></trkpt><trkpt lat="46.42980185703296" lon="11.533606452958711"><ele>1179.0</ele><time>2026-05-01T09:19:08.093Z</time></trkpt><trkpt lat="46.42985559414014" lon="11.533808820319852"><ele>1179.0</ele><time>2026-05-01T09:19:09.096Z</time></trkpt><trkpt lat="46.42989591459467" lon="11.53399182391456"><ele>1179.0</ele><time>2026-05-01T09:19:10.085Z</time></trkpt><trkpt lat="46.429911631388244" lon="11.534155931717114"><ele>1179.0</ele><time>2026-05-01T09:19:11.092Z</time></trkpt><trkpt lat="46.42991057984283" lon="11.534315960861667"><ele>1179.0</ele><time>2026-05-01T09:19:12.084Z</time></trkpt><trkpt lat="46.42990896894204" lon="11.534481796609708"><ele>1178.75</ele><time>2026-05-01T09:19:13.092Z</time></trkpt><trkpt lat="46.42991117206296" lon="11.534655199831617"><ele>1178.5</ele><time>2026-05-01T09:19:14.103Z</time></trkpt><trkpt lat="46.42992779370059" lon="11.534829197965959"><ele>1178.25</ele><time>2026-05-01T09:19:15.083Z</time></trkpt><trkpt lat="46.42995764851427" lon="11.534997836742953"><ele>1178.0</ele><time>2026-05-01T09:19:16.092Z</time></trkpt><trkpt lat="46.42998265899279" lon="11.535162682422618"><ele>1178.0</ele><time>2026-05-01T09:19:17.093Z</time></trkpt><trkpt lat="46.43000722995921" lon="11.535324631254266"><ele>1178.0</ele><time>2026-05-01T09:19:18.083Z</time></trkpt><trkpt lat="46.43003340030984" lon="11.535478828423857"><ele>1178.0</ele><time>2026-05-01T09:19:19.085Z</time></trkpt><trkpt lat="46.43005895913383" lon="11.53562713750221"><ele>1178.0</ele><time>2026-05-01T09:19:20.097Z</time></trkpt><trkpt lat="46.430100015575086" lon="11.535778999923249"><ele>1178.0</ele><time>2026-05-01T09:19:21.083Z</time></trkpt><trkpt lat="46.4301544906913" lon="11.535912462959198"><ele>1177.8</ele><time>2026-05-01T09:19:22.095Z</time></trkpt><trkpt lat="46.43021430258814" lon="11.536040289706973"><ele>1177.6</ele><time>2026-05-01T09:19:23.099Z</time></trkpt><trkpt lat="46.43027451625964" lon="11.53616131865577"><ele>1177.4</ele><time>2026-05-01T09:19:24.084Z</time></trkpt><trkpt lat="46.43032605435976" lon="11.536277128662668"><ele>1177.2</ele><time>2026-05-01T09:19:25.085Z</time></trkpt><trkpt lat="46.43036903486007" lon="11.536386830067322"><ele>1177.0</ele><time>2026-05-01T09:19:26.097Z</time></trkpt><trkpt lat="46.43040335805033" lon="11.536496038734295"><ele>1175.8</ele><time>2026-05-01T09:19:27.085Z</time></trkpt><trkpt lat="46.43041921937346" lon="11.536606838370954"><ele>1174.6</ele><time>2026-05-01T09:19:28.085Z</time></trkpt><trkpt lat="46.430421160372745" lon="11.536727483333335"><ele>1173.3999999999999</ele><time>2026-05-01T09:19:29.096Z</time></trkpt><trkpt lat="46.43042026037222" lon="11.536864916666664"><ele>1172.2</ele><time>2026-05-01T09:19:30.083Z</time></trkpt><trkpt lat="46.43041730924125" lon="11.537005951453907"><ele>1171.0</ele><time>2026-05-01T09:19:31.087Z</time></trkpt><trkpt lat="46.43041823239418" lon="11.537159027395791"><ele>1170.3999999999999</ele><time>2026-05-01T09:19:32.1Z</time></trkpt><trkpt lat="46.430422998009156" lon="11.537314921867242"><ele>1169.8</ele><time>2026-05-01T09:19:33.084Z</time></trkpt><trkpt lat="46.43042778997338" lon="11.537471680582303"><ele>1169.1999999999998</ele><time>2026-05-01T09:19:34.085Z</time></trkpt><trkpt lat="46.4304337025441" lon="11.537621457059435"><ele>1168.6</ele><time>2026-05-01T09:19:35.095Z</time></trkpt><trkpt lat="46.43043679747277" lon="11.537761495806413"><ele>1168.0</ele><time>2026-05-01T09:19:36.084Z</time></trkpt><trkpt lat="46.430439729793356" lon="11.537883710850991"><ele>1169.4</ele><time>2026-05-01T09:19:37.085Z</time></trkpt><trkpt lat="46.430428433952905" lon="11.538051193983947"><ele>1170.8</ele><time>2026-05-01T09:19:39.092Z</time></trkpt><trkpt lat="46.43040024847886" lon="11.538160026025913"><ele>1172.2</ele><time>2026-05-01T09:19:41.089Z</time></trkpt><trkpt lat="46.43033789602251" lon="11.538277770006843"><ele>1173.6</ele><time>2026-05-01T09:19:43.083Z</time></trkpt><trkpt lat="46.430262900372846" lon="11.538390980182095"><ele>1175.0</ele><time>2026-05-01T09:19:45.084Z</time></trkpt><trkpt lat="46.430180707982494" lon="11.538514149108634"><ele>1175.0</ele><time>2026-05-01T09:19:47.092Z</time></trkpt><trkpt lat="46.430115410194325" lon="11.53864071051354"><ele>1175.0</ele><time>2026-05-01T09:19:49.085Z</time></trkpt><trkpt lat="46.43005282199017" lon="11.53877566803564"><ele>1175.0</ele><time>2026-05-01T09:19:51.083Z</time></trkpt><trkpt lat="46.4300100116041" lon="11.538925695058255"><ele>1175.0</ele><time>2026-05-01T09:19:53.097Z</time></trkpt><trkpt lat="46.42997577730929" lon="11.539070612917701"><ele>1175.0</ele><time>2026-05-01T09:19:55.088Z</time></trkpt><trkpt lat="46.429940253365004" lon="11.539225342454852"><ele>1175.0</ele><time>2026-05-01T09:19:57.083Z</time></trkpt><trkpt lat="46.42989613615138" lon="11.539391295626361"><ele>1175.0</ele><time>2026-05-01T09:19:59.084Z</time></trkpt><trkpt lat="46.42986848370352" lon="11.53948013272954"><ele>1175.0</ele><time>2026-05-01T09:20:00.085Z</time></trkpt><trkpt lat="46.42984393870966" lon="11.539565325357726"><ele>1175.0</ele><time>2026-05-01T09:20:01.121Z</time></trkpt><trkpt lat="46.4298296077445" lon="11.539654631468524"><ele>1175.0</ele><time>2026-05-01T09:20:02.084Z</time></trkpt><trkpt lat="46.42981936037327" lon="11.539831566666665"><ele>1175.0</ele><time>2026-05-01T09:20:04.08Z</time></trkpt><trkpt lat="46.42983603843171" lon="11.539923559781773"><ele>1172.8</ele><time>2026-05-01T09:20:05.091Z</time></trkpt><trkpt lat="46.429879316666664" lon="11.539995783333334"><ele>1170.6</ele><time>2026-05-01T09:20:06.084Z</time></trkpt><trkpt lat="46.42995953333334" lon="11.540132300000002"><ele>1168.4</ele><time>2026-05-01T09:20:08.084Z</time></trkpt><trkpt lat="46.43003341666666" lon="11.540272416666669"><ele>1166.2</ele><time>2026-05-01T09:20:10.086Z</time></trkpt><trkpt lat="46.43007967493597" lon="11.54042058599662"><ele>1164.0</ele><time>2026-05-01T09:20:12.087Z</time></trkpt><trkpt lat="46.43014098460328" lon="11.540580514094382"><ele>1163.0</ele><time>2026-05-01T09:20:14.092Z</time></trkpt><trkpt lat="46.4301746084773" lon="11.540665408128351"><ele>1162.0</ele><time>2026-05-01T09:20:15.085Z</time></trkpt><trkpt lat="46.43022001666667" lon="11.540736299999999"><ele>1161.0</ele><time>2026-05-01T09:20:16.086Z</time></trkpt><trkpt lat="46.43025155000001" lon="11.540820766666664"><ele>1160.0</ele><time>2026-05-01T09:20:17.095Z</time></trkpt><trkpt lat="46.430284650000004" lon="11.540906483333332"><ele>1159.0</ele><time>2026-05-01T09:20:18.094Z</time></trkpt><trkpt lat="46.43031778333334" lon="11.540993700000001"><ele>1158.0</ele><time>2026-05-01T09:20:19.086Z</time></trkpt><trkpt lat="46.430341494450374" lon="11.541094585564693"><ele>1157.0</ele><time>2026-05-01T09:20:20.092Z</time></trkpt><trkpt lat="46.43037894410413" lon="11.541192913258055"><ele>1156.8333333333335</ele><time>2026-05-01T09:20:21.084Z</time></trkpt><trkpt lat="46.43041643417118" lon="11.541291347172558"><ele>1156.6666666666667</ele><time>2026-05-01T09:20:22.097Z</time></trkpt><trkpt lat="46.43046426803396" lon="11.541388555950178"><ele>1156.5</ele><time>2026-05-01T09:20:23.098Z</time></trkpt><trkpt lat="46.43051471027448" lon="11.541470324719524"><ele>1156.3333333333333</ele><time>2026-05-01T09:20:24.083Z</time></trkpt><trkpt lat="46.430581133333334" lon="11.541511616666666"><ele>1156.1666666666665</ele><time>2026-05-01T09:20:25.086Z</time></trkpt><trkpt lat="46.430675229465805" lon="11.541634502712038"><ele>1156.0</ele><time>2026-05-01T09:20:27.086Z</time></trkpt><trkpt lat="46.4307646790679" lon="11.54175771603458"><ele>1156.0</ele><time>2026-05-01T09:20:29.092Z</time></trkpt><trkpt lat="46.4307737650702" lon="11.54187261239362"><ele>1156.0</ele><time>2026-05-01T09:20:31.098Z</time></trkpt><trkpt lat="46.43070698333332" lon="11.541916516666667"><ele>1156.0</ele><time>2026-05-01T09:20:39.085Z</time></trkpt><trkpt lat="46.43063876666667" lon="11.541880116666668"><ele>1156.0</ele><time>2026-05-01T09:20:40.093Z</time></trkpt><trkpt lat="46.430555616666666" lon="11.5418362"><ele>1156.0</ele><time>2026-05-01T09:20:41.094Z</time></trkpt><trkpt lat="46.430465950000006" lon="11.541791633333334"><ele>1156.0</ele><time>2026-05-01T09:20:42.085Z</time></trkpt><trkpt lat="46.430375749999996" lon="11.54174685"><ele>1156.0</ele><time>2026-05-01T09:20:43.086Z</time></trkpt><trkpt lat="46.43028640000001" lon="11.541701466666666"><ele>1156.0</ele><time>2026-05-01T09:20:44.093Z</time></trkpt><trkpt lat="46.4301959" lon="11.5416632"><ele>1156.0</ele><time>2026-05-01T09:20:45.084Z</time></trkpt><trkpt lat="46.430111483333334" lon="11.541603400000001"><ele>1156.0</ele><time>2026-05-01T09:20:46.086Z</time></trkpt><trkpt lat="46.43002271666666" lon="11.541535466666668"><ele>1156.0</ele><time>2026-05-01T09:20:47.093Z</time></trkpt><trkpt lat="46.429927283333335" lon="11.541494083333335"><ele>1156.0</ele><time>2026-05-01T09:20:48.083Z</time></trkpt><trkpt lat="46.429837733333336" lon="11.5414562"><ele>1156.0</ele><time>2026-05-01T09:20:49.093Z</time></trkpt><trkpt lat="46.42974553333333" lon="11.541396633333333"><ele>1156.0</ele><time>2026-05-01T09:20:50.105Z</time></trkpt><trkpt lat="46.42965550000001" lon="11.54131505"><ele>1156.0</ele><time>2026-05-01T09:20:51.085Z</time></trkpt><trkpt lat="46.42957566666667" lon="11.541219433333334"><ele>1156.0</ele><time>2026-05-01T09:20:52.093Z</time></trkpt><trkpt lat="46.429506866666664" lon="11.541114283333332"><ele>1152.3999999999999</ele><time>2026-05-01T09:20:53.102Z</time></trkpt><trkpt lat="46.42944761666666" lon="11.540999083333334"><ele>1148.8</ele><time>2026-05-01T09:20:54.084Z</time></trkpt><trkpt lat="46.42939596666667" lon="11.540869200000001"><ele>1145.1999999999998</ele><time>2026-05-01T09:20:55.092Z</time></trkpt><trkpt lat="46.42934486666667" lon="11.540732333333334"><ele>1141.6</ele><time>2026-05-01T09:20:56.093Z</time></trkpt><trkpt lat="46.429291533333334" lon="11.540588433333335"><ele>1138.0</ele><time>2026-05-01T09:20:57.083Z</time></trkpt><trkpt lat="46.42923166666667" lon="11.540445083333335"><ele>1138.75</ele><time>2026-05-01T09:20:58.086Z</time></trkpt><trkpt lat="46.429160833333334" lon="11.540311133333333"><ele>1139.5</ele><time>2026-05-01T09:20:59.084Z</time></trkpt><trkpt lat="46.4290769" lon="11.540195883333334"><ele>1140.25</ele><time>2026-05-01T09:21:00.085Z</time></trkpt><trkpt lat="46.428988849999996" lon="11.540089216666669"><ele>1141.0</ele><time>2026-05-01T09:21:01.085Z</time></trkpt><trkpt lat="46.42890261666667" lon="11.539988666666666"><ele>1141.0</ele><time>2026-05-01T09:21:02.098Z</time></trkpt><trkpt lat="46.42881308333334" lon="11.539887749999998"><ele>1141.0</ele><time>2026-05-01T09:21:03.086Z</time></trkpt><trkpt lat="46.428722533333335" lon="11.539783949999999"><ele>1141.0</ele><time>2026-05-01T09:21:04.097Z</time></trkpt><trkpt lat="46.42863641666666" lon="11.539678666666667"><ele>1141.0</ele><time>2026-05-01T09:21:05.093Z</time></trkpt><trkpt lat="46.428552116666665" lon="11.539575233333336"><ele>1137.0</ele><time>2026-05-01T09:21:06.083Z</time></trkpt><trkpt lat="46.42846603333334" lon="11.539473899999999"><ele>1133.0</ele><time>2026-05-01T09:21:07.095Z</time></trkpt><trkpt lat="46.42837963333333" lon="11.539368816666666"><ele>1129.0</ele><time>2026-05-01T09:21:08.101Z</time></trkpt><trkpt lat="46.42829571666667" lon="11.539268683333333"><ele>1125.0</ele><time>2026-05-01T09:21:09.085Z</time></trkpt><trkpt lat="46.42821413333333" lon="11.539172133333333"><ele>1121.0</ele><time>2026-05-01T09:21:10.086Z</time></trkpt><trkpt lat="46.42812881666667" lon="11.539068249999998"><ele>1121.0</ele><time>2026-05-01T09:21:11.098Z</time></trkpt><trkpt lat="46.42804156666666" lon="11.538968233333332"><ele>1121.0</ele><time>2026-05-01T09:21:12.084Z</time></trkpt><trkpt lat="46.42795198333333" lon="11.538867166666668"><ele>1121.0</ele><time>2026-05-01T09:21:13.086Z</time></trkpt><trkpt lat="46.427861799999995" lon="11.538762533333331"><ele>1121.0</ele><time>2026-05-01T09:21:14.093Z</time></trkpt><trkpt lat="46.427769683333324" lon="11.538658433333334"><ele>1119.5</ele><time>2026-05-01T09:21:15.084Z</time></trkpt><trkpt lat="46.42767631666667" lon="11.5385496"><ele>1118.0</ele><time>2026-05-01T09:21:16.093Z</time></trkpt><trkpt lat="46.427589166666664" lon="11.538437283333332"><ele>1116.5</ele><time>2026-05-01T09:21:17.094Z</time></trkpt><trkpt lat="46.42751788333333" lon="11.538312583333335"><ele>1115.0</ele><time>2026-05-01T09:21:18.083Z</time></trkpt><trkpt lat="46.42747186666667" lon="11.538163566666666"><ele>1115.0</ele><time>2026-05-01T09:21:19.086Z</time></trkpt><trkpt lat="46.42745911666666" lon="11.537992483333333"><ele>1115.0</ele><time>2026-05-01T09:21:20.1Z</time></trkpt><trkpt lat="46.42747321666667" lon="11.53779945"><ele>1115.0</ele><time>2026-05-01T09:21:21.083Z</time></trkpt><trkpt lat="46.42750263333333" lon="11.537590466666666"><ele>1115.0</ele><time>2026-05-01T09:21:22.087Z</time></trkpt><trkpt lat="46.42754168333333" lon="11.537366166666668"><ele>1115.3333333333335</ele><time>2026-05-01T09:21:23.096Z</time></trkpt><trkpt lat="46.4275841" lon="11.53712941666667"><ele>1115.6666666666667</ele><time>2026-05-01T09:21:24.084Z</time></trkpt><trkpt lat="46.42762535" lon="11.536898"><ele>1116.0</ele><time>2026-05-01T09:21:25.093Z</time></trkpt><trkpt lat="46.42766296666667" lon="11.536670083333334"><ele>1114.0</ele><time>2026-05-01T09:21:26.097Z</time></trkpt><trkpt lat="46.42769368333334" lon="11.536455666666665"><ele>1112.0</ele><time>2026-05-01T09:21:27.085Z</time></trkpt><trkpt lat="46.42771531666667" lon="11.536254"><ele>1110.0</ele><time>2026-05-01T09:21:28.086Z</time></trkpt><trkpt lat="46.42772118333334" lon="11.536050199999998"><ele>1108.0</ele><time>2026-05-01T09:21:29.103Z</time></trkpt><trkpt lat="46.42771778333334" lon="11.5358343"><ele>1107.25</ele><time>2026-05-01T09:21:30.087Z</time></trkpt><trkpt lat="46.42771129999999" lon="11.53561725"><ele>1106.5</ele><time>2026-05-01T09:21:31.087Z</time></trkpt><trkpt lat="46.42770269999999" lon="11.535409383333336"><ele>1105.75</ele><time>2026-05-01T09:21:32.093Z</time></trkpt><trkpt lat="46.42768656666667" lon="11.535210716666665"><ele>1105.0</ele><time>2026-05-01T09:21:33.086Z</time></trkpt><trkpt lat="46.427665833333336" lon="11.535010683333333"><ele>1105.0</ele><time>2026-05-01T09:21:34.086Z</time></trkpt><trkpt lat="46.42764098333334" lon="11.534802366666668"><ele>1105.0</ele><time>2026-05-01T09:21:35.094Z</time></trkpt><trkpt lat="46.427621783333336" lon="11.534586083333332"><ele>1105.0</ele><time>2026-05-01T09:21:36.084Z</time></trkpt><trkpt lat="46.42762333333334" lon="11.534363466666665"><ele>1105.0</ele><time>2026-05-01T09:21:37.086Z</time></trkpt><trkpt lat="46.42764556666666" lon="11.534137300000003"><ele>1103.3333333333333</ele><time>2026-05-01T09:21:38.093Z</time></trkpt><trkpt lat="46.42768238333333" lon="11.533908616666668"><ele>1101.6666666666667</ele><time>2026-05-01T09:21:39.083Z</time></trkpt><trkpt lat="46.427719399999994" lon="11.533677016666665"><ele>1100.0</ele><time>2026-05-01T09:21:40.105Z</time></trkpt><trkpt lat="46.427747883333325" lon="11.533445016666667"><ele>1097.6666666666667</ele><time>2026-05-01T09:21:41.093Z</time></trkpt><trkpt lat="46.42776369999999" lon="11.533219666666666"><ele>1095.3333333333333</ele><time>2026-05-01T09:21:42.084Z</time></trkpt><trkpt lat="46.427773200000004" lon="11.5330034"><ele>1093.0</ele><time>2026-05-01T09:21:43.085Z</time></trkpt><trkpt lat="46.427777466666676" lon="11.532792433333334"><ele>1090.6666666666665</ele><time>2026-05-01T09:21:44.1Z</time></trkpt><trkpt lat="46.42777976666666" lon="11.532576983333335"><ele>1088.3333333333333</ele><time>2026-05-01T09:21:45.084Z</time></trkpt><trkpt lat="46.42778136666668" lon="11.532356766666664"><ele>1086.0</ele><time>2026-05-01T09:21:46.093Z</time></trkpt><trkpt lat="46.42778353333333" lon="11.532134316666669"><ele>1086.5</ele><time>2026-05-01T09:21:47.093Z</time></trkpt><trkpt lat="46.42778648333333" lon="11.531911050000001"><ele>1087.0</ele><time>2026-05-01T09:21:48.084Z</time></trkpt><trkpt lat="46.4277865" lon="11.531700999999998"><ele>1087.5</ele><time>2026-05-01T09:21:49.086Z</time></trkpt><trkpt lat="46.427790666666674" lon="11.531505450000001"><ele>1088.0</ele><time>2026-05-01T09:21:50.093Z</time></trkpt><trkpt lat="46.42779505" lon="11.5313192"><ele>1087.25</ele><time>2026-05-01T09:21:51.084Z</time></trkpt><trkpt lat="46.42778221666667" lon="11.531142266666667"><ele>1086.5</ele><time>2026-05-01T09:21:52.086Z</time></trkpt><trkpt lat="46.42775283333334" lon="11.53096765"><ele>1085.75</ele><time>2026-05-01T09:21:53.096Z</time></trkpt><trkpt lat="46.42770718333333" lon="11.53079325"><ele>1085.0</ele><time>2026-05-01T09:21:54.109Z</time></trkpt><trkpt lat="46.427657233333335" lon="11.53062455"><ele>1085.0</ele><time>2026-05-01T09:21:55.084Z</time></trkpt><trkpt lat="46.42761911666667" lon="11.530455700000001"><ele>1085.0</ele><time>2026-05-01T09:21:56.093Z</time></trkpt><trkpt lat="46.42760283333333" lon="11.530284950000002"><ele>1085.0</ele><time>2026-05-01T09:21:57.085Z</time></trkpt><trkpt lat="46.427623083333344" lon="11.530120816666667"><ele>1085.0</ele><time>2026-05-01T09:21:58.084Z</time></trkpt><trkpt lat="46.42767168333334" lon="11.529961966666667"><ele>1084.0</ele><time>2026-05-01T09:21:59.1Z</time></trkpt><trkpt lat="46.42771599999999" lon="11.529781966666667"><ele>1083.0</ele><time>2026-05-01T09:22:00.085Z</time></trkpt><trkpt lat="46.427738466666675" lon="11.529593116666668"><ele>1082.0</ele><time>2026-05-01T09:22:01.086Z</time></trkpt><trkpt lat="46.42772368333334" lon="11.5294009"><ele>1081.0</ele><time>2026-05-01T09:22:02.098Z</time></trkpt><trkpt lat="46.42767621666667" lon="11.529210650000001"><ele>1081.0</ele><time>2026-05-01T09:22:03.085Z</time></trkpt><trkpt lat="46.42761730000001" lon="11.529020716666665"><ele>1081.0</ele><time>2026-05-01T09:22:04.086Z</time></trkpt><trkpt lat="46.42757702890622" lon="11.52882932777843"><ele>1081.0</ele><time>2026-05-01T09:22:05.093Z</time></trkpt><trkpt lat="46.427528269572825" lon="11.52865802556811"><ele>1081.0</ele><time>2026-05-01T09:22:06.084Z</time></trkpt><trkpt lat="46.427480982891026" lon="11.528493818122335"><ele>1081.0</ele><time>2026-05-01T09:22:07.093Z</time></trkpt><trkpt lat="46.42743386525902" lon="11.528330204295562"><ele>1081.0</ele><time>2026-05-01T09:22:08.096Z</time></trkpt><trkpt lat="46.427384241093485" lon="11.5281586633854"><ele>1081.0</ele><time>2026-05-01T09:22:09.084Z</time></trkpt><trkpt lat="46.42731975" lon="11.527987366666665"><ele>1081.0</ele><time>2026-05-01T09:22:10.086Z</time></trkpt><trkpt lat="46.42726886666666" lon="11.527798266666666"><ele>1082.5</ele><time>2026-05-01T09:22:11.093Z</time></trkpt><trkpt lat="46.427218483333334" lon="11.527602750000002"><ele>1084.0</ele><time>2026-05-01T09:22:12.085Z</time></trkpt><trkpt lat="46.42717940000001" lon="11.527390866666666"><ele>1085.5</ele><time>2026-05-01T09:22:13.086Z</time></trkpt><trkpt lat="46.42715724999999" lon="11.527169333333331"><ele>1087.0</ele><time>2026-05-01T09:22:14.093Z</time></trkpt><trkpt lat="46.42715345" lon="11.526946316666665"><ele>1087.75</ele><time>2026-05-01T09:22:15.083Z</time></trkpt><trkpt lat="46.42714421666666" lon="11.5267293"><ele>1088.5</ele><time>2026-05-01T09:22:16.092Z</time></trkpt><trkpt lat="46.427126799999996" lon="11.526527983333335"><ele>1089.25</ele><time>2026-05-01T09:22:17.095Z</time></trkpt><trkpt lat="46.42709511666667" lon="11.526349383333335"><ele>1090.0</ele><time>2026-05-01T09:22:18.085Z</time></trkpt><trkpt lat="46.4270423" lon="11.526192983333333"><ele>1090.0</ele><time>2026-05-01T09:22:19.093Z</time></trkpt><trkpt lat="46.42698279999999" lon="11.5260534"><ele>1090.0</ele><time>2026-05-01T09:22:20.099Z</time></trkpt><trkpt lat="46.42693251666666" lon="11.525915783333334"><ele>1090.0</ele><time>2026-05-01T09:22:21.097Z</time></trkpt><trkpt lat="46.42690543333333" lon="11.525758783333332"><ele>1090.0</ele><time>2026-05-01T09:22:22.086Z</time></trkpt><trkpt lat="46.426892849999994" lon="11.525590683333332"><ele>1090.0</ele><time>2026-05-01T09:22:23.094Z</time></trkpt><trkpt lat="46.42687816666666" lon="11.525421016666666"><ele>1086.0</ele><time>2026-05-01T09:22:24.085Z</time></trkpt><trkpt lat="46.42685181666668" lon="11.525259716666667"><ele>1082.0</ele><time>2026-05-01T09:22:25.086Z</time></trkpt><trkpt lat="46.42681545" lon="11.525110833333335"><ele>1078.0</ele><time>2026-05-01T09:22:26.106Z</time></trkpt><trkpt lat="46.42677818333333" lon="11.524971149999999"><ele>1074.0</ele><time>2026-05-01T09:22:27.085Z</time></trkpt><trkpt lat="46.426744233333324" lon="11.524827816666667"><ele>1070.0</ele><time>2026-05-01T09:22:28.087Z</time></trkpt><trkpt lat="46.42670941666667" lon="11.524680266666667"><ele>1069.75</ele><time>2026-05-01T09:22:29.095Z</time></trkpt><trkpt lat="46.426676666666665" lon="11.524511466666668"><ele>1069.5</ele><time>2026-05-01T09:22:30.087Z</time></trkpt><trkpt lat="46.426655366666665" lon="11.524331533333333"><ele>1069.25</ele><time>2026-05-01T09:22:31.086Z</time></trkpt><trkpt lat="46.42664370000001" lon="11.52414485"><ele>1069.0</ele><time>2026-05-01T09:22:32.093Z</time></trkpt><trkpt lat="46.42665013333334" lon="11.523964933333332"><ele>1069.0</ele><time>2026-05-01T09:22:33.084Z</time></trkpt><trkpt lat="46.42666078333333" lon="11.523791633333332"><ele>1069.0</ele><time>2026-05-01T09:22:34.087Z</time></trkpt><trkpt lat="46.42667023333333" lon="11.523615549999999"><ele>1069.0</ele><time>2026-05-01T09:22:35.099Z</time></trkpt><trkpt lat="46.426679633333336" lon="11.523441583333334"><ele>1069.0</ele><time>2026-05-01T09:22:36.084Z</time></trkpt><trkpt lat="46.42668943333333" lon="11.523274583333334"><ele>1068.25</ele><time>2026-05-01T09:22:37.084Z</time></trkpt><trkpt lat="46.42669155" lon="11.523113366666665"><ele>1067.5</ele><time>2026-05-01T09:22:38.1Z</time></trkpt><trkpt lat="46.426675016666664" lon="11.522952416666666"><ele>1066.75</ele><time>2026-05-01T09:22:39.085Z</time></trkpt><trkpt lat="46.42663463333333" lon="11.522792216666668"><ele>1066.0</ele><time>2026-05-01T09:22:40.087Z</time></trkpt><trkpt lat="46.42657734999999" lon="11.5226349"><ele>1065.25</ele><time>2026-05-01T09:22:41.092Z</time></trkpt><trkpt lat="46.426515900000005" lon="11.5224739"><ele>1064.5</ele><time>2026-05-01T09:22:42.086Z</time></trkpt><trkpt lat="46.42645666666667" lon="11.522311233333335"><ele>1063.75</ele><time>2026-05-01T09:22:43.093Z</time></trkpt><trkpt lat="46.42640326666667" lon="11.522145016666665"><ele>1063.0</ele><time>2026-05-01T09:22:44.101Z</time></trkpt><trkpt lat="46.42635488333333" lon="11.521966433333334"><ele>1063.0</ele><time>2026-05-01T09:22:45.083Z</time></trkpt><trkpt lat="46.426314299999994" lon="11.521777933333333"><ele>1063.0</ele><time>2026-05-01T09:22:46.087Z</time></trkpt><trkpt lat="46.42627819999999" lon="11.521582149999999"><ele>1063.0</ele><time>2026-05-01T09:22:47.094Z</time></trkpt><trkpt lat="46.42625445" lon="11.521382200000001"><ele>1063.0</ele><time>2026-05-01T09:22:48.083Z</time></trkpt><trkpt lat="46.42624213333334" lon="11.52118021666667"><ele>1063.5</ele><time>2026-05-01T09:22:49.087Z</time></trkpt><trkpt lat="46.42624783333334" lon="11.520972050000001"><ele>1064.0</ele><time>2026-05-01T09:22:50.093Z</time></trkpt><trkpt lat="46.42628345" lon="11.520762733333335"><ele>1064.5</ele><time>2026-05-01T09:22:51.085Z</time></trkpt><trkpt lat="46.426336283333335" lon="11.520560699999999"><ele>1065.0</ele><time>2026-05-01T09:22:52.082Z</time></trkpt><trkpt lat="46.42638646666666" lon="11.520372083333331"><ele>1063.75</ele><time>2026-05-01T09:22:53.091Z</time></trkpt><trkpt lat="46.426423750000005" lon="11.520182766666668"><ele>1062.5</ele><time>2026-05-01T09:22:54.085Z</time></trkpt><trkpt lat="46.426435966666666" lon="11.51998541666667"><ele>1061.25</ele><time>2026-05-01T09:22:55.087Z</time></trkpt><trkpt lat="46.426399866666664" lon="11.519779483333332"><ele>1060.0</ele><time>2026-05-01T09:22:56.106Z</time></trkpt><trkpt lat="46.426336983333336" lon="11.519569016666667"><ele>1065.0</ele><time>2026-05-01T09:22:57.084Z</time></trkpt><trkpt lat="46.42626005" lon="11.519353383333332"><ele>1070.0</ele><time>2026-05-01T09:22:58.096Z</time></trkpt><trkpt lat="46.42617690000001" lon="11.519119833333333"><ele>1075.0</ele><time>2026-05-01T09:22:59.093Z</time></trkpt><trkpt lat="46.42608803333333" lon="11.51886775"><ele>1070.6666666666665</ele><time>2026-05-01T09:23:00.086Z</time></trkpt><trkpt lat="46.425996" lon="11.5186116"><ele>1066.3333333333333</ele><time>2026-05-01T09:23:01.087Z</time></trkpt><trkpt lat="46.425905083333326" lon="11.518364516666667"><ele>1062.0</ele><time>2026-05-01T09:23:02.084Z</time></trkpt><trkpt lat="46.42582081666666" lon="11.5181258"><ele>1057.6666666666667</ele><time>2026-05-01T09:23:03.086Z</time></trkpt><trkpt lat="46.425744383333324" lon="11.517898233333334"><ele>1053.3333333333335</ele><time>2026-05-01T09:23:04.087Z</time></trkpt><trkpt lat="46.42567263333334" lon="11.517677749999999"><ele>1049.0</ele><time>2026-05-01T09:23:05.099Z</time></trkpt><trkpt lat="46.42560279999999" lon="11.517466649999998"><ele>1049.0</ele><time>2026-05-01T09:23:06.084Z</time></trkpt><trkpt lat="46.42553164999999" lon="11.517254"><ele>1049.0</ele><time>2026-05-01T09:23:07.089Z</time></trkpt><trkpt lat="46.42545816666667" lon="11.517031116666667"><ele>1049.0</ele><time>2026-05-01T09:23:08.095Z</time></trkpt><trkpt lat="46.42539245" lon="11.516794316666667"><ele>1054.3333333333335</ele><time>2026-05-01T09:23:09.084Z</time></trkpt><trkpt lat="46.42535376666667" lon="11.516539516666667"><ele>1059.6666666666667</ele><time>2026-05-01T09:23:10.087Z</time></trkpt><trkpt lat="46.42534258333333" lon="11.516280433333334"><ele>1065.0</ele><time>2026-05-01T09:23:11.085Z</time></trkpt><trkpt lat="46.42534661666667" lon="11.516028799999999"><ele>1065.0</ele><time>2026-05-01T09:23:12.084Z</time></trkpt><trkpt lat="46.42535553333333" lon="11.515785750000001"><ele>1065.0</ele><time>2026-05-01T09:23:13.094Z</time></trkpt><trkpt lat="46.42536234999999" lon="11.515560500000001"><ele>1065.0</ele><time>2026-05-01T09:23:14.094Z</time></trkpt><trkpt lat="46.42537081666666" lon="11.51535576666667"><ele>1066.0</ele><time>2026-05-01T09:23:15.091Z</time></trkpt><trkpt lat="46.42537801666667" lon="11.51517791666667"><ele>1067.0</ele><time>2026-05-01T09:23:16.083Z</time></trkpt><trkpt lat="46.425389499999994" lon="11.5150428"><ele>1068.0</ele><time>2026-05-01T09:23:17.093Z</time></trkpt><trkpt lat="46.42540571666667" lon="11.51494795"><ele>1069.0</ele><time>2026-05-01T09:23:18.085Z</time></trkpt><trkpt lat="46.425427298302296" lon="11.514802717668426"><ele>1070.0</ele><time>2026-05-01T09:23:20.104Z</time></trkpt><trkpt lat="46.42543238347389" lon="11.514663706283152"><ele>1071.5</ele><time>2026-05-01T09:23:22.096Z</time></trkpt><trkpt lat="46.42543653375649" lon="11.514548359081703"><ele>1073.0</ele><time>2026-05-01T09:23:24.084Z</time></trkpt><trkpt lat="46.42546819999999" lon="11.514223066666666"><ele>1074.5</ele><time>2026-05-01T09:32:52.844Z</time></trkpt><trkpt lat="46.4254496" lon="11.514127216666669"><ele>1076.0</ele><time>2026-05-01T09:32:53.84Z</time></trkpt><trkpt lat="46.42544605" lon="11.51401375"><ele>1076.0</ele><time>2026-05-01T09:32:54.837Z</time></trkpt><trkpt lat="46.42545986666668" lon="11.513871616666664"><ele>1076.0</ele><time>2026-05-01T09:32:55.835Z</time></trkpt><trkpt lat="46.42549713333333" lon="11.513698883333333"><ele>1076.0</ele><time>2026-05-01T09:32:56.841Z</time></trkpt><trkpt lat="46.425557833333336" lon="11.51349605"><ele>1076.0</ele><time>2026-05-01T09:32:57.84Z</time></trkpt><trkpt lat="46.42563385" lon="11.51327255"><ele>1063.6666666666667</ele><time>2026-05-01T09:32:58.845Z</time></trkpt><trkpt lat="46.425724949999996" lon="11.513033716666667"><ele>1051.3333333333333</ele><time>2026-05-01T09:32:59.849Z</time></trkpt><trkpt lat="46.42581168333333" lon="11.512790233333332"><ele>1039.0</ele><time>2026-05-01T09:33:00.825Z</time></trkpt><trkpt lat="46.42587463333333" lon="11.512545383333334"><ele>1039.0</ele><time>2026-05-01T09:33:01.833Z</time></trkpt><trkpt lat="46.425910733333325" lon="11.512297483333334"><ele>1039.0</ele><time>2026-05-01T09:33:02.84Z</time></trkpt><trkpt lat="46.42592500000001" lon="11.512034866666665"><ele>1039.0</ele><time>2026-05-01T09:33:03.839Z</time></trkpt><trkpt lat="46.42591721666666" lon="11.511752950000002"><ele>1038.0</ele><time>2026-05-01T09:33:04.826Z</time></trkpt><trkpt lat="46.425891633333336" lon="11.51145465"><ele>1037.0</ele><time>2026-05-01T09:33:05.84Z</time></trkpt><trkpt lat="46.42585295000001" lon="11.51113825"><ele>1036.0</ele><time>2026-05-01T09:33:06.824Z</time></trkpt><trkpt lat="46.425812949999994" lon="11.510830300000002"><ele>1035.0</ele><time>2026-05-01T09:33:07.842Z</time></trkpt><trkpt lat="46.42577743333333" lon="11.510549983333332"><ele>1034.0</ele><time>2026-05-01T09:33:08.844Z</time></trkpt><trkpt lat="46.42574185" lon="11.510309299999998"><ele>1033.0</ele><time>2026-05-01T09:33:09.825Z</time></trkpt><trkpt lat="46.42572435" lon="11.510111083333335"><ele>1032.75</ele><time>2026-05-01T09:33:10.842Z</time></trkpt><trkpt lat="46.42573461666666" lon="11.509946600000001"><ele>1032.5</ele><time>2026-05-01T09:33:11.842Z</time></trkpt><trkpt lat="46.42577424999999" lon="11.509797533333336"><ele>1032.25</ele><time>2026-05-01T09:33:12.825Z</time></trkpt><trkpt lat="46.42584775" lon="11.509652016666665"><ele>1032.0</ele><time>2026-05-01T09:33:13.834Z</time></trkpt><trkpt lat="46.42592743333333" lon="11.509490883333335"><ele>1028.6666666666667</ele><time>2026-05-01T09:33:14.825Z</time></trkpt><trkpt lat="46.42597478333334" lon="11.509296800000001"><ele>1025.3333333333335</ele><time>2026-05-01T09:33:15.827Z</time></trkpt><trkpt lat="46.42598288333334" lon="11.509073433333333"><ele>1022.0</ele><time>2026-05-01T09:33:16.84Z</time></trkpt><trkpt lat="46.42596908333333" lon="11.508821399999999"><ele>1020.3333333333334</ele><time>2026-05-01T09:33:17.826Z</time></trkpt><trkpt lat="46.42594658333334" lon="11.508549016666665"><ele>1018.6666666666667</ele><time>2026-05-01T09:33:18.857Z</time></trkpt><trkpt lat="46.42593425" lon="11.508256600000001"><ele>1017.0</ele><time>2026-05-01T09:33:19.842Z</time></trkpt><trkpt lat="46.42594101666667" lon="11.507953433333334"><ele>1016.6666666666667</ele><time>2026-05-01T09:33:20.843Z</time></trkpt><trkpt lat="46.425971749999995" lon="11.507663800000001"><ele>1016.3333333333334</ele><time>2026-05-01T09:33:21.827Z</time></trkpt><trkpt lat="46.42602371666667" lon="11.507379616666666"><ele>1016.0</ele><time>2026-05-01T09:33:22.846Z</time></trkpt><trkpt lat="46.42608931666667" lon="11.5070989"><ele>1019.0</ele><time>2026-05-01T09:33:23.843Z</time></trkpt><trkpt lat="46.426163033333324" lon="11.506832066666668"><ele>1022.0</ele><time>2026-05-01T09:33:24.827Z</time></trkpt><trkpt lat="46.426225800000005" lon="11.506575083333333"><ele>1025.0</ele><time>2026-05-01T09:33:25.843Z</time></trkpt><trkpt lat="46.42626775" lon="11.506312733333333"><ele>1023.6666666666667</ele><time>2026-05-01T09:33:26.848Z</time></trkpt><trkpt lat="46.42628450000001" lon="11.506037449999999"><ele>1022.3333333333333</ele><time>2026-05-01T09:33:27.866Z</time></trkpt><trkpt lat="46.426271066666665" lon="11.505740099999999"><ele>1021.0</ele><time>2026-05-01T09:33:28.84Z</time></trkpt><trkpt lat="46.42624158333333" lon="11.505426666666665"><ele>1015.0</ele><time>2026-05-01T09:33:29.847Z</time></trkpt><trkpt lat="46.42621258333333" lon="11.505090583333333"><ele>1009.0</ele><time>2026-05-01T09:33:30.857Z</time></trkpt><trkpt lat="46.426184283333335" lon="11.50474325"><ele>1008.0</ele><time>2026-05-01T09:33:31.845Z</time></trkpt><trkpt lat="46.426153199999995" lon="11.504380166666666"><ele>1007.0</ele><time>2026-05-01T09:33:32.842Z</time></trkpt><trkpt lat="46.42611926666667" lon="11.503996800000001"><ele>1003.0</ele><time>2026-05-01T09:33:33.827Z</time></trkpt><trkpt lat="46.42608055000001" lon="11.503598933333334"><ele>999.0</ele><time>2026-05-01T09:33:34.842Z</time></trkpt><trkpt lat="46.42604501666666" lon="11.50319305"><ele>996.0</ele><time>2026-05-01T09:33:35.845Z</time></trkpt><trkpt lat="46.426011566666666" lon="11.502799966666664"><ele>993.0</ele><time>2026-05-01T09:33:36.865Z</time></trkpt><trkpt lat="46.42597553333333" lon="11.502427550000002"><ele>988.5</ele><time>2026-05-01T09:33:37.84Z</time></trkpt><trkpt lat="46.42594111666667" lon="11.502079466666665"><ele>984.0</ele><time>2026-05-01T09:33:38.844Z</time></trkpt><trkpt lat="46.42590728333333" lon="11.501743249999999"><ele>984.0</ele><time>2026-05-01T09:33:39.825Z</time></trkpt><trkpt lat="46.42587208333333" lon="11.501410099999998"><ele>984.0</ele><time>2026-05-01T09:33:40.843Z</time></trkpt><trkpt lat="46.42584149999999" lon="11.50107695"><ele>987.0</ele><time>2026-05-01T09:33:41.845Z</time></trkpt><trkpt lat="46.42580193333333" lon="11.50073325"><ele>990.0</ele><time>2026-05-01T09:33:42.827Z</time></trkpt><trkpt lat="46.42579705" lon="11.500391300000002"><ele>990.3333333333333</ele><time>2026-05-01T09:33:43.843Z</time></trkpt><trkpt lat="46.42581654454032" lon="11.500067641989327"><ele>990.6666666666666</ele><time>2026-05-01T09:33:44.847Z</time></trkpt><trkpt lat="46.425797684593476" lon="11.499758893873322"><ele>991.0</ele><time>2026-05-01T09:33:45.841Z</time></trkpt><trkpt lat="46.42577933610756" lon="11.49945640807644"><ele>991.0</ele><time>2026-05-01T09:33:46.84Z</time></trkpt><trkpt lat="46.425760967942" lon="11.499153597785813"><ele>991.0</ele><time>2026-05-01T09:33:47.843Z</time></trkpt><trkpt lat="46.42574259189976" lon="11.498849886377238"><ele>991.0</ele><time>2026-05-01T09:33:48.827Z</time></trkpt><trkpt lat="46.42572457527408" lon="11.498546214413821"><ele>986.3333333333333</ele><time>2026-05-01T09:33:49.849Z</time></trkpt><trkpt lat="46.425706613145366" lon="11.49824346087266"><ele>981.6666666666667</ele><time>2026-05-01T09:33:50.844Z</time></trkpt><trkpt lat="46.4256886502092" lon="11.497940692833"><ele>977.0</ele><time>2026-05-01T09:33:51.827Z</time></trkpt><trkpt lat="46.425670669874584" lon="11.49763763315607"><ele>977.0</ele><time>2026-05-01T09:33:52.844Z</time></trkpt><trkpt lat="46.42565267142812" lon="11.497334267331702"><ele>977.0</ele><time>2026-05-01T09:33:53.844Z</time></trkpt><trkpt lat="46.425634691156596" lon="11.497031207646934"><ele>977.0</ele><time>2026-05-01T09:33:54.843Z</time></trkpt><trkpt lat="46.42561672815436" lon="11.496728439615458"><ele>979.0</ele><time>2026-05-01T09:33:55.84Z</time></trkpt><trkpt lat="46.42655276666666" lon="11.496307300000002"><ele>975.5</ele><time>2026-05-01T09:33:56.827Z</time></trkpt><trkpt lat="46.426612866666666" lon="11.495993950000003"><ele>972.0</ele><time>2026-05-01T09:33:57.828Z</time></trkpt><trkpt lat="46.4258024" lon="11.4952284"><ele>967.5</ele><time>2026-05-01T09:33:58.851Z</time></trkpt><trkpt lat="46.42561004999999" lon="11.494785649999999"><ele>963.0</ele><time>2026-05-01T09:33:59.858Z</time></trkpt><trkpt lat="46.42544449622184" lon="11.494328582483925"><ele>963.0</ele><time>2026-05-01T09:34:00.827Z</time></trkpt><trkpt lat="46.42540678333334" lon="11.493878333333335"><ele>963.0</ele><time>2026-05-01T09:34:01.84Z</time></trkpt><trkpt lat="46.42535606666667" lon="11.493457883333333"><ele>961.5</ele><time>2026-05-01T09:34:02.843Z</time></trkpt><trkpt lat="46.42530671666667" lon="11.493053183333332"><ele>960.0</ele><time>2026-05-01T09:34:03.86Z</time></trkpt><trkpt lat="46.42526643333334" lon="11.492676616666666"><ele>957.5</ele><time>2026-05-01T09:34:04.842Z</time></trkpt><trkpt lat="46.4252328" lon="11.492323933333335"><ele>955.0</ele><time>2026-05-01T09:34:05.844Z</time></trkpt><trkpt lat="46.42519768333333" lon="11.49198275"><ele>950.0</ele><time>2026-05-01T09:34:06.827Z</time></trkpt><trkpt lat="46.42516538333333" lon="11.49164705"><ele>945.0</ele><time>2026-05-01T09:34:07.84Z</time></trkpt><trkpt lat="46.4251329" lon="11.491307449999999"><ele>939.5</ele><time>2026-05-01T09:34:08.83Z</time></trkpt><trkpt lat="46.42510165" lon="11.490964433333332"><ele>934.0</ele><time>2026-05-01T09:34:09.827Z</time></trkpt><trkpt lat="46.4250649" lon="11.490616916666667"><ele>929.0</ele><time>2026-05-01T09:34:10.84Z</time></trkpt><trkpt lat="46.42502606666667" lon="11.490269216666665"><ele>924.0</ele><time>2026-05-01T09:34:11.849Z</time></trkpt><trkpt lat="46.424988166666665" lon="11.489920383333333"><ele>916.0</ele><time>2026-05-01T09:34:12.827Z</time></trkpt><trkpt lat="46.42495023333333" lon="11.4895653"><ele>908.0</ele><time>2026-05-01T09:34:13.84Z</time></trkpt><trkpt lat="46.424909383333336" lon="11.489206483333332"><ele>908.0</ele><time>2026-05-01T09:34:14.848Z</time></trkpt><trkpt lat="46.42486531666667" lon="11.488847966666667"><ele>908.0</ele><time>2026-05-01T09:34:15.827Z</time></trkpt><trkpt lat="46.424824066666666" lon="11.488491066666665"><ele>908.0</ele><time>2026-05-01T09:34:16.846Z</time></trkpt><trkpt lat="46.424789483333335" lon="11.488147883333333"><ele>908.0</ele><time>2026-05-01T09:34:17.827Z</time></trkpt><trkpt lat="46.42476369999999" lon="11.487818033333333"><ele>909.6666666666667</ele><time>2026-05-01T09:34:18.857Z</time></trkpt><trkpt lat="46.424761350000004" lon="11.487497133333333"><ele>911.3333333333333</ele><time>2026-05-01T09:34:19.84Z</time></trkpt><trkpt lat="46.424783250000004" lon="11.48717485"><ele>913.0</ele><time>2026-05-01T09:34:20.848Z</time></trkpt><trkpt lat="46.424834499999996" lon="11.486840583333331"><ele>913.5</ele><time>2026-05-01T09:34:21.824Z</time></trkpt><trkpt lat="46.42489705" lon="11.486512366666666"><ele>914.0</ele><time>2026-05-01T09:34:22.843Z</time></trkpt><trkpt lat="46.42495531666667" lon="11.486211433333336"><ele>914.6666666666667</ele><time>2026-05-01T09:34:23.844Z</time></trkpt><trkpt lat="46.42500973333334" lon="11.485927949999999"><ele>915.3333333333333</ele><time>2026-05-01T09:34:24.829Z</time></trkpt><trkpt lat="46.425037999999994" lon="11.485657499999997"><ele>916.0</ele><time>2026-05-01T09:34:25.84Z</time></trkpt><trkpt lat="46.4250475" lon="11.485380300000001"><ele>916.0</ele><time>2026-05-01T09:34:26.834Z</time></trkpt><trkpt lat="46.42504371666667" lon="11.485105033333332"><ele>916.0</ele><time>2026-05-01T09:34:27.857Z</time></trkpt><trkpt lat="46.42503256666667" lon="11.48483935"><ele>916.0</ele><time>2026-05-01T09:34:28.842Z</time></trkpt><trkpt lat="46.42502208333334" lon="11.484592966666666"><ele>915.0</ele><time>2026-05-01T09:34:29.844Z</time></trkpt><trkpt lat="46.42501508333333" lon="11.484392333333336"><ele>914.0</ele><time>2026-05-01T09:34:30.841Z</time></trkpt><trkpt lat="46.425016400000004" lon="11.48422285"><ele>913.0</ele><time>2026-05-01T09:34:31.866Z</time></trkpt><trkpt lat="46.42503938333333" lon="11.484073016666665"><ele>912.0</ele><time>2026-05-01T09:34:32.846Z</time></trkpt><trkpt lat="46.425093783333324" lon="11.483946766666667"><ele>912.0</ele><time>2026-05-01T09:34:33.861Z</time></trkpt><trkpt lat="46.42516965" lon="11.483844450000001"><ele>912.0</ele><time>2026-05-01T09:34:34.841Z</time></trkpt><trkpt lat="46.42525026666667" lon="11.483739566666667"><ele>912.0</ele><time>2026-05-01T09:34:35.84Z</time></trkpt><trkpt lat="46.425325916666665" lon="11.483621766666666"><ele>912.0</ele><time>2026-05-01T09:34:36.827Z</time></trkpt><trkpt lat="46.42538351666667" lon="11.483488516666668"><ele>912.0</ele><time>2026-05-01T09:34:37.84Z</time></trkpt><trkpt lat="46.425406766666676" lon="11.483337666666666"><ele>906.5</ele><time>2026-05-01T09:34:38.844Z</time></trkpt><trkpt lat="46.42538761666666" lon="11.483182649999998"><ele>901.0</ele><time>2026-05-01T09:34:39.841Z</time></trkpt><trkpt lat="46.4253248" lon="11.483033116666666"><ele>895.5</ele><time>2026-05-01T09:34:40.843Z</time></trkpt><trkpt lat="46.42523238333333" lon="11.482888766666669"><ele>890.0</ele><time>2026-05-01T09:34:41.848Z</time></trkpt><trkpt lat="46.42514196666666" lon="11.482750849999999"><ele>886.8</ele><time>2026-05-01T09:34:42.825Z</time></trkpt><trkpt lat="46.425053383333335" lon="11.482615"><ele>883.6</ele><time>2026-05-01T09:34:43.843Z</time></trkpt><trkpt lat="46.42497135" lon="11.482485183333331"><ele>880.4000000000001</ele><time>2026-05-01T09:34:44.827Z</time></trkpt><trkpt lat="46.42490708333333" lon="11.482361066666666"><ele>877.2</ele><time>2026-05-01T09:34:45.827Z</time></trkpt><trkpt lat="46.42487155" lon="11.482250749999999"><ele>874.0</ele><time>2026-05-01T09:34:46.843Z</time></trkpt><trkpt lat="46.424851450000006" lon="11.482159249999999"><ele>873.2</ele><time>2026-05-01T09:34:47.844Z</time></trkpt><trkpt lat="46.424793550000004" lon="11.482031416666667"><ele>872.4000000000001</ele><time>2026-05-01T09:34:49.827Z</time></trkpt><trkpt lat="46.42468026666667" lon="11.482024233333334"><ele>871.6</ele><time>2026-05-01T09:34:51.825Z</time></trkpt><trkpt lat="46.424615949999996" lon="11.482084650000001"><ele>870.8</ele><time>2026-05-01T09:34:52.842Z</time></trkpt><trkpt lat="46.4245553" lon="11.482189566666667"><ele>870.0</ele><time>2026-05-01T09:34:53.827Z</time></trkpt><trkpt lat="46.424508550000006" lon="11.482314149999999"><ele>873.0</ele><time>2026-05-01T09:34:54.824Z</time></trkpt><trkpt lat="46.42445931666666" lon="11.482456333333335"><ele>876.0</ele><time>2026-05-01T09:34:55.846Z</time></trkpt><trkpt lat="46.42440068333334" lon="11.482621583333332"><ele>879.0</ele><time>2026-05-01T09:34:56.844Z</time></trkpt><trkpt lat="46.42433576666667" lon="11.482808550000001"><ele>882.0</ele><time>2026-05-01T09:34:57.857Z</time></trkpt><trkpt lat="46.42425773333333" lon="11.483026383333332"><ele>882.0</ele><time>2026-05-01T09:34:58.846Z</time></trkpt><trkpt lat="46.424171750000006" lon="11.483257283333334"><ele>882.0</ele><time>2026-05-01T09:34:59.851Z</time></trkpt><trkpt lat="46.42408146666667" lon="11.483497816666667"><ele>882.0</ele><time>2026-05-01T09:35:00.829Z</time></trkpt><trkpt lat="46.42399306666666" lon="11.48373495"><ele>884.6666666666667</ele><time>2026-05-01T09:35:01.84Z</time></trkpt><trkpt lat="46.423912333333334" lon="11.483948616666666"><ele>887.3333333333334</ele><time>2026-05-01T09:35:02.846Z</time></trkpt><trkpt lat="46.42382226666667" lon="11.4841383"><ele>890.0</ele><time>2026-05-01T09:35:03.86Z</time></trkpt><trkpt lat="46.42370948333333" lon="11.484314800000002"><ele>890.0</ele><time>2026-05-01T09:35:04.846Z</time></trkpt><trkpt lat="46.42357516666666" lon="11.48446436666667"><ele>890.0</ele><time>2026-05-01T09:35:05.843Z</time></trkpt><trkpt lat="46.423415416666664" lon="11.484585350000001"><ele>890.0</ele><time>2026-05-01T09:35:06.859Z</time></trkpt><trkpt lat="46.4232345" lon="11.484687866666665"><ele>894.0</ele><time>2026-05-01T09:35:07.843Z</time></trkpt><trkpt lat="46.423046716666676" lon="11.484799266666668"><ele>898.0</ele><time>2026-05-01T09:35:08.844Z</time></trkpt><trkpt lat="46.42285435" lon="11.484939566666666"><ele>902.0</ele><time>2026-05-01T09:35:09.825Z</time></trkpt><trkpt lat="46.422659633333325" lon="11.48510945"><ele>902.0</ele><time>2026-05-01T09:35:10.841Z</time></trkpt><trkpt lat="46.42246713333334" lon="11.485289633333332"><ele>902.0</ele><time>2026-05-01T09:35:11.843Z</time></trkpt><trkpt lat="46.42227691666667" lon="11.4854603"><ele>906.6666666666667</ele><time>2026-05-01T09:35:12.838Z</time></trkpt><trkpt lat="46.4220884" lon="11.485626316666666"><ele>911.3333333333333</ele><time>2026-05-01T09:35:13.84Z</time></trkpt><trkpt lat="46.42188771666666" lon="11.485764900000001"><ele>916.0</ele><time>2026-05-01T09:35:14.831Z</time></trkpt><trkpt lat="46.42167979999999" lon="11.4858625"><ele>916.0</ele><time>2026-05-01T09:35:15.859Z</time></trkpt><trkpt lat="46.42145063250786" lon="11.485893862862623"><ele>916.0</ele><time>2026-05-01T09:35:16.84Z</time></trkpt><trkpt lat="46.42123049129551" lon="11.485982612299187"><ele>916.0</ele><time>2026-05-01T09:35:17.843Z</time></trkpt><trkpt lat="46.42102331074515" lon="11.486066122327715"><ele>916.0</ele><time>2026-05-01T09:35:18.857Z</time></trkpt><trkpt lat="46.42083391013349" lon="11.486142296804863"><ele>916.0</ele><time>2026-05-01T09:35:19.846Z</time></trkpt><trkpt lat="46.42064991635817" lon="11.486236697047566"><ele>915.6666666666666</ele><time>2026-05-01T09:35:20.844Z</time></trkpt><trkpt lat="46.42047965149142" lon="11.486384262239987"><ele>915.3333333333333</ele><time>2026-05-01T09:35:21.841Z</time></trkpt><trkpt lat="46.42034578333334" lon="11.486602249999999"><ele>915.0</ele><time>2026-05-01T09:35:22.843Z</time></trkpt><trkpt lat="46.420210616666665" lon="11.486817616666666"><ele>915.0</ele><time>2026-05-01T09:35:23.844Z</time></trkpt><trkpt lat="46.42009504999999" lon="11.487058783333335"><ele>915.0</ele><time>2026-05-01T09:35:24.824Z</time></trkpt><trkpt lat="46.419987416666665" lon="11.487303866666666"><ele>915.0</ele><time>2026-05-01T09:35:25.841Z</time></trkpt><trkpt lat="46.41988088333333" lon="11.487535033333332"><ele>918.0</ele><time>2026-05-01T09:35:26.845Z</time></trkpt><trkpt lat="46.41977815" lon="11.487751633333335"><ele>921.0</ele><time>2026-05-01T09:35:27.858Z</time></trkpt><trkpt lat="46.41966581666667" lon="11.487953999999998"><ele>924.0</ele><time>2026-05-01T09:35:28.84Z</time></trkpt><trkpt lat="46.41953968333334" lon="11.488128699999999"><ele>924.0</ele><time>2026-05-01T09:35:29.826Z</time></trkpt><trkpt lat="46.41940151666666" lon="11.488279416666668"><ele>924.0</ele><time>2026-05-01T09:35:30.825Z</time></trkpt><trkpt lat="46.419259849999996" lon="11.488417333333333"><ele>924.0</ele><time>2026-05-01T09:35:31.84Z</time></trkpt><trkpt lat="46.41911445" lon="11.4885434"><ele>924.0</ele><time>2026-05-01T09:35:32.844Z</time></trkpt><trkpt lat="46.41896625" lon="11.488663366666666"><ele>924.0</ele><time>2026-05-01T09:35:33.826Z</time></trkpt><trkpt lat="46.41881176933883" lon="11.488757285599064"><ele>924.0</ele><time>2026-05-01T09:35:34.843Z</time></trkpt><trkpt lat="46.418667332592946" lon="11.488877387644363"><ele>927.3333333333333</ele><time>2026-05-01T09:35:35.881Z</time></trkpt><trkpt lat="46.418526507528696" lon="11.488994197240757"><ele>930.6666666666666</ele><time>2026-05-01T09:35:36.826Z</time></trkpt><trkpt lat="46.41839160615024" lon="11.489105061433312"><ele>934.0</ele><time>2026-05-01T09:35:37.841Z</time></trkpt><trkpt lat="46.41826310487814" lon="11.489209120128525"><ele>934.0</ele><time>2026-05-01T09:35:38.826Z</time></trkpt><trkpt lat="46.41813754850184" lon="11.489310144651995"><ele>934.0</ele><time>2026-05-01T09:35:39.825Z</time></trkpt><trkpt lat="46.41800984654503" lon="11.489391995784981"><ele>934.0</ele><time>2026-05-01T09:35:40.844Z</time></trkpt><trkpt lat="46.41787225884018" lon="11.489450159001043"><ele>934.0</ele><time>2026-05-01T09:35:41.845Z</time></trkpt><trkpt lat="46.417723822567496" lon="11.489483253923265"><ele>932.5</ele><time>2026-05-01T09:35:42.826Z</time></trkpt><trkpt lat="46.417571546904284" lon="11.489514653337448"><ele>931.0</ele><time>2026-05-01T09:35:43.844Z</time></trkpt><trkpt lat="46.4174288130165" lon="11.48954408730759"><ele>929.5</ele><time>2026-05-01T09:35:44.83Z</time></trkpt><trkpt lat="46.41729824309408" lon="11.489570381158165"><ele>928.0</ele><time>2026-05-01T09:35:45.825Z</time></trkpt><trkpt lat="46.41717998881076" lon="11.489593663886595"><ele>929.25</ele><time>2026-05-01T09:35:46.841Z</time></trkpt><trkpt lat="46.417061572554424" lon="11.489612597237354"><ele>930.5</ele><time>2026-05-01T09:35:47.827Z</time></trkpt><trkpt lat="46.41694101029161" lon="11.48962170995842"><ele>931.75</ele><time>2026-05-01T09:35:48.83Z</time></trkpt><trkpt lat="46.41681877243008" lon="11.489599902201702"><ele>933.0</ele><time>2026-05-01T09:35:49.846Z</time></trkpt><trkpt lat="46.41669584232345" lon="11.489538026246926"><ele>933.0</ele><time>2026-05-01T09:35:50.847Z</time></trkpt><trkpt lat="46.41656685014565" lon="11.489444702256037"><ele>933.0</ele><time>2026-05-01T09:35:51.857Z</time></trkpt><trkpt lat="46.4164313714439" lon="11.489332397748608"><ele>933.0</ele><time>2026-05-01T09:35:52.846Z</time></trkpt><trkpt lat="46.416283992528626" lon="11.489209873683349"><ele>939.6666666666667</ele><time>2026-05-01T09:35:53.84Z</time></trkpt><trkpt lat="46.41613799308688" lon="11.489088397911319"><ele>946.3333333333334</ele><time>2026-05-01T09:35:54.825Z</time></trkpt><trkpt lat="46.416005379646144" lon="11.488975574630375"><ele>953.0</ele><time>2026-05-01T09:35:55.841Z</time></trkpt><trkpt lat="46.41587215" lon="11.48885915"><ele>951.6666666666667</ele><time>2026-05-01T09:35:56.844Z</time></trkpt><trkpt lat="46.41576096666666" lon="11.488675999999998"><ele>950.3333333333333</ele><time>2026-05-01T09:35:57.841Z</time></trkpt><trkpt lat="46.415647099999994" lon="11.48847581666667"><ele>949.0</ele><time>2026-05-01T09:35:58.841Z</time></trkpt><trkpt lat="46.415547644824166" lon="11.48824107103221"><ele>950.0</ele><time>2026-05-01T09:35:59.845Z</time></trkpt><trkpt lat="46.4153965751794" lon="11.488051778566073"><ele>951.0</ele><time>2026-05-01T09:36:00.858Z</time></trkpt><trkpt lat="46.41521432945827" lon="11.487915681858945"><ele>952.0</ele><time>2026-05-01T09:36:01.84Z</time></trkpt><trkpt lat="46.41501658064103" lon="11.487805578452654"><ele>952.0</ele><time>2026-05-01T09:36:02.846Z</time></trkpt><trkpt lat="46.41481134121735" lon="11.487693403432255"><ele>952.0</ele><time>2026-05-01T09:36:03.859Z</time></trkpt><trkpt lat="46.414599201660906" lon="11.487572348134067"><ele>952.0</ele><time>2026-05-01T09:36:04.849Z</time></trkpt><trkpt lat="46.414384070431076" lon="11.487431488970248"><ele>952.0</ele><time>2026-05-01T09:36:05.843Z</time></trkpt><trkpt lat="46.4141694547195" lon="11.487254117260987"><ele>952.0</ele><time>2026-05-01T09:36:06.836Z</time></trkpt><trkpt lat="46.413954819474995" lon="11.487053842063753"><ele>958.5</ele><time>2026-05-01T09:36:07.866Z</time></trkpt><trkpt lat="46.41373656709981" lon="11.486848263483804"><ele>965.0</ele><time>2026-05-01T09:36:08.845Z</time></trkpt><trkpt lat="46.41351193193989" lon="11.48663341059563"><ele>965.0</ele><time>2026-05-01T09:36:09.827Z</time></trkpt><trkpt lat="46.413285163044876" lon="11.486415995967294"><ele>965.0</ele><time>2026-05-01T09:36:10.841Z</time></trkpt><trkpt lat="46.41305829002699" lon="11.486198042818389"><ele>966.0</ele><time>2026-05-01T09:36:11.847Z</time></trkpt><trkpt lat="46.41283690022126" lon="11.485984862392705"><ele>967.0</ele><time>2026-05-01T09:36:12.825Z</time></trkpt><trkpt lat="46.412630351807586" lon="11.485783624974731"><ele>967.0</ele><time>2026-05-01T09:36:13.846Z</time></trkpt><trkpt lat="46.412437988739114" lon="11.48559597651156"><ele>967.0</ele><time>2026-05-01T09:36:14.847Z</time></trkpt><trkpt lat="46.41225342058707" lon="11.485428539184419"><ele>972.0</ele><time>2026-05-01T09:36:15.839Z</time></trkpt><trkpt lat="46.412059941987756" lon="11.485297475193011"><ele>977.0</ele><time>2026-05-01T09:36:16.829Z</time></trkpt><trkpt lat="46.411847697333286" lon="11.485211714521292"><ele>982.0</ele><time>2026-05-01T09:36:17.844Z</time></trkpt><trkpt lat="46.41162358333332" lon="11.485183440738902"><ele>982.0</ele><time>2026-05-01T09:36:18.828Z</time></trkpt><trkpt lat="46.41140886246837" lon="11.485187362190374"><ele>982.0</ele><time>2026-05-01T09:36:19.84Z</time></trkpt><trkpt lat="46.41120323333333" lon="11.4852212"><ele>982.0</ele><time>2026-05-01T09:36:20.833Z</time></trkpt><trkpt lat="46.410999499999996" lon="11.485192816666665"><ele>982.3333333333333</ele><time>2026-05-01T09:36:21.826Z</time></trkpt><trkpt lat="46.41079906666668" lon="11.485142383333335"><ele>982.6666666666667</ele><time>2026-05-01T09:36:22.84Z</time></trkpt><trkpt lat="46.41059766666667" lon="11.4850581"><ele>983.0</ele><time>2026-05-01T09:36:23.843Z</time></trkpt><trkpt lat="46.410396049999996" lon="11.484938716666667"><ele>983.0</ele><time>2026-05-01T09:36:24.824Z</time></trkpt><trkpt lat="46.41019388333334" lon="11.48479675"><ele>983.0</ele><time>2026-05-01T09:36:25.835Z</time></trkpt><trkpt lat="46.40999096666666" lon="11.484634516666665"><ele>995.0</ele><time>2026-05-01T09:36:26.843Z</time></trkpt><trkpt lat="46.40978008333333" lon="11.484463983333335"><ele>1007.0</ele><time>2026-05-01T09:36:27.826Z</time></trkpt><trkpt lat="46.40956406666666" lon="11.484297066666667"><ele>1007.0</ele><time>2026-05-01T09:36:28.844Z</time></trkpt><trkpt lat="46.4093501" lon="11.484130450000002"><ele>1007.0</ele><time>2026-05-01T09:36:29.847Z</time></trkpt><trkpt lat="46.40914705" lon="11.483985016666667"><ele>1007.0</ele><time>2026-05-01T09:36:30.826Z</time></trkpt><trkpt lat="46.40896166666666" lon="11.483852516666666"><ele>1007.0</ele><time>2026-05-01T09:36:31.84Z</time></trkpt><trkpt lat="46.408796483333326" lon="11.483711999999997"><ele>1007.0</ele><time>2026-05-01T09:36:32.844Z</time></trkpt><trkpt lat="46.40864655" lon="11.483554599999998"><ele>1008.0</ele><time>2026-05-01T09:36:33.829Z</time></trkpt><trkpt lat="46.40850748333334" lon="11.48337055"><ele>1009.0</ele><time>2026-05-01T09:36:34.845Z</time></trkpt><trkpt lat="46.40837176666667" lon="11.483168683333334"><ele>1010.0</ele><time>2026-05-01T09:36:35.845Z</time></trkpt><trkpt lat="46.40823391666667" lon="11.482967833333332"><ele>1012.3333333333334</ele><time>2026-05-01T09:36:36.826Z</time></trkpt><trkpt lat="46.408094733333336" lon="11.482783949999998"><ele>1014.6666666666667</ele><time>2026-05-01T09:36:37.841Z</time></trkpt><trkpt lat="46.4079652636011" lon="11.482592089808344"><ele>1017.0</ele><time>2026-05-01T09:36:38.846Z</time></trkpt><trkpt lat="46.40782326328725" lon="11.482410175267441"><ele>1017.0</ele><time>2026-05-01T09:36:39.887Z</time></trkpt><trkpt lat="46.40767510080743" lon="11.482235660349073"><ele>1017.0</ele><time>2026-05-01T09:36:40.84Z</time></trkpt><trkpt lat="46.407369450000004" lon="11.4823138"><ele>1026.6666666666667</ele><time>2026-05-01T09:36:41.843Z</time></trkpt><trkpt lat="46.40715806666667" lon="11.482223383333334"><ele>1036.3333333333335</ele><time>2026-05-01T09:36:42.86Z</time></trkpt><trkpt lat="46.4069589" lon="11.482101399999998"><ele>1046.0</ele><time>2026-05-01T09:36:43.841Z</time></trkpt><trkpt lat="46.40677028333333" lon="11.481946299999999"><ele>1046.0</ele><time>2026-05-01T09:36:44.847Z</time></trkpt><trkpt lat="46.40659236666667" lon="11.481755433333335"><ele>1046.0</ele><time>2026-05-01T09:36:45.826Z</time></trkpt><trkpt lat="46.40643355" lon="11.481528383333334"><ele>1046.0</ele><time>2026-05-01T09:36:46.841Z</time></trkpt><trkpt lat="46.406293216666676" lon="11.481274399999998"><ele>1060.0</ele><time>2026-05-01T09:36:47.844Z</time></trkpt><trkpt lat="46.406163600000006" lon="11.480998466666664"><ele>1074.0</ele><time>2026-05-01T09:36:48.866Z</time></trkpt><trkpt lat="46.406035966666664" lon="11.480718249999999"><ele>1074.0</ele><time>2026-05-01T09:36:49.841Z</time></trkpt><trkpt lat="46.405904449999994" lon="11.480447816666667"><ele>1074.0</ele><time>2026-05-01T09:36:50.848Z</time></trkpt><trkpt lat="46.405755600000006" lon="11.480206633333333"><ele>1077.3333333333333</ele><time>2026-05-01T09:36:51.859Z</time></trkpt><trkpt lat="46.4055866" lon="11.479996283333332"><ele>1080.6666666666665</ele><time>2026-05-01T09:36:52.841Z</time></trkpt><trkpt lat="46.40540308333334" lon="11.479808816666665"><ele>1084.0</ele><time>2026-05-01T09:36:53.846Z</time></trkpt><trkpt lat="46.405212766666665" lon="11.479638599999998"><ele>1081.0</ele><time>2026-05-01T09:36:54.825Z</time></trkpt><trkpt lat="46.405024266666665" lon="11.479471733333334"><ele>1078.0</ele><time>2026-05-01T09:36:55.844Z</time></trkpt><trkpt lat="46.40484131666667" lon="11.479311816666666"><ele>1075.0</ele><time>2026-05-01T09:36:56.825Z</time></trkpt><trkpt lat="46.40465335000001" lon="11.479161299999998"><ele>1075.0</ele><time>2026-05-01T09:36:57.859Z</time></trkpt><trkpt lat="46.40445509999999" lon="11.479039933333336"><ele>1075.0</ele><time>2026-05-01T09:36:58.841Z</time></trkpt><trkpt lat="46.40425216666666" lon="11.478934216666667"><ele>1075.0</ele><time>2026-05-01T09:36:59.847Z</time></trkpt><trkpt lat="46.404059116666666" lon="11.478832250000002"><ele>1076.6666666666665</ele><time>2026-05-01T09:37:00.826Z</time></trkpt><trkpt lat="46.40388186666667" lon="11.478722816666668"><ele>1078.3333333333333</ele><time>2026-05-01T09:37:01.841Z</time></trkpt><trkpt lat="46.40372705" lon="11.478587950000001"><ele>1080.0</ele><time>2026-05-01T09:37:02.844Z</time></trkpt><trkpt lat="46.40359945000001" lon="11.478424633333335"><ele>1080.0</ele><time>2026-05-01T09:37:03.831Z</time></trkpt><trkpt lat="46.40350415" lon="11.478227599999999"><ele>1080.0</ele><time>2026-05-01T09:37:04.841Z</time></trkpt><trkpt lat="46.403410766666674" lon="11.478020550000002"><ele>1080.0</ele><time>2026-05-01T09:37:05.845Z</time></trkpt><trkpt lat="46.40330378333333" lon="11.477833449999999"><ele>1080.3333333333333</ele><time>2026-05-01T09:37:06.839Z</time></trkpt><trkpt lat="46.403186683333324" lon="11.477672766666668"><ele>1080.6666666666665</ele><time>2026-05-01T09:37:07.841Z</time></trkpt><trkpt lat="46.40305423333332" lon="11.477552766666667"><ele>1081.0</ele><time>2026-05-01T09:37:08.844Z</time></trkpt><trkpt lat="46.402908399999994" lon="11.47747635"><ele>1081.6666666666665</ele><time>2026-05-01T09:37:09.825Z</time></trkpt><trkpt lat="46.402752316666664" lon="11.477428183333332"><ele>1082.3333333333333</ele><time>2026-05-01T09:37:10.846Z</time></trkpt><trkpt lat="46.40258168333333" lon="11.477424983333332"><ele>1083.0</ele><time>2026-05-01T09:37:11.857Z</time></trkpt><trkpt lat="46.40239321666666" lon="11.477465183333333"><ele>1083.0</ele><time>2026-05-01T09:37:12.859Z</time></trkpt><trkpt lat="46.402191633333324" lon="11.477524033333335"><ele>1083.0</ele><time>2026-05-01T09:37:13.841Z</time></trkpt><trkpt lat="46.401973766666664" lon="11.477581583333333"><ele>1083.0</ele><time>2026-05-01T09:37:14.846Z</time></trkpt><trkpt lat="46.40174666666667" lon="11.477631599999999"><ele>1091.0</ele><time>2026-05-01T09:37:15.83Z</time></trkpt><trkpt lat="46.40151058333333" lon="11.477683850000002"><ele>1099.0</ele><time>2026-05-01T09:37:16.844Z</time></trkpt><trkpt lat="46.4012677" lon="11.477736533333333"><ele>1103.5</ele><time>2026-05-01T09:37:17.846Z</time></trkpt><trkpt lat="46.401025233333336" lon="11.477792033333333"><ele>1108.0</ele><time>2026-05-01T09:37:18.859Z</time></trkpt><trkpt lat="46.40078293333333" lon="11.477851866666667"><ele>1108.0</ele><time>2026-05-01T09:37:19.85Z</time></trkpt><trkpt lat="46.40054941666667" lon="11.47791085"><ele>1108.0</ele><time>2026-05-01T09:37:20.829Z</time></trkpt><trkpt lat="46.40033268333333" lon="11.477954599999999"><ele>1111.6666666666665</ele><time>2026-05-01T09:37:21.83Z</time></trkpt><trkpt lat="46.40012775" lon="11.47798435"><ele>1115.3333333333333</ele><time>2026-05-01T09:37:22.841Z</time></trkpt><trkpt lat="46.39992816666667" lon="11.4779962"><ele>1119.0</ele><time>2026-05-01T09:37:23.847Z</time></trkpt><trkpt lat="46.39971658333334" lon="11.477968183333333"><ele>1115.3333333333333</ele><time>2026-05-01T09:37:24.826Z</time></trkpt><trkpt lat="46.39950078333333" lon="11.47790675"><ele>1111.6666666666665</ele><time>2026-05-01T09:37:25.844Z</time></trkpt><trkpt lat="46.39929431666666" lon="11.477811483333335"><ele>1108.0</ele><time>2026-05-01T09:37:26.847Z</time></trkpt><trkpt lat="46.399101383333324" lon="11.477676216666667"><ele>1108.0</ele><time>2026-05-01T09:37:27.858Z</time></trkpt><trkpt lat="46.398917250000004" lon="11.477509266666667"><ele>1108.0</ele><time>2026-05-01T09:37:28.847Z</time></trkpt><trkpt lat="46.39873541666666" lon="11.477343983333334"><ele>1108.0</ele><time>2026-05-01T09:37:29.828Z</time></trkpt><trkpt lat="46.39855283333333" lon="11.477206833333332"><ele>1114.6666666666665</ele><time>2026-05-01T09:37:30.824Z</time></trkpt><trkpt lat="46.39836578333334" lon="11.477108316666666"><ele>1121.3333333333333</ele><time>2026-05-01T09:37:31.84Z</time></trkpt><trkpt lat="46.39817045" lon="11.477044750000001"><ele>1128.0</ele><time>2026-05-01T09:37:32.844Z</time></trkpt><trkpt lat="46.39796916666666" lon="11.477027549999999"><ele>1134.6666666666667</ele><time>2026-05-01T09:37:33.835Z</time></trkpt><trkpt lat="46.39776715" lon="11.477073749999999"><ele>1141.3333333333335</ele><time>2026-05-01T09:37:34.844Z</time></trkpt><trkpt lat="46.39756954999999" lon="11.477167083333331"><ele>1148.0</ele><time>2026-05-01T09:37:35.844Z</time></trkpt><trkpt lat="46.39737691666666" lon="11.477295666666665"><ele>1148.0</ele><time>2026-05-01T09:37:36.825Z</time></trkpt><trkpt lat="46.39718958333333" lon="11.47743645"><ele>1148.0</ele><time>2026-05-01T09:37:37.841Z</time></trkpt><trkpt lat="46.39699273333334" lon="11.477563316666666"><ele>1148.0</ele><time>2026-05-01T09:37:38.836Z</time></trkpt><trkpt lat="46.39678385" lon="11.477662816666669"><ele>1150.5</ele><time>2026-05-01T09:37:39.858Z</time></trkpt><trkpt lat="46.39656465" lon="11.47772868333333"><ele>1153.0</ele><time>2026-05-01T09:37:40.841Z</time></trkpt><trkpt lat="46.39633716666667" lon="11.477776549999998"><ele>1155.5</ele><time>2026-05-01T09:37:41.844Z</time></trkpt><trkpt lat="46.39610970000001" lon="11.477825183333334"><ele>1158.0</ele><time>2026-05-01T09:37:42.858Z</time></trkpt><trkpt lat="46.39588853333333" lon="11.477890616666667"><ele>1152.0</ele><time>2026-05-01T09:37:43.868Z</time></trkpt><trkpt lat="46.395677316666664" lon="11.4779711"><ele>1146.0</ele><time>2026-05-01T09:37:44.848Z</time></trkpt><trkpt lat="46.39546966666667" lon="11.478054616666668"><ele>1140.0</ele><time>2026-05-01T09:37:45.858Z</time></trkpt><trkpt lat="46.39526881666667" lon="11.478132516666669"><ele>1140.0</ele><time>2026-05-01T09:37:46.844Z</time></trkpt><trkpt lat="46.39508661666667" lon="11.478196500000001"><ele>1140.0</ele><time>2026-05-01T09:37:47.842Z</time></trkpt><trkpt lat="46.39492133333333" lon="11.478252183333332"><ele>1140.0</ele><time>2026-05-01T09:37:48.829Z</time></trkpt><trkpt lat="46.394767900000005" lon="11.478311066666667"><ele>1144.25</ele><time>2026-05-01T09:37:49.843Z</time></trkpt><trkpt lat="46.394632316666666" lon="11.478378133333335"><ele>1148.5</ele><time>2026-05-01T09:37:50.847Z</time></trkpt><trkpt lat="46.39450664999999" lon="11.478467516666669"><ele>1152.75</ele><time>2026-05-01T09:37:51.835Z</time></trkpt><trkpt lat="46.39438621666667" lon="11.4785893"><ele>1157.0</ele><time>2026-05-01T09:37:52.845Z</time></trkpt><trkpt lat="46.394265733333334" lon="11.478735333333335"><ele>1154.6666666666667</ele><time>2026-05-01T09:37:53.843Z</time></trkpt><trkpt lat="46.394141383333334" lon="11.478903983333332"><ele>1152.3333333333333</ele><time>2026-05-01T09:37:54.824Z</time></trkpt><trkpt lat="46.39399498792712" lon="11.479058433172577"><ele>1150.0</ele><time>2026-05-01T09:37:55.841Z</time></trkpt><trkpt lat="46.393847159621146" lon="11.479235652918653"><ele>1155.3333333333333</ele><time>2026-05-01T09:37:56.827Z</time></trkpt><trkpt lat="46.39369581533253" lon="11.479404597046418"><ele>1160.6666666666667</ele><time>2026-05-01T09:37:57.827Z</time></trkpt><trkpt lat="46.39352858667013" lon="11.47954302466911"><ele>1166.0</ele><time>2026-05-01T09:37:58.844Z</time></trkpt><trkpt lat="46.39334180716869" lon="11.479643842824007"><ele>1166.0</ele><time>2026-05-01T09:37:59.847Z</time></trkpt><trkpt lat="46.39314590546439" lon="11.479731300715748"><ele>1166.0</ele><time>2026-05-01T09:38:00.824Z</time></trkpt><trkpt lat="46.392944285451925" lon="11.479839894273551"><ele>1166.0</ele><time>2026-05-01T09:38:01.843Z</time></trkpt><trkpt lat="46.39275426591044" lon="11.479997263931251"><ele>1171.0</ele><time>2026-05-01T09:38:02.845Z</time></trkpt><trkpt lat="46.39257794030797" lon="11.480194029784403"><ele>1176.0</ele><time>2026-05-01T09:38:03.827Z</time></trkpt><trkpt lat="46.39242149669368" lon="11.48043707055724"><ele>1176.0</ele><time>2026-05-01T09:38:04.846Z</time></trkpt><trkpt lat="46.39229665001178" lon="11.480706383049906"><ele>1176.0</ele><time>2026-05-01T09:38:05.825Z</time></trkpt><trkpt lat="46.392213154972616" lon="11.480997513008715"><ele>1176.0</ele><time>2026-05-01T09:38:06.827Z</time></trkpt><trkpt lat="46.39216429193936" lon="11.481317452877144"><ele>1180.3333333333333</ele><time>2026-05-01T09:38:07.841Z</time></trkpt><trkpt lat="46.39214188513161" lon="11.48163456560297"><ele>1184.6666666666665</ele><time>2026-05-01T09:38:08.845Z</time></trkpt><trkpt lat="46.39212110963758" lon="11.48192862990725"><ele>1189.0</ele><time>2026-05-01T09:38:09.826Z</time></trkpt><trkpt lat="46.3920867817691" lon="11.482184579004326"><ele>1189.0</ele><time>2026-05-01T09:38:10.845Z</time></trkpt><trkpt lat="46.39202835722745" lon="11.482395605618574"><ele>1189.0</ele><time>2026-05-01T09:38:11.846Z</time></trkpt><trkpt lat="46.39193908847255" lon="11.482556167147436"><ele>1189.0</ele><time>2026-05-01T09:38:12.858Z</time></trkpt><trkpt lat="46.39181002256124" lon="11.482683956797219"><ele>1189.0</ele><time>2026-05-01T09:38:13.841Z</time></trkpt><trkpt lat="46.39165759711791" lon="11.482784388175402"><ele>1189.0</ele><time>2026-05-01T09:38:14.825Z</time></trkpt><trkpt lat="46.3914870789347" lon="11.482878479927493"><ele>1189.0</ele><time>2026-05-01T09:38:15.861Z</time></trkpt><trkpt lat="46.39131604618424" lon="11.482977568927502"><ele>1195.6666666666665</ele><time>2026-05-01T09:38:16.847Z</time></trkpt><trkpt lat="46.39116505629442" lon="11.48310083268916"><ele>1202.3333333333333</ele><time>2026-05-01T09:38:17.845Z</time></trkpt><trkpt lat="46.39104697066162" lon="11.483273324843669"><ele>1209.0</ele><time>2026-05-01T09:38:18.86Z</time></trkpt><trkpt lat="46.390960527825214" lon="11.483489539126813"><ele>1209.0</ele><time>2026-05-01T09:38:19.845Z</time></trkpt><trkpt lat="46.39092434999999" lon="11.483740766666665"><ele>1209.0</ele><time>2026-05-01T09:38:20.845Z</time></trkpt><trkpt lat="46.3908941" lon="11.484003483333332"><ele>1209.0</ele><time>2026-05-01T09:38:21.827Z</time></trkpt><trkpt lat="46.390874950000004" lon="11.484275849999998"><ele>1210.6666666666667</ele><time>2026-05-01T09:38:22.841Z</time></trkpt><trkpt lat="46.390848850000005" lon="11.4845517"><ele>1212.3333333333335</ele><time>2026-05-01T09:38:23.825Z</time></trkpt><trkpt lat="46.39080045000001" lon="11.484816499999999"><ele>1214.0</ele><time>2026-05-01T09:38:24.837Z</time></trkpt><trkpt lat="46.39070990304948" lon="11.485049774621123"><ele>1214.0</ele><time>2026-05-01T09:38:25.842Z</time></trkpt><trkpt lat="46.39060597190384" lon="11.485262110393569"><ele>1214.0</ele><time>2026-05-01T09:38:26.845Z</time></trkpt><trkpt lat="46.39048585073926" lon="11.485456730990487"><ele>1214.0</ele><time>2026-05-01T09:38:27.825Z</time></trkpt><trkpt lat="46.390370694560914" lon="11.485656066796263"><ele>1221.3333333333335</ele><time>2026-05-01T09:38:28.841Z</time></trkpt><trkpt lat="46.3902979565282" lon="11.485882002748133"><ele>1228.6666666666667</ele><time>2026-05-01T09:38:29.848Z</time></trkpt><trkpt lat="46.39028351442577" lon="11.486120454134456"><ele>1236.0</ele><time>2026-05-01T09:38:30.827Z</time></trkpt><trkpt lat="46.39032935" lon="11.486342416666666"><ele>1238.0</ele><time>2026-05-01T09:38:31.841Z</time></trkpt><trkpt lat="46.3903580783372" lon="11.486569221840607"><ele>1240.0</ele><time>2026-05-01T09:38:32.845Z</time></trkpt><trkpt lat="46.3903848662462" lon="11.486784767811288"><ele>1242.0</ele><time>2026-05-01T09:38:33.842Z</time></trkpt><trkpt lat="46.3903906" lon="11.486996883333333"><ele>1244.3333333333333</ele><time>2026-05-01T09:38:34.845Z</time></trkpt><trkpt lat="46.39032168989079" lon="11.487192893191434"><ele>1246.6666666666665</ele><time>2026-05-01T09:38:35.847Z</time></trkpt><trkpt lat="46.39022403616963" lon="11.487383953635103"><ele>1249.0</ele><time>2026-05-01T09:38:36.86Z</time></trkpt><trkpt lat="46.39011393587196" lon="11.487586720383485"><ele>1249.0</ele><time>2026-05-01T09:38:37.849Z</time></trkpt><trkpt lat="46.39004188333333" lon="11.487831549999997"><ele>1249.0</ele><time>2026-05-01T09:38:38.845Z</time></trkpt><trkpt lat="46.38996818333333" lon="11.488081516666668"><ele>1249.0</ele><time>2026-05-01T09:38:39.827Z</time></trkpt><trkpt lat="46.38989973333334" lon="11.488335549999999"><ele>1245.3333333333333</ele><time>2026-05-01T09:38:40.841Z</time></trkpt><trkpt lat="46.38980875" lon="11.488571766666666"><ele>1241.6666666666667</ele><time>2026-05-01T09:38:41.845Z</time></trkpt><trkpt lat="46.38969396900381" lon="11.48876451172798"><ele>1238.0</ele><time>2026-05-01T09:38:42.827Z</time></trkpt><trkpt lat="46.38960638989159" lon="11.488959283822616"><ele>1246.3333333333335</ele><time>2026-05-01T09:38:43.841Z</time></trkpt><trkpt lat="46.38955431889543" lon="11.489172338922367"><ele>1254.6666666666667</ele><time>2026-05-01T09:38:44.845Z</time></trkpt><trkpt lat="46.38954265885504" lon="11.489403684705511"><ele>1263.0</ele><time>2026-05-01T09:38:45.825Z</time></trkpt><trkpt lat="46.389590116666675" lon="11.489637216666665"><ele>1263.0</ele><time>2026-05-01T09:38:46.845Z</time></trkpt><trkpt lat="46.38962490000001" lon="11.489883683333336"><ele>1263.0</ele><time>2026-05-01T09:38:47.881Z</time></trkpt><trkpt lat="46.38965431666667" lon="11.49013646666667"><ele>1263.0</ele><time>2026-05-01T09:38:48.86Z</time></trkpt><trkpt lat="46.389656583333334" lon="11.490390233333335"><ele>1266.3333333333333</ele><time>2026-05-01T09:38:49.845Z</time></trkpt><trkpt lat="46.389635133333336" lon="11.490648583333332"><ele>1269.6666666666665</ele><time>2026-05-01T09:38:50.847Z</time></trkpt><trkpt lat="46.38959344622572" lon="11.490900765824902"><ele>1273.0</ele><time>2026-05-01T09:38:51.834Z</time></trkpt><trkpt lat="46.389613016666665" lon="11.491167566666665"><ele>1271.3333333333333</ele><time>2026-05-01T09:38:52.841Z</time></trkpt><trkpt lat="46.38964791666667" lon="11.491426833333334"><ele>1269.6666666666667</ele><time>2026-05-01T09:38:53.846Z</time></trkpt><trkpt lat="46.38969028333333" lon="11.491660966666664"><ele>1268.0</ele><time>2026-05-01T09:38:54.86Z</time></trkpt><trkpt lat="46.38971159999999" lon="11.49188365"><ele>1268.3333333333335</ele><time>2026-05-01T09:38:55.842Z</time></trkpt><trkpt lat="46.389675872781275" lon="11.492091439831038"><ele>1268.6666666666667</ele><time>2026-05-01T09:38:56.84Z</time></trkpt><trkpt lat="46.389601333333395" lon="11.492270395047356"><ele>1269.0</ele><time>2026-05-01T09:38:57.827Z</time></trkpt><trkpt lat="46.389501262743714" lon="11.492465496837431"><ele>1270.6666666666667</ele><time>2026-05-01T09:38:58.845Z</time></trkpt><trkpt lat="46.38941077322013" lon="11.49268909762086"><ele>1272.3333333333335</ele><time>2026-05-01T09:38:59.823Z</time></trkpt><trkpt lat="46.38936880170229" lon="11.492955762165499"><ele>1274.0</ele><time>2026-05-01T09:39:00.828Z</time></trkpt><trkpt lat="46.38936296040121" lon="11.493200216666667"><ele>1274.0</ele><time>2026-05-01T09:39:01.842Z</time></trkpt><trkpt lat="46.38935278039459" lon="11.493428740582807"><ele>1274.0</ele><time>2026-05-01T09:39:02.845Z</time></trkpt><trkpt lat="46.3893178741387" lon="11.493648216188959"><ele>1274.0</ele><time>2026-05-01T09:39:03.859Z</time></trkpt><trkpt lat="46.389245137213784" lon="11.493855674052288"><ele>1271.0</ele><time>2026-05-01T09:39:04.847Z</time></trkpt><trkpt lat="46.389139097096304" lon="11.494058958429125"><ele>1268.0</ele><time>2026-05-01T09:39:05.84Z</time></trkpt><trkpt lat="46.389025747247125" lon="11.494269260230288"><ele>1265.0</ele><time>2026-05-01T09:39:06.827Z</time></trkpt><trkpt lat="46.38890921386672" lon="11.494478109219019"><ele>1271.0</ele><time>2026-05-01T09:39:07.842Z</time></trkpt><trkpt lat="46.388775736765524" lon="11.4946787774178"><ele>1277.0</ele><time>2026-05-01T09:39:08.845Z</time></trkpt><trkpt lat="46.38862738134884" lon="11.494858320783248"><ele>1283.0</ele><time>2026-05-01T09:39:09.826Z</time></trkpt><trkpt lat="46.3884556913431" lon="11.495004182397803"><ele>1283.0</ele><time>2026-05-01T09:39:10.842Z</time></trkpt><trkpt lat="46.38828256811763" lon="11.49514706044102"><ele>1283.0</ele><time>2026-05-01T09:39:11.847Z</time></trkpt><trkpt lat="46.38811343291398" lon="11.495289606674683"><ele>1283.0</ele><time>2026-05-01T09:39:12.86Z</time></trkpt><trkpt lat="46.38796173910018" lon="11.49545500457257"><ele>1283.3333333333335</ele><time>2026-05-01T09:39:13.842Z</time></trkpt><trkpt lat="46.387826101501474" lon="11.495617656674156"><ele>1283.6666666666667</ele><time>2026-05-01T09:39:14.849Z</time></trkpt><trkpt lat="46.387698143249295" lon="11.495768425547036"><ele>1284.0</ele><time>2026-05-01T09:39:15.86Z</time></trkpt><trkpt lat="46.38758141758199" lon="11.495905959425533"><ele>1284.0</ele><time>2026-05-01T09:39:16.845Z</time></trkpt><trkpt lat="46.38747391750301" lon="11.496022952252726"><ele>1284.0</ele><time>2026-05-01T09:39:17.845Z</time></trkpt><trkpt lat="46.38736392267295" lon="11.49611559913685"><ele>1284.0</ele><time>2026-05-01T09:39:18.826Z</time></trkpt><trkpt lat="46.387255311900425" lon="11.496193534090933"><ele>1284.0</ele><time>2026-05-01T09:39:19.867Z</time></trkpt><trkpt lat="46.38713853778931" lon="11.496258451927527"><ele>1285.5</ele><time>2026-05-01T09:39:20.845Z</time></trkpt><trkpt lat="46.387020666666665" lon="11.496335633333334"><ele>1287.0</ele><time>2026-05-01T09:39:21.827Z</time></trkpt><trkpt lat="46.38689398333332" lon="11.496378133333334"><ele>1288.5</ele><time>2026-05-01T09:39:22.845Z</time></trkpt><trkpt lat="46.3867615292179" lon="11.496385537993822"><ele>1290.0</ele><time>2026-05-01T09:39:23.842Z</time></trkpt><trkpt lat="46.386632878365674" lon="11.496392709811895"><ele>1290.0</ele><time>2026-05-01T09:39:24.827Z</time></trkpt><trkpt lat="46.386500967620385" lon="11.496400479950722"><ele>1290.0</ele><time>2026-05-01T09:39:25.842Z</time></trkpt><trkpt lat="46.386356110281675" lon="11.49641558255281"><ele>1290.0</ele><time>2026-05-01T09:39:26.845Z</time></trkpt><trkpt lat="46.386208726036415" lon="11.49647415928876"><ele>1290.0</ele><time>2026-05-01T09:39:27.835Z</time></trkpt><trkpt lat="46.38605931996585" lon="11.496569543151088"><ele>1293.6666666666667</ele><time>2026-05-01T09:39:28.835Z</time></trkpt><trkpt lat="46.385910889912026" lon="11.496673731916353"><ele>1297.3333333333335</ele><time>2026-05-01T09:39:29.848Z</time></trkpt><trkpt lat="46.385743649999995" lon="11.496760150000002"><ele>1301.0</ele><time>2026-05-01T09:39:30.835Z</time></trkpt><trkpt lat="46.38554130042641" lon="11.496744691511731"><ele>1314.0</ele><time>2026-05-01T09:39:31.855Z</time></trkpt><trkpt lat="46.38532150751986" lon="11.496754885877694"><ele>1327.0</ele><time>2026-05-01T09:39:32.847Z</time></trkpt><trkpt lat="46.38509087858692" lon="11.49679012224418"><ele>1327.0</ele><time>2026-05-01T09:39:33.836Z</time></trkpt><trkpt lat="46.38485305" lon="11.496881966666669"><ele>1327.0</ele><time>2026-05-01T09:39:34.844Z</time></trkpt><trkpt lat="46.384604966666664" lon="11.496950566666666"><ele>1328.5</ele><time>2026-05-01T09:39:35.826Z</time></trkpt><trkpt lat="46.38435464999999" lon="11.4970316"><ele>1330.0</ele><time>2026-05-01T09:39:36.84Z</time></trkpt><trkpt lat="46.38409481666666" lon="11.497124699999999"><ele>1337.5</ele><time>2026-05-01T09:39:37.836Z</time></trkpt><trkpt lat="46.38382958333333" lon="11.4972263"><ele>1345.0</ele><time>2026-05-01T09:39:38.845Z</time></trkpt><trkpt lat="46.38356022357459" lon="11.49730959622687"><ele>1345.0</ele><time>2026-05-01T09:39:39.826Z</time></trkpt><trkpt lat="46.38330616968061" lon="11.49745758431194"><ele>1345.0</ele><time>2026-05-01T09:39:40.842Z</time></trkpt><trkpt lat="46.3830666" lon="11.497652750000002"><ele>1349.5</ele><time>2026-05-01T09:39:41.828Z</time></trkpt><trkpt lat="46.3828110014726" lon="11.49778959580137"><ele>1354.0</ele><time>2026-05-01T09:39:42.86Z</time></trkpt><trkpt lat="46.38256226190755" lon="11.497946451230828"><ele>1354.0</ele><time>2026-05-01T09:39:43.845Z</time></trkpt><trkpt lat="46.38233506696409" lon="11.49811977503705"><ele>1354.0</ele><time>2026-05-01T09:39:44.847Z</time></trkpt><trkpt lat="46.38211596548501" lon="11.498304741100789"><ele>1363.5</ele><time>2026-05-01T09:39:45.826Z</time></trkpt><trkpt lat="46.381904634216575" lon="11.49850682524363"><ele>1373.0</ele><time>2026-05-01T09:39:46.847Z</time></trkpt><trkpt lat="46.38170177850472" lon="11.498709227543296"><ele>1376.5</ele><time>2026-05-01T09:39:47.839Z</time></trkpt><trkpt lat="46.38150239273352" lon="11.498899075318205"><ele>1380.0</ele><time>2026-05-01T09:39:48.859Z</time></trkpt><trkpt lat="46.38129143934247" lon="11.499063628696488"><ele>1380.0</ele><time>2026-05-01T09:39:49.844Z</time></trkpt><trkpt lat="46.381067297647085" lon="11.49920512641644"><ele>1380.0</ele><time>2026-05-01T09:39:50.848Z</time></trkpt><trkpt lat="46.38083855341982" lon="11.499343433876394"><ele>1380.0</ele><time>2026-05-01T09:39:51.861Z</time></trkpt><trkpt lat="46.38061346666667" lon="11.499501116666666"><ele>1380.0</ele><time>2026-05-01T09:39:52.842Z</time></trkpt><trkpt lat="46.380379116666674" lon="11.499633533333334"><ele>1376.0</ele><time>2026-05-01T09:39:53.826Z</time></trkpt><trkpt lat="46.38014256666667" lon="11.499763666666668"><ele>1372.0</ele><time>2026-05-01T09:39:54.861Z</time></trkpt><trkpt lat="46.37989871666667" lon="11.499891383333333"><ele>1384.0</ele><time>2026-05-01T09:39:55.846Z</time></trkpt><trkpt lat="46.37965156666667" lon="11.500014183333333"><ele>1396.0</ele><time>2026-05-01T09:39:56.846Z</time></trkpt><trkpt lat="46.37939995" lon="11.5001352"><ele>1396.0</ele><time>2026-05-01T09:39:57.859Z</time></trkpt><trkpt lat="46.37914641666666" lon="11.500262616666665"><ele>1396.0</ele><time>2026-05-01T09:39:58.842Z</time></trkpt><trkpt lat="46.3788899" lon="11.500389033333333"><ele>1400.5</ele><time>2026-05-01T09:39:59.85Z</time></trkpt><trkpt lat="46.378632100000004" lon="11.500507366666668"><ele>1405.0</ele><time>2026-05-01T09:40:00.868Z</time></trkpt><trkpt lat="46.37837625" lon="11.500626566666666"><ele>1405.0</ele><time>2026-05-01T09:40:01.842Z</time></trkpt><trkpt lat="46.378122600000005" lon="11.50076215"><ele>1405.0</ele><time>2026-05-01T09:40:02.826Z</time></trkpt><trkpt lat="46.37787088333333" lon="11.500914933333336"><ele>1415.5</ele><time>2026-05-01T09:40:03.861Z</time></trkpt><trkpt lat="46.377618500000004" lon="11.501074183333332"><ele>1426.0</ele><time>2026-05-01T09:40:04.841Z</time></trkpt><trkpt lat="46.377367199999995" lon="11.501240016666669"><ele>1428.0</ele><time>2026-05-01T09:40:05.843Z</time></trkpt><trkpt lat="46.377114966666674" lon="11.501409716666668"><ele>1430.0</ele><time>2026-05-01T09:40:06.827Z</time></trkpt><trkpt lat="46.37686098333334" lon="11.501565349999998"><ele>1430.0</ele><time>2026-05-01T09:40:07.842Z</time></trkpt><trkpt lat="46.37661336666667" lon="11.501693399999999"><ele>1430.0</ele><time>2026-05-01T09:40:08.845Z</time></trkpt><trkpt lat="46.376379299999996" lon="11.501799633333333"><ele>1443.5</ele><time>2026-05-01T09:40:09.844Z</time></trkpt><trkpt lat="46.376153466666665" lon="11.501906433333334"><ele>1457.0</ele><time>2026-05-01T09:40:10.828Z</time></trkpt><trkpt lat="46.37593574999999" lon="11.502035166666667"><ele>1458.0</ele><time>2026-05-01T09:40:11.848Z</time></trkpt><trkpt lat="46.37572501666667" lon="11.502219966666667"><ele>1459.0</ele><time>2026-05-01T09:40:12.861Z</time></trkpt><trkpt lat="46.375518750000005" lon="11.502439916666667"><ele>1459.0</ele><time>2026-05-01T09:40:13.845Z</time></trkpt><trkpt lat="46.375309316666666" lon="11.502682516666669"><ele>1459.0</ele><time>2026-05-01T09:40:14.85Z</time></trkpt><trkpt lat="46.37511126666667" lon="11.502927"><ele>1452.0</ele><time>2026-05-01T09:40:15.86Z</time></trkpt><trkpt lat="46.374922233333336" lon="11.503145099999998"><ele>1445.0</ele><time>2026-05-01T09:40:16.849Z</time></trkpt><trkpt lat="46.374737800000005" lon="11.503320683333333"><ele>1449.3333333333335</ele><time>2026-05-01T09:40:17.844Z</time></trkpt><trkpt lat="46.37455803333334" lon="11.5034631"><ele>1453.6666666666667</ele><time>2026-05-01T09:40:18.83Z</time></trkpt><trkpt lat="46.374392099999994" lon="11.503598933333334"><ele>1458.0</ele><time>2026-05-01T09:40:19.844Z</time></trkpt><trkpt lat="46.37423766666667" lon="11.503757216666669"><ele>1458.0</ele><time>2026-05-01T09:40:20.845Z</time></trkpt><trkpt lat="46.374089850000004" lon="11.50395485"><ele>1458.0</ele><time>2026-05-01T09:40:21.859Z</time></trkpt><trkpt lat="46.37395788333333" lon="11.504191366666666"><ele>1458.0</ele><time>2026-05-01T09:40:22.842Z</time></trkpt><trkpt lat="46.37382973333333" lon="11.504460183333334"><ele>1461.0</ele><time>2026-05-01T09:40:23.86Z</time></trkpt><trkpt lat="46.373686299999996" lon="11.504730016666668"><ele>1464.0</ele><time>2026-05-01T09:40:24.826Z</time></trkpt><trkpt lat="46.37352381666666" lon="11.504984833333333"><ele>1464.0</ele><time>2026-05-01T09:40:25.837Z</time></trkpt><trkpt lat="46.37335191666666" lon="11.505244699999999"><ele>1464.0</ele><time>2026-05-01T09:40:26.823Z</time></trkpt><trkpt lat="46.37317633333334" lon="11.505517483333332"><ele>1470.5</ele><time>2026-05-01T09:40:27.832Z</time></trkpt><trkpt lat="46.37300673333334" lon="11.505807616666667"><ele>1477.0</ele><time>2026-05-01T09:40:28.845Z</time></trkpt><trkpt lat="46.3728371" lon="11.506104266666668"><ele>1483.5</ele><time>2026-05-01T09:40:29.848Z</time></trkpt><trkpt lat="46.372664300000004" lon="11.506390199999998"><ele>1490.0</ele><time>2026-05-01T09:40:30.825Z</time></trkpt><trkpt lat="46.37248171666667" lon="11.506648833333335"><ele>1490.0</ele><time>2026-05-01T09:40:31.842Z</time></trkpt><trkpt lat="46.3722834" lon="11.506873016666669"><ele>1490.0</ele><time>2026-05-01T09:40:32.831Z</time></trkpt><trkpt lat="46.37207024999999" lon="11.507077816666667"><ele>1495.0</ele><time>2026-05-01T09:40:33.842Z</time></trkpt><trkpt lat="46.37185509999999" lon="11.507275983333333"><ele>1500.0</ele><time>2026-05-01T09:40:34.842Z</time></trkpt><trkpt lat="46.37164030000001" lon="11.507472983333333"><ele>1500.0</ele><time>2026-05-01T09:40:35.826Z</time></trkpt><trkpt lat="46.37143315" lon="11.507669683333331"><ele>1500.0</ele><time>2026-05-01T09:40:36.83Z</time></trkpt><trkpt lat="46.371237900000004" lon="11.507888166666666"><ele>1502.0</ele><time>2026-05-01T09:40:37.842Z</time></trkpt><trkpt lat="46.37106001666666" lon="11.508145966666666"><ele>1504.0</ele><time>2026-05-01T09:40:38.845Z</time></trkpt><trkpt lat="46.37089658333333" lon="11.508435249999998"><ele>1504.0</ele><time>2026-05-01T09:40:39.825Z</time></trkpt><trkpt lat="46.370729616666665" lon="11.5087404"><ele>1504.0</ele><time>2026-05-01T09:40:40.841Z</time></trkpt><trkpt lat="46.37056241666668" lon="11.509053116666667"><ele>1515.0</ele><time>2026-05-01T09:40:41.845Z</time></trkpt><trkpt lat="46.37039670000001" lon="11.509352349999999"><ele>1526.0</ele><time>2026-05-01T09:40:42.829Z</time></trkpt><trkpt lat="46.37022485000001" lon="11.509606333333332"><ele>1530.0</ele><time>2026-05-01T09:40:43.842Z</time></trkpt><trkpt lat="46.37004926666667" lon="11.50979425"><ele>1534.0</ele><time>2026-05-01T09:40:44.846Z</time></trkpt><trkpt lat="46.36987191666667" lon="11.509947250000002"><ele>1538.0</ele><time>2026-05-01T09:40:45.841Z</time></trkpt><trkpt lat="46.36970311666668" lon="11.510116366666667"><ele>1540.6666666666665</ele><time>2026-05-01T09:40:46.842Z</time></trkpt><trkpt lat="46.36954893333333" lon="11.510334"><ele>1543.3333333333335</ele><time>2026-05-01T09:40:47.824Z</time></trkpt><trkpt lat="46.369389649999995" lon="11.510576949999999"><ele>1546.0</ele><time>2026-05-01T09:40:48.863Z</time></trkpt><trkpt lat="46.36920818333333" lon="11.510812566666667"><ele>1546.0</ele><time>2026-05-01T09:40:49.842Z</time></trkpt><trkpt lat="46.369014566666664" lon="11.5110429"><ele>1546.0</ele><time>2026-05-01T09:40:50.849Z</time></trkpt><trkpt lat="46.36880801666666" lon="11.511279833333333"><ele>1550.5</ele><time>2026-05-01T09:40:51.843Z</time></trkpt><trkpt lat="46.36859331666667" lon="11.511516349999999"><ele>1555.0</ele><time>2026-05-01T09:40:52.842Z</time></trkpt><trkpt lat="46.36838241666666" lon="11.511746116666666"><ele>1555.0</ele><time>2026-05-01T09:40:53.845Z</time></trkpt><trkpt lat="46.36818561666667" lon="11.511966150000001"><ele>1555.0</ele><time>2026-05-01T09:40:54.845Z</time></trkpt><trkpt lat="46.36801255" lon="11.512201083333332"><ele>1557.6666666666667</ele><time>2026-05-01T09:40:55.843Z</time></trkpt><trkpt lat="46.36786331666667" lon="11.512453133333334"><ele>1560.3333333333335</ele><time>2026-05-01T09:40:56.847Z</time></trkpt><trkpt lat="46.36773029999999" lon="11.512690466666667"><ele>1563.0</ele><time>2026-05-01T09:40:57.825Z</time></trkpt><trkpt lat="46.36761456666666" lon="11.512914166666667"><ele>1566.0</ele><time>2026-05-01T09:40:58.841Z</time></trkpt><trkpt lat="46.36751523333334" lon="11.513146866666666"><ele>1569.0</ele><time>2026-05-01T09:40:59.827Z</time></trkpt><trkpt lat="46.367433466666675" lon="11.513400166666669"><ele>1572.0</ele><time>2026-05-01T09:41:00.838Z</time></trkpt><trkpt lat="46.367366849999996" lon="11.5136601"><ele>1575.3333333333335</ele><time>2026-05-01T09:41:01.845Z</time></trkpt><trkpt lat="46.367319849999994" lon="11.513901783333331"><ele>1578.6666666666667</ele><time>2026-05-01T09:41:02.846Z</time></trkpt><trkpt lat="46.367293800000006" lon="11.514121283333333"><ele>1582.0</ele><time>2026-05-01T09:41:03.838Z</time></trkpt><trkpt lat="46.367284616666666" lon="11.514321666666667"><ele>1582.0</ele><time>2026-05-01T09:41:04.839Z</time></trkpt><trkpt lat="46.367280216666664" lon="11.514500433333334"><ele>1582.0</ele><time>2026-05-01T09:41:05.831Z</time></trkpt><trkpt lat="46.36726198333334" lon="11.514656366666669"><ele>1582.0</ele><time>2026-05-01T09:41:06.825Z</time></trkpt><trkpt lat="46.367216266666674" lon="11.514786183333335"><ele>1582.0</ele><time>2026-05-01T09:41:07.841Z</time></trkpt><trkpt lat="46.367139583333326" lon="11.514882516666667"><ele>1582.0</ele><time>2026-05-01T09:41:08.847Z</time></trkpt><trkpt lat="46.367034433333345" lon="11.514928666666666"><ele>1581.75</ele><time>2026-05-01T09:41:09.842Z</time></trkpt><trkpt lat="46.36691746666667" lon="11.514918066666667"><ele>1581.5</ele><time>2026-05-01T09:41:10.842Z</time></trkpt><trkpt lat="46.36681043333333" lon="11.514846266666666"><ele>1581.25</ele><time>2026-05-01T09:41:11.829Z</time></trkpt><trkpt lat="46.36673555" lon="11.5147133"><ele>1581.0</ele><time>2026-05-01T09:41:12.827Z</time></trkpt><trkpt lat="46.366693233333336" lon="11.514533349999999"><ele>1581.0</ele><time>2026-05-01T09:41:13.838Z</time></trkpt><trkpt lat="46.36666445000001" lon="11.514323300000001"><ele>1581.0</ele><time>2026-05-01T09:41:14.827Z</time></trkpt><trkpt lat="46.36663883333334" lon="11.514083583333335"><ele>1581.0</ele><time>2026-05-01T09:41:15.859Z</time></trkpt><trkpt lat="46.36661004999999" lon="11.513825716666668"><ele>1581.6666666666665</ele><time>2026-05-01T09:41:16.845Z</time></trkpt><trkpt lat="46.36658606093722" lon="11.513562519515764"><ele>1582.3333333333333</ele><time>2026-05-01T09:41:17.829Z</time></trkpt><trkpt lat="46.3665039" lon="11.513349783333334"><ele>1583.0</ele><time>2026-05-01T09:41:18.859Z</time></trkpt><trkpt lat="46.36642843333334" lon="11.513142216666667"><ele>1583.0</ele><time>2026-05-01T09:41:19.842Z</time></trkpt><trkpt lat="46.36637755" lon="11.512914799999999"><ele>1583.0</ele><time>2026-05-01T09:41:20.844Z</time></trkpt><trkpt lat="46.366353849999996" lon="11.51266273333333"><ele>1583.0</ele><time>2026-05-01T09:41:21.826Z</time></trkpt><trkpt lat="46.36632325" lon="11.512414066666667"><ele>1590.6666666666665</ele><time>2026-05-01T09:41:22.825Z</time></trkpt><trkpt lat="46.36629316666667" lon="11.51217385"><ele>1598.3333333333335</ele><time>2026-05-01T09:41:23.826Z</time></trkpt><trkpt lat="46.36630046666668" lon="11.511933500000001"><ele>1606.0</ele><time>2026-05-01T09:41:24.827Z</time></trkpt><trkpt lat="46.36633826666666" lon="11.511684166666665"><ele>1601.3333333333335</ele><time>2026-05-01T09:41:25.842Z</time></trkpt><trkpt lat="46.36637468333333" lon="11.511418516666666"><ele>1596.6666666666665</ele><time>2026-05-01T09:41:26.825Z</time></trkpt><trkpt lat="46.366393" lon="11.511149499999998"><ele>1592.0</ele><time>2026-05-01T09:41:27.862Z</time></trkpt><trkpt lat="46.3663849" lon="11.510895183333334"><ele>1597.0</ele><time>2026-05-01T09:41:28.842Z</time></trkpt><trkpt lat="46.36635893333334" lon="11.51066695"><ele>1602.0</ele><time>2026-05-01T09:41:29.824Z</time></trkpt><trkpt lat="46.36634791666667" lon="11.510443033333335"><ele>1607.0</ele><time>2026-05-01T09:41:30.859Z</time></trkpt><trkpt lat="46.3663634" lon="11.510200233333334"><ele>1607.0</ele><time>2026-05-01T09:41:31.847Z</time></trkpt><trkpt lat="46.36643706454916" lon="11.509975086164797"><ele>1607.0</ele><time>2026-05-01T09:41:32.824Z</time></trkpt><trkpt lat="46.36650706775597" lon="11.509746901798385"><ele>1607.0</ele><time>2026-05-01T09:41:33.826Z</time></trkpt><trkpt lat="46.36658574664188" lon="11.509517561385932"><ele>1612.0</ele><time>2026-05-01T09:41:34.844Z</time></trkpt><trkpt lat="46.366667533333334" lon="11.509287716666664"><ele>1617.0</ele><time>2026-05-01T09:41:35.845Z</time></trkpt><trkpt lat="46.36680451970672" lon="11.509134184130643"><ele>1622.0</ele><time>2026-05-01T09:41:36.862Z</time></trkpt><trkpt lat="46.36694931576771" lon="11.509004133171176"><ele>1622.0</ele><time>2026-05-01T09:41:37.844Z</time></trkpt><trkpt lat="46.36709623834322" lon="11.508893769259357"><ele>1622.0</ele><time>2026-05-01T09:41:38.823Z</time></trkpt><trkpt lat="46.36722557297446" lon="11.50874886139947"><ele>1622.0</ele><time>2026-05-01T09:41:39.863Z</time></trkpt><trkpt lat="46.36730799516379" lon="11.508546549193914"><ele>1618.0</ele><time>2026-05-01T09:41:40.842Z</time></trkpt><trkpt lat="46.367336088191024" lon="11.50831588102292"><ele>1614.0</ele><time>2026-05-01T09:41:41.826Z</time></trkpt><trkpt lat="46.36732031666667" lon="11.508074183333333"><ele>1610.0</ele><time>2026-05-01T09:41:42.826Z</time></trkpt><trkpt lat="46.36730571666667" lon="11.507816216666669"><ele>1610.0</ele><time>2026-05-01T09:41:43.842Z</time></trkpt><trkpt lat="46.36727595000001" lon="11.507542149999999"><ele>1610.0</ele><time>2026-05-01T09:41:44.824Z</time></trkpt><trkpt lat="46.36724288333333" lon="11.507264166666667"><ele>1610.0</ele><time>2026-05-01T09:41:45.859Z</time></trkpt><trkpt lat="46.36720985" lon="11.506980166666665"><ele>1621.0</ele><time>2026-05-01T09:41:46.846Z</time></trkpt><trkpt lat="46.36717416666667" lon="11.506689433333333"><ele>1632.0</ele><time>2026-05-01T09:41:47.847Z</time></trkpt><trkpt lat="46.3671357" lon="11.506404616666668"><ele>1643.0</ele><time>2026-05-01T09:41:48.828Z</time></trkpt><trkpt lat="46.36708965" lon="11.506137149999999"><ele>1643.0</ele><time>2026-05-01T09:41:49.825Z</time></trkpt><trkpt lat="46.36702928333334" lon="11.505905983333331"><ele>1643.0</ele><time>2026-05-01T09:41:50.824Z</time></trkpt><trkpt lat="46.36695734999999" lon="11.505711833333331"><ele>1643.0</ele><time>2026-05-01T09:41:51.828Z</time></trkpt><trkpt lat="46.36688148333333" lon="11.505545516666666"><ele>1642.0</ele><time>2026-05-01T09:41:52.842Z</time></trkpt><trkpt lat="46.36679590000001" lon="11.505409566666666"><ele>1641.0</ele><time>2026-05-01T09:41:53.846Z</time></trkpt><trkpt lat="46.366719833333335" lon="11.505291466666664"><ele>1640.0</ele><time>2026-05-01T09:41:54.832Z</time></trkpt><trkpt lat="46.36667130000001" lon="11.505174199999999"><ele>1639.0</ele><time>2026-05-01T09:41:55.842Z</time></trkpt><trkpt lat="46.36666203333333" lon="11.505052516666668"><ele>1638.0</ele><time>2026-05-01T09:41:56.825Z</time></trkpt><trkpt lat="46.366704733333336" lon="11.504933233333334"><ele>1638.0</ele><time>2026-05-01T09:41:57.826Z</time></trkpt><trkpt lat="46.36678813333333" lon="11.504839033333333"><ele>1638.0</ele><time>2026-05-01T09:41:58.842Z</time></trkpt><trkpt lat="46.366898750000004" lon="11.504742266666666"><ele>1638.0</ele><time>2026-05-01T09:41:59.883Z</time></trkpt><trkpt lat="46.36701776666667" lon="11.504629266666667"><ele>1638.0</ele><time>2026-05-01T09:42:00.828Z</time></trkpt><trkpt lat="46.36715195" lon="11.504550816666665"><ele>1644.3333333333335</ele><time>2026-05-01T09:42:01.842Z</time></trkpt><trkpt lat="46.367300066666665" lon="11.504530816666666"><ele>1650.6666666666667</ele><time>2026-05-01T09:42:02.825Z</time></trkpt><trkpt lat="46.36745978333333" lon="11.504537899999999"><ele>1657.0</ele><time>2026-05-01T09:42:03.833Z</time></trkpt><trkpt lat="46.36762766666668" lon="11.504539466666666"><ele>1657.0</ele><time>2026-05-01T09:42:04.855Z</time></trkpt><trkpt lat="46.3677815" lon="11.504537650000001"><ele>1657.0</ele><time>2026-05-01T09:42:05.83Z</time></trkpt><trkpt lat="46.36791769999999" lon="11.504524333333332"><ele>1657.0</ele><time>2026-05-01T09:42:06.844Z</time></trkpt><trkpt lat="46.368037783454234" lon="11.504511012479322"><ele>1657.0</ele><time>2026-05-01T09:42:07.824Z</time></trkpt><trkpt lat="46.3681235" lon="11.50440725"><ele>1654.5</ele><time>2026-05-01T09:42:08.836Z</time></trkpt><trkpt lat="46.36819978333333" lon="11.50429795"><ele>1652.0</ele><time>2026-05-01T09:42:09.829Z</time></trkpt><trkpt lat="46.368271166666666" lon="11.504171566666667"><ele>1649.5</ele><time>2026-05-01T09:42:10.849Z</time></trkpt><trkpt lat="46.36834076666668" lon="11.504034200000001"><ele>1647.0</ele><time>2026-05-01T09:42:11.836Z</time></trkpt><trkpt lat="46.36840205000001" lon="11.503878666666667"><ele>1653.0</ele><time>2026-05-01T09:42:12.847Z</time></trkpt><trkpt lat="46.368468833333324" lon="11.503703766666668"><ele>1659.0</ele><time>2026-05-01T09:42:13.851Z</time></trkpt><trkpt lat="46.368548733333334" lon="11.503518683333334"><ele>1665.0</ele><time>2026-05-01T09:42:14.835Z</time></trkpt><trkpt lat="46.36864338333333" lon="11.503325500000003"><ele>1665.0</ele><time>2026-05-01T09:42:15.836Z</time></trkpt><trkpt lat="46.368750983333335" lon="11.503125766666667"><ele>1665.0</ele><time>2026-05-01T09:42:16.851Z</time></trkpt><trkpt lat="46.36885911666667" lon="11.502915283333333"><ele>1665.0</ele><time>2026-05-01T09:42:17.822Z</time></trkpt><trkpt lat="46.368950116666674" lon="11.50268443333333"><ele>1663.6666666666665</ele><time>2026-05-01T09:42:18.829Z</time></trkpt><trkpt lat="46.36900475000001" lon="11.50244675"><ele>1662.3333333333333</ele><time>2026-05-01T09:42:19.852Z</time></trkpt><trkpt lat="46.36902176666668" lon="11.502219866666668"><ele>1661.0</ele><time>2026-05-01T09:42:20.836Z</time></trkpt><trkpt lat="46.369017251473366" lon="11.501985695441533"><ele>1661.0</ele><time>2026-05-01T09:42:21.842Z</time></trkpt><trkpt lat="46.3689630126918" lon="11.501761434704886"><ele>1661.0</ele><time>2026-05-01T09:42:22.85Z</time></trkpt><trkpt lat="46.368875653317694" lon="11.501556724551252"><ele>1661.0</ele><time>2026-05-01T09:42:23.829Z</time></trkpt><trkpt lat="46.368750746228564" lon="11.501388419710386"><ele>1663.75</ele><time>2026-05-01T09:42:24.848Z</time></trkpt><trkpt lat="46.36861600648851" lon="11.501277278459607"><ele>1666.5</ele><time>2026-05-01T09:42:25.851Z</time></trkpt><trkpt lat="46.36851118737803" lon="11.501149824454432"><ele>1669.25</ele><time>2026-05-01T09:42:26.84Z</time></trkpt><trkpt lat="46.368432630968485" lon="11.501002069927384"><ele>1672.0</ele><time>2026-05-01T09:42:27.836Z</time></trkpt><trkpt lat="46.36841908656778" lon="11.500827358253868"><ele>1673.3333333333335</ele><time>2026-05-01T09:42:28.852Z</time></trkpt><trkpt lat="46.368417233728664" lon="11.500600789985471"><ele>1674.6666666666665</ele><time>2026-05-01T09:42:29.829Z</time></trkpt><trkpt lat="46.3684231839137" lon="11.500356284437276"><ele>1676.0</ele><time>2026-05-01T09:42:30.844Z</time></trkpt><trkpt lat="46.368426574699" lon="11.500092666897098"><ele>1676.0</ele><time>2026-05-01T09:42:31.868Z</time></trkpt><trkpt lat="46.36842589888937" lon="11.499834193418332"><ele>1676.0</ele><time>2026-05-01T09:42:32.829Z</time></trkpt><trkpt lat="46.368414032123475" lon="11.499599785284362"><ele>1676.0</ele><time>2026-05-01T09:42:33.837Z</time></trkpt><trkpt lat="46.36837998337557" lon="11.499382746242519"><ele>1674.3333333333333</ele><time>2026-05-01T09:42:34.852Z</time></trkpt><trkpt lat="46.36830518514073" lon="11.499190946120345"><ele>1672.6666666666665</ele><time>2026-05-01T09:42:35.829Z</time></trkpt><trkpt lat="46.36819387377313" lon="11.49903486691715"><ele>1671.0</ele><time>2026-05-01T09:42:36.826Z</time></trkpt><trkpt lat="46.36806323930535" lon="11.498932716731893"><ele>1675.3333333333335</ele><time>2026-05-01T09:42:37.848Z</time></trkpt><trkpt lat="46.367916514931856" lon="11.498868533225876"><ele>1679.6666666666667</ele><time>2026-05-01T09:42:38.829Z</time></trkpt><trkpt lat="46.36776073809309" lon="11.498876687788073"><ele>1684.0</ele><time>2026-05-01T09:42:39.843Z</time></trkpt><trkpt lat="46.367603360481965" lon="11.49893708118928"><ele>1684.0</ele><time>2026-05-01T09:42:40.851Z</time></trkpt><trkpt lat="46.36744121540698" lon="11.49899801255366"><ele>1684.0</ele><time>2026-05-01T09:42:41.84Z</time></trkpt><trkpt lat="46.367265682408586" lon="11.499053428400057"><ele>1684.0</ele><time>2026-05-01T09:42:42.836Z</time></trkpt><trkpt lat="46.367079897762814" lon="11.499110636652574"><ele>1683.6666666666667</ele><time>2026-05-01T09:42:43.852Z</time></trkpt><trkpt lat="46.36688671500935" lon="11.499171797044982"><ele>1683.3333333333335</ele><time>2026-05-01T09:42:44.84Z</time></trkpt><trkpt lat="46.36669818335055" lon="11.49921982275008"><ele>1683.0</ele><time>2026-05-01T09:42:45.836Z</time></trkpt><trkpt lat="46.36650999094351" lon="11.499222387724801"><ele>1682.6666666666665</ele><time>2026-05-01T09:42:46.851Z</time></trkpt><trkpt lat="46.36630970978331" lon="11.499234247519766"><ele>1682.3333333333333</ele><time>2026-05-01T09:42:47.832Z</time></trkpt><trkpt lat="46.36611303802369" lon="11.499293831745257"><ele>1682.0</ele><time>2026-05-01T09:42:48.836Z</time></trkpt><trkpt lat="46.36592659599785" lon="11.49941325947947"><ele>1682.0</ele><time>2026-05-01T09:42:49.852Z</time></trkpt><trkpt lat="46.36575644447468" lon="11.499582981608024"><ele>1682.0</ele><time>2026-05-01T09:42:50.841Z</time></trkpt><trkpt lat="46.36559291255608" lon="11.499779505310531"><ele>1682.0</ele><time>2026-05-01T09:42:51.837Z</time></trkpt><trkpt lat="46.365436248099925" lon="11.500003446978548"><ele>1685.0</ele><time>2026-05-01T09:42:52.85Z</time></trkpt><trkpt lat="46.365270332527224" lon="11.500214434754822"><ele>1688.0</ele><time>2026-05-01T09:42:53.828Z</time></trkpt><trkpt lat="46.365106763640135" lon="11.500403299116165"><ele>1691.0</ele><time>2026-05-01T09:42:54.837Z</time></trkpt><trkpt lat="46.364952231542254" lon="11.500559778068926"><ele>1695.3333333333333</ele><time>2026-05-01T09:42:55.851Z</time></trkpt><trkpt lat="46.364803804484694" lon="11.500682444384049"><ele>1699.6666666666665</ele><time>2026-05-01T09:42:56.829Z</time></trkpt><trkpt lat="46.364659247705404" lon="11.500754129088563"><ele>1704.0</ele><time>2026-05-01T09:42:57.836Z</time></trkpt><trkpt lat="46.36452570082994" lon="11.500781241135035"><ele>1704.5</ele><time>2026-05-01T09:42:58.825Z</time></trkpt><trkpt lat="46.36441248155495" lon="11.500825928447869"><ele>1705.0</ele><time>2026-05-01T09:42:59.837Z</time></trkpt><trkpt lat="46.364312840965724" lon="11.500915952503393"><ele>1705.5</ele><time>2026-05-01T09:43:00.836Z</time></trkpt><trkpt lat="46.36429356869877" lon="11.501088629092212"><ele>1706.0</ele><time>2026-05-01T09:43:01.85Z</time></trkpt><trkpt lat="46.36430910680717" lon="11.501251208328497"><ele>1708.75</ele><time>2026-05-01T09:43:02.829Z</time></trkpt><trkpt lat="46.36431816151941" lon="11.501437600000001"><ele>1711.5</ele><time>2026-05-01T09:43:03.847Z</time></trkpt><trkpt lat="46.364300969883395" lon="11.501649102284942"><ele>1714.25</ele><time>2026-05-01T09:43:04.85Z</time></trkpt><trkpt lat="46.36425806008037" lon="11.501881485588386"><ele>1717.0</ele><time>2026-05-01T09:43:05.827Z</time></trkpt><trkpt lat="46.364206724720745" lon="11.502140233610067"><ele>1719.3333333333335</ele><time>2026-05-01T09:43:06.838Z</time></trkpt><trkpt lat="46.364167512665034" lon="11.50241828273964"><ele>1721.6666666666665</ele><time>2026-05-01T09:43:07.854Z</time></trkpt><trkpt lat="46.36417656174725" lon="11.502687634564223"><ele>1724.0</ele><time>2026-05-01T09:43:08.836Z</time></trkpt><trkpt lat="46.36423443333333" lon="11.502902233333334"><ele>1724.25</ele><time>2026-05-01T09:43:09.838Z</time></trkpt><trkpt lat="46.364273649999994" lon="11.5031074"><ele>1724.5</ele><time>2026-05-01T09:43:10.853Z</time></trkpt><trkpt lat="46.36431388333334" lon="11.503292433333336"><ele>1724.75</ele><time>2026-05-01T09:43:11.829Z</time></trkpt><trkpt lat="46.36434715000001" lon="11.503455666666664"><ele>1725.0</ele><time>2026-05-01T09:43:12.848Z</time></trkpt><trkpt lat="46.36435373333334" lon="11.503601433333332"><ele>1725.0</ele><time>2026-05-01T09:43:13.829Z</time></trkpt><trkpt lat="46.364325599999994" lon="11.503743333333334"><ele>1725.0</ele><time>2026-05-01T09:43:14.829Z</time></trkpt><trkpt lat="46.36425951666667" lon="11.503875550000002"><ele>1725.0</ele><time>2026-05-01T09:43:15.841Z</time></trkpt><trkpt lat="46.36415951426598" lon="11.503981027150635"><ele>1725.0</ele><time>2026-05-01T09:43:16.824Z</time></trkpt><trkpt lat="46.36407370459705" lon="11.504130689278938"><ele>1725.25</ele><time>2026-05-01T09:43:17.827Z</time></trkpt><trkpt lat="46.3640531" lon="11.504327683333335"><ele>1725.5</ele><time>2026-05-01T09:43:18.836Z</time></trkpt><trkpt lat="46.36403324999999" lon="11.504532716666667"><ele>1725.75</ele><time>2026-05-01T09:43:19.85Z</time></trkpt><trkpt lat="46.36400499437228" lon="11.504735385768228"><ele>1726.0</ele><time>2026-05-01T09:43:20.839Z</time></trkpt><trkpt lat="46.36399317091135" lon="11.50491864437041"><ele>1726.0000000000002</ele><time>2026-05-01T09:43:21.843Z</time></trkpt><trkpt lat="46.363986028310244" lon="11.505077933065108"><ele>1726.0</ele><time>2026-05-01T09:43:22.826Z</time></trkpt><trkpt lat="46.36397712689067" lon="11.505206427734192"><ele>1726.0</ele><time>2026-05-01T09:43:23.829Z</time></trkpt><trkpt lat="46.36395003333334" lon="11.505296966666666"><ele>1726.0</ele><time>2026-05-01T09:43:24.85Z</time></trkpt><trkpt lat="46.36388156666667" lon="11.505315750000001"><ele>1726.0000000000002</ele><time>2026-05-01T09:43:25.85Z</time></trkpt><trkpt lat="46.363823933333336" lon="11.505267516666667"><ele>1726.0</ele><time>2026-05-01T09:43:26.827Z</time></trkpt><trkpt lat="46.36378086666667" lon="11.505157333333333"><ele>1731.75</ele><time>2026-05-01T09:43:27.837Z</time></trkpt><trkpt lat="46.36374058333334" lon="11.505003150000002"><ele>1737.5</ele><time>2026-05-01T09:43:28.85Z</time></trkpt><trkpt lat="46.363698449999994" lon="11.504811199999997"><ele>1743.25</ele><time>2026-05-01T09:43:29.827Z</time></trkpt><trkpt lat="46.36364513333333" lon="11.504604733333334"><ele>1749.0</ele><time>2026-05-01T09:43:30.832Z</time></trkpt><trkpt lat="46.36357200000001" lon="11.504393599999998"><ele>1749.0</ele><time>2026-05-01T09:43:31.824Z</time></trkpt><trkpt lat="46.36347098333334" lon="11.50417815"><ele>1749.0</ele><time>2026-05-01T09:43:32.829Z</time></trkpt><trkpt lat="46.36334433333333" lon="11.503965733333333"><ele>1749.0</ele><time>2026-05-01T09:43:33.836Z</time></trkpt><trkpt lat="46.36320141666667" lon="11.503755883333334"><ele>1747.6666666666665</ele><time>2026-05-01T09:43:34.852Z</time></trkpt><trkpt lat="46.36305371666668" lon="11.503554033333334"><ele>1746.3333333333333</ele><time>2026-05-01T09:43:35.862Z</time></trkpt><trkpt lat="46.36291185" lon="11.503369766666665"><ele>1745.0</ele><time>2026-05-01T09:43:36.848Z</time></trkpt><trkpt lat="46.36278793333333" lon="11.5032026"><ele>1748.75</ele><time>2026-05-01T09:43:37.851Z</time></trkpt><trkpt lat="46.36269909999999" lon="11.503040983333335"><ele>1752.5</ele><time>2026-05-01T09:43:38.829Z</time></trkpt><trkpt lat="46.36266076666668" lon="11.502863883333335"><ele>1756.25</ele><time>2026-05-01T09:43:39.834Z</time></trkpt><trkpt lat="46.36266193333333" lon="11.502671750000003"><ele>1760.0</ele><time>2026-05-01T09:43:40.824Z</time></trkpt><trkpt lat="46.36268063333333" lon="11.5024638"><ele>1760.0</ele><time>2026-05-01T09:43:41.827Z</time></trkpt><trkpt lat="46.36269616666667" lon="11.502252766666667"><ele>1760.0</ele><time>2026-05-01T09:43:42.835Z</time></trkpt><trkpt lat="46.36270105" lon="11.502053166666666"><ele>1760.0</ele><time>2026-05-01T09:43:43.852Z</time></trkpt><trkpt lat="46.36268975" lon="11.501876650000002"><ele>1760.0</ele><time>2026-05-01T09:43:44.832Z</time></trkpt><trkpt lat="46.36264538333333" lon="11.501726883333333"><ele>1759.25</ele><time>2026-05-01T09:43:45.843Z</time></trkpt><trkpt lat="46.36256963333333" lon="11.501616416666664"><ele>1758.5</ele><time>2026-05-01T09:43:46.849Z</time></trkpt><trkpt lat="46.36245783333334" lon="11.501553049999998"><ele>1757.75</ele><time>2026-05-01T09:43:47.827Z</time></trkpt><trkpt lat="46.36231856666667" lon="11.50151715"><ele>1757.0</ele><time>2026-05-01T09:43:48.826Z</time></trkpt><trkpt lat="46.36217076086976" lon="11.501459430278597"><ele>1765.0</ele><time>2026-05-01T09:43:49.852Z</time></trkpt><trkpt lat="46.36200564421229" lon="11.50141616177538"><ele>1773.0</ele><time>2026-05-01T09:43:50.829Z</time></trkpt><trkpt lat="46.36182805031948" lon="11.501367689435472"><ele>1781.0</ele><time>2026-05-01T09:43:51.836Z</time></trkpt><trkpt lat="46.361657913212845" lon="11.501289648981802"><ele>1776.6666666666665</ele><time>2026-05-01T09:43:52.85Z</time></trkpt><trkpt lat="46.36149292612953" lon="11.501178486818205"><ele>1772.3333333333335</ele><time>2026-05-01T09:43:53.827Z</time></trkpt><trkpt lat="46.361347781106026" lon="11.501058856693346"><ele>1768.0</ele><time>2026-05-01T09:43:54.847Z</time></trkpt><trkpt lat="46.361222372511754" lon="11.50093848378326"><ele>1775.25</ele><time>2026-05-01T09:43:55.849Z</time></trkpt><trkpt lat="46.361126330694326" lon="11.500835496043804"><ele>1782.5</ele><time>2026-05-01T09:43:56.828Z</time></trkpt><trkpt lat="46.36105869120388" lon="11.500703947233841"><ele>1789.75</ele><time>2026-05-01T09:43:57.836Z</time></trkpt><trkpt lat="46.36101699999999" lon="11.50052228333333"><ele>1797.0</ele><time>2026-05-01T09:43:58.824Z</time></trkpt><trkpt lat="46.36101433333333" lon="11.500298000000003"><ele>1797.0</ele><time>2026-05-01T09:43:59.836Z</time></trkpt><trkpt lat="46.361018316666666" lon="11.500054900000002"><ele>1797.0</ele><time>2026-05-01T09:44:00.836Z</time></trkpt><trkpt lat="46.361017800000006" lon="11.499799866666669"><ele>1797.0</ele><time>2026-05-01T09:44:01.85Z</time></trkpt><trkpt lat="46.361012916666674" lon="11.499543316666665"><ele>1796.0</ele><time>2026-05-01T09:44:02.826Z</time></trkpt><trkpt lat="46.36099966666668" lon="11.4993049"><ele>1795.0</ele><time>2026-05-01T09:44:03.841Z</time></trkpt><trkpt lat="46.36096506666666" lon="11.49908643333333"><ele>1794.0</ele><time>2026-05-01T09:44:04.853Z</time></trkpt><trkpt lat="46.36089835" lon="11.498889266666668"><ele>1794.25</ele><time>2026-05-01T09:44:05.83Z</time></trkpt><trkpt lat="46.360814266666665" lon="11.498708"><ele>1794.5</ele><time>2026-05-01T09:44:06.845Z</time></trkpt><trkpt lat="46.36073103333334" lon="11.498527000000001"><ele>1794.75</ele><time>2026-05-01T09:44:07.824Z</time></trkpt><trkpt lat="46.3606513" lon="11.49834685"><ele>1795.0</ele><time>2026-05-01T09:44:08.828Z</time></trkpt><trkpt lat="46.36057171666666" lon="11.498171100000002"><ele>1797.5</ele><time>2026-05-01T09:44:09.841Z</time></trkpt><trkpt lat="46.36049320000001" lon="11.497999499999999"><ele>1800.0</ele><time>2026-05-01T09:44:10.851Z</time></trkpt><trkpt lat="46.360415983333326" lon="11.497832100000002"><ele>1802.5</ele><time>2026-05-01T09:44:11.829Z</time></trkpt><trkpt lat="46.360341649999995" lon="11.497667383333331"><ele>1805.0</ele><time>2026-05-01T09:44:12.838Z</time></trkpt><trkpt lat="46.36027151666667" lon="11.49750465"><ele>1805.0</ele><time>2026-05-01T09:44:13.85Z</time></trkpt><trkpt lat="46.360201149999995" lon="11.497349899999998"><ele>1805.0</ele><time>2026-05-01T09:44:14.829Z</time></trkpt><trkpt lat="46.3601297" lon="11.497204299999998"><ele>1805.0</ele><time>2026-05-01T09:44:15.838Z</time></trkpt><trkpt lat="46.36004548333334" lon="11.497083466666668"><ele>1805.0</ele><time>2026-05-01T09:44:16.85Z</time></trkpt><trkpt lat="46.359939733333334" lon="11.497000383333333"><ele>1805.0</ele><time>2026-05-01T09:44:17.831Z</time></trkpt><trkpt lat="46.35981499999999" lon="11.496965616666667"><ele>1805.0</ele><time>2026-05-01T09:44:18.835Z</time></trkpt><trkpt lat="46.35967786666667" lon="11.496969466666668"><ele>1805.0</ele><time>2026-05-01T09:44:19.85Z</time></trkpt><trkpt lat="46.359533616666674" lon="11.496989699999999"><ele>1805.0</ele><time>2026-05-01T09:44:20.835Z</time></trkpt><trkpt lat="46.35939288333334" lon="11.497015583333333"><ele>1804.0</ele><time>2026-05-01T09:44:21.845Z</time></trkpt><trkpt lat="46.35925638333333" lon="11.497062666666666"><ele>1803.0</ele><time>2026-05-01T09:44:22.825Z</time></trkpt><trkpt lat="46.35912305" lon="11.497151283333334"><ele>1802.0</ele><time>2026-05-01T09:44:23.829Z</time></trkpt><trkpt lat="46.358997066666674" lon="11.49728406666667"><ele>1801.0</ele><time>2026-05-01T09:44:24.838Z</time></trkpt><trkpt lat="46.358876716666664" lon="11.497438050000001"><ele>1803.25</ele><time>2026-05-01T09:44:25.849Z</time></trkpt><trkpt lat="46.35876493333333" lon="11.497588466666665"><ele>1805.5</ele><time>2026-05-01T09:44:26.827Z</time></trkpt><trkpt lat="46.35865608333334" lon="11.497712533333333"><ele>1807.75</ele><time>2026-05-01T09:44:27.837Z</time></trkpt><trkpt lat="46.358545366666675" lon="11.497781349999999"><ele>1810.0</ele><time>2026-05-01T09:44:28.85Z</time></trkpt><trkpt lat="46.358424183333334" lon="11.497785683333332"><ele>1810.0</ele><time>2026-05-01T09:44:29.83Z</time></trkpt><trkpt lat="46.358298916666676" lon="11.497727483333332"><ele>1810.0</ele><time>2026-05-01T09:44:30.838Z</time></trkpt><trkpt lat="46.358180700000005" lon="11.497616033333335"><ele>1810.0</ele><time>2026-05-01T09:44:31.851Z</time></trkpt><trkpt lat="46.358061933333325" lon="11.497474283333334"><ele>1810.0</ele><time>2026-05-01T09:44:32.829Z</time></trkpt><trkpt lat="46.35793818333333" lon="11.497316766666666"><ele>1809.3333333333335</ele><time>2026-05-01T09:44:33.838Z</time></trkpt><trkpt lat="46.357818650000006" lon="11.4971342"><ele>1808.6666666666665</ele><time>2026-05-01T09:44:34.825Z</time></trkpt><trkpt lat="46.35771338333334" lon="11.496928466666668"><ele>1808.0</ele><time>2026-05-01T09:44:35.837Z</time></trkpt><trkpt lat="46.35762563333333" lon="11.496697366666668"><ele>1808.0</ele><time>2026-05-01T09:44:36.835Z</time></trkpt><trkpt lat="46.35756164785159" lon="11.496449572337688"><ele>1808.0</ele><time>2026-05-01T09:44:37.852Z</time></trkpt><trkpt lat="46.3574750335245" lon="11.49622013287465"><ele>1808.0</ele><time>2026-05-01T09:44:38.828Z</time></trkpt><trkpt lat="46.357354599999994" lon="11.49602825"><ele>1808.6666666666665</ele><time>2026-05-01T09:44:39.858Z</time></trkpt><trkpt lat="46.35724234999999" lon="11.495845266666667"><ele>1809.3333333333335</ele><time>2026-05-01T09:44:40.85Z</time></trkpt><trkpt lat="46.357132" lon="11.495687333333334"><ele>1810.0</ele><time>2026-05-01T09:44:41.83Z</time></trkpt><trkpt lat="46.35702653333333" lon="11.495547"><ele>1811.25</ele><time>2026-05-01T09:44:42.836Z</time></trkpt><trkpt lat="46.35692463333333" lon="11.495428633333333"><ele>1812.5</ele><time>2026-05-01T09:44:43.825Z</time></trkpt><trkpt lat="46.3568268" lon="11.495323716666666"><ele>1813.75</ele><time>2026-05-01T09:44:44.827Z</time></trkpt><trkpt lat="46.35673788333334" lon="11.495220099999997"><ele>1815.0</ele><time>2026-05-01T09:44:45.837Z</time></trkpt><trkpt lat="46.356657383333335" lon="11.495101133333334"><ele>1815.0</ele><time>2026-05-01T09:44:46.85Z</time></trkpt><trkpt lat="46.356581483333336" lon="11.494974466666667"><ele>1815.0</ele><time>2026-05-01T09:44:47.833Z</time></trkpt><trkpt lat="46.35650756666667" lon="11.494837583333334"><ele>1815.0</ele><time>2026-05-01T09:44:48.825Z</time></trkpt><trkpt lat="46.35643285" lon="11.49469985"><ele>1815.0</ele><time>2026-05-01T09:44:49.844Z</time></trkpt><trkpt lat="46.3563596" lon="11.494556599999997"><ele>1814.0</ele><time>2026-05-01T09:44:50.843Z</time></trkpt><trkpt lat="46.35628675" lon="11.494419016666667"><ele>1813.0</ele><time>2026-05-01T09:44:51.825Z</time></trkpt><trkpt lat="46.35620391666666" lon="11.494316849999999"><ele>1812.0</ele><time>2026-05-01T09:44:52.825Z</time></trkpt><trkpt lat="46.356107566666665" lon="11.494264249999999"><ele>1811.0</ele><time>2026-05-01T09:44:53.844Z</time></trkpt><trkpt lat="46.35600595" lon="11.494252233333334"><ele>1810.0</ele><time>2026-05-01T09:44:54.825Z</time></trkpt><trkpt lat="46.3558991" lon="11.494253950000001"><ele>1810.0</ele><time>2026-05-01T09:44:55.823Z</time></trkpt><trkpt lat="46.3557855" lon="11.49425805"><ele>1810.0</ele><time>2026-05-01T09:44:56.849Z</time></trkpt><trkpt lat="46.355670366666665" lon="11.494264033333332"><ele>1810.0</ele><time>2026-05-01T09:44:57.843Z</time></trkpt><trkpt lat="46.35555336666666" lon="11.494270483333333"><ele>1810.0</ele><time>2026-05-01T09:44:58.825Z</time></trkpt><trkpt lat="46.35543573333333" lon="11.494281416666668"><ele>1810.0</ele><time>2026-05-01T09:44:59.843Z</time></trkpt><trkpt lat="46.35531774999999" lon="11.494295"><ele>1810.0</ele><time>2026-05-01T09:45:00.828Z</time></trkpt><trkpt lat="46.3552009" lon="11.494306083333335"><ele>1810.0</ele><time>2026-05-01T09:45:01.838Z</time></trkpt><trkpt lat="46.35509358333334" lon="11.494304549999999"><ele>1810.0</ele><time>2026-05-01T09:45:02.825Z</time></trkpt><trkpt lat="46.35499748333333" lon="11.4942764"><ele>1810.0</ele><time>2026-05-01T09:45:03.825Z</time></trkpt><trkpt lat="46.35491838333334" lon="11.494213816666669"><ele>1810.0</ele><time>2026-05-01T09:45:04.823Z</time></trkpt><trkpt lat="46.354855666666666" lon="11.494117783333335"><ele>1810.0</ele><time>2026-05-01T09:45:05.843Z</time></trkpt><trkpt lat="46.35481561666668" lon="11.49399655"><ele>1810.0</ele><time>2026-05-01T09:45:06.843Z</time></trkpt><trkpt lat="46.35480483333335" lon="11.493860366666668"><ele>1810.0</ele><time>2026-05-01T09:45:07.825Z</time></trkpt><trkpt lat="46.354814066666655" lon="11.493717466666666"><ele>1810.0</ele><time>2026-05-01T09:45:08.846Z</time></trkpt><trkpt lat="46.354826" lon="11.493573666666668"><ele>1809.0</ele><time>2026-05-01T09:45:09.822Z</time></trkpt><trkpt lat="46.3548393" lon="11.493424366666668"><ele>1808.0</ele><time>2026-05-01T09:45:10.826Z</time></trkpt><trkpt lat="46.354847333333325" lon="11.493274283333335"><ele>1807.0</ele><time>2026-05-01T09:45:11.874Z</time></trkpt><trkpt lat="46.354843550000005" lon="11.493128333333335"><ele>1806.0</ele><time>2026-05-01T09:45:12.847Z</time></trkpt><trkpt lat="46.35481683333334" lon="11.492988366666669"><ele>1805.0</ele><time>2026-05-01T09:45:13.825Z</time></trkpt><trkpt lat="46.354767333333335" lon="11.492856666666666"><ele>1804.2</ele><time>2026-05-01T09:45:14.825Z</time></trkpt><trkpt lat="46.35469521666667" lon="11.492754416666667"><ele>1803.4</ele><time>2026-05-01T09:45:15.836Z</time></trkpt><trkpt lat="46.354601900000006" lon="11.492692916666666"><ele>1802.6</ele><time>2026-05-01T09:45:16.837Z</time></trkpt><trkpt lat="46.35450458333333" lon="11.492671900000001"><ele>1801.8</ele><time>2026-05-01T09:45:17.843Z</time></trkpt><trkpt lat="46.35441271666667" lon="11.492700533333334"><ele>1801.0</ele><time>2026-05-01T09:45:18.825Z</time></trkpt><trkpt lat="46.35432558333334" lon="11.492767250000002"><ele>1801.0</ele><time>2026-05-01T09:45:19.824Z</time></trkpt><trkpt lat="46.35424110000001" lon="11.492828783333334"><ele>1801.0</ele><time>2026-05-01T09:45:20.833Z</time></trkpt><trkpt lat="46.35415128333334" lon="11.492856983333334"><ele>1801.0</ele><time>2026-05-01T09:45:21.83Z</time></trkpt><trkpt lat="46.35406445" lon="11.492831916666667"><ele>1801.0</ele><time>2026-05-01T09:45:22.825Z</time></trkpt><trkpt lat="46.354000799999994" lon="11.492750383333336"><ele>1801.0</ele><time>2026-05-01T09:45:23.844Z</time></trkpt><trkpt lat="46.35398090623404" lon="11.492615091760152"><ele>1801.0</ele><time>2026-05-01T09:45:24.848Z</time></trkpt><trkpt lat="46.35393673333333" lon="11.492463483333331"><ele>1801.0</ele><time>2026-05-01T09:45:25.839Z</time></trkpt><trkpt lat="46.35391066666666" lon="11.492281166666665"><ele>1801.0</ele><time>2026-05-01T09:45:26.844Z</time></trkpt><trkpt lat="46.35390986302434" lon="11.49207931919414"><ele>1801.0</ele><time>2026-05-01T09:45:27.825Z</time></trkpt><trkpt lat="46.35387730514611" lon="11.491882785532265"><ele>1796.0</ele><time>2026-05-01T09:45:28.825Z</time></trkpt><trkpt lat="46.35380807960668" lon="11.491704906633482"><ele>1791.0</ele><time>2026-05-01T09:45:29.85Z</time></trkpt><trkpt lat="46.35370943708185" lon="11.491550371442317"><ele>1786.0</ele><time>2026-05-01T09:45:30.827Z</time></trkpt><trkpt lat="46.353592063028096" lon="11.491403692005258"><ele>1781.0</ele><time>2026-05-01T09:45:31.825Z</time></trkpt><trkpt lat="46.35346180762833" lon="11.49125875353545"><ele>1795.3333333333333</ele><time>2026-05-01T09:45:32.844Z</time></trkpt><trkpt lat="46.353312602681356" lon="11.491149695220386"><ele>1809.6666666666665</ele><time>2026-05-01T09:45:33.825Z</time></trkpt><trkpt lat="46.353148023464065" lon="11.491080938902497"><ele>1824.0</ele><time>2026-05-01T09:45:34.84Z</time></trkpt><trkpt lat="46.352977884908796" lon="11.491030831146457"><ele>1825.3333333333335</ele><time>2026-05-01T09:45:35.844Z</time></trkpt><trkpt lat="46.352800254179066" lon="11.49099709562829"><ele>1826.6666666666667</ele><time>2026-05-01T09:45:36.823Z</time></trkpt><trkpt lat="46.35261043631854" lon="11.491005014757981"><ele>1828.0</ele><time>2026-05-01T09:45:37.825Z</time></trkpt><trkpt lat="46.35242847443189" lon="11.491053318510271"><ele>1828.0</ele><time>2026-05-01T09:45:38.825Z</time></trkpt><trkpt lat="46.35224481635409" lon="11.491104068168749"><ele>1828.0</ele><time>2026-05-01T09:45:39.829Z</time></trkpt><trkpt lat="46.35204878843739" lon="11.491156724581185"><ele>1828.0</ele><time>2026-05-01T09:45:40.825Z</time></trkpt><trkpt lat="46.351855149349994" lon="11.491211595349725"><ele>1805.0</ele><time>2026-05-01T09:45:41.844Z</time></trkpt><trkpt lat="46.351673836861494" lon="11.491264972978525"><ele>1782.0</ele><time>2026-05-01T09:45:42.847Z</time></trkpt><trkpt lat="46.351497290862625" lon="11.491314509970296"><ele>1759.0</ele><time>2026-05-01T09:45:43.837Z</time></trkpt><trkpt lat="46.351323938097" lon="11.4913727131737"><ele>1758.6666666666667</ele><time>2026-05-01T09:45:44.847Z</time></trkpt><trkpt lat="46.3511633813774" lon="11.491442659986886"><ele>1758.3333333333335</ele><time>2026-05-01T09:45:45.825Z</time></trkpt><trkpt lat="46.35101359481321" lon="11.491494826494083"><ele>1758.0</ele><time>2026-05-01T09:45:46.825Z</time></trkpt><trkpt lat="46.35086174223057" lon="11.491510681085916"><ele>1758.0</ele><time>2026-05-01T09:45:47.843Z</time></trkpt><trkpt lat="46.35070190245835" lon="11.491513098810454"><ele>1758.0</ele><time>2026-05-01T09:45:48.829Z</time></trkpt><trkpt lat="46.35053482768311" lon="11.491516762721455"><ele>1758.0</ele><time>2026-05-01T09:45:49.823Z</time></trkpt><trkpt lat="46.35036449730125" lon="11.491528133793958"><ele>1752.6666666666665</ele><time>2026-05-01T09:45:50.843Z</time></trkpt><trkpt lat="46.35019834393835" lon="11.491568828372184"><ele>1747.3333333333333</ele><time>2026-05-01T09:45:51.824Z</time></trkpt><trkpt lat="46.350042863552595" lon="11.491577104391105"><ele>1742.0</ele><time>2026-05-01T09:45:52.838Z</time></trkpt><trkpt lat="46.349891831481635" lon="11.491540381367948"><ele>1742.0</ele><time>2026-05-01T09:45:53.842Z</time></trkpt><trkpt lat="46.349754058498924" lon="11.491462271420183"><ele>1742.0</ele><time>2026-05-01T09:45:54.825Z</time></trkpt><trkpt lat="46.3496132014064" lon="11.491341119531487"><ele>1742.0</ele><time>2026-05-01T09:45:55.825Z</time></trkpt><trkpt lat="46.34943787526029" lon="11.491244881939789"><ele>1745.6666666666665</ele><time>2026-05-01T09:45:56.843Z</time></trkpt><trkpt lat="46.349257252740934" lon="11.491174082610687"><ele>1749.3333333333335</ele><time>2026-05-01T09:45:57.824Z</time></trkpt><trkpt lat="46.34906584303648" lon="11.4910999875605"><ele>1753.0</ele><time>2026-05-01T09:45:58.825Z</time></trkpt><trkpt lat="46.34887240312227" lon="11.491008714538738"><ele>1739.3333333333335</ele><time>2026-05-01T09:45:59.845Z</time></trkpt><trkpt lat="46.34868126063109" lon="11.490894463357762"><ele>1725.6666666666665</ele><time>2026-05-01T09:46:00.829Z</time></trkpt><trkpt lat="46.34849901086575" lon="11.490781623871365"><ele>1712.0</ele><time>2026-05-01T09:46:01.839Z</time></trkpt><trkpt lat="46.34833030476452" lon="11.490673429751553"><ele>1712.0</ele><time>2026-05-01T09:46:02.844Z</time></trkpt><trkpt lat="46.348166191525316" lon="11.490566181778771"><ele>1712.0</ele><time>2026-05-01T09:46:03.825Z</time></trkpt><trkpt lat="46.34799982233393" lon="11.490476815884806"><ele>1712.0</ele><time>2026-05-01T09:46:04.826Z</time></trkpt><trkpt lat="46.34784253690149" lon="11.490414450137628"><ele>1713.0</ele><time>2026-05-01T09:46:05.844Z</time></trkpt><trkpt lat="46.347701094450976" lon="11.490356320834715"><ele>1714.0</ele><time>2026-05-01T09:46:06.825Z</time></trkpt><trkpt lat="46.347572539313944" lon="11.490308854118942"><ele>1715.0</ele><time>2026-05-01T09:46:07.825Z</time></trkpt><trkpt lat="46.34746836666666" lon="11.490277366666666"><ele>1716.0</ele><time>2026-05-01T09:46:08.844Z</time></trkpt><trkpt lat="46.34738991666666" lon="11.490184399999999"><ele>1716.0</ele><time>2026-05-01T09:46:09.825Z</time></trkpt><trkpt lat="46.34735586999157" lon="11.490030964600448"><ele>1716.0</ele><time>2026-05-01T09:46:10.826Z</time></trkpt><trkpt lat="46.34730893606426" lon="11.489854113837387"><ele>1716.0</ele><time>2026-05-01T09:46:11.842Z</time></trkpt><trkpt lat="46.34725450428673" lon="11.489653638388546"><ele>1716.0</ele><time>2026-05-01T09:46:12.824Z</time></trkpt><trkpt lat="46.347204140871604" lon="11.489469572512448"><ele>1717.4</ele><time>2026-05-01T09:46:13.825Z</time></trkpt><trkpt lat="46.34716268333333" lon="11.489325183333335"><ele>1718.8</ele><time>2026-05-01T09:46:14.825Z</time></trkpt><trkpt lat="46.34717224999999" lon="11.489186700000001"><ele>1720.2000000000003</ele><time>2026-05-01T09:46:15.825Z</time></trkpt><trkpt lat="46.34720971666667" lon="11.489060933333333"><ele>1721.6000000000001</ele><time>2026-05-01T09:46:16.824Z</time></trkpt><trkpt lat="46.34727141877102" lon="11.488954016757372"><ele>1723.0</ele><time>2026-05-01T09:46:17.842Z</time></trkpt><trkpt lat="46.347307406723395" lon="11.48882889044602"><ele>1721.2</ele><time>2026-05-01T09:46:18.825Z</time></trkpt><trkpt lat="46.34729471666667" lon="11.488700516666666"><ele>1719.4</ele><time>2026-05-01T09:46:19.825Z</time></trkpt><trkpt lat="46.34727323333333" lon="11.48858465"><ele>1717.6000000000001</ele><time>2026-05-01T09:46:20.846Z</time></trkpt><trkpt lat="46.347224866666664" lon="11.488474799999997"><ele>1715.8000000000002</ele><time>2026-05-01T09:46:21.825Z</time></trkpt><trkpt lat="46.34715841666666" lon="11.488376916666667"><ele>1714.0</ele><time>2026-05-01T09:46:22.823Z</time></trkpt><trkpt lat="46.34708006666666" lon="11.488292566666665"><ele>1708.8000000000002</ele><time>2026-05-01T09:46:23.847Z</time></trkpt><trkpt lat="46.3469951" lon="11.488225283333334"><ele>1703.6000000000001</ele><time>2026-05-01T09:46:24.825Z</time></trkpt><trkpt lat="46.34691138254205" lon="11.488148041741539"><ele>1698.4</ele><time>2026-05-01T09:46:25.829Z</time></trkpt><trkpt lat="46.34681824319505" lon="11.488101599896618"><ele>1693.2</ele><time>2026-05-01T09:46:26.842Z</time></trkpt><trkpt lat="46.3467220351217" lon="11.48805545483981"><ele>1688.0</ele><time>2026-05-01T09:46:27.826Z</time></trkpt><trkpt lat="46.346621683333325" lon="11.48803505"><ele>1688.0</ele><time>2026-05-01T09:46:28.825Z</time></trkpt><trkpt lat="46.34653333293191" lon="11.487973328518294"><ele>1688.0</ele><time>2026-05-01T09:46:29.846Z</time></trkpt><trkpt lat="46.3464401504404" lon="11.48793277393802"><ele>1688.0</ele><time>2026-05-01T09:46:30.825Z</time></trkpt><trkpt lat="46.34634849435232" lon="11.487892883693808"><ele>1688.0</ele><time>2026-05-01T09:46:31.825Z</time></trkpt><trkpt lat="46.34626303333333" lon="11.487880299999999"><ele>1688.0</ele><time>2026-05-01T09:46:32.844Z</time></trkpt><trkpt lat="46.346192316666674" lon="11.487849616666665"><ele>1690.1666666666665</ele><time>2026-05-01T09:46:33.844Z</time></trkpt><trkpt lat="46.346125699999995" lon="11.48782268333333"><ele>1692.3333333333333</ele><time>2026-05-01T09:46:34.826Z</time></trkpt><trkpt lat="46.34606133333333" lon="11.487795649999999"><ele>1694.5</ele><time>2026-05-01T09:46:35.844Z</time></trkpt><trkpt lat="46.34595731666666" lon="11.48775645"><ele>1696.6666666666665</ele><time>2026-05-01T09:46:37.841Z</time></trkpt><trkpt lat="46.34588965" lon="11.487733733333334"><ele>1698.8333333333333</ele><time>2026-05-01T09:46:40.835Z</time></trkpt><trkpt lat="46.345761323120186" lon="11.487699231982349"><ele>1701.0</ele><time>2026-05-01T09:46:52.827Z</time></trkpt><trkpt lat="46.34567459812714" lon="11.487711866922675"><ele>1701.0</ele><time>2026-05-01T09:46:53.825Z</time></trkpt><trkpt lat="46.34558197049823" lon="11.487728362271488"><ele>1701.0</ele><time>2026-05-01T09:46:54.825Z</time></trkpt><trkpt lat="46.34549050573475" lon="11.48774456359327"><ele>1701.0</ele><time>2026-05-01T09:46:55.836Z</time></trkpt><trkpt lat="46.34538980000001" lon="11.487770133333333"><ele>1701.0</ele><time>2026-05-01T09:46:56.829Z</time></trkpt><trkpt lat="46.345282883333326" lon="11.487766700000002"><ele>1701.0</ele><time>2026-05-01T09:46:57.848Z</time></trkpt><trkpt lat="46.3451801" lon="11.487771566666666"><ele>1697.6</ele><time>2026-05-01T09:46:58.825Z</time></trkpt><trkpt lat="46.34507981666667" lon="11.487774783333334"><ele>1694.1999999999998</ele><time>2026-05-01T09:46:59.844Z</time></trkpt><trkpt lat="46.34498516666666" lon="11.487785049999998"><ele>1690.8000000000002</ele><time>2026-05-01T09:47:00.847Z</time></trkpt><trkpt lat="46.344890183333334" lon="11.487788733333332"><ele>1687.4</ele><time>2026-05-01T09:47:01.826Z</time></trkpt><trkpt lat="46.34478685000001" lon="11.48776871666667"><ele>1684.0</ele><time>2026-05-01T09:47:02.843Z</time></trkpt><trkpt lat="46.34467225" lon="11.487729316666666"><ele>1677.0</ele><time>2026-05-01T09:47:03.826Z</time></trkpt><trkpt lat="46.344556850000004" lon="11.487664666666669"><ele>1670.0</ele><time>2026-05-01T09:47:04.825Z</time></trkpt><trkpt lat="46.34444555" lon="11.487586633333335"><ele>1663.0</ele><time>2026-05-01T09:47:05.823Z</time></trkpt><trkpt lat="46.34433121666666" lon="11.487508283333332"><ele>1656.0</ele><time>2026-05-01T09:47:06.824Z</time></trkpt><trkpt lat="46.344211216666665" lon="11.487431733333336"><ele>1656.0</ele><time>2026-05-01T09:47:07.825Z</time></trkpt><trkpt lat="46.34408128333333" lon="11.487357799999998"><ele>1656.0</ele><time>2026-05-01T09:47:08.845Z</time></trkpt><trkpt lat="46.34393526666666" lon="11.487295749999998"><ele>1656.0</ele><time>2026-05-01T09:47:09.825Z</time></trkpt><trkpt lat="46.343778166666674" lon="11.487248033333332"><ele>1661.0</ele><time>2026-05-01T09:47:10.824Z</time></trkpt><trkpt lat="46.343621399999996" lon="11.487206883333332"><ele>1666.0</ele><time>2026-05-01T09:47:11.843Z</time></trkpt><trkpt lat="46.343469850000005" lon="11.487155183333336"><ele>1671.0</ele><time>2026-05-01T09:47:12.825Z</time></trkpt><trkpt lat="46.34332378333333" lon="11.487087033333333"><ele>1671.0</ele><time>2026-05-01T09:47:13.825Z</time></trkpt><trkpt lat="46.34318103333334" lon="11.487014116666668"><ele>1671.0</ele><time>2026-05-01T09:47:14.826Z</time></trkpt><trkpt lat="46.34303920000001" lon="11.486932783333335"><ele>1671.0</ele><time>2026-05-01T09:47:15.843Z</time></trkpt><trkpt lat="46.34289408333334" lon="11.486841283333334"><ele>1661.0</ele><time>2026-05-01T09:47:16.827Z</time></trkpt><trkpt lat="46.342745799999996" lon="11.486736483333335"><ele>1651.0</ele><time>2026-05-01T09:47:17.847Z</time></trkpt><trkpt lat="46.342594183333325" lon="11.486633883333331"><ele>1641.0</ele><time>2026-05-01T09:47:18.829Z</time></trkpt><trkpt lat="46.34244857374284" lon="11.486519833293666"><ele>1641.0</ele><time>2026-05-01T09:47:19.823Z</time></trkpt><trkpt lat="46.34228658333333" lon="11.486471850000003"><ele>1641.0</ele><time>2026-05-01T09:47:20.844Z</time></trkpt><trkpt lat="46.342127366666666" lon="11.48641565"><ele>1641.0</ele><time>2026-05-01T09:47:21.826Z</time></trkpt><trkpt lat="46.341980666666664" lon="11.486343600000001"><ele>1642.3333333333335</ele><time>2026-05-01T09:47:22.825Z</time></trkpt><trkpt lat="46.34184100000001" lon="11.4862396"><ele>1643.6666666666667</ele><time>2026-05-01T09:47:23.842Z</time></trkpt><trkpt lat="46.34170306709814" lon="11.48610273685963"><ele>1645.0</ele><time>2026-05-01T09:47:24.825Z</time></trkpt><trkpt lat="46.3415433" lon="11.486025666666666"><ele>1645.0</ele><time>2026-05-01T09:47:25.826Z</time></trkpt><trkpt lat="46.3414003" lon="11.485918333333332"><ele>1645.0</ele><time>2026-05-01T09:47:26.847Z</time></trkpt><trkpt lat="46.341262783333335" lon="11.485777683333332"><ele>1645.0</ele><time>2026-05-01T09:47:27.825Z</time></trkpt><trkpt lat="46.34112083333333" lon="11.4856091"><ele>1642.0</ele><time>2026-05-01T09:47:28.838Z</time></trkpt><trkpt lat="46.34097310000001" lon="11.485433783333333"><ele>1639.0</ele><time>2026-05-01T09:47:29.83Z</time></trkpt><trkpt lat="46.340816983333326" lon="11.485266533333334"><ele>1636.0</ele><time>2026-05-01T09:47:30.826Z</time></trkpt><trkpt lat="46.34065508333333" lon="11.485120116666666"><ele>1623.3333333333335</ele><time>2026-05-01T09:47:31.827Z</time></trkpt><trkpt lat="46.34049309591863" lon="11.484973360445775"><ele>1610.6666666666665</ele><time>2026-05-01T09:47:32.846Z</time></trkpt><trkpt lat="46.34030268333333" lon="11.484919266666669"><ele>1598.0</ele><time>2026-05-01T09:47:33.826Z</time></trkpt><trkpt lat="46.340120116666675" lon="11.484837999999998"><ele>1598.0</ele><time>2026-05-01T09:47:34.825Z</time></trkpt><trkpt lat="46.33994225" lon="11.48474305"><ele>1598.0</ele><time>2026-05-01T09:47:35.844Z</time></trkpt><trkpt lat="46.33977301666667" lon="11.484643149999998"><ele>1598.0</ele><time>2026-05-01T09:47:36.827Z</time></trkpt><trkpt lat="46.33960718333333" lon="11.484560633333334"><ele>1599.0</ele><time>2026-05-01T09:47:37.839Z</time></trkpt><trkpt lat="46.33943914915161" lon="11.484488578635299"><ele>1600.0</ele><time>2026-05-01T09:47:38.829Z</time></trkpt><trkpt lat="46.339276999999996" lon="11.48454983333333"><ele>1601.0</ele><time>2026-05-01T09:47:39.825Z</time></trkpt><trkpt lat="46.33911631666666" lon="11.484627333333334"><ele>1595.6666666666665</ele><time>2026-05-01T09:47:40.824Z</time></trkpt><trkpt lat="46.33895296666666" lon="11.484723716666668"><ele>1590.3333333333335</ele><time>2026-05-01T09:47:41.847Z</time></trkpt><trkpt lat="46.33877328333333" lon="11.484825999999998"><ele>1585.0</ele><time>2026-05-01T09:47:42.826Z</time></trkpt><trkpt lat="46.3385829" lon="11.4849348"><ele>1582.6666666666667</ele><time>2026-05-01T09:47:43.826Z</time></trkpt><trkpt lat="46.33839195" lon="11.485043066666666"><ele>1580.3333333333335</ele><time>2026-05-01T09:47:44.845Z</time></trkpt><trkpt lat="46.33820655" lon="11.485151766666668"><ele>1578.0</ele><time>2026-05-01T09:47:45.826Z</time></trkpt><trkpt lat="46.33802415" lon="11.485256416666667"><ele>1577.6666666666665</ele><time>2026-05-01T09:47:46.828Z</time></trkpt><trkpt lat="46.3378519" lon="11.48534955"><ele>1577.3333333333333</ele><time>2026-05-01T09:47:47.843Z</time></trkpt><trkpt lat="46.33769143333333" lon="11.485408766666668"><ele>1577.0</ele><time>2026-05-01T09:47:48.825Z</time></trkpt><trkpt lat="46.33753781666666" lon="11.485413366666668"><ele>1577.0</ele><time>2026-05-01T09:47:49.825Z</time></trkpt><trkpt lat="46.33739138333334" lon="11.485361250000002"><ele>1577.0</ele><time>2026-05-01T09:47:50.844Z</time></trkpt><trkpt lat="46.337245033333325" lon="11.485265816666669"><ele>1577.0</ele><time>2026-05-01T09:47:51.823Z</time></trkpt><trkpt lat="46.337089150000004" lon="11.485143316666665"><ele>1570.3333333333333</ele><time>2026-05-01T09:47:52.826Z</time></trkpt><trkpt lat="46.33692378333333" lon="11.485009716666665"><ele>1563.6666666666665</ele><time>2026-05-01T09:47:53.844Z</time></trkpt><trkpt lat="46.33674585000001" lon="11.484864383333335"><ele>1557.0</ele><time>2026-05-01T09:47:54.826Z</time></trkpt><trkpt lat="46.33655715" lon="11.484712549999998"><ele>1552.6666666666665</ele><time>2026-05-01T09:47:55.824Z</time></trkpt><trkpt lat="46.3363609" lon="11.484557716666664"><ele>1548.3333333333333</ele><time>2026-05-01T09:47:56.829Z</time></trkpt><trkpt lat="46.33616743333334" lon="11.484402266666665"><ele>1544.0</ele><time>2026-05-01T09:47:57.826Z</time></trkpt><trkpt lat="46.335977666666665" lon="11.484250850000002"><ele>1544.0</ele><time>2026-05-01T09:47:58.825Z</time></trkpt><trkpt lat="46.33579835335937" lon="11.484081312928698"><ele>1544.0</ele><time>2026-05-01T09:47:59.822Z</time></trkpt><trkpt lat="46.33561396515995" lon="11.483932632347395"><ele>1544.0</ele><time>2026-05-01T09:48:00.826Z</time></trkpt><trkpt lat="46.33541789888915" lon="11.483810179484456"><ele>1541.3333333333333</ele><time>2026-05-01T09:48:01.845Z</time></trkpt><trkpt lat="46.33521218094288" lon="11.483709124272895"><ele>1538.6666666666665</ele><time>2026-05-01T09:48:02.845Z</time></trkpt><trkpt lat="46.33500565" lon="11.48365118333333"><ele>1536.0</ele><time>2026-05-01T09:48:03.826Z</time></trkpt><trkpt lat="46.334805733333326" lon="11.483580033333332"><ele>1535.3333333333333</ele><time>2026-05-01T09:48:04.824Z</time></trkpt><trkpt lat="46.33460964999999" lon="11.483535916666664"><ele>1534.6666666666665</ele><time>2026-05-01T09:48:05.824Z</time></trkpt><trkpt lat="46.334413233333336" lon="11.483534550000002"><ele>1534.0</ele><time>2026-05-01T09:48:06.825Z</time></trkpt><trkpt lat="46.334214366666664" lon="11.483577833333333"><ele>1534.0</ele><time>2026-05-01T09:48:07.825Z</time></trkpt><trkpt lat="46.33401288333333" lon="11.483645783333335"><ele>1534.0</ele><time>2026-05-01T09:48:08.844Z</time></trkpt><trkpt lat="46.333816750000004" lon="11.483717516666665"><ele>1534.0</ele><time>2026-05-01T09:48:09.845Z</time></trkpt><trkpt lat="46.333623483333334" lon="11.483791416666667"><ele>1529.0</ele><time>2026-05-01T09:48:10.826Z</time></trkpt><trkpt lat="46.333432499999994" lon="11.483865683333333"><ele>1524.0</ele><time>2026-05-01T09:48:11.844Z</time></trkpt><trkpt lat="46.33324268634301" lon="11.483905263356862"><ele>1519.0</ele><time>2026-05-01T09:48:12.825Z</time></trkpt><trkpt lat="46.33305960185282" lon="11.483964413822752"><ele>1516.3333333333333</ele><time>2026-05-01T09:48:13.84Z</time></trkpt><trkpt lat="46.33287610000001" lon="11.484036083333335"><ele>1513.6666666666667</ele><time>2026-05-01T09:48:14.823Z</time></trkpt><trkpt lat="46.33268078333334" lon="11.484058333333333"><ele>1511.0</ele><time>2026-05-01T09:48:15.825Z</time></trkpt><trkpt lat="46.332475466666665" lon="11.484058816666666"><ele>1511.0</ele><time>2026-05-01T09:48:16.823Z</time></trkpt><trkpt lat="46.33226065" lon="11.484044683333332"><ele>1511.0</ele><time>2026-05-01T09:48:17.844Z</time></trkpt><trkpt lat="46.332040266666674" lon="11.48401995"><ele>1511.0</ele><time>2026-05-01T09:48:18.834Z</time></trkpt><trkpt lat="46.33181641666666" lon="11.483993833333335"><ele>1510.3333333333335</ele><time>2026-05-01T09:48:19.846Z</time></trkpt><trkpt lat="46.33159728333333" lon="11.483957866666666"><ele>1509.6666666666667</ele><time>2026-05-01T09:48:20.844Z</time></trkpt><trkpt lat="46.33138661666666" lon="11.4838976"><ele>1509.0</ele><time>2026-05-01T09:48:21.825Z</time></trkpt><trkpt lat="46.3311959" lon="11.483816716666668"><ele>1504.3333333333333</ele><time>2026-05-01T09:48:22.827Z</time></trkpt><trkpt lat="46.33102866666666" lon="11.483721766666669"><ele>1499.6666666666665</ele><time>2026-05-01T09:48:23.86Z</time></trkpt><trkpt lat="46.33088042698083" lon="11.483620633123671"><ele>1495.0</ele><time>2026-05-01T09:48:24.823Z</time></trkpt><trkpt lat="46.330720434824876" lon="11.483568021002883"><ele>1495.0</ele><time>2026-05-01T09:48:25.823Z</time></trkpt><trkpt lat="46.33056941797426" lon="11.483610630394574"><ele>1495.0</ele><time>2026-05-01T09:48:26.844Z</time></trkpt><trkpt lat="46.33043165" lon="11.483691716666666"><ele>1495.0</ele><time>2026-05-01T09:48:27.834Z</time></trkpt><trkpt lat="46.33029153333333" lon="11.483739016666668"><ele>1495.0</ele><time>2026-05-01T09:48:28.839Z</time></trkpt><trkpt lat="46.33015173333333" lon="11.483750016666667"><ele>1495.3333333333333</ele><time>2026-05-01T09:48:29.847Z</time></trkpt><trkpt lat="46.33001028333333" lon="11.483719933333335"><ele>1495.6666666666667</ele><time>2026-05-01T09:48:30.837Z</time></trkpt><trkpt lat="46.32985378333333" lon="11.483679866666668"><ele>1496.0</ele><time>2026-05-01T09:48:31.827Z</time></trkpt><trkpt lat="46.329684650000004" lon="11.483654049999998"><ele>1496.0</ele><time>2026-05-01T09:48:32.839Z</time></trkpt><trkpt lat="46.329509816666665" lon="11.483660966666667"><ele>1496.0</ele><time>2026-05-01T09:48:33.831Z</time></trkpt><trkpt lat="46.32933273333333" lon="11.483689966666667"><ele>1496.0</ele><time>2026-05-01T09:48:34.824Z</time></trkpt><trkpt lat="46.3291612" lon="11.483731733333332"><ele>1491.0</ele><time>2026-05-01T09:48:35.843Z</time></trkpt><trkpt lat="46.32899479999999" lon="11.483771716666668"><ele>1486.0</ele><time>2026-05-01T09:48:36.844Z</time></trkpt><trkpt lat="46.328835016666666" lon="11.4838065"><ele>1481.0</ele><time>2026-05-01T09:48:37.823Z</time></trkpt><trkpt lat="46.32868011666666" lon="11.483833633333333"><ele>1477.6666666666667</ele><time>2026-05-01T09:48:38.846Z</time></trkpt><trkpt lat="46.32852608333333" lon="11.483831850000001"><ele>1474.3333333333333</ele><time>2026-05-01T09:48:39.834Z</time></trkpt><trkpt lat="46.328379416666664" lon="11.483791450000002"><ele>1471.0</ele><time>2026-05-01T09:48:40.826Z</time></trkpt><trkpt lat="46.3282384" lon="11.483729633333333"><ele>1470.25</ele><time>2026-05-01T09:48:41.822Z</time></trkpt><trkpt lat="46.3280947" lon="11.483684499999999"><ele>1469.5</ele><time>2026-05-01T09:48:42.835Z</time></trkpt><trkpt lat="46.32794990000001" lon="11.483670883333332"><ele>1468.75</ele><time>2026-05-01T09:48:43.826Z</time></trkpt><trkpt lat="46.327809933333334" lon="11.48368325"><ele>1468.0</ele><time>2026-05-01T09:48:44.847Z</time></trkpt><trkpt lat="46.32767036666667" lon="11.483705449999997"><ele>1468.0</ele><time>2026-05-01T09:48:45.824Z</time></trkpt><trkpt lat="46.32752143333334" lon="11.483730949999998"><ele>1468.0</ele><time>2026-05-01T09:48:46.823Z</time></trkpt><trkpt lat="46.32735568333332" lon="11.483755799999999"><ele>1468.0</ele><time>2026-05-01T09:48:47.847Z</time></trkpt><trkpt lat="46.32717436666667" lon="11.48377275"><ele>1463.0</ele><time>2026-05-01T09:48:48.832Z</time></trkpt><trkpt lat="46.32698125" lon="11.483784666666669"><ele>1458.0</ele><time>2026-05-01T09:48:49.824Z</time></trkpt><trkpt lat="46.32677561666666" lon="11.483785066666666"><ele>1453.0</ele><time>2026-05-01T09:48:50.823Z</time></trkpt><trkpt lat="46.326568783333336" lon="11.483787383333333"><ele>1453.6666666666665</ele><time>2026-05-01T09:48:51.828Z</time></trkpt><trkpt lat="46.32637145" lon="11.483817933333333"><ele>1454.3333333333333</ele><time>2026-05-01T09:48:52.826Z</time></trkpt><trkpt lat="46.32617592771332" lon="11.483863354811382"><ele>1455.0</ele><time>2026-05-01T09:48:53.845Z</time></trkpt><trkpt lat="46.32599236666666" lon="11.483983733333332"><ele>1455.0</ele><time>2026-05-01T09:48:54.825Z</time></trkpt><trkpt lat="46.32579655" lon="11.484081366666665"><ele>1455.0</ele><time>2026-05-01T09:48:55.841Z</time></trkpt><trkpt lat="46.32558986666667" lon="11.484158533333334"><ele>1455.0</ele><time>2026-05-01T09:48:56.825Z</time></trkpt><trkpt lat="46.32537250000001" lon="11.48419725"><ele>1452.5</ele><time>2026-05-01T09:48:57.837Z</time></trkpt><trkpt lat="46.325144" lon="11.484210983333332"><ele>1450.0</ele><time>2026-05-01T09:48:58.827Z</time></trkpt><trkpt lat="46.324909866666665" lon="11.484216450000002"><ele>1449.0</ele><time>2026-05-01T09:48:59.845Z</time></trkpt><trkpt lat="46.32468028333332" lon="11.484217466666667"><ele>1448.0</ele><time>2026-05-01T09:49:00.825Z</time></trkpt><trkpt lat="46.32445966666668" lon="11.484223149999998"><ele>1448.0</ele><time>2026-05-01T09:49:01.826Z</time></trkpt><trkpt lat="46.32424723517497" lon="11.484210378536492"><ele>1448.0</ele><time>2026-05-01T09:49:02.844Z</time></trkpt><trkpt lat="46.32404543517796" lon="11.48426317240491"><ele>1448.0</ele><time>2026-05-01T09:49:03.825Z</time></trkpt><trkpt lat="46.323857694941466" lon="11.484328737178199"><ele>1446.3333333333335</ele><time>2026-05-01T09:49:04.84Z</time></trkpt><trkpt lat="46.32367609999999" lon="11.484390783333334"><ele>1444.6666666666667</ele><time>2026-05-01T09:49:05.841Z</time></trkpt><trkpt lat="46.323481099999995" lon="11.484384216666669"><ele>1443.0</ele><time>2026-05-01T09:49:06.823Z</time></trkpt><trkpt lat="46.32328028883533" lon="11.484315350638918"><ele>1443.0</ele><time>2026-05-01T09:49:07.823Z</time></trkpt><trkpt lat="46.32307056666667" lon="11.484290533333334"><ele>1443.0</ele><time>2026-05-01T09:49:08.846Z</time></trkpt><trkpt lat="46.32286441666667" lon="11.484260766666667"><ele>1443.0</ele><time>2026-05-01T09:49:09.825Z</time></trkpt><trkpt lat="46.322664745524634" lon="11.484233052668552"><ele>1440.6666666666667</ele><time>2026-05-01T09:49:10.825Z</time></trkpt><trkpt lat="46.322480399999996" lon="11.484292666666667"><ele>1438.3333333333335</ele><time>2026-05-01T09:49:11.844Z</time></trkpt><trkpt lat="46.32229744999999" lon="11.484308483333333"><ele>1436.0</ele><time>2026-05-01T09:49:12.83Z</time></trkpt><trkpt lat="46.32211975" lon="11.484283533333334"><ele>1434.0</ele><time>2026-05-01T09:49:13.84Z</time></trkpt><trkpt lat="46.321940666666656" lon="11.4842162"><ele>1432.0</ele><time>2026-05-01T09:49:14.844Z</time></trkpt><trkpt lat="46.321753883333336" lon="11.484122766666665"><ele>1430.0</ele><time>2026-05-01T09:49:15.828Z</time></trkpt><trkpt lat="46.32155375000001" lon="11.484028033333335"><ele>1429.3333333333335</ele><time>2026-05-01T09:49:16.826Z</time></trkpt><trkpt lat="46.32135353333333" lon="11.483931883333332"><ele>1428.6666666666667</ele><time>2026-05-01T09:49:17.843Z</time></trkpt><trkpt lat="46.321161883333325" lon="11.483833"><ele>1428.0</ele><time>2026-05-01T09:49:18.824Z</time></trkpt><trkpt lat="46.320981749999994" lon="11.483718283333333"><ele>1427.0</ele><time>2026-05-01T09:49:19.824Z</time></trkpt><trkpt lat="46.3208161" lon="11.483580316666666"><ele>1426.0</ele><time>2026-05-01T09:49:20.844Z</time></trkpt><trkpt lat="46.32065308333334" lon="11.483427033333331"><ele>1425.0</ele><time>2026-05-01T09:49:21.825Z</time></trkpt><trkpt lat="46.32049526666666" lon="11.483265983333334"><ele>1423.0</ele><time>2026-05-01T09:49:22.826Z</time></trkpt><trkpt lat="46.320343116666656" lon="11.48309845"><ele>1421.0</ele><time>2026-05-01T09:49:23.847Z</time></trkpt><trkpt lat="46.32019378333333" lon="11.482906600000002"><ele>1419.0</ele><time>2026-05-01T09:49:24.839Z</time></trkpt><trkpt lat="46.32004441666667" lon="11.482686066666668"><ele>1419.0</ele><time>2026-05-01T09:49:25.826Z</time></trkpt><trkpt lat="46.31988775" lon="11.482453166666668"><ele>1419.0</ele><time>2026-05-01T09:49:26.823Z</time></trkpt><trkpt lat="46.31972385000001" lon="11.482217583333334"><ele>1415.5</ele><time>2026-05-01T09:49:27.825Z</time></trkpt><trkpt lat="46.319554233333335" lon="11.481973133333334"><ele>1412.0</ele><time>2026-05-01T09:49:28.826Z</time></trkpt><trkpt lat="46.319383216666665" lon="11.481719283333332"><ele>1412.0</ele><time>2026-05-01T09:49:29.846Z</time></trkpt><trkpt lat="46.31921255" lon="11.48145895"><ele>1412.0</ele><time>2026-05-01T09:49:30.825Z</time></trkpt><trkpt lat="46.31904133333334" lon="11.481196900000002"><ele>1408.0</ele><time>2026-05-01T09:49:31.823Z</time></trkpt><trkpt lat="46.31886671666666" lon="11.480937850000002"><ele>1404.0</ele><time>2026-05-01T09:49:32.845Z</time></trkpt><trkpt lat="46.31869071666667" lon="11.480686766666667"><ele>1406.0</ele><time>2026-05-01T09:49:33.825Z</time></trkpt><trkpt lat="46.31853089003513" lon="11.48041055855481"><ele>1408.0</ele><time>2026-05-01T09:49:34.827Z</time></trkpt><trkpt lat="46.318366273269675" lon="11.480158528034444"><ele>1408.0</ele><time>2026-05-01T09:49:35.825Z</time></trkpt><trkpt lat="46.31820354098031" lon="11.479919459280802"><ele>1408.0</ele><time>2026-05-01T09:49:36.824Z</time></trkpt><trkpt lat="46.317956933333335" lon="11.47982965"><ele>1406.0</ele><time>2026-05-01T09:49:37.831Z</time></trkpt><trkpt lat="46.31778263333334" lon="11.479663533333332"><ele>1404.0</ele><time>2026-05-01T09:49:38.844Z</time></trkpt><trkpt lat="46.31761714999999" lon="11.4795047"><ele>1402.0</ele><time>2026-05-01T09:49:39.824Z</time></trkpt><trkpt lat="46.31746345" lon="11.479342016666665"><ele>1402.0</ele><time>2026-05-01T09:49:40.824Z</time></trkpt><trkpt lat="46.31732673333333" lon="11.479165083333331"><ele>1402.0</ele><time>2026-05-01T09:49:41.845Z</time></trkpt><trkpt lat="46.31720081666667" lon="11.4789658"><ele>1402.0</ele><time>2026-05-01T09:49:42.825Z</time></trkpt><trkpt lat="46.317081783333336" lon="11.478737833333332"><ele>1398.3333333333333</ele><time>2026-05-01T09:49:43.823Z</time></trkpt><trkpt lat="46.316962100000005" lon="11.47848885"><ele>1394.6666666666667</ele><time>2026-05-01T09:49:44.823Z</time></trkpt><trkpt lat="46.31683465" lon="11.47822013333333"><ele>1391.0</ele><time>2026-05-01T09:49:45.844Z</time></trkpt><trkpt lat="46.31670248333333" lon="11.4779417"><ele>1391.5</ele><time>2026-05-01T09:49:46.826Z</time></trkpt><trkpt lat="46.31656458333334" lon="11.477648949999999"><ele>1392.0</ele><time>2026-05-01T09:49:47.845Z</time></trkpt><trkpt lat="46.31642173333333" lon="11.477345383333333"><ele>1386.0</ele><time>2026-05-01T09:49:48.825Z</time></trkpt><trkpt lat="46.31627298333333" lon="11.477034016666668"><ele>1380.0</ele><time>2026-05-01T09:49:49.84Z</time></trkpt><trkpt lat="46.31612113333334" lon="11.47671955"><ele>1380.0</ele><time>2026-05-01T09:49:50.847Z</time></trkpt><trkpt lat="46.31596553333334" lon="11.476405883333333"><ele>1380.0</ele><time>2026-05-01T09:49:51.825Z</time></trkpt><trkpt lat="46.315815400000005" lon="11.476100350000001"><ele>1380.0</ele><time>2026-05-01T09:49:52.824Z</time></trkpt><trkpt lat="46.31567360000001" lon="11.475805666666668"><ele>1380.0</ele><time>2026-05-01T09:49:53.845Z</time></trkpt><trkpt lat="46.315538833333335" lon="11.475523016666665"><ele>1377.0</ele><time>2026-05-01T09:49:54.836Z</time></trkpt><trkpt lat="46.315411899999994" lon="11.475252816666666"><ele>1374.0</ele><time>2026-05-01T09:49:55.826Z</time></trkpt><trkpt lat="46.3152936" lon="11.474992333333333"><ele>1371.0</ele><time>2026-05-01T09:49:56.844Z</time></trkpt><trkpt lat="46.31519128333333" lon="11.474727266666665"><ele>1373.6666666666667</ele><time>2026-05-01T09:49:57.825Z</time></trkpt><trkpt lat="46.315105949999996" lon="11.474443316666669"><ele>1376.3333333333335</ele><time>2026-05-01T09:49:58.833Z</time></trkpt><trkpt lat="46.3150264" lon="11.474147416666666"><ele>1379.0</ele><time>2026-05-01T09:49:59.862Z</time></trkpt><trkpt lat="46.31494564999999" lon="11.473843966666667"><ele>1381.5</ele><time>2026-05-01T09:50:00.833Z</time></trkpt><trkpt lat="46.314863483333326" lon="11.473532250000002"><ele>1384.0</ele><time>2026-05-01T09:50:01.849Z</time></trkpt><trkpt lat="46.314792483333335" lon="11.473221750000002"><ele>1383.0</ele><time>2026-05-01T09:50:02.844Z</time></trkpt><trkpt lat="46.31474193333334" lon="11.472920766666668"><ele>1382.0</ele><time>2026-05-01T09:50:03.833Z</time></trkpt><trkpt lat="46.314711900000006" lon="11.472632333333335"><ele>1381.0</ele><time>2026-05-01T09:50:04.825Z</time></trkpt><trkpt lat="46.31469076666667" lon="11.47235575"><ele>1378.6666666666665</ele><time>2026-05-01T09:50:05.843Z</time></trkpt><trkpt lat="46.3146578" lon="11.472102416666667"><ele>1376.3333333333333</ele><time>2026-05-01T09:50:06.822Z</time></trkpt><trkpt lat="46.314595" lon="11.471886300000001"><ele>1374.0</ele><time>2026-05-01T09:50:07.833Z</time></trkpt><trkpt lat="46.314499016666666" lon="11.471719383333333"><ele>1374.0</ele><time>2026-05-01T09:50:08.833Z</time></trkpt><trkpt lat="46.31436921666666" lon="11.471596450000002"><ele>1374.0</ele><time>2026-05-01T09:50:09.842Z</time></trkpt><trkpt lat="46.31421725" lon="11.47148645"><ele>1374.0</ele><time>2026-05-01T09:50:10.824Z</time></trkpt><trkpt lat="46.3140541" lon="11.471373649999999"><ele>1373.0</ele><time>2026-05-01T09:50:11.844Z</time></trkpt><trkpt lat="46.31388335" lon="11.471247283333332"><ele>1372.0</ele><time>2026-05-01T09:50:12.845Z</time></trkpt><trkpt lat="46.313722416666664" lon="11.47112235"><ele>1371.0</ele><time>2026-05-01T09:50:13.832Z</time></trkpt><trkpt lat="46.31357785" lon="11.471034133333333"><ele>1371.0</ele><time>2026-05-01T09:50:14.846Z</time></trkpt><trkpt lat="46.31343331666667" lon="11.470996183333332"><ele>1371.0</ele><time>2026-05-01T09:50:15.824Z</time></trkpt><trkpt lat="46.31329026666667" lon="11.471016566666666"><ele>1371.0</ele><time>2026-05-01T09:50:16.824Z</time></trkpt><trkpt lat="46.313158533333336" lon="11.471088599999998"><ele>1371.0</ele><time>2026-05-01T09:50:17.822Z</time></trkpt><trkpt lat="46.31303908333333" lon="11.471168250000002"><ele>1368.4</ele><time>2026-05-01T09:50:18.825Z</time></trkpt><trkpt lat="46.31293278333332" lon="11.471219133333333"><ele>1365.8</ele><time>2026-05-01T09:50:19.823Z</time></trkpt><trkpt lat="46.312837083333335" lon="11.471213233333332"><ele>1363.2</ele><time>2026-05-01T09:50:20.823Z</time></trkpt><trkpt lat="46.31276085" lon="11.471142850000001"><ele>1360.6000000000001</ele><time>2026-05-01T09:50:21.823Z</time></trkpt><trkpt lat="46.31271225000001" lon="11.471019400000001"><ele>1358.0</ele><time>2026-05-01T09:50:22.826Z</time></trkpt><trkpt lat="46.31267463333334" lon="11.470860183333333"><ele>1358.0</ele><time>2026-05-01T09:50:23.844Z</time></trkpt><trkpt lat="46.31261908333333" lon="11.470690533333332"><ele>1358.0</ele><time>2026-05-01T09:50:24.83Z</time></trkpt><trkpt lat="46.31254641666666" lon="11.47051265"><ele>1358.0</ele><time>2026-05-01T09:50:25.825Z</time></trkpt><trkpt lat="46.31250068333334" lon="11.47032105"><ele>1358.0</ele><time>2026-05-01T09:50:26.823Z</time></trkpt><trkpt lat="46.312499916666674" lon="11.470119983333332"><ele>1356.75</ele><time>2026-05-01T09:50:27.839Z</time></trkpt><trkpt lat="46.3125072" lon="11.469925433333334"><ele>1355.5</ele><time>2026-05-01T09:50:28.824Z</time></trkpt><trkpt lat="46.312478899999995" lon="11.46975015"><ele>1354.25</ele><time>2026-05-01T09:50:29.845Z</time></trkpt><trkpt lat="46.3124105" lon="11.46960605"><ele>1353.0</ele><time>2026-05-01T09:50:30.824Z</time></trkpt><trkpt lat="46.31233138333334" lon="11.469478233333332"><ele>1351.5</ele><time>2026-05-01T09:50:31.825Z</time></trkpt><trkpt lat="46.31227958333334" lon="11.46932875"><ele>1350.0</ele><time>2026-05-01T09:50:32.844Z</time></trkpt><trkpt lat="46.31226758333334" lon="11.469146899999998"><ele>1348.5</ele><time>2026-05-01T09:50:33.823Z</time></trkpt><trkpt lat="46.312267066666664" lon="11.4689421"><ele>1347.0</ele><time>2026-05-01T09:50:34.825Z</time></trkpt><trkpt lat="46.31224439999999" lon="11.468728083333334"><ele>1340.75</ele><time>2026-05-01T09:50:35.843Z</time></trkpt><trkpt lat="46.31220696666666" lon="11.468519833333335"><ele>1334.5</ele><time>2026-05-01T09:50:36.825Z</time></trkpt><trkpt lat="46.31218635" lon="11.468319966666664"><ele>1328.25</ele><time>2026-05-01T09:50:37.828Z</time></trkpt><trkpt lat="46.312194600000005" lon="11.46812035"><ele>1322.0</ele><time>2026-05-01T09:50:38.844Z</time></trkpt><trkpt lat="46.3122184" lon="11.467914483333335"><ele>1327.5</ele><time>2026-05-01T09:50:39.833Z</time></trkpt><trkpt lat="46.31224648333333" lon="11.467705766666665"><ele>1333.0</ele><time>2026-05-01T09:50:40.839Z</time></trkpt><trkpt lat="46.312279133333334" lon="11.467503783333333"><ele>1338.5</ele><time>2026-05-01T09:50:41.843Z</time></trkpt><trkpt lat="46.312321739584036" lon="11.46731155"><ele>1344.0</ele><time>2026-05-01T09:50:42.825Z</time></trkpt><trkpt lat="46.312299312713975" lon="11.467125152142431"><ele>1338.5</ele><time>2026-05-01T09:50:43.825Z</time></trkpt><trkpt lat="46.31220376666667" lon="11.466999600000001"><ele>1333.0</ele><time>2026-05-01T09:50:44.845Z</time></trkpt><trkpt lat="46.31209445" lon="11.466905599999999"><ele>1327.5</ele><time>2026-05-01T09:50:45.823Z</time></trkpt><trkpt lat="46.31198131666667" lon="11.466825600000002"><ele>1322.0</ele><time>2026-05-01T09:50:46.824Z</time></trkpt><trkpt lat="46.31190198333334" lon="11.466713599999999"><ele>1322.0</ele><time>2026-05-01T09:50:47.844Z</time></trkpt><trkpt lat="46.3118684" lon="11.466558533333332"><ele>1322.0</ele><time>2026-05-01T09:50:48.832Z</time></trkpt><trkpt lat="46.31187003333333" lon="11.4663822"><ele>1322.0</ele><time>2026-05-01T09:50:49.841Z</time></trkpt><trkpt lat="46.31188641666666" lon="11.466178133333337"><ele>1322.0</ele><time>2026-05-01T09:50:50.837Z</time></trkpt><trkpt lat="46.311901266666666" lon="11.465944466666667"><ele>1320.3333333333335</ele><time>2026-05-01T09:50:51.826Z</time></trkpt><trkpt lat="46.311918" lon="11.465686233333335"><ele>1318.6666666666667</ele><time>2026-05-01T09:50:52.835Z</time></trkpt><trkpt lat="46.31193745" lon="11.465425216666665"><ele>1317.0</ele><time>2026-05-01T09:50:53.843Z</time></trkpt><trkpt lat="46.31194816666667" lon="11.465176616666668"><ele>1313.3333333333333</ele><time>2026-05-01T09:50:54.824Z</time></trkpt><trkpt lat="46.31193751666667" lon="11.464938583333332"><ele>1309.6666666666665</ele><time>2026-05-01T09:50:55.825Z</time></trkpt><trkpt lat="46.3119145" lon="11.464714783333333"><ele>1306.0</ele><time>2026-05-01T09:50:56.845Z</time></trkpt><trkpt lat="46.311889799999996" lon="11.464514550000002"><ele>1304.0</ele><time>2026-05-01T09:50:57.822Z</time></trkpt><trkpt lat="46.31188638333333" lon="11.4643462"><ele>1302.0</ele><time>2026-05-01T09:50:58.827Z</time></trkpt><trkpt lat="46.3119219" lon="11.464194616666669"><ele>1300.0</ele><time>2026-05-01T09:50:59.845Z</time></trkpt><trkpt lat="46.311993550000004" lon="11.46404835"><ele>1298.0</ele><time>2026-05-01T09:51:00.825Z</time></trkpt><trkpt lat="46.312086150000006" lon="11.463892716666665"><ele>1296.75</ele><time>2026-05-01T09:51:01.827Z</time></trkpt><trkpt lat="46.312185433333326" lon="11.46372065"><ele>1295.5</ele><time>2026-05-01T09:51:02.844Z</time></trkpt><trkpt lat="46.312284749999996" lon="11.463556850000003"><ele>1294.25</ele><time>2026-05-01T09:51:03.824Z</time></trkpt><trkpt lat="46.31236286666667" lon="11.463405116666669"><ele>1293.0</ele><time>2026-05-01T09:51:04.824Z</time></trkpt><trkpt lat="46.3123997" lon="11.463245466666667"><ele>1293.25</ele><time>2026-05-01T09:51:05.845Z</time></trkpt><trkpt lat="46.31238513333332" lon="11.463089683333331"><ele>1293.5</ele><time>2026-05-01T09:51:06.825Z</time></trkpt><trkpt lat="46.31232156666667" lon="11.462950866666665"><ele>1293.75</ele><time>2026-05-01T09:51:07.823Z</time></trkpt><trkpt lat="46.31221761666668" lon="11.462822449999999"><ele>1294.0</ele><time>2026-05-01T09:51:08.824Z</time></trkpt><trkpt lat="46.31208565" lon="11.462701333333332"><ele>1294.0</ele><time>2026-05-01T09:51:09.829Z</time></trkpt><trkpt lat="46.311932150000004" lon="11.462592466666667"><ele>1294.0</ele><time>2026-05-01T09:51:10.826Z</time></trkpt><trkpt lat="46.31176651666666" lon="11.462508466666668"><ele>1294.0</ele><time>2026-05-01T09:51:11.846Z</time></trkpt><trkpt lat="46.31160181666668" lon="11.462445266666668"><ele>1294.0</ele><time>2026-05-01T09:51:12.824Z</time></trkpt><trkpt lat="46.31143765" lon="11.462402633333333"><ele>1294.0</ele><time>2026-05-01T09:51:13.843Z</time></trkpt><trkpt lat="46.311276433333326" lon="11.462390833333332"><ele>1294.0</ele><time>2026-05-01T09:51:14.849Z</time></trkpt><trkpt lat="46.31111896666667" lon="11.4624188"><ele>1290.75</ele><time>2026-05-01T09:51:15.823Z</time></trkpt><trkpt lat="46.31097883333333" lon="11.462458383333333"><ele>1287.5</ele><time>2026-05-01T09:51:16.824Z</time></trkpt><trkpt lat="46.31085703333333" lon="11.462473416666667"><ele>1284.25</ele><time>2026-05-01T09:51:17.845Z</time></trkpt><trkpt lat="46.310743833333326" lon="11.462443250000002"><ele>1281.0</ele><time>2026-05-01T09:51:18.822Z</time></trkpt><trkpt lat="46.31063953333334" lon="11.462365916666666"><ele>1278.25</ele><time>2026-05-01T09:51:19.826Z</time></trkpt><trkpt lat="46.31055033333334" lon="11.462250616666665"><ele>1275.5</ele><time>2026-05-01T09:51:20.844Z</time></trkpt><trkpt lat="46.31047146666666" lon="11.4621225"><ele>1272.75</ele><time>2026-05-01T09:51:21.845Z</time></trkpt><trkpt lat="46.31038234999999" lon="11.4620145"><ele>1270.0</ele><time>2026-05-01T09:51:22.845Z</time></trkpt><trkpt lat="46.3102741" lon="11.461946366666666"><ele>1270.0</ele><time>2026-05-01T09:51:23.843Z</time></trkpt><trkpt lat="46.31014956666666" lon="11.461943633333332"><ele>1270.0</ele><time>2026-05-01T09:51:24.824Z</time></trkpt><trkpt lat="46.310028716666665" lon="11.4620137"><ele>1270.0</ele><time>2026-05-01T09:51:25.845Z</time></trkpt><trkpt lat="46.30991846666667" lon="11.462147199999999"><ele>1270.0</ele><time>2026-05-01T09:51:26.824Z</time></trkpt><trkpt lat="46.309825249999996" lon="11.462320399999998"><ele>1270.0</ele><time>2026-05-01T09:51:27.825Z</time></trkpt><trkpt lat="46.30974293333333" lon="11.462491383333335"><ele>1270.0</ele><time>2026-05-01T09:51:28.823Z</time></trkpt><trkpt lat="46.30966063333333" lon="11.462654166666669"><ele>1270.0</ele><time>2026-05-01T09:51:29.847Z</time></trkpt><trkpt lat="46.309566133333334" lon="11.462799416666668"><ele>1270.0</ele><time>2026-05-01T09:51:30.827Z</time></trkpt><trkpt lat="46.3094494" lon="11.46289525"><ele>1267.0</ele><time>2026-05-01T09:51:31.84Z</time></trkpt><trkpt lat="46.30931895" lon="11.462931433333333"><ele>1264.0</ele><time>2026-05-01T09:51:32.843Z</time></trkpt><trkpt lat="46.30919018333334" lon="11.462917049999998"><ele>1261.0</ele><time>2026-05-01T09:51:33.825Z</time></trkpt><trkpt lat="46.30906945" lon="11.462861816666669"><ele>1258.0</ele><time>2026-05-01T09:51:34.829Z</time></trkpt><trkpt lat="46.30896695" lon="11.46276785"><ele>1254.5</ele><time>2026-05-01T09:51:35.86Z</time></trkpt><trkpt lat="46.30890320228495" lon="11.46262796654288"><ele>1251.0</ele><time>2026-05-01T09:51:36.827Z</time></trkpt><trkpt lat="46.30884223608011" lon="11.462484669788493"><ele>1247.5</ele><time>2026-05-01T09:51:37.823Z</time></trkpt><trkpt lat="46.308780924585506" lon="11.46233586160947"><ele>1244.0</ele><time>2026-05-01T09:51:38.846Z</time></trkpt><trkpt lat="46.30872226529472" lon="11.46219108079685"><ele>1243.0</ele><time>2026-05-01T09:51:39.837Z</time></trkpt><trkpt lat="46.30866605466722" lon="11.46204376270334"><ele>1242.0</ele><time>2026-05-01T09:51:40.849Z</time></trkpt><trkpt lat="46.30860366892055" lon="11.461900801571526"><ele>1241.0</ele><time>2026-05-01T09:51:41.845Z</time></trkpt><trkpt lat="46.308535814091755" lon="11.46177365435499"><ele>1240.0</ele><time>2026-05-01T09:51:42.822Z</time></trkpt><trkpt lat="46.30845804531259" lon="11.461657406594247"><ele>1240.0</ele><time>2026-05-01T09:51:43.826Z</time></trkpt><trkpt lat="46.30837853661447" lon="11.461549990778051"><ele>1240.0</ele><time>2026-05-01T09:51:44.83Z</time></trkpt><trkpt lat="46.30830183461062" lon="11.461448153057603"><ele>1240.0</ele><time>2026-05-01T09:51:45.829Z</time></trkpt><trkpt lat="46.30822735557958" lon="11.461349517508332"><ele>1240.0</ele><time>2026-05-01T09:51:46.833Z</time></trkpt><trkpt lat="46.3081545664883" lon="11.46125312008216"><ele>1240.0</ele><time>2026-05-01T09:51:47.848Z</time></trkpt><trkpt lat="46.30808094591707" lon="11.461154281111034"><ele>1237.0</ele><time>2026-05-01T09:51:48.847Z</time></trkpt><trkpt lat="46.30800267342996" lon="11.461053946535841"><ele>1234.0</ele><time>2026-05-01T09:51:49.847Z</time></trkpt><trkpt lat="46.30792886945112" lon="11.460946497783683"><ele>1231.0</ele><time>2026-05-01T09:51:50.845Z</time></trkpt><trkpt lat="46.307861209593646" lon="11.460826403228221"><ele>1228.0</ele><time>2026-05-01T09:51:51.827Z</time></trkpt><trkpt lat="46.307808084973146" lon="11.460694266389806"><ele>1225.0</ele><time>2026-05-01T09:51:52.828Z</time></trkpt><trkpt lat="46.30777496863447" lon="11.460552233196852"><ele>1225.0</ele><time>2026-05-01T09:51:53.823Z</time></trkpt><trkpt lat="46.307752387019306" lon="11.460408961261228"><ele>1225.0</ele><time>2026-05-01T09:51:54.828Z</time></trkpt><trkpt lat="46.307737324372454" lon="11.460254944859635"><ele>1225.0</ele><time>2026-05-01T09:51:55.822Z</time></trkpt><trkpt lat="46.30770777381629" lon="11.460096864745875"><ele>1225.0</ele><time>2026-05-01T09:51:56.844Z</time></trkpt><trkpt lat="46.30764574851895" lon="11.459964202247713"><ele>1225.0</ele><time>2026-05-01T09:51:57.824Z</time></trkpt><trkpt lat="46.3075726547688" lon="11.459854212044014"><ele>1225.0</ele><time>2026-05-01T09:51:58.839Z</time></trkpt><trkpt lat="46.30747930000001" lon="11.459766933333334"><ele>1225.0</ele><time>2026-05-01T09:51:59.849Z</time></trkpt><trkpt lat="46.30739220000001" lon="11.459661083333334"><ele>1225.0</ele><time>2026-05-01T09:52:00.831Z</time></trkpt><trkpt lat="46.307306783333324" lon="11.459557316666666"><ele>1225.0</ele><time>2026-05-01T09:52:01.826Z</time></trkpt><trkpt lat="46.30724223535672" lon="11.45943696287428"><ele>1225.0</ele><time>2026-05-01T09:52:02.823Z</time></trkpt><trkpt lat="46.30717950139188" lon="11.459323057569424"><ele>1221.8</ele><time>2026-05-01T09:52:03.827Z</time></trkpt><trkpt lat="46.307116419853976" lon="11.459204856611926"><ele>1218.6</ele><time>2026-05-01T09:52:04.824Z</time></trkpt><trkpt lat="46.30703001625162" lon="11.459105143805767"><ele>1215.4</ele><time>2026-05-01T09:52:05.825Z</time></trkpt><trkpt lat="46.306949863365766" lon="11.459022230407193"><ele>1212.2</ele><time>2026-05-01T09:52:06.826Z</time></trkpt><trkpt lat="46.30686253333333" lon="11.45896145"><ele>1209.0</ele><time>2026-05-01T09:52:07.838Z</time></trkpt><trkpt lat="46.30678338333334" lon="11.458877183333334"><ele>1209.0</ele><time>2026-05-01T09:52:08.846Z</time></trkpt><trkpt lat="46.30670246666667" lon="11.458794150000003"><ele>1209.0</ele><time>2026-05-01T09:52:09.827Z</time></trkpt><trkpt lat="46.30662218333334" lon="11.458717116666667"><ele>1209.0</ele><time>2026-05-01T09:52:10.824Z</time></trkpt><trkpt lat="46.306541233333334" lon="11.458640133333331"><ele>1209.0</ele><time>2026-05-01T09:52:11.846Z</time></trkpt><trkpt lat="46.30645761666667" lon="11.458568716666665"><ele>1209.0</ele><time>2026-05-01T09:52:12.829Z</time></trkpt><trkpt lat="46.30637728306102" lon="11.458486614424473"><ele>1207.0</ele><time>2026-05-01T09:52:13.827Z</time></trkpt><trkpt lat="46.30628544441467" lon="11.458438154893445"><ele>1205.0</ele><time>2026-05-01T09:52:14.849Z</time></trkpt><trkpt lat="46.30618968077257" lon="11.458407946580431"><ele>1203.0</ele><time>2026-05-01T09:52:15.825Z</time></trkpt><trkpt lat="46.30609246666666" lon="11.458414966666666"><ele>1201.0</ele><time>2026-05-01T09:52:16.84Z</time></trkpt><trkpt lat="46.305996888388584" lon="11.458377867295324"><ele>1199.0</ele><time>2026-05-01T09:52:17.852Z</time></trkpt><trkpt lat="46.30589977314111" lon="11.45836143338316"><ele>1199.0</ele><time>2026-05-01T09:52:18.824Z</time></trkpt><trkpt lat="46.30581012185116" lon="11.458333971365512"><ele>1199.0</ele><time>2026-05-01T09:52:19.827Z</time></trkpt><trkpt lat="46.30572618896338" lon="11.458291157541131"><ele>1199.0</ele><time>2026-05-01T09:52:20.846Z</time></trkpt><trkpt lat="46.30564242594419" lon="11.458241516286026"><ele>1199.0</ele><time>2026-05-01T09:52:21.824Z</time></trkpt><trkpt lat="46.30556391575347" lon="11.458184269634"><ele>1199.0</ele><time>2026-05-01T09:52:22.823Z</time></trkpt><trkpt lat="46.30549213995767" lon="11.45811482722055"><ele>1199.0</ele><time>2026-05-01T09:52:23.868Z</time></trkpt><trkpt lat="46.30542523352465" lon="11.45804147937047"><ele>1197.3333333333335</ele><time>2026-05-01T09:52:24.825Z</time></trkpt><trkpt lat="46.30536350569218" lon="11.457956881997081"><ele>1195.6666666666667</ele><time>2026-05-01T09:52:25.84Z</time></trkpt><trkpt lat="46.305316767883966" lon="11.457872974482376"><ele>1194.0</ele><time>2026-05-01T09:52:26.844Z</time></trkpt><trkpt lat="46.305280936632755" lon="11.457771685076898"><ele>1192.3333333333333</ele><time>2026-05-01T09:52:27.83Z</time></trkpt><trkpt lat="46.30525452902161" lon="11.457651509175768"><ele>1190.6666666666665</ele><time>2026-05-01T09:52:28.826Z</time></trkpt><trkpt lat="46.30523167189481" lon="11.457511202276816"><ele>1189.0</ele><time>2026-05-01T09:52:29.847Z</time></trkpt><trkpt lat="46.305208078725826" lon="11.457356361600349"><ele>1189.0</ele><time>2026-05-01T09:52:30.824Z</time></trkpt><trkpt lat="46.30518589545043" lon="11.457195255638377"><ele>1189.0</ele><time>2026-05-01T09:52:31.826Z</time></trkpt><trkpt lat="46.30516147852451" lon="11.457031372843412"><ele>1189.0</ele><time>2026-05-01T09:52:32.845Z</time></trkpt><trkpt lat="46.30512523909329" lon="11.45687896505063"><ele>1189.0</ele><time>2026-05-01T09:52:33.846Z</time></trkpt><trkpt lat="46.30505789097025" lon="11.456753639178475"><ele>1189.6000000000001</ele><time>2026-05-01T09:52:34.827Z</time></trkpt><trkpt lat="46.304970880716105" lon="11.456682426461233"><ele>1190.2</ele><time>2026-05-01T09:52:35.822Z</time></trkpt><trkpt lat="46.30487256525154" lon="11.456659916049466"><ele>1190.8000000000002</ele><time>2026-05-01T09:52:36.824Z</time></trkpt><trkpt lat="46.30477395222315" lon="11.456643302114289"><ele>1191.4</ele><time>2026-05-01T09:52:37.828Z</time></trkpt><trkpt lat="46.3046726047882" lon="11.456628073704191"><ele>1192.0</ele><time>2026-05-01T09:52:38.823Z</time></trkpt><trkpt lat="46.30457441563657" lon="11.456614264247543"><ele>1189.0</ele><time>2026-05-01T09:52:39.824Z</time></trkpt><trkpt lat="46.30447063333333" lon="11.45663195"><ele>1186.0</ele><time>2026-05-01T09:52:40.827Z</time></trkpt><trkpt lat="46.30437529999999" lon="11.456604583333336"><ele>1183.0</ele><time>2026-05-01T09:52:41.846Z</time></trkpt><trkpt lat="46.30428356666666" lon="11.4565625"><ele>1180.0</ele><time>2026-05-01T09:52:42.826Z</time></trkpt><trkpt lat="46.30419093333334" lon="11.456521966666665"><ele>1177.0</ele><time>2026-05-01T09:52:43.827Z</time></trkpt><trkpt lat="46.30410733088179" lon="11.456417387043249"><ele>1177.0</ele><time>2026-05-01T09:52:44.847Z</time></trkpt><trkpt lat="46.30401400735064" lon="11.45637822906381"><ele>1177.0</ele><time>2026-05-01T09:52:45.827Z</time></trkpt><trkpt lat="46.30392919690577" lon="11.45634432033954"><ele>1177.0</ele><time>2026-05-01T09:52:46.827Z</time></trkpt><trkpt lat="46.30385414542257" lon="11.456315210551583"><ele>1177.0</ele><time>2026-05-01T09:52:47.825Z</time></trkpt><trkpt lat="46.303792664211706" lon="11.456286290703337"><ele>1177.0</ele><time>2026-05-01T09:52:48.825Z</time></trkpt><trkpt lat="46.30373242825567" lon="11.45625364786213"><ele>1177.0</ele><time>2026-05-01T09:52:49.835Z</time></trkpt><trkpt lat="46.303668150269466" lon="11.45621421972567"><ele>1176.4285714285716</ele><time>2026-05-01T09:52:50.847Z</time></trkpt><trkpt lat="46.30359573333333" lon="11.45618486666667"><ele>1175.857142857143</ele><time>2026-05-01T09:52:51.823Z</time></trkpt><trkpt lat="46.30353173333334" lon="11.456131683333336"><ele>1175.2857142857142</ele><time>2026-05-01T09:52:52.824Z</time></trkpt><trkpt lat="46.303475007238724" lon="11.456062554671915"><ele>1174.7142857142858</ele><time>2026-05-01T09:52:53.844Z</time></trkpt><trkpt lat="46.30340997662905" lon="11.456012653178195"><ele>1174.142857142857</ele><time>2026-05-01T09:52:54.825Z</time></trkpt><trkpt lat="46.30334463863758" lon="11.455966937211565"><ele>1173.5714285714287</ele><time>2026-05-01T09:52:55.827Z</time></trkpt><trkpt lat="46.30327359286366" lon="11.455936358560747"><ele>1173.0</ele><time>2026-05-01T09:52:56.844Z</time></trkpt><trkpt lat="46.30320473333333" lon="11.455926483333332"><ele>1173.0</ele><time>2026-05-01T09:52:57.848Z</time></trkpt><trkpt lat="46.30313400537274" lon="11.455882944184896"><ele>1173.0</ele><time>2026-05-01T09:52:58.831Z</time></trkpt><trkpt lat="46.30305751037079" lon="11.455858692758637"><ele>1173.0</ele><time>2026-05-01T09:52:59.847Z</time></trkpt><trkpt lat="46.30298037213844" lon="11.455840494586049"><ele>1173.0</ele><time>2026-05-01T09:53:00.826Z</time></trkpt><trkpt lat="46.30290616666666" lon="11.455899516666666"><ele>1173.0</ele><time>2026-05-01T09:53:01.843Z</time></trkpt><trkpt lat="46.3028409" lon="11.45592315"><ele>1173.0</ele><time>2026-05-01T09:53:02.845Z</time></trkpt><trkpt lat="46.30277741666667" lon="11.455898483333332"><ele>1171.0</ele><time>2026-05-01T09:53:03.831Z</time></trkpt><trkpt lat="46.302726699999994" lon="11.455841183333334"><ele>1169.0</ele><time>2026-05-01T09:53:04.825Z</time></trkpt><trkpt lat="46.302703916666665" lon="11.45575533333333"><ele>1167.0</ele><time>2026-05-01T09:53:05.824Z</time></trkpt><trkpt lat="46.302716233333335" lon="11.455652933333333"><ele>1165.0</ele><time>2026-05-01T09:53:06.834Z</time></trkpt><trkpt lat="46.30275261666667" lon="11.4555728"><ele>1163.0</ele><time>2026-05-01T09:53:07.835Z</time></trkpt><trkpt lat="46.30285773333333" lon="11.45548825"><ele>1161.0</ele><time>2026-05-01T09:53:09.827Z</time></trkpt><trkpt lat="46.30291676666668" lon="11.455446566666668"><ele>1160.0</ele><time>2026-05-01T09:53:10.836Z</time></trkpt><trkpt lat="46.30297856666666" lon="11.455400866666666"><ele>1159.0</ele><time>2026-05-01T09:53:11.861Z</time></trkpt><trkpt lat="46.30304041666667" lon="11.455339166666667"><ele>1158.0</ele><time>2026-05-01T09:53:12.825Z</time></trkpt><trkpt lat="46.303101983333335" lon="11.455251283333334"><ele>1157.0</ele><time>2026-05-01T09:53:13.828Z</time></trkpt><trkpt lat="46.30315706666667" lon="11.455141166666666"><ele>1156.0</ele><time>2026-05-01T09:53:14.847Z</time></trkpt><trkpt lat="46.30319996666667" lon="11.455015883333333"><ele>1155.0</ele><time>2026-05-01T09:53:15.826Z</time></trkpt><trkpt lat="46.30321706666667" lon="11.454883383333332"><ele>1155.2</ele><time>2026-05-01T09:53:16.825Z</time></trkpt><trkpt lat="46.30322606515756" lon="11.454740045734363"><ele>1155.4</ele><time>2026-05-01T09:53:17.846Z</time></trkpt><trkpt lat="46.30320852911802" lon="11.45458685818063"><ele>1155.6</ele><time>2026-05-01T09:53:18.823Z</time></trkpt><trkpt lat="46.3031702946418" lon="11.45443964644827"><ele>1155.8</ele><time>2026-05-01T09:53:19.836Z</time></trkpt><trkpt lat="46.30310100810183" lon="11.45431390572543"><ele>1156.0</ele><time>2026-05-01T09:53:20.831Z</time></trkpt><trkpt lat="46.30301001666667" lon="11.45422215"><ele>1156.0</ele><time>2026-05-01T09:53:21.843Z</time></trkpt><trkpt lat="46.30292801666666" lon="11.454110166666664"><ele>1156.0</ele><time>2026-05-01T09:53:22.825Z</time></trkpt><trkpt lat="46.302841566666665" lon="11.453999566666669"><ele>1156.0</ele><time>2026-05-01T09:53:23.845Z</time></trkpt><trkpt lat="46.30274848333334" lon="11.453878983333334"><ele>1156.0</ele><time>2026-05-01T09:53:24.825Z</time></trkpt><trkpt lat="46.30265955" lon="11.453731883333335"><ele>1161.0</ele><time>2026-05-01T09:53:25.827Z</time></trkpt><trkpt lat="46.30257486666666" lon="11.453575366666666"><ele>1166.0</ele><time>2026-05-01T09:53:26.827Z</time></trkpt><trkpt lat="46.30248243333334" lon="11.453440233333334"><ele>1171.0</ele><time>2026-05-01T09:53:27.827Z</time></trkpt><trkpt lat="46.30237981666668" lon="11.453311133333333"><ele>1176.0</ele><time>2026-05-01T09:53:28.834Z</time></trkpt><trkpt lat="46.302257" lon="11.453202883333333"><ele>1173.0</ele><time>2026-05-01T09:53:29.823Z</time></trkpt><trkpt lat="46.30211643333333" lon="11.453136300000002"><ele>1170.0</ele><time>2026-05-01T09:53:30.823Z</time></trkpt><trkpt lat="46.30197651666668" lon="11.453103849999998"><ele>1167.0</ele><time>2026-05-01T09:53:31.822Z</time></trkpt><trkpt lat="46.30184748333333" lon="11.45308395"><ele>1164.0</ele><time>2026-05-01T09:53:32.845Z</time></trkpt><trkpt lat="46.301729666666674" lon="11.453085633333334"><ele>1164.0</ele><time>2026-05-01T09:53:33.825Z</time></trkpt><trkpt lat="46.301612616666674" lon="11.453110516666667"><ele>1164.0</ele><time>2026-05-01T09:53:34.831Z</time></trkpt><trkpt lat="46.30149656666668" lon="11.453160099999998"><ele>1164.0</ele><time>2026-05-01T09:53:35.824Z</time></trkpt><trkpt lat="46.30138416666667" lon="11.453210466666667"><ele>1164.0</ele><time>2026-05-01T09:53:36.825Z</time></trkpt><trkpt lat="46.30128644999999" lon="11.453234433333334"><ele>1163.6000000000001</ele><time>2026-05-01T09:53:37.827Z</time></trkpt><trkpt lat="46.301203216666664" lon="11.453222850000001"><ele>1163.2</ele><time>2026-05-01T09:53:38.824Z</time></trkpt><trkpt lat="46.301132083333336" lon="11.453172216666667"><ele>1162.8000000000002</ele><time>2026-05-01T09:53:39.844Z</time></trkpt><trkpt lat="46.301070349999996" lon="11.453081100000002"><ele>1162.4</ele><time>2026-05-01T09:53:40.826Z</time></trkpt><trkpt lat="46.301011083333336" lon="11.452971366666667"><ele>1162.0</ele><time>2026-05-01T09:53:41.822Z</time></trkpt><trkpt lat="46.30095106666666" lon="11.452846033333334"><ele>1162.0</ele><time>2026-05-01T09:53:42.845Z</time></trkpt><trkpt lat="46.300885083333334" lon="11.452702299999999"><ele>1162.0</ele><time>2026-05-01T09:53:43.824Z</time></trkpt><trkpt lat="46.30081423333333" lon="11.45254216666667"><ele>1162.0</ele><time>2026-05-01T09:53:44.844Z</time></trkpt><trkpt lat="46.30074443333333" lon="11.452382833333335"><ele>1162.0</ele><time>2026-05-01T09:53:45.823Z</time></trkpt><trkpt lat="46.300678783333325" lon="11.452229133333333"><ele>1162.6</ele><time>2026-05-01T09:53:46.836Z</time></trkpt><trkpt lat="46.3006155" lon="11.452086499999998"><ele>1163.2</ele><time>2026-05-01T09:53:47.847Z</time></trkpt><trkpt lat="46.30054911666666" lon="11.451951699999999"><ele>1163.8</ele><time>2026-05-01T09:53:48.824Z</time></trkpt><trkpt lat="46.30047858333334" lon="11.4518286"><ele>1164.4</ele><time>2026-05-01T09:53:49.824Z</time></trkpt><trkpt lat="46.30039766666667" lon="11.451737249999999"><ele>1165.0</ele><time>2026-05-01T09:53:50.824Z</time></trkpt><trkpt lat="46.300307116666666" lon="11.451693933333337"><ele>1163.0</ele><time>2026-05-01T09:53:51.823Z</time></trkpt><trkpt lat="46.30021165" lon="11.4516974"><ele>1161.0</ele><time>2026-05-01T09:53:52.84Z</time></trkpt><trkpt lat="46.30011765" lon="11.451755583333332"><ele>1159.0</ele><time>2026-05-01T09:53:53.83Z</time></trkpt><trkpt lat="46.30001969816363" lon="11.451847109331949"><ele>1157.0</ele><time>2026-05-01T09:53:54.834Z</time></trkpt><trkpt lat="46.299959533333336" lon="11.452012833333333"><ele>1155.0</ele><time>2026-05-01T09:53:55.825Z</time></trkpt><trkpt lat="46.29988951666666" lon="11.4521931"><ele>1153.6666666666667</ele><time>2026-05-01T09:53:56.846Z</time></trkpt><trkpt lat="46.299819750000005" lon="11.452385499999998"><ele>1152.3333333333335</ele><time>2026-05-01T09:53:57.827Z</time></trkpt><trkpt lat="46.299746916666656" lon="11.452586033333334"><ele>1151.0</ele><time>2026-05-01T09:53:58.837Z</time></trkpt><trkpt lat="46.29967583333334" lon="11.452778450000002"><ele>1145.0</ele><time>2026-05-01T09:53:59.848Z</time></trkpt><trkpt lat="46.2995913206501" lon="11.452958843822692"><ele>1139.0</ele><time>2026-05-01T09:54:00.831Z</time></trkpt><trkpt lat="46.299519888269785" lon="11.453153452217558"><ele>1133.0</ele><time>2026-05-01T09:54:01.841Z</time></trkpt><trkpt lat="46.299448546210925" lon="11.453351561662572"><ele>1133.0</ele><time>2026-05-01T09:54:02.827Z</time></trkpt><trkpt lat="46.29937595457846" lon="11.453556163427633"><ele>1133.0</ele><time>2026-05-01T09:54:03.824Z</time></trkpt><trkpt lat="46.29930907118775" lon="11.453767716348372"><ele>1133.0</ele><time>2026-05-01T09:54:04.825Z</time></trkpt><trkpt lat="46.29925237838509" lon="11.453989914588073"><ele>1133.6666666666667</ele><time>2026-05-01T09:54:05.846Z</time></trkpt><trkpt lat="46.2992094106291" lon="11.454227492669986"><ele>1134.3333333333333</ele><time>2026-05-01T09:54:06.825Z</time></trkpt><trkpt lat="46.29917542752778" lon="11.454481567992325"><ele>1135.0</ele><time>2026-05-01T09:54:07.83Z</time></trkpt><trkpt lat="46.299146336197225" lon="11.454749754329056"><ele>1133.6666666666665</ele><time>2026-05-01T09:54:08.825Z</time></trkpt><trkpt lat="46.2991180827118" lon="11.455032931407773"><ele>1132.3333333333333</ele><time>2026-05-01T09:54:09.825Z</time></trkpt><trkpt lat="46.299089346055645" lon="11.455314756307462"><ele>1131.0</ele><time>2026-05-01T09:54:10.832Z</time></trkpt><trkpt lat="46.299061397595054" lon="11.45558753632259"><ele>1129.6666666666667</ele><time>2026-05-01T09:54:11.826Z</time></trkpt><trkpt lat="46.299034746156536" lon="11.455846918251757"><ele>1128.3333333333335</ele><time>2026-05-01T09:54:12.824Z</time></trkpt><trkpt lat="46.299008019338" lon="11.45610283418924"><ele>1127.0</ele><time>2026-05-01T09:54:13.831Z</time></trkpt><trkpt lat="46.29898225693446" lon="11.456349515573777"><ele>1126.6666666666667</ele><time>2026-05-01T09:54:14.847Z</time></trkpt><trkpt lat="46.2989568474058" lon="11.456592818180583"><ele>1126.3333333333333</ele><time>2026-05-01T09:54:15.824Z</time></trkpt><trkpt lat="46.29894661666667" lon="11.456839783333331"><ele>1126.0</ele><time>2026-05-01T09:54:16.825Z</time></trkpt><trkpt lat="46.29892145" lon="11.457070949999997"><ele>1121.5</ele><time>2026-05-01T09:54:17.845Z</time></trkpt><trkpt lat="46.298899116666675" lon="11.457280483333333"><ele>1117.0</ele><time>2026-05-01T09:54:18.846Z</time></trkpt><trkpt lat="46.2988623934675" lon="11.457462678768016"><ele>1112.5</ele><time>2026-05-01T09:54:19.826Z</time></trkpt><trkpt lat="46.29884321666667" lon="11.457623966666665"><ele>1108.0</ele><time>2026-05-01T09:54:20.824Z</time></trkpt><trkpt lat="46.298764063843024" lon="11.457700390831318"><ele>1108.0</ele><time>2026-05-01T09:54:21.823Z</time></trkpt><trkpt lat="46.29868296666667" lon="11.457752166666667"><ele>1108.0</ele><time>2026-05-01T09:54:22.825Z</time></trkpt><trkpt lat="46.29859070000001" lon="11.457707016666665"><ele>1108.0</ele><time>2026-05-01T09:54:23.845Z</time></trkpt><trkpt lat="46.298506550000006" lon="11.457594533333333"><ele>1108.0</ele><time>2026-05-01T09:54:24.825Z</time></trkpt><trkpt lat="46.29842938333333" lon="11.457434733333333"><ele>1108.0</ele><time>2026-05-01T09:54:25.846Z</time></trkpt><trkpt lat="46.298343016666664" lon="11.457251849999999"><ele>1108.3333333333333</ele><time>2026-05-01T09:54:26.845Z</time></trkpt><trkpt lat="46.29824851666667" lon="11.457058633333334"><ele>1108.6666666666667</ele><time>2026-05-01T09:54:27.823Z</time></trkpt><trkpt lat="46.29815466666667" lon="11.45685565"><ele>1109.0</ele><time>2026-05-01T09:54:28.825Z</time></trkpt><trkpt lat="46.29807073333333" lon="11.456629066666668"><ele>1103.3333333333335</ele><time>2026-05-01T09:54:29.848Z</time></trkpt><trkpt lat="46.29800180000001" lon="11.4563756"><ele>1097.6666666666667</ele><time>2026-05-01T09:54:30.831Z</time></trkpt><trkpt lat="46.29795023333333" lon="11.456107516666668"><ele>1092.0</ele><time>2026-05-01T09:54:31.825Z</time></trkpt><trkpt lat="46.29790833333333" lon="11.455843083333331"><ele>1092.0</ele><time>2026-05-01T09:54:32.827Z</time></trkpt><trkpt lat="46.297872683333324" lon="11.455588049999998"><ele>1092.0</ele><time>2026-05-01T09:54:33.846Z</time></trkpt><trkpt lat="46.29784006666667" lon="11.455346866666666"><ele>1092.0</ele><time>2026-05-01T09:54:34.843Z</time></trkpt><trkpt lat="46.297808816666674" lon="11.45512995"><ele>1092.6</ele><time>2026-05-01T09:54:35.845Z</time></trkpt><trkpt lat="46.29777753333333" lon="11.454947350000003"><ele>1093.2</ele><time>2026-05-01T09:54:36.825Z</time></trkpt><trkpt lat="46.2977333" lon="11.45480225"><ele>1093.8</ele><time>2026-05-01T09:54:37.841Z</time></trkpt><trkpt lat="46.29766411666666" lon="11.45471"><ele>1094.4</ele><time>2026-05-01T09:54:38.825Z</time></trkpt><trkpt lat="46.2975777" lon="11.454680716666667"><ele>1095.0</ele><time>2026-05-01T09:54:39.825Z</time></trkpt><trkpt lat="46.29747671794348" lon="11.454701196433225"><ele>1095.0</ele><time>2026-05-01T09:54:40.825Z</time></trkpt><trkpt lat="46.29739886213246" lon="11.454835968758465"><ele>1095.0</ele><time>2026-05-01T09:54:41.846Z</time></trkpt><trkpt lat="46.29736885690303" lon="11.45503072676364"><ele>1095.0</ele><time>2026-05-01T09:54:42.847Z</time></trkpt><trkpt lat="46.2973582812754" lon="11.455240406831345"><ele>1095.0</ele><time>2026-05-01T09:54:43.839Z</time></trkpt><trkpt lat="46.29734537467735" lon="11.45547179739873"><ele>1094.0</ele><time>2026-05-01T09:54:44.847Z</time></trkpt><trkpt lat="46.29732369228419" lon="11.455724063479822"><ele>1093.0</ele><time>2026-05-01T09:54:45.825Z</time></trkpt><trkpt lat="46.29729135220986" lon="11.455994392627524"><ele>1092.0</ele><time>2026-05-01T09:54:46.828Z</time></trkpt><trkpt lat="46.297255572306305" lon="11.456268877302737"><ele>1087.6666666666667</ele><time>2026-05-01T09:54:47.861Z</time></trkpt><trkpt lat="46.29722095108778" lon="11.456534472462335"><ele>1083.3333333333335</ele><time>2026-05-01T09:54:48.833Z</time></trkpt><trkpt lat="46.297187371582986" lon="11.456786033086187"><ele>1079.0</ele><time>2026-05-01T09:54:49.827Z</time></trkpt><trkpt lat="46.29715546240681" lon="11.457029916281488"><ele>1079.25</ele><time>2026-05-01T09:54:50.845Z</time></trkpt><trkpt lat="46.29712362002999" lon="11.457261025156015"><ele>1079.5</ele><time>2026-05-01T09:54:51.834Z</time></trkpt><trkpt lat="46.29707524369681" lon="11.457465967504119"><ele>1079.75</ele><time>2026-05-01T09:54:52.837Z</time></trkpt><trkpt lat="46.29700959326636" lon="11.457639681533362"><ele>1080.0</ele><time>2026-05-01T09:54:53.823Z</time></trkpt><trkpt lat="46.29692381666667" lon="11.457792216666668"><ele>1080.0</ele><time>2026-05-01T09:54:54.825Z</time></trkpt><trkpt lat="46.2968074" lon="11.4578774"><ele>1080.0</ele><time>2026-05-01T09:54:55.83Z</time></trkpt><trkpt lat="46.29668613333333" lon="11.457897833333334"><ele>1080.0</ele><time>2026-05-01T09:54:56.832Z</time></trkpt><trkpt lat="46.29657108333333" lon="11.457852166666665"><ele>1080.0</ele><time>2026-05-01T09:54:57.83Z</time></trkpt><trkpt lat="46.296470283333335" lon="11.457745516666668"><ele>1078.5</ele><time>2026-05-01T09:54:58.827Z</time></trkpt><trkpt lat="46.296392233333336" lon="11.457586533333332"><ele>1077.0</ele><time>2026-05-01T09:54:59.848Z</time></trkpt><trkpt lat="46.29633568333333" lon="11.457394266666666"><ele>1075.5</ele><time>2026-05-01T09:55:00.847Z</time></trkpt><trkpt lat="46.29629979999999" lon="11.457181283333332"><ele>1074.0</ele><time>2026-05-01T09:55:01.839Z</time></trkpt><trkpt lat="46.29627586666667" lon="11.456950416666665"><ele>1072.6666666666667</ele><time>2026-05-01T09:55:02.845Z</time></trkpt><trkpt lat="46.296251433333325" lon="11.456706650000001"><ele>1071.3333333333335</ele><time>2026-05-01T09:55:03.825Z</time></trkpt><trkpt lat="46.29621991666666" lon="11.456443716666667"><ele>1070.0</ele><time>2026-05-01T09:55:04.835Z</time></trkpt><trkpt lat="46.296173366666665" lon="11.456178683333334"><ele>1068.6666666666667</ele><time>2026-05-01T09:55:05.824Z</time></trkpt><trkpt lat="46.29610628333333" lon="11.455923283333334"><ele>1067.3333333333333</ele><time>2026-05-01T09:55:06.831Z</time></trkpt><trkpt lat="46.29602993333333" lon="11.455667433333334"><ele>1066.0</ele><time>2026-05-01T09:55:07.825Z</time></trkpt><trkpt lat="46.295959016666664" lon="11.455431083333332"><ele>1065.5</ele><time>2026-05-01T09:55:08.847Z</time></trkpt><trkpt lat="46.29590138333333" lon="11.455218916666668"><ele>1065.0</ele><time>2026-05-01T09:55:09.825Z</time></trkpt><trkpt lat="46.29585221666667" lon="11.455036116666667"><ele>1064.5</ele><time>2026-05-01T09:55:10.839Z</time></trkpt><trkpt lat="46.295812183333325" lon="11.454883433333336"><ele>1064.0</ele><time>2026-05-01T09:55:11.824Z</time></trkpt><trkpt lat="46.29577825" lon="11.454750683333335"><ele>1064.4</ele><time>2026-05-01T09:55:12.828Z</time></trkpt><trkpt lat="46.29574488333333" lon="11.454618133333334"><ele>1064.8000000000002</ele><time>2026-05-01T09:55:13.827Z</time></trkpt><trkpt lat="46.29570806666667" lon="11.454478633333334"><ele>1065.1999999999998</ele><time>2026-05-01T09:55:14.824Z</time></trkpt><trkpt lat="46.29566588333334" lon="11.454324066666668"><ele>1065.6</ele><time>2026-05-01T09:55:15.828Z</time></trkpt><trkpt lat="46.29561845" lon="11.454158483333334"><ele>1066.0</ele><time>2026-05-01T09:55:16.829Z</time></trkpt><trkpt lat="46.295568933333335" lon="11.453989950000002"><ele>1064.75</ele><time>2026-05-01T09:55:17.845Z</time></trkpt><trkpt lat="46.29551884999999" lon="11.453825283333334"><ele>1063.5</ele><time>2026-05-01T09:55:18.847Z</time></trkpt><trkpt lat="46.295463866666665" lon="11.453669766666666"><ele>1062.25</ele><time>2026-05-01T09:55:19.841Z</time></trkpt><trkpt lat="46.2953996" lon="11.4535292"><ele>1061.0</ele><time>2026-05-01T09:55:20.826Z</time></trkpt><trkpt lat="46.29531641666667" lon="11.453404366666668"><ele>1061.0</ele><time>2026-05-01T09:55:21.825Z</time></trkpt><trkpt lat="46.295206300000004" lon="11.453314966666667"><ele>1061.0</ele><time>2026-05-01T09:55:22.827Z</time></trkpt><trkpt lat="46.29507819636798" lon="11.4532506870768"><ele>1061.0</ele><time>2026-05-01T09:55:23.846Z</time></trkpt><trkpt lat="46.29494598302708" lon="11.453289887109985"><ele>1061.0</ele><time>2026-05-01T09:55:24.832Z</time></trkpt><trkpt lat="46.29482880555711" lon="11.453401684244602"><ele>1059.3333333333335</ele><time>2026-05-01T09:55:25.824Z</time></trkpt><trkpt lat="46.29474586117908" lon="11.45358992130427"><ele>1057.6666666666667</ele><time>2026-05-01T09:55:26.847Z</time></trkpt><trkpt lat="46.29470541232828" lon="11.453818541523246"><ele>1056.0</ele><time>2026-05-01T09:55:27.825Z</time></trkpt><trkpt lat="46.29469910876146" lon="11.454054433418047"><ele>1053.3333333333333</ele><time>2026-05-01T09:55:28.84Z</time></trkpt><trkpt lat="46.29470406508971" lon="11.454289392256191"><ele>1050.6666666666665</ele><time>2026-05-01T09:55:29.843Z</time></trkpt><trkpt lat="46.29470906318621" lon="11.454516456220807"><ele>1048.0</ele><time>2026-05-01T09:55:30.825Z</time></trkpt><trkpt lat="46.294714559606156" lon="11.45473581666667"><ele>1044.3333333333333</ele><time>2026-05-01T09:55:31.827Z</time></trkpt><trkpt lat="46.29472653333334" lon="11.454951716666669"><ele>1040.6666666666667</ele><time>2026-05-01T09:55:32.845Z</time></trkpt><trkpt lat="46.294704383333325" lon="11.455173333333335"><ele>1037.0</ele><time>2026-05-01T09:55:33.825Z</time></trkpt><trkpt lat="46.294645002053365" lon="11.455386982281674"><ele>1035.0</ele><time>2026-05-01T09:55:34.827Z</time></trkpt><trkpt lat="46.29458495230343" lon="11.455611480522478"><ele>1033.0</ele><time>2026-05-01T09:55:35.845Z</time></trkpt><trkpt lat="46.29451954279365" lon="11.455842889303637"><ele>1031.0</ele><time>2026-05-01T09:55:36.846Z</time></trkpt><trkpt lat="46.294450590776485" lon="11.456081690826835"><ele>1030.6666666666667</ele><time>2026-05-01T09:55:37.842Z</time></trkpt><trkpt lat="46.29438022020411" lon="11.456324964655417"><ele>1030.3333333333333</ele><time>2026-05-01T09:55:38.827Z</time></trkpt><trkpt lat="46.294310696877105" lon="11.456565309458004"><ele>1030.0</ele><time>2026-05-01T09:55:39.828Z</time></trkpt><trkpt lat="46.29424369764709" lon="11.45679692887616"><ele>1030.0</ele><time>2026-05-01T09:55:40.828Z</time></trkpt><trkpt lat="46.29417716380982" lon="11.457019205263999"><ele>1030.0</ele><time>2026-05-01T09:55:41.847Z</time></trkpt><trkpt lat="46.294106786541676" lon="11.457220784983917"><ele>1030.0</ele><time>2026-05-01T09:55:42.828Z</time></trkpt><trkpt lat="46.294031849999996" lon="11.457409416666668"><ele>1030.75</ele><time>2026-05-01T09:55:43.825Z</time></trkpt><trkpt lat="46.2939253" lon="11.457542599999998"><ele>1031.5</ele><time>2026-05-01T09:55:44.845Z</time></trkpt><trkpt lat="46.29380451666666" lon="11.457621033333332"><ele>1032.25</ele><time>2026-05-01T09:55:45.823Z</time></trkpt><trkpt lat="46.293675799999995" lon="11.457638816666666"><ele>1033.0</ele><time>2026-05-01T09:55:46.831Z</time></trkpt><trkpt lat="46.293553183333344" lon="11.457598616666667"><ele>1028.75</ele><time>2026-05-01T09:55:47.845Z</time></trkpt><trkpt lat="46.2934431" lon="11.457500433333333"><ele>1024.5</ele><time>2026-05-01T09:55:48.824Z</time></trkpt><trkpt lat="46.293356983333325" lon="11.45735205"><ele>1020.25</ele><time>2026-05-01T09:55:49.832Z</time></trkpt><trkpt lat="46.293306833333325" lon="11.45717415"><ele>1016.0</ele><time>2026-05-01T09:55:50.824Z</time></trkpt><trkpt lat="46.29328088333333" lon="11.456977566666666"><ele>1016.25</ele><time>2026-05-01T09:55:51.825Z</time></trkpt><trkpt lat="46.293265500000004" lon="11.456767833333332"><ele>1016.5</ele><time>2026-05-01T09:55:52.828Z</time></trkpt><trkpt lat="46.29325945000001" lon="11.456557783333336"><ele>1016.75</ele><time>2026-05-01T09:55:53.847Z</time></trkpt><trkpt lat="46.29325614999999" lon="11.456366449999999"><ele>1017.0</ele><time>2026-05-01T09:55:54.822Z</time></trkpt><trkpt lat="46.29324093333333" lon="11.456205550000002"><ele>1017.0</ele><time>2026-05-01T09:55:55.825Z</time></trkpt><trkpt lat="46.29320116666666" lon="11.456083583333335"><ele>1017.0</ele><time>2026-05-01T09:55:56.846Z</time></trkpt><trkpt lat="46.29314166666666" lon="11.456008049999998"><ele>1017.0</ele><time>2026-05-01T09:55:57.826Z</time></trkpt><trkpt lat="46.293076633333335" lon="11.455979283333333"><ele>1017.0</ele><time>2026-05-01T09:55:58.826Z</time></trkpt><trkpt lat="46.29296806666666" lon="11.455980433333332"><ele>1017.0</ele><time>2026-05-01T09:56:00.854Z</time></trkpt><trkpt lat="46.29287261666667" lon="11.455965066666666"><ele>1017.0</ele><time>2026-05-01T09:56:02.848Z</time></trkpt><trkpt lat="46.2927415" lon="11.455910633333334"><ele>1015.0</ele><time>2026-05-01T09:56:04.825Z</time></trkpt><trkpt lat="46.29265498333333" lon="11.45586035"><ele>1013.0</ele><time>2026-05-01T09:56:05.824Z</time></trkpt><trkpt lat="46.292555066666665" lon="11.4557999"><ele>1011.0</ele><time>2026-05-01T09:56:06.824Z</time></trkpt><trkpt lat="46.2924426" lon="11.455732516666666"><ele>1009.0</ele><time>2026-05-01T09:56:07.825Z</time></trkpt><trkpt lat="46.29231799999999" lon="11.455657599999999"><ele>1010.3333333333333</ele><time>2026-05-01T09:56:08.823Z</time></trkpt><trkpt lat="46.292180433333336" lon="11.455584766666668"><ele>1011.6666666666667</ele><time>2026-05-01T09:56:09.849Z</time></trkpt><trkpt lat="46.29204365755678" lon="11.455476593546562"><ele>1013.0</ele><time>2026-05-01T09:56:10.833Z</time></trkpt><trkpt lat="46.29189213399902" lon="11.455384390328572"><ele>1013.0</ele><time>2026-05-01T09:56:11.846Z</time></trkpt><trkpt lat="46.291734464615594" lon="11.455289026233123"><ele>1013.0</ele><time>2026-05-01T09:56:12.833Z</time></trkpt><trkpt lat="46.29157409446035" lon="11.455192271217246"><ele>1013.0</ele><time>2026-05-01T09:56:13.846Z</time></trkpt><trkpt lat="46.29141475619269" lon="11.455096544999371"><ele>1010.0</ele><time>2026-05-01T09:56:14.848Z</time></trkpt><trkpt lat="46.29125771054119" lon="11.455002196081809"><ele>1007.0</ele><time>2026-05-01T09:56:15.826Z</time></trkpt><trkpt lat="46.291102905785024" lon="11.454909309841865"><ele>1004.0</ele><time>2026-05-01T09:56:16.827Z</time></trkpt><trkpt lat="46.290942750000006" lon="11.4548523"><ele>1004.0</ele><time>2026-05-01T09:56:17.846Z</time></trkpt><trkpt lat="46.290794016666666" lon="11.454764633333332"><ele>1004.0</ele><time>2026-05-01T09:56:18.836Z</time></trkpt><trkpt lat="46.290644266666675" lon="11.4546739"><ele>1004.0</ele><time>2026-05-01T09:56:19.827Z</time></trkpt><trkpt lat="46.29049376666667" lon="11.454584866666668"><ele>1005.3333333333334</ele><time>2026-05-01T09:56:20.847Z</time></trkpt><trkpt lat="46.290357259117535" lon="11.454463725944905"><ele>1006.6666666666667</ele><time>2026-05-01T09:56:21.826Z</time></trkpt><trkpt lat="46.29021736261813" lon="11.454373456779786"><ele>1008.0</ele><time>2026-05-01T09:56:22.841Z</time></trkpt><trkpt lat="46.29007838333334" lon="11.454281066666667"><ele>1008.0</ele><time>2026-05-01T09:56:23.824Z</time></trkpt><trkpt lat="46.28995936666667" lon="11.454147116666665"><ele>1008.0</ele><time>2026-05-01T09:56:24.831Z</time></trkpt><trkpt lat="46.28985188333333" lon="11.453993400000002"><ele>1008.0</ele><time>2026-05-01T09:56:25.825Z</time></trkpt><trkpt lat="46.28975706666667" lon="11.453823233333333"><ele>1005.3333333333333</ele><time>2026-05-01T09:56:26.824Z</time></trkpt><trkpt lat="46.289677266666665" lon="11.453635350000003"><ele>1002.6666666666666</ele><time>2026-05-01T09:56:27.837Z</time></trkpt><trkpt lat="46.28960836666667" lon="11.453436749999998"><ele>1000.0</ele><time>2026-05-01T09:56:28.826Z</time></trkpt><trkpt lat="46.289541916666664" lon="11.453231833333332"><ele>1000.0</ele><time>2026-05-01T09:56:29.848Z</time></trkpt><trkpt lat="46.28947565" lon="11.453027416666664"><ele>1000.0</ele><time>2026-05-01T09:56:30.837Z</time></trkpt><trkpt lat="46.289406650000004" lon="11.452820433333333"><ele>1000.0</ele><time>2026-05-01T09:56:31.839Z</time></trkpt><trkpt lat="46.289341" lon="11.452609099999998"><ele>1001.6666666666666</ele><time>2026-05-01T09:56:32.832Z</time></trkpt><trkpt lat="46.28927511666667" lon="11.452399466666668"><ele>1003.3333333333333</ele><time>2026-05-01T09:56:33.845Z</time></trkpt><trkpt lat="46.289207366666666" lon="11.452184383333334"><ele>1005.0</ele><time>2026-05-01T09:56:34.827Z</time></trkpt><trkpt lat="46.28913755" lon="11.451970066666668"><ele>1006.3333333333333</ele><time>2026-05-01T09:56:35.846Z</time></trkpt><trkpt lat="46.28906916666667" lon="11.451752116666666"><ele>1007.6666666666666</ele><time>2026-05-01T09:56:36.824Z</time></trkpt><trkpt lat="46.289006783333335" lon="11.451530866666667"><ele>1009.0</ele><time>2026-05-01T09:56:37.829Z</time></trkpt><trkpt lat="46.288958216666664" lon="11.451298133333333"><ele>1010.0</ele><time>2026-05-01T09:56:38.824Z</time></trkpt><trkpt lat="46.28893114999999" lon="11.451060466666668"><ele>1011.0</ele><time>2026-05-01T09:56:39.828Z</time></trkpt><trkpt lat="46.28892583333332" lon="11.450816966666666"><ele>1012.0</ele><time>2026-05-01T09:56:40.828Z</time></trkpt><trkpt lat="46.288937233333336" lon="11.450574283333333"><ele>1011.0</ele><time>2026-05-01T09:56:41.823Z</time></trkpt><trkpt lat="46.288969483333325" lon="11.450336516666669"><ele>1010.0</ele><time>2026-05-01T09:56:42.823Z</time></trkpt><trkpt lat="46.28902025000001" lon="11.450105266666668"><ele>1009.0</ele><time>2026-05-01T09:56:43.825Z</time></trkpt><trkpt lat="46.28907810000001" lon="11.44987605"><ele>1009.0</ele><time>2026-05-01T09:56:44.824Z</time></trkpt><trkpt lat="46.28914013333333" lon="11.449642950000001"><ele>1009.0</ele><time>2026-05-01T09:56:45.824Z</time></trkpt><trkpt lat="46.28920383333334" lon="11.449410416666668"><ele>1009.0</ele><time>2026-05-01T09:56:46.832Z</time></trkpt><trkpt lat="46.28926563333333" lon="11.449186383333332"><ele>1007.3333333333333</ele><time>2026-05-01T09:56:47.825Z</time></trkpt><trkpt lat="46.28932235" lon="11.448970316666665"><ele>1005.6666666666667</ele><time>2026-05-01T09:56:48.834Z</time></trkpt><trkpt lat="46.28937040000001" lon="11.448757233333332"><ele>1004.0</ele><time>2026-05-01T09:56:49.826Z</time></trkpt><trkpt lat="46.28940251666666" lon="11.448540416666665"><ele>1004.0</ele><time>2026-05-01T09:56:50.824Z</time></trkpt><trkpt lat="46.28941588333334" lon="11.448319499999998"><ele>1004.0</ele><time>2026-05-01T09:56:51.845Z</time></trkpt><trkpt lat="46.28941578333333" lon="11.448095149999999"><ele>1004.0</ele><time>2026-05-01T09:56:52.823Z</time></trkpt><trkpt lat="46.289409549999995" lon="11.447866216666668"><ele>1004.3333333333334</ele><time>2026-05-01T09:56:53.822Z</time></trkpt><trkpt lat="46.28940256666666" lon="11.447635749999998"><ele>1004.6666666666667</ele><time>2026-05-01T09:56:54.825Z</time></trkpt><trkpt lat="46.2893977" lon="11.44740995"><ele>1005.0</ele><time>2026-05-01T09:56:55.84Z</time></trkpt><trkpt lat="46.28938956666666" lon="11.447195066666666"><ele>1004.25</ele><time>2026-05-01T09:56:56.824Z</time></trkpt><trkpt lat="46.28938098333333" lon="11.446992216666668"><ele>1003.5</ele><time>2026-05-01T09:56:57.828Z</time></trkpt><trkpt lat="46.28937285" lon="11.446794233333332"><ele>1002.75</ele><time>2026-05-01T09:56:58.828Z</time></trkpt><trkpt lat="46.28936278333334" lon="11.446592566666666"><ele>1002.0</ele><time>2026-05-01T09:56:59.848Z</time></trkpt><trkpt lat="46.28935133333332" lon="11.446388883333336"><ele>1002.75</ele><time>2026-05-01T09:57:00.824Z</time></trkpt><trkpt lat="46.289324466666656" lon="11.446191683333334"><ele>1003.5</ele><time>2026-05-01T09:57:01.831Z</time></trkpt><trkpt lat="46.289267116666664" lon="11.446021033333333"><ele>1004.25</ele><time>2026-05-01T09:57:02.846Z</time></trkpt><trkpt lat="46.28918515" lon="11.445881766666666"><ele>1005.0</ele><time>2026-05-01T09:57:03.824Z</time></trkpt><trkpt lat="46.28909053333333" lon="11.445774133333336"><ele>1005.0</ele><time>2026-05-01T09:57:04.841Z</time></trkpt><trkpt lat="46.2889983" lon="11.445696783333334"><ele>1005.0</ele><time>2026-05-01T09:57:05.832Z</time></trkpt><trkpt lat="46.28891730000001" lon="11.445640966666668"><ele>1005.0</ele><time>2026-05-01T09:57:06.824Z</time></trkpt><trkpt lat="46.28885404999999" lon="11.445598316666668"><ele>1005.0</ele><time>2026-05-01T09:57:07.825Z</time></trkpt><trkpt lat="46.28878388333332" lon="11.445539566666666"><ele>1005.0</ele><time>2026-05-01T09:57:09.826Z</time></trkpt><trkpt lat="46.28872658333333" lon="11.445484366666669"><ele>1005.0</ele><time>2026-05-01T09:57:11.824Z</time></trkpt><trkpt lat="46.288638933333345" lon="11.44538345"><ele>1005.6666666666666</ele><time>2026-05-01T09:57:13.842Z</time></trkpt><trkpt lat="46.28857871666667" lon="11.445342583333336"><ele>1006.3333333333333</ele><time>2026-05-01T09:57:14.837Z</time></trkpt><trkpt lat="46.28851058333333" lon="11.445309516666669"><ele>1007.0</ele><time>2026-05-01T09:57:15.824Z</time></trkpt><trkpt lat="46.28843536666666" lon="11.445279916666667"><ele>1007.6666666666666</ele><time>2026-05-01T09:57:16.823Z</time></trkpt><trkpt lat="46.28835376666667" lon="11.445242949999999"><ele>1008.3333333333333</ele><time>2026-05-01T09:57:17.824Z</time></trkpt><trkpt lat="46.28827233333333" lon="11.445183616666668"><ele>1009.0</ele><time>2026-05-01T09:57:18.823Z</time></trkpt><trkpt lat="46.28819391666666" lon="11.445105533333333"><ele>1009.0</ele><time>2026-05-01T09:57:19.828Z</time></trkpt><trkpt lat="46.28811688333334" lon="11.445002633333335"><ele>1009.0000000000001</ele><time>2026-05-01T09:57:20.846Z</time></trkpt><trkpt lat="46.28804866666666" lon="11.444877350000002"><ele>1009.0000000000001</ele><time>2026-05-01T09:57:21.826Z</time></trkpt><trkpt lat="46.28799148333332" lon="11.444741783333333"><ele>1009.0</ele><time>2026-05-01T09:57:22.832Z</time></trkpt><trkpt lat="46.28794926666666" lon="11.444604533333331"><ele>1009.0</ele><time>2026-05-01T09:57:23.824Z</time></trkpt><trkpt lat="46.28791705" lon="11.444464933333332"><ele>1007.6</ele><time>2026-05-01T09:57:24.831Z</time></trkpt><trkpt lat="46.28789285" lon="11.444321816666664"><ele>1006.2</ele><time>2026-05-01T09:57:25.828Z</time></trkpt><trkpt lat="46.287873999999995" lon="11.444172816666667"><ele>1004.8000000000001</ele><time>2026-05-01T09:57:26.827Z</time></trkpt><trkpt lat="46.28785633333334" lon="11.444015616666665"><ele>1003.4000000000001</ele><time>2026-05-01T09:57:27.824Z</time></trkpt><trkpt lat="46.28784353333334" lon="11.443852683333334"><ele>1002.0</ele><time>2026-05-01T09:57:28.828Z</time></trkpt><trkpt lat="46.287835333333334" lon="11.443697683333335"><ele>1002.0</ele><time>2026-05-01T09:57:29.836Z</time></trkpt><trkpt lat="46.2878308" lon="11.443553083333333"><ele>1002.0</ele><time>2026-05-01T09:57:30.824Z</time></trkpt><trkpt lat="46.28782676666666" lon="11.443415916666666"><ele>1002.0</ele><time>2026-05-01T09:57:31.824Z</time></trkpt><trkpt lat="46.2878233" lon="11.443277199999999"><ele>1002.0</ele><time>2026-05-01T09:57:32.824Z</time></trkpt><trkpt lat="46.287819883333334" lon="11.443126883333333"><ele>1002.0</ele><time>2026-05-01T09:57:33.824Z</time></trkpt><trkpt lat="46.287817833333335" lon="11.442960166666667"><ele>1002.25</ele><time>2026-05-01T09:57:34.866Z</time></trkpt><trkpt lat="46.28781313333334" lon="11.442781733333334"><ele>1002.5</ele><time>2026-05-01T09:57:35.845Z</time></trkpt><trkpt lat="46.28779573333333" lon="11.442600899999997"><ele>1002.75</ele><time>2026-05-01T09:57:36.885Z</time></trkpt><trkpt lat="46.287767900000006" lon="11.4424351"><ele>1003.0</ele><time>2026-05-01T09:57:37.866Z</time></trkpt><trkpt lat="46.287734083333326" lon="11.442287066666665"><ele>1003.0</ele><time>2026-05-01T09:57:38.845Z</time></trkpt><trkpt lat="46.28769976666668" lon="11.44215475"><ele>1003.0</ele><time>2026-05-01T09:57:39.833Z</time></trkpt><trkpt lat="46.28766434999999" lon="11.442032666666668"><ele>1003.0</ele><time>2026-05-01T09:57:40.824Z</time></trkpt><trkpt lat="46.287623816666674" lon="11.441915316666666"><ele>1003.0</ele><time>2026-05-01T09:57:41.84Z</time></trkpt><trkpt lat="46.28757621666667" lon="11.441798183333333"><ele>1003.0</ele><time>2026-05-01T09:57:42.831Z</time></trkpt><trkpt lat="46.28752456666666" lon="11.441678616666666"><ele>1003.75</ele><time>2026-05-01T09:57:43.847Z</time></trkpt><trkpt lat="46.28746996666667" lon="11.441554083333331"><ele>1004.5</ele><time>2026-05-01T09:57:44.822Z</time></trkpt><trkpt lat="46.28741" lon="11.441417266666667"><ele>1005.25</ele><time>2026-05-01T09:57:45.824Z</time></trkpt><trkpt lat="46.287343083333326" lon="11.441262916666668"><ele>1006.0</ele><time>2026-05-01T09:57:46.85Z</time></trkpt><trkpt lat="46.28726794999999" lon="11.441098883333334"><ele>1003.3333333333333</ele><time>2026-05-01T09:57:47.824Z</time></trkpt><trkpt lat="46.287184216666674" lon="11.440925583333334"><ele>1000.6666666666667</ele><time>2026-05-01T09:57:48.832Z</time></trkpt><trkpt lat="46.28709543333333" lon="11.440734066666668"><ele>998.0</ele><time>2026-05-01T09:57:49.849Z</time></trkpt><trkpt lat="46.28700325" lon="11.4405311"><ele>1000.6666666666667</ele><time>2026-05-01T09:57:50.825Z</time></trkpt><trkpt lat="46.286905266666665" lon="11.440315083333333"><ele>1003.3333333333333</ele><time>2026-05-01T09:57:51.831Z</time></trkpt><trkpt lat="46.28679999999999" lon="11.440084750000002"><ele>1006.0</ele><time>2026-05-01T09:57:52.833Z</time></trkpt><trkpt lat="46.28669108333334" lon="11.439840383333333"><ele>1008.0</ele><time>2026-05-01T09:57:53.827Z</time></trkpt><trkpt lat="46.28657238333333" lon="11.439577450000002"><ele>1010.0</ele><time>2026-05-01T09:57:54.841Z</time></trkpt><trkpt lat="46.28644626666666" lon="11.439299816666669"><ele>1012.0</ele><time>2026-05-01T09:57:55.824Z</time></trkpt><trkpt lat="46.286325000000005" lon="11.43902815"><ele>1008.0</ele><time>2026-05-01T09:57:56.825Z</time></trkpt><trkpt lat="46.2862148" lon="11.438778300000001"><ele>1004.0</ele><time>2026-05-01T09:57:57.831Z</time></trkpt><trkpt lat="46.28611216666667" lon="11.43855045"><ele>1000.0</ele><time>2026-05-01T09:57:58.824Z</time></trkpt><trkpt lat="46.28601713333334" lon="11.438336699999997"><ele>1000.0</ele><time>2026-05-01T09:57:59.824Z</time></trkpt><trkpt lat="46.28592751666667" lon="11.43813693333333"><ele>1000.0</ele><time>2026-05-01T09:58:00.838Z</time></trkpt><trkpt lat="46.28584011666667" lon="11.437952099999999"><ele>1000.0</ele><time>2026-05-01T09:58:01.83Z</time></trkpt><trkpt lat="46.28575575" lon="11.437775083333335"><ele>999.3333333333333</ele><time>2026-05-01T09:58:02.823Z</time></trkpt><trkpt lat="46.285671883333336" lon="11.437591999999999"><ele>998.6666666666667</ele><time>2026-05-01T09:58:03.837Z</time></trkpt><trkpt lat="46.2855869" lon="11.437405666666667"><ele>998.0</ele><time>2026-05-01T09:58:04.84Z</time></trkpt><trkpt lat="46.2854998" lon="11.437212716666666"><ele>999.6666666666667</ele><time>2026-05-01T09:58:05.831Z</time></trkpt><trkpt lat="46.28541296666668" lon="11.4370153"><ele>1001.3333333333333</ele><time>2026-05-01T09:58:06.835Z</time></trkpt><trkpt lat="46.285319550000004" lon="11.436808616666669"><ele>1003.0</ele><time>2026-05-01T09:58:07.847Z</time></trkpt><trkpt lat="46.28522393333333" lon="11.436597666666668"><ele>1003.0</ele><time>2026-05-01T09:58:08.835Z</time></trkpt><trkpt lat="46.285128050000004" lon="11.43638275"><ele>1003.0</ele><time>2026-05-01T09:58:09.836Z</time></trkpt><trkpt lat="46.285030750000004" lon="11.436165016666667"><ele>1003.0</ele><time>2026-05-01T09:58:10.831Z</time></trkpt><trkpt lat="46.284931066666665" lon="11.435939883333333"><ele>1003.0</ele><time>2026-05-01T09:58:11.827Z</time></trkpt><trkpt lat="46.28482553333333" lon="11.435703066666667"><ele>1003.0</ele><time>2026-05-01T09:58:12.843Z</time></trkpt><trkpt lat="46.28471648333334" lon="11.435457266666665"><ele>1003.0</ele><time>2026-05-01T09:58:13.842Z</time></trkpt><trkpt lat="46.284606966666665" lon="11.435223033333333"><ele>1002.6666666666666</ele><time>2026-05-01T09:58:14.826Z</time></trkpt><trkpt lat="46.28450468333334" lon="11.4350055"><ele>1002.3333333333333</ele><time>2026-05-01T09:58:15.831Z</time></trkpt><trkpt lat="46.28441473333334" lon="11.434809266666665"><ele>1002.0</ele><time>2026-05-01T09:58:16.831Z</time></trkpt><trkpt lat="46.28433688333333" lon="11.434637683333335"><ele>1002.0</ele><time>2026-05-01T09:58:17.839Z</time></trkpt><trkpt lat="46.284267366666676" lon="11.434488183333334"><ele>1002.0</ele><time>2026-05-01T09:58:18.832Z</time></trkpt><trkpt lat="46.28420845000001" lon="11.434359666666667"><ele>1002.0</ele><time>2026-05-01T09:58:19.832Z</time></trkpt><trkpt lat="46.28416269999999" lon="11.434261816666666"><ele>1002.0</ele><time>2026-05-01T09:58:20.84Z</time></trkpt><trkpt lat="46.28409388333333" lon="11.434154999999997"><ele>1002.0</ele><time>2026-05-01T09:58:22.84Z</time></trkpt><trkpt lat="46.284015749999995" lon="11.434176666666668"><ele>1002.0</ele><time>2026-05-01T09:58:25.844Z</time></trkpt><trkpt lat="46.284090533333334" lon="11.434242200000002"><ele>1002.0</ele><time>2026-05-01T09:58:39.836Z</time></trkpt><trkpt lat="46.28421795" lon="11.43449101666667"><ele>1002.0</ele><time>2026-05-01T09:58:41.843Z</time></trkpt><trkpt lat="46.28427566666666" lon="11.43462935"><ele>1002.0</ele><time>2026-05-01T09:58:42.83Z</time></trkpt><trkpt lat="46.28434673333333" lon="11.434783816666666"><ele>1000.6666666666667</ele><time>2026-05-01T09:58:43.841Z</time></trkpt><trkpt lat="46.28442693333333" lon="11.434954616666667"><ele>999.3333333333334</ele><time>2026-05-01T09:58:44.824Z</time></trkpt><trkpt lat="46.28451151666666" lon="11.435140416666664"><ele>998.0</ele><time>2026-05-01T09:58:45.833Z</time></trkpt><trkpt lat="46.28460288333334" lon="11.435343799999998"><ele>1000.5</ele><time>2026-05-01T09:58:46.835Z</time></trkpt><trkpt lat="46.28469613333333" lon="11.435558066666665"><ele>1003.0</ele><time>2026-05-01T09:58:47.84Z</time></trkpt><trkpt lat="46.28487556666667" lon="11.435961633333335"><ele>1003.0</ele><time>2026-05-01T09:58:50.833Z</time></trkpt><trkpt lat="46.2850533" lon="11.436350383333334"><ele>1003.0</ele><time>2026-05-01T09:58:52.836Z</time></trkpt><trkpt lat="46.28525223333333" lon="11.436771083333333"><ele>1003.0</ele><time>2026-05-01T09:58:53.824Z</time></trkpt><trkpt lat="46.28535721666667" lon="11.437007533333334"><ele>1003.0</ele><time>2026-05-01T09:58:54.837Z</time></trkpt><trkpt lat="46.285470516666656" lon="11.437263216666668"><ele>1003.0</ele><time>2026-05-01T09:58:55.831Z</time></trkpt><trkpt lat="46.28559061666667" lon="11.437533150000002"><ele>1001.5</ele><time>2026-05-01T09:58:56.84Z</time></trkpt><trkpt lat="46.28571453333334" lon="11.437810733333334"><ele>1000.0</ele><time>2026-05-01T09:58:57.831Z</time></trkpt><trkpt lat="46.285834099999995" lon="11.43808283333333"><ele>1000.0</ele><time>2026-05-01T09:58:58.833Z</time></trkpt><trkpt lat="46.28594775" lon="11.438338649999999"><ele>1000.0</ele><time>2026-05-01T09:58:59.827Z</time></trkpt><trkpt lat="46.28605538333333" lon="11.438577033333335"><ele>1000.0</ele><time>2026-05-01T09:59:00.831Z</time></trkpt><trkpt lat="46.28615435" lon="11.438801883333335"><ele>998.6666666666666</ele><time>2026-05-01T09:59:01.835Z</time></trkpt><trkpt lat="46.28624859999999" lon="11.43901235"><ele>997.3333333333333</ele><time>2026-05-01T09:59:02.826Z</time></trkpt><trkpt lat="46.28633965000001" lon="11.439206216666665"><ele>996.0</ele><time>2026-05-01T09:59:03.851Z</time></trkpt><trkpt lat="46.28642606666667" lon="11.439387"><ele>998.5</ele><time>2026-05-01T09:59:04.838Z</time></trkpt><trkpt lat="46.28650715" lon="11.439558683333333"><ele>1001.0</ele><time>2026-05-01T09:59:05.825Z</time></trkpt><trkpt lat="46.286581033333334" lon="11.439721216666666"><ele>1003.5</ele><time>2026-05-01T09:59:06.831Z</time></trkpt><trkpt lat="46.28664801666667" lon="11.43987205"><ele>1006.0</ele><time>2026-05-01T09:59:07.825Z</time></trkpt><trkpt lat="46.28671308333334" lon="11.44001175"><ele>1005.9999999999999</ele><time>2026-05-01T09:59:08.825Z</time></trkpt><trkpt lat="46.286770849999996" lon="11.440135950000002"><ele>1006.0</ele><time>2026-05-01T09:59:09.837Z</time></trkpt><trkpt lat="46.28682008333334" lon="11.44023895"><ele>1006.0</ele><time>2026-05-01T09:59:10.831Z</time></trkpt><trkpt lat="46.28685236666667" lon="11.440370316666668"><ele>1006.0</ele><time>2026-05-01T09:59:12.826Z</time></trkpt><trkpt lat="46.286780283333336" lon="11.440379116666668"><ele>1005.9999999999999</ele><time>2026-05-01T09:59:14.824Z</time></trkpt><trkpt lat="46.28672356666666" lon="11.440318483333332"><ele>1006.0</ele><time>2026-05-01T09:59:15.834Z</time></trkpt><trkpt lat="46.286659716666655" lon="11.440220166666665"><ele>1006.0</ele><time>2026-05-01T09:59:16.825Z</time></trkpt><trkpt lat="46.2865837" lon="11.44008585"><ele>1006.0</ele><time>2026-05-01T09:59:17.825Z</time></trkpt><trkpt lat="46.28649471666666" lon="11.439922233333334"><ele>1006.0</ele><time>2026-05-01T09:59:18.854Z</time></trkpt><trkpt lat="46.28638728333334" lon="11.439738700000001"><ele>1006.0</ele><time>2026-05-01T09:59:19.837Z</time></trkpt><trkpt lat="46.286256016666655" lon="11.4395497"><ele>1002.6666666666666</ele><time>2026-05-01T09:59:20.825Z</time></trkpt><trkpt lat="46.28611121666666" lon="11.439373366666665"><ele>999.3333333333333</ele><time>2026-05-01T09:59:21.826Z</time></trkpt><trkpt lat="46.28596803333333" lon="11.439209216666665"><ele>996.0</ele><time>2026-05-01T09:59:22.84Z</time></trkpt><trkpt lat="46.28583301666666" lon="11.439045916666664"><ele>996.0</ele><time>2026-05-01T09:59:23.827Z</time></trkpt><trkpt lat="46.28570186666667" lon="11.438890966666667"><ele>996.0</ele><time>2026-05-01T09:59:24.847Z</time></trkpt><trkpt lat="46.28557333333333" lon="11.438747699999999"><ele>996.0</ele><time>2026-05-01T09:59:25.829Z</time></trkpt><trkpt lat="46.28544653333333" lon="11.43861415"><ele>993.5</ele><time>2026-05-01T09:59:26.825Z</time></trkpt><trkpt lat="46.28531946666667" lon="11.438497133333332"><ele>991.0</ele><time>2026-05-01T09:59:27.829Z</time></trkpt><trkpt lat="46.28519045" lon="11.438405433333333"><ele>988.5</ele><time>2026-05-01T09:59:28.826Z</time></trkpt><trkpt lat="46.28506" lon="11.438331766666666"><ele>986.0</ele><time>2026-05-01T09:59:29.823Z</time></trkpt><trkpt lat="46.28493234999999" lon="11.438259616666668"><ele>986.0</ele><time>2026-05-01T09:59:30.844Z</time></trkpt><trkpt lat="46.284810066666665" lon="11.438185066666666"><ele>986.0</ele><time>2026-05-01T09:59:31.825Z</time></trkpt><trkpt lat="46.284691" lon="11.438106750000001"><ele>986.0</ele><time>2026-05-01T09:59:32.826Z</time></trkpt><trkpt lat="46.28457945" lon="11.438004183333332"><ele>986.0</ele><time>2026-05-01T09:59:33.845Z</time></trkpt><trkpt lat="46.28447825" lon="11.437871783333334"><ele>983.75</ele><time>2026-05-01T09:59:34.838Z</time></trkpt><trkpt lat="46.284382750000006" lon="11.437724083333334"><ele>981.5</ele><time>2026-05-01T09:59:35.87Z</time></trkpt><trkpt lat="46.28429128333334" lon="11.437581100000001"><ele>979.25</ele><time>2026-05-01T09:59:36.845Z</time></trkpt><trkpt lat="46.28420328333333" lon="11.43744086666667"><ele>977.0</ele><time>2026-05-01T09:59:37.826Z</time></trkpt><trkpt lat="46.28411251666666" lon="11.4373008"><ele>977.0</ele><time>2026-05-01T09:59:38.832Z</time></trkpt><trkpt lat="46.284019" lon="11.4371607"><ele>977.0</ele><time>2026-05-01T09:59:39.847Z</time></trkpt><trkpt lat="46.283934" lon="11.437017416666666"><ele>977.0</ele><time>2026-05-01T09:59:40.825Z</time></trkpt><trkpt lat="46.28385105" lon="11.436885533333333"><ele>977.0</ele><time>2026-05-01T09:59:41.832Z</time></trkpt><trkpt lat="46.283766833333324" lon="11.436763766666665"><ele>974.0</ele><time>2026-05-01T09:59:42.845Z</time></trkpt><trkpt lat="46.28368188333334" lon="11.436653983333334"><ele>971.0</ele><time>2026-05-01T09:59:43.835Z</time></trkpt><trkpt lat="46.28359218333333" lon="11.436553933333336"><ele>968.0</ele><time>2026-05-01T09:59:44.834Z</time></trkpt><trkpt lat="46.28349865" lon="11.436453850000001"><ele>965.0</ele><time>2026-05-01T09:59:45.849Z</time></trkpt><trkpt lat="46.28339678333333" lon="11.436348283333333"><ele>964.25</ele><time>2026-05-01T09:59:46.825Z</time></trkpt><trkpt lat="46.28328906666667" lon="11.4362354"><ele>963.5</ele><time>2026-05-01T09:59:47.828Z</time></trkpt><trkpt lat="46.28318116666666" lon="11.436124266666665"><ele>962.75</ele><time>2026-05-01T09:59:48.824Z</time></trkpt><trkpt lat="46.283076383333345" lon="11.436014483333334"><ele>962.0</ele><time>2026-05-01T09:59:49.834Z</time></trkpt><trkpt lat="46.2829723" lon="11.435911099999998"><ele>962.0</ele><time>2026-05-01T09:59:50.824Z</time></trkpt><trkpt lat="46.28287181666666" lon="11.43580645"><ele>962.0</ele><time>2026-05-01T09:59:51.847Z</time></trkpt><trkpt lat="46.282775266666675" lon="11.435703116666666"><ele>962.0</ele><time>2026-05-01T09:59:52.829Z</time></trkpt><trkpt lat="46.28267896666666" lon="11.435599066666668"><ele>962.0</ele><time>2026-05-01T09:59:53.825Z</time></trkpt><trkpt lat="46.2825781" lon="11.43549135"><ele>963.25</ele><time>2026-05-01T09:59:54.825Z</time></trkpt><trkpt lat="46.282475383333335" lon="11.435387016666668"><ele>964.5</ele><time>2026-05-01T09:59:55.825Z</time></trkpt><trkpt lat="46.282374600000004" lon="11.435285266666666"><ele>965.75</ele><time>2026-05-01T09:59:56.825Z</time></trkpt><trkpt lat="46.282270583333336" lon="11.435191733333331"><ele>967.0</ele><time>2026-05-01T09:59:57.846Z</time></trkpt><trkpt lat="46.28215791666667" lon="11.435108516666666"><ele>963.75</ele><time>2026-05-01T09:59:58.828Z</time></trkpt><trkpt lat="46.28203615000001" lon="11.435034933333334"><ele>960.5</ele><time>2026-05-01T09:59:59.823Z</time></trkpt><trkpt lat="46.2819167" lon="11.434966783333333"><ele>957.25</ele><time>2026-05-01T10:00:00.824Z</time></trkpt><trkpt lat="46.28179641666667" lon="11.434910016666667"><ele>954.0</ele><time>2026-05-01T10:00:01.826Z</time></trkpt><trkpt lat="46.2816755" lon="11.434864933333332"><ele>954.0</ele><time>2026-05-01T10:00:02.826Z</time></trkpt><trkpt lat="46.28155821666667" lon="11.434822366666667"><ele>954.0</ele><time>2026-05-01T10:00:03.845Z</time></trkpt><trkpt lat="46.281444316666665" lon="11.434784649999997"><ele>954.0</ele><time>2026-05-01T10:00:04.826Z</time></trkpt><trkpt lat="46.28133546666667" lon="11.4347506"><ele>954.0</ele><time>2026-05-01T10:00:05.824Z</time></trkpt><trkpt lat="46.28123111666667" lon="11.434719483333334"><ele>953.6</ele><time>2026-05-01T10:00:06.824Z</time></trkpt><trkpt lat="46.28113341666668" lon="11.434682933333333"><ele>953.2</ele><time>2026-05-01T10:00:07.826Z</time></trkpt><trkpt lat="46.28104003333333" lon="11.434649266666668"><ele>952.8000000000001</ele><time>2026-05-01T10:00:08.822Z</time></trkpt><trkpt lat="46.28094693333334" lon="11.434621183333336"><ele>952.4000000000001</ele><time>2026-05-01T10:00:09.849Z</time></trkpt><trkpt lat="46.28085335000001" lon="11.434589883333336"><ele>952.0</ele><time>2026-05-01T10:00:10.826Z</time></trkpt><trkpt lat="46.28076066666666" lon="11.43455005"><ele>951.6</ele><time>2026-05-01T10:00:11.843Z</time></trkpt><trkpt lat="46.28067066666668" lon="11.434510933333335"><ele>951.2</ele><time>2026-05-01T10:00:12.846Z</time></trkpt><trkpt lat="46.28058124999999" lon="11.434475149999999"><ele>950.8</ele><time>2026-05-01T10:00:13.825Z</time></trkpt><trkpt lat="46.28048968333332" lon="11.434443166666664"><ele>950.4</ele><time>2026-05-01T10:00:14.842Z</time></trkpt><trkpt lat="46.28039523333334" lon="11.434412799999999"><ele>950.0</ele><time>2026-05-01T10:00:15.828Z</time></trkpt><trkpt lat="46.280298816666665" lon="11.4343755"><ele>949.2</ele><time>2026-05-01T10:00:16.842Z</time></trkpt><trkpt lat="46.2802018" lon="11.434338083333333"><ele>948.4</ele><time>2026-05-01T10:00:17.834Z</time></trkpt><trkpt lat="46.28010796666668" lon="11.434303183333334"><ele>947.5999999999999</ele><time>2026-05-01T10:00:18.845Z</time></trkpt><trkpt lat="46.28001536666667" lon="11.43427835"><ele>946.8</ele><time>2026-05-01T10:00:19.826Z</time></trkpt><trkpt lat="46.27992590000001" lon="11.434256999999997"><ele>946.0</ele><time>2026-05-01T10:00:20.84Z</time></trkpt><trkpt lat="46.27983641666667" lon="11.434231133333334"><ele>945.4</ele><time>2026-05-01T10:00:21.845Z</time></trkpt><trkpt lat="46.27973975" lon="11.43420005"><ele>944.8</ele><time>2026-05-01T10:00:22.826Z</time></trkpt><trkpt lat="46.279641033333334" lon="11.434171333333333"><ele>944.1999999999999</ele><time>2026-05-01T10:00:23.826Z</time></trkpt><trkpt lat="46.27955182523242" lon="11.43412121519282"><ele>943.5999999999999</ele><time>2026-05-01T10:00:24.847Z</time></trkpt><trkpt lat="46.27946707919651" lon="11.434093244289839"><ele>943.0</ele><time>2026-05-01T10:00:25.842Z</time></trkpt><trkpt lat="46.279390150000005" lon="11.434076216666666"><ele>942.9999999999999</ele><time>2026-05-01T10:00:26.839Z</time></trkpt><trkpt lat="46.27933791666666" lon="11.434012366666666"><ele>943.0</ele><time>2026-05-01T10:00:27.844Z</time></trkpt><trkpt lat="46.27929576666667" lon="11.433857216666668"><ele>943.0</ele><time>2026-05-01T10:00:29.84Z</time></trkpt><trkpt lat="46.27930805" lon="11.43371686666667"><ele>943.0</ele><time>2026-05-01T10:00:31.825Z</time></trkpt><trkpt lat="46.27934245" lon="11.433626333333333"><ele>942.9999999999999</ele><time>2026-05-01T10:00:32.826Z</time></trkpt><trkpt lat="46.27937733333333" lon="11.433514683333332"><ele>943.0</ele><time>2026-05-01T10:00:33.846Z</time></trkpt><trkpt lat="46.27939318124621" lon="11.4333830352279"><ele>941.2</ele><time>2026-05-01T10:00:34.833Z</time></trkpt><trkpt lat="46.279420698117306" lon="11.433250846351179"><ele>939.4</ele><time>2026-05-01T10:00:35.827Z</time></trkpt><trkpt lat="46.27945071004148" lon="11.433108044210222"><ele>937.6000000000001</ele><time>2026-05-01T10:00:36.849Z</time></trkpt><trkpt lat="46.27948161438424" lon="11.432961689142987"><ele>935.8000000000001</ele><time>2026-05-01T10:00:37.823Z</time></trkpt><trkpt lat="46.2795276" lon="11.432810566666667"><ele>934.0</ele><time>2026-05-01T10:00:38.826Z</time></trkpt><trkpt lat="46.27955035" lon="11.432627849999998"><ele>930.75</ele><time>2026-05-01T10:00:39.863Z</time></trkpt><trkpt lat="46.27959096666666" lon="11.432425466666666"><ele>927.5</ele><time>2026-05-01T10:00:40.839Z</time></trkpt><trkpt lat="46.27963195000001" lon="11.432209933333334"><ele>924.25</ele><time>2026-05-01T10:00:41.824Z</time></trkpt><trkpt lat="46.279650633333326" lon="11.432001400000003"><ele>921.0</ele><time>2026-05-01T10:00:42.845Z</time></trkpt><trkpt lat="46.27963604999999" lon="11.431789916666666"><ele>921.3333333333333</ele><time>2026-05-01T10:00:43.825Z</time></trkpt><trkpt lat="46.279589416666674" lon="11.431574399999999"><ele>921.6666666666666</ele><time>2026-05-01T10:00:44.823Z</time></trkpt><trkpt lat="46.27951645" lon="11.431360849999999"><ele>922.0</ele><time>2026-05-01T10:00:45.845Z</time></trkpt><trkpt lat="46.27942975" lon="11.43115285"><ele>922.0</ele><time>2026-05-01T10:00:46.826Z</time></trkpt><trkpt lat="46.27933815" lon="11.4309378"><ele>922.0</ele><time>2026-05-01T10:00:47.84Z</time></trkpt><trkpt lat="46.279251" lon="11.430727066666668"><ele>922.0</ele><time>2026-05-01T10:00:48.823Z</time></trkpt><trkpt lat="46.27916901666668" lon="11.430529750000002"><ele>921.75</ele><time>2026-05-01T10:00:49.844Z</time></trkpt><trkpt lat="46.27909228333333" lon="11.430347166666664"><ele>921.5</ele><time>2026-05-01T10:00:50.824Z</time></trkpt><trkpt lat="46.27901716666667" lon="11.430168499999997"><ele>921.25</ele><time>2026-05-01T10:00:51.845Z</time></trkpt><trkpt lat="46.278940283333334" lon="11.429989616666669"><ele>921.0</ele><time>2026-05-01T10:00:52.847Z</time></trkpt><trkpt lat="46.278863199999996" lon="11.429814316666667"><ele>921.0</ele><time>2026-05-01T10:00:53.829Z</time></trkpt><trkpt lat="46.27878636666666" lon="11.429631600000002"><ele>921.0</ele><time>2026-05-01T10:00:54.847Z</time></trkpt><trkpt lat="46.27870838333334" lon="11.429445883333335"><ele>921.0</ele><time>2026-05-01T10:00:55.825Z</time></trkpt><trkpt lat="46.27862915" lon="11.4292577"><ele>921.0</ele><time>2026-05-01T10:00:56.824Z</time></trkpt><trkpt lat="46.27855001666667" lon="11.429066150000002"><ele>921.0</ele><time>2026-05-01T10:00:57.824Z</time></trkpt><trkpt lat="46.27847061666667" lon="11.42887153333333"><ele>921.0</ele><time>2026-05-01T10:00:58.826Z</time></trkpt><trkpt lat="46.27839349999999" lon="11.428678916666668"><ele>921.75</ele><time>2026-05-01T10:00:59.823Z</time></trkpt><trkpt lat="46.27831665" lon="11.428491866666665"><ele>922.5</ele><time>2026-05-01T10:01:00.845Z</time></trkpt><trkpt lat="46.27824341666666" lon="11.4283126"><ele>923.25</ele><time>2026-05-01T10:01:01.823Z</time></trkpt><trkpt lat="46.27817556666667" lon="11.4281426"><ele>924.0</ele><time>2026-05-01T10:01:02.826Z</time></trkpt><trkpt lat="46.27810611666667" lon="11.4279777"><ele>921.75</ele><time>2026-05-01T10:01:03.845Z</time></trkpt><trkpt lat="46.27803795" lon="11.427811583333334"><ele>919.5</ele><time>2026-05-01T10:01:04.827Z</time></trkpt><trkpt lat="46.277969500000005" lon="11.427653083333333"><ele>917.25</ele><time>2026-05-01T10:01:05.824Z</time></trkpt><trkpt lat="46.27790428333333" lon="11.427502699999998"><ele>915.0</ele><time>2026-05-01T10:01:06.825Z</time></trkpt><trkpt lat="46.277846" lon="11.427360316666666"><ele>915.0</ele><time>2026-05-01T10:01:07.843Z</time></trkpt><trkpt lat="46.277790833333334" lon="11.427224650000001"><ele>915.0</ele><time>2026-05-01T10:01:08.824Z</time></trkpt><trkpt lat="46.27773745" lon="11.427096316666667"><ele>915.0</ele><time>2026-05-01T10:01:09.849Z</time></trkpt><trkpt lat="46.27767860000001" lon="11.42696745"><ele>915.0</ele><time>2026-05-01T10:01:10.832Z</time></trkpt><trkpt lat="46.27760341666667" lon="11.426837266666666"><ele>915.0</ele><time>2026-05-01T10:01:11.825Z</time></trkpt><trkpt lat="46.27751785552452" lon="11.426700746176328"><ele>914.5</ele><time>2026-05-01T10:01:12.845Z</time></trkpt><trkpt lat="46.27740201666668" lon="11.426614500000001"><ele>914.0</ele><time>2026-05-01T10:01:13.824Z</time></trkpt><trkpt lat="46.27729888333334" lon="11.42651835"><ele>913.5</ele><time>2026-05-01T10:01:14.843Z</time></trkpt><trkpt lat="46.277197883333336" lon="11.426423549999999"><ele>913.0</ele><time>2026-05-01T10:01:15.845Z</time></trkpt><trkpt lat="46.27710236666667" lon="11.426329483333332"><ele>912.5999999999999</ele><time>2026-05-01T10:01:16.841Z</time></trkpt><trkpt lat="46.27701341666666" lon="11.426236683333332"><ele>912.1999999999999</ele><time>2026-05-01T10:01:17.826Z</time></trkpt><trkpt lat="46.27692659999999" lon="11.42614885"><ele>911.8</ele><time>2026-05-01T10:01:18.845Z</time></trkpt><trkpt lat="46.27683751666667" lon="11.426062883333335"><ele>911.4</ele><time>2026-05-01T10:01:19.838Z</time></trkpt><trkpt lat="46.27674571666666" lon="11.425987433333333"><ele>911.0</ele><time>2026-05-01T10:01:20.837Z</time></trkpt><trkpt lat="46.276646316666664" lon="11.425927799999998"><ele>911.0</ele><time>2026-05-01T10:01:21.835Z</time></trkpt><trkpt lat="46.276537700000006" lon="11.425893783333334"><ele>910.9999999999999</ele><time>2026-05-01T10:01:22.825Z</time></trkpt><trkpt lat="46.27643033333334" lon="11.4258871"><ele>910.9999999999999</ele><time>2026-05-01T10:01:23.831Z</time></trkpt><trkpt lat="46.27632073333333" lon="11.425907449999999"><ele>911.0</ele><time>2026-05-01T10:01:24.846Z</time></trkpt><trkpt lat="46.27621698757334" lon="11.425898371217269"><ele>911.0</ele><time>2026-05-01T10:01:25.822Z</time></trkpt><trkpt lat="46.27613009576493" lon="11.425900423066583"><ele>908.0</ele><time>2026-05-01T10:01:26.826Z</time></trkpt><trkpt lat="46.27604295" lon="11.425880133333331"><ele>904.9999999999999</ele><time>2026-05-01T10:01:27.829Z</time></trkpt><trkpt lat="46.27597028333333" lon="11.425781333333335"><ele>901.9999999999999</ele><time>2026-05-01T10:01:28.829Z</time></trkpt><trkpt lat="46.27592001666667" lon="11.425636950000001"><ele>899.0</ele><time>2026-05-01T10:01:29.843Z</time></trkpt><trkpt lat="46.275894050000005" lon="11.425465916666667"><ele>896.0</ele><time>2026-05-01T10:01:30.823Z</time></trkpt><trkpt lat="46.27588055" lon="11.42527945"><ele>895.75</ele><time>2026-05-01T10:01:31.827Z</time></trkpt><trkpt lat="46.27586946666667" lon="11.425091799999999"><ele>895.5</ele><time>2026-05-01T10:01:32.832Z</time></trkpt><trkpt lat="46.27586058333333" lon="11.424902616666667"><ele>895.25</ele><time>2026-05-01T10:01:33.824Z</time></trkpt><trkpt lat="46.27584918333334" lon="11.424710666666666"><ele>895.0</ele><time>2026-05-01T10:01:34.834Z</time></trkpt><trkpt lat="46.27582843333333" lon="11.424530333333331"><ele>896.5</ele><time>2026-05-01T10:01:35.826Z</time></trkpt><trkpt lat="46.27578868333334" lon="11.424356966666668"><ele>898.0</ele><time>2026-05-01T10:01:36.846Z</time></trkpt><trkpt lat="46.27572553333333" lon="11.42418835"><ele>899.5</ele><time>2026-05-01T10:01:37.825Z</time></trkpt><trkpt lat="46.275649066666666" lon="11.424022366666668"><ele>901.0</ele><time>2026-05-01T10:01:38.824Z</time></trkpt><trkpt lat="46.275571750000005" lon="11.423856516666667"><ele>894.0</ele><time>2026-05-01T10:01:39.828Z</time></trkpt><trkpt lat="46.27549731666666" lon="11.423695583333332"><ele>887.0</ele><time>2026-05-01T10:01:40.826Z</time></trkpt><trkpt lat="46.27542893333333" lon="11.423528199999998"><ele>880.0</ele><time>2026-05-01T10:01:41.827Z</time></trkpt><trkpt lat="46.27536991666666" lon="11.423348666666667"><ele>873.0</ele><time>2026-05-01T10:01:42.824Z</time></trkpt><trkpt lat="46.27532148333333" lon="11.423169433333333"><ele>873.0</ele><time>2026-05-01T10:01:43.825Z</time></trkpt><trkpt lat="46.27527868333333" lon="11.422995033333333"><ele>873.0</ele><time>2026-05-01T10:01:44.824Z</time></trkpt><trkpt lat="46.27523851666667" lon="11.422822066666667"><ele>873.0</ele><time>2026-05-01T10:01:45.831Z</time></trkpt><trkpt lat="46.275209499999995" lon="11.422647033333332"><ele>873.0</ele><time>2026-05-01T10:01:46.825Z</time></trkpt><trkpt lat="46.275206233333336" lon="11.422473300000002"><ele>874.2</ele><time>2026-05-01T10:01:47.843Z</time></trkpt><trkpt lat="46.27522033333333" lon="11.42230375"><ele>875.4</ele><time>2026-05-01T10:01:48.825Z</time></trkpt><trkpt lat="46.275235533333344" lon="11.422141783333332"><ele>876.6000000000001</ele><time>2026-05-01T10:01:49.841Z</time></trkpt><trkpt lat="46.27525305" lon="11.421994666666667"><ele>877.8000000000001</ele><time>2026-05-01T10:01:50.827Z</time></trkpt><trkpt lat="46.27526153333333" lon="11.4218511"><ele>879.0</ele><time>2026-05-01T10:01:51.824Z</time></trkpt><trkpt lat="46.275236750000005" lon="11.4217095"><ele>880.6</ele><time>2026-05-01T10:01:52.843Z</time></trkpt><trkpt lat="46.2751782" lon="11.42159793333333"><ele>882.2</ele><time>2026-05-01T10:01:53.847Z</time></trkpt><trkpt lat="46.27510329067345" lon="11.421496726288533"><ele>883.8000000000001</ele><time>2026-05-01T10:01:54.824Z</time></trkpt><trkpt lat="46.27500922835542" lon="11.421469943297705"><ele>885.4000000000001</ele><time>2026-05-01T10:01:55.83Z</time></trkpt><trkpt lat="46.274918556384804" lon="11.421451963589243"><ele>887.0</ele><time>2026-05-01T10:01:56.84Z</time></trkpt><trkpt lat="46.274829100000005" lon="11.42145715"><ele>882.4000000000001</ele><time>2026-05-01T10:01:57.83Z</time></trkpt><trkpt lat="46.27473968333334" lon="11.421427300000001"><ele>877.8000000000001</ele><time>2026-05-01T10:01:58.825Z</time></trkpt><trkpt lat="46.274651733333336" lon="11.421367799999999"><ele>873.2</ele><time>2026-05-01T10:01:59.824Z</time></trkpt><trkpt lat="46.27457875" lon="11.421264583333334"><ele>868.6</ele><time>2026-05-01T10:02:00.846Z</time></trkpt><trkpt lat="46.27453248333333" lon="11.4211139"><ele>864.0</ele><time>2026-05-01T10:02:01.842Z</time></trkpt><trkpt lat="46.274509933333334" lon="11.420937266666666"><ele>864.0</ele><time>2026-05-01T10:02:02.822Z</time></trkpt><trkpt lat="46.27449741666666" lon="11.420760033333334"><ele>864.0</ele><time>2026-05-01T10:02:03.845Z</time></trkpt><trkpt lat="46.27449093333333" lon="11.420587683333334"><ele>864.0</ele><time>2026-05-01T10:02:04.839Z</time></trkpt><trkpt lat="46.2744955" lon="11.420419966666667"><ele>864.0</ele><time>2026-05-01T10:02:05.834Z</time></trkpt><trkpt lat="46.27451761666666" lon="11.420255133333333"><ele>861.5</ele><time>2026-05-01T10:02:06.825Z</time></trkpt><trkpt lat="46.27457599721625" lon="11.420096528940336"><ele>859.0</ele><time>2026-05-01T10:02:07.837Z</time></trkpt><trkpt lat="46.274616349999995" lon="11.419917933333332"><ele>856.5</ele><time>2026-05-01T10:02:08.822Z</time></trkpt><trkpt lat="46.27467043333333" lon="11.4197516"><ele>854.0</ele><time>2026-05-01T10:02:09.824Z</time></trkpt><trkpt lat="46.274716866666665" lon="11.419587216666665"><ele>851.5</ele><time>2026-05-01T10:02:10.834Z</time></trkpt><trkpt lat="46.27475341666667" lon="11.41942615"><ele>849.0</ele><time>2026-05-01T10:02:11.842Z</time></trkpt><trkpt lat="46.27477733333333" lon="11.41925935"><ele>846.5</ele><time>2026-05-01T10:02:12.846Z</time></trkpt><trkpt lat="46.27479046666667" lon="11.41908416666667"><ele>844.0</ele><time>2026-05-01T10:02:13.825Z</time></trkpt><trkpt lat="46.274797983333336" lon="11.418914366666668"><ele>843.6</ele><time>2026-05-01T10:02:14.833Z</time></trkpt><trkpt lat="46.27480048333334" lon="11.418745116666667"><ele>843.2</ele><time>2026-05-01T10:02:15.852Z</time></trkpt><trkpt lat="46.274811457706" lon="11.41857027589442"><ele>842.8000000000001</ele><time>2026-05-01T10:02:16.825Z</time></trkpt><trkpt lat="46.27478321666668" lon="11.418439716666667"><ele>842.4000000000001</ele><time>2026-05-01T10:02:17.824Z</time></trkpt><trkpt lat="46.274768583333326" lon="11.418312733333334"><ele>842.0</ele><time>2026-05-01T10:02:19.832Z</time></trkpt><trkpt lat="46.274754383333324" lon="11.418206566666667"><ele>842.0</ele><time>2026-05-01T10:02:21.83Z</time></trkpt><trkpt lat="46.27471738333334" lon="11.418058833333335"><ele>842.0</ele><time>2026-05-01T10:02:23.824Z</time></trkpt><trkpt lat="46.274681449999996" lon="11.417960233333334"><ele>842.0</ele><time>2026-05-01T10:02:24.824Z</time></trkpt><trkpt lat="46.27465941215023" lon="11.417832308559607"><ele>842.0</ele><time>2026-05-01T10:02:25.837Z</time></trkpt><trkpt lat="46.27462734677093" lon="11.417698163494299"><ele>842.0</ele><time>2026-05-01T10:02:26.827Z</time></trkpt><trkpt lat="46.27459617732218" lon="11.417571979271539"><ele>842.4000000000001</ele><time>2026-05-01T10:02:27.831Z</time></trkpt><trkpt lat="46.27456729419865" lon="11.4174618440957"><ele>842.8000000000001</ele><time>2026-05-01T10:02:28.843Z</time></trkpt><trkpt lat="46.27453498940478" lon="11.417346176483573"><ele>843.2</ele><time>2026-05-01T10:02:29.848Z</time></trkpt><trkpt lat="46.27450755800325" lon="11.417221746837917"><ele>843.6</ele><time>2026-05-01T10:02:30.829Z</time></trkpt><trkpt lat="46.27449756757864" lon="11.417088661559264"><ele>844.0</ele><time>2026-05-01T10:02:31.827Z</time></trkpt><trkpt lat="46.27451234111298" lon="11.416938798691774"><ele>843.9999999999999</ele><time>2026-05-01T10:02:32.824Z</time></trkpt><trkpt lat="46.274552463008526" lon="11.416801835335887"><ele>844.0</ele><time>2026-05-01T10:02:33.845Z</time></trkpt><trkpt lat="46.274594378117015" lon="11.416667164917481"><ele>844.0</ele><time>2026-05-01T10:02:34.831Z</time></trkpt><trkpt lat="46.27463564090835" lon="11.416557071936548"><ele>844.0</ele><time>2026-05-01T10:02:35.824Z</time></trkpt><trkpt lat="46.27466683525242" lon="11.416444007471867"><ele>843.9999999999999</ele><time>2026-05-01T10:02:36.831Z</time></trkpt><trkpt lat="46.274665929034626" lon="11.416337288993306"><ele>844.0</ele><time>2026-05-01T10:02:37.827Z</time></trkpt><trkpt lat="46.27463189356559" lon="11.41624757104783"><ele>843.9999999999999</ele><time>2026-05-01T10:02:38.844Z</time></trkpt><trkpt lat="46.274586282549016" lon="11.416182689732926"><ele>844.0</ele><time>2026-05-01T10:02:39.845Z</time></trkpt><trkpt lat="46.27445578333333" lon="11.416172483333334"><ele>844.0</ele><time>2026-05-01T10:02:41.825Z</time></trkpt><trkpt lat="46.2743957" lon="11.4162126"><ele>844.0</ele><time>2026-05-01T10:02:42.824Z</time></trkpt><trkpt lat="46.274352516666674" lon="11.416294349999998"><ele>843.9999999999999</ele><time>2026-05-01T10:02:43.828Z</time></trkpt><trkpt lat="46.27431925" lon="11.416398733333331"><ele>844.0</ele><time>2026-05-01T10:02:44.826Z</time></trkpt><trkpt lat="46.27429048333333" lon="11.4164991"><ele>843.9999999999999</ele><time>2026-05-01T10:02:45.83Z</time></trkpt><trkpt lat="46.27425963333334" lon="11.416599983333333"><ele>844.0</ele><time>2026-05-01T10:02:46.832Z</time></trkpt><trkpt lat="46.2742346" lon="11.416706766666668"><ele>844.0</ele><time>2026-05-01T10:02:47.824Z</time></trkpt><trkpt lat="46.274221716666666" lon="11.416828866666666"><ele>844.0</ele><time>2026-05-01T10:02:48.831Z</time></trkpt><trkpt lat="46.27422826666666" lon="11.416961683333332"><ele>843.9999999999999</ele><time>2026-05-01T10:02:49.84Z</time></trkpt><trkpt lat="46.27425456666666" lon="11.417104933333333"><ele>844.0</ele><time>2026-05-01T10:02:50.834Z</time></trkpt><trkpt lat="46.274273483698934" lon="11.417270469069663"><ele>844.25</ele><time>2026-05-01T10:02:51.845Z</time></trkpt><trkpt lat="46.274306643850345" lon="11.417435628634454"><ele>844.5</ele><time>2026-05-01T10:02:52.824Z</time></trkpt><trkpt lat="46.274340204717134" lon="11.41760059386902"><ele>844.75</ele><time>2026-05-01T10:02:53.822Z</time></trkpt><trkpt lat="46.27437253236067" lon="11.417770856561585"><ele>845.0</ele><time>2026-05-01T10:02:54.848Z</time></trkpt><trkpt lat="46.274399947983596" lon="11.417937554429944"><ele>844.25</ele><time>2026-05-01T10:02:55.833Z</time></trkpt><trkpt lat="46.27441193712389" lon="11.418103455972698"><ele>843.5</ele><time>2026-05-01T10:02:56.833Z</time></trkpt><trkpt lat="46.274422733333324" lon="11.418278266666666"><ele>842.75</ele><time>2026-05-01T10:02:57.843Z</time></trkpt><trkpt lat="46.27438054467177" lon="11.418452541261276"><ele>842.0</ele><time>2026-05-01T10:02:58.827Z</time></trkpt><trkpt lat="46.27433868843878" lon="11.418619830140857"><ele>842.0</ele><time>2026-05-01T10:02:59.834Z</time></trkpt><trkpt lat="46.274280745687115" lon="11.418776510174842"><ele>842.0</ele><time>2026-05-01T10:03:00.845Z</time></trkpt><trkpt lat="46.27421846386167" lon="11.418930310975796"><ele>842.0</ele><time>2026-05-01T10:03:01.836Z</time></trkpt><trkpt lat="46.27416023931003" lon="11.419085366393668"><ele>842.0</ele><time>2026-05-01T10:03:02.827Z</time></trkpt><trkpt lat="46.27412668333333" lon="11.41925245"><ele>842.5</ele><time>2026-05-01T10:03:03.839Z</time></trkpt><trkpt lat="46.274069116666666" lon="11.419411416666666"><ele>843.0</ele><time>2026-05-01T10:03:04.833Z</time></trkpt><trkpt lat="46.27400748333333" lon="11.419576099999999"><ele>843.5</ele><time>2026-05-01T10:03:05.827Z</time></trkpt><trkpt lat="46.27394773333334" lon="11.419732083333335"><ele>844.0</ele><time>2026-05-01T10:03:06.824Z</time></trkpt><trkpt lat="46.27389191666666" lon="11.41987806666667"><ele>840.3333333333333</ele><time>2026-05-01T10:03:07.831Z</time></trkpt><trkpt lat="46.2738428" lon="11.420010233333336"><ele>836.6666666666666</ele><time>2026-05-01T10:03:08.838Z</time></trkpt><trkpt lat="46.273794816666665" lon="11.420126283333332"><ele>833.0</ele><time>2026-05-01T10:03:09.824Z</time></trkpt><trkpt lat="46.273746700000004" lon="11.420230466666665"><ele>829.3333333333333</ele><time>2026-05-01T10:03:10.827Z</time></trkpt><trkpt lat="46.27370308333334" lon="11.420328516666666"><ele>825.6666666666666</ele><time>2026-05-01T10:03:11.826Z</time></trkpt><trkpt lat="46.27365975" lon="11.420418483333334"><ele>822.0</ele><time>2026-05-01T10:03:12.846Z</time></trkpt><trkpt lat="46.273626666666665" lon="11.420501216666665"><ele>822.0</ele><time>2026-05-01T10:03:13.826Z</time></trkpt><trkpt lat="46.273588583333336" lon="11.420584783333332"><ele>822.0</ele><time>2026-05-01T10:03:14.825Z</time></trkpt><trkpt lat="46.273540749999995" lon="11.420670083333334"><ele>822.0</ele><time>2026-05-01T10:03:15.825Z</time></trkpt><trkpt lat="46.27349026666667" lon="11.420765150000001"><ele>822.0</ele><time>2026-05-01T10:03:16.826Z</time></trkpt><trkpt lat="46.27343981666667" lon="11.420866133333334"><ele>822.0</ele><time>2026-05-01T10:03:17.824Z</time></trkpt><trkpt lat="46.273397499999994" lon="11.420978966666667"><ele>822.0</ele><time>2026-05-01T10:03:18.824Z</time></trkpt><trkpt lat="46.27336651666666" lon="11.421113083333333"><ele>822.0</ele><time>2026-05-01T10:03:19.843Z</time></trkpt><trkpt lat="46.27334813333333" lon="11.421267266666668"><ele>822.0</ele><time>2026-05-01T10:03:20.825Z</time></trkpt><trkpt lat="46.27333985" lon="11.4214275"><ele>822.0</ele><time>2026-05-01T10:03:21.83Z</time></trkpt><trkpt lat="46.273337766666664" lon="11.421581783333334"><ele>822.0</ele><time>2026-05-01T10:03:22.827Z</time></trkpt><trkpt lat="46.273334850000005" lon="11.421728316666668"><ele>822.0</ele><time>2026-05-01T10:03:23.826Z</time></trkpt><trkpt lat="46.27333501666667" lon="11.421876033333335"><ele>823.0</ele><time>2026-05-01T10:03:24.825Z</time></trkpt><trkpt lat="46.27334286666666" lon="11.42202275"><ele>824.0</ele><time>2026-05-01T10:03:25.836Z</time></trkpt><trkpt lat="46.273367683333326" lon="11.422169149999998"><ele>825.0</ele><time>2026-05-01T10:03:26.827Z</time></trkpt><trkpt lat="46.273412750000006" lon="11.422315383333334"><ele>826.0</ele><time>2026-05-01T10:03:27.846Z</time></trkpt><trkpt lat="46.27347036666667" lon="11.422465116666668"><ele>827.0</ele><time>2026-05-01T10:03:28.845Z</time></trkpt><trkpt lat="46.27353025000001" lon="11.422614433333335"><ele>824.0</ele><time>2026-05-01T10:03:29.834Z</time></trkpt><trkpt lat="46.27358774999999" lon="11.422762416666668"><ele>821.0</ele><time>2026-05-01T10:03:30.823Z</time></trkpt><trkpt lat="46.27363418333333" lon="11.422908949999998"><ele>818.0</ele><time>2026-05-01T10:03:31.828Z</time></trkpt><trkpt lat="46.27366468333333" lon="11.423063083333334"><ele>815.0</ele><time>2026-05-01T10:03:32.841Z</time></trkpt><trkpt lat="46.273685566666664" lon="11.4232291"><ele>813.5</ele><time>2026-05-01T10:03:33.846Z</time></trkpt><trkpt lat="46.27370081666666" lon="11.423409949999998"><ele>812.0</ele><time>2026-05-01T10:03:34.84Z</time></trkpt><trkpt lat="46.27371611666668" lon="11.423599516666664"><ele>810.5</ele><time>2026-05-01T10:03:35.831Z</time></trkpt><trkpt lat="46.27373141666667" lon="11.423781083333333"><ele>809.0</ele><time>2026-05-01T10:03:36.846Z</time></trkpt><trkpt lat="46.273746216666666" lon="11.423955633333334"><ele>808.75</ele><time>2026-05-01T10:03:37.844Z</time></trkpt><trkpt lat="46.27375376666667" lon="11.424126983333334"><ele>808.5</ele><time>2026-05-01T10:03:38.838Z</time></trkpt><trkpt lat="46.27374103333333" lon="11.424294650000002"><ele>808.25</ele><time>2026-05-01T10:03:39.825Z</time></trkpt><trkpt lat="46.27370355" lon="11.424446883333335"><ele>808.0</ele><time>2026-05-01T10:03:40.826Z</time></trkpt><trkpt lat="46.27364975000001" lon="11.424577500000002"><ele>808.4</ele><time>2026-05-01T10:03:41.84Z</time></trkpt><trkpt lat="46.2735812" lon="11.424690333333334"><ele>808.8</ele><time>2026-05-01T10:03:42.845Z</time></trkpt><trkpt lat="46.27349529999999" lon="11.424780200000002"><ele>809.2</ele><time>2026-05-01T10:03:43.824Z</time></trkpt><trkpt lat="46.273391049999994" lon="11.424846683333332"><ele>809.6</ele><time>2026-05-01T10:03:44.824Z</time></trkpt><trkpt lat="46.27328048333334" lon="11.424887550000001"><ele>810.0</ele><time>2026-05-01T10:03:45.825Z</time></trkpt><trkpt lat="46.27316631666666" lon="11.424899049999999"><ele>809.75</ele><time>2026-05-01T10:03:46.834Z</time></trkpt><trkpt lat="46.273054716666664" lon="11.424878283333332"><ele>809.5</ele><time>2026-05-01T10:03:47.838Z</time></trkpt><trkpt lat="46.2729491" lon="11.424820883333332"><ele>809.25</ele><time>2026-05-01T10:03:48.846Z</time></trkpt><trkpt lat="46.27284841666666" lon="11.424730516666667"><ele>809.0</ele><time>2026-05-01T10:03:49.833Z</time></trkpt><trkpt lat="46.27275725" lon="11.424614149999998"><ele>809.0</ele><time>2026-05-01T10:03:50.826Z</time></trkpt><trkpt lat="46.27267655000001" lon="11.424479799999999"><ele>809.0</ele><time>2026-05-01T10:03:51.864Z</time></trkpt><trkpt lat="46.272602983333336" lon="11.424337033333332"><ele>809.0</ele><time>2026-05-01T10:03:52.837Z</time></trkpt><trkpt lat="46.27253075000001" lon="11.4241983"><ele>809.0</ele><time>2026-05-01T10:03:53.824Z</time></trkpt><trkpt lat="46.27245573333333" lon="11.424064083333334"><ele>809.0</ele><time>2026-05-01T10:03:54.825Z</time></trkpt><trkpt lat="46.27238491666667" lon="11.42393815"><ele>809.0</ele><time>2026-05-01T10:03:55.826Z</time></trkpt><trkpt lat="46.272317900000004" lon="11.423816666666669"><ele>809.0</ele><time>2026-05-01T10:03:56.825Z</time></trkpt><trkpt lat="46.272255066666666" lon="11.423690733333334"><ele>809.0</ele><time>2026-05-01T10:03:57.831Z</time></trkpt><trkpt lat="46.272199900000004" lon="11.423558666666668"><ele>809.0</ele><time>2026-05-01T10:03:58.827Z</time></trkpt><trkpt lat="46.27214113333333" lon="11.423439083333335"><ele>808.1666666666667</ele><time>2026-05-01T10:03:59.834Z</time></trkpt><trkpt lat="46.27206951666667" lon="11.423346516666667"><ele>807.3333333333334</ele><time>2026-05-01T10:04:00.828Z</time></trkpt><trkpt lat="46.271989500000004" lon="11.423284116666665"><ele>806.5</ele><time>2026-05-01T10:04:01.841Z</time></trkpt><trkpt lat="46.27191156666666" lon="11.423225099999998"><ele>805.6666666666667</ele><time>2026-05-01T10:04:02.825Z</time></trkpt><trkpt lat="46.27184618333334" lon="11.423149200000001"><ele>804.8333333333334</ele><time>2026-05-01T10:04:03.832Z</time></trkpt><trkpt lat="46.27179901666667" lon="11.42304445"><ele>804.0</ele><time>2026-05-01T10:04:04.826Z</time></trkpt><trkpt lat="46.2717527" lon="11.422935833333334"><ele>804.0</ele><time>2026-05-01T10:04:05.831Z</time></trkpt><trkpt lat="46.27168858333333" lon="11.422846833333331"><ele>804.0</ele><time>2026-05-01T10:04:06.831Z</time></trkpt><trkpt lat="46.271610166666676" lon="11.422771983333332"><ele>804.0</ele><time>2026-05-01T10:04:07.826Z</time></trkpt><trkpt lat="46.271546883333336" lon="11.422674199999998"><ele>804.0</ele><time>2026-05-01T10:04:08.824Z</time></trkpt><trkpt lat="46.271502049999995" lon="11.4225475"><ele>804.0</ele><time>2026-05-01T10:04:09.826Z</time></trkpt><trkpt lat="46.27146486666667" lon="11.422406200000001"><ele>805.75</ele><time>2026-05-01T10:04:10.825Z</time></trkpt><trkpt lat="46.27142776666667" lon="11.422252366666665"><ele>807.5</ele><time>2026-05-01T10:04:11.824Z</time></trkpt><trkpt lat="46.271391566666665" lon="11.422074433333334"><ele>809.25</ele><time>2026-05-01T10:04:12.831Z</time></trkpt><trkpt lat="46.27136144999999" lon="11.421874400000002"><ele>811.0</ele><time>2026-05-01T10:04:13.826Z</time></trkpt><trkpt lat="46.27133735" lon="11.421648450000001"><ele>811.0</ele><time>2026-05-01T10:04:14.827Z</time></trkpt><trkpt lat="46.271315333333334" lon="11.421398600000002"><ele>811.0</ele><time>2026-05-01T10:04:15.831Z</time></trkpt><trkpt lat="46.27129776666667" lon="11.421128366666668"><ele>811.0</ele><time>2026-05-01T10:04:16.826Z</time></trkpt><trkpt lat="46.271277966666666" lon="11.420845049999999"><ele>808.3333333333333</ele><time>2026-05-01T10:04:17.825Z</time></trkpt><trkpt lat="46.271249033333326" lon="11.420563733333333"><ele>805.6666666666667</ele><time>2026-05-01T10:04:18.825Z</time></trkpt><trkpt lat="46.27121739999999" lon="11.420296550000002"><ele>803.0</ele><time>2026-05-01T10:04:19.845Z</time></trkpt><trkpt lat="46.27117966666666" lon="11.420039583333335"><ele>802.6666666666667</ele><time>2026-05-01T10:04:20.824Z</time></trkpt><trkpt lat="46.27113214999999" lon="11.419784866666665"><ele>802.3333333333333</ele><time>2026-05-01T10:04:21.825Z</time></trkpt><trkpt lat="46.27107646666667" lon="11.419529833333335"><ele>802.0</ele><time>2026-05-01T10:04:22.832Z</time></trkpt><trkpt lat="46.27101758333333" lon="11.419272766666666"><ele>802.0</ele><time>2026-05-01T10:04:23.838Z</time></trkpt><trkpt lat="46.270962633333326" lon="11.419007849999998"><ele>802.0</ele><time>2026-05-01T10:04:24.825Z</time></trkpt><trkpt lat="46.2709144" lon="11.418737683333331"><ele>802.0</ele><time>2026-05-01T10:04:25.836Z</time></trkpt><trkpt lat="46.27087858333332" lon="11.418470416666667"><ele>801.6666666666666</ele><time>2026-05-01T10:04:26.834Z</time></trkpt><trkpt lat="46.27084979999999" lon="11.418210666666667"><ele>801.3333333333333</ele><time>2026-05-01T10:04:27.847Z</time></trkpt><trkpt lat="46.27082563333333" lon="11.417959800000002"><ele>801.0</ele><time>2026-05-01T10:04:28.844Z</time></trkpt><trkpt lat="46.270798150000005" lon="11.417717766666664"><ele>801.0</ele><time>2026-05-01T10:04:29.825Z</time></trkpt><trkpt lat="46.27076848333333" lon="11.417475416666665"><ele>801.0</ele><time>2026-05-01T10:04:30.846Z</time></trkpt><trkpt lat="46.27074496666667" lon="11.417224666666668"><ele>801.0</ele><time>2026-05-01T10:04:31.834Z</time></trkpt><trkpt lat="46.27073528333334" lon="11.416966783333331"><ele>801.0</ele><time>2026-05-01T10:04:32.834Z</time></trkpt><trkpt lat="46.27073736666666" lon="11.416704616666667"><ele>801.0</ele><time>2026-05-01T10:04:33.831Z</time></trkpt><trkpt lat="46.27075271666666" lon="11.416443966666668"><ele>801.0</ele><time>2026-05-01T10:04:34.84Z</time></trkpt><trkpt lat="46.270782633333326" lon="11.416194350000001"><ele>799.6666666666667</ele><time>2026-05-01T10:04:35.832Z</time></trkpt><trkpt lat="46.27082336666667" lon="11.415960433333332"><ele>798.3333333333334</ele><time>2026-05-01T10:04:36.846Z</time></trkpt><trkpt lat="46.270871433333326" lon="11.415737316666664"><ele>797.0</ele><time>2026-05-01T10:04:37.825Z</time></trkpt><trkpt lat="46.270921200000004" lon="11.415520083333334"><ele>797.3333333333334</ele><time>2026-05-01T10:04:38.826Z</time></trkpt><trkpt lat="46.27097193333334" lon="11.415305766666664"><ele>797.6666666666667</ele><time>2026-05-01T10:04:39.85Z</time></trkpt><trkpt lat="46.27101978333334" lon="11.41508965"><ele>798.0</ele><time>2026-05-01T10:04:40.831Z</time></trkpt><trkpt lat="46.27106024999999" lon="11.414869566666667"><ele>799.3333333333333</ele><time>2026-05-01T10:04:41.825Z</time></trkpt><trkpt lat="46.271096333333325" lon="11.414648483333334"><ele>800.6666666666666</ele><time>2026-05-01T10:04:42.834Z</time></trkpt><trkpt lat="46.27112235" lon="11.41442485"><ele>802.0</ele><time>2026-05-01T10:04:43.826Z</time></trkpt><trkpt lat="46.27114198333334" lon="11.414200683333336"><ele>802.0</ele><time>2026-05-01T10:04:44.825Z</time></trkpt><trkpt lat="46.27115345000001" lon="11.413975466666667"><ele>802.0</ele><time>2026-05-01T10:04:45.825Z</time></trkpt><trkpt lat="46.27115789999999" lon="11.413744550000002"><ele>802.0</ele><time>2026-05-01T10:04:46.826Z</time></trkpt><trkpt lat="46.27115778333334" lon="11.413508133333336"><ele>802.0</ele><time>2026-05-01T10:04:47.824Z</time></trkpt><trkpt lat="46.27115071666667" lon="11.413272133333331"><ele>802.0</ele><time>2026-05-01T10:04:48.824Z</time></trkpt><trkpt lat="46.27113366666667" lon="11.413033483333333"><ele>802.0</ele><time>2026-05-01T10:04:49.837Z</time></trkpt><trkpt lat="46.27110448333333" lon="11.412796833333335"><ele>803.3333333333333</ele><time>2026-05-01T10:04:50.826Z</time></trkpt><trkpt lat="46.27106291666667" lon="11.412566066666667"><ele>804.6666666666667</ele><time>2026-05-01T10:04:51.847Z</time></trkpt><trkpt lat="46.27100393333333" lon="11.412348066666667"><ele>806.0</ele><time>2026-05-01T10:04:52.826Z</time></trkpt><trkpt lat="46.27092976666666" lon="11.412143949999999"><ele>811.0</ele><time>2026-05-01T10:04:53.827Z</time></trkpt><trkpt lat="46.27084496666666" lon="11.411946983333333"><ele>816.0</ele><time>2026-05-01T10:04:54.826Z</time></trkpt><trkpt lat="46.27076202859876" lon="11.411743386377106"><ele>821.0</ele><time>2026-05-01T10:04:55.826Z</time></trkpt><trkpt lat="46.270656074688574" lon="11.411562918619222"><ele>821.6666666666667</ele><time>2026-05-01T10:04:56.833Z</time></trkpt><trkpt lat="46.27054137704356" lon="11.411393415252359"><ele>822.3333333333333</ele><time>2026-05-01T10:04:57.829Z</time></trkpt><trkpt lat="46.270420710197534" lon="11.411239647520494"><ele>823.0</ele><time>2026-05-01T10:04:58.827Z</time></trkpt><trkpt lat="46.27029412065075" lon="11.4111091295901"><ele>823.0</ele><time>2026-05-01T10:04:59.826Z</time></trkpt><trkpt lat="46.27016338346002" lon="11.411005450088497"><ele>823.0</ele><time>2026-05-01T10:05:00.834Z</time></trkpt><trkpt lat="46.270033653251154" lon="11.410909718303373"><ele>823.0</ele><time>2026-05-01T10:05:01.826Z</time></trkpt><trkpt lat="46.26990089145804" lon="11.410816110664758"><ele>823.0</ele><time>2026-05-01T10:05:02.838Z</time></trkpt><trkpt lat="46.26976119999999" lon="11.410742983333334"><ele>824.75</ele><time>2026-05-01T10:05:03.847Z</time></trkpt><trkpt lat="46.269626800000005" lon="11.41065348333333"><ele>826.5</ele><time>2026-05-01T10:05:04.845Z</time></trkpt><trkpt lat="46.269490812541136" lon="11.41055965139028"><ele>828.25</ele><time>2026-05-01T10:05:05.847Z</time></trkpt><trkpt lat="46.269346486781835" lon="11.410497309965999"><ele>830.0</ele><time>2026-05-01T10:05:06.847Z</time></trkpt><trkpt lat="46.26920706666667" lon="11.410460333333333"><ele>830.0</ele><time>2026-05-01T10:05:07.826Z</time></trkpt><trkpt lat="46.26906913333334" lon="11.410408600000002"><ele>830.0</ele><time>2026-05-01T10:05:08.841Z</time></trkpt><trkpt lat="46.26892408333333" lon="11.410362066666668"><ele>830.0</ele><time>2026-05-01T10:05:09.846Z</time></trkpt><trkpt lat="46.268780966666654" lon="11.410304150000004"><ele>830.0</ele><time>2026-05-01T10:05:10.837Z</time></trkpt><trkpt lat="46.26863955000001" lon="11.410224883333333"><ele>830.5</ele><time>2026-05-01T10:05:11.825Z</time></trkpt><trkpt lat="46.26851025" lon="11.410117249999999"><ele>831.0</ele><time>2026-05-01T10:05:12.847Z</time></trkpt><trkpt lat="46.268413624872" lon="11.409959262146403"><ele>831.5</ele><time>2026-05-01T10:05:13.843Z</time></trkpt><trkpt lat="46.26831775145958" lon="11.409802062478839"><ele>832.0</ele><time>2026-05-01T10:05:14.831Z</time></trkpt><trkpt lat="46.26822176396888" lon="11.409636306594566"><ele>832.0</ele><time>2026-05-01T10:05:15.846Z</time></trkpt><trkpt lat="46.26812440710135" lon="11.409467189917171"><ele>832.0</ele><time>2026-05-01T10:05:16.836Z</time></trkpt><trkpt lat="46.26802588056978" lon="11.409296041422907"><ele>832.0</ele><time>2026-05-01T10:05:17.842Z</time></trkpt><trkpt lat="46.267920806126945" lon="11.409122713667056"><ele>830.0</ele><time>2026-05-01T10:05:18.825Z</time></trkpt><trkpt lat="46.267809678147344" lon="11.408961852604387"><ele>828.0</ele><time>2026-05-01T10:05:19.831Z</time></trkpt><trkpt lat="46.26769558175794" lon="11.408815934139339"><ele>826.0</ele><time>2026-05-01T10:05:20.825Z</time></trkpt><trkpt lat="46.2675761276867" lon="11.408701612407471"><ele>826.0</ele><time>2026-05-01T10:05:21.825Z</time></trkpt><trkpt lat="46.26745135944439" lon="11.408609326043472"><ele>826.0</ele><time>2026-05-01T10:05:22.834Z</time></trkpt><trkpt lat="46.26732650949391" lon="11.408542258554379"><ele>826.0</ele><time>2026-05-01T10:05:23.843Z</time></trkpt><trkpt lat="46.26720669776937" lon="11.408483159762888"><ele>826.0</ele><time>2026-05-01T10:05:24.846Z</time></trkpt><trkpt lat="46.267100733333336" lon="11.408411683333334"><ele>821.25</ele><time>2026-05-01T10:05:25.825Z</time></trkpt><trkpt lat="46.26701391666667" lon="11.408279566666666"><ele>816.5</ele><time>2026-05-01T10:05:26.849Z</time></trkpt><trkpt lat="46.266938100000004" lon="11.408119183333335"><ele>811.75</ele><time>2026-05-01T10:05:27.864Z</time></trkpt><trkpt lat="46.266882016666656" lon="11.407939299999999"><ele>807.0</ele><time>2026-05-01T10:05:28.826Z</time></trkpt><trkpt lat="46.26683433333333" lon="11.407762933333332"><ele>807.0</ele><time>2026-05-01T10:05:29.825Z</time></trkpt><trkpt lat="46.266792283333345" lon="11.407598666666669"><ele>807.0</ele><time>2026-05-01T10:05:30.834Z</time></trkpt><trkpt lat="46.2667547" lon="11.407453433333334"><ele>807.0</ele><time>2026-05-01T10:05:31.826Z</time></trkpt><trkpt lat="46.266706716666675" lon="11.407309783333334"><ele>807.0</ele><time>2026-05-01T10:05:32.824Z</time></trkpt><trkpt lat="46.266645616666665" lon="11.407154966666669"><ele>805.5</ele><time>2026-05-01T10:05:33.832Z</time></trkpt><trkpt lat="46.26658091666667" lon="11.40698425"><ele>804.0</ele><time>2026-05-01T10:05:34.826Z</time></trkpt><trkpt lat="46.266515766666664" lon="11.406791716666664"><ele>802.5</ele><time>2026-05-01T10:05:35.823Z</time></trkpt><trkpt lat="46.266443849999995" lon="11.406583366666666"><ele>801.0</ele><time>2026-05-01T10:05:36.828Z</time></trkpt><trkpt lat="46.266365583333325" lon="11.406350583333335"><ele>797.6666666666667</ele><time>2026-05-01T10:05:37.839Z</time></trkpt><trkpt lat="46.26627961666666" lon="11.406085833333336"><ele>794.3333333333334</ele><time>2026-05-01T10:05:38.824Z</time></trkpt><trkpt lat="46.266185799999995" lon="11.405794233333333"><ele>791.0</ele><time>2026-05-01T10:05:39.825Z</time></trkpt><trkpt lat="46.26608625000001" lon="11.405478783333335"><ele>788.5</ele><time>2026-05-01T10:05:40.844Z</time></trkpt><trkpt lat="46.26598295" lon="11.4051588"><ele>786.0</ele><time>2026-05-01T10:05:41.844Z</time></trkpt><trkpt lat="46.26587138333333" lon="11.404844633333335"><ele>787.0</ele><time>2026-05-01T10:05:42.832Z</time></trkpt><trkpt lat="46.26573968333334" lon="11.40453105"><ele>788.0</ele><time>2026-05-01T10:05:43.832Z</time></trkpt><trkpt lat="46.26558398333333" lon="11.404225083333332"><ele>786.0</ele><time>2026-05-01T10:05:44.827Z</time></trkpt><trkpt lat="46.265419800000004" lon="11.403929850000003"><ele>784.0</ele><time>2026-05-01T10:05:45.828Z</time></trkpt><trkpt lat="46.26525783333333" lon="11.403639400000001"><ele>783.5</ele><time>2026-05-01T10:05:46.834Z</time></trkpt><trkpt lat="46.26510041666667" lon="11.40335695"><ele>783.0</ele><time>2026-05-01T10:05:47.825Z</time></trkpt><trkpt lat="46.26495103333333" lon="11.403092499999998"><ele>783.0</ele><time>2026-05-01T10:05:48.832Z</time></trkpt><trkpt lat="46.26481083333333" lon="11.402843616666667"><ele>783.0</ele><time>2026-05-01T10:05:49.834Z</time></trkpt><trkpt lat="46.26467935000001" lon="11.4026"><ele>783.0</ele><time>2026-05-01T10:05:50.842Z</time></trkpt><trkpt lat="46.26457543333333" lon="11.402340416666668"><ele>796.3333333333333</ele><time>2026-05-01T10:05:51.831Z</time></trkpt><trkpt lat="46.26451014999999" lon="11.402057300000001"><ele>809.6666666666666</ele><time>2026-05-01T10:05:52.836Z</time></trkpt><trkpt lat="46.26446141666667" lon="11.401759499999999"><ele>823.0</ele><time>2026-05-01T10:05:53.824Z</time></trkpt><trkpt lat="46.26441201666667" lon="11.401479649999999"><ele>815.3333333333333</ele><time>2026-05-01T10:05:54.822Z</time></trkpt><trkpt lat="46.26437326609732" lon="11.401221769459863"><ele>807.6666666666667</ele><time>2026-05-01T10:05:55.832Z</time></trkpt><trkpt lat="46.264300997299735" lon="11.400993693391131"><ele>800.0</ele><time>2026-05-01T10:05:56.825Z</time></trkpt><trkpt lat="46.264188" lon="11.400791250000003"><ele>800.0</ele><time>2026-05-01T10:05:57.831Z</time></trkpt><trkpt lat="46.26407613333334" lon="11.400574683333332"><ele>800.0</ele><time>2026-05-01T10:05:58.825Z</time></trkpt><trkpt lat="46.26395178333334" lon="11.400352100000003"><ele>800.0</ele><time>2026-05-01T10:05:59.884Z</time></trkpt><trkpt lat="46.263814950000004" lon="11.40012265"><ele>807.3333333333334</ele><time>2026-05-01T10:06:00.824Z</time></trkpt><trkpt lat="46.26368781666667" lon="11.399889583333334"><ele>814.6666666666667</ele><time>2026-05-01T10:06:01.837Z</time></trkpt><trkpt lat="46.26358235" lon="11.39964475"><ele>822.0</ele><time>2026-05-01T10:06:02.825Z</time></trkpt><trkpt lat="46.26350291666666" lon="11.399369850000001"><ele>822.0</ele><time>2026-05-01T10:06:03.824Z</time></trkpt><trkpt lat="46.26343866666666" lon="11.399070566666667"><ele>822.0</ele><time>2026-05-01T10:06:04.826Z</time></trkpt><trkpt lat="46.263375266666664" lon="11.3987543"><ele>822.0</ele><time>2026-05-01T10:06:05.825Z</time></trkpt><trkpt lat="46.263306416666666" lon="11.398422866666666"><ele>808.5</ele><time>2026-05-01T10:06:06.832Z</time></trkpt><trkpt lat="46.263239133333336" lon="11.398071416666669"><ele>795.0</ele><time>2026-05-01T10:06:07.834Z</time></trkpt><trkpt lat="46.26316830000001" lon="11.397709983333334"><ele>802.0</ele><time>2026-05-01T10:06:08.836Z</time></trkpt><trkpt lat="46.263094900000006" lon="11.39734823333333"><ele>809.0</ele><time>2026-05-01T10:06:09.848Z</time></trkpt><trkpt lat="46.263024783333336" lon="11.396991216666667"><ele>814.5</ele><time>2026-05-01T10:06:10.839Z</time></trkpt><trkpt lat="46.2629535" lon="11.39664275"><ele>820.0</ele><time>2026-05-01T10:06:11.832Z</time></trkpt><trkpt lat="46.26288416666666" lon="11.396314433333334"><ele>826.3333333333333</ele><time>2026-05-01T10:06:12.824Z</time></trkpt><trkpt lat="46.26281945000001" lon="11.3960085"><ele>832.6666666666667</ele><time>2026-05-01T10:06:13.832Z</time></trkpt><trkpt lat="46.262758600000005" lon="11.395719249999997"><ele>839.0</ele><time>2026-05-01T10:06:14.825Z</time></trkpt><trkpt lat="46.262710600000005" lon="11.395443616666666"><ele>839.3333333333334</ele><time>2026-05-01T10:06:15.824Z</time></trkpt><trkpt lat="46.262695316666665" lon="11.395177333333335"><ele>839.6666666666667</ele><time>2026-05-01T10:06:16.833Z</time></trkpt><trkpt lat="46.26271345" lon="11.394918183333335"><ele>840.0</ele><time>2026-05-01T10:06:17.827Z</time></trkpt><trkpt lat="46.26276087802419" lon="11.394670259617051"><ele>836.0</ele><time>2026-05-01T10:06:18.831Z</time></trkpt><trkpt lat="46.262767266513386" lon="11.394424458192054"><ele>832.0</ele><time>2026-05-01T10:06:19.826Z</time></trkpt><trkpt lat="46.26273247253184" lon="11.394179767750828"><ele>828.0</ele><time>2026-05-01T10:06:20.832Z</time></trkpt><trkpt lat="46.262652509252995" lon="11.393950854184407"><ele>819.0</ele><time>2026-05-01T10:06:21.825Z</time></trkpt><trkpt lat="46.26253099286643" lon="11.393736012249047"><ele>810.0</ele><time>2026-05-01T10:06:22.831Z</time></trkpt><trkpt lat="46.26239347381927" lon="11.393526586769655"><ele>801.0</ele><time>2026-05-01T10:06:23.826Z</time></trkpt><trkpt lat="46.26224396666667" lon="11.393304333333333"><ele>819.0</ele><time>2026-05-01T10:06:24.824Z</time></trkpt><trkpt lat="46.262103833333335" lon="11.393043599999999"><ele>837.0</ele><time>2026-05-01T10:06:25.827Z</time></trkpt><trkpt lat="46.26195361666667" lon="11.392769950000002"><ele>837.0</ele><time>2026-05-01T10:06:26.828Z</time></trkpt><trkpt lat="46.261796000000004" lon="11.392492483333335"><ele>837.0</ele><time>2026-05-01T10:06:27.824Z</time></trkpt><trkpt lat="46.26163331666667" lon="11.392214616666669"><ele>848.0</ele><time>2026-05-01T10:06:28.827Z</time></trkpt><trkpt lat="46.26147578333333" lon="11.39193055"><ele>859.0</ele><time>2026-05-01T10:06:29.825Z</time></trkpt><trkpt lat="46.2613291" lon="11.39163125"><ele>850.5</ele><time>2026-05-01T10:06:30.823Z</time></trkpt><trkpt lat="46.261205583333336" lon="11.391309000000001"><ele>842.0</ele><time>2026-05-01T10:06:31.842Z</time></trkpt><trkpt lat="46.26109973333334" lon="11.390967466666666"><ele>842.0</ele><time>2026-05-01T10:06:32.823Z</time></trkpt><trkpt lat="46.26100328333334" lon="11.390610233333332"><ele>842.0</ele><time>2026-05-01T10:06:33.834Z</time></trkpt><trkpt lat="46.2609156" lon="11.390250283333335"><ele>832.0</ele><time>2026-05-01T10:06:34.828Z</time></trkpt><trkpt lat="46.260833266666666" lon="11.389919483333331"><ele>822.0</ele><time>2026-05-01T10:06:35.845Z</time></trkpt><trkpt lat="46.260761816666665" lon="11.389623416666666"><ele>819.3333333333333</ele><time>2026-05-01T10:06:36.824Z</time></trkpt><trkpt lat="46.260716" lon="11.389340733333333"><ele>816.6666666666666</ele><time>2026-05-01T10:06:37.837Z</time></trkpt><trkpt lat="46.260703316666664" lon="11.389059666666666"><ele>814.0</ele><time>2026-05-01T10:06:38.832Z</time></trkpt><trkpt lat="46.26072841666667" lon="11.388778233333335"><ele>809.3333333333333</ele><time>2026-05-01T10:06:39.822Z</time></trkpt><trkpt lat="46.26077111666666" lon="11.388513383333335"><ele>804.6666666666667</ele><time>2026-05-01T10:06:40.843Z</time></trkpt><trkpt lat="46.2608025" lon="11.388260333333335"><ele>800.0</ele><time>2026-05-01T10:06:41.833Z</time></trkpt><trkpt lat="46.26079568333333" lon="11.388006816666667"><ele>797.6666666666667</ele><time>2026-05-01T10:06:42.824Z</time></trkpt><trkpt lat="46.2607414" lon="11.387757983333332"><ele>795.3333333333333</ele><time>2026-05-01T10:06:43.828Z</time></trkpt><trkpt lat="46.26064481666668" lon="11.387517199999998"><ele>793.0</ele><time>2026-05-01T10:06:44.844Z</time></trkpt><trkpt lat="46.26053449999999" lon="11.387280516666666"><ele>817.3333333333333</ele><time>2026-05-01T10:06:45.824Z</time></trkpt><trkpt lat="46.26044593333333" lon="11.387043966666667"><ele>841.6666666666667</ele><time>2026-05-01T10:06:46.837Z</time></trkpt><trkpt lat="46.26039430000001" lon="11.386796050000001"><ele>866.0</ele><time>2026-05-01T10:06:47.824Z</time></trkpt><trkpt lat="46.26039013333334" lon="11.386527933333332"><ele>867.3333333333334</ele><time>2026-05-01T10:06:48.824Z</time></trkpt><trkpt lat="46.260417016666665" lon="11.386237966666666"><ele>868.6666666666667</ele><time>2026-05-01T10:06:49.847Z</time></trkpt><trkpt lat="46.26044901666667" lon="11.385934483333331"><ele>870.0</ele><time>2026-05-01T10:06:50.833Z</time></trkpt><trkpt lat="46.26048024999999" lon="11.385629449999998"><ele>863.3333333333333</ele><time>2026-05-01T10:06:51.823Z</time></trkpt><trkpt lat="46.26049876666666" lon="11.385335950000002"><ele>856.6666666666666</ele><time>2026-05-01T10:06:52.827Z</time></trkpt><trkpt lat="46.260486000000014" lon="11.385049333333333"><ele>850.0</ele><time>2026-05-01T10:06:53.842Z</time></trkpt><trkpt lat="46.26044173333333" lon="11.384757533333335"><ele>841.0</ele><time>2026-05-01T10:06:54.825Z</time></trkpt><trkpt lat="46.2603895" lon="11.384455716666665"><ele>832.0</ele><time>2026-05-01T10:06:55.839Z</time></trkpt><trkpt lat="46.26034766666666" lon="11.384142366666666"><ele>823.0</ele><time>2026-05-01T10:06:56.825Z</time></trkpt><trkpt lat="46.26033003333333" lon="11.383820516666665"><ele>819.0</ele><time>2026-05-01T10:06:57.823Z</time></trkpt><trkpt lat="46.260338366666666" lon="11.383491616666667"><ele>815.0</ele><time>2026-05-01T10:06:58.834Z</time></trkpt><trkpt lat="46.260355616666665" lon="11.383161816666666"><ele>812.5</ele><time>2026-05-01T10:06:59.834Z</time></trkpt><trkpt lat="46.26036608333334" lon="11.382834833333334"><ele>810.0</ele><time>2026-05-01T10:07:00.824Z</time></trkpt><trkpt lat="46.260351199999995" lon="11.38250245"><ele>815.5</ele><time>2026-05-01T10:07:01.836Z</time></trkpt><trkpt lat="46.26030506666665" lon="11.38216635"><ele>821.0</ele><time>2026-05-01T10:07:02.833Z</time></trkpt><trkpt lat="46.26023874999999" lon="11.381818716666666"><ele>821.0</ele><time>2026-05-01T10:07:03.824Z</time></trkpt><trkpt lat="46.2601654" lon="11.381462016666669"><ele>821.0</ele><time>2026-05-01T10:07:04.841Z</time></trkpt><trkpt lat="46.260095" lon="11.381115433333331"><ele>824.6666666666667</ele><time>2026-05-01T10:07:05.825Z</time></trkpt><trkpt lat="46.26002925" lon="11.380794700000001"><ele>828.3333333333333</ele><time>2026-05-01T10:07:06.832Z</time></trkpt><trkpt lat="46.25996775" lon="11.380503500000001"><ele>832.0</ele><time>2026-05-01T10:07:07.826Z</time></trkpt><trkpt lat="46.25992028333333" lon="11.380239433333333"><ele>833.6666666666666</ele><time>2026-05-01T10:07:08.826Z</time></trkpt><trkpt lat="46.25990360000001" lon="11.3799818"><ele>835.3333333333333</ele><time>2026-05-01T10:07:09.824Z</time></trkpt><trkpt lat="46.259925183333344" lon="11.37971055"><ele>837.0</ele><time>2026-05-01T10:07:10.825Z</time></trkpt><trkpt lat="46.25999350000001" lon="11.379433333333335"><ele>846.5</ele><time>2026-05-01T10:07:11.825Z</time></trkpt><trkpt lat="46.26008961666666" lon="11.379145999999999"><ele>856.0</ele><time>2026-05-01T10:07:12.826Z</time></trkpt><trkpt lat="46.26018353333334" lon="11.378831616666666"><ele>864.5</ele><time>2026-05-01T10:07:13.843Z</time></trkpt><trkpt lat="46.260279999999995" lon="11.378507549999998"><ele>873.0</ele><time>2026-05-01T10:07:14.836Z</time></trkpt><trkpt lat="46.26038046666666" lon="11.378198783333335"><ele>878.3333333333333</ele><time>2026-05-01T10:07:15.832Z</time></trkpt><trkpt lat="46.26047478333333" lon="11.377904066666668"><ele>883.6666666666666</ele><time>2026-05-01T10:07:16.822Z</time></trkpt><trkpt lat="46.26056206666667" lon="11.37761685"><ele>889.0</ele><time>2026-05-01T10:07:17.832Z</time></trkpt><trkpt lat="46.26062548333333" lon="11.377311650000003"><ele>860.0</ele><time>2026-05-01T10:07:18.835Z</time></trkpt><trkpt lat="46.260657099999996" lon="11.376983216666668"><ele>831.0</ele><time>2026-05-01T10:07:19.828Z</time></trkpt><trkpt lat="46.26068413333334" lon="11.376645566666665"><ele>837.0</ele><time>2026-05-01T10:07:20.824Z</time></trkpt><trkpt lat="46.26071418333333" lon="11.376302516666666"><ele>843.0</ele><time>2026-05-01T10:07:21.825Z</time></trkpt><trkpt lat="46.2607465" lon="11.3759652"><ele>843.0</ele><time>2026-05-01T10:07:22.824Z</time></trkpt><trkpt lat="46.26077976666667" lon="11.375647916666665"><ele>843.0</ele><time>2026-05-01T10:07:23.826Z</time></trkpt><trkpt lat="46.260812766666675" lon="11.375352833333332"><ele>843.0</ele><time>2026-05-01T10:07:24.824Z</time></trkpt><trkpt lat="46.26083928333334" lon="11.375076733333334"><ele>843.3333333333333</ele><time>2026-05-01T10:07:25.827Z</time></trkpt><trkpt lat="46.260850250000004" lon="11.374819749999999"><ele>843.6666666666666</ele><time>2026-05-01T10:07:26.826Z</time></trkpt><trkpt lat="46.2608308" lon="11.374575883333334"><ele>844.0</ele><time>2026-05-01T10:07:27.823Z</time></trkpt><trkpt lat="46.26076496666666" lon="11.374349733333334"><ele>840.0</ele><time>2026-05-01T10:07:28.825Z</time></trkpt><trkpt lat="46.26064936666667" lon="11.374170900000003"><ele>836.0</ele><time>2026-05-01T10:07:29.825Z</time></trkpt><trkpt lat="46.26049225" lon="11.374042083333332"><ele>832.0</ele><time>2026-05-01T10:07:30.823Z</time></trkpt><trkpt lat="46.260319366666664" lon="11.373954900000001"><ele>833.0</ele><time>2026-05-01T10:07:31.843Z</time></trkpt><trkpt lat="46.26015434999999" lon="11.373876033333334"><ele>834.0</ele><time>2026-05-01T10:07:32.825Z</time></trkpt><trkpt lat="46.26001256666667" lon="11.373783399999999"><ele>835.0</ele><time>2026-05-01T10:07:33.824Z</time></trkpt><trkpt lat="46.25990001666668" lon="11.373651316666667"><ele>835.0</ele><time>2026-05-01T10:07:34.835Z</time></trkpt><trkpt lat="46.25981418333334" lon="11.373473016666667"><ele>835.0</ele><time>2026-05-01T10:07:35.825Z</time></trkpt><trkpt lat="46.25976575" lon="11.373261416666667"><ele>835.0</ele><time>2026-05-01T10:07:36.832Z</time></trkpt><trkpt lat="46.25976881666667" lon="11.373041599999999"><ele>828.6666666666666</ele><time>2026-05-01T10:07:37.838Z</time></trkpt><trkpt lat="46.2598202" lon="11.3728235"><ele>822.3333333333333</ele><time>2026-05-01T10:07:38.837Z</time></trkpt><trkpt lat="46.25990595" lon="11.372602666666667"><ele>816.0</ele><time>2026-05-01T10:07:39.824Z</time></trkpt><trkpt lat="46.26000654999999" lon="11.37235871666667"><ele>824.6666666666667</ele><time>2026-05-01T10:07:40.845Z</time></trkpt><trkpt lat="46.26011238333334" lon="11.372086966666666"><ele>833.3333333333334</ele><time>2026-05-01T10:07:41.825Z</time></trkpt><trkpt lat="46.260225250000005" lon="11.371798799999999"><ele>842.0</ele><time>2026-05-01T10:07:42.824Z</time></trkpt><trkpt lat="46.26033946666666" lon="11.371499366666667"><ele>872.0</ele><time>2026-05-01T10:07:43.835Z</time></trkpt><trkpt lat="46.26045708333333" lon="11.371196999999999"><ele>902.0</ele><time>2026-05-01T10:07:44.836Z</time></trkpt><trkpt lat="46.26057434999999" lon="11.370906033333332"><ele>885.0</ele><time>2026-05-01T10:07:45.836Z</time></trkpt><trkpt lat="46.26068651666666" lon="11.370632983333333"><ele>868.0</ele><time>2026-05-01T10:07:46.84Z</time></trkpt><trkpt lat="46.26078291666666" lon="11.370384300000001"><ele>851.0</ele><time>2026-05-01T10:07:47.832Z</time></trkpt><trkpt lat="46.260855233333324" lon="11.370146083333335"><ele>851.0</ele><time>2026-05-01T10:07:48.825Z</time></trkpt><trkpt lat="46.26089175" lon="11.369902483333334"><ele>851.0</ele><time>2026-05-01T10:07:49.847Z</time></trkpt><trkpt lat="46.26089316666666" lon="11.369640866666668"><ele>851.0</ele><time>2026-05-01T10:07:50.825Z</time></trkpt><trkpt lat="46.26087858333333" lon="11.369357400000002"><ele>853.6666666666667</ele><time>2026-05-01T10:07:51.832Z</time></trkpt><trkpt lat="46.26086221666666" lon="11.369062133333335"><ele>856.3333333333333</ele><time>2026-05-01T10:07:52.833Z</time></trkpt><trkpt lat="46.260857016666655" lon="11.368765666666665"><ele>859.0</ele><time>2026-05-01T10:07:53.831Z</time></trkpt><trkpt lat="46.26088281666666" lon="11.368468333333333"><ele>867.3333333333333</ele><time>2026-05-01T10:07:54.833Z</time></trkpt><trkpt lat="46.260939400000005" lon="11.368167049999998"><ele>875.6666666666667</ele><time>2026-05-01T10:07:55.828Z</time></trkpt><trkpt lat="46.26101558333333" lon="11.367873133333333"><ele>884.0</ele><time>2026-05-01T10:07:56.824Z</time></trkpt><trkpt lat="46.26109844999999" lon="11.367592866666667"><ele>891.6666666666667</ele><time>2026-05-01T10:07:57.828Z</time></trkpt><trkpt lat="46.261180366666665" lon="11.367305766666668"><ele>899.3333333333333</ele><time>2026-05-01T10:07:58.827Z</time></trkpt><trkpt lat="46.26124953104786" lon="11.367013193214591"><ele>907.0</ele><time>2026-05-01T10:07:59.826Z</time></trkpt><trkpt lat="46.26131468192538" lon="11.366731715410973"><ele>917.0</ele><time>2026-05-01T10:08:00.833Z</time></trkpt><trkpt lat="46.261379130442585" lon="11.366450318654055"><ele>927.0</ele><time>2026-05-01T10:08:01.837Z</time></trkpt><trkpt lat="46.2614673468634" lon="11.366065056816382"><ele>903.5</ele><time>2026-05-01T10:08:02.829Z</time></trkpt><trkpt lat="46.261556736848334" lon="11.365613763044053"><ele>880.0</ele><time>2026-05-01T10:08:03.834Z</time></trkpt><trkpt lat="46.2616300498191" lon="11.365222408291318"><ele>878.5</ele><time>2026-05-01T10:08:04.83Z</time></trkpt><trkpt lat="46.261739166666665" lon="11.364855216666667"><ele>877.0</ele><time>2026-05-01T10:08:05.827Z</time></trkpt><trkpt lat="46.26182198333333" lon="11.364420883333333"><ele>881.0</ele><time>2026-05-01T10:08:06.825Z</time></trkpt><trkpt lat="46.261882899999996" lon="11.363985266666669"><ele>885.0</ele><time>2026-05-01T10:08:07.843Z</time></trkpt><trkpt lat="46.26194776666666" lon="11.36358218333333"><ele>893.0</ele><time>2026-05-01T10:08:08.844Z</time></trkpt><trkpt lat="46.26202091666668" lon="11.363209999999999"><ele>901.0</ele><time>2026-05-01T10:08:09.827Z</time></trkpt><trkpt lat="46.2621066" lon="11.362878766666666"><ele>907.3333333333333</ele><time>2026-05-01T10:08:10.83Z</time></trkpt><trkpt lat="46.262218291503075" lon="11.362590945754896"><ele>913.6666666666667</ele><time>2026-05-01T10:08:11.848Z</time></trkpt><trkpt lat="46.262323207613974" lon="11.362329252345056"><ele>920.0</ele><time>2026-05-01T10:08:12.829Z</time></trkpt><trkpt lat="46.26241848318891" lon="11.36207976221584"><ele>900.6666666666667</ele><time>2026-05-01T10:08:13.835Z</time></trkpt><trkpt lat="46.26248928980041" lon="11.361815137940495"><ele>881.3333333333333</ele><time>2026-05-01T10:08:14.828Z</time></trkpt><trkpt lat="46.262515644784884" lon="11.361527649676411"><ele>862.0</ele><time>2026-05-01T10:08:15.826Z</time></trkpt><trkpt lat="46.26250739152564" lon="11.361230482372763"><ele>860.5</ele><time>2026-05-01T10:08:16.846Z</time></trkpt><trkpt lat="46.26249261359445" lon="11.360914429635026"><ele>859.0</ele><time>2026-05-01T10:08:17.836Z</time></trkpt><trkpt lat="46.26247647536795" lon="11.360581055754775"><ele>860.0</ele><time>2026-05-01T10:08:18.836Z</time></trkpt><trkpt lat="46.26246022893435" lon="11.360249477430035"><ele>861.0</ele><time>2026-05-01T10:08:19.838Z</time></trkpt><trkpt lat="46.26244473575987" lon="11.35993533642925"><ele>862.0</ele><time>2026-05-01T10:08:20.846Z</time></trkpt><trkpt lat="46.26243050165714" lon="11.35964672439946"><ele>868.3333333333333</ele><time>2026-05-01T10:08:21.828Z</time></trkpt><trkpt lat="46.26242713333333" lon="11.359378066666666"><ele>874.6666666666667</ele><time>2026-05-01T10:08:22.831Z</time></trkpt><trkpt lat="46.26247348333333" lon="11.35913005"><ele>881.0</ele><time>2026-05-01T10:08:23.829Z</time></trkpt><trkpt lat="46.26253936666667" lon="11.358914716666668"><ele>889.3333333333334</ele><time>2026-05-01T10:08:24.827Z</time></trkpt><trkpt lat="46.262603333333324" lon="11.358719583333334"><ele>897.6666666666667</ele><time>2026-05-01T10:08:25.848Z</time></trkpt><trkpt lat="46.26264203333333" lon="11.358518833333335"><ele>906.0</ele><time>2026-05-01T10:08:26.828Z</time></trkpt><trkpt lat="46.26259801666667" lon="11.358279249999997"><ele>913.0</ele><time>2026-05-01T10:08:27.829Z</time></trkpt><trkpt lat="46.26247673333334" lon="11.358000900000002"><ele>920.0</ele><time>2026-05-01T10:08:28.831Z</time></trkpt><trkpt lat="46.26234984999999" lon="11.357701533333334"><ele>941.0</ele><time>2026-05-01T10:08:29.849Z</time></trkpt><trkpt lat="46.26221855" lon="11.357399716666665"><ele>962.0</ele><time>2026-05-01T10:08:30.836Z</time></trkpt><trkpt lat="46.26208725" lon="11.3570979"><ele>962.0</ele><time>2026-05-01T10:08:31.828Z</time></trkpt><trkpt lat="46.26195595000001" lon="11.356796083333332"><ele>962.0</ele><time>2026-05-01T10:08:32.828Z</time></trkpt><trkpt lat="46.26182465" lon="11.356494266666669"><ele>910.0</ele><time>2026-05-01T10:08:33.827Z</time></trkpt><trkpt lat="46.26275415" lon="11.356402849999998"><ele>898.3333333333333</ele><time>2026-05-01T10:08:34.841Z</time></trkpt><trkpt lat="46.262715283333335" lon="11.356192916666666"><ele>886.6666666666667</ele><time>2026-05-01T10:08:35.837Z</time></trkpt><trkpt lat="46.26264846666666" lon="11.355953466666666"><ele>875.0</ele><time>2026-05-01T10:08:36.827Z</time></trkpt><trkpt lat="46.26255505000001" lon="11.355719299999999"><ele>873.6666666666667</ele><time>2026-05-01T10:08:37.845Z</time></trkpt><trkpt lat="46.26245178333333" lon="11.355486566666665"><ele>872.3333333333333</ele><time>2026-05-01T10:08:38.829Z</time></trkpt><trkpt lat="46.26237113333333" lon="11.355277733333333"><ele>871.0</ele><time>2026-05-01T10:08:39.829Z</time></trkpt><trkpt lat="46.262281083333335" lon="11.355090849999998"><ele>871.0</ele><time>2026-05-01T10:08:40.844Z</time></trkpt><trkpt lat="46.262180766666674" lon="11.3549336"><ele>871.0</ele><time>2026-05-01T10:08:41.833Z</time></trkpt><trkpt lat="46.26207741666667" lon="11.354822283333332"><ele>871.0</ele><time>2026-05-01T10:08:42.842Z</time></trkpt><trkpt lat="46.26196003333333" lon="11.35474475"><ele>871.0</ele><time>2026-05-01T10:08:43.83Z</time></trkpt><trkpt lat="46.26182976666667" lon="11.354709066666665"><ele>871.0</ele><time>2026-05-01T10:08:44.847Z</time></trkpt><trkpt lat="46.26168896666667" lon="11.354719183333335"><ele>871.0</ele><time>2026-05-01T10:08:45.827Z</time></trkpt><trkpt lat="46.26153725" lon="11.354747650000002"><ele>871.0</ele><time>2026-05-01T10:08:46.832Z</time></trkpt><trkpt lat="46.26136414999999" lon="11.354768816666668"><ele>870.6666666666666</ele><time>2026-05-01T10:08:47.837Z</time></trkpt><trkpt lat="46.26118178333333" lon="11.35479205"><ele>870.3333333333333</ele><time>2026-05-01T10:08:48.833Z</time></trkpt><trkpt lat="46.26101725" lon="11.354823949999998"><ele>870.0</ele><time>2026-05-01T10:08:49.839Z</time></trkpt><trkpt lat="46.260863199999996" lon="11.354893966666669"><ele>870.0</ele><time>2026-05-01T10:08:50.841Z</time></trkpt><trkpt lat="46.2607188" lon="11.355033700000002"><ele>870.0</ele><time>2026-05-01T10:08:51.841Z</time></trkpt><trkpt lat="46.26058891666667" lon="11.355214"><ele>870.0</ele><time>2026-05-01T10:08:52.829Z</time></trkpt><trkpt lat="46.26046361666666" lon="11.3553791"><ele>874.6666666666667</ele><time>2026-05-01T10:08:53.847Z</time></trkpt><trkpt lat="46.26032666666667" lon="11.355496216666666"><ele>879.3333333333334</ele><time>2026-05-01T10:08:54.829Z</time></trkpt><trkpt lat="46.260170966666664" lon="11.355553966666667"><ele>884.0</ele><time>2026-05-01T10:08:55.83Z</time></trkpt><trkpt lat="46.25999358333333" lon="11.355580533333333"><ele>884.0</ele><time>2026-05-01T10:08:56.833Z</time></trkpt><trkpt lat="46.25979698333334" lon="11.35560536666667"><ele>884.0</ele><time>2026-05-01T10:08:57.831Z</time></trkpt><trkpt lat="46.25958133333334" lon="11.355628033333335"><ele>884.0</ele><time>2026-05-01T10:08:58.841Z</time></trkpt><trkpt lat="46.259357066666674" lon="11.355654900000003"><ele>883.0</ele><time>2026-05-01T10:08:59.841Z</time></trkpt><trkpt lat="46.25914426666667" lon="11.3556844"><ele>882.0</ele><time>2026-05-01T10:09:00.828Z</time></trkpt><trkpt lat="46.258946383333324" lon="11.355707166666665"><ele>881.0</ele><time>2026-05-01T10:09:01.83Z</time></trkpt><trkpt lat="46.258768633333325" lon="11.355727266666667"><ele>883.25</ele><time>2026-05-01T10:09:02.85Z</time></trkpt><trkpt lat="46.25861103333333" lon="11.355734533333335"><ele>885.5</ele><time>2026-05-01T10:09:03.837Z</time></trkpt><trkpt lat="46.258467833333334" lon="11.355702483333335"><ele>887.75</ele><time>2026-05-01T10:09:04.833Z</time></trkpt><trkpt lat="46.25833554999999" lon="11.355612983333334"><ele>890.0</ele><time>2026-05-01T10:09:05.832Z</time></trkpt><trkpt lat="46.25821984999999" lon="11.355465916666665"><ele>882.3333333333334</ele><time>2026-05-01T10:09:06.837Z</time></trkpt><trkpt lat="46.25812846666666" lon="11.35526615"><ele>874.6666666666667</ele><time>2026-05-01T10:09:07.841Z</time></trkpt><trkpt lat="46.25806141666667" lon="11.355021183333333"><ele>867.0</ele><time>2026-05-01T10:09:08.831Z</time></trkpt><trkpt lat="46.258001633333336" lon="11.354744616666668"><ele>889.0</ele><time>2026-05-01T10:09:09.829Z</time></trkpt><trkpt lat="46.25793908333333" lon="11.354439933333333"><ele>911.0</ele><time>2026-05-01T10:09:10.839Z</time></trkpt><trkpt lat="46.25787386666666" lon="11.354117250000002"><ele>912.0</ele><time>2026-05-01T10:09:11.872Z</time></trkpt><trkpt lat="46.25781523333334" lon="11.35380205"><ele>913.0</ele><time>2026-05-01T10:09:12.838Z</time></trkpt><trkpt lat="46.25777073333333" lon="11.35350168333333"><ele>914.0</ele><time>2026-05-01T10:09:13.83Z</time></trkpt><trkpt lat="46.257744249999995" lon="11.353218250000001"><ele>909.0</ele><time>2026-05-01T10:09:14.842Z</time></trkpt><trkpt lat="46.25774581666666" lon="11.3529526"><ele>904.0</ele><time>2026-05-01T10:09:15.83Z</time></trkpt><trkpt lat="46.25776595000001" lon="11.352704366666668"><ele>899.0</ele><time>2026-05-01T10:09:16.83Z</time></trkpt><trkpt lat="46.25777088333333" lon="11.352468583333332"><ele>899.0</ele><time>2026-05-01T10:09:17.832Z</time></trkpt><trkpt lat="46.25774929999999" lon="11.352254266666668"><ele>899.0</ele><time>2026-05-01T10:09:18.83Z</time></trkpt><trkpt lat="46.25769678333333" lon="11.352074633333332"><ele>899.0</ele><time>2026-05-01T10:09:19.843Z</time></trkpt><trkpt lat="46.257611100000005" lon="11.351927983333333"><ele>899.0</ele><time>2026-05-01T10:09:20.84Z</time></trkpt><trkpt lat="46.25748331666667" lon="11.351811383333331"><ele>903.6666666666667</ele><time>2026-05-01T10:09:21.85Z</time></trkpt><trkpt lat="46.257322333333335" lon="11.351701866666668"><ele>908.3333333333333</ele><time>2026-05-01T10:09:22.843Z</time></trkpt><trkpt lat="46.257152600000005" lon="11.351578516666667"><ele>913.0</ele><time>2026-05-01T10:09:23.84Z</time></trkpt><trkpt lat="46.25698321666667" lon="11.351416050000001"><ele>903.3333333333333</ele><time>2026-05-01T10:09:24.83Z</time></trkpt><trkpt lat="46.25681898333334" lon="11.351203200000002"><ele>893.6666666666667</ele><time>2026-05-01T10:09:25.843Z</time></trkpt><trkpt lat="46.25666696666667" lon="11.350962283333336"><ele>884.0</ele><time>2026-05-01T10:09:26.831Z</time></trkpt><trkpt lat="46.25651688333334" lon="11.350733883333332"><ele>884.0</ele><time>2026-05-01T10:09:27.838Z</time></trkpt><trkpt lat="46.25634775" lon="11.350531066666667"><ele>884.0</ele><time>2026-05-01T10:09:28.837Z</time></trkpt><trkpt lat="46.256160771436036" lon="11.350324674162543"><ele>884.0</ele><time>2026-05-01T10:09:29.83Z</time></trkpt><trkpt lat="46.25594376666666" lon="11.350165583333334"><ele>884.0</ele><time>2026-05-01T10:09:30.827Z</time></trkpt><trkpt lat="46.25574208333334" lon="11.349988350000002"><ele>878.0</ele><time>2026-05-01T10:09:31.839Z</time></trkpt><trkpt lat="46.25555433333334" lon="11.349822316666666"><ele>872.0</ele><time>2026-05-01T10:09:32.833Z</time></trkpt><trkpt lat="46.255377583333335" lon="11.349678983333334"><ele>866.0</ele><time>2026-05-01T10:09:33.84Z</time></trkpt><trkpt lat="46.255206799999996" lon="11.349568600000003"><ele>866.0</ele><time>2026-05-01T10:09:34.841Z</time></trkpt><trkpt lat="46.255024399999996" lon="11.349500916666667"><ele>866.0</ele><time>2026-05-01T10:09:35.831Z</time></trkpt><trkpt lat="46.25482471666666" lon="11.349483566666667"><ele>866.0</ele><time>2026-05-01T10:09:36.828Z</time></trkpt><trkpt lat="46.25461208333333" lon="11.349484983333332"><ele>870.0</ele><time>2026-05-01T10:09:37.832Z</time></trkpt><trkpt lat="46.254406933333335" lon="11.349468533333333"><ele>874.0</ele><time>2026-05-01T10:09:38.832Z</time></trkpt><trkpt lat="46.25421030000001" lon="11.349409933333334"><ele>878.0</ele><time>2026-05-01T10:09:39.83Z</time></trkpt><trkpt lat="46.25401828333334" lon="11.349299799999997"><ele>879.6666666666667</ele><time>2026-05-01T10:09:40.838Z</time></trkpt><trkpt lat="46.253834716666674" lon="11.349168366666666"><ele>881.3333333333333</ele><time>2026-05-01T10:09:41.831Z</time></trkpt><trkpt lat="46.25366016666667" lon="11.349043683333331"><ele>883.0</ele><time>2026-05-01T10:09:42.829Z</time></trkpt><trkpt lat="46.253492916666666" lon="11.348934750000002"><ele>878.0</ele><time>2026-05-01T10:09:43.832Z</time></trkpt><trkpt lat="46.253320900000006" lon="11.348855883333332"><ele>873.0</ele><time>2026-05-01T10:09:44.851Z</time></trkpt><trkpt lat="46.25313203333334" lon="11.348820216666665"><ele>868.0</ele><time>2026-05-01T10:09:45.84Z</time></trkpt><trkpt lat="46.25293006666668" lon="11.348811033333334"><ele>867.6666666666666</ele><time>2026-05-01T10:09:46.83Z</time></trkpt><trkpt lat="46.25271298333334" lon="11.348799183333332"><ele>867.3333333333333</ele><time>2026-05-01T10:09:47.85Z</time></trkpt><trkpt lat="46.25248468333333" lon="11.3487868"><ele>867.0</ele><time>2026-05-01T10:09:48.83Z</time></trkpt><trkpt lat="46.252248316666666" lon="11.348783"><ele>866.0</ele><time>2026-05-01T10:09:49.834Z</time></trkpt><trkpt lat="46.25202015" lon="11.34878455"><ele>865.0</ele><time>2026-05-01T10:09:50.844Z</time></trkpt><trkpt lat="46.251804516666674" lon="11.348775166666668"><ele>864.0</ele><time>2026-05-01T10:09:51.828Z</time></trkpt><trkpt lat="46.25160423333333" lon="11.348737349999999"><ele>871.6666666666667</ele><time>2026-05-01T10:09:52.849Z</time></trkpt><trkpt lat="46.251418616666655" lon="11.348651033333331"><ele>879.3333333333334</ele><time>2026-05-01T10:09:53.841Z</time></trkpt><trkpt lat="46.2512436" lon="11.348512516666664"><ele>887.0</ele><time>2026-05-01T10:09:54.828Z</time></trkpt><trkpt lat="46.2510868" lon="11.348327516666666"><ele>887.0</ele><time>2026-05-01T10:09:55.831Z</time></trkpt><trkpt lat="46.25095196666666" lon="11.348098716666668"><ele>887.0</ele><time>2026-05-01T10:09:56.848Z</time></trkpt><trkpt lat="46.25084691666666" lon="11.34784495"><ele>887.0</ele><time>2026-05-01T10:09:57.832Z</time></trkpt><trkpt lat="46.25078454999999" lon="11.347567233333333"><ele>882.3333333333334</ele><time>2026-05-01T10:09:58.843Z</time></trkpt><trkpt lat="46.250759699999996" lon="11.347268433333332"><ele>877.6666666666667</ele><time>2026-05-01T10:09:59.837Z</time></trkpt><trkpt lat="46.25075619999999" lon="11.346961266666664"><ele>873.0</ele><time>2026-05-01T10:10:00.83Z</time></trkpt><trkpt lat="46.250766049999996" lon="11.346652916666669"><ele>870.6666666666667</ele><time>2026-05-01T10:10:01.85Z</time></trkpt><trkpt lat="46.250774283333335" lon="11.346359883333333"><ele>868.3333333333334</ele><time>2026-05-01T10:10:02.843Z</time></trkpt><trkpt lat="46.250775499999996" lon="11.346087183333335"><ele>866.0</ele><time>2026-05-01T10:10:03.827Z</time></trkpt><trkpt lat="46.250769149999996" lon="11.345831850000001"><ele>866.0</ele><time>2026-05-01T10:10:04.848Z</time></trkpt><trkpt lat="46.2507487" lon="11.345592983333331"><ele>866.0</ele><time>2026-05-01T10:10:05.85Z</time></trkpt><trkpt lat="46.25071461666666" lon="11.345372783333334"><ele>866.0</ele><time>2026-05-01T10:10:06.829Z</time></trkpt><trkpt lat="46.250671049999994" lon="11.345170366666666"><ele>867.0</ele><time>2026-05-01T10:10:07.834Z</time></trkpt><trkpt lat="46.25061751666667" lon="11.344976983333332"><ele>868.0</ele><time>2026-05-01T10:10:08.841Z</time></trkpt><trkpt lat="46.25055466666666" lon="11.34478595"><ele>869.0</ele><time>2026-05-01T10:10:09.83Z</time></trkpt><trkpt lat="46.250477583333335" lon="11.34460115"><ele>870.0</ele><time>2026-05-01T10:10:10.841Z</time></trkpt><trkpt lat="46.25038875" lon="11.344429916666664"><ele>870.0</ele><time>2026-05-01T10:10:11.838Z</time></trkpt><trkpt lat="46.250292083333335" lon="11.344268399999999"><ele>870.0</ele><time>2026-05-01T10:10:12.833Z</time></trkpt><trkpt lat="46.25018651666666" lon="11.344110233333334"><ele>870.0</ele><time>2026-05-01T10:10:13.828Z</time></trkpt><trkpt lat="46.250075416666675" lon="11.343968083333333"><ele>870.0</ele><time>2026-05-01T10:10:14.829Z</time></trkpt><trkpt lat="46.249962116666666" lon="11.343839616666667"><ele>868.0</ele><time>2026-05-01T10:10:15.83Z</time></trkpt><trkpt lat="46.24984808333334" lon="11.343724216666665"><ele>866.0</ele><time>2026-05-01T10:10:16.833Z</time></trkpt><trkpt lat="46.24974488185622" lon="11.343599174796305"><ele>864.0</ele><time>2026-05-01T10:10:17.831Z</time></trkpt><trkpt lat="46.24963250320478" lon="11.343500501617319"><ele>862.0</ele><time>2026-05-01T10:10:18.839Z</time></trkpt><trkpt lat="46.24951181316927" lon="11.343408887208497"><ele>862.0</ele><time>2026-05-01T10:10:19.838Z</time></trkpt><trkpt lat="46.24938697147309" lon="11.343337855097177"><ele>862.0</ele><time>2026-05-01T10:10:20.848Z</time></trkpt><trkpt lat="46.24925636666667" lon="11.343308083333332"><ele>862.0</ele><time>2026-05-01T10:10:21.829Z</time></trkpt><trkpt lat="46.24912925" lon="11.343257233333334"><ele>862.0</ele><time>2026-05-01T10:10:22.833Z</time></trkpt><trkpt lat="46.24900146666667" lon="11.343202900000003"><ele>863.25</ele><time>2026-05-01T10:10:23.836Z</time></trkpt><trkpt lat="46.248874449999995" lon="11.343154916666666"><ele>864.5</ele><time>2026-05-01T10:10:24.833Z</time></trkpt><trkpt lat="46.248747833333326" lon="11.343110033333335"><ele>865.75</ele><time>2026-05-01T10:10:25.851Z</time></trkpt><trkpt lat="46.248624166666666" lon="11.343064633333332"><ele>867.0</ele><time>2026-05-01T10:10:26.843Z</time></trkpt><trkpt lat="46.24850225" lon="11.34302235"><ele>858.0</ele><time>2026-05-01T10:10:27.83Z</time></trkpt><trkpt lat="46.24837445" lon="11.342987433333334"><ele>849.0</ele><time>2026-05-01T10:10:28.85Z</time></trkpt><trkpt lat="46.24824544207546" lon="11.342938834907399"><ele>840.0</ele><time>2026-05-01T10:10:29.842Z</time></trkpt><trkpt lat="46.24810863278444" lon="11.342931550551725"><ele>831.0</ele><time>2026-05-01T10:10:30.829Z</time></trkpt><trkpt lat="46.24796323333333" lon="11.342961666666667"><ele>831.0</ele><time>2026-05-01T10:10:31.835Z</time></trkpt><trkpt lat="46.24781125" lon="11.342981066666669"><ele>831.0</ele><time>2026-05-01T10:10:32.835Z</time></trkpt><trkpt lat="46.24765478317812" lon="11.342977486304747"><ele>831.0</ele><time>2026-05-01T10:10:33.833Z</time></trkpt><trkpt lat="46.247493358717705" lon="11.342999942820558"><ele>831.0</ele><time>2026-05-01T10:10:34.838Z</time></trkpt><trkpt lat="46.247321008047315" lon="11.343022380916667"><ele>831.0</ele><time>2026-05-01T10:10:35.832Z</time></trkpt><trkpt lat="46.247145149668974" lon="11.343046247106457"><ele>831.0</ele><time>2026-05-01T10:10:36.838Z</time></trkpt><trkpt lat="46.24696374339124" lon="11.343070830884347"><ele>844.0</ele><time>2026-05-01T10:10:37.833Z</time></trkpt><trkpt lat="46.246781170414266" lon="11.34309538480576"><ele>857.0</ele><time>2026-05-01T10:10:38.836Z</time></trkpt><trkpt lat="46.24659375049938" lon="11.343119289341802"><ele>870.0</ele><time>2026-05-01T10:10:39.829Z</time></trkpt><trkpt lat="46.246401899900206" lon="11.343120027877003"><ele>870.0</ele><time>2026-05-01T10:10:40.833Z</time></trkpt><trkpt lat="46.246215987248604" lon="11.343091730923563"><ele>870.0</ele><time>2026-05-01T10:10:41.84Z</time></trkpt><trkpt lat="46.24603666699384" lon="11.34306037665113"><ele>870.0</ele><time>2026-05-01T10:10:42.83Z</time></trkpt><trkpt lat="46.24586773049616" lon="11.343031149806938"><ele>864.3333333333333</ele><time>2026-05-01T10:10:43.851Z</time></trkpt><trkpt lat="46.245701232593696" lon="11.343021308878509"><ele>858.6666666666666</ele><time>2026-05-01T10:10:44.831Z</time></trkpt><trkpt lat="46.24552402898148" lon="11.34305749761044"><ele>853.0</ele><time>2026-05-01T10:10:45.829Z</time></trkpt><trkpt lat="46.24533637144006" lon="11.3431547612498"><ele>853.0</ele><time>2026-05-01T10:10:46.842Z</time></trkpt><trkpt lat="46.245137559861305" lon="11.343284333667139"><ele>853.0</ele><time>2026-05-01T10:10:47.83Z</time></trkpt><trkpt lat="46.244922324493785" lon="11.343435065361772"><ele>845.0</ele><time>2026-05-01T10:10:48.841Z</time></trkpt><trkpt lat="46.24469346812097" lon="11.343593764432327"><ele>837.0</ele><time>2026-05-01T10:10:49.838Z</time></trkpt><trkpt lat="46.244459289416874" lon="11.343740555798426"><ele>837.0</ele><time>2026-05-01T10:10:50.841Z</time></trkpt><trkpt lat="46.24422940079742" lon="11.343868547960522"><ele>837.0</ele><time>2026-05-01T10:10:51.829Z</time></trkpt><trkpt lat="46.24401224005838" lon="11.343987335878579"><ele>845.6666666666667</ele><time>2026-05-01T10:10:52.848Z</time></trkpt><trkpt lat="46.24381460689309" lon="11.344095442032001"><ele>854.3333333333334</ele><time>2026-05-01T10:10:53.832Z</time></trkpt><trkpt lat="46.2436335468113" lon="11.344189492843828"><ele>863.0</ele><time>2026-05-01T10:10:54.829Z</time></trkpt><trkpt lat="46.24347021409094" lon="11.344230426676855"><ele>863.0</ele><time>2026-05-01T10:10:55.846Z</time></trkpt><trkpt lat="46.243308933333346" lon="11.344213549999997"><ele>863.0</ele><time>2026-05-01T10:10:56.84Z</time></trkpt><trkpt lat="46.24316108333334" lon="11.34410795"><ele>863.0</ele><time>2026-05-01T10:10:57.842Z</time></trkpt><trkpt lat="46.243040766666674" lon="11.343936883333333"><ele>861.3333333333334</ele><time>2026-05-01T10:10:58.835Z</time></trkpt><trkpt lat="46.24294410000001" lon="11.343711566666665"><ele>859.6666666666667</ele><time>2026-05-01T10:10:59.842Z</time></trkpt><trkpt lat="46.242847633333334" lon="11.3434633"><ele>858.0</ele><time>2026-05-01T10:11:00.829Z</time></trkpt><trkpt lat="46.24275483333333" lon="11.343219683333333"><ele>862.3333333333333</ele><time>2026-05-01T10:11:01.831Z</time></trkpt><trkpt lat="46.24268321666667" lon="11.34298295"><ele>866.6666666666666</ele><time>2026-05-01T10:11:02.845Z</time></trkpt><trkpt lat="46.24265346666666" lon="11.342745383333334"><ele>871.0</ele><time>2026-05-01T10:11:03.839Z</time></trkpt><trkpt lat="46.24267066666666" lon="11.342504550000001"><ele>871.0</ele><time>2026-05-01T10:11:04.838Z</time></trkpt><trkpt lat="46.24273691666667" lon="11.342276650000002"><ele>871.0</ele><time>2026-05-01T10:11:05.831Z</time></trkpt><trkpt lat="46.24285123333334" lon="11.342070000000001"><ele>871.0</ele><time>2026-05-01T10:11:06.839Z</time></trkpt><trkpt lat="46.24299926666666" lon="11.341878416666667"><ele>869.3333333333333</ele><time>2026-05-01T10:11:07.833Z</time></trkpt><trkpt lat="46.243164449999995" lon="11.341678833333333"><ele>867.6666666666667</ele><time>2026-05-01T10:11:08.836Z</time></trkpt><trkpt lat="46.24333761666667" lon="11.341466166666665"><ele>866.0</ele><time>2026-05-01T10:11:09.84Z</time></trkpt><trkpt lat="46.24350558333334" lon="11.341259116666667"><ele>868.0</ele><time>2026-05-01T10:11:10.836Z</time></trkpt><trkpt lat="46.24367686666666" lon="11.34108725"><ele>870.0</ele><time>2026-05-01T10:11:11.83Z</time></trkpt><trkpt lat="46.24386429999999" lon="11.340956883333336"><ele>872.0</ele><time>2026-05-01T10:11:12.84Z</time></trkpt><trkpt lat="46.24406253333333" lon="11.340867266666665"><ele>872.0</ele><time>2026-05-01T10:11:13.831Z</time></trkpt><trkpt lat="46.24425771666667" lon="11.34080005"><ele>872.0</ele><time>2026-05-01T10:11:14.836Z</time></trkpt><trkpt lat="46.24443141666667" lon="11.340717016666668"><ele>872.0</ele><time>2026-05-01T10:11:15.838Z</time></trkpt><trkpt lat="46.24458738333333" lon="11.340594966666668"><ele>870.3333333333334</ele><time>2026-05-01T10:11:16.844Z</time></trkpt><trkpt lat="46.24473296666667" lon="11.340412383333334"><ele>868.6666666666667</ele><time>2026-05-01T10:11:17.831Z</time></trkpt><trkpt lat="46.24487606666667" lon="11.340183516666665"><ele>867.0</ele><time>2026-05-01T10:11:18.829Z</time></trkpt><trkpt lat="46.24502373333333" lon="11.3399432"><ele>881.0</ele><time>2026-05-01T10:11:19.851Z</time></trkpt><trkpt lat="46.24517505" lon="11.339710083333333"><ele>895.0</ele><time>2026-05-01T10:11:20.831Z</time></trkpt><trkpt lat="46.24534189999999" lon="11.3394974"><ele>909.0</ele><time>2026-05-01T10:11:21.829Z</time></trkpt><trkpt lat="46.24552856666666" lon="11.339310583333333"><ele>908.3333333333333</ele><time>2026-05-01T10:11:22.835Z</time></trkpt><trkpt lat="46.24571593333333" lon="11.339136383333335"><ele>907.6666666666666</ele><time>2026-05-01T10:11:23.851Z</time></trkpt><trkpt lat="46.24589218333334" lon="11.3389785"><ele>907.0</ele><time>2026-05-01T10:11:24.831Z</time></trkpt><trkpt lat="46.24605738333332" lon="11.338842249999999"><ele>907.0</ele><time>2026-05-01T10:11:25.833Z</time></trkpt><trkpt lat="46.246211666666674" lon="11.33871195"><ele>907.0</ele><time>2026-05-01T10:11:26.836Z</time></trkpt><trkpt lat="46.246355883333344" lon="11.338591416666668"><ele>907.0</ele><time>2026-05-01T10:11:27.829Z</time></trkpt><trkpt lat="46.2464896" lon="11.338482883333333"><ele>899.25</ele><time>2026-05-01T10:11:28.85Z</time></trkpt><trkpt lat="46.246618483333336" lon="11.33838445"><ele>891.5</ele><time>2026-05-01T10:11:29.852Z</time></trkpt><trkpt lat="46.24674326666666" lon="11.338322283333332"><ele>883.75</ele><time>2026-05-01T10:11:30.829Z</time></trkpt><trkpt lat="46.246874833333344" lon="11.338306466666666"><ele>876.0</ele><time>2026-05-01T10:11:31.833Z</time></trkpt><trkpt lat="46.24702111666667" lon="11.33832625"><ele>876.0</ele><time>2026-05-01T10:11:32.848Z</time></trkpt><trkpt lat="46.24717349999999" lon="11.338361650000001"><ele>876.0</ele><time>2026-05-01T10:11:33.838Z</time></trkpt><trkpt lat="46.24731865000001" lon="11.338366483333335"><ele>876.0</ele><time>2026-05-01T10:11:34.836Z</time></trkpt><trkpt lat="46.247459833333345" lon="11.338308583333331"><ele>876.0</ele><time>2026-05-01T10:11:35.831Z</time></trkpt><trkpt lat="46.24759945" lon="11.338192833333336"><ele>870.3333333333333</ele><time>2026-05-01T10:11:36.829Z</time></trkpt><trkpt lat="46.24774333333333" lon="11.338053749999998"><ele>864.6666666666666</ele><time>2026-05-01T10:11:37.851Z</time></trkpt><trkpt lat="46.247903349999994" lon="11.337929650000001"><ele>859.0</ele><time>2026-05-01T10:11:38.831Z</time></trkpt><trkpt lat="46.248070166666665" lon="11.337839483333335"><ele>860.0</ele><time>2026-05-01T10:11:39.83Z</time></trkpt><trkpt lat="46.24823095" lon="11.337770350000001"><ele>861.0</ele><time>2026-05-01T10:11:40.833Z</time></trkpt><trkpt lat="46.248373983333344" lon="11.337708116666667"><ele>862.0</ele><time>2026-05-01T10:11:41.849Z</time></trkpt><trkpt lat="46.24849393333334" lon="11.337634333333332"><ele>863.0</ele><time>2026-05-01T10:11:42.838Z</time></trkpt><trkpt lat="46.24859938096016" lon="11.33754711461953"><ele>863.0</ele><time>2026-05-01T10:11:43.836Z</time></trkpt><trkpt lat="46.24863591666667" lon="11.337386283333334"><ele>863.0</ele><time>2026-05-01T10:11:44.842Z</time></trkpt><trkpt lat="46.24863761666668" lon="11.337221366666666"><ele>863.0</ele><time>2026-05-01T10:11:45.828Z</time></trkpt><trkpt lat="46.24858601666667" lon="11.337068883333332"><ele>863.0</ele><time>2026-05-01T10:11:46.843Z</time></trkpt><trkpt lat="46.2484943" lon="11.336930216666666"><ele>864.6666666666667</ele><time>2026-05-01T10:11:47.851Z</time></trkpt><trkpt lat="46.24837513333333" lon="11.336789483333334"><ele>866.3333333333333</ele><time>2026-05-01T10:11:48.828Z</time></trkpt><trkpt lat="46.248241916666665" lon="11.336632683333335"><ele>868.0</ele><time>2026-05-01T10:11:49.847Z</time></trkpt><trkpt lat="46.24810256666667" lon="11.336464300000001"><ele>876.3333333333333</ele><time>2026-05-01T10:11:50.838Z</time></trkpt><trkpt lat="46.2479534" lon="11.336284016666667"><ele>884.6666666666667</ele><time>2026-05-01T10:11:51.833Z</time></trkpt><trkpt lat="46.24781429396917" lon="11.336077444215086"><ele>893.0</ele><time>2026-05-01T10:11:52.844Z</time></trkpt><trkpt lat="46.24767655938029" lon="11.335906380776295"><ele>893.0</ele><time>2026-05-01T10:11:53.831Z</time></trkpt><trkpt lat="46.2475591004286" lon="11.33575987566502"><ele>893.0</ele><time>2026-05-01T10:11:54.829Z</time></trkpt><trkpt lat="46.24746183333333" lon="11.335631183333334"><ele>893.0</ele><time>2026-05-01T10:11:55.833Z</time></trkpt><trkpt lat="46.24743878751974" lon="11.335445423893107"><ele>893.0</ele><time>2026-05-01T10:11:56.836Z</time></trkpt><trkpt lat="46.24744879278009" lon="11.335254442593042"><ele>891.3333333333334</ele><time>2026-05-01T10:11:57.841Z</time></trkpt><trkpt lat="46.247502280957086" lon="11.335051282193257"><ele>889.6666666666667</ele><time>2026-05-01T10:11:58.835Z</time></trkpt><trkpt lat="46.247563400742465" lon="11.334824577460157"><ele>888.0</ele><time>2026-05-01T10:11:59.831Z</time></trkpt><trkpt lat="46.24763004694174" lon="11.334578612063208"><ele>888.0</ele><time>2026-05-01T10:12:00.838Z</time></trkpt><trkpt lat="46.24769910547364" lon="11.33432450494647"><ele>888.0</ele><time>2026-05-01T10:12:01.838Z</time></trkpt><trkpt lat="46.24775991089007" lon="11.334064183329358"><ele>888.0</ele><time>2026-05-01T10:12:02.831Z</time></trkpt><trkpt lat="46.247802062617765" lon="11.333810145550002"><ele>887.6666666666667</ele><time>2026-05-01T10:12:03.829Z</time></trkpt><trkpt lat="46.24780621172474" lon="11.333549160876569"><ele>887.3333333333334</ele><time>2026-05-01T10:12:04.83Z</time></trkpt><trkpt lat="46.24776728105294" lon="11.333302343253457"><ele>887.0</ele><time>2026-05-01T10:12:05.85Z</time></trkpt><trkpt lat="46.247679334161674" lon="11.33307762881583"><ele>882.3333333333334</ele><time>2026-05-01T10:12:06.838Z</time></trkpt><trkpt lat="46.247553148146885" lon="11.332894285060815"><ele>877.6666666666667</ele><time>2026-05-01T10:12:07.837Z</time></trkpt><trkpt lat="46.247391400000005" lon="11.332778150000001"><ele>873.0</ele><time>2026-05-01T10:12:08.832Z</time></trkpt><trkpt lat="46.247218116666666" lon="11.332685233333333"><ele>873.0</ele><time>2026-05-01T10:12:09.848Z</time></trkpt><trkpt lat="46.247031400000004" lon="11.33262815"><ele>873.0</ele><time>2026-05-01T10:12:10.843Z</time></trkpt><trkpt lat="46.2468331" lon="11.332584833333332"><ele>873.0</ele><time>2026-05-01T10:12:11.831Z</time></trkpt><trkpt lat="46.2466238" lon="11.332538266666665"><ele>867.0</ele><time>2026-05-01T10:12:12.838Z</time></trkpt><trkpt lat="46.246418216666676" lon="11.332471216666667"><ele>861.0</ele><time>2026-05-01T10:12:13.833Z</time></trkpt><trkpt lat="46.24621301666666" lon="11.332364066666665"><ele>855.0</ele><time>2026-05-01T10:12:14.851Z</time></trkpt><trkpt lat="46.246002250000004" lon="11.3322183"><ele>855.0</ele><time>2026-05-01T10:12:15.83Z</time></trkpt><trkpt lat="46.2457801" lon="11.332063583333335"><ele>855.0</ele><time>2026-05-01T10:12:16.832Z</time></trkpt><trkpt lat="46.24554906666667" lon="11.331917300000002"><ele>868.5</ele><time>2026-05-01T10:12:17.841Z</time></trkpt><trkpt lat="46.24533098333333" lon="11.331778566666665"><ele>882.0</ele><time>2026-05-01T10:12:18.848Z</time></trkpt><trkpt lat="46.24513576666667" lon="11.331637983333332"><ele>882.0</ele><time>2026-05-01T10:12:19.845Z</time></trkpt><trkpt lat="46.2449591" lon="11.331487183333333"><ele>882.0</ele><time>2026-05-01T10:12:20.851Z</time></trkpt><trkpt lat="46.24480611666666" lon="11.331333333333333"><ele>882.0</ele><time>2026-05-01T10:12:21.84Z</time></trkpt><trkpt lat="46.244667283333335" lon="11.331198500000001"><ele>876.3333333333333</ele><time>2026-05-01T10:12:22.84Z</time></trkpt><trkpt lat="46.244528233333334" lon="11.331111433333335"><ele>870.6666666666666</ele><time>2026-05-01T10:12:23.875Z</time></trkpt><trkpt lat="46.24438011666666" lon="11.331082683333333"><ele>865.0</ele><time>2026-05-01T10:12:24.83Z</time></trkpt><trkpt lat="46.244217216666655" lon="11.331106133333334"><ele>865.0</ele><time>2026-05-01T10:12:25.846Z</time></trkpt><trkpt lat="46.244047699999996" lon="11.331149033333332"><ele>865.0</ele><time>2026-05-01T10:12:26.84Z</time></trkpt><trkpt lat="46.243889766666676" lon="11.331168233333335"><ele>865.0</ele><time>2026-05-01T10:12:27.83Z</time></trkpt><trkpt lat="46.24374778333334" lon="11.331142"><ele>868.0</ele><time>2026-05-01T10:12:28.834Z</time></trkpt><trkpt lat="46.24362776666667" lon="11.331053483333337"><ele>871.0</ele><time>2026-05-01T10:12:29.839Z</time></trkpt><trkpt lat="46.24353254999999" lon="11.330902649999999"><ele>874.0</ele><time>2026-05-01T10:12:30.83Z</time></trkpt><trkpt lat="46.24345473333333" lon="11.330706950000001"><ele>877.0</ele><time>2026-05-01T10:12:31.841Z</time></trkpt><trkpt lat="46.24337871666666" lon="11.330483816666666"><ele>877.0</ele><time>2026-05-01T10:12:32.841Z</time></trkpt><trkpt lat="46.243307016666655" lon="11.330232016666665"><ele>877.0</ele><time>2026-05-01T10:12:33.858Z</time></trkpt><trkpt lat="46.243237666666666" lon="11.329970666666668"><ele>877.0</ele><time>2026-05-01T10:12:34.847Z</time></trkpt><trkpt lat="46.243145133333336" lon="11.329711699999999"><ele>891.3333333333333</ele><time>2026-05-01T10:12:35.839Z</time></trkpt><trkpt lat="46.24303801666667" lon="11.329465466666667"><ele>905.6666666666667</ele><time>2026-05-01T10:12:36.828Z</time></trkpt><trkpt lat="46.24295269999999" lon="11.32922575"><ele>920.0</ele><time>2026-05-01T10:12:37.843Z</time></trkpt><trkpt lat="46.24290846666666" lon="11.328976683333332"><ele>915.0</ele><time>2026-05-01T10:12:38.832Z</time></trkpt><trkpt lat="46.24289171666666" lon="11.328728733333334"><ele>910.0</ele><time>2026-05-01T10:12:39.83Z</time></trkpt><trkpt lat="46.24287238333333" lon="11.328493083333333"><ele>905.0</ele><time>2026-05-01T10:12:40.839Z</time></trkpt><trkpt lat="46.24282588333334" lon="11.328283716666665"><ele>905.0</ele><time>2026-05-01T10:12:41.832Z</time></trkpt><trkpt lat="46.242729833333335" lon="11.3281011"><ele>905.0</ele><time>2026-05-01T10:12:42.829Z</time></trkpt><trkpt lat="46.24259115" lon="11.32793005"><ele>905.0</ele><time>2026-05-01T10:12:43.834Z</time></trkpt><trkpt lat="46.24244745185694" lon="11.327721657464789"><ele>900.0</ele><time>2026-05-01T10:12:44.831Z</time></trkpt><trkpt lat="46.24229539590269" lon="11.327506428436237"><ele>895.0</ele><time>2026-05-01T10:12:45.833Z</time></trkpt><trkpt lat="46.24216727827649" lon="11.327252066754747"><ele>890.0</ele><time>2026-05-01T10:12:46.836Z</time></trkpt><trkpt lat="46.242045771841866" lon="11.326998860945428"><ele>890.0</ele><time>2026-05-01T10:12:47.833Z</time></trkpt><trkpt lat="46.241925516922656" lon="11.32676278122939"><ele>890.0</ele><time>2026-05-01T10:12:48.83Z</time></trkpt><trkpt lat="46.241778445749986" lon="11.326567763583746"><ele>890.0</ele><time>2026-05-01T10:12:49.847Z</time></trkpt><trkpt lat="46.24161539796368" lon="11.326437740147425"><ele>891.6666666666667</ele><time>2026-05-01T10:12:50.836Z</time></trkpt><trkpt lat="46.24145951257839" lon="11.32631867941922"><ele>893.3333333333333</ele><time>2026-05-01T10:12:51.84Z</time></trkpt><trkpt lat="46.241324299999995" lon="11.32619406666667"><ele>895.0</ele><time>2026-05-01T10:12:52.843Z</time></trkpt><trkpt lat="46.24122306666667" lon="11.326004150000001"><ele>895.0</ele><time>2026-05-01T10:12:53.834Z</time></trkpt><trkpt lat="46.24118247656532" lon="11.325767811342017"><ele>895.0</ele><time>2026-05-01T10:12:54.831Z</time></trkpt><trkpt lat="46.24113705029876" lon="11.325539953534589"><ele>895.0</ele><time>2026-05-01T10:12:55.849Z</time></trkpt><trkpt lat="46.241076703269776" lon="11.325337285141817"><ele>889.0</ele><time>2026-05-01T10:12:56.832Z</time></trkpt><trkpt lat="46.24098645372914" lon="11.32516275622082"><ele>883.0</ele><time>2026-05-01T10:12:57.83Z</time></trkpt><trkpt lat="46.24085645493337" lon="11.32501608716798"><ele>877.0</ele><time>2026-05-01T10:12:58.846Z</time></trkpt><trkpt lat="46.240703066666676" lon="11.324942066666665"><ele>878.0</ele><time>2026-05-01T10:12:59.851Z</time></trkpt><trkpt lat="46.24054734999999" lon="11.324868299999999"><ele>879.0</ele><time>2026-05-01T10:13:00.83Z</time></trkpt><trkpt lat="46.24039258333334" lon="11.324806266666668"><ele>880.0</ele><time>2026-05-01T10:13:01.834Z</time></trkpt><trkpt lat="46.240245116666664" lon="11.324750216666667"><ele>875.0</ele><time>2026-05-01T10:13:02.846Z</time></trkpt><trkpt lat="46.240107766666675" lon="11.324702533333333"><ele>870.0</ele><time>2026-05-01T10:13:03.833Z</time></trkpt><trkpt lat="46.239986033333324" lon="11.324659350000001"><ele>865.0</ele><time>2026-05-01T10:13:04.889Z</time></trkpt><trkpt lat="46.239868650000005" lon="11.324632933333332"><ele>860.0</ele><time>2026-05-01T10:13:05.874Z</time></trkpt><trkpt lat="46.23974976666667" lon="11.324642166666669"><ele>862.4</ele><time>2026-05-01T10:13:06.857Z</time></trkpt><trkpt lat="46.2396347" lon="11.324670099999999"><ele>864.8</ele><time>2026-05-01T10:13:07.854Z</time></trkpt><trkpt lat="46.23952583333333" lon="11.324701283333331"><ele>867.2</ele><time>2026-05-01T10:13:08.868Z</time></trkpt><trkpt lat="46.23942278333334" lon="11.324733949999999"><ele>869.6</ele><time>2026-05-01T10:13:09.85Z</time></trkpt><trkpt lat="46.23931775" lon="11.324768083333334"><ele>872.0</ele><time>2026-05-01T10:13:10.847Z</time></trkpt><trkpt lat="46.239203233333335" lon="11.324805399999999"><ele>872.0</ele><time>2026-05-01T10:13:11.84Z</time></trkpt><trkpt lat="46.239082800000006" lon="11.324839933333333"><ele>872.0</ele><time>2026-05-01T10:13:12.844Z</time></trkpt><trkpt lat="46.23895595000001" lon="11.3248738"><ele>872.0</ele><time>2026-05-01T10:13:13.852Z</time></trkpt><trkpt lat="46.238824583333326" lon="11.324897099999998"><ele>872.0</ele><time>2026-05-01T10:13:14.844Z</time></trkpt><trkpt lat="46.23868928333333" lon="11.324889216666667"><ele>872.5</ele><time>2026-05-01T10:13:15.844Z</time></trkpt><trkpt lat="46.23854973333333" lon="11.324857683333335"><ele>873.0</ele><time>2026-05-01T10:13:16.832Z</time></trkpt><trkpt lat="46.23840591666667" lon="11.324818233333334"><ele>873.5</ele><time>2026-05-01T10:13:17.848Z</time></trkpt><trkpt lat="46.23826054999999" lon="11.324765583333331"><ele>874.0</ele><time>2026-05-01T10:13:18.843Z</time></trkpt><trkpt lat="46.238110883333334" lon="11.324706466666665"><ele>868.6666666666666</ele><time>2026-05-01T10:13:19.846Z</time></trkpt><trkpt lat="46.23796061666667" lon="11.324652316666668"><ele>863.3333333333333</ele><time>2026-05-01T10:13:20.842Z</time></trkpt><trkpt lat="46.23781306666667" lon="11.324598116666667"><ele>858.0</ele><time>2026-05-01T10:13:21.844Z</time></trkpt><trkpt lat="46.23766526666666" lon="11.324542333333332"><ele>858.0</ele><time>2026-05-01T10:13:22.842Z</time></trkpt><trkpt lat="46.2375223" lon="11.32449095"><ele>858.0</ele><time>2026-05-01T10:13:23.838Z</time></trkpt><trkpt lat="46.23738681666667" lon="11.324438683333335"><ele>858.0</ele><time>2026-05-01T10:13:24.848Z</time></trkpt><trkpt lat="46.23726026666667" lon="11.324389666666667"><ele>858.0</ele><time>2026-05-01T10:13:25.844Z</time></trkpt><trkpt lat="46.23714503333334" lon="11.324334233333332"><ele>860.75</ele><time>2026-05-01T10:13:26.845Z</time></trkpt><trkpt lat="46.237033283333325" lon="11.324264166666667"><ele>863.5</ele><time>2026-05-01T10:13:27.86Z</time></trkpt><trkpt lat="46.23692476666667" lon="11.324177650000001"><ele>866.25</ele><time>2026-05-01T10:13:28.845Z</time></trkpt><trkpt lat="46.23681461666667" lon="11.324078116666666"><ele>869.0</ele><time>2026-05-01T10:13:29.838Z</time></trkpt><trkpt lat="46.23670341666666" lon="11.323970383333334"><ele>864.5</ele><time>2026-05-01T10:13:30.83Z</time></trkpt><trkpt lat="46.23658606666667" lon="11.323864716666668"><ele>860.0</ele><time>2026-05-01T10:13:31.845Z</time></trkpt><trkpt lat="46.23645598333332" lon="11.323780500000002"><ele>855.5</ele><time>2026-05-01T10:13:32.849Z</time></trkpt><trkpt lat="46.23630893333334" lon="11.323730049999998"><ele>851.0</ele><time>2026-05-01T10:13:33.843Z</time></trkpt><trkpt lat="46.2361549" lon="11.323720600000001"><ele>851.0</ele><time>2026-05-01T10:13:34.845Z</time></trkpt><trkpt lat="46.235999099999994" lon="11.323727166666668"><ele>851.0</ele><time>2026-05-01T10:13:35.838Z</time></trkpt><trkpt lat="46.23583518333333" lon="11.323729733333334"><ele>851.0</ele><time>2026-05-01T10:13:36.836Z</time></trkpt><trkpt lat="46.23566711666667" lon="11.323724583333334"><ele>842.3333333333334</ele><time>2026-05-01T10:13:37.852Z</time></trkpt><trkpt lat="46.23550498333334" lon="11.323718383333334"><ele>833.6666666666667</ele><time>2026-05-01T10:13:38.838Z</time></trkpt><trkpt lat="46.23535466666667" lon="11.323719583333332"><ele>825.0</ele><time>2026-05-01T10:13:39.848Z</time></trkpt><trkpt lat="46.235209399999995" lon="11.323746066666668"><ele>825.0</ele><time>2026-05-01T10:13:40.832Z</time></trkpt><trkpt lat="46.2350605872364" lon="11.32377825328338"><ele>825.0</ele><time>2026-05-01T10:13:41.838Z</time></trkpt><trkpt lat="46.23491632691849" lon="11.323874842129037"><ele>825.0</ele><time>2026-05-01T10:13:42.843Z</time></trkpt><trkpt lat="46.234776229564964" lon="11.324004904728515"><ele>828.0</ele><time>2026-05-01T10:13:43.844Z</time></trkpt><trkpt lat="46.23464162000806" lon="11.324144660207208"><ele>831.0</ele><time>2026-05-01T10:13:44.842Z</time></trkpt><trkpt lat="46.234516725155046" lon="11.324276368523442"><ele>834.0</ele><time>2026-05-01T10:13:45.83Z</time></trkpt><trkpt lat="46.23439749373997" lon="11.324403114365929"><ele>834.0</ele><time>2026-05-01T10:13:46.832Z</time></trkpt><trkpt lat="46.23427787404852" lon="11.324537461438887"><ele>834.0</ele><time>2026-05-01T10:13:47.839Z</time></trkpt><trkpt lat="46.234159700835434" lon="11.324708854051377"><ele>834.0</ele><time>2026-05-01T10:13:48.847Z</time></trkpt><trkpt lat="46.234055283534154" lon="11.324917849732554"><ele>841.0</ele><time>2026-05-01T10:13:49.83Z</time></trkpt><trkpt lat="46.23396335000001" lon="11.325139266666667"><ele>848.0</ele><time>2026-05-01T10:13:50.839Z</time></trkpt><trkpt lat="46.233848050000006" lon="11.325319516666665"><ele>855.0</ele><time>2026-05-01T10:13:51.845Z</time></trkpt><trkpt lat="46.233708706098156" lon="11.325424733963603"><ele>855.0</ele><time>2026-05-01T10:13:52.847Z</time></trkpt><trkpt lat="46.2335759549016" lon="11.325521036062469"><ele>855.0</ele><time>2026-05-01T10:13:53.838Z</time></trkpt><trkpt lat="46.2334477983127" lon="11.32561189414429"><ele>855.0</ele><time>2026-05-01T10:13:54.852Z</time></trkpt><trkpt lat="46.233331516666674" lon="11.325717933333332"><ele>855.0</ele><time>2026-05-01T10:13:55.852Z</time></trkpt><trkpt lat="46.23321473333334" lon="11.325794133333334"><ele>863.8</ele><time>2026-05-01T10:13:56.841Z</time></trkpt><trkpt lat="46.233101366666666" lon="11.3258485"><ele>872.6</ele><time>2026-05-01T10:13:57.847Z</time></trkpt><trkpt lat="46.23299493333334" lon="11.325841383333334"><ele>881.4000000000001</ele><time>2026-05-01T10:13:58.847Z</time></trkpt><trkpt lat="46.232902849999995" lon="11.325760733333334"><ele>890.2</ele><time>2026-05-01T10:13:59.837Z</time></trkpt><trkpt lat="46.232839899999995" lon="11.325625783333331"><ele>899.0</ele><time>2026-05-01T10:14:00.845Z</time></trkpt><trkpt lat="46.23281896666667" lon="11.325464583333334"><ele>900.75</ele><time>2026-05-01T10:14:01.85Z</time></trkpt><trkpt lat="46.232814966666666" lon="11.325306483333334"><ele>902.5</ele><time>2026-05-01T10:14:02.841Z</time></trkpt><trkpt lat="46.232858487141286" lon="11.32515021689171"><ele>904.25</ele><time>2026-05-01T10:14:03.831Z</time></trkpt><trkpt lat="46.2329122010064" lon="11.324957028450138"><ele>906.0</ele><time>2026-05-01T10:14:04.852Z</time></trkpt><trkpt lat="46.232961222162814" lon="11.324736725020838"><ele>905.3333333333333</ele><time>2026-05-01T10:14:05.838Z</time></trkpt><trkpt lat="46.232989349299224" lon="11.324489744151187"><ele>904.6666666666666</ele><time>2026-05-01T10:14:06.844Z</time></trkpt><trkpt lat="46.23298745588863" lon="11.324222449859244"><ele>904.0</ele><time>2026-05-01T10:14:07.852Z</time></trkpt><trkpt lat="46.23294673604016" lon="11.323931598099824"><ele>900.5</ele><time>2026-05-01T10:14:08.842Z</time></trkpt><trkpt lat="46.2328956606738" lon="11.32361849257118"><ele>897.0</ele><time>2026-05-01T10:14:09.847Z</time></trkpt><trkpt lat="46.232835923534616" lon="11.32325748378115"><ele>889.5</ele><time>2026-05-01T10:14:10.844Z</time></trkpt><trkpt lat="46.23277466719496" lon="11.322878655696934"><ele>882.0</ele><time>2026-05-01T10:14:11.837Z</time></trkpt><trkpt lat="46.232718104652605" lon="11.322525234991332"><ele>871.5</ele><time>2026-05-01T10:14:12.833Z</time></trkpt><trkpt lat="46.2326583137961" lon="11.322192854857423"><ele>861.0</ele><time>2026-05-01T10:14:13.832Z</time></trkpt><trkpt lat="46.232568758953384" lon="11.32189465615063"><ele>861.0</ele><time>2026-05-01T10:14:14.839Z</time></trkpt><trkpt lat="46.232471910940895" lon="11.321621233940112"><ele>861.0</ele><time>2026-05-01T10:14:15.844Z</time></trkpt><trkpt lat="46.23238062777789" lon="11.321361901613708"><ele>861.0</ele><time>2026-05-01T10:14:16.845Z</time></trkpt><trkpt lat="46.23229367708697" lon="11.321116871749698"><ele>859.3333333333333</ele><time>2026-05-01T10:14:17.828Z</time></trkpt><trkpt lat="46.23220448102847" lon="11.320878256357137"><ele>857.6666666666666</ele><time>2026-05-01T10:14:18.842Z</time></trkpt><trkpt lat="46.232078655986726" lon="11.320633520360328"><ele>856.0</ele><time>2026-05-01T10:14:19.848Z</time></trkpt><trkpt lat="46.23192044580037" lon="11.320408774157537"><ele>856.0</ele><time>2026-05-01T10:14:20.845Z</time></trkpt><trkpt lat="46.231764495904265" lon="11.320200040229219"><ele>856.0</ele><time>2026-05-01T10:14:21.844Z</time></trkpt><trkpt lat="46.23162165160849" lon="11.320008885798233"><ele>856.0</ele><time>2026-05-01T10:14:22.85Z</time></trkpt><trkpt lat="46.23151287486579" lon="11.31980615602426"><ele>850.6666666666666</ele><time>2026-05-01T10:14:23.84Z</time></trkpt><trkpt lat="46.23143512230677" lon="11.319587522211684"><ele>845.3333333333333</ele><time>2026-05-01T10:14:24.845Z</time></trkpt><trkpt lat="46.231358653956846" lon="11.319372842592543"><ele>840.0</ele><time>2026-05-01T10:14:25.851Z</time></trkpt><trkpt lat="46.2312637511014" lon="11.319179082974726"><ele>840.0</ele><time>2026-05-01T10:14:26.85Z</time></trkpt><trkpt lat="46.231128126881096" lon="11.319046104020925"><ele>840.0</ele><time>2026-05-01T10:14:27.845Z</time></trkpt><trkpt lat="46.23097352891228" lon="11.31899107317348"><ele>840.0</ele><time>2026-05-01T10:14:28.845Z</time></trkpt><trkpt lat="46.23081625" lon="11.319035599999998"><ele>840.0</ele><time>2026-05-01T10:14:29.829Z</time></trkpt><trkpt lat="46.23066111666667" lon="11.319107916666667"><ele>840.0</ele><time>2026-05-01T10:14:30.845Z</time></trkpt><trkpt lat="46.230504833333335" lon="11.31920845"><ele>840.0</ele><time>2026-05-01T10:14:31.85Z</time></trkpt><trkpt lat="46.23033568333333" lon="11.319318383333332"><ele>837.6666666666667</ele><time>2026-05-01T10:14:32.838Z</time></trkpt><trkpt lat="46.230156183333335" lon="11.319434716666668"><ele>835.3333333333334</ele><time>2026-05-01T10:14:33.847Z</time></trkpt><trkpt lat="46.229965449999995" lon="11.319535666666665"><ele>833.0</ele><time>2026-05-01T10:14:34.83Z</time></trkpt><trkpt lat="46.22975908333333" lon="11.319617316666665"><ele>830.0</ele><time>2026-05-01T10:14:35.839Z</time></trkpt><trkpt lat="46.22954811666667" lon="11.31969005"><ele>827.0</ele><time>2026-05-01T10:14:36.85Z</time></trkpt><trkpt lat="46.22934805" lon="11.319755516666664"><ele>824.0</ele><time>2026-05-01T10:14:37.845Z</time></trkpt><trkpt lat="46.22916298333333" lon="11.319819800000001"><ele>836.6666666666667</ele><time>2026-05-01T10:14:38.838Z</time></trkpt><trkpt lat="46.22898761666667" lon="11.319876733333334"><ele>849.3333333333333</ele><time>2026-05-01T10:14:39.848Z</time></trkpt><trkpt lat="46.228822916666665" lon="11.319914366666668"><ele>862.0</ele><time>2026-05-01T10:14:40.851Z</time></trkpt><trkpt lat="46.22866298333334" lon="11.3199078"><ele>859.3333333333333</ele><time>2026-05-01T10:14:41.852Z</time></trkpt><trkpt lat="46.228509383333325" lon="11.319840033333332"><ele>856.6666666666667</ele><time>2026-05-01T10:14:42.845Z</time></trkpt><trkpt lat="46.228386366666676" lon="11.319718833333331"><ele>854.0</ele><time>2026-05-01T10:14:43.849Z</time></trkpt><trkpt lat="46.22830186666667" lon="11.319550099999999"><ele>854.0</ele><time>2026-05-01T10:14:44.85Z</time></trkpt><trkpt lat="46.22824946666667" lon="11.319341866666665"><ele>854.0</ele><time>2026-05-01T10:14:45.847Z</time></trkpt><trkpt lat="46.2282363" lon="11.319121966666668"><ele>854.0</ele><time>2026-05-01T10:14:46.845Z</time></trkpt><trkpt lat="46.22825745" lon="11.318911583333332"><ele>854.5</ele><time>2026-05-01T10:14:47.838Z</time></trkpt><trkpt lat="46.228295683333336" lon="11.318719033333332"><ele>855.0</ele><time>2026-05-01T10:14:48.846Z</time></trkpt><trkpt lat="46.22833301666667" lon="11.3185171"><ele>855.5</ele><time>2026-05-01T10:14:49.85Z</time></trkpt><trkpt lat="46.22836985" lon="11.318283783333333"><ele>856.0</ele><time>2026-05-01T10:14:50.839Z</time></trkpt><trkpt lat="46.22841588333334" lon="11.31802348333333"><ele>858.6666666666666</ele><time>2026-05-01T10:14:51.845Z</time></trkpt><trkpt lat="46.22847508333332" lon="11.317737883333333"><ele>861.3333333333333</ele><time>2026-05-01T10:14:52.845Z</time></trkpt><trkpt lat="46.228538650000004" lon="11.317432583333334"><ele>864.0</ele><time>2026-05-01T10:14:53.851Z</time></trkpt><trkpt lat="46.22860543333333" lon="11.317122099999999"><ele>867.0</ele><time>2026-05-01T10:14:54.846Z</time></trkpt><trkpt lat="46.228673933333326" lon="11.31680865"><ele>870.0</ele><time>2026-05-01T10:14:55.847Z</time></trkpt><trkpt lat="46.22874638333333" lon="11.316490783333332"><ele>869.0</ele><time>2026-05-01T10:14:56.838Z</time></trkpt><trkpt lat="46.22881913333334" lon="11.31617665"><ele>868.0</ele><time>2026-05-01T10:14:57.845Z</time></trkpt><trkpt lat="46.2288865" lon="11.315878233333335"><ele>867.0</ele><time>2026-05-01T10:14:58.845Z</time></trkpt><trkpt lat="46.228945633333325" lon="11.315599650000001"><ele>864.3333333333333</ele><time>2026-05-01T10:14:59.842Z</time></trkpt><trkpt lat="46.228978033333334" lon="11.315336666666667"><ele>861.6666666666666</ele><time>2026-05-01T10:15:00.847Z</time></trkpt><trkpt lat="46.22897473333334" lon="11.315073700000001"><ele>859.0</ele><time>2026-05-01T10:15:01.847Z</time></trkpt><trkpt lat="46.228932799999995" lon="11.31480293333333"><ele>855.3333333333333</ele><time>2026-05-01T10:15:02.837Z</time></trkpt><trkpt lat="46.228850133333324" lon="11.314527316666664"><ele>851.6666666666667</ele><time>2026-05-01T10:15:03.86Z</time></trkpt><trkpt lat="46.228740283333345" lon="11.314241016666665"><ele>848.0</ele><time>2026-05-01T10:15:04.841Z</time></trkpt><trkpt lat="46.228631616666675" lon="11.313956800000001"><ele>841.6666666666667</ele><time>2026-05-01T10:15:05.844Z</time></trkpt><trkpt lat="46.228531633333326" lon="11.313691583333332"><ele>835.3333333333333</ele><time>2026-05-01T10:15:06.851Z</time></trkpt><trkpt lat="46.22843021666666" lon="11.313453233333332"><ele>829.0</ele><time>2026-05-01T10:15:07.845Z</time></trkpt><trkpt lat="46.2283166" lon="11.313256983333334"><ele>829.0</ele><time>2026-05-01T10:15:08.852Z</time></trkpt><trkpt lat="46.22818136666666" lon="11.3131166"><ele>829.0</ele><time>2026-05-01T10:15:09.851Z</time></trkpt><trkpt lat="46.22801918333333" lon="11.313030216666668"><ele>829.0</ele><time>2026-05-01T10:15:10.832Z</time></trkpt><trkpt lat="46.227836116666666" lon="11.312986999999998"><ele>822.3333333333333</ele><time>2026-05-01T10:15:11.829Z</time></trkpt><trkpt lat="46.2276312" lon="11.312963883333335"><ele>815.6666666666667</ele><time>2026-05-01T10:15:12.834Z</time></trkpt><trkpt lat="46.22741248333333" lon="11.31294165"><ele>809.0</ele><time>2026-05-01T10:15:13.843Z</time></trkpt><trkpt lat="46.22719843333332" lon="11.312919299999999"><ele>809.0</ele><time>2026-05-01T10:15:14.846Z</time></trkpt><trkpt lat="46.22700011666668" lon="11.312899166666666"><ele>809.0</ele><time>2026-05-01T10:15:15.85Z</time></trkpt><trkpt lat="46.22680955000001" lon="11.312888200000002"><ele>809.0</ele><time>2026-05-01T10:15:16.841Z</time></trkpt><trkpt lat="46.22661071666667" lon="11.31291335"><ele>809.0</ele><time>2026-05-01T10:15:17.852Z</time></trkpt><trkpt lat="46.22639891666666" lon="11.312971450000001"><ele>809.0</ele><time>2026-05-01T10:15:18.849Z</time></trkpt><trkpt lat="46.22620168333333" lon="11.313020333333334"><ele>809.0</ele><time>2026-05-01T10:15:19.83Z</time></trkpt><trkpt lat="46.22603653333334" lon="11.313041433333334"><ele>809.0</ele><time>2026-05-01T10:15:20.846Z</time></trkpt><trkpt lat="46.225898099999995" lon="11.3130307"><ele>809.0</ele><time>2026-05-01T10:15:21.83Z</time></trkpt><trkpt lat="46.22577026666666" lon="11.31299155"><ele>809.0</ele><time>2026-05-01T10:15:22.843Z</time></trkpt><trkpt lat="46.22565811430225" lon="11.312924378849681"><ele>809.0</ele><time>2026-05-01T10:15:23.844Z</time></trkpt><trkpt lat="46.22555376186878" lon="11.312873338157825"><ele>810.6</ele><time>2026-05-01T10:15:24.852Z</time></trkpt><trkpt lat="46.22545409245185" lon="11.312824427645214"><ele>812.2</ele><time>2026-05-01T10:15:25.84Z</time></trkpt><trkpt lat="46.22535305420081" lon="11.312776647311265"><ele>813.8000000000001</ele><time>2026-05-01T10:15:26.85Z</time></trkpt><trkpt lat="46.225243733333336" lon="11.312748783333332"><ele>815.4000000000001</ele><time>2026-05-01T10:15:27.85Z</time></trkpt><trkpt lat="46.22513808333333" lon="11.312696083333334"><ele>817.0</ele><time>2026-05-01T10:15:28.832Z</time></trkpt><trkpt lat="46.22502711666666" lon="11.312639833333334"><ele>817.0</ele><time>2026-05-01T10:15:29.846Z</time></trkpt><trkpt lat="46.224915683333336" lon="11.312583816666665"><ele>817.0</ele><time>2026-05-01T10:15:30.84Z</time></trkpt><trkpt lat="46.224813562421375" lon="11.312509124103414"><ele>817.0</ele><time>2026-05-01T10:15:31.84Z</time></trkpt><trkpt lat="46.224701730687144" lon="11.312463429011423"><ele>817.0</ele><time>2026-05-01T10:15:32.848Z</time></trkpt><trkpt lat="46.22458260950229" lon="11.312443646977966"><ele>817.5</ele><time>2026-05-01T10:15:33.853Z</time></trkpt><trkpt lat="46.22446145973299" lon="11.312439689675694"><ele>818.0</ele><time>2026-05-01T10:15:34.831Z</time></trkpt><trkpt lat="46.224339496294164" lon="11.312438725315925"><ele>818.5</ele><time>2026-05-01T10:15:35.848Z</time></trkpt><trkpt lat="46.22421478652729" lon="11.312438062720766"><ele>819.0</ele><time>2026-05-01T10:15:36.849Z</time></trkpt><trkpt lat="46.22409025116021" lon="11.312437390216122"><ele>816.5</ele><time>2026-05-01T10:15:37.832Z</time></trkpt><trkpt lat="46.22396630845791" lon="11.312436672829795"><ele>814.0</ele><time>2026-05-01T10:15:38.848Z</time></trkpt><trkpt lat="46.22383594859202" lon="11.312435621885061"><ele>811.5</ele><time>2026-05-01T10:15:39.832Z</time></trkpt><trkpt lat="46.22370675477623" lon="11.312432465677029"><ele>809.0</ele><time>2026-05-01T10:15:40.836Z</time></trkpt><trkpt lat="46.223580734557146" lon="11.31242745990958"><ele>809.0</ele><time>2026-05-01T10:15:41.844Z</time></trkpt><trkpt lat="46.223457424010974" lon="11.312428770866672"><ele>809.0</ele><time>2026-05-01T10:15:42.849Z</time></trkpt><trkpt lat="46.223344976220254" lon="11.312451693400604"><ele>809.0</ele><time>2026-05-01T10:15:43.832Z</time></trkpt><trkpt lat="46.22323572177114" lon="11.31250470434723"><ele>809.0</ele><time>2026-05-01T10:15:44.854Z</time></trkpt><trkpt lat="46.223148566666666" lon="11.312625783333333"><ele>808.25</ele><time>2026-05-01T10:15:45.852Z</time></trkpt><trkpt lat="46.223056316666664" lon="11.31277105"><ele>807.5</ele><time>2026-05-01T10:15:46.831Z</time></trkpt><trkpt lat="46.222953754858985" lon="11.31293261827537"><ele>806.75</ele><time>2026-05-01T10:15:47.846Z</time></trkpt><trkpt lat="46.22286359936629" lon="11.31311210870881"><ele>806.0</ele><time>2026-05-01T10:15:48.85Z</time></trkpt><trkpt lat="46.222781165410204" lon="11.31327804174372"><ele>806.0</ele><time>2026-05-01T10:15:49.846Z</time></trkpt><trkpt lat="46.22270444350446" lon="11.313434081407932"><ele>806.0</ele><time>2026-05-01T10:15:50.848Z</time></trkpt><trkpt lat="46.22263156190684" lon="11.3135823105109"><ele>806.0</ele><time>2026-05-01T10:15:51.849Z</time></trkpt><trkpt lat="46.22255694435919" lon="11.313727081108297"><ele>806.0</ele><time>2026-05-01T10:15:52.833Z</time></trkpt><trkpt lat="46.222477036140255" lon="11.313871893343494"><ele>804.75</ele><time>2026-05-01T10:15:53.846Z</time></trkpt><trkpt lat="46.22239773333334" lon="11.31401785"><ele>803.5</ele><time>2026-05-01T10:15:54.83Z</time></trkpt><trkpt lat="46.22228069819077" lon="11.314100801712984"><ele>802.25</ele><time>2026-05-01T10:15:55.833Z</time></trkpt><trkpt lat="46.22217228333334" lon="11.314210983333332"><ele>801.0</ele><time>2026-05-01T10:15:56.848Z</time></trkpt><trkpt lat="46.22205396666667" lon="11.314294716666666"><ele>801.0</ele><time>2026-05-01T10:15:57.833Z</time></trkpt><trkpt lat="46.22192583333334" lon="11.314386683333332"><ele>801.0</ele><time>2026-05-01T10:15:58.838Z</time></trkpt><trkpt lat="46.2217949" lon="11.314476850000002"><ele>801.0</ele><time>2026-05-01T10:15:59.847Z</time></trkpt><trkpt lat="46.221661833333336" lon="11.314576433333333"><ele>801.0</ele><time>2026-05-01T10:16:00.849Z</time></trkpt><trkpt lat="46.221531883333334" lon="11.314675933333335"><ele>800.0</ele><time>2026-05-01T10:16:01.833Z</time></trkpt><trkpt lat="46.22139705" lon="11.314776"><ele>799.0</ele><time>2026-05-01T10:16:02.853Z</time></trkpt><trkpt lat="46.22126363333333" lon="11.314871833333333"><ele>798.0</ele><time>2026-05-01T10:16:03.852Z</time></trkpt><trkpt lat="46.2211268" lon="11.314977533333336"><ele>798.0</ele><time>2026-05-01T10:16:04.833Z</time></trkpt><trkpt lat="46.22099204999999" lon="11.315091050000001"><ele>798.0</ele><time>2026-05-01T10:16:05.844Z</time></trkpt><trkpt lat="46.220854266666656" lon="11.315202566666668"><ele>798.0</ele><time>2026-05-01T10:16:06.832Z</time></trkpt><trkpt lat="46.220715133333336" lon="11.315307299999999"><ele>798.3333333333333</ele><time>2026-05-01T10:16:07.831Z</time></trkpt><trkpt lat="46.22057553333334" lon="11.315413283333331"><ele>798.6666666666666</ele><time>2026-05-01T10:16:08.848Z</time></trkpt><trkpt lat="46.22043955000001" lon="11.3155182"><ele>799.0</ele><time>2026-05-01T10:16:09.851Z</time></trkpt><trkpt lat="46.22030468333334" lon="11.315623816666669"><ele>799.0</ele><time>2026-05-01T10:16:10.833Z</time></trkpt><trkpt lat="46.220169399999996" lon="11.315728166666668"><ele>799.0</ele><time>2026-05-01T10:16:11.83Z</time></trkpt><trkpt lat="46.22003556666667" lon="11.315831600000001"><ele>799.0</ele><time>2026-05-01T10:16:12.853Z</time></trkpt><trkpt lat="46.21990323333333" lon="11.315943266666666"><ele>792.6666666666666</ele><time>2026-05-01T10:16:13.833Z</time></trkpt><trkpt lat="46.21977893333332" lon="11.316068566666669"><ele>786.3333333333333</ele><time>2026-05-01T10:16:14.848Z</time></trkpt><trkpt lat="46.21965786666666" lon="11.31620035"><ele>780.0</ele><time>2026-05-01T10:16:15.829Z</time></trkpt><trkpt lat="46.21953816666667" lon="11.3163322"><ele>790.0</ele><time>2026-05-01T10:16:16.852Z</time></trkpt><trkpt lat="46.21940382746441" lon="11.31644568895082"><ele>800.0</ele><time>2026-05-01T10:16:17.844Z</time></trkpt><trkpt lat="46.219279881655396" lon="11.31657666928169"><ele>810.0</ele><time>2026-05-01T10:16:18.85Z</time></trkpt><trkpt lat="46.219167799999994" lon="11.316721033333332"><ele>810.0</ele><time>2026-05-01T10:16:19.833Z</time></trkpt><trkpt lat="46.219048400000005" lon="11.31683455"><ele>810.0</ele><time>2026-05-01T10:16:20.831Z</time></trkpt><trkpt lat="46.21892451666666" lon="11.316916499999998"><ele>810.0</ele><time>2026-05-01T10:16:21.852Z</time></trkpt><trkpt lat="46.21879718333333" lon="11.316944183333332"><ele>810.0</ele><time>2026-05-01T10:16:22.831Z</time></trkpt><trkpt lat="46.21866813333333" lon="11.316929249999998"><ele>805.0</ele><time>2026-05-01T10:16:23.847Z</time></trkpt><trkpt lat="46.21852914999999" lon="11.316901733333335"><ele>800.0</ele><time>2026-05-01T10:16:24.851Z</time></trkpt><trkpt lat="46.21837146666667" lon="11.316870083333335"><ele>795.0</ele><time>2026-05-01T10:16:25.833Z</time></trkpt><trkpt lat="46.21819896666666" lon="11.316834749999998"><ele>797.3333333333333</ele><time>2026-05-01T10:16:26.847Z</time></trkpt><trkpt lat="46.218015183333335" lon="11.316798816666669"><ele>799.6666666666666</ele><time>2026-05-01T10:16:27.849Z</time></trkpt><trkpt lat="46.217818083333334" lon="11.316757333333332"><ele>802.0</ele><time>2026-05-01T10:16:28.833Z</time></trkpt><trkpt lat="46.21760988333334" lon="11.316711016666666"><ele>802.0</ele><time>2026-05-01T10:16:29.862Z</time></trkpt><trkpt lat="46.21740195000001" lon="11.316671049999998"><ele>802.0</ele><time>2026-05-01T10:16:30.83Z</time></trkpt><trkpt lat="46.21719893333334" lon="11.316633600000001"><ele>802.0</ele><time>2026-05-01T10:16:31.833Z</time></trkpt><trkpt lat="46.217002733333324" lon="11.316598549999998"><ele>801.6666666666666</ele><time>2026-05-01T10:16:32.848Z</time></trkpt><trkpt lat="46.21681865" lon="11.316558766666667"><ele>801.3333333333333</ele><time>2026-05-01T10:16:33.849Z</time></trkpt><trkpt lat="46.21663931666667" lon="11.316519183333332"><ele>801.0</ele><time>2026-05-01T10:16:34.843Z</time></trkpt><trkpt lat="46.21646156666667" lon="11.3164972"><ele>797.0</ele><time>2026-05-01T10:16:35.844Z</time></trkpt><trkpt lat="46.21628828333334" lon="11.316516383333331"><ele>793.0</ele><time>2026-05-01T10:16:36.847Z</time></trkpt><trkpt lat="46.216116316666664" lon="11.316586050000002"><ele>789.0</ele><time>2026-05-01T10:16:37.831Z</time></trkpt><trkpt lat="46.21594063333333" lon="11.316692333333334"><ele>789.0</ele><time>2026-05-01T10:16:38.843Z</time></trkpt><trkpt lat="46.21576" lon="11.316799283333333"><ele>789.0</ele><time>2026-05-01T10:16:39.861Z</time></trkpt><trkpt lat="46.21556678333333" lon="11.316884166666668"><ele>789.0</ele><time>2026-05-01T10:16:40.832Z</time></trkpt><trkpt lat="46.21536273333333" lon="11.31694965"><ele>784.0</ele><time>2026-05-01T10:16:41.85Z</time></trkpt><trkpt lat="46.21516148333333" lon="11.317000433333332"><ele>779.0</ele><time>2026-05-01T10:16:42.851Z</time></trkpt><trkpt lat="46.21497075" lon="11.317045399999998"><ele>774.0</ele><time>2026-05-01T10:16:43.842Z</time></trkpt><trkpt lat="46.21478241666667" lon="11.317098466666668"><ele>770.0</ele><time>2026-05-01T10:16:44.845Z</time></trkpt><trkpt lat="46.214588400000004" lon="11.317172033333334"><ele>766.0</ele><time>2026-05-01T10:16:45.85Z</time></trkpt><trkpt lat="46.2143942" lon="11.317273933333334"><ele>762.0</ele><time>2026-05-01T10:16:46.833Z</time></trkpt><trkpt lat="46.2142029" lon="11.317397416666665"><ele>767.6666666666667</ele><time>2026-05-01T10:16:47.829Z</time></trkpt><trkpt lat="46.21400031666667" lon="11.3175159"><ele>773.3333333333334</ele><time>2026-05-01T10:16:48.834Z</time></trkpt><trkpt lat="46.213787" lon="11.317631933333333"><ele>779.0</ele><time>2026-05-01T10:16:49.853Z</time></trkpt><trkpt lat="46.2135783" lon="11.317746233333333"><ele>779.0</ele><time>2026-05-01T10:16:50.846Z</time></trkpt><trkpt lat="46.2133823" lon="11.317853416666665"><ele>779.0</ele><time>2026-05-01T10:16:51.852Z</time></trkpt><trkpt lat="46.21320478333333" lon="11.317951316666665"><ele>779.0</ele><time>2026-05-01T10:16:52.833Z</time></trkpt><trkpt lat="46.21305203333333" lon="11.318035783333334"><ele>786.0</ele><time>2026-05-01T10:16:53.847Z</time></trkpt><trkpt lat="46.21291840000001" lon="11.318109350000002"><ele>793.0</ele><time>2026-05-01T10:16:54.852Z</time></trkpt><trkpt lat="46.212804549999994" lon="11.31816075"><ele>800.0</ele><time>2026-05-01T10:16:55.833Z</time></trkpt><trkpt lat="46.21270330000001" lon="11.31815795"><ele>807.0</ele><time>2026-05-01T10:16:56.851Z</time></trkpt><trkpt lat="46.212625233333334" lon="11.318086850000002"><ele>806.0</ele><time>2026-05-01T10:16:57.83Z</time></trkpt><trkpt lat="46.21258123333334" lon="11.317974849999999"><ele>805.0</ele><time>2026-05-01T10:16:58.831Z</time></trkpt><trkpt lat="46.21258013333333" lon="11.317843583333334"><ele>804.0</ele><time>2026-05-01T10:16:59.847Z</time></trkpt><trkpt lat="46.21261308333333" lon="11.317707700000001"><ele>803.0</ele><time>2026-05-01T10:17:00.85Z</time></trkpt><trkpt lat="46.21264611666667" lon="11.317561283333335"><ele>802.0</ele><time>2026-05-01T10:17:01.848Z</time></trkpt><trkpt lat="46.212673099999996" lon="11.317387716666667"><ele>800.25</ele><time>2026-05-01T10:17:02.848Z</time></trkpt><trkpt lat="46.21269878333332" lon="11.317191150000001"><ele>798.5</ele><time>2026-05-01T10:17:03.849Z</time></trkpt><trkpt lat="46.21269361666667" lon="11.317001916666667"><ele>796.75</ele><time>2026-05-01T10:17:04.833Z</time></trkpt><trkpt lat="46.21264878333333" lon="11.316830716666667"><ele>795.0</ele><time>2026-05-01T10:17:05.849Z</time></trkpt><trkpt lat="46.21256741666666" lon="11.316670333333331"><ele>795.0</ele><time>2026-05-01T10:17:06.841Z</time></trkpt><trkpt lat="46.21245536666667" lon="11.316513000000002"><ele>795.0</ele><time>2026-05-01T10:17:07.851Z</time></trkpt><trkpt lat="46.212342116237885" lon="11.316325506070909"><ele>795.0</ele><time>2026-05-01T10:17:08.846Z</time></trkpt><trkpt lat="46.21221548233617" lon="11.316144223889468"><ele>794.6666666666667</ele><time>2026-05-01T10:17:09.83Z</time></trkpt><trkpt lat="46.212082499999994" lon="11.315985166666668"><ele>794.3333333333334</ele><time>2026-05-01T10:17:10.841Z</time></trkpt><trkpt lat="46.21197171666666" lon="11.31581185"><ele>794.0</ele><time>2026-05-01T10:17:11.849Z</time></trkpt><trkpt lat="46.21188256666666" lon="11.315634699999997"><ele>790.25</ele><time>2026-05-01T10:17:12.852Z</time></trkpt><trkpt lat="46.21182711666667" lon="11.315446583333335"><ele>786.5</ele><time>2026-05-01T10:17:13.833Z</time></trkpt><trkpt lat="46.211800950000004" lon="11.315245416666668"><ele>782.75</ele><time>2026-05-01T10:17:14.845Z</time></trkpt><trkpt lat="46.21180013333333" lon="11.315031800000002"><ele>779.0</ele><time>2026-05-01T10:17:15.83Z</time></trkpt><trkpt lat="46.21183169999999" lon="11.314814866666667"><ele>785.0</ele><time>2026-05-01T10:17:16.833Z</time></trkpt><trkpt lat="46.21189483333333" lon="11.314607516666667"><ele>791.0</ele><time>2026-05-01T10:17:17.848Z</time></trkpt><trkpt lat="46.21199020907888" lon="11.31443132626808"><ele>797.0</ele><time>2026-05-01T10:17:18.831Z</time></trkpt><trkpt lat="46.21207720717862" lon="11.314253752838836"><ele>797.0</ele><time>2026-05-01T10:17:19.833Z</time></trkpt><trkpt lat="46.212147233333326" lon="11.314073133333334"><ele>797.0</ele><time>2026-05-01T10:17:20.853Z</time></trkpt><trkpt lat="46.212246216666664" lon="11.313928333333335"><ele>797.0</ele><time>2026-05-01T10:17:21.843Z</time></trkpt><trkpt lat="46.21237476872302" lon="11.31383518085662"><ele>797.0</ele><time>2026-05-01T10:17:22.833Z</time></trkpt><trkpt lat="46.212514316872166" lon="11.313739123598474"><ele>804.3333333333334</ele><time>2026-05-01T10:17:23.844Z</time></trkpt><trkpt lat="46.21266411493017" lon="11.313621069310047"><ele>811.6666666666667</ele><time>2026-05-01T10:17:24.85Z</time></trkpt><trkpt lat="46.21282091633029" lon="11.31349381119451"><ele>819.0</ele><time>2026-05-01T10:17:25.831Z</time></trkpt><trkpt lat="46.21298295" lon="11.313338949999997"><ele>819.0</ele><time>2026-05-01T10:17:26.844Z</time></trkpt><trkpt lat="46.21315436666667" lon="11.313204650000001"><ele>819.0</ele><time>2026-05-01T10:17:27.849Z</time></trkpt><trkpt lat="46.213314383333326" lon="11.313075900000001"><ele>819.0</ele><time>2026-05-01T10:17:28.841Z</time></trkpt><trkpt lat="46.21346584999999" lon="11.312954466666667"><ele>818.6666666666667</ele><time>2026-05-01T10:17:29.85Z</time></trkpt><trkpt lat="46.2136143" lon="11.312841466666665"><ele>818.3333333333334</ele><time>2026-05-01T10:17:30.842Z</time></trkpt><trkpt lat="46.21376553333333" lon="11.312729449999997"><ele>818.0</ele><time>2026-05-01T10:17:31.833Z</time></trkpt><trkpt lat="46.213924250000005" lon="11.312618016666667"><ele>805.3333333333334</ele><time>2026-05-01T10:17:32.845Z</time></trkpt><trkpt lat="46.214092150000006" lon="11.312507049999999"><ele>792.6666666666667</ele><time>2026-05-01T10:17:33.829Z</time></trkpt><trkpt lat="46.214270166666665" lon="11.3124012"><ele>780.0</ele><time>2026-05-01T10:17:34.833Z</time></trkpt><trkpt lat="46.214461283333335" lon="11.312294149999998"><ele>788.3333333333333</ele><time>2026-05-01T10:17:35.849Z</time></trkpt><trkpt lat="46.21466176666666" lon="11.31217985"><ele>796.6666666666666</ele><time>2026-05-01T10:17:36.85Z</time></trkpt><trkpt lat="46.214873100000005" lon="11.312053883333332"><ele>805.0</ele><time>2026-05-01T10:17:37.833Z</time></trkpt><trkpt lat="46.2150989" lon="11.31191665"><ele>805.0</ele><time>2026-05-01T10:17:38.844Z</time></trkpt><trkpt lat="46.21534378333334" lon="11.311771616666665"><ele>805.0</ele><time>2026-05-01T10:17:39.843Z</time></trkpt><trkpt lat="46.21560763333334" lon="11.31161955"><ele>814.5</ele><time>2026-05-01T10:17:40.833Z</time></trkpt><trkpt lat="46.21586779999999" lon="11.311471783333332"><ele>824.0</ele><time>2026-05-01T10:17:41.848Z</time></trkpt><trkpt lat="46.216112216666666" lon="11.3113356"><ele>824.0</ele><time>2026-05-01T10:17:42.831Z</time></trkpt><trkpt lat="46.21634088333334" lon="11.311204966666667"><ele>824.0</ele><time>2026-05-01T10:17:43.832Z</time></trkpt><trkpt lat="46.216553966666666" lon="11.311079199999998"><ele>814.3333333333334</ele><time>2026-05-01T10:17:44.847Z</time></trkpt><trkpt lat="46.21675036666667" lon="11.310957366666665"><ele>804.6666666666667</ele><time>2026-05-01T10:17:45.85Z</time></trkpt><trkpt lat="46.216926683333334" lon="11.31082055"><ele>795.0</ele><time>2026-05-01T10:17:46.83Z</time></trkpt><trkpt lat="46.21708576666666" lon="11.31064445"><ele>794.0</ele><time>2026-05-01T10:17:47.85Z</time></trkpt><trkpt lat="46.21723411666667" lon="11.310425533333333"><ele>793.0</ele><time>2026-05-01T10:17:48.85Z</time></trkpt><trkpt lat="46.21739541689157" lon="11.310201695408857"><ele>792.0</ele><time>2026-05-01T10:17:49.833Z</time></trkpt><trkpt lat="46.217553654342844" lon="11.309959078333938"><ele>810.0</ele><time>2026-05-01T10:17:50.845Z</time></trkpt><trkpt lat="46.217703866666675" lon="11.309704933333334"><ele>828.0</ele><time>2026-05-01T10:17:51.852Z</time></trkpt><trkpt lat="46.21789465208639" lon="11.309523042841489"><ele>828.0</ele><time>2026-05-01T10:17:52.852Z</time></trkpt><trkpt lat="46.21807431339155" lon="11.309338592312113"><ele>828.0</ele><time>2026-05-01T10:17:53.852Z</time></trkpt><trkpt lat="46.21824250194495" lon="11.309165478567508"><ele>828.0</ele><time>2026-05-01T10:17:54.853Z</time></trkpt><trkpt lat="46.218399425479745" lon="11.309002695135796"><ele>821.3333333333333</ele><time>2026-05-01T10:17:55.83Z</time></trkpt><trkpt lat="46.2185477301256" lon="11.308829416613499"><ele>814.6666666666666</ele><time>2026-05-01T10:17:56.851Z</time></trkpt><trkpt lat="46.218675162037755" lon="11.308602985551298"><ele>808.0</ele><time>2026-05-01T10:17:57.849Z</time></trkpt><trkpt lat="46.21878410814598" lon="11.308346445748949"><ele>815.3333333333333</ele><time>2026-05-01T10:17:58.828Z</time></trkpt><trkpt lat="46.21888108333333" lon="11.308066949999999"><ele>822.6666666666667</ele><time>2026-05-01T10:17:59.847Z</time></trkpt><trkpt lat="46.21900050983288" lon="11.307818244059138"><ele>830.0</ele><time>2026-05-01T10:18:00.849Z</time></trkpt><trkpt lat="46.219088250000006" lon="11.307562933333335"><ele>814.0</ele><time>2026-05-01T10:18:01.833Z</time></trkpt><trkpt lat="46.219183533333336" lon="11.30733825"><ele>798.0</ele><time>2026-05-01T10:18:02.849Z</time></trkpt><trkpt lat="46.21925023333333" lon="11.30711855"><ele>782.0</ele><time>2026-05-01T10:18:03.85Z</time></trkpt><trkpt lat="46.219273433333335" lon="11.306897683333332"><ele>782.0</ele><time>2026-05-01T10:18:04.827Z</time></trkpt><trkpt lat="46.21925970000001" lon="11.306674933333333"><ele>782.0</ele><time>2026-05-01T10:18:05.847Z</time></trkpt><trkpt lat="46.21920993333333" lon="11.306455233333335"><ele>782.0</ele><time>2026-05-01T10:18:06.849Z</time></trkpt><trkpt lat="46.219119799999994" lon="11.306252016666667"><ele>783.6666666666667</ele><time>2026-05-01T10:18:07.83Z</time></trkpt><trkpt lat="46.21899191666666" lon="11.30607765"><ele>785.3333333333333</ele><time>2026-05-01T10:18:08.85Z</time></trkpt><trkpt lat="46.21883301666667" lon="11.305932733333334"><ele>787.0</ele><time>2026-05-01T10:18:09.852Z</time></trkpt><trkpt lat="46.218659099999996" lon="11.305798783333334"><ele>787.0</ele><time>2026-05-01T10:18:10.835Z</time></trkpt><trkpt lat="46.21848778333333" lon="11.305658733333335"><ele>787.0</ele><time>2026-05-01T10:18:11.852Z</time></trkpt><trkpt lat="46.21831881666667" lon="11.305523899999999"><ele>787.0</ele><time>2026-05-01T10:18:12.851Z</time></trkpt><trkpt lat="46.21814633333334" lon="11.305393150000002"><ele>784.0</ele><time>2026-05-01T10:18:13.833Z</time></trkpt><trkpt lat="46.21797533333333" lon="11.305265183333333"><ele>781.0</ele><time>2026-05-01T10:18:14.848Z</time></trkpt><trkpt lat="46.2178077" lon="11.305132833333335"><ele>778.0</ele><time>2026-05-01T10:18:15.874Z</time></trkpt><trkpt lat="46.217648366666666" lon="11.30498745"><ele>778.0</ele><time>2026-05-01T10:18:16.829Z</time></trkpt><trkpt lat="46.21749410000001" lon="11.304834816666668"><ele>778.0</ele><time>2026-05-01T10:18:17.845Z</time></trkpt><trkpt lat="46.21733856666667" lon="11.3046786"><ele>778.0</ele><time>2026-05-01T10:18:18.85Z</time></trkpt><trkpt lat="46.21718179999999" lon="11.304515866666668"><ele>780.0</ele><time>2026-05-01T10:18:19.846Z</time></trkpt><trkpt lat="46.217013816666665" lon="11.304354066666669"><ele>782.0</ele><time>2026-05-01T10:18:20.851Z</time></trkpt><trkpt lat="46.21683755000001" lon="11.304197033333333"><ele>784.0</ele><time>2026-05-01T10:18:21.85Z</time></trkpt><trkpt lat="46.216660850000004" lon="11.304032949999998"><ele>785.3333333333333</ele><time>2026-05-01T10:18:22.83Z</time></trkpt><trkpt lat="46.216488966666674" lon="11.303846949999999"><ele>786.6666666666667</ele><time>2026-05-01T10:18:23.848Z</time></trkpt><trkpt lat="46.21632423333334" lon="11.303638149999998"><ele>788.0</ele><time>2026-05-01T10:18:24.836Z</time></trkpt><trkpt lat="46.21616731666666" lon="11.303404583333334"><ele>788.0</ele><time>2026-05-01T10:18:25.844Z</time></trkpt><trkpt lat="46.21602098333332" lon="11.303164533333334"><ele>788.0</ele><time>2026-05-01T10:18:26.847Z</time></trkpt><trkpt lat="46.21588493333334" lon="11.302952033333334"><ele>788.0</ele><time>2026-05-01T10:18:27.849Z</time></trkpt><trkpt lat="46.21574401666667" lon="11.30278816666667"><ele>782.0</ele><time>2026-05-01T10:18:28.831Z</time></trkpt><trkpt lat="46.21558063333333" lon="11.30267115"><ele>776.0</ele><time>2026-05-01T10:18:29.848Z</time></trkpt><trkpt lat="46.215393799999994" lon="11.302585700000002"><ele>770.0</ele><time>2026-05-01T10:18:30.85Z</time></trkpt><trkpt lat="46.215187083333326" lon="11.302518733333333"><ele>770.0</ele><time>2026-05-01T10:18:31.834Z</time></trkpt><trkpt lat="46.21498685" lon="11.30245335"><ele>770.0</ele><time>2026-05-01T10:18:32.848Z</time></trkpt><trkpt lat="46.21479715" lon="11.30239165"><ele>770.0</ele><time>2026-05-01T10:18:33.832Z</time></trkpt><trkpt lat="46.21462213333332" lon="11.3023291"><ele>772.0</ele><time>2026-05-01T10:18:34.846Z</time></trkpt><trkpt lat="46.214462850000004" lon="11.302232833333335"><ele>774.0</ele><time>2026-05-01T10:18:35.85Z</time></trkpt><trkpt lat="46.214325333333335" lon="11.302090133333335"><ele>776.0</ele><time>2026-05-01T10:18:36.849Z</time></trkpt><trkpt lat="46.2142156" lon="11.301898899999998"><ele>776.0</ele><time>2026-05-01T10:18:37.845Z</time></trkpt><trkpt lat="46.21414063333333" lon="11.301665333333334"><ele>776.0</ele><time>2026-05-01T10:18:38.828Z</time></trkpt><trkpt lat="46.214092150000006" lon="11.301401316666666"><ele>776.0</ele><time>2026-05-01T10:18:39.843Z</time></trkpt><trkpt lat="46.21403561666666" lon="11.301140416666666"><ele>773.6666666666667</ele><time>2026-05-01T10:18:40.83Z</time></trkpt><trkpt lat="46.21394918333334" lon="11.300900716666668"><ele>771.3333333333333</ele><time>2026-05-01T10:18:41.851Z</time></trkpt><trkpt lat="46.21382726666667" lon="11.300684083333332"><ele>769.0</ele><time>2026-05-01T10:18:42.83Z</time></trkpt><trkpt lat="46.21367253333332" lon="11.300483216666665"><ele>769.0</ele><time>2026-05-01T10:18:43.843Z</time></trkpt><trkpt lat="46.21349745000001" lon="11.30028831666667"><ele>769.0</ele><time>2026-05-01T10:18:44.853Z</time></trkpt><trkpt lat="46.21331168333333" lon="11.3000854"><ele>767.6666666666666</ele><time>2026-05-01T10:18:45.85Z</time></trkpt><trkpt lat="46.213134049999994" lon="11.299882183333333"><ele>766.3333333333333</ele><time>2026-05-01T10:18:46.83Z</time></trkpt><trkpt lat="46.21296770000001" lon="11.299692216666665"><ele>765.0</ele><time>2026-05-01T10:18:47.874Z</time></trkpt><trkpt lat="46.212801999999996" lon="11.299517166666664"><ele>765.0</ele><time>2026-05-01T10:18:48.832Z</time></trkpt><trkpt lat="46.212624999999996" lon="11.2993622"><ele>765.0</ele><time>2026-05-01T10:18:49.83Z</time></trkpt><trkpt lat="46.21243091666667" lon="11.299230116666669"><ele>765.0</ele><time>2026-05-01T10:18:50.831Z</time></trkpt><trkpt lat="46.21222411666666" lon="11.299125233333333"><ele>772.5</ele><time>2026-05-01T10:18:51.847Z</time></trkpt><trkpt lat="46.21199736666667" lon="11.2990496"><ele>780.0</ele><time>2026-05-01T10:18:52.841Z</time></trkpt><trkpt lat="46.21176715" lon="11.298996833333335"><ele>780.0</ele><time>2026-05-01T10:18:53.849Z</time></trkpt><trkpt lat="46.21155586666667" lon="11.29894095"><ele>780.0</ele><time>2026-05-01T10:18:54.853Z</time></trkpt><trkpt lat="46.211383183333325" lon="11.2988668"><ele>780.0</ele><time>2026-05-01T10:18:55.829Z</time></trkpt><trkpt lat="46.21125529999999" lon="11.298764483333331"><ele>780.25</ele><time>2026-05-01T10:18:56.854Z</time></trkpt><trkpt lat="46.21116738333334" lon="11.298620533333334"><ele>780.5</ele><time>2026-05-01T10:18:57.855Z</time></trkpt><trkpt lat="46.21111965000001" lon="11.298430033333334"><ele>780.75</ele><time>2026-05-01T10:18:58.829Z</time></trkpt><trkpt lat="46.21110503333333" lon="11.298197066666667"><ele>781.0</ele><time>2026-05-01T10:18:59.851Z</time></trkpt><trkpt lat="46.21110131666666" lon="11.297942716666668"><ele>781.0</ele><time>2026-05-01T10:19:00.851Z</time></trkpt><trkpt lat="46.2110973" lon="11.297691983333333"><ele>781.0</ele><time>2026-05-01T10:19:01.848Z</time></trkpt><trkpt lat="46.211073500000005" lon="11.297463550000002"><ele>781.0</ele><time>2026-05-01T10:19:02.847Z</time></trkpt><trkpt lat="46.21100970000001" lon="11.297247766666667"><ele>788.6666666666666</ele><time>2026-05-01T10:19:03.853Z</time></trkpt><trkpt lat="46.21090421666666" lon="11.297041866666666"><ele>796.3333333333333</ele><time>2026-05-01T10:19:04.844Z</time></trkpt><trkpt lat="46.21076003333333" lon="11.296850533333336"><ele>804.0</ele><time>2026-05-01T10:19:05.849Z</time></trkpt><trkpt lat="46.21059903333333" lon="11.296659199999999"><ele>804.0</ele><time>2026-05-01T10:19:06.832Z</time></trkpt><trkpt lat="46.210446749999996" lon="11.296437933333333"><ele>804.0</ele><time>2026-05-01T10:19:07.842Z</time></trkpt><trkpt lat="46.21030848333333" lon="11.29620055"><ele>804.0</ele><time>2026-05-01T10:19:08.848Z</time></trkpt><trkpt lat="46.210180816666664" lon="11.295976616666668"><ele>794.3333333333333</ele><time>2026-05-01T10:19:09.83Z</time></trkpt><trkpt lat="46.21006705" lon="11.295760083333334"><ele>784.6666666666666</ele><time>2026-05-01T10:19:10.844Z</time></trkpt><trkpt lat="46.20997636666666" lon="11.295525533333334"><ele>775.0</ele><time>2026-05-01T10:19:11.845Z</time></trkpt><trkpt lat="46.209912833333334" lon="11.295262050000002"><ele>769.6666666666666</ele><time>2026-05-01T10:19:12.85Z</time></trkpt><trkpt lat="46.20986498333333" lon="11.294978983333333"><ele>764.3333333333333</ele><time>2026-05-01T10:19:13.828Z</time></trkpt><trkpt lat="46.20981714999999" lon="11.294679733333332"><ele>759.0</ele><time>2026-05-01T10:19:14.846Z</time></trkpt><trkpt lat="46.20976328333333" lon="11.294363549999998"><ele>782.0</ele><time>2026-05-01T10:19:15.828Z</time></trkpt><trkpt lat="46.209710883333344" lon="11.294036316666665"><ele>805.0</ele><time>2026-05-01T10:19:16.833Z</time></trkpt><trkpt lat="46.209704874500574" lon="11.293700792254594"><ele>805.0</ele><time>2026-05-01T10:19:17.846Z</time></trkpt><trkpt lat="46.20965948523702" lon="11.293403371016852"><ele>805.0</ele><time>2026-05-01T10:19:18.833Z</time></trkpt><trkpt lat="46.20963709427313" lon="11.293108437344122"><ele>805.0</ele><time>2026-05-01T10:19:19.836Z</time></trkpt><trkpt lat="46.20962522164123" lon="11.292814806469998"><ele>799.3333333333333</ele><time>2026-05-01T10:19:20.846Z</time></trkpt><trkpt lat="46.2096052266125" lon="11.292528553128587"><ele>793.6666666666667</ele><time>2026-05-01T10:19:21.851Z</time></trkpt><trkpt lat="46.209539087837605" lon="11.29226327168016"><ele>788.0</ele><time>2026-05-01T10:19:22.833Z</time></trkpt><trkpt lat="46.20942351460252" lon="11.291988915667275"><ele>782.3333333333334</ele><time>2026-05-01T10:19:23.828Z</time></trkpt><trkpt lat="46.209295444200855" lon="11.291743420433066"><ele>776.6666666666667</ele><time>2026-05-01T10:19:24.83Z</time></trkpt><trkpt lat="46.209157678114344" lon="11.291482000530545"><ele>771.0</ele><time>2026-05-01T10:19:25.83Z</time></trkpt><trkpt lat="46.209022136301066" lon="11.291224602570228"><ele>775.6666666666667</ele><time>2026-05-01T10:19:26.846Z</time></trkpt><trkpt lat="46.20889793827165" lon="11.290985032469425"><ele>780.3333333333334</ele><time>2026-05-01T10:19:27.852Z</time></trkpt><trkpt lat="46.208782829641976" lon="11.29076059465192"><ele>785.0</ele><time>2026-05-01T10:19:28.831Z</time></trkpt><trkpt lat="46.20867970909231" lon="11.290561610453166"><ele>785.0</ele><time>2026-05-01T10:19:29.848Z</time></trkpt><trkpt lat="46.208613329317174" lon="11.290354856452774"><ele>785.0</ele><time>2026-05-01T10:19:30.851Z</time></trkpt><trkpt lat="46.20858070792599" lon="11.290112919541784"><ele>785.0</ele><time>2026-05-01T10:19:31.829Z</time></trkpt><trkpt lat="46.2085571754992" lon="11.2898370729754"><ele>781.0</ele><time>2026-05-01T10:19:32.851Z</time></trkpt><trkpt lat="46.20853269407587" lon="11.289554638119448"><ele>777.0</ele><time>2026-05-01T10:19:33.828Z</time></trkpt><trkpt lat="46.20849666475238" lon="11.28925339672252"><ele>773.0</ele><time>2026-05-01T10:19:34.828Z</time></trkpt><trkpt lat="46.208408966868056" lon="11.28896555289445"><ele>766.6666666666667</ele><time>2026-05-01T10:19:35.846Z</time></trkpt><trkpt lat="46.208307684752505" lon="11.288684563786658"><ele>760.3333333333334</ele><time>2026-05-01T10:19:36.85Z</time></trkpt><trkpt lat="46.20821483405743" lon="11.28839519100943"><ele>754.0</ele><time>2026-05-01T10:19:37.831Z</time></trkpt><trkpt lat="46.20812471666667" lon="11.288116166666667"><ele>764.0</ele><time>2026-05-01T10:19:38.847Z</time></trkpt><trkpt lat="46.20808362418609" lon="11.287831433014029"><ele>774.0</ele><time>2026-05-01T10:19:39.853Z</time></trkpt><trkpt lat="46.20802985051233" lon="11.28756686508475"><ele>784.0</ele><time>2026-05-01T10:19:40.831Z</time></trkpt><trkpt lat="46.20797438145875" lon="11.28730406280364"><ele>780.3333333333333</ele><time>2026-05-01T10:19:41.852Z</time></trkpt><trkpt lat="46.20789607999667" lon="11.287040413365212"><ele>776.6666666666667</ele><time>2026-05-01T10:19:42.85Z</time></trkpt><trkpt lat="46.20781260838412" lon="11.286781479215747"><ele>773.0</ele><time>2026-05-01T10:19:43.833Z</time></trkpt><trkpt lat="46.20774119594486" lon="11.286529422261095"><ele>767.6666666666667</ele><time>2026-05-01T10:19:44.848Z</time></trkpt><trkpt lat="46.20770297136102" lon="11.286277279054572"><ele>762.3333333333334</ele><time>2026-05-01T10:19:45.851Z</time></trkpt><trkpt lat="46.207647683333334" lon="11.286039933333333"><ele>757.0</ele><time>2026-05-01T10:19:46.844Z</time></trkpt><trkpt lat="46.20762368333334" lon="11.285814349999999"><ele>757.0</ele><time>2026-05-01T10:19:47.846Z</time></trkpt><trkpt lat="46.20758936666666" lon="11.285605200000001"><ele>757.0</ele><time>2026-05-01T10:19:48.85Z</time></trkpt><trkpt lat="46.20752463333333" lon="11.285417033333331"><ele>757.0</ele><time>2026-05-01T10:19:49.832Z</time></trkpt><trkpt lat="46.20742238333334" lon="11.285267316666665"><ele>757.0</ele><time>2026-05-01T10:19:50.845Z</time></trkpt><trkpt lat="46.207292450000004" lon="11.285171866666666"><ele>743.6666666666667</ele><time>2026-05-01T10:19:51.863Z</time></trkpt><trkpt lat="46.20714543333334" lon="11.285149766666667"><ele>730.3333333333334</ele><time>2026-05-01T10:19:52.833Z</time></trkpt><trkpt lat="46.206991699999996" lon="11.285200766666666"><ele>717.0</ele><time>2026-05-01T10:19:53.846Z</time></trkpt><trkpt lat="46.206833966666665" lon="11.2853069"><ele>717.0</ele><time>2026-05-01T10:19:54.85Z</time></trkpt><trkpt lat="46.206663750000004" lon="11.285440433333333"><ele>717.0</ele><time>2026-05-01T10:19:55.847Z</time></trkpt><trkpt lat="46.20648156666666" lon="11.285580416666667"><ele>717.0</ele><time>2026-05-01T10:19:56.846Z</time></trkpt><trkpt lat="46.20630063333333" lon="11.285721383333335"><ele>722.3333333333334</ele><time>2026-05-01T10:19:57.851Z</time></trkpt><trkpt lat="46.20612731666667" lon="11.285850883333335"><ele>727.6666666666667</ele><time>2026-05-01T10:19:58.831Z</time></trkpt><trkpt lat="46.20595493333333" lon="11.285977649999998"><ele>733.0</ele><time>2026-05-01T10:19:59.848Z</time></trkpt><trkpt lat="46.2057784" lon="11.286097983333331"><ele>735.3333333333334</ele><time>2026-05-01T10:20:00.836Z</time></trkpt><trkpt lat="46.20560666666667" lon="11.286228133333333"><ele>737.6666666666666</ele><time>2026-05-01T10:20:01.831Z</time></trkpt><trkpt lat="46.205446200000004" lon="11.286392133333335"><ele>740.0</ele><time>2026-05-01T10:20:02.846Z</time></trkpt><trkpt lat="46.205284383333336" lon="11.286564716666666"><ele>740.0</ele><time>2026-05-01T10:20:03.829Z</time></trkpt><trkpt lat="46.20511738333333" lon="11.2867269"><ele>740.0</ele><time>2026-05-01T10:20:04.833Z</time></trkpt><trkpt lat="46.20495876666667" lon="11.286880816666667"><ele>740.0</ele><time>2026-05-01T10:20:05.847Z</time></trkpt><trkpt lat="46.204809866666665" lon="11.28703055"><ele>739.6666666666666</ele><time>2026-05-01T10:20:06.851Z</time></trkpt><trkpt lat="46.204667216666664" lon="11.287177933333332"><ele>739.3333333333334</ele><time>2026-05-01T10:20:07.833Z</time></trkpt><trkpt lat="46.204531749999994" lon="11.287325183333333"><ele>739.0</ele><time>2026-05-01T10:20:08.832Z</time></trkpt><trkpt lat="46.20440941666668" lon="11.287468966666667"><ele>742.25</ele><time>2026-05-01T10:20:09.831Z</time></trkpt><trkpt lat="46.20429420000001" lon="11.287607783333334"><ele>745.5</ele><time>2026-05-01T10:20:10.834Z</time></trkpt><trkpt lat="46.20417838333333" lon="11.287715883333332"><ele>748.75</ele><time>2026-05-01T10:20:11.846Z</time></trkpt><trkpt lat="46.20405036666666" lon="11.28776955"><ele>752.0</ele><time>2026-05-01T10:20:12.85Z</time></trkpt><trkpt lat="46.2039131" lon="11.287757883333333"><ele>758.0</ele><time>2026-05-01T10:20:13.84Z</time></trkpt><trkpt lat="46.20378949999999" lon="11.287678750000001"><ele>764.0</ele><time>2026-05-01T10:20:14.846Z</time></trkpt><trkpt lat="46.20369434999999" lon="11.287547183333334"><ele>770.0</ele><time>2026-05-01T10:20:15.85Z</time></trkpt><trkpt lat="46.20363236666667" lon="11.287375533333332"><ele>776.0</ele><time>2026-05-01T10:20:16.831Z</time></trkpt><trkpt lat="46.203612850000006" lon="11.287178816666668"><ele>781.6666666666667</ele><time>2026-05-01T10:20:17.845Z</time></trkpt><trkpt lat="46.20364005" lon="11.286974300000002"><ele>787.3333333333333</ele><time>2026-05-01T10:20:18.83Z</time></trkpt><trkpt lat="46.20370733333333" lon="11.286765916666665"><ele>793.0</ele><time>2026-05-01T10:20:19.833Z</time></trkpt><trkpt lat="46.203786083333334" lon="11.286542133333334"><ele>800.6666666666666</ele><time>2026-05-01T10:20:20.846Z</time></trkpt><trkpt lat="46.203866633333334" lon="11.286302066666668"><ele>808.3333333333333</ele><time>2026-05-01T10:20:21.85Z</time></trkpt><trkpt lat="46.203955183333335" lon="11.28606405"><ele>816.0</ele><time>2026-05-01T10:20:22.831Z</time></trkpt><trkpt lat="46.20404345" lon="11.28582615"><ele>804.0</ele><time>2026-05-01T10:20:23.847Z</time></trkpt><trkpt lat="46.204126233333334" lon="11.285584766666666"><ele>792.0</ele><time>2026-05-01T10:20:24.853Z</time></trkpt><trkpt lat="46.20420441666666" lon="11.285345283333333"><ele>780.0</ele><time>2026-05-01T10:20:25.833Z</time></trkpt><trkpt lat="46.204283950000004" lon="11.285114466666668"><ele>780.0</ele><time>2026-05-01T10:20:26.846Z</time></trkpt><trkpt lat="46.2043662" lon="11.284888450000002"><ele>780.0</ele><time>2026-05-01T10:20:27.844Z</time></trkpt><trkpt lat="46.20445295" lon="11.284671866666667"><ele>780.0</ele><time>2026-05-01T10:20:28.836Z</time></trkpt><trkpt lat="46.204547716666674" lon="11.284470600000002"><ele>786.6666666666667</ele><time>2026-05-01T10:20:29.849Z</time></trkpt><trkpt lat="46.20464415" lon="11.284270733333337"><ele>793.3333333333334</ele><time>2026-05-01T10:20:30.849Z</time></trkpt><trkpt lat="46.20473715" lon="11.284066666666668"><ele>800.0</ele><time>2026-05-01T10:20:31.83Z</time></trkpt><trkpt lat="46.20481816666667" lon="11.28385185"><ele>782.6666666666667</ele><time>2026-05-01T10:20:32.857Z</time></trkpt><trkpt lat="46.204876250000005" lon="11.283619533333335"><ele>765.3333333333334</ele><time>2026-05-01T10:20:33.852Z</time></trkpt><trkpt lat="46.20491345000001" lon="11.2833704"><ele>748.0</ele><time>2026-05-01T10:20:34.837Z</time></trkpt><trkpt lat="46.20495053333334" lon="11.283130950000002"><ele>751.3333333333334</ele><time>2026-05-01T10:20:35.852Z</time></trkpt><trkpt lat="46.204984200000006" lon="11.28290665"><ele>754.6666666666666</ele><time>2026-05-01T10:20:36.851Z</time></trkpt><trkpt lat="46.20501120000001" lon="11.282688433333332"><ele>758.0</ele><time>2026-05-01T10:20:37.834Z</time></trkpt><trkpt lat="46.20503893333333" lon="11.282468449999998"><ele>757.6666666666666</ele><time>2026-05-01T10:20:38.846Z</time></trkpt><trkpt lat="46.20506366666667" lon="11.282243650000002"><ele>757.3333333333334</ele><time>2026-05-01T10:20:39.844Z</time></trkpt><trkpt lat="46.20506821666666" lon="11.2820112"><ele>757.0</ele><time>2026-05-01T10:20:40.845Z</time></trkpt><trkpt lat="46.205042266666666" lon="11.281779283333332"><ele>757.0</ele><time>2026-05-01T10:20:41.846Z</time></trkpt><trkpt lat="46.20498599999999" lon="11.281556566666666"><ele>757.0</ele><time>2026-05-01T10:20:42.844Z</time></trkpt><trkpt lat="46.204899350000005" lon="11.281356100000002"><ele>757.0</ele><time>2026-05-01T10:20:43.829Z</time></trkpt><trkpt lat="46.20478668333334" lon="11.281183016666667"><ele>759.3333333333334</ele><time>2026-05-01T10:20:44.846Z</time></trkpt><trkpt lat="46.20465455" lon="11.281041300000002"><ele>761.6666666666666</ele><time>2026-05-01T10:20:45.832Z</time></trkpt><trkpt lat="46.20450603333333" lon="11.280937366666668"><ele>764.0</ele><time>2026-05-01T10:20:46.831Z</time></trkpt><trkpt lat="46.20434781666666" lon="11.280857566666668"><ele>764.0</ele><time>2026-05-01T10:20:47.846Z</time></trkpt><trkpt lat="46.20419245" lon="11.28077935"><ele>764.0</ele><time>2026-05-01T10:20:48.851Z</time></trkpt><trkpt lat="46.20404735" lon="11.280694266666668"><ele>764.0</ele><time>2026-05-01T10:20:49.834Z</time></trkpt><trkpt lat="46.20391141666667" lon="11.280594683333334"><ele>767.3333333333333</ele><time>2026-05-01T10:20:50.846Z</time></trkpt><trkpt lat="46.20379195" lon="11.280456366666666"><ele>770.6666666666666</ele><time>2026-05-01T10:20:51.851Z</time></trkpt><trkpt lat="46.203691616666674" lon="11.280257749999999"><ele>774.0</ele><time>2026-05-01T10:20:52.833Z</time></trkpt><trkpt lat="46.20360591666666" lon="11.280031933333332"><ele>774.0</ele><time>2026-05-01T10:20:53.845Z</time></trkpt><trkpt lat="46.20352736666667" lon="11.279813599999999"><ele>774.0</ele><time>2026-05-01T10:20:54.83Z</time></trkpt><trkpt lat="46.20344534999999" lon="11.279606000000001"><ele>774.0</ele><time>2026-05-01T10:20:55.835Z</time></trkpt><trkpt lat="46.20334836666666" lon="11.279414633333333"><ele>769.3333333333334</ele><time>2026-05-01T10:20:56.847Z</time></trkpt><trkpt lat="46.20323388333333" lon="11.279230150000002"><ele>764.6666666666667</ele><time>2026-05-01T10:20:57.852Z</time></trkpt><trkpt lat="46.203098133333334" lon="11.279067816666668"><ele>760.0</ele><time>2026-05-01T10:20:58.83Z</time></trkpt><trkpt lat="46.202943316666676" lon="11.278925399999999"><ele>760.0</ele><time>2026-05-01T10:20:59.829Z</time></trkpt><trkpt lat="46.202781099999996" lon="11.278794416666665"><ele>760.0</ele><time>2026-05-01T10:21:00.83Z</time></trkpt><trkpt lat="46.202638416666666" lon="11.278654316666666"><ele>760.0</ele><time>2026-05-01T10:21:01.834Z</time></trkpt><trkpt lat="46.202528283333336" lon="11.27848755"><ele>760.0</ele><time>2026-05-01T10:21:02.846Z</time></trkpt><trkpt lat="46.20244791666668" lon="11.278290933333336"><ele>760.0</ele><time>2026-05-01T10:21:03.852Z</time></trkpt><trkpt lat="46.20237866666666" lon="11.2780744"><ele>760.0</ele><time>2026-05-01T10:21:04.829Z</time></trkpt><trkpt lat="46.20230768333332" lon="11.277854266666669"><ele>762.3333333333334</ele><time>2026-05-01T10:21:05.857Z</time></trkpt><trkpt lat="46.20223656666667" lon="11.277626033333334"><ele>764.6666666666666</ele><time>2026-05-01T10:21:06.851Z</time></trkpt><trkpt lat="46.20216716666667" lon="11.277393066666665"><ele>767.0</ele><time>2026-05-01T10:21:07.831Z</time></trkpt><trkpt lat="46.2020972" lon="11.277162666666667"><ele>767.0</ele><time>2026-05-01T10:21:08.852Z</time></trkpt><trkpt lat="46.20201399999999" lon="11.276947766666668"><ele>767.0</ele><time>2026-05-01T10:21:09.851Z</time></trkpt><trkpt lat="46.20190371666666" lon="11.276751083333332"><ele>767.0</ele><time>2026-05-01T10:21:10.831Z</time></trkpt><trkpt lat="46.201771133333324" lon="11.276567900000002"><ele>773.6666666666666</ele><time>2026-05-01T10:21:11.846Z</time></trkpt><trkpt lat="46.20163076666666" lon="11.276386283333332"><ele>780.3333333333333</ele><time>2026-05-01T10:21:12.85Z</time></trkpt><trkpt lat="46.20149741666667" lon="11.2762025"><ele>787.0</ele><time>2026-05-01T10:21:13.833Z</time></trkpt><trkpt lat="46.20137826666667" lon="11.276013833333332"><ele>787.0</ele><time>2026-05-01T10:21:14.849Z</time></trkpt><trkpt lat="46.20127211666666" lon="11.275806316666667"><ele>787.0</ele><time>2026-05-01T10:21:15.831Z</time></trkpt><trkpt lat="46.201200972772774" lon="11.275579248818069"><ele>787.0</ele><time>2026-05-01T10:21:16.831Z</time></trkpt><trkpt lat="46.20112489462558" lon="11.275372908984668"><ele>775.3333333333333</ele><time>2026-05-01T10:21:17.852Z</time></trkpt><trkpt lat="46.20103883878838" lon="11.275180826862487"><ele>763.6666666666666</ele><time>2026-05-01T10:21:18.852Z</time></trkpt><trkpt lat="46.20092457210278" lon="11.275015063875811"><ele>752.0</ele><time>2026-05-01T10:21:19.831Z</time></trkpt><trkpt lat="46.200786721053156" lon="11.2748822722155"><ele>753.3333333333333</ele><time>2026-05-01T10:21:20.847Z</time></trkpt><trkpt lat="46.20062554999999" lon="11.274806083333333"><ele>754.6666666666666</ele><time>2026-05-01T10:21:21.851Z</time></trkpt><trkpt lat="46.200468016666676" lon="11.274706883333332"><ele>756.0</ele><time>2026-05-01T10:21:22.845Z</time></trkpt><trkpt lat="46.20031136666666" lon="11.274618183333333"><ele>756.0</ele><time>2026-05-01T10:21:23.831Z</time></trkpt><trkpt lat="46.200163316666675" lon="11.274537316666665"><ele>756.0</ele><time>2026-05-01T10:21:24.851Z</time></trkpt><trkpt lat="46.20002344999999" lon="11.274460433333335"><ele>756.0</ele><time>2026-05-01T10:21:25.83Z</time></trkpt><trkpt lat="46.19988598333333" lon="11.274388433333336"><ele>768.5</ele><time>2026-05-01T10:21:26.847Z</time></trkpt><trkpt lat="46.19975171666667" lon="11.274317483333332"><ele>781.0</ele><time>2026-05-01T10:21:27.864Z</time></trkpt><trkpt lat="46.199627383333336" lon="11.274241199999999"><ele>793.5</ele><time>2026-05-01T10:21:28.835Z</time></trkpt><trkpt lat="46.19951588333334" lon="11.274139366666668"><ele>806.0</ele><time>2026-05-01T10:21:29.849Z</time></trkpt><trkpt lat="46.19943521927546" lon="11.273978864279803"><ele>804.25</ele><time>2026-05-01T10:21:30.831Z</time></trkpt><trkpt lat="46.19935685000001" lon="11.273811966666665"><ele>802.5</ele><time>2026-05-01T10:21:31.844Z</time></trkpt><trkpt lat="46.19933590000001" lon="11.273612800000002"><ele>800.75</ele><time>2026-05-01T10:21:32.853Z</time></trkpt><trkpt lat="46.199370017762035" lon="11.27341775850347"><ele>799.0</ele><time>2026-05-01T10:21:33.852Z</time></trkpt><trkpt lat="46.199421253176716" lon="11.273222863148053"><ele>802.6666666666666</ele><time>2026-05-01T10:21:34.84Z</time></trkpt><trkpt lat="46.19947817276112" lon="11.27302285942129"><ele>806.3333333333333</ele><time>2026-05-01T10:21:35.846Z</time></trkpt><trkpt lat="46.19953744802651" lon="11.27282153071782"><ele>810.0</ele><time>2026-05-01T10:21:36.839Z</time></trkpt><trkpt lat="46.199601018669206" lon="11.272608398586529"><ele>810.0</ele><time>2026-05-01T10:21:37.847Z</time></trkpt><trkpt lat="46.199665485680946" lon="11.272392261059347"><ele>810.0</ele><time>2026-05-01T10:21:38.846Z</time></trkpt><trkpt lat="46.199722734478094" lon="11.27218126824342"><ele>810.0</ele><time>2026-05-01T10:21:39.854Z</time></trkpt><trkpt lat="46.199742971441225" lon="11.271987706063337"><ele>809.0</ele><time>2026-05-01T10:21:40.837Z</time></trkpt><trkpt lat="46.19974038865057" lon="11.271794377893478"><ele>808.0</ele><time>2026-05-01T10:21:41.833Z</time></trkpt><trkpt lat="46.19971672508489" lon="11.271587032633544"><ele>807.0</ele><time>2026-05-01T10:21:42.85Z</time></trkpt><trkpt lat="46.199691052520485" lon="11.271375116731889"><ele>806.0</ele><time>2026-05-01T10:21:43.833Z</time></trkpt><trkpt lat="46.199663759036184" lon="11.271152308066018"><ele>802.3333333333334</ele><time>2026-05-01T10:21:44.859Z</time></trkpt><trkpt lat="46.19963577729364" lon="11.270922902999835"><ele>798.6666666666667</ele><time>2026-05-01T10:21:45.834Z</time></trkpt><trkpt lat="46.19960761342668" lon="11.270688069356382"><ele>795.0</ele><time>2026-05-01T10:21:46.845Z</time></trkpt><trkpt lat="46.19957863063757" lon="11.270450878926361"><ele>791.0</ele><time>2026-05-01T10:21:47.846Z</time></trkpt><trkpt lat="46.19954859028513" lon="11.270212010517216"><ele>787.0</ele><time>2026-05-01T10:21:48.852Z</time></trkpt><trkpt lat="46.19951923318672" lon="11.269968951004946"><ele>783.0</ele><time>2026-05-01T10:21:49.845Z</time></trkpt><trkpt lat="46.19948959127796" lon="11.269725620173926"><ele>780.0</ele><time>2026-05-01T10:21:50.848Z</time></trkpt><trkpt lat="46.199460865008334" lon="11.26948980581615"><ele>777.0</ele><time>2026-05-01T10:21:51.852Z</time></trkpt><trkpt lat="46.199426226992045" lon="11.269250490234455"><ele>774.0</ele><time>2026-05-01T10:21:52.832Z</time></trkpt><trkpt lat="46.199358263107186" lon="11.269008423294062"><ele>766.3333333333334</ele><time>2026-05-01T10:21:53.85Z</time></trkpt><trkpt lat="46.199270000617666" lon="11.268777228624446"><ele>758.6666666666667</ele><time>2026-05-01T10:21:54.831Z</time></trkpt><trkpt lat="46.1991824845026" lon="11.268550045594539"><ele>751.0</ele><time>2026-05-01T10:21:55.842Z</time></trkpt><trkpt lat="46.199099385644914" lon="11.268335262085017"><ele>751.0</ele><time>2026-05-01T10:21:56.846Z</time></trkpt><trkpt lat="46.19902024493623" lon="11.268130517731906"><ele>751.0</ele><time>2026-05-01T10:21:57.831Z</time></trkpt><trkpt lat="46.198940487418916" lon="11.267920059856106"><ele>751.0</ele><time>2026-05-01T10:21:58.831Z</time></trkpt><trkpt lat="46.1988526837121" lon="11.267693195338447"><ele>760.6666666666667</ele><time>2026-05-01T10:21:59.877Z</time></trkpt><trkpt lat="46.198763936326586" lon="11.26745623044381"><ele>770.3333333333334</ele><time>2026-05-01T10:22:00.851Z</time></trkpt><trkpt lat="46.19868304494478" lon="11.267198744442045"><ele>780.0</ele><time>2026-05-01T10:22:01.831Z</time></trkpt><trkpt lat="46.19862167642905" lon="11.266916750091273"><ele>780.0</ele><time>2026-05-01T10:22:02.846Z</time></trkpt><trkpt lat="46.19856683333334" lon="11.266626483333335"><ele>780.0</ele><time>2026-05-01T10:22:03.834Z</time></trkpt><trkpt lat="46.19854958333334" lon="11.266329583333334"><ele>780.0</ele><time>2026-05-01T10:22:04.842Z</time></trkpt><trkpt lat="46.19854971666667" lon="11.26603635"><ele>780.0</ele><time>2026-05-01T10:22:05.846Z</time></trkpt><trkpt lat="46.1985857014549" lon="11.265753986723121"><ele>780.0</ele><time>2026-05-01T10:22:06.852Z</time></trkpt><trkpt lat="46.198610373390345" lon="11.265488585234264"><ele>780.0</ele><time>2026-05-01T10:22:07.831Z</time></trkpt><trkpt lat="46.19861226666667" lon="11.265230183333331"><ele>780.0</ele><time>2026-05-01T10:22:08.855Z</time></trkpt><trkpt lat="46.198638233333334" lon="11.264978483333334"><ele>780.0</ele><time>2026-05-01T10:22:09.857Z</time></trkpt><trkpt lat="46.19866496666667" lon="11.264730083333333"><ele>780.0</ele><time>2026-05-01T10:22:10.832Z</time></trkpt><trkpt lat="46.19868880000001" lon="11.264482766666667"><ele>782.3333333333333</ele><time>2026-05-01T10:22:11.846Z</time></trkpt><trkpt lat="46.198736494871035" lon="11.264248027735295"><ele>784.6666666666666</ele><time>2026-05-01T10:22:12.851Z</time></trkpt><trkpt lat="46.19874804999999" lon="11.264018333333336"><ele>787.0</ele><time>2026-05-01T10:22:13.844Z</time></trkpt><trkpt lat="46.1988019" lon="11.26379885"><ele>789.6666666666666</ele><time>2026-05-01T10:22:14.849Z</time></trkpt><trkpt lat="46.19888728333334" lon="11.263587900000001"><ele>792.3333333333333</ele><time>2026-05-01T10:22:15.852Z</time></trkpt><trkpt lat="46.198989233333336" lon="11.2633898"><ele>795.0</ele><time>2026-05-01T10:22:16.842Z</time></trkpt><trkpt lat="46.19909053333334" lon="11.263199083333332"><ele>786.0</ele><time>2026-05-01T10:22:17.846Z</time></trkpt><trkpt lat="46.19918361666667" lon="11.263006600000002"><ele>777.0</ele><time>2026-05-01T10:22:18.831Z</time></trkpt><trkpt lat="46.19927757794006" lon="11.262803540733902"><ele>768.0</ele><time>2026-05-01T10:22:19.833Z</time></trkpt><trkpt lat="46.19933135156789" lon="11.262565075304654"><ele>768.0</ele><time>2026-05-01T10:22:20.846Z</time></trkpt><trkpt lat="46.19933605" lon="11.262302616666666"><ele>768.0</ele><time>2026-05-01T10:22:21.83Z</time></trkpt><trkpt lat="46.19934408333334" lon="11.262025683333333"><ele>768.0</ele><time>2026-05-01T10:22:22.844Z</time></trkpt><trkpt lat="46.19934753333333" lon="11.261733166666666"><ele>769.0</ele><time>2026-05-01T10:22:23.847Z</time></trkpt><trkpt lat="46.19935085000001" lon="11.261436416666667"><ele>770.0</ele><time>2026-05-01T10:22:24.854Z</time></trkpt><trkpt lat="46.19935621666667" lon="11.261136016666669"><ele>771.0</ele><time>2026-05-01T10:22:25.831Z</time></trkpt><trkpt lat="46.199363383333335" lon="11.260850483333334"><ele>770.6666666666667</ele><time>2026-05-01T10:22:26.847Z</time></trkpt><trkpt lat="46.19937313333333" lon="11.260584966666665"><ele>770.3333333333334</ele><time>2026-05-01T10:22:27.83Z</time></trkpt><trkpt lat="46.19938665" lon="11.260332883333334"><ele>770.0</ele><time>2026-05-01T10:22:28.834Z</time></trkpt><trkpt lat="46.19939696666667" lon="11.260097599999998"><ele>770.0</ele><time>2026-05-01T10:22:29.849Z</time></trkpt><trkpt lat="46.199404799999996" lon="11.259873183333331"><ele>770.0</ele><time>2026-05-01T10:22:30.834Z</time></trkpt><trkpt lat="46.19941033333333" lon="11.259655283333332"><ele>770.0</ele><time>2026-05-01T10:22:31.835Z</time></trkpt><trkpt lat="46.19941211666666" lon="11.25943413333333"><ele>765.3333333333334</ele><time>2026-05-01T10:22:32.846Z</time></trkpt><trkpt lat="46.19939418333333" lon="11.259208633333332"><ele>760.6666666666667</ele><time>2026-05-01T10:22:33.856Z</time></trkpt><trkpt lat="46.199335299999994" lon="11.258989366666666"><ele>756.0</ele><time>2026-05-01T10:22:34.829Z</time></trkpt><trkpt lat="46.19924045" lon="11.258791016666665"><ele>749.6666666666666</ele><time>2026-05-01T10:22:35.831Z</time></trkpt><trkpt lat="46.199114849999994" lon="11.258626150000001"><ele>743.3333333333333</ele><time>2026-05-01T10:22:36.852Z</time></trkpt><trkpt lat="46.198955766666664" lon="11.258499883333332"><ele>737.0</ele><time>2026-05-01T10:22:37.839Z</time></trkpt><trkpt lat="46.19877963333333" lon="11.25842345"><ele>737.0</ele><time>2026-05-01T10:22:38.85Z</time></trkpt><trkpt lat="46.19859168333334" lon="11.258383083333335"><ele>737.0</ele><time>2026-05-01T10:22:39.855Z</time></trkpt><trkpt lat="46.198407499999995" lon="11.258363033333335"><ele>737.0</ele><time>2026-05-01T10:22:40.832Z</time></trkpt><trkpt lat="46.19822711666668" lon="11.258345516666669"><ele>738.0</ele><time>2026-05-01T10:22:41.847Z</time></trkpt><trkpt lat="46.19804394999999" lon="11.258327966666664"><ele>739.0</ele><time>2026-05-01T10:22:42.851Z</time></trkpt><trkpt lat="46.19785811666668" lon="11.258330783333335"><ele>740.0</ele><time>2026-05-01T10:22:43.831Z</time></trkpt><trkpt lat="46.197676449999996" lon="11.258363466666665"><ele>740.0</ele><time>2026-05-01T10:22:44.855Z</time></trkpt><trkpt lat="46.19749006880123" lon="11.258374894763332"><ele>740.0</ele><time>2026-05-01T10:22:45.852Z</time></trkpt><trkpt lat="46.197296816666665" lon="11.25842266666667"><ele>740.0</ele><time>2026-05-01T10:22:46.835Z</time></trkpt><trkpt lat="46.19709966666666" lon="11.258450266666667"><ele>738.0</ele><time>2026-05-01T10:22:47.848Z</time></trkpt><trkpt lat="46.1969007" lon="11.258483033333334"><ele>736.0</ele><time>2026-05-01T10:22:48.853Z</time></trkpt><trkpt lat="46.19670251666667" lon="11.25851565"><ele>734.0</ele><time>2026-05-01T10:22:49.829Z</time></trkpt><trkpt lat="46.19651210000001" lon="11.258547833333333"><ele>732.0</ele><time>2026-05-01T10:22:50.848Z</time></trkpt><trkpt lat="46.1963268" lon="11.258577883333333"><ele>730.0</ele><time>2026-05-01T10:22:51.831Z</time></trkpt><trkpt lat="46.196144000000004" lon="11.258611216666669"><ele>728.0</ele><time>2026-05-01T10:22:52.831Z</time></trkpt><trkpt lat="46.1959613" lon="11.258644716666666"><ele>728.0</ele><time>2026-05-01T10:22:53.853Z</time></trkpt><trkpt lat="46.19577716666666" lon="11.25868095"><ele>728.0</ele><time>2026-05-01T10:22:54.855Z</time></trkpt><trkpt lat="46.195592983333334" lon="11.258711683333335"><ele>728.0</ele><time>2026-05-01T10:22:55.835Z</time></trkpt><trkpt lat="46.19540853333333" lon="11.258733516666666"><ele>724.6666666666666</ele><time>2026-05-01T10:22:56.847Z</time></trkpt><trkpt lat="46.19522461666667" lon="11.258744866666667"><ele>721.3333333333334</ele><time>2026-05-01T10:22:57.852Z</time></trkpt><trkpt lat="46.19504501666667" lon="11.258755816666667"><ele>718.0</ele><time>2026-05-01T10:22:58.846Z</time></trkpt><trkpt lat="46.194864666666675" lon="11.258766033333332"><ele>714.3333333333334</ele><time>2026-05-01T10:22:59.849Z</time></trkpt><trkpt lat="46.194680299999995" lon="11.2587787"><ele>710.6666666666666</ele><time>2026-05-01T10:23:00.832Z</time></trkpt><trkpt lat="46.19449923333334" lon="11.258792383333331"><ele>707.0</ele><time>2026-05-01T10:23:01.832Z</time></trkpt><trkpt lat="46.194328083333325" lon="11.2588048"><ele>707.0</ele><time>2026-05-01T10:23:02.847Z</time></trkpt><trkpt lat="46.19416023333333" lon="11.258814683333332"><ele>707.0</ele><time>2026-05-01T10:23:03.865Z</time></trkpt><trkpt lat="46.19399953333333" lon="11.258828733333333"><ele>707.0</ele><time>2026-05-01T10:23:04.838Z</time></trkpt><trkpt lat="46.19385135000001" lon="11.25886555"><ele>707.75</ele><time>2026-05-01T10:23:05.847Z</time></trkpt><trkpt lat="46.193718116666666" lon="11.258945033333335"><ele>708.5</ele><time>2026-05-01T10:23:06.853Z</time></trkpt><trkpt lat="46.193600716666666" lon="11.25906976666667"><ele>709.25</ele><time>2026-05-01T10:23:07.847Z</time></trkpt><trkpt lat="46.19350118333333" lon="11.259231966666668"><ele>710.0</ele><time>2026-05-01T10:23:08.849Z</time></trkpt><trkpt lat="46.1934317" lon="11.25941755"><ele>710.0</ele><time>2026-05-01T10:23:09.854Z</time></trkpt><trkpt lat="46.193388850000005" lon="11.259613866666665"><ele>710.0</ele><time>2026-05-01T10:23:10.835Z</time></trkpt><trkpt lat="46.1933482" lon="11.259806983333332"><ele>710.0</ele><time>2026-05-01T10:23:11.85Z</time></trkpt><trkpt lat="46.19329143333333" lon="11.259983416666667"><ele>710.0</ele><time>2026-05-01T10:23:12.84Z</time></trkpt><trkpt lat="46.19320999999999" lon="11.2601343"><ele>708.0</ele><time>2026-05-01T10:23:13.856Z</time></trkpt><trkpt lat="46.19310335" lon="11.260254049999999"><ele>706.0</ele><time>2026-05-01T10:23:14.851Z</time></trkpt><trkpt lat="46.19296994999999" lon="11.260332466666668"><ele>704.0</ele><time>2026-05-01T10:23:15.851Z</time></trkpt><trkpt lat="46.19282738333333" lon="11.26035841666667"><ele>702.0</ele><time>2026-05-01T10:23:16.837Z</time></trkpt><trkpt lat="46.19268740000001" lon="11.260327116666668"><ele>702.0</ele><time>2026-05-01T10:23:17.847Z</time></trkpt><trkpt lat="46.192551266666676" lon="11.260254816666668"><ele>702.0</ele><time>2026-05-01T10:23:18.853Z</time></trkpt><trkpt lat="46.19241628333333" lon="11.260153733333334"><ele>702.0</ele><time>2026-05-01T10:23:19.834Z</time></trkpt><trkpt lat="46.1922858" lon="11.260045716666665"><ele>702.0</ele><time>2026-05-01T10:23:20.847Z</time></trkpt><trkpt lat="46.192162666666675" lon="11.259942583333334"><ele>701.0</ele><time>2026-05-01T10:23:21.835Z</time></trkpt><trkpt lat="46.19204525" lon="11.259835800000001"><ele>700.0</ele><time>2026-05-01T10:23:22.835Z</time></trkpt><trkpt lat="46.19194113333333" lon="11.259708250000001"><ele>699.0</ele><time>2026-05-01T10:23:23.846Z</time></trkpt><trkpt lat="46.19185385000001" lon="11.259559333333334"><ele>698.0</ele><time>2026-05-01T10:23:24.832Z</time></trkpt><trkpt lat="46.191777733333325" lon="11.259397249999997"><ele>698.0</ele><time>2026-05-01T10:23:25.844Z</time></trkpt><trkpt lat="46.1917051" lon="11.2592375"><ele>698.0</ele><time>2026-05-01T10:23:26.847Z</time></trkpt><trkpt lat="46.191631599999994" lon="11.259075583333333"><ele>698.0</ele><time>2026-05-01T10:23:27.83Z</time></trkpt><trkpt lat="46.19154268333333" lon="11.258923966666668"><ele>698.0</ele><time>2026-05-01T10:23:28.843Z</time></trkpt><trkpt lat="46.19143340000001" lon="11.258789750000002"><ele>693.0</ele><time>2026-05-01T10:23:29.846Z</time></trkpt><trkpt lat="46.19129871666667" lon="11.258685400000001"><ele>688.0</ele><time>2026-05-01T10:23:30.829Z</time></trkpt><trkpt lat="46.19114245000001" lon="11.258620599999999"><ele>683.0</ele><time>2026-05-01T10:23:31.832Z</time></trkpt><trkpt lat="46.19096751666666" lon="11.258582516666667"><ele>683.0</ele><time>2026-05-01T10:23:32.853Z</time></trkpt><trkpt lat="46.190787433333334" lon="11.258551"><ele>683.0</ele><time>2026-05-01T10:23:33.851Z</time></trkpt><trkpt lat="46.190614783333324" lon="11.258517600000001"><ele>683.0</ele><time>2026-05-01T10:23:34.832Z</time></trkpt><trkpt lat="46.19045156666666" lon="11.258487883333332"><ele>683.0</ele><time>2026-05-01T10:23:35.849Z</time></trkpt><trkpt lat="46.19029170000001" lon="11.258462183333332"><ele>683.0</ele><time>2026-05-01T10:23:36.854Z</time></trkpt><trkpt lat="46.19013708333333" lon="11.258433649999999"><ele>683.0</ele><time>2026-05-01T10:23:37.842Z</time></trkpt><trkpt lat="46.18998756666666" lon="11.258405366666667"><ele>683.0</ele><time>2026-05-01T10:23:38.833Z</time></trkpt><trkpt lat="46.189842600000006" lon="11.258376400000001"><ele>683.0</ele><time>2026-05-01T10:23:39.834Z</time></trkpt><trkpt lat="46.1897035" lon="11.258347416666666"><ele>683.0</ele><time>2026-05-01T10:23:40.832Z</time></trkpt><trkpt lat="46.18956975" lon="11.258319466666668"><ele>683.0</ele><time>2026-05-01T10:23:41.854Z</time></trkpt><trkpt lat="46.18943723333334" lon="11.258294866666665"><ele>681.75</ele><time>2026-05-01T10:23:42.832Z</time></trkpt><trkpt lat="46.18930105" lon="11.258274749999998"><ele>680.5</ele><time>2026-05-01T10:23:43.832Z</time></trkpt><trkpt lat="46.18915748333334" lon="11.258274833333333"><ele>679.25</ele><time>2026-05-01T10:23:44.856Z</time></trkpt><trkpt lat="46.18900806666667" lon="11.258321916666667"><ele>678.0</ele><time>2026-05-01T10:23:45.852Z</time></trkpt><trkpt lat="46.18886223333334" lon="11.258424716666664"><ele>674.3333333333334</ele><time>2026-05-01T10:23:46.835Z</time></trkpt><trkpt lat="46.18872581666666" lon="11.258566033333333"><ele>670.6666666666667</ele><time>2026-05-01T10:23:47.846Z</time></trkpt><trkpt lat="46.188596116666666" lon="11.25869845"><ele>667.0</ele><time>2026-05-01T10:23:48.832Z</time></trkpt><trkpt lat="46.188461733333334" lon="11.258800599999999"><ele>667.0</ele><time>2026-05-01T10:23:49.838Z</time></trkpt><trkpt lat="46.18832483333334" lon="11.258872233333333"><ele>667.0</ele><time>2026-05-01T10:23:50.853Z</time></trkpt><trkpt lat="46.18818756666667" lon="11.258902766666665"><ele>667.0</ele><time>2026-05-01T10:23:51.829Z</time></trkpt><trkpt lat="46.188053800000006" lon="11.258884"><ele>667.0</ele><time>2026-05-01T10:23:52.853Z</time></trkpt><trkpt lat="46.18793061666667" lon="11.258818616666668"><ele>666.4000000000001</ele><time>2026-05-01T10:23:53.849Z</time></trkpt><trkpt lat="46.1878292" lon="11.258714816666668"><ele>665.8000000000001</ele><time>2026-05-01T10:23:54.829Z</time></trkpt><trkpt lat="46.18774488333334" lon="11.258604649999999"><ele>665.2</ele><time>2026-05-01T10:23:55.841Z</time></trkpt><trkpt lat="46.18766831666667" lon="11.258512466666664"><ele>664.6</ele><time>2026-05-01T10:23:56.85Z</time></trkpt><trkpt lat="46.187591216666675" lon="11.258445533333335"><ele>664.0</ele><time>2026-05-01T10:23:57.833Z</time></trkpt><trkpt lat="46.18750517355087" lon="11.25837015418127"><ele>664.0</ele><time>2026-05-01T10:23:58.832Z</time></trkpt><trkpt lat="46.18738671479557" lon="11.258325360047966"><ele>664.0</ele><time>2026-05-01T10:23:59.847Z</time></trkpt><trkpt lat="46.187244516666674" lon="11.258300433333334"><ele>664.0</ele><time>2026-05-01T10:24:00.832Z</time></trkpt><trkpt lat="46.18708158333334" lon="11.258250166666668"><ele>664.0</ele><time>2026-05-01T10:24:01.832Z</time></trkpt><trkpt lat="46.18691068333333" lon="11.258198550000001"><ele>665.5</ele><time>2026-05-01T10:24:02.847Z</time></trkpt><trkpt lat="46.1867581" lon="11.258134733333334"><ele>667.0</ele><time>2026-05-01T10:24:03.852Z</time></trkpt><trkpt lat="46.18663038333334" lon="11.25804155"><ele>668.5</ele><time>2026-05-01T10:24:04.843Z</time></trkpt><trkpt lat="46.186529699999994" lon="11.257913016666663"><ele>670.0</ele><time>2026-05-01T10:24:05.847Z</time></trkpt><trkpt lat="46.18645063333333" lon="11.25775763333333"><ele>670.0</ele><time>2026-05-01T10:24:06.834Z</time></trkpt><trkpt lat="46.186364816666675" lon="11.257593983333335"><ele>670.0</ele><time>2026-05-01T10:24:07.832Z</time></trkpt><trkpt lat="46.18628077908973" lon="11.257421498396509"><ele>670.0</ele><time>2026-05-01T10:24:08.831Z</time></trkpt><trkpt lat="46.186156691574986" lon="11.25729400321491"><ele>670.0</ele><time>2026-05-01T10:24:09.832Z</time></trkpt><trkpt lat="46.18600159999999" lon="11.257229783333333"><ele>663.3333333333334</ele><time>2026-05-01T10:24:10.832Z</time></trkpt><trkpt lat="46.18585191666666" lon="11.257120200000001"><ele>656.6666666666666</ele><time>2026-05-01T10:24:11.832Z</time></trkpt><trkpt lat="46.185707666666666" lon="11.256987683333335"><ele>650.0</ele><time>2026-05-01T10:24:12.852Z</time></trkpt><trkpt lat="46.18557063333333" lon="11.256852416666668"><ele>650.0</ele><time>2026-05-01T10:24:13.836Z</time></trkpt><trkpt lat="46.18543981666667" lon="11.256723716666666"><ele>650.0</ele><time>2026-05-01T10:24:14.851Z</time></trkpt><trkpt lat="46.18531465780135" lon="11.256593600459743"><ele>650.0</ele><time>2026-05-01T10:24:15.832Z</time></trkpt><trkpt lat="46.18516766737646" lon="11.256543155785511"><ele>650.0</ele><time>2026-05-01T10:24:16.832Z</time></trkpt><trkpt lat="46.18501907426458" lon="11.25655759166883"><ele>650.0</ele><time>2026-05-01T10:24:17.846Z</time></trkpt><trkpt lat="46.184867649999994" lon="11.256634516666669"><ele>650.0</ele><time>2026-05-01T10:24:18.852Z</time></trkpt><trkpt lat="46.184720266666666" lon="11.256699866666668"><ele>647.0</ele><time>2026-05-01T10:24:19.83Z</time></trkpt><trkpt lat="46.18457941666667" lon="11.256766"><ele>644.0</ele><time>2026-05-01T10:24:20.854Z</time></trkpt><trkpt lat="46.18444625000001" lon="11.256829100000001"><ele>641.0</ele><time>2026-05-01T10:24:21.852Z</time></trkpt><trkpt lat="46.18431569999999" lon="11.256898416666669"><ele>638.0</ele><time>2026-05-01T10:24:22.832Z</time></trkpt><trkpt lat="46.184188250000005" lon="11.257001216666668"><ele>638.0</ele><time>2026-05-01T10:24:23.847Z</time></trkpt><trkpt lat="46.184081083333325" lon="11.257149483333334"><ele>638.0</ele><time>2026-05-01T10:24:24.832Z</time></trkpt><trkpt lat="46.18400348333333" lon="11.2573279"><ele>638.0</ele><time>2026-05-01T10:24:25.831Z</time></trkpt><trkpt lat="46.18395936666668" lon="11.257512750000002"><ele>638.0</ele><time>2026-05-01T10:24:26.85Z</time></trkpt><trkpt lat="46.18393558333334" lon="11.257697983333331"><ele>634.5</ele><time>2026-05-01T10:24:27.853Z</time></trkpt><trkpt lat="46.18390670000001" lon="11.2578736"><ele>631.0</ele><time>2026-05-01T10:24:28.841Z</time></trkpt><trkpt lat="46.183852849999994" lon="11.25803185"><ele>627.5</ele><time>2026-05-01T10:24:29.856Z</time></trkpt><trkpt lat="46.18376923333334" lon="11.258153033333334"><ele>624.0</ele><time>2026-05-01T10:24:30.852Z</time></trkpt><trkpt lat="46.183666300000006" lon="11.258234533333333"><ele>624.0</ele><time>2026-05-01T10:24:31.836Z</time></trkpt><trkpt lat="46.18355710000001" lon="11.258303416666669"><ele>624.0</ele><time>2026-05-01T10:24:32.847Z</time></trkpt><trkpt lat="46.183448500000004" lon="11.258390999999998"><ele>624.0</ele><time>2026-05-01T10:24:33.852Z</time></trkpt><trkpt lat="46.18335520000001" lon="11.258511616666667"><ele>624.0</ele><time>2026-05-01T10:24:34.834Z</time></trkpt><trkpt lat="46.1832856" lon="11.258675349999999"><ele>624.0</ele><time>2026-05-01T10:24:35.83Z</time></trkpt><trkpt lat="46.183245383333336" lon="11.258873549999997"><ele>624.0</ele><time>2026-05-01T10:24:36.851Z</time></trkpt><trkpt lat="46.18323041666666" lon="11.259083316666667"><ele>624.0</ele><time>2026-05-01T10:24:37.832Z</time></trkpt><trkpt lat="46.183226016666666" lon="11.259298633333332"><ele>624.0</ele><time>2026-05-01T10:24:38.847Z</time></trkpt><trkpt lat="46.183219433333335" lon="11.25950945"><ele>624.75</ele><time>2026-05-01T10:24:39.831Z</time></trkpt><trkpt lat="46.18321008333334" lon="11.259712316666667"><ele>625.5</ele><time>2026-05-01T10:24:40.832Z</time></trkpt><trkpt lat="46.18320031666667" lon="11.259912916666668"><ele>626.25</ele><time>2026-05-01T10:24:41.848Z</time></trkpt><trkpt lat="46.183190066666675" lon="11.260106166666667"><ele>627.0</ele><time>2026-05-01T10:24:42.831Z</time></trkpt><trkpt lat="46.1831823" lon="11.260294766666668"><ele>627.0</ele><time>2026-05-01T10:24:43.846Z</time></trkpt><trkpt lat="46.183178100000006" lon="11.260477533333336"><ele>627.0</ele><time>2026-05-01T10:24:44.85Z</time></trkpt><trkpt lat="46.18318173333334" lon="11.260654216666667"><ele>627.0</ele><time>2026-05-01T10:24:45.832Z</time></trkpt><trkpt lat="46.18319695" lon="11.260825666666664"><ele>627.0</ele><time>2026-05-01T10:24:46.832Z</time></trkpt><trkpt lat="46.183213333333335" lon="11.260992616666666"><ele>627.0</ele><time>2026-05-01T10:24:47.847Z</time></trkpt><trkpt lat="46.183213099999996" lon="11.261158966666668"><ele>627.0</ele><time>2026-05-01T10:24:48.84Z</time></trkpt><trkpt lat="46.18318226666667" lon="11.2613261"><ele>627.0</ele><time>2026-05-01T10:24:49.834Z</time></trkpt><trkpt lat="46.18312058333333" lon="11.261481033333334"><ele>627.0</ele><time>2026-05-01T10:24:50.847Z</time></trkpt><trkpt lat="46.18303498333333" lon="11.261614650000002"><ele>620.5</ele><time>2026-05-01T10:24:51.852Z</time></trkpt><trkpt lat="46.18293216666666" lon="11.261715866666668"><ele>614.0</ele><time>2026-05-01T10:24:52.835Z</time></trkpt><trkpt lat="46.182822333333334" lon="11.261778350000002"><ele>607.5</ele><time>2026-05-01T10:24:53.847Z</time></trkpt><trkpt lat="46.18270893333334" lon="11.2618167"><ele>601.0</ele><time>2026-05-01T10:24:54.831Z</time></trkpt><trkpt lat="46.182591316666674" lon="11.261851850000001"><ele>601.0</ele><time>2026-05-01T10:24:55.833Z</time></trkpt><trkpt lat="46.18247565" lon="11.261894133333332"><ele>601.0</ele><time>2026-05-01T10:24:56.85Z</time></trkpt><trkpt lat="46.18236685" lon="11.261952733333333"><ele>601.0</ele><time>2026-05-01T10:24:57.835Z</time></trkpt><trkpt lat="46.182269399999996" lon="11.262029949999999"><ele>601.0</ele><time>2026-05-01T10:24:58.832Z</time></trkpt><trkpt lat="46.18219043333333" lon="11.262127749999998"><ele>600.2</ele><time>2026-05-01T10:24:59.85Z</time></trkpt><trkpt lat="46.18212786666667" lon="11.262243300000002"><ele>599.4000000000001</ele><time>2026-05-01T10:25:00.852Z</time></trkpt><trkpt lat="46.18207784999999" lon="11.26237785"><ele>598.6</ele><time>2026-05-01T10:25:01.844Z</time></trkpt><trkpt lat="46.18203319999999" lon="11.262524133333335"><ele>597.8000000000001</ele><time>2026-05-01T10:25:02.849Z</time></trkpt><trkpt lat="46.18198433333334" lon="11.262677266666667"><ele>597.0</ele><time>2026-05-01T10:25:03.852Z</time></trkpt><trkpt lat="46.181932483333334" lon="11.26283075"><ele>597.0</ele><time>2026-05-01T10:25:04.83Z</time></trkpt><trkpt lat="46.18187983333333" lon="11.262980216666664"><ele>597.0</ele><time>2026-05-01T10:25:05.847Z</time></trkpt><trkpt lat="46.18182660000001" lon="11.263120283333333"><ele>597.0</ele><time>2026-05-01T10:25:06.832Z</time></trkpt><trkpt lat="46.18176533333334" lon="11.2632504"><ele>597.0</ele><time>2026-05-01T10:25:07.833Z</time></trkpt><trkpt lat="46.18168646666666" lon="11.263364916666667"><ele>597.0</ele><time>2026-05-01T10:25:08.848Z</time></trkpt><trkpt lat="46.181588116666674" lon="11.2634624"><ele>597.25</ele><time>2026-05-01T10:25:09.832Z</time></trkpt><trkpt lat="46.1814728" lon="11.263532866666667"><ele>597.5</ele><time>2026-05-01T10:25:10.831Z</time></trkpt><trkpt lat="46.18134765" lon="11.2635746"><ele>597.75</ele><time>2026-05-01T10:25:11.85Z</time></trkpt><trkpt lat="46.181218599999994" lon="11.263585783333335"><ele>598.0</ele><time>2026-05-01T10:25:12.831Z</time></trkpt><trkpt lat="46.18109006666667" lon="11.263563199999998"><ele>598.0</ele><time>2026-05-01T10:25:13.833Z</time></trkpt><trkpt lat="46.18096623333333" lon="11.263514566666666"><ele>598.0</ele><time>2026-05-01T10:25:14.853Z</time></trkpt><trkpt lat="46.18085313333333" lon="11.263446"><ele>598.0</ele><time>2026-05-01T10:25:15.835Z</time></trkpt><trkpt lat="46.18075458432689" lon="11.263352326978852"><ele>598.0</ele><time>2026-05-01T10:25:16.835Z</time></trkpt><trkpt lat="46.18065530192015" lon="11.263284451417539"><ele>608.5999999999999</ele><time>2026-05-01T10:25:17.832Z</time></trkpt><trkpt lat="46.18057344418559" lon="11.263220796916881"><ele>619.1999999999999</ele><time>2026-05-01T10:25:18.853Z</time></trkpt><trkpt lat="46.18050301666668" lon="11.26314775"><ele>629.8</ele><time>2026-05-01T10:25:19.836Z</time></trkpt><trkpt lat="46.18046641666667" lon="11.263018283333334"><ele>640.4</ele><time>2026-05-01T10:25:20.856Z</time></trkpt><trkpt lat="46.18044208333335" lon="11.262878866666666"><ele>651.0</ele><time>2026-05-01T10:25:21.852Z</time></trkpt><trkpt lat="46.180428049999996" lon="11.262735666666668"><ele>652.0</ele><time>2026-05-01T10:25:22.85Z</time></trkpt><trkpt lat="46.180427449999996" lon="11.2625939"><ele>653.0</ele><time>2026-05-01T10:25:23.848Z</time></trkpt><trkpt lat="46.1804565247272" lon="11.262488649104965"><ele>654.0</ele><time>2026-05-01T10:25:24.855Z</time></trkpt><trkpt lat="46.18049186911607" lon="11.262331350994288"><ele>655.0</ele><time>2026-05-01T10:25:26.849Z</time></trkpt><trkpt lat="46.18050213333333" lon="11.262235266666668"><ele>656.0</ele><time>2026-05-01T10:25:27.846Z</time></trkpt><trkpt lat="46.180531083333335" lon="11.26213185"><ele>657.0</ele><time>2026-05-01T10:25:28.844Z</time></trkpt><trkpt lat="46.18057279323409" lon="11.262042827278204"><ele>661.0</ele><time>2026-05-01T10:25:29.853Z</time></trkpt><trkpt lat="46.180609800000006" lon="11.261883616666667"><ele>665.0</ele><time>2026-05-01T10:25:31.833Z</time></trkpt><trkpt lat="46.18066171666666" lon="11.261698216666666"><ele>669.0</ele><time>2026-05-01T10:25:33.834Z</time></trkpt><trkpt lat="46.18069643333334" lon="11.261562849999999"><ele>673.0</ele><time>2026-05-01T10:25:34.848Z</time></trkpt><trkpt lat="46.1807361" lon="11.261410866666665"><ele>663.4</ele><time>2026-05-01T10:25:35.848Z</time></trkpt><trkpt lat="46.18079329861967" lon="11.261268210844422"><ele>653.8</ele><time>2026-05-01T10:25:36.844Z</time></trkpt><trkpt lat="46.18082354999999" lon="11.261115483333334"><ele>644.2</ele><time>2026-05-01T10:25:37.837Z</time></trkpt><trkpt lat="46.180862399999995" lon="11.26098625"><ele>634.6</ele><time>2026-05-01T10:25:38.849Z</time></trkpt><trkpt lat="46.180893166666664" lon="11.260867050000002"><ele>625.0</ele><time>2026-05-01T10:25:39.855Z</time></trkpt><trkpt lat="46.18092506666667" lon="11.260749833333334"><ele>625.0</ele><time>2026-05-01T10:25:40.835Z</time></trkpt><trkpt lat="46.180977139487965" lon="11.260625285101387"><ele>625.0</ele><time>2026-05-01T10:25:41.832Z</time></trkpt><trkpt lat="46.180992310250915" lon="11.26046714079692"><ele>625.0</ele><time>2026-05-01T10:25:42.835Z</time></trkpt><trkpt lat="46.18098758845124" lon="11.260288410573658"><ele>625.0</ele><time>2026-05-01T10:25:43.857Z</time></trkpt><trkpt lat="46.1809535096791" lon="11.260104147027878"><ele>624.0</ele><time>2026-05-01T10:25:44.85Z</time></trkpt><trkpt lat="46.180885913888034" lon="11.259923973270523"><ele>623.0</ele><time>2026-05-01T10:25:45.843Z</time></trkpt><trkpt lat="46.180775372499234" lon="11.259755458648778"><ele>622.0</ele><time>2026-05-01T10:25:46.831Z</time></trkpt><trkpt lat="46.18064508084631" lon="11.25957103615622"><ele>628.6666666666667</ele><time>2026-05-01T10:25:47.83Z</time></trkpt><trkpt lat="46.18052399353401" lon="11.259323494483825"><ele>635.3333333333334</ele><time>2026-05-01T10:25:48.853Z</time></trkpt><trkpt lat="46.18041468003511" lon="11.259041258265329"><ele>642.0</ele><time>2026-05-01T10:25:49.834Z</time></trkpt><trkpt lat="46.18031517107492" lon="11.258776421487937"><ele>642.0</ele><time>2026-05-01T10:25:50.85Z</time></trkpt><trkpt lat="46.1802243611515" lon="11.258534967237198"><ele>642.0</ele><time>2026-05-01T10:25:51.831Z</time></trkpt><trkpt lat="46.180140923807485" lon="11.25831521675548"><ele>642.0</ele><time>2026-05-01T10:25:52.832Z</time></trkpt><trkpt lat="46.18005278333334" lon="11.258124633333335"><ele>640.0</ele><time>2026-05-01T10:25:53.848Z</time></trkpt><trkpt lat="46.17999036666667" lon="11.257928483333334"><ele>638.0</ele><time>2026-05-01T10:25:54.854Z</time></trkpt><trkpt lat="46.17994056666666" lon="11.2577257"><ele>636.0</ele><time>2026-05-01T10:25:55.833Z</time></trkpt><trkpt lat="46.17990378333334" lon="11.257522583333333"><ele>634.0</ele><time>2026-05-01T10:25:56.854Z</time></trkpt><trkpt lat="46.17987955" lon="11.25732645"><ele>634.0</ele><time>2026-05-01T10:25:57.853Z</time></trkpt><trkpt lat="46.179871199999994" lon="11.257127383333334"><ele>634.0</ele><time>2026-05-01T10:25:58.833Z</time></trkpt><trkpt lat="46.17988363333334" lon="11.256920249999999"><ele>634.0</ele><time>2026-05-01T10:25:59.832Z</time></trkpt><trkpt lat="46.17991201666667" lon="11.25670985"><ele>634.0</ele><time>2026-05-01T10:26:00.83Z</time></trkpt><trkpt lat="46.17994885" lon="11.256507150000001"><ele>635.0</ele><time>2026-05-01T10:26:01.83Z</time></trkpt><trkpt lat="46.18000960988934" lon="11.256324412301755"><ele>636.0</ele><time>2026-05-01T10:26:02.853Z</time></trkpt><trkpt lat="46.18005109038052" lon="11.256123669911199"><ele>637.0</ele><time>2026-05-01T10:26:03.853Z</time></trkpt><trkpt lat="46.18007867428686" lon="11.255915033932942"><ele>638.0</ele><time>2026-05-01T10:26:04.833Z</time></trkpt><trkpt lat="46.18008684577858" lon="11.255708233635115"><ele>635.5</ele><time>2026-05-01T10:26:05.854Z</time></trkpt><trkpt lat="46.18008380435651" lon="11.255512031365685"><ele>633.0</ele><time>2026-05-01T10:26:06.831Z</time></trkpt><trkpt lat="46.18006670808251" lon="11.255321590267492"><ele>630.5</ele><time>2026-05-01T10:26:07.831Z</time></trkpt><trkpt lat="46.18003335356088" lon="11.255142815215073"><ele>628.0</ele><time>2026-05-01T10:26:08.849Z</time></trkpt><trkpt lat="46.17998540589672" lon="11.254961396908763"><ele>623.3333333333334</ele><time>2026-05-01T10:26:09.864Z</time></trkpt><trkpt lat="46.17992167824143" lon="11.254776426698209"><ele>618.6666666666666</ele><time>2026-05-01T10:26:10.852Z</time></trkpt><trkpt lat="46.17983341745324" lon="11.254590753075213"><ele>614.0</ele><time>2026-05-01T10:26:11.85Z</time></trkpt><trkpt lat="46.17972061323515" lon="11.254393618436767"><ele>617.0</ele><time>2026-05-01T10:26:12.831Z</time></trkpt><trkpt lat="46.17956871901723" lon="11.254185072130227"><ele>620.0</ele><time>2026-05-01T10:26:13.833Z</time></trkpt><trkpt lat="46.1793917525564" lon="11.2539539988166"><ele>623.0</ele><time>2026-05-01T10:26:14.851Z</time></trkpt><trkpt lat="46.17920209724074" lon="11.25370648972792"><ele>642.0</ele><time>2026-05-01T10:26:15.868Z</time></trkpt><trkpt lat="46.17900167155843" lon="11.253444231820358"><ele>661.0</ele><time>2026-05-01T10:26:16.833Z</time></trkpt><trkpt lat="46.17879774513729" lon="11.253178761175537"><ele>651.5</ele><time>2026-05-01T10:26:17.854Z</time></trkpt><trkpt lat="46.178593865756" lon="11.252918057581159"><ele>642.0</ele><time>2026-05-01T10:26:18.853Z</time></trkpt><trkpt lat="46.17839298974572" lon="11.252658617766588"><ele>645.5</ele><time>2026-05-01T10:26:19.849Z</time></trkpt><trkpt lat="46.17818293333333" lon="11.252418233333334"><ele>649.0</ele><time>2026-05-01T10:26:20.848Z</time></trkpt><trkpt lat="46.17799476417414" lon="11.252142626820444"><ele>649.0</ele><time>2026-05-01T10:26:21.833Z</time></trkpt><trkpt lat="46.177796782637806" lon="11.251895481012616"><ele>649.0</ele><time>2026-05-01T10:26:22.837Z</time></trkpt><trkpt lat="46.17760058333333" lon="11.251689816666666"><ele>649.0</ele><time>2026-05-01T10:26:23.833Z</time></trkpt><trkpt lat="46.177427533333336" lon="11.251486199999999"><ele>649.0</ele><time>2026-05-01T10:26:24.84Z</time></trkpt><trkpt lat="46.17726333333333" lon="11.251300266666666"><ele>649.0</ele><time>2026-05-01T10:26:25.833Z</time></trkpt><trkpt lat="46.177112083333334" lon="11.2511288"><ele>646.3333333333334</ele><time>2026-05-01T10:26:26.854Z</time></trkpt><trkpt lat="46.17697114999999" lon="11.250976983333333"><ele>643.6666666666666</ele><time>2026-05-01T10:26:27.855Z</time></trkpt><trkpt lat="46.17683388306609" lon="11.250828177715466"><ele>641.0</ele><time>2026-05-01T10:26:28.84Z</time></trkpt><trkpt lat="46.17666601617321" lon="11.250749908264499"><ele>643.0</ele><time>2026-05-01T10:26:29.851Z</time></trkpt><trkpt lat="46.1764891526804" lon="11.250737401284917"><ele>645.0</ele><time>2026-05-01T10:26:30.852Z</time></trkpt><trkpt lat="46.17631541339232" lon="11.250787383692897"><ele>647.0</ele><time>2026-05-01T10:26:31.841Z</time></trkpt><trkpt lat="46.17617393333333" lon="11.250917416666667"><ele>647.0</ele><time>2026-05-01T10:26:32.833Z</time></trkpt><trkpt lat="46.17604743333333" lon="11.251052183333334"><ele>647.0</ele><time>2026-05-01T10:26:33.834Z</time></trkpt><trkpt lat="46.17591661666667" lon="11.251184133333334"><ele>647.0</ele><time>2026-05-01T10:26:34.837Z</time></trkpt><trkpt lat="46.17577033333333" lon="11.251259950000001"><ele>656.3333333333333</ele><time>2026-05-01T10:26:35.855Z</time></trkpt><trkpt lat="46.17561788333334" lon="11.251261616666666"><ele>665.6666666666666</ele><time>2026-05-01T10:26:36.853Z</time></trkpt><trkpt lat="46.175474566666665" lon="11.251195133333333"><ele>675.0</ele><time>2026-05-01T10:26:37.844Z</time></trkpt><trkpt lat="46.175348166666666" lon="11.2510639"><ele>675.0</ele><time>2026-05-01T10:26:38.848Z</time></trkpt><trkpt lat="46.175248133333334" lon="11.250879783333334"><ele>675.0</ele><time>2026-05-01T10:26:39.843Z</time></trkpt><trkpt lat="46.175184599999994" lon="11.250645450000002"><ele>675.0</ele><time>2026-05-01T10:26:40.842Z</time></trkpt><trkpt lat="46.17514271666667" lon="11.250380050000002"><ele>672.0</ele><time>2026-05-01T10:26:41.848Z</time></trkpt><trkpt lat="46.17509751666666" lon="11.250085833333332"><ele>669.0</ele><time>2026-05-01T10:26:42.83Z</time></trkpt><trkpt lat="46.17504426666667" lon="11.249765400000001"><ele>666.0</ele><time>2026-05-01T10:26:43.833Z</time></trkpt><trkpt lat="46.17499305" lon="11.249431049999998"><ele>663.0</ele><time>2026-05-01T10:26:44.857Z</time></trkpt><trkpt lat="46.174953083333335" lon="11.249110316666668"><ele>660.0</ele><time>2026-05-01T10:26:45.853Z</time></trkpt><trkpt lat="46.17491578333334" lon="11.24881785"><ele>657.0</ele><time>2026-05-01T10:26:46.833Z</time></trkpt><trkpt lat="46.1748736" lon="11.2485531"><ele>658.6666666666666</ele><time>2026-05-01T10:26:47.849Z</time></trkpt><trkpt lat="46.1748237" lon="11.248321716666664"><ele>660.3333333333333</ele><time>2026-05-01T10:26:48.832Z</time></trkpt><trkpt lat="46.17474205" lon="11.248123649999998"><ele>662.0</ele><time>2026-05-01T10:26:49.842Z</time></trkpt><trkpt lat="46.174623866666664" lon="11.2479645"><ele>656.6666666666666</ele><time>2026-05-01T10:26:50.833Z</time></trkpt><trkpt lat="46.17448078333334" lon="11.2478773"><ele>651.3333333333334</ele><time>2026-05-01T10:26:51.842Z</time></trkpt><trkpt lat="46.17432278333334" lon="11.247867750000001"><ele>646.0</ele><time>2026-05-01T10:26:52.83Z</time></trkpt><trkpt lat="46.174161716666674" lon="11.247924983333334"><ele>648.3333333333334</ele><time>2026-05-01T10:26:53.848Z</time></trkpt><trkpt lat="46.17399653333334" lon="11.248019099999999"><ele>650.6666666666666</ele><time>2026-05-01T10:26:54.831Z</time></trkpt><trkpt lat="46.17381675" lon="11.24812745"><ele>653.0</ele><time>2026-05-01T10:26:55.833Z</time></trkpt><trkpt lat="46.17362965" lon="11.248238483333335"><ele>658.0</ele><time>2026-05-01T10:26:56.857Z</time></trkpt><trkpt lat="46.17344873333333" lon="11.248342666666668"><ele>663.0</ele><time>2026-05-01T10:26:57.853Z</time></trkpt><trkpt lat="46.17328429999999" lon="11.248426400000001"><ele>668.0</ele><time>2026-05-01T10:26:58.838Z</time></trkpt><trkpt lat="46.173128983333335" lon="11.248467016666666"><ele>676.0</ele><time>2026-05-01T10:26:59.851Z</time></trkpt><trkpt lat="46.17299189214184" lon="11.24846964610009"><ele>684.0</ele><time>2026-05-01T10:27:00.853Z</time></trkpt><trkpt lat="46.17290029590731" lon="11.248507924829392"><ele>692.0</ele><time>2026-05-01T10:27:01.832Z</time></trkpt><trkpt lat="46.17275540000001" lon="11.248195766666667"><ele>687.6666666666666</ele><time>2026-05-01T10:27:02.851Z</time></trkpt><trkpt lat="46.17266443333333" lon="11.248002866666665"><ele>683.3333333333334</ele><time>2026-05-01T10:27:03.831Z</time></trkpt><trkpt lat="46.17257933333333" lon="11.247789016666665"><ele>679.0</ele><time>2026-05-01T10:27:04.847Z</time></trkpt><trkpt lat="46.17249465" lon="11.247574249999998"><ele>679.0</ele><time>2026-05-01T10:27:05.848Z</time></trkpt><trkpt lat="46.172415433333335" lon="11.247368633333334"><ele>679.0</ele><time>2026-05-01T10:27:06.853Z</time></trkpt><trkpt lat="46.17233881666666" lon="11.247176266666667"><ele>679.0</ele><time>2026-05-01T10:27:07.839Z</time></trkpt><trkpt lat="46.172262133333334" lon="11.247006583333333"><ele>678.75</ele><time>2026-05-01T10:27:08.848Z</time></trkpt><trkpt lat="46.17217073333333" lon="11.246871616666665"><ele>678.5</ele><time>2026-05-01T10:27:09.843Z</time></trkpt><trkpt lat="46.172050850000005" lon="11.2467777"><ele>678.25</ele><time>2026-05-01T10:27:10.832Z</time></trkpt><trkpt lat="46.171904250000004" lon="11.246727566666669"><ele>678.0</ele><time>2026-05-01T10:27:11.851Z</time></trkpt><trkpt lat="46.17174991666668" lon="11.2467261"><ele>678.0</ele><time>2026-05-01T10:27:12.832Z</time></trkpt><trkpt lat="46.17159776666667" lon="11.246780333333334"><ele>678.0</ele><time>2026-05-01T10:27:13.837Z</time></trkpt><trkpt lat="46.171456649999996" lon="11.246882000000001"><ele>678.0</ele><time>2026-05-01T10:27:14.848Z</time></trkpt><trkpt lat="46.17131766666666" lon="11.2469999"><ele>676.3333333333334</ele><time>2026-05-01T10:27:15.853Z</time></trkpt><trkpt lat="46.17117523333333" lon="11.247090366666665"><ele>674.6666666666667</ele><time>2026-05-01T10:27:16.844Z</time></trkpt><trkpt lat="46.17102273333334" lon="11.247134416666666"><ele>673.0</ele><time>2026-05-01T10:27:17.848Z</time></trkpt><trkpt lat="46.17086141666667" lon="11.247138666666668"><ele>673.0</ele><time>2026-05-01T10:27:18.835Z</time></trkpt><trkpt lat="46.17070303333333" lon="11.247109066666667"><ele>673.0</ele><time>2026-05-01T10:27:19.834Z</time></trkpt><trkpt lat="46.17054558333333" lon="11.247061083333332"><ele>673.0</ele><time>2026-05-01T10:27:20.834Z</time></trkpt><trkpt lat="46.17038673333333" lon="11.247010983333332"><ele>676.3333333333334</ele><time>2026-05-01T10:27:21.853Z</time></trkpt><trkpt lat="46.17023000000001" lon="11.2469689"><ele>679.6666666666666</ele><time>2026-05-01T10:27:22.834Z</time></trkpt><trkpt lat="46.1700745" lon="11.246951049999998"><ele>683.0</ele><time>2026-05-01T10:27:23.832Z</time></trkpt><trkpt lat="46.16991376666667" lon="11.246973983333332"><ele>681.6666666666666</ele><time>2026-05-01T10:27:24.856Z</time></trkpt><trkpt lat="46.16975181666667" lon="11.247037849999998"><ele>680.3333333333334</ele><time>2026-05-01T10:27:25.842Z</time></trkpt><trkpt lat="46.169591149999995" lon="11.2471215"><ele>679.0</ele><time>2026-05-01T10:27:26.848Z</time></trkpt><trkpt lat="46.16942541666667" lon="11.247201666666669"><ele>679.0</ele><time>2026-05-01T10:27:27.832Z</time></trkpt><trkpt lat="46.16925705" lon="11.2472574"><ele>679.0</ele><time>2026-05-01T10:27:28.832Z</time></trkpt><trkpt lat="46.16907931666666" lon="11.247271416666669"><ele>679.0</ele><time>2026-05-01T10:27:29.854Z</time></trkpt><trkpt lat="46.168889883333335" lon="11.247246416666668"><ele>683.6666666666667</ele><time>2026-05-01T10:27:30.832Z</time></trkpt><trkpt lat="46.16869571666667" lon="11.2472098"><ele>688.3333333333334</ele><time>2026-05-01T10:27:31.837Z</time></trkpt><trkpt lat="46.16850138333333" lon="11.2471783"><ele>693.0</ele><time>2026-05-01T10:27:32.854Z</time></trkpt><trkpt lat="46.16831631666667" lon="11.247150500000002"><ele>700.6666666666666</ele><time>2026-05-01T10:27:33.832Z</time></trkpt><trkpt lat="46.16814803333334" lon="11.247123783333333"><ele>708.3333333333333</ele><time>2026-05-01T10:27:34.831Z</time></trkpt><trkpt lat="46.167991533333335" lon="11.247084500000001"><ele>716.0</ele><time>2026-05-01T10:27:35.854Z</time></trkpt><trkpt lat="46.16784536666667" lon="11.247012983333333"><ele>716.0</ele><time>2026-05-01T10:27:36.853Z</time></trkpt><trkpt lat="46.167706100000004" lon="11.246899716666666"><ele>716.0</ele><time>2026-05-01T10:27:37.831Z</time></trkpt><trkpt lat="46.16758096666667" lon="11.246747200000001"><ele>716.0</ele><time>2026-05-01T10:27:38.832Z</time></trkpt><trkpt lat="46.16747518333333" lon="11.246566283333335"><ele>713.0</ele><time>2026-05-01T10:27:39.832Z</time></trkpt><trkpt lat="46.16737840000001" lon="11.246351716666668"><ele>710.0</ele><time>2026-05-01T10:27:40.834Z</time></trkpt><trkpt lat="46.16728381666667" lon="11.246107733333334"><ele>707.0</ele><time>2026-05-01T10:27:41.855Z</time></trkpt><trkpt lat="46.16718006666667" lon="11.245846516666665"><ele>713.0</ele><time>2026-05-01T10:27:42.854Z</time></trkpt><trkpt lat="46.167063999999996" lon="11.245560066666666"><ele>719.0</ele><time>2026-05-01T10:27:43.834Z</time></trkpt><trkpt lat="46.166939633333335" lon="11.245249966666666"><ele>719.0</ele><time>2026-05-01T10:27:44.85Z</time></trkpt><trkpt lat="46.16681401666666" lon="11.244937433333334"><ele>719.0</ele><time>2026-05-01T10:27:45.853Z</time></trkpt><trkpt lat="46.16669881666667" lon="11.244647416666664"><ele>716.3333333333333</ele><time>2026-05-01T10:27:46.848Z</time></trkpt><trkpt lat="46.16659436666667" lon="11.244390383333332"><ele>713.6666666666666</ele><time>2026-05-01T10:27:47.855Z</time></trkpt><trkpt lat="46.16648468333333" lon="11.244176383333334"><ele>711.0</ele><time>2026-05-01T10:27:48.853Z</time></trkpt><trkpt lat="46.16636151666666" lon="11.244011966666667"><ele>707.0</ele><time>2026-05-01T10:27:49.836Z</time></trkpt><trkpt lat="46.166218" lon="11.243888499999999"><ele>703.0</ele><time>2026-05-01T10:27:50.849Z</time></trkpt><trkpt lat="46.166045100000005" lon="11.243793550000001"><ele>699.0</ele><time>2026-05-01T10:27:51.865Z</time></trkpt><trkpt lat="46.16585605" lon="11.243702150000003"><ele>710.3333333333334</ele><time>2026-05-01T10:27:52.834Z</time></trkpt><trkpt lat="46.16566243333333" lon="11.243596533333333"><ele>721.6666666666667</ele><time>2026-05-01T10:27:53.848Z</time></trkpt><trkpt lat="46.165470983333336" lon="11.243477266666664"><ele>733.0</ele><time>2026-05-01T10:27:54.856Z</time></trkpt><trkpt lat="46.16528923333334" lon="11.243355133333335"><ele>733.0</ele><time>2026-05-01T10:27:55.847Z</time></trkpt><trkpt lat="46.165119149999995" lon="11.243238016666666"><ele>733.0</ele><time>2026-05-01T10:27:56.848Z</time></trkpt><trkpt lat="46.16495945" lon="11.243106000000001"><ele>733.0</ele><time>2026-05-01T10:27:57.854Z</time></trkpt><trkpt lat="46.16480706666667" lon="11.2429421"><ele>730.3333333333334</ele><time>2026-05-01T10:27:58.833Z</time></trkpt><trkpt lat="46.164666483333335" lon="11.242741633333333"><ele>727.6666666666666</ele><time>2026-05-01T10:27:59.853Z</time></trkpt><trkpt lat="46.16453514999999" lon="11.242513083333332"><ele>725.0</ele><time>2026-05-01T10:28:00.84Z</time></trkpt><trkpt lat="46.1643968" lon="11.242279766666664"><ele>722.3333333333333</ele><time>2026-05-01T10:28:01.834Z</time></trkpt><trkpt lat="46.16425438182974" lon="11.242043034935056"><ele>719.6666666666666</ele><time>2026-05-01T10:28:02.848Z</time></trkpt><trkpt lat="46.16406096666667" lon="11.241868166666665"><ele>717.0</ele><time>2026-05-01T10:28:03.853Z</time></trkpt><trkpt lat="46.16386716666666" lon="11.241685083333335"><ele>717.0</ele><time>2026-05-01T10:28:04.836Z</time></trkpt><trkpt lat="46.163677250000006" lon="11.241518399999999"><ele>717.0</ele><time>2026-05-01T10:28:05.849Z</time></trkpt><trkpt lat="46.163486" lon="11.24137485"><ele>717.0</ele><time>2026-05-01T10:28:06.854Z</time></trkpt><trkpt lat="46.16328738333333" lon="11.241250216666668"><ele>715.3333333333334</ele><time>2026-05-01T10:28:07.835Z</time></trkpt><trkpt lat="46.163092983333335" lon="11.241135216666667"><ele>713.6666666666667</ele><time>2026-05-01T10:28:08.849Z</time></trkpt><trkpt lat="46.162910716666666" lon="11.2410107"><ele>712.0</ele><time>2026-05-01T10:28:09.834Z</time></trkpt><trkpt lat="46.16273983333334" lon="11.240869483333332"><ele>712.0</ele><time>2026-05-01T10:28:10.834Z</time></trkpt><trkpt lat="46.16257365" lon="11.240714516666667"><ele>712.0</ele><time>2026-05-01T10:28:11.849Z</time></trkpt><trkpt lat="46.16240443333333" lon="11.240552549999999"><ele>712.0</ele><time>2026-05-01T10:28:12.854Z</time></trkpt><trkpt lat="46.162228400000004" lon="11.24038683333333"><ele>711.6666666666667</ele><time>2026-05-01T10:28:13.845Z</time></trkpt><trkpt lat="46.1620501" lon="11.240215683333334"><ele>711.3333333333334</ele><time>2026-05-01T10:28:14.849Z</time></trkpt><trkpt lat="46.16187438333333" lon="11.240026900000002"><ele>711.0</ele><time>2026-05-01T10:28:15.854Z</time></trkpt><trkpt lat="46.161707899999996" lon="11.239830266666667"><ele>711.3333333333334</ele><time>2026-05-01T10:28:16.831Z</time></trkpt><trkpt lat="46.161551633333325" lon="11.239638233333334"><ele>711.6666666666667</ele><time>2026-05-01T10:28:17.849Z</time></trkpt><trkpt lat="46.16139796666667" lon="11.239455983333334"><ele>712.0</ele><time>2026-05-01T10:28:18.828Z</time></trkpt><trkpt lat="46.16124016666666" lon="11.239288266666664"><ele>712.0</ele><time>2026-05-01T10:28:19.837Z</time></trkpt><trkpt lat="46.1610699" lon="11.239141416666666"><ele>712.0</ele><time>2026-05-01T10:28:20.852Z</time></trkpt><trkpt lat="46.16088965" lon="11.239019133333333"><ele>712.0</ele><time>2026-05-01T10:28:21.853Z</time></trkpt><trkpt lat="46.160717683333324" lon="11.238910316666667"><ele>717.0</ele><time>2026-05-01T10:28:22.832Z</time></trkpt><trkpt lat="46.16057446666667" lon="11.238792149999998"><ele>722.0</ele><time>2026-05-01T10:28:23.854Z</time></trkpt><trkpt lat="46.16046898333334" lon="11.238636750000001"><ele>727.0</ele><time>2026-05-01T10:28:24.854Z</time></trkpt><trkpt lat="46.16039281666667" lon="11.23844705"><ele>727.0</ele><time>2026-05-01T10:28:25.832Z</time></trkpt><trkpt lat="46.16033548333333" lon="11.238229083333334"><ele>727.0</ele><time>2026-05-01T10:28:26.835Z</time></trkpt><trkpt lat="46.16028475" lon="11.2380007"><ele>727.0</ele><time>2026-05-01T10:28:27.835Z</time></trkpt><trkpt lat="46.16023748333334" lon="11.237777549999997"><ele>724.25</ele><time>2026-05-01T10:28:28.834Z</time></trkpt><trkpt lat="46.16020373333335" lon="11.23756825"><ele>721.5</ele><time>2026-05-01T10:28:29.834Z</time></trkpt><trkpt lat="46.160202616666666" lon="11.23737538333333"><ele>718.75</ele><time>2026-05-01T10:28:30.832Z</time></trkpt><trkpt lat="46.160247466666675" lon="11.237197733333335"><ele>716.0</ele><time>2026-05-01T10:28:31.832Z</time></trkpt><trkpt lat="46.16033321666667" lon="11.2370304"><ele>716.0</ele><time>2026-05-01T10:28:32.865Z</time></trkpt><trkpt lat="46.16044377279262" lon="11.236878204915229"><ele>716.0</ele><time>2026-05-01T10:28:33.854Z</time></trkpt><trkpt lat="46.16053198496219" lon="11.236683323976044"><ele>716.0</ele><time>2026-05-01T10:28:34.872Z</time></trkpt><trkpt lat="46.16058264912741" lon="11.236450976363384"><ele>714.3333333333333</ele><time>2026-05-01T10:28:35.888Z</time></trkpt><trkpt lat="46.16058742457497" lon="11.236205769113452"><ele>712.6666666666666</ele><time>2026-05-01T10:28:36.835Z</time></trkpt><trkpt lat="46.160563726975944" lon="11.235974040255817"><ele>711.0</ele><time>2026-05-01T10:28:37.869Z</time></trkpt><trkpt lat="46.1605235" lon="11.235772883333334"><ele>709.0</ele><time>2026-05-01T10:28:38.884Z</time></trkpt><trkpt lat="46.1605188230463" lon="11.235586785760976"><ele>707.0</ele><time>2026-05-01T10:28:39.864Z</time></trkpt><trkpt lat="46.160500172944396" lon="11.23542262598175"><ele>705.0</ele><time>2026-05-01T10:28:40.833Z</time></trkpt><trkpt lat="46.16048345349231" lon="11.235270883239625"><ele>703.0</ele><time>2026-05-01T10:28:41.83Z</time></trkpt><trkpt lat="46.16046481703824" lon="11.235119211291648"><ele>703.0</ele><time>2026-05-01T10:28:42.832Z</time></trkpt><trkpt lat="46.16042564999999" lon="11.234965449999999"><ele>703.0</ele><time>2026-05-01T10:28:43.833Z</time></trkpt><trkpt lat="46.1603941" lon="11.23480535"><ele>703.0</ele><time>2026-05-01T10:28:44.858Z</time></trkpt><trkpt lat="46.16034504999999" lon="11.234649000000003"><ele>703.0</ele><time>2026-05-01T10:28:45.833Z</time></trkpt><trkpt lat="46.160279466666665" lon="11.234498583333334"><ele>701.5</ele><time>2026-05-01T10:28:46.852Z</time></trkpt><trkpt lat="46.16019271666668" lon="11.234362366666668"><ele>700.0</ele><time>2026-05-01T10:28:47.851Z</time></trkpt><trkpt lat="46.160087966666666" lon="11.23424643333333"><ele>698.5</ele><time>2026-05-01T10:28:48.844Z</time></trkpt><trkpt lat="46.15997836666667" lon="11.234133116666666"><ele>697.0</ele><time>2026-05-01T10:28:49.836Z</time></trkpt><trkpt lat="46.159871216666666" lon="11.2340172"><ele>696.0</ele><time>2026-05-01T10:28:50.859Z</time></trkpt><trkpt lat="46.15976763333333" lon="11.233896049999998"><ele>695.0</ele><time>2026-05-01T10:28:51.83Z</time></trkpt><trkpt lat="46.15966663333334" lon="11.2337668"><ele>694.0</ele><time>2026-05-01T10:28:52.853Z</time></trkpt><trkpt lat="46.159568716666676" lon="11.233638766666665"><ele>693.0</ele><time>2026-05-01T10:28:53.848Z</time></trkpt><trkpt lat="46.15946711666667" lon="11.233512833333334"><ele>693.0</ele><time>2026-05-01T10:28:54.835Z</time></trkpt><trkpt lat="46.15936185" lon="11.233384266666667"><ele>693.0</ele><time>2026-05-01T10:28:55.837Z</time></trkpt><trkpt lat="46.1592576" lon="11.233254983333332"><ele>693.0</ele><time>2026-05-01T10:28:56.848Z</time></trkpt><trkpt lat="46.15915414999999" lon="11.233126566666666"><ele>693.0</ele><time>2026-05-01T10:28:57.845Z</time></trkpt><trkpt lat="46.159051133333335" lon="11.232997983333332"><ele>694.5</ele><time>2026-05-01T10:28:58.831Z</time></trkpt><trkpt lat="46.15894738333333" lon="11.232868983333333"><ele>696.0</ele><time>2026-05-01T10:28:59.831Z</time></trkpt><trkpt lat="46.158842916666664" lon="11.232739733333334"><ele>697.5</ele><time>2026-05-01T10:29:00.833Z</time></trkpt><trkpt lat="46.15873648333333" lon="11.232609016666668"><ele>699.0</ele><time>2026-05-01T10:29:01.853Z</time></trkpt><trkpt lat="46.15862816666666" lon="11.232476249999998"><ele>699.0</ele><time>2026-05-01T10:29:02.871Z</time></trkpt><trkpt lat="46.158518533333336" lon="11.232346433333332"><ele>699.0</ele><time>2026-05-01T10:29:03.833Z</time></trkpt><trkpt lat="46.15840205" lon="11.232221166666667"><ele>699.0</ele><time>2026-05-01T10:29:04.833Z</time></trkpt><trkpt lat="46.15827501666666" lon="11.23210195"><ele>699.0</ele><time>2026-05-01T10:29:05.849Z</time></trkpt><trkpt lat="46.158135949999995" lon="11.231988000000001"><ele>700.3333333333334</ele><time>2026-05-01T10:29:06.846Z</time></trkpt><trkpt lat="46.157989316666665" lon="11.2318773"><ele>701.6666666666667</ele><time>2026-05-01T10:29:07.832Z</time></trkpt><trkpt lat="46.157838033333334" lon="11.231766483333335"><ele>703.0</ele><time>2026-05-01T10:29:08.855Z</time></trkpt><trkpt lat="46.15768156666666" lon="11.231655483333334"><ele>703.0</ele><time>2026-05-01T10:29:09.831Z</time></trkpt><trkpt lat="46.15751946666666" lon="11.231543533333335"><ele>703.0</ele><time>2026-05-01T10:29:10.853Z</time></trkpt><trkpt lat="46.15735718333334" lon="11.231426216666668"><ele>703.0</ele><time>2026-05-01T10:29:11.832Z</time></trkpt><trkpt lat="46.15719376666666" lon="11.23130656666667"><ele>701.3333333333334</ele><time>2026-05-01T10:29:12.833Z</time></trkpt><trkpt lat="46.157036066666656" lon="11.231190083333335"><ele>699.6666666666666</ele><time>2026-05-01T10:29:13.83Z</time></trkpt><trkpt lat="46.156885849999995" lon="11.231083866666665"><ele>698.0</ele><time>2026-05-01T10:29:14.854Z</time></trkpt><trkpt lat="46.15674443333334" lon="11.230983949999999"><ele>698.0</ele><time>2026-05-01T10:29:15.843Z</time></trkpt><trkpt lat="46.156613433333334" lon="11.230889266666669"><ele>698.0</ele><time>2026-05-01T10:29:16.833Z</time></trkpt><trkpt lat="46.15648864999999" lon="11.230797483333333"><ele>698.0</ele><time>2026-05-01T10:29:17.83Z</time></trkpt><trkpt lat="46.156369700000006" lon="11.230712516666665"><ele>698.0</ele><time>2026-05-01T10:29:18.831Z</time></trkpt><trkpt lat="46.15626223333334" lon="11.2306362"><ele>699.5</ele><time>2026-05-01T10:29:19.831Z</time></trkpt><trkpt lat="46.15616778333334" lon="11.230564833333336"><ele>701.0</ele><time>2026-05-01T10:29:20.831Z</time></trkpt><trkpt lat="46.1560841" lon="11.230495616666667"><ele>702.5</ele><time>2026-05-01T10:29:21.831Z</time></trkpt><trkpt lat="46.15600633333334" lon="11.230434783333333"><ele>704.0</ele><time>2026-05-01T10:29:22.848Z</time></trkpt><trkpt lat="46.15593148333334" lon="11.230387233333333"><ele>705.5</ele><time>2026-05-01T10:29:23.852Z</time></trkpt><trkpt lat="46.15586605" lon="11.230347766666666"><ele>707.0</ele><time>2026-05-01T10:29:24.832Z</time></trkpt><trkpt lat="46.15576646666667" lon="11.230261716666666"><ele>708.8333333333333</ele><time>2026-05-01T10:29:26.856Z</time></trkpt><trkpt lat="46.155692083333335" lon="11.230198783333332"><ele>710.6666666666666</ele><time>2026-05-01T10:29:28.853Z</time></trkpt><trkpt lat="46.15563295" lon="11.230153649999998"><ele>712.5</ele><time>2026-05-01T10:29:30.854Z</time></trkpt><trkpt lat="46.155561549999994" lon="11.230080416666667"><ele>714.3333333333334</ele><time>2026-05-01T10:30:03.852Z</time></trkpt><trkpt lat="46.15548723333333" lon="11.230015866666667"><ele>716.1666666666667</ele><time>2026-05-01T10:30:05.849Z</time></trkpt><trkpt lat="46.15540363333333" lon="11.229946083333335"><ele>718.0</ele><time>2026-05-01T10:30:07.833Z</time></trkpt><trkpt lat="46.1552853" lon="11.229866250000002"><ele>718.0</ele><time>2026-05-01T10:30:09.832Z</time></trkpt><trkpt lat="46.15522006666667" lon="11.229809866666669"><ele>718.0</ele><time>2026-05-01T10:30:10.841Z</time></trkpt><trkpt lat="46.15515543333333" lon="11.2297442"><ele>718.0</ele><time>2026-05-01T10:30:11.848Z</time></trkpt><trkpt lat="46.15511161592461" lon="11.229661946970399"><ele>718.0</ele><time>2026-05-01T10:30:12.835Z</time></trkpt><trkpt lat="46.15506154271257" lon="11.229602940515344"><ele>718.0</ele><time>2026-05-01T10:30:13.831Z</time></trkpt><trkpt lat="46.155011979527465" lon="11.229543760622448"><ele>718.0</ele><time>2026-05-01T10:30:14.831Z</time></trkpt><trkpt lat="46.15491917280745" lon="11.229432946566307"><ele>717.2</ele><time>2026-05-01T10:30:16.832Z</time></trkpt><trkpt lat="46.15482472196198" lon="11.229318124784928"><ele>716.4</ele><time>2026-05-01T10:30:18.833Z</time></trkpt><trkpt lat="46.15473440024886" lon="11.229207082687248"><ele>715.6</ele><time>2026-05-01T10:30:20.848Z</time></trkpt><trkpt lat="46.154647183333324" lon="11.229128716666665"><ele>714.8000000000001</ele><time>2026-05-01T10:30:22.83Z</time></trkpt><trkpt lat="46.15457108333333" lon="11.229030566666665"><ele>714.0</ele><time>2026-05-01T10:30:24.832Z</time></trkpt><trkpt lat="46.15448141666668" lon="11.228907"><ele>709.8000000000001</ele><time>2026-05-01T10:30:26.831Z</time></trkpt><trkpt lat="46.154424649999996" lon="11.228832133333333"><ele>705.6</ele><time>2026-05-01T10:30:27.832Z</time></trkpt><trkpt lat="46.15436285000001" lon="11.228749999999998"><ele>701.4</ele><time>2026-05-01T10:30:28.843Z</time></trkpt><trkpt lat="46.15429801666668" lon="11.228648850000003"><ele>697.2</ele><time>2026-05-01T10:30:29.851Z</time></trkpt><trkpt lat="46.15423575" lon="11.228534999999999"><ele>693.0</ele><time>2026-05-01T10:30:30.853Z</time></trkpt><trkpt lat="46.15417618333333" lon="11.228406900000001"><ele>693.0</ele><time>2026-05-01T10:30:31.855Z</time></trkpt><trkpt lat="46.15411683333333" lon="11.228278666666665"><ele>693.0</ele><time>2026-05-01T10:30:32.848Z</time></trkpt><trkpt lat="46.15407413988107" lon="11.228137226104215"><ele>693.0</ele><time>2026-05-01T10:30:33.831Z</time></trkpt><trkpt lat="46.15400448333333" lon="11.228017766666667"><ele>693.0</ele><time>2026-05-01T10:30:34.84Z</time></trkpt><trkpt lat="46.15395671666667" lon="11.227872883333335"><ele>693.0</ele><time>2026-05-01T10:30:35.83Z</time></trkpt><trkpt lat="46.15390823333333" lon="11.227722566666667"><ele>690.25</ele><time>2026-05-01T10:30:36.83Z</time></trkpt><trkpt lat="46.1538497" lon="11.227565366666667"><ele>687.5</ele><time>2026-05-01T10:30:37.837Z</time></trkpt><trkpt lat="46.153782333333325" lon="11.227407216666666"><ele>684.75</ele><time>2026-05-01T10:30:38.848Z</time></trkpt><trkpt lat="46.153712083333325" lon="11.227254383333332"><ele>682.0</ele><time>2026-05-01T10:30:39.831Z</time></trkpt><trkpt lat="46.153633783333326" lon="11.2270967"><ele>682.0</ele><time>2026-05-01T10:30:40.832Z</time></trkpt><trkpt lat="46.15354176666667" lon="11.226941266666666"><ele>682.0</ele><time>2026-05-01T10:30:41.83Z</time></trkpt><trkpt lat="46.15343236666666" lon="11.226793416666666"><ele>682.0</ele><time>2026-05-01T10:30:42.831Z</time></trkpt><trkpt lat="46.153314183333336" lon="11.226663933333336"><ele>682.0</ele><time>2026-05-01T10:30:43.854Z</time></trkpt><trkpt lat="46.15320045000001" lon="11.226542983333331"><ele>681.75</ele><time>2026-05-01T10:30:44.831Z</time></trkpt><trkpt lat="46.153091016666664" lon="11.226423250000002"><ele>681.5</ele><time>2026-05-01T10:30:45.83Z</time></trkpt><trkpt lat="46.152984249999996" lon="11.226306050000002"><ele>681.25</ele><time>2026-05-01T10:30:46.837Z</time></trkpt><trkpt lat="46.15287706666666" lon="11.226190650000001"><ele>681.0</ele><time>2026-05-01T10:30:47.844Z</time></trkpt><trkpt lat="46.15276713333333" lon="11.22607608333333"><ele>681.0</ele><time>2026-05-01T10:30:48.832Z</time></trkpt><trkpt lat="46.15265696666667" lon="11.225959683333333"><ele>681.0</ele><time>2026-05-01T10:30:49.832Z</time></trkpt><trkpt lat="46.152554499999994" lon="11.225847133333332"><ele>681.0</ele><time>2026-05-01T10:30:50.85Z</time></trkpt><trkpt lat="46.15245821666668" lon="11.225738516666668"><ele>681.0</ele><time>2026-05-01T10:30:51.831Z</time></trkpt><trkpt lat="46.15235845" lon="11.225630033333333"><ele>681.25</ele><time>2026-05-01T10:30:52.854Z</time></trkpt><trkpt lat="46.152252399999995" lon="11.225518616666665"><ele>681.5</ele><time>2026-05-01T10:30:53.83Z</time></trkpt><trkpt lat="46.15214160000001" lon="11.225398966666667"><ele>681.75</ele><time>2026-05-01T10:30:54.83Z</time></trkpt><trkpt lat="46.152028466666664" lon="11.225272816666665"><ele>682.0</ele><time>2026-05-01T10:30:55.853Z</time></trkpt><trkpt lat="46.151909999999994" lon="11.225145316666666"><ele>682.0</ele><time>2026-05-01T10:30:56.848Z</time></trkpt><trkpt lat="46.151787299999995" lon="11.225012900000001"><ele>682.0</ele><time>2026-05-01T10:30:57.831Z</time></trkpt><trkpt lat="46.151662083333335" lon="11.224871916666666"><ele>682.0</ele><time>2026-05-01T10:30:58.848Z</time></trkpt><trkpt lat="46.151534516666665" lon="11.22472935"><ele>683.0</ele><time>2026-05-01T10:30:59.851Z</time></trkpt><trkpt lat="46.151410616666666" lon="11.224587616666668"><ele>684.0</ele><time>2026-05-01T10:31:00.831Z</time></trkpt><trkpt lat="46.151290116666665" lon="11.224450750000003"><ele>685.0</ele><time>2026-05-01T10:31:01.839Z</time></trkpt><trkpt lat="46.15117663333334" lon="11.224315766666665"><ele>685.0</ele><time>2026-05-01T10:31:02.849Z</time></trkpt><trkpt lat="46.15107965000001" lon="11.224168616666669"><ele>685.0</ele><time>2026-05-01T10:31:03.832Z</time></trkpt><trkpt lat="46.15099523333333" lon="11.22400915"><ele>685.0</ele><time>2026-05-01T10:31:04.832Z</time></trkpt><trkpt lat="46.150918233333336" lon="11.223834916666666"><ele>685.0</ele><time>2026-05-01T10:31:05.857Z</time></trkpt><trkpt lat="46.15084476666666" lon="11.223657066666666"><ele>686.25</ele><time>2026-05-01T10:31:06.832Z</time></trkpt><trkpt lat="46.15077471666667" lon="11.223488966666666"><ele>687.5</ele><time>2026-05-01T10:31:07.85Z</time></trkpt><trkpt lat="46.15070561666666" lon="11.223329116666665"><ele>688.75</ele><time>2026-05-01T10:31:08.848Z</time></trkpt><trkpt lat="46.15063206666667" lon="11.223171066666666"><ele>690.0</ele><time>2026-05-01T10:31:09.831Z</time></trkpt><trkpt lat="46.150544283333325" lon="11.223017833333332"><ele>686.25</ele><time>2026-05-01T10:31:10.854Z</time></trkpt><trkpt lat="46.15044553333334" lon="11.2228745"><ele>682.5</ele><time>2026-05-01T10:31:11.848Z</time></trkpt><trkpt lat="46.15034380000001" lon="11.222737816666665"><ele>678.75</ele><time>2026-05-01T10:31:12.841Z</time></trkpt><trkpt lat="46.15025046666666" lon="11.222599416666666"><ele>675.0</ele><time>2026-05-01T10:31:13.835Z</time></trkpt><trkpt lat="46.150155116666674" lon="11.222457833333332"><ele>673.75</ele><time>2026-05-01T10:31:14.832Z</time></trkpt><trkpt lat="46.15005243333333" lon="11.222314333333335"><ele>672.5</ele><time>2026-05-01T10:31:15.832Z</time></trkpt><trkpt lat="46.149947383333334" lon="11.222167616666665"><ele>671.25</ele><time>2026-05-01T10:31:16.839Z</time></trkpt><trkpt lat="46.149842533333334" lon="11.222012216666666"><ele>670.0</ele><time>2026-05-01T10:31:17.852Z</time></trkpt><trkpt lat="46.149741733333336" lon="11.221841583333333"><ele>669.0</ele><time>2026-05-01T10:31:18.853Z</time></trkpt><trkpt lat="46.149649033333326" lon="11.22165653333333"><ele>668.0</ele><time>2026-05-01T10:31:19.83Z</time></trkpt><trkpt lat="46.14956686666666" lon="11.221461366666665"><ele>667.0</ele><time>2026-05-01T10:31:20.832Z</time></trkpt><trkpt lat="46.14949416666667" lon="11.221265483333331"><ele>667.0</ele><time>2026-05-01T10:31:21.839Z</time></trkpt><trkpt lat="46.14942756666666" lon="11.221072283333333"><ele>667.0</ele><time>2026-05-01T10:31:22.842Z</time></trkpt><trkpt lat="46.1493605" lon="11.220883133333333"><ele>667.0</ele><time>2026-05-01T10:31:23.848Z</time></trkpt><trkpt lat="46.149289499999995" lon="11.220689250000001"><ele>667.0</ele><time>2026-05-01T10:31:24.832Z</time></trkpt><trkpt lat="46.14921443333333" lon="11.220488966666668"><ele>666.5</ele><time>2026-05-01T10:31:25.833Z</time></trkpt><trkpt lat="46.14914168333333" lon="11.220293116666669"><ele>666.0</ele><time>2026-05-01T10:31:26.849Z</time></trkpt><trkpt lat="46.14907036666667" lon="11.22010616666667"><ele>665.5</ele><time>2026-05-01T10:31:27.83Z</time></trkpt><trkpt lat="46.148991300000006" lon="11.219932583333332"><ele>665.0</ele><time>2026-05-01T10:31:28.84Z</time></trkpt><trkpt lat="46.148894199999994" lon="11.219774983333332"><ele>660.6666666666666</ele><time>2026-05-01T10:31:29.85Z</time></trkpt><trkpt lat="46.14877395" lon="11.219631566666665"><ele>656.3333333333334</ele><time>2026-05-01T10:31:30.852Z</time></trkpt><trkpt lat="46.14864411948082" lon="11.219477019531626"><ele>652.0</ele><time>2026-05-01T10:31:31.839Z</time></trkpt><trkpt lat="46.148484499999995" lon="11.219396749999998"><ele>652.0</ele><time>2026-05-01T10:31:32.849Z</time></trkpt><trkpt lat="46.148333916666665" lon="11.219324966666665"><ele>652.0</ele><time>2026-05-01T10:31:33.833Z</time></trkpt><trkpt lat="46.148181400000006" lon="11.219290866666666"><ele>652.0</ele><time>2026-05-01T10:31:34.847Z</time></trkpt><trkpt lat="46.14803131666666" lon="11.219297333333335"><ele>650.6666666666667</ele><time>2026-05-01T10:31:35.868Z</time></trkpt><trkpt lat="46.147885333333335" lon="11.219339333333336"><ele>649.3333333333334</ele><time>2026-05-01T10:31:36.83Z</time></trkpt><trkpt lat="46.14774338333333" lon="11.219411283333333"><ele>648.0</ele><time>2026-05-01T10:31:37.83Z</time></trkpt><trkpt lat="46.14760906666667" lon="11.21951025"><ele>648.0</ele><time>2026-05-01T10:31:38.849Z</time></trkpt><trkpt lat="46.147479999999995" lon="11.219618383333334"><ele>648.0</ele><time>2026-05-01T10:31:39.853Z</time></trkpt><trkpt lat="46.14735241666667" lon="11.219724699999999"><ele>648.0</ele><time>2026-05-01T10:31:40.839Z</time></trkpt><trkpt lat="46.14722506666667" lon="11.219815266666668"><ele>648.0</ele><time>2026-05-01T10:31:41.848Z</time></trkpt><trkpt lat="46.147090150000004" lon="11.2198552"><ele>650.25</ele><time>2026-05-01T10:31:42.832Z</time></trkpt><trkpt lat="46.146954566666665" lon="11.219858166666667"><ele>652.5</ele><time>2026-05-01T10:31:43.833Z</time></trkpt><trkpt lat="46.14682608333332" lon="11.21986295"><ele>654.75</ele><time>2026-05-01T10:31:44.849Z</time></trkpt><trkpt lat="46.14670136666667" lon="11.219868966666668"><ele>657.0</ele><time>2026-05-01T10:31:45.832Z</time></trkpt><trkpt lat="46.1465789" lon="11.219875433333334"><ele>654.5</ele><time>2026-05-01T10:31:46.833Z</time></trkpt><trkpt lat="46.14645873333334" lon="11.219884733333332"><ele>652.0</ele><time>2026-05-01T10:31:47.832Z</time></trkpt><trkpt lat="46.14633176666667" lon="11.219897050000002"><ele>649.5</ele><time>2026-05-01T10:31:48.832Z</time></trkpt><trkpt lat="46.146203433333326" lon="11.219907533333332"><ele>647.0</ele><time>2026-05-01T10:31:49.833Z</time></trkpt><trkpt lat="46.14607183333333" lon="11.219911000000002"><ele>647.0</ele><time>2026-05-01T10:31:50.849Z</time></trkpt><trkpt lat="46.145935933333334" lon="11.219904916666668"><ele>647.0</ele><time>2026-05-01T10:31:51.845Z</time></trkpt><trkpt lat="46.14579775000001" lon="11.21987966666667"><ele>647.0</ele><time>2026-05-01T10:31:52.853Z</time></trkpt><trkpt lat="46.1456609" lon="11.219826566666667"><ele>647.0</ele><time>2026-05-01T10:31:53.831Z</time></trkpt><trkpt lat="46.145525049999996" lon="11.219744400000002"><ele>643.0</ele><time>2026-05-01T10:31:54.833Z</time></trkpt><trkpt lat="46.14538435" lon="11.219650549999997"><ele>639.0</ele><time>2026-05-01T10:31:55.831Z</time></trkpt><trkpt lat="46.1452392" lon="11.219561383333332"><ele>635.0</ele><time>2026-05-01T10:31:56.848Z</time></trkpt><trkpt lat="46.14508993333334" lon="11.21947625"><ele>635.0</ele><time>2026-05-01T10:31:57.853Z</time></trkpt><trkpt lat="46.144949100000005" lon="11.219395016666667"><ele>635.0</ele><time>2026-05-01T10:31:58.853Z</time></trkpt><trkpt lat="46.144815" lon="11.21931575"><ele>635.0</ele><time>2026-05-01T10:31:59.851Z</time></trkpt><trkpt lat="46.14468643333333" lon="11.219244033333334"><ele>635.0</ele><time>2026-05-01T10:32:00.847Z</time></trkpt><trkpt lat="46.14456366666667" lon="11.219170716666667"><ele>635.0</ele><time>2026-05-01T10:32:01.831Z</time></trkpt><trkpt lat="46.144441066666666" lon="11.219098866666666"><ele>635.0</ele><time>2026-05-01T10:32:02.832Z</time></trkpt><trkpt lat="46.144325300000006" lon="11.21903055"><ele>635.0</ele><time>2026-05-01T10:32:03.833Z</time></trkpt><trkpt lat="46.144215100000004" lon="11.218965266666665"><ele>635.0</ele><time>2026-05-01T10:32:04.856Z</time></trkpt><trkpt lat="46.14411663333334" lon="11.218888900000001"><ele>635.0</ele><time>2026-05-01T10:32:05.854Z</time></trkpt><trkpt lat="46.14402868333333" lon="11.218789433333331"><ele>635.0</ele><time>2026-05-01T10:32:06.831Z</time></trkpt><trkpt lat="46.14396603333333" lon="11.218662666666669"><ele>635.0</ele><time>2026-05-01T10:32:07.833Z</time></trkpt><trkpt lat="46.143925599999996" lon="11.218512533333334"><ele>635.0</ele><time>2026-05-01T10:32:08.848Z</time></trkpt><trkpt lat="46.1439064" lon="11.218350016666667"><ele>635.0</ele><time>2026-05-01T10:32:09.846Z</time></trkpt><trkpt lat="46.14390566666666" lon="11.218176000000001"><ele>634.4</ele><time>2026-05-01T10:32:10.833Z</time></trkpt><trkpt lat="46.14392370000001" lon="11.218001050000003"><ele>633.8</ele><time>2026-05-01T10:32:11.833Z</time></trkpt><trkpt lat="46.143951900000005" lon="11.217858616666668"><ele>633.2</ele><time>2026-05-01T10:32:12.833Z</time></trkpt><trkpt lat="46.14398743333333" lon="11.217755283333334"><ele>632.6</ele><time>2026-05-01T10:32:13.831Z</time></trkpt><trkpt lat="46.14402885" lon="11.2176637"><ele>632.0</ele><time>2026-05-01T10:32:14.832Z</time></trkpt><trkpt lat="46.144085133333334" lon="11.217558699999998"><ele>632.0</ele><time>2026-05-01T10:32:15.833Z</time></trkpt><trkpt lat="46.14416858333335" lon="11.217436166666669"><ele>632.0</ele><time>2026-05-01T10:32:16.834Z</time></trkpt><trkpt lat="46.144273383333335" lon="11.2172911"><ele>632.0</ele><time>2026-05-01T10:32:17.849Z</time></trkpt><trkpt lat="46.14439583333333" lon="11.217115566666667"><ele>632.0</ele><time>2026-05-01T10:32:18.847Z</time></trkpt><trkpt lat="46.14453468333333" lon="11.2169175"><ele>633.3333333333333</ele><time>2026-05-01T10:32:19.83Z</time></trkpt><trkpt lat="46.144687266666665" lon="11.216702233333335"><ele>634.6666666666666</ele><time>2026-05-01T10:32:20.857Z</time></trkpt><trkpt lat="46.14485023333334" lon="11.216471799999999"><ele>636.0</ele><time>2026-05-01T10:32:21.833Z</time></trkpt><trkpt lat="46.145023233333326" lon="11.21623185"><ele>636.0</ele><time>2026-05-01T10:32:22.854Z</time></trkpt><trkpt lat="46.145195533333336" lon="11.215991833333332"><ele>636.0</ele><time>2026-05-01T10:32:23.833Z</time></trkpt><trkpt lat="46.14536301666667" lon="11.215753833333334"><ele>638.5</ele><time>2026-05-01T10:32:24.833Z</time></trkpt><trkpt lat="46.14553003333334" lon="11.215511483333334"><ele>641.0</ele><time>2026-05-01T10:32:25.833Z</time></trkpt><trkpt lat="46.14569925000001" lon="11.21526765"><ele>639.0</ele><time>2026-05-01T10:32:26.854Z</time></trkpt><trkpt lat="46.14587199999999" lon="11.215021999999998"><ele>637.0</ele><time>2026-05-01T10:32:27.833Z</time></trkpt><trkpt lat="46.146042699999995" lon="11.214783933333335"><ele>643.3333333333334</ele><time>2026-05-01T10:32:28.854Z</time></trkpt><trkpt lat="46.14620873333333" lon="11.214554566666667"><ele>649.6666666666666</ele><time>2026-05-01T10:32:29.832Z</time></trkpt><trkpt lat="46.14636245" lon="11.214333"><ele>656.0</ele><time>2026-05-01T10:32:30.833Z</time></trkpt><trkpt lat="46.146502049999995" lon="11.214115416666667"><ele>653.3333333333333</ele><time>2026-05-01T10:32:31.833Z</time></trkpt><trkpt lat="46.14662740000001" lon="11.213883133333331"><ele>650.6666666666666</ele><time>2026-05-01T10:32:32.833Z</time></trkpt><trkpt lat="46.14674646666667" lon="11.213628600000002"><ele>648.0</ele><time>2026-05-01T10:32:33.833Z</time></trkpt><trkpt lat="46.146859150000004" lon="11.2133501"><ele>653.5</ele><time>2026-05-01T10:32:34.852Z</time></trkpt><trkpt lat="46.146972716666674" lon="11.213055666666666"><ele>659.0</ele><time>2026-05-01T10:32:35.854Z</time></trkpt><trkpt lat="46.14708433333333" lon="11.212769416666665"><ele>659.0</ele><time>2026-05-01T10:32:36.85Z</time></trkpt><trkpt lat="46.147192833333335" lon="11.21249355"><ele>659.0</ele><time>2026-05-01T10:32:37.838Z</time></trkpt><trkpt lat="46.1472986" lon="11.212218"><ele>659.0</ele><time>2026-05-01T10:32:38.831Z</time></trkpt><trkpt lat="46.14739678333334" lon="11.211931016666664"><ele>649.5</ele><time>2026-05-01T10:32:39.831Z</time></trkpt><trkpt lat="46.147489483333324" lon="11.211624233333334"><ele>640.0</ele><time>2026-05-01T10:32:40.831Z</time></trkpt><trkpt lat="46.14758058333334" lon="11.211301383333334"><ele>640.0</ele><time>2026-05-01T10:32:41.833Z</time></trkpt><trkpt lat="46.147670483333336" lon="11.2109777"><ele>640.0</ele><time>2026-05-01T10:32:42.833Z</time></trkpt><trkpt lat="46.14775721666667" lon="11.210665649999997"><ele>643.0</ele><time>2026-05-01T10:32:43.85Z</time></trkpt><trkpt lat="46.14784016666667" lon="11.210371766666666"><ele>646.0</ele><time>2026-05-01T10:32:44.852Z</time></trkpt><trkpt lat="46.1479875" lon="11.209833549999999"><ele>646.6666666666667</ele><time>2026-05-01T10:32:46.855Z</time></trkpt><trkpt lat="46.14805768333334" lon="11.209580149999999"><ele>647.3333333333334</ele><time>2026-05-01T10:32:47.85Z</time></trkpt><trkpt lat="46.14812936666667" lon="11.209329016666667"><ele>648.0</ele><time>2026-05-01T10:32:48.843Z</time></trkpt><trkpt lat="46.14820006666667" lon="11.209080383333331"><ele>643.3333333333334</ele><time>2026-05-01T10:32:49.833Z</time></trkpt><trkpt lat="46.14827716666667" lon="11.208839116666665"><ele>638.6666666666667</ele><time>2026-05-01T10:32:50.859Z</time></trkpt><trkpt lat="46.148364533333336" lon="11.208614816666666"><ele>634.0</ele><time>2026-05-01T10:32:51.833Z</time></trkpt><trkpt lat="46.14845926666667" lon="11.208404966666668"><ele>634.0</ele><time>2026-05-01T10:32:52.84Z</time></trkpt><trkpt lat="46.148556183333326" lon="11.208203633333335"><ele>634.0</ele><time>2026-05-01T10:32:53.849Z</time></trkpt><trkpt lat="46.14864558333334" lon="11.208010216666667"><ele>634.0</ele><time>2026-05-01T10:32:54.831Z</time></trkpt><trkpt lat="46.14872455" lon="11.207824899999999"><ele>633.75</ele><time>2026-05-01T10:32:55.848Z</time></trkpt><trkpt lat="46.14879105" lon="11.207645316666666"><ele>633.5</ele><time>2026-05-01T10:32:56.849Z</time></trkpt><trkpt lat="46.14884285" lon="11.207454533333335"><ele>633.25</ele><time>2026-05-01T10:32:57.839Z</time></trkpt><trkpt lat="46.14888116666666" lon="11.2072581"><ele>633.0</ele><time>2026-05-01T10:32:58.854Z</time></trkpt><trkpt lat="46.14892833645615" lon="11.207075553602971"><ele>633.6</ele><time>2026-05-01T10:32:59.833Z</time></trkpt><trkpt lat="46.14892945" lon="11.206883283333331"><ele>634.1999999999999</ele><time>2026-05-01T10:33:00.833Z</time></trkpt><trkpt lat="46.14894893333334" lon="11.206724116666665"><ele>634.8</ele><time>2026-05-01T10:33:01.831Z</time></trkpt><trkpt lat="46.1489759" lon="11.206595499999999"><ele>635.4</ele><time>2026-05-01T10:33:02.85Z</time></trkpt><trkpt lat="46.14902843333333" lon="11.2065033"><ele>636.0</ele><time>2026-05-01T10:33:03.855Z</time></trkpt><trkpt lat="46.14910281666666" lon="11.206443799999999"><ele>636.25</ele><time>2026-05-01T10:33:04.849Z</time></trkpt><trkpt lat="46.14918513333333" lon="11.20639455"><ele>636.5</ele><time>2026-05-01T10:33:05.85Z</time></trkpt><trkpt lat="46.149285866666666" lon="11.206357500000001"><ele>636.75</ele><time>2026-05-01T10:33:06.852Z</time></trkpt><trkpt lat="46.14940828333333" lon="11.206344716666669"><ele>637.0</ele><time>2026-05-01T10:33:07.834Z</time></trkpt><trkpt lat="46.149548900000006" lon="11.206329166666668"><ele>637.0</ele><time>2026-05-01T10:33:08.857Z</time></trkpt><trkpt lat="46.14969838333333" lon="11.2062756"><ele>637.0</ele><time>2026-05-01T10:33:09.833Z</time></trkpt><trkpt lat="46.14983913333334" lon="11.206177933333333"><ele>637.0</ele><time>2026-05-01T10:33:10.847Z</time></trkpt><trkpt lat="46.14995626666667" lon="11.206042683333331"><ele>634.3333333333334</ele><time>2026-05-01T10:33:11.85Z</time></trkpt><trkpt lat="46.150053449999994" lon="11.205874333333334"><ele>631.6666666666666</ele><time>2026-05-01T10:33:12.853Z</time></trkpt><trkpt lat="46.15012638333333" lon="11.205673816666668"><ele>629.0</ele><time>2026-05-01T10:33:13.839Z</time></trkpt><trkpt lat="46.150171633333336" lon="11.2054436"><ele>627.3333333333333</ele><time>2026-05-01T10:33:14.832Z</time></trkpt><trkpt lat="46.15017755000001" lon="11.205195216666668"><ele>625.6666666666666</ele><time>2026-05-01T10:33:15.853Z</time></trkpt><trkpt lat="46.15014526666668" lon="11.204937383333332"><ele>624.0</ele><time>2026-05-01T10:33:16.833Z</time></trkpt><trkpt lat="46.15008593333334" lon="11.204678533333334"><ele>622.6666666666666</ele><time>2026-05-01T10:33:17.85Z</time></trkpt><trkpt lat="46.14999756666666" lon="11.204423899999998"><ele>621.3333333333333</ele><time>2026-05-01T10:33:18.834Z</time></trkpt><trkpt lat="46.149889449999996" lon="11.204173933333333"><ele>620.0</ele><time>2026-05-01T10:33:19.854Z</time></trkpt><trkpt lat="46.14977083333333" lon="11.203921583333331"><ele>620.0</ele><time>2026-05-01T10:33:20.85Z</time></trkpt><trkpt lat="46.14964648333333" lon="11.203661883333332"><ele>620.0</ele><time>2026-05-01T10:33:21.855Z</time></trkpt><trkpt lat="46.14951729999999" lon="11.203397883333333"><ele>620.0</ele><time>2026-05-01T10:33:22.844Z</time></trkpt><trkpt lat="46.149377599999994" lon="11.203136716666666"><ele>614.0</ele><time>2026-05-01T10:33:23.85Z</time></trkpt><trkpt lat="46.14922328333334" lon="11.202878200000002"><ele>608.0</ele><time>2026-05-01T10:33:24.832Z</time></trkpt><trkpt lat="46.14905383333333" lon="11.202635966666666"><ele>605.6666666666666</ele><time>2026-05-01T10:33:25.842Z</time></trkpt><trkpt lat="46.1488832" lon="11.202410516666665"><ele>603.3333333333334</ele><time>2026-05-01T10:33:26.834Z</time></trkpt><trkpt lat="46.148722183333334" lon="11.202198516666666"><ele>601.0</ele><time>2026-05-01T10:33:27.836Z</time></trkpt><trkpt lat="46.14857743333334" lon="11.201981450000002"><ele>601.0</ele><time>2026-05-01T10:33:28.854Z</time></trkpt><trkpt lat="46.148454983333345" lon="11.201743716666666"><ele>601.0</ele><time>2026-05-01T10:33:29.83Z</time></trkpt><trkpt lat="46.14835033333334" lon="11.201484683333335"><ele>601.0</ele><time>2026-05-01T10:33:30.832Z</time></trkpt><trkpt lat="46.14826746666666" lon="11.2012009"><ele>608.0</ele><time>2026-05-01T10:33:31.847Z</time></trkpt><trkpt lat="46.14819766666666" lon="11.2008915"><ele>615.0</ele><time>2026-05-01T10:33:32.85Z</time></trkpt><trkpt lat="46.14812986666667" lon="11.200567966666664"><ele>615.0</ele><time>2026-05-01T10:33:33.838Z</time></trkpt><trkpt lat="46.14804875" lon="11.200241583333332"><ele>615.0</ele><time>2026-05-01T10:33:34.831Z</time></trkpt><trkpt lat="46.14794534999999" lon="11.199917249999999"><ele>604.5</ele><time>2026-05-01T10:33:35.854Z</time></trkpt><trkpt lat="46.14782185000001" lon="11.199592416666668"><ele>594.0</ele><time>2026-05-01T10:33:36.831Z</time></trkpt><trkpt lat="46.14768526666667" lon="11.199264300000001"><ele>586.0</ele><time>2026-05-01T10:33:37.833Z</time></trkpt><trkpt lat="46.14754008333333" lon="11.198937550000002"><ele>578.0</ele><time>2026-05-01T10:33:38.833Z</time></trkpt><trkpt lat="46.147395350000004" lon="11.198622966666669"><ele>582.0</ele><time>2026-05-01T10:33:39.833Z</time></trkpt><trkpt lat="46.14726326666667" lon="11.198320999999998"><ele>586.0</ele><time>2026-05-01T10:33:40.845Z</time></trkpt><trkpt lat="46.14715275" lon="11.198028866666668"><ele>586.0</ele><time>2026-05-01T10:33:41.85Z</time></trkpt><trkpt lat="46.14707010000001" lon="11.197731116666667"><ele>586.0</ele><time>2026-05-01T10:33:42.833Z</time></trkpt><trkpt lat="46.14702045000001" lon="11.197420483333334"><ele>586.0</ele><time>2026-05-01T10:33:43.834Z</time></trkpt><trkpt lat="46.147006833333336" lon="11.197094250000001"><ele>593.0</ele><time>2026-05-01T10:33:44.85Z</time></trkpt><trkpt lat="46.147027333333334" lon="11.196765766666665"><ele>600.0</ele><time>2026-05-01T10:33:45.832Z</time></trkpt><trkpt lat="46.14707473333333" lon="11.196444466666666"><ele>602.6666666666666</ele><time>2026-05-01T10:33:46.835Z</time></trkpt><trkpt lat="46.14713366666666" lon="11.196143433333335"><ele>605.3333333333333</ele><time>2026-05-01T10:33:47.833Z</time></trkpt><trkpt lat="46.14717686666666" lon="11.19586245"><ele>608.0</ele><time>2026-05-01T10:33:48.836Z</time></trkpt><trkpt lat="46.14719203333334" lon="11.195596516666669"><ele>608.0</ele><time>2026-05-01T10:33:49.845Z</time></trkpt><trkpt lat="46.147185949999994" lon="11.1953437"><ele>608.0</ele><time>2026-05-01T10:33:50.85Z</time></trkpt><trkpt lat="46.14716188333333" lon="11.1950947"><ele>608.0</ele><time>2026-05-01T10:33:51.859Z</time></trkpt><trkpt lat="46.14712341666666" lon="11.194848933333335"><ele>608.0</ele><time>2026-05-01T10:33:52.832Z</time></trkpt><trkpt lat="46.14707388333333" lon="11.194596999999998"><ele>608.0</ele><time>2026-05-01T10:33:53.85Z</time></trkpt><trkpt lat="46.14701740000001" lon="11.194338866666666"><ele>608.0</ele><time>2026-05-01T10:33:54.836Z</time></trkpt><trkpt lat="46.14696301666667" lon="11.194077499999999"><ele>606.6666666666666</ele><time>2026-05-01T10:33:55.832Z</time></trkpt><trkpt lat="46.146915283333335" lon="11.1938144"><ele>605.3333333333334</ele><time>2026-05-01T10:33:56.833Z</time></trkpt><trkpt lat="46.14687408333332" lon="11.193548616666664"><ele>604.0</ele><time>2026-05-01T10:33:57.84Z</time></trkpt><trkpt lat="46.146842766666666" lon="11.193272833333333"><ele>603.0</ele><time>2026-05-01T10:33:58.834Z</time></trkpt><trkpt lat="46.14681615" lon="11.192988849999997"><ele>602.0</ele><time>2026-05-01T10:33:59.846Z</time></trkpt><trkpt lat="46.14679124999999" lon="11.192712183333333"><ele>601.0</ele><time>2026-05-01T10:34:00.834Z</time></trkpt><trkpt lat="46.14676971666666" lon="11.19244775"><ele>602.6666666666667</ele><time>2026-05-01T10:34:01.834Z</time></trkpt><trkpt lat="46.14675654999999" lon="11.192183299999998"><ele>604.3333333333334</ele><time>2026-05-01T10:34:02.85Z</time></trkpt><trkpt lat="46.146763766666666" lon="11.1919173"><ele>606.0</ele><time>2026-05-01T10:34:03.834Z</time></trkpt><trkpt lat="46.14679973333333" lon="11.191655133333331"><ele>609.6666666666666</ele><time>2026-05-01T10:34:04.842Z</time></trkpt><trkpt lat="46.1468758" lon="11.191402366666667"><ele>613.3333333333333</ele><time>2026-05-01T10:34:05.83Z</time></trkpt><trkpt lat="46.146988166666674" lon="11.191164499999998"><ele>617.0</ele><time>2026-05-01T10:34:06.833Z</time></trkpt><trkpt lat="46.147129316666664" lon="11.190955416666668"><ele>617.0</ele><time>2026-05-01T10:34:07.84Z</time></trkpt><trkpt lat="46.147297783333336" lon="11.190776566666665"><ele>617.0</ele><time>2026-05-01T10:34:08.832Z</time></trkpt><trkpt lat="46.14749035" lon="11.19061465"><ele>617.0</ele><time>2026-05-01T10:34:09.833Z</time></trkpt><trkpt lat="46.14769458333333" lon="11.190453466666666"><ele>617.5</ele><time>2026-05-01T10:34:10.85Z</time></trkpt><trkpt lat="46.14790589999999" lon="11.19028441666667"><ele>618.0</ele><time>2026-05-01T10:34:11.85Z</time></trkpt><trkpt lat="46.1481222" lon="11.190109"><ele>617.5</ele><time>2026-05-01T10:34:12.832Z</time></trkpt><trkpt lat="46.14833466666667" lon="11.189939116666668"><ele>617.0</ele><time>2026-05-01T10:34:13.832Z</time></trkpt><trkpt lat="46.14853565" lon="11.189771916666666"><ele>617.0</ele><time>2026-05-01T10:34:14.852Z</time></trkpt><trkpt lat="46.14872208333333" lon="11.1895939"><ele>617.0</ele><time>2026-05-01T10:34:15.831Z</time></trkpt><trkpt lat="46.148890800000004" lon="11.1894067"><ele>617.0</ele><time>2026-05-01T10:34:16.844Z</time></trkpt><trkpt lat="46.149044683333344" lon="11.18922335"><ele>614.3333333333333</ele><time>2026-05-01T10:34:17.836Z</time></trkpt><trkpt lat="46.14918971666666" lon="11.189044750000003"><ele>611.6666666666666</ele><time>2026-05-01T10:34:18.836Z</time></trkpt><trkpt lat="46.14930984210262" lon="11.18884601274015"><ele>609.0</ele><time>2026-05-01T10:34:19.845Z</time></trkpt><trkpt lat="46.149417682079815" lon="11.188643564195617"><ele>614.3333333333334</ele><time>2026-05-01T10:34:20.836Z</time></trkpt><trkpt lat="46.14950110680533" lon="11.188439278873453"><ele>619.6666666666667</ele><time>2026-05-01T10:34:21.839Z</time></trkpt><trkpt lat="46.14957886362271" lon="11.18823725310531"><ele>625.0</ele><time>2026-05-01T10:34:22.844Z</time></trkpt><trkpt lat="46.14964802933169" lon="11.188038259103216"><ele>627.25</ele><time>2026-05-01T10:34:23.836Z</time></trkpt><trkpt lat="46.149715141258866" lon="11.187853082646374"><ele>629.5</ele><time>2026-05-01T10:34:24.841Z</time></trkpt><trkpt lat="46.14977269474923" lon="11.187686512647312"><ele>631.75</ele><time>2026-05-01T10:34:25.844Z</time></trkpt><trkpt lat="46.14984142440856" lon="11.187514366789378"><ele>634.0</ele><time>2026-05-01T10:34:26.836Z</time></trkpt><trkpt lat="46.1499172801069" lon="11.187335976883809"><ele>577.0</ele><time>2026-05-01T10:34:27.835Z</time></trkpt><trkpt lat="46.15077275" lon="11.187559566666668"><ele>577.0</ele><time>2026-05-01T10:34:28.84Z</time></trkpt><trkpt lat="46.150931983333344" lon="11.187412700000001"><ele>577.0</ele><time>2026-05-01T10:34:29.836Z</time></trkpt><trkpt lat="46.15109121666666" lon="11.187265816666665"><ele>577.0</ele><time>2026-05-01T10:34:30.834Z</time></trkpt><trkpt lat="46.15125045" lon="11.187118933333334"><ele>578.3333333333334</ele><time>2026-05-01T10:34:31.844Z</time></trkpt><trkpt lat="46.151409683333334" lon="11.186972066666666"><ele>579.6666666666666</ele><time>2026-05-01T10:34:32.84Z</time></trkpt><trkpt lat="46.15156891666667" lon="11.186825183333333"><ele>581.0</ele><time>2026-05-01T10:34:33.841Z</time></trkpt><trkpt lat="46.15172815" lon="11.1866783"><ele>575.0</ele><time>2026-05-01T10:34:34.855Z</time></trkpt><trkpt lat="46.15188738333333" lon="11.186531433333334"><ele>569.0</ele><time>2026-05-01T10:34:35.836Z</time></trkpt><trkpt lat="46.15204661666666" lon="11.186384549999998"><ele>563.0</ele><time>2026-05-01T10:34:36.841Z</time></trkpt><trkpt lat="46.15220585" lon="11.186237666666667"><ele>563.0</ele><time>2026-05-01T10:34:37.833Z</time></trkpt><trkpt lat="46.15236508333334" lon="11.1860908"><ele>563.0</ele><time>2026-05-01T10:34:38.836Z</time></trkpt><trkpt lat="46.152524316666664" lon="11.185943916666668"><ele>563.0</ele><time>2026-05-01T10:34:39.841Z</time></trkpt><trkpt lat="46.15268338333333" lon="11.185797183333333"><ele>615.0</ele><time>2026-05-01T10:34:40.849Z</time></trkpt><trkpt lat="46.14793649999999" lon="11.184114416666667"><ele>615.0</ele><time>2026-05-01T10:34:41.839Z</time></trkpt><trkpt lat="46.14783066666667" lon="11.184032033333335"><ele>615.0</ele><time>2026-05-01T10:34:42.834Z</time></trkpt><trkpt lat="46.14770996666666" lon="11.1838779"><ele>615.0</ele><time>2026-05-01T10:34:43.844Z</time></trkpt><trkpt lat="46.147609499999994" lon="11.183675233333334"><ele>608.6666666666666</ele><time>2026-05-01T10:34:44.836Z</time></trkpt><trkpt lat="46.14753378333333" lon="11.183443333333331"><ele>602.3333333333333</ele><time>2026-05-01T10:34:45.834Z</time></trkpt><trkpt lat="46.14747883333333" lon="11.183192000000002"><ele>596.0</ele><time>2026-05-01T10:34:46.849Z</time></trkpt><trkpt lat="46.147449933333334" lon="11.182913816666666"><ele>595.3333333333333</ele><time>2026-05-01T10:34:47.834Z</time></trkpt><trkpt lat="46.14744411666668" lon="11.182623066666668"><ele>594.6666666666666</ele><time>2026-05-01T10:34:48.839Z</time></trkpt><trkpt lat="46.147474550000005" lon="11.182329633333332"><ele>594.0</ele><time>2026-05-01T10:34:49.832Z</time></trkpt><trkpt lat="46.14754121666667" lon="11.1820409"><ele>594.0</ele><time>2026-05-01T10:34:50.836Z</time></trkpt><trkpt lat="46.14764185000001" lon="11.18175905"><ele>594.0</ele><time>2026-05-01T10:34:51.831Z</time></trkpt><trkpt lat="46.14776778333333" lon="11.181486533333334"><ele>594.0</ele><time>2026-05-01T10:34:52.846Z</time></trkpt><trkpt lat="46.14789605" lon="11.1812211"><ele>597.6666666666666</ele><time>2026-05-01T10:34:53.841Z</time></trkpt><trkpt lat="46.14801398333334" lon="11.180954516666667"><ele>601.3333333333333</ele><time>2026-05-01T10:34:54.845Z</time></trkpt><trkpt lat="46.148112383333334" lon="11.180670133333335"><ele>605.0</ele><time>2026-05-01T10:34:55.853Z</time></trkpt><trkpt lat="46.14818903333333" lon="11.180357566666665"><ele>603.0</ele><time>2026-05-01T10:34:56.848Z</time></trkpt><trkpt lat="46.148240900000005" lon="11.180012733333335"><ele>601.0</ele><time>2026-05-01T10:34:57.836Z</time></trkpt><trkpt lat="46.14827408333334" lon="11.179658949999999"><ele>601.0</ele><time>2026-05-01T10:34:58.854Z</time></trkpt><trkpt lat="46.148300266666666" lon="11.179320816666666"><ele>601.0</ele><time>2026-05-01T10:34:59.836Z</time></trkpt><trkpt lat="46.148337716666674" lon="11.178996916666664"><ele>604.6666666666667</ele><time>2026-05-01T10:35:00.84Z</time></trkpt><trkpt lat="46.14842056606166" lon="11.178698533092096"><ele>608.3333333333334</ele><time>2026-05-01T10:35:01.845Z</time></trkpt><trkpt lat="46.14849169056058" lon="11.17840028060829"><ele>612.0</ele><time>2026-05-01T10:35:02.838Z</time></trkpt><trkpt lat="46.148575" lon="11.178088683333332"><ele>618.0</ele><time>2026-05-01T10:35:03.845Z</time></trkpt><trkpt lat="46.14870558333333" lon="11.177784466666665"><ele>624.0</ele><time>2026-05-01T10:35:04.853Z</time></trkpt><trkpt lat="46.14884511666668" lon="11.177471583333334"><ele>633.5</ele><time>2026-05-01T10:35:05.837Z</time></trkpt><trkpt lat="46.148987310958844" lon="11.177150327005437"><ele>643.0</ele><time>2026-05-01T10:35:06.834Z</time></trkpt><trkpt lat="46.149074533333334" lon="11.176778850000002"><ele>621.0</ele><time>2026-05-01T10:35:07.831Z</time></trkpt><trkpt lat="46.14916625000001" lon="11.176404316666668"><ele>599.0</ele><time>2026-05-01T10:35:08.837Z</time></trkpt><trkpt lat="46.14925353333333" lon="11.17604385"><ele>599.0</ele><time>2026-05-01T10:35:09.84Z</time></trkpt><trkpt lat="46.14933483333333" lon="11.175701483333333"><ele>599.0</ele><time>2026-05-01T10:35:10.846Z</time></trkpt><trkpt lat="46.14941111666667" lon="11.175385966666665"><ele>599.6666666666666</ele><time>2026-05-01T10:35:11.838Z</time></trkpt><trkpt lat="46.14949031055745" lon="11.175101597664153"><ele>600.3333333333334</ele><time>2026-05-01T10:35:12.848Z</time></trkpt><trkpt lat="46.14952476504167" lon="11.174805618451268"><ele>601.0</ele><time>2026-05-01T10:35:13.844Z</time></trkpt><trkpt lat="46.14951998405575" lon="11.174510952399753"><ele>598.3333333333334</ele><time>2026-05-01T10:35:14.835Z</time></trkpt><trkpt lat="46.14946305" lon="11.174222633333333"><ele>595.6666666666666</ele><time>2026-05-01T10:35:15.844Z</time></trkpt><trkpt lat="46.14938538333334" lon="11.173928016666666"><ele>593.0</ele><time>2026-05-01T10:35:16.854Z</time></trkpt><trkpt lat="46.149281433333336" lon="11.173624633333334"><ele>583.5</ele><time>2026-05-01T10:35:17.837Z</time></trkpt><trkpt lat="46.14916381666667" lon="11.173309133333332"><ele>574.0</ele><time>2026-05-01T10:35:18.84Z</time></trkpt><trkpt lat="46.14905276666667" lon="11.172992533333336"><ele>592.5</ele><time>2026-05-01T10:35:19.858Z</time></trkpt><trkpt lat="46.14895465" lon="11.172684083333335"><ele>611.0</ele><time>2026-05-01T10:35:20.837Z</time></trkpt><trkpt lat="46.14887436666667" lon="11.172386300000003"><ele>608.3333333333333</ele><time>2026-05-01T10:35:21.85Z</time></trkpt><trkpt lat="46.148822900000006" lon="11.172096966666668"><ele>605.6666666666666</ele><time>2026-05-01T10:35:22.844Z</time></trkpt><trkpt lat="46.148795233333345" lon="11.171818583333334"><ele>603.0</ele><time>2026-05-01T10:35:23.835Z</time></trkpt><trkpt lat="46.14877565" lon="11.171547066666669"><ele>600.0</ele><time>2026-05-01T10:35:24.835Z</time></trkpt><trkpt lat="46.14875175" lon="11.17126665"><ele>597.0</ele><time>2026-05-01T10:35:25.845Z</time></trkpt><trkpt lat="46.14871556666667" lon="11.17097645"><ele>594.0</ele><time>2026-05-01T10:35:26.838Z</time></trkpt><trkpt lat="46.14866748333334" lon="11.170679450000002"><ele>589.0</ele><time>2026-05-01T10:35:27.839Z</time></trkpt><trkpt lat="46.14861393333334" lon="11.170375066666669"><ele>584.0</ele><time>2026-05-01T10:35:28.833Z</time></trkpt><trkpt lat="46.14855526666667" lon="11.170061249999998"><ele>579.0</ele><time>2026-05-01T10:35:29.838Z</time></trkpt><trkpt lat="46.14848798333334" lon="11.169739883333333"><ele>573.0</ele><time>2026-05-01T10:35:30.846Z</time></trkpt><trkpt lat="46.148418133333344" lon="11.169415033333333"><ele>567.0</ele><time>2026-05-01T10:35:31.845Z</time></trkpt><trkpt lat="46.14834975" lon="11.169097183333335"><ele>565.0</ele><time>2026-05-01T10:35:32.842Z</time></trkpt><trkpt lat="46.14828476666667" lon="11.168794333333334"><ele>563.0</ele><time>2026-05-01T10:35:33.839Z</time></trkpt><trkpt lat="46.14822315" lon="11.168498433333331"><ele>561.0</ele><time>2026-05-01T10:35:34.855Z</time></trkpt><trkpt lat="46.14817323333333" lon="11.168201066666665"><ele>571.3333333333334</ele><time>2026-05-01T10:35:35.837Z</time></trkpt><trkpt lat="46.14815058333333" lon="11.167894966666665"><ele>581.6666666666667</ele><time>2026-05-01T10:35:36.837Z</time></trkpt><trkpt lat="46.14815643333333" lon="11.167582116666665"><ele>592.0</ele><time>2026-05-01T10:35:37.835Z</time></trkpt><trkpt lat="46.14817955" lon="11.167266316666666"><ele>592.0</ele><time>2026-05-01T10:35:38.835Z</time></trkpt><trkpt lat="46.14820818333333" lon="11.166947333333333"><ele>592.0</ele><time>2026-05-01T10:35:39.849Z</time></trkpt><trkpt lat="46.14824015000001" lon="11.166628333333332"><ele>592.0</ele><time>2026-05-01T10:35:40.845Z</time></trkpt><trkpt lat="46.14826691666667" lon="11.166310383333334"><ele>579.3333333333334</ele><time>2026-05-01T10:35:41.837Z</time></trkpt><trkpt lat="46.1482777" lon="11.165998566666667"><ele>566.6666666666666</ele><time>2026-05-01T10:35:42.845Z</time></trkpt><trkpt lat="46.14826639999999" lon="11.165704000000002"><ele>554.0</ele><time>2026-05-01T10:35:43.844Z</time></trkpt><trkpt lat="46.14822891666666" lon="11.165416216666666"><ele>559.6666666666666</ele><time>2026-05-01T10:35:44.836Z</time></trkpt><trkpt lat="46.14816883333333" lon="11.165136216666667"><ele>565.3333333333334</ele><time>2026-05-01T10:35:45.84Z</time></trkpt><trkpt lat="46.148100850000006" lon="11.164861633333333"><ele>571.0</ele><time>2026-05-01T10:35:46.851Z</time></trkpt><trkpt lat="46.14803823333333" lon="11.164596433333333"><ele>571.0</ele><time>2026-05-01T10:35:47.836Z</time></trkpt><trkpt lat="46.147980866666664" lon="11.1643388"><ele>571.0</ele><time>2026-05-01T10:35:48.845Z</time></trkpt><trkpt lat="46.14793741666667" lon="11.164096766666669"><ele>571.0</ele><time>2026-05-01T10:35:49.857Z</time></trkpt><trkpt lat="46.14791233333334" lon="11.163880566666666"><ele>570.25</ele><time>2026-05-01T10:35:50.837Z</time></trkpt><trkpt lat="46.14789433333334" lon="11.163686183333335"><ele>569.5</ele><time>2026-05-01T10:35:51.837Z</time></trkpt><trkpt lat="46.14787935" lon="11.163500400000002"><ele>568.75</ele><time>2026-05-01T10:35:52.85Z</time></trkpt><trkpt lat="46.14786613333334" lon="11.163316366666667"><ele>568.0</ele><time>2026-05-01T10:35:53.838Z</time></trkpt><trkpt lat="46.147849966666676" lon="11.163131400000003"><ele>565.75</ele><time>2026-05-01T10:35:54.84Z</time></trkpt><trkpt lat="46.14783046666666" lon="11.162949583333333"><ele>563.5</ele><time>2026-05-01T10:35:55.841Z</time></trkpt><trkpt lat="46.14781058333333" lon="11.16276845"><ele>561.25</ele><time>2026-05-01T10:35:56.851Z</time></trkpt><trkpt lat="46.147792433333336" lon="11.16258056666667"><ele>559.0</ele><time>2026-05-01T10:35:57.84Z</time></trkpt><trkpt lat="46.147753550000004" lon="11.162373500000001"><ele>553.3333333333334</ele><time>2026-05-01T10:35:58.846Z</time></trkpt><trkpt lat="46.147676616666665" lon="11.162137933333334"><ele>547.6666666666666</ele><time>2026-05-01T10:35:59.838Z</time></trkpt><trkpt lat="46.14757076666666" lon="11.161867866666666"><ele>542.0</ele><time>2026-05-01T10:36:00.84Z</time></trkpt><trkpt lat="46.147451783333324" lon="11.16158513333333"><ele>549.0</ele><time>2026-05-01T10:36:01.845Z</time></trkpt><trkpt lat="46.14733703333333" lon="11.161317049999997"><ele>556.0</ele><time>2026-05-01T10:36:02.838Z</time></trkpt><trkpt lat="46.14723611666667" lon="11.16105675"><ele>563.0</ele><time>2026-05-01T10:36:03.849Z</time></trkpt><trkpt lat="46.14714406666667" lon="11.1607922"><ele>558.3333333333333</ele><time>2026-05-01T10:36:04.845Z</time></trkpt><trkpt lat="46.147056416666665" lon="11.160507949999998"><ele>553.6666666666666</ele><time>2026-05-01T10:36:05.839Z</time></trkpt><trkpt lat="46.14697853333334" lon="11.160207683333331"><ele>549.0</ele><time>2026-05-01T10:36:06.848Z</time></trkpt><trkpt lat="46.14690925" lon="11.159912533333332"><ele>544.3333333333334</ele><time>2026-05-01T10:36:07.847Z</time></trkpt><trkpt lat="46.146845666666664" lon="11.159626966666668"><ele>539.6666666666667</ele><time>2026-05-01T10:36:08.842Z</time></trkpt><trkpt lat="46.14678435000001" lon="11.159341099999999"><ele>535.0</ele><time>2026-05-01T10:36:09.833Z</time></trkpt><trkpt lat="46.14671861666667" lon="11.159051866666669"><ele>529.0</ele><time>2026-05-01T10:36:10.85Z</time></trkpt><trkpt lat="46.146640516666665" lon="11.158765549999996"><ele>523.0</ele><time>2026-05-01T10:36:11.837Z</time></trkpt><trkpt lat="46.146550216666675" lon="11.158485366666666"><ele>517.0</ele><time>2026-05-01T10:36:12.837Z</time></trkpt><trkpt lat="46.14644666666666" lon="11.158211549999999"><ele>526.6666666666667</ele><time>2026-05-01T10:36:13.855Z</time></trkpt><trkpt lat="46.146334933333335" lon="11.157944533333334"><ele>536.3333333333334</ele><time>2026-05-01T10:36:14.837Z</time></trkpt><trkpt lat="46.14622381666666" lon="11.157691833333335"><ele>546.0</ele><time>2026-05-01T10:36:15.837Z</time></trkpt><trkpt lat="46.14612271666667" lon="11.15744415"><ele>541.3333333333334</ele><time>2026-05-01T10:36:16.846Z</time></trkpt><trkpt lat="46.146042800000004" lon="11.157179033333334"><ele>536.6666666666667</ele><time>2026-05-01T10:36:17.837Z</time></trkpt><trkpt lat="46.14597375" lon="11.1568862"><ele>532.0</ele><time>2026-05-01T10:36:18.878Z</time></trkpt><trkpt lat="46.14590361666666" lon="11.156574766666665"><ele>524.5</ele><time>2026-05-01T10:36:19.846Z</time></trkpt><trkpt lat="46.14583893333334" lon="11.156250399999998"><ele>517.0</ele><time>2026-05-01T10:36:20.839Z</time></trkpt><trkpt lat="46.14578108333333" lon="11.155937250000001"><ele>513.3333333333334</ele><time>2026-05-01T10:36:21.837Z</time></trkpt><trkpt lat="46.14573308333333" lon="11.155653266666665"><ele>509.66666666666663</ele><time>2026-05-01T10:36:22.85Z</time></trkpt><trkpt lat="46.14568991666667" lon="11.155393933333334"><ele>506.0</ele><time>2026-05-01T10:36:23.838Z</time></trkpt><trkpt lat="46.14563995" lon="11.1551529"><ele>515.6666666666666</ele><time>2026-05-01T10:36:24.842Z</time></trkpt><trkpt lat="46.1455762" lon="11.154918000000002"><ele>525.3333333333334</ele><time>2026-05-01T10:36:25.844Z</time></trkpt><trkpt lat="46.14548176666667" lon="11.15468011666667"><ele>535.0</ele><time>2026-05-01T10:36:26.835Z</time></trkpt><trkpt lat="46.14536568333333" lon="11.15442533333333"><ele>535.0</ele><time>2026-05-01T10:36:27.832Z</time></trkpt><trkpt lat="46.145259483333334" lon="11.154139133333334"><ele>535.0</ele><time>2026-05-01T10:36:28.846Z</time></trkpt><trkpt lat="46.145164583333326" lon="11.153827933333334"><ele>528.3333333333334</ele><time>2026-05-01T10:36:29.84Z</time></trkpt><trkpt lat="46.145081399999995" lon="11.153517616666665"><ele>521.6666666666666</ele><time>2026-05-01T10:36:30.84Z</time></trkpt><trkpt lat="46.1450116" lon="11.153228416666666"><ele>515.0</ele><time>2026-05-01T10:36:31.851Z</time></trkpt><trkpt lat="46.14494013333333" lon="11.152964866666666"><ele>518.0</ele><time>2026-05-01T10:36:32.848Z</time></trkpt><trkpt lat="46.14485205" lon="11.152727766666665"><ele>521.0</ele><time>2026-05-01T10:36:33.837Z</time></trkpt><trkpt lat="46.1447369" lon="11.152526816666667"><ele>524.0</ele><time>2026-05-01T10:36:34.851Z</time></trkpt><trkpt lat="46.1445871" lon="11.152359166666667"><ele>527.0</ele><time>2026-05-01T10:36:35.836Z</time></trkpt><trkpt lat="46.14440823333333" lon="11.152213066666665"><ele>530.0</ele><time>2026-05-01T10:36:36.845Z</time></trkpt><trkpt lat="46.1442169" lon="11.152079366666666"><ele>533.0</ele><time>2026-05-01T10:36:37.846Z</time></trkpt><trkpt lat="46.1440345" lon="11.151947716666667"><ele>533.0</ele><time>2026-05-01T10:36:38.837Z</time></trkpt><trkpt lat="46.14386438333332" lon="11.151801566666666"><ele>533.0</ele><time>2026-05-01T10:36:39.837Z</time></trkpt><trkpt lat="46.14371646666667" lon="11.151622349999998"><ele>533.0</ele><time>2026-05-01T10:36:40.849Z</time></trkpt><trkpt lat="46.1435914" lon="11.151419033333331"><ele>521.6666666666666</ele><time>2026-05-01T10:36:41.835Z</time></trkpt><trkpt lat="46.143485416666664" lon="11.151205633333332"><ele>510.33333333333337</ele><time>2026-05-01T10:36:42.837Z</time></trkpt><trkpt lat="46.143381266666665" lon="11.150996433333335"><ele>499.0</ele><time>2026-05-01T10:36:43.846Z</time></trkpt><trkpt lat="46.14325713333333" lon="11.1508106"><ele>494.33333333333337</ele><time>2026-05-01T10:36:44.837Z</time></trkpt><trkpt lat="46.14310588333333" lon="11.15066215"><ele>489.66666666666663</ele><time>2026-05-01T10:36:45.84Z</time></trkpt><trkpt lat="46.14292301666666" lon="11.150542533333331"><ele>485.0</ele><time>2026-05-01T10:36:46.845Z</time></trkpt><trkpt lat="46.1427239" lon="11.1504462"><ele>485.0</ele><time>2026-05-01T10:36:47.837Z</time></trkpt><trkpt lat="46.142509283333325" lon="11.150394216666665"><ele>485.0</ele><time>2026-05-01T10:36:48.833Z</time></trkpt><trkpt lat="46.14229213333333" lon="11.150380933333334"><ele>485.0</ele><time>2026-05-01T10:36:49.849Z</time></trkpt><trkpt lat="46.14209163333333" lon="11.150396583333333"><ele>487.66666666666663</ele><time>2026-05-01T10:36:50.84Z</time></trkpt><trkpt lat="46.141916200000004" lon="11.150418133333334"><ele>490.33333333333337</ele><time>2026-05-01T10:36:51.839Z</time></trkpt><trkpt lat="46.141767333333334" lon="11.150428600000001"><ele>493.0</ele><time>2026-05-01T10:36:52.848Z</time></trkpt><trkpt lat="46.14163713333335" lon="11.150418649999999"><ele>497.4</ele><time>2026-05-01T10:36:53.837Z</time></trkpt><trkpt lat="46.14152130000001" lon="11.150374033333334"><ele>501.79999999999995</ele><time>2026-05-01T10:36:54.84Z</time></trkpt><trkpt lat="46.141431049999994" lon="11.150298316666666"><ele>506.2</ele><time>2026-05-01T10:36:55.859Z</time></trkpt><trkpt lat="46.141372616666665" lon="11.150181483333332"><ele>510.6</ele><time>2026-05-01T10:36:56.839Z</time></trkpt><trkpt lat="46.14135301666666" lon="11.150022166666668"><ele>515.0</ele><time>2026-05-01T10:36:57.839Z</time></trkpt><trkpt lat="46.14137241666668" lon="11.149858983333335"><ele>515.5</ele><time>2026-05-01T10:36:58.846Z</time></trkpt><trkpt lat="46.14142539999999" lon="11.14972405"><ele>516.0</ele><time>2026-05-01T10:36:59.836Z</time></trkpt><trkpt lat="46.14151403333334" lon="11.149629666666666"><ele>516.5</ele><time>2026-05-01T10:37:00.837Z</time></trkpt><trkpt lat="46.14163248333333" lon="11.149551633333331"><ele>517.0</ele><time>2026-05-01T10:37:01.849Z</time></trkpt><trkpt lat="46.1417778" lon="11.149469516666667"><ele>517.0</ele><time>2026-05-01T10:37:02.839Z</time></trkpt><trkpt lat="46.1419403" lon="11.149377966666668"><ele>517.0</ele><time>2026-05-01T10:37:03.839Z</time></trkpt><trkpt lat="46.14211426666668" lon="11.149262366666669"><ele>517.0</ele><time>2026-05-01T10:37:04.834Z</time></trkpt><trkpt lat="46.14230829922944" lon="11.149129124515621"><ele>521.5</ele><time>2026-05-01T10:37:05.838Z</time></trkpt><trkpt lat="46.14250355807286" lon="11.148922603748936"><ele>526.0</ele><time>2026-05-01T10:37:06.849Z</time></trkpt><trkpt lat="46.142712207365875" lon="11.148696908513365"><ele>526.0</ele><time>2026-05-01T10:37:07.844Z</time></trkpt><trkpt lat="46.14291853111728" lon="11.148473928693312"><ele>526.0</ele><time>2026-05-01T10:37:08.839Z</time></trkpt><trkpt lat="46.14310729415457" lon="11.148271226745447"><ele>527.3333333333334</ele><time>2026-05-01T10:37:09.837Z</time></trkpt><trkpt lat="46.14327726710797" lon="11.148095788655128"><ele>528.6666666666666</ele><time>2026-05-01T10:37:10.849Z</time></trkpt><trkpt lat="46.1434363053301" lon="11.147964335723005"><ele>530.0</ele><time>2026-05-01T10:37:11.849Z</time></trkpt><trkpt lat="46.143623394728486" lon="11.147894200921892"><ele>530.0</ele><time>2026-05-01T10:37:12.837Z</time></trkpt><trkpt lat="46.14384201397194" lon="11.147883136960356"><ele>530.0</ele><time>2026-05-01T10:37:13.833Z</time></trkpt><trkpt lat="46.14408375386607" lon="11.147910992925116"><ele>526.5</ele><time>2026-05-01T10:37:14.837Z</time></trkpt><trkpt lat="46.144338762917656" lon="11.147941915802052"><ele>523.0</ele><time>2026-05-01T10:37:15.838Z</time></trkpt><trkpt lat="46.14459043333333" lon="11.147954816666667"><ele>523.0</ele><time>2026-05-01T10:37:16.846Z</time></trkpt><trkpt lat="46.144811366666666" lon="11.147992816666665"><ele>523.0</ele><time>2026-05-01T10:37:17.838Z</time></trkpt><trkpt lat="46.145010750000004" lon="11.148000833333333"><ele>523.0</ele><time>2026-05-01T10:37:18.837Z</time></trkpt><trkpt lat="46.14520140145647" lon="11.147973998792276"><ele>522.3333333333334</ele><time>2026-05-01T10:37:19.846Z</time></trkpt><trkpt lat="46.145377224925596" lon="11.14784938330761"><ele>521.6666666666666</ele><time>2026-05-01T10:37:20.84Z</time></trkpt><trkpt lat="46.145554507115584" lon="11.147705427272486"><ele>521.0</ele><time>2026-05-01T10:37:21.839Z</time></trkpt><trkpt lat="46.14573407888976" lon="11.14755844957968"><ele>525.0</ele><time>2026-05-01T10:37:22.852Z</time></trkpt><trkpt lat="46.145898116666665" lon="11.14739775"><ele>529.0</ele><time>2026-05-01T10:37:23.839Z</time></trkpt><trkpt lat="46.14606038333333" lon="11.147269533333334"><ele>533.0</ele><time>2026-05-01T10:37:24.839Z</time></trkpt><trkpt lat="46.14622495831562" lon="11.14714528774366"><ele>533.0</ele><time>2026-05-01T10:37:25.847Z</time></trkpt><trkpt lat="46.146353915402514" lon="11.146939873145469"><ele>533.0</ele><time>2026-05-01T10:37:26.836Z</time></trkpt><trkpt lat="46.14644682988405" lon="11.14667578411431"><ele>533.0</ele><time>2026-05-01T10:37:27.841Z</time></trkpt><trkpt lat="46.14653505557944" lon="11.146380298684102"><ele>520.5</ele><time>2026-05-01T10:37:28.848Z</time></trkpt><trkpt lat="46.146631063758086" lon="11.146059608820243"><ele>508.0</ele><time>2026-05-01T10:37:29.838Z</time></trkpt><trkpt lat="46.146724884176336" lon="11.14574247174474"><ele>508.0</ele><time>2026-05-01T10:37:30.849Z</time></trkpt><trkpt lat="46.14680722681974" lon="11.145433094939122"><ele>508.0</ele><time>2026-05-01T10:37:31.842Z</time></trkpt><trkpt lat="46.14684565006255" lon="11.145108644367681"><ele>508.5</ele><time>2026-05-01T10:37:32.838Z</time></trkpt><trkpt lat="46.14685083270938" lon="11.1447562469106"><ele>509.0</ele><time>2026-05-01T10:37:33.836Z</time></trkpt><trkpt lat="46.14685028869271" lon="11.144387784809743"><ele>513.5</ele><time>2026-05-01T10:37:34.849Z</time></trkpt><trkpt lat="46.146852884113244" lon="11.144033514240572"><ele>518.0</ele><time>2026-05-01T10:37:35.841Z</time></trkpt><trkpt lat="46.14687929118074" lon="11.14370317545673"><ele>518.0</ele><time>2026-05-01T10:37:36.846Z</time></trkpt><trkpt lat="46.14691972326121" lon="11.14339075523337"><ele>518.0</ele><time>2026-05-01T10:37:37.847Z</time></trkpt><trkpt lat="46.146958400070304" lon="11.14309623672434"><ele>518.0</ele><time>2026-05-01T10:37:38.838Z</time></trkpt><trkpt lat="46.14699049324901" lon="11.142792675287069"><ele>522.0</ele><time>2026-05-01T10:37:39.836Z</time></trkpt><trkpt lat="46.14698538425302" lon="11.142457944818013"><ele>526.0</ele><time>2026-05-01T10:37:40.842Z</time></trkpt><trkpt lat="46.14697088490296" lon="11.142099358729034"><ele>526.0</ele><time>2026-05-01T10:37:41.84Z</time></trkpt><trkpt lat="46.14695537260067" lon="11.141711657835685"><ele>526.0</ele><time>2026-05-01T10:37:42.84Z</time></trkpt><trkpt lat="46.146938853331676" lon="11.141307288594472"><ele>519.0</ele><time>2026-05-01T10:37:43.837Z</time></trkpt><trkpt lat="46.14692321768906" lon="11.140911283870947"><ele>512.0</ele><time>2026-05-01T10:37:44.839Z</time></trkpt><trkpt lat="46.14690751251974" lon="11.14053772741304"><ele>512.0</ele><time>2026-05-01T10:37:45.842Z</time></trkpt><trkpt lat="46.14689141202177" lon="11.140185559949105"><ele>512.0</ele><time>2026-05-01T10:37:46.845Z</time></trkpt><trkpt lat="46.14687631790582" lon="11.139855406709747"><ele>512.0</ele><time>2026-05-01T10:37:47.838Z</time></trkpt><trkpt lat="46.14686200324171" lon="11.13954230263288"><ele>512.0</ele><time>2026-05-01T10:37:48.846Z</time></trkpt><trkpt lat="46.146845938598084" lon="11.139239429565327"><ele>512.0</ele><time>2026-05-01T10:37:49.833Z</time></trkpt><trkpt lat="46.14679143333333" lon="11.138939266666668"><ele>512.0</ele><time>2026-05-01T10:37:50.838Z</time></trkpt><trkpt lat="46.14678046666666" lon="11.138626683333332"><ele>512.0</ele><time>2026-05-01T10:37:51.841Z</time></trkpt><trkpt lat="46.14677960000001" lon="11.138303283333334"><ele>512.0</ele><time>2026-05-01T10:37:52.834Z</time></trkpt><trkpt lat="46.146801866666664" lon="11.137970116666668"><ele>512.0</ele><time>2026-05-01T10:37:53.841Z</time></trkpt><trkpt lat="46.146840516666664" lon="11.137645999999998"><ele>512.0</ele><time>2026-05-01T10:37:54.835Z</time></trkpt><trkpt lat="46.1468816" lon="11.137344883333332"><ele>512.0</ele><time>2026-05-01T10:37:55.845Z</time></trkpt><trkpt lat="46.14691" lon="11.137063966666664"><ele>511.3333333333333</ele><time>2026-05-01T10:37:56.836Z</time></trkpt><trkpt lat="46.14691126666666" lon="11.136797000000001"><ele>510.66666666666663</ele><time>2026-05-01T10:37:57.849Z</time></trkpt><trkpt lat="46.14686848333334" lon="11.136526550000001"><ele>510.0</ele><time>2026-05-01T10:37:58.847Z</time></trkpt><trkpt lat="46.146790633333325" lon="11.13624551666667"><ele>507.33333333333337</ele><time>2026-05-01T10:37:59.838Z</time></trkpt><trkpt lat="46.14670379999999" lon="11.135973066666667"><ele>504.6666666666667</ele><time>2026-05-01T10:38:00.839Z</time></trkpt><trkpt lat="46.14659861666667" lon="11.135712783333334"><ele>502.0</ele><time>2026-05-01T10:38:01.833Z</time></trkpt><trkpt lat="46.146466016666665" lon="11.135461816666668"><ele>502.0</ele><time>2026-05-01T10:38:02.842Z</time></trkpt><trkpt lat="46.14631323333333" lon="11.135231283333333"><ele>502.0</ele><time>2026-05-01T10:38:03.841Z</time></trkpt><trkpt lat="46.14613593333333" lon="11.135025633333333"><ele>502.0</ele><time>2026-05-01T10:38:04.849Z</time></trkpt><trkpt lat="46.1459322" lon="11.13484005"><ele>495.5</ele><time>2026-05-01T10:38:05.841Z</time></trkpt><trkpt lat="46.145709450000005" lon="11.134664916666667"><ele>489.0</ele><time>2026-05-01T10:38:06.838Z</time></trkpt><trkpt lat="46.14547904999999" lon="11.134487233333333"><ele>489.0</ele><time>2026-05-01T10:38:07.851Z</time></trkpt><trkpt lat="46.14524955" lon="11.134307383333331"><ele>489.0</ele><time>2026-05-01T10:38:08.847Z</time></trkpt><trkpt lat="46.145039849999996" lon="11.134141416666667"><ele>484.33333333333337</ele><time>2026-05-01T10:38:09.84Z</time></trkpt><trkpt lat="46.14485623333333" lon="11.134004716666666"><ele>479.6666666666667</ele><time>2026-05-01T10:38:10.833Z</time></trkpt><trkpt lat="46.14468133333333" lon="11.1339172"><ele>475.0</ele><time>2026-05-01T10:38:11.838Z</time></trkpt><trkpt lat="46.14449030000001" lon="11.133886233333332"><ele>475.0</ele><time>2026-05-01T10:38:12.839Z</time></trkpt><trkpt lat="46.14428445" lon="11.133901716666665"><ele>475.0</ele><time>2026-05-01T10:38:13.846Z</time></trkpt><trkpt lat="46.14407671666666" lon="11.13393658333333"><ele>475.0</ele><time>2026-05-01T10:38:14.837Z</time></trkpt><trkpt lat="46.14387233333334" lon="11.133965550000001"><ele>476.33333333333337</ele><time>2026-05-01T10:38:15.846Z</time></trkpt><trkpt lat="46.14367669999999" lon="11.133972100000001"><ele>477.66666666666663</ele><time>2026-05-01T10:38:16.833Z</time></trkpt><trkpt lat="46.14347655" lon="11.133926983333334"><ele>479.0</ele><time>2026-05-01T10:38:17.838Z</time></trkpt><trkpt lat="46.14328135000001" lon="11.133819200000001"><ele>481.0</ele><time>2026-05-01T10:38:18.841Z</time></trkpt><trkpt lat="46.14310053333334" lon="11.133649383333333"><ele>483.0</ele><time>2026-05-01T10:38:19.831Z</time></trkpt><trkpt lat="46.14292291666667" lon="11.133433066666665"><ele>485.0</ele><time>2026-05-01T10:38:20.839Z</time></trkpt><trkpt lat="46.142729849999995" lon="11.133194333333332"><ele>485.0</ele><time>2026-05-01T10:38:21.841Z</time></trkpt><trkpt lat="46.14252426666667" lon="11.132947466666666"><ele>485.0</ele><time>2026-05-01T10:38:22.847Z</time></trkpt><trkpt lat="46.14232308333334" lon="11.132706833333335"><ele>480.0</ele><time>2026-05-01T10:38:23.838Z</time></trkpt><trkpt lat="46.14213441666668" lon="11.132480866666667"><ele>475.0</ele><time>2026-05-01T10:38:24.851Z</time></trkpt><trkpt lat="46.14195388333333" lon="11.132285483333332"><ele>475.0</ele><time>2026-05-01T10:38:25.847Z</time></trkpt><trkpt lat="46.14177038333334" lon="11.132131083333336"><ele>475.0</ele><time>2026-05-01T10:38:26.838Z</time></trkpt><trkpt lat="46.14157938333332" lon="11.132005233333334"><ele>475.0</ele><time>2026-05-01T10:38:27.84Z</time></trkpt><trkpt lat="46.14138126666666" lon="11.13190135"><ele>476.0</ele><time>2026-05-01T10:38:28.831Z</time></trkpt><trkpt lat="46.14117821666667" lon="11.131818749999999"><ele>477.0</ele><time>2026-05-01T10:38:29.838Z</time></trkpt><trkpt lat="46.140961466666674" lon="11.131769283333332"><ele>478.0</ele><time>2026-05-01T10:38:30.842Z</time></trkpt><trkpt lat="46.14072325" lon="11.131758516666665"><ele>477.5</ele><time>2026-05-01T10:38:31.846Z</time></trkpt><trkpt lat="46.14047831666667" lon="11.13177045"><ele>477.0</ele><time>2026-05-01T10:38:32.838Z</time></trkpt><trkpt lat="46.140241249999995" lon="11.13177841666667"><ele>477.0</ele><time>2026-05-01T10:38:33.846Z</time></trkpt><trkpt lat="46.140015016666666" lon="11.131759266666666"><ele>477.0</ele><time>2026-05-01T10:38:34.847Z</time></trkpt><trkpt lat="46.13980538333334" lon="11.131715999999999"><ele>477.0</ele><time>2026-05-01T10:38:35.836Z</time></trkpt><trkpt lat="46.1396111" lon="11.131662266666668"><ele>477.66666666666663</ele><time>2026-05-01T10:38:36.849Z</time></trkpt><trkpt lat="46.13942398333334" lon="11.131607550000002"><ele>478.3333333333333</ele><time>2026-05-01T10:38:37.846Z</time></trkpt><trkpt lat="46.13923580000001" lon="11.131565633333333"><ele>479.0</ele><time>2026-05-01T10:38:38.838Z</time></trkpt><trkpt lat="46.13903998333333" lon="11.131561116666667"><ele>475.3333333333333</ele><time>2026-05-01T10:38:39.842Z</time></trkpt><trkpt lat="46.13884353333333" lon="11.131586983333333"><ele>471.66666666666663</ele><time>2026-05-01T10:38:40.833Z</time></trkpt><trkpt lat="46.13865340000001" lon="11.131615583333332"><ele>468.0</ele><time>2026-05-01T10:38:41.836Z</time></trkpt><trkpt lat="46.1384633" lon="11.1316198"><ele>468.0</ele><time>2026-05-01T10:38:42.845Z</time></trkpt><trkpt lat="46.13826815" lon="11.131597466666664"><ele>468.0</ele><time>2026-05-01T10:38:43.846Z</time></trkpt><trkpt lat="46.13806078333333" lon="11.131557333333335"><ele>468.0</ele><time>2026-05-01T10:38:44.836Z</time></trkpt><trkpt lat="46.137846800000005" lon="11.131493416666668"><ele>464.0</ele><time>2026-05-01T10:38:45.843Z</time></trkpt><trkpt lat="46.137633633333344" lon="11.131430683333335"><ele>460.0</ele><time>2026-05-01T10:38:46.846Z</time></trkpt><trkpt lat="46.137431033333336" lon="11.1313564"><ele>456.0</ele><time>2026-05-01T10:38:47.838Z</time></trkpt><trkpt lat="46.137237383333336" lon="11.131246266666668"><ele>456.0</ele><time>2026-05-01T10:38:48.842Z</time></trkpt><trkpt lat="46.13705646666667" lon="11.131077300000001"><ele>456.0</ele><time>2026-05-01T10:38:49.836Z</time></trkpt><trkpt lat="46.1368983" lon="11.130852633333333"><ele>456.0</ele><time>2026-05-01T10:38:50.836Z</time></trkpt><trkpt lat="46.136762100000006" lon="11.130609799999998"><ele>456.33333333333337</ele><time>2026-05-01T10:38:51.84Z</time></trkpt><trkpt lat="46.13663498333334" lon="11.130393683333335"><ele>456.6666666666667</ele><time>2026-05-01T10:38:52.846Z</time></trkpt><trkpt lat="46.13651223333333" lon="11.130204583333333"><ele>457.0</ele><time>2026-05-01T10:38:53.841Z</time></trkpt><trkpt lat="46.1363913" lon="11.130044100000001"><ele>457.0</ele><time>2026-05-01T10:38:54.841Z</time></trkpt><trkpt lat="46.136268400000006" lon="11.129899833333331"><ele>457.0</ele><time>2026-05-01T10:38:55.847Z</time></trkpt><trkpt lat="46.13614398333334" lon="11.129763866666668"><ele>457.0</ele><time>2026-05-01T10:38:56.838Z</time></trkpt><trkpt lat="46.136016749999996" lon="11.129623366666666"><ele>455.0</ele><time>2026-05-01T10:38:57.84Z</time></trkpt><trkpt lat="46.13588816666667" lon="11.129477316666664"><ele>453.0</ele><time>2026-05-01T10:38:58.853Z</time></trkpt><trkpt lat="46.1357626" lon="11.129333699999998"><ele>451.0</ele><time>2026-05-01T10:38:59.845Z</time></trkpt><trkpt lat="46.135639499999996" lon="11.129196866666666"><ele>451.0</ele><time>2026-05-01T10:39:00.841Z</time></trkpt><trkpt lat="46.13552108333333" lon="11.129067533333334"><ele>451.0</ele><time>2026-05-01T10:39:01.846Z</time></trkpt><trkpt lat="46.13540921666666" lon="11.128942883333332"><ele>451.0</ele><time>2026-05-01T10:39:02.839Z</time></trkpt><trkpt lat="46.135303916666665" lon="11.128823566666666"><ele>451.0</ele><time>2026-05-01T10:39:03.842Z</time></trkpt><trkpt lat="46.13520041666667" lon="11.128711466666667"><ele>448.8</ele><time>2026-05-01T10:39:04.855Z</time></trkpt><trkpt lat="46.13510026666666" lon="11.128608316666668"><ele>446.6</ele><time>2026-05-01T10:39:05.845Z</time></trkpt><trkpt lat="46.13500261666666" lon="11.1285271"><ele>444.4</ele><time>2026-05-01T10:39:06.841Z</time></trkpt><trkpt lat="46.134904983333335" lon="11.12846605"><ele>442.2</ele><time>2026-05-01T10:39:07.845Z</time></trkpt><trkpt lat="46.13481448333334" lon="11.12841205"><ele>440.0</ele><time>2026-05-01T10:39:08.838Z</time></trkpt><trkpt lat="46.134735783333326" lon="11.128346099999998"><ele>439.6</ele><time>2026-05-01T10:39:09.85Z</time></trkpt><trkpt lat="46.13466593333332" lon="11.128265166666665"><ele>439.2</ele><time>2026-05-01T10:39:10.845Z</time></trkpt><trkpt lat="46.134588016666676" lon="11.128195349999999"><ele>438.79999999999995</ele><time>2026-05-01T10:39:11.842Z</time></trkpt><trkpt lat="46.13449646666666" lon="11.1281713"><ele>438.4</ele><time>2026-05-01T10:39:12.846Z</time></trkpt><trkpt lat="46.13440484999999" lon="11.128213016666667"><ele>438.0</ele><time>2026-05-01T10:39:13.846Z</time></trkpt><trkpt lat="46.13431366666667" lon="11.128288083333333"><ele>438.0</ele><time>2026-05-01T10:39:14.84Z</time></trkpt><trkpt lat="46.13421221666667" lon="11.128353850000002"><ele>438.0</ele><time>2026-05-01T10:39:15.841Z</time></trkpt><trkpt lat="46.13409406666666" lon="11.128392716666669"><ele>438.0</ele><time>2026-05-01T10:39:16.842Z</time></trkpt><trkpt lat="46.13394995" lon="11.1284212"><ele>438.0</ele><time>2026-05-01T10:39:17.843Z</time></trkpt><trkpt lat="46.133784666666664" lon="11.128467833333332"><ele>437.0</ele><time>2026-05-01T10:39:18.841Z</time></trkpt><trkpt lat="46.133611566666666" lon="11.128536000000002"><ele>436.0</ele><time>2026-05-01T10:39:19.848Z</time></trkpt><trkpt lat="46.133442833333326" lon="11.128608599999998"><ele>435.0</ele><time>2026-05-01T10:39:20.862Z</time></trkpt><trkpt lat="46.13328365" lon="11.128673083333334"><ele>434.0</ele><time>2026-05-01T10:39:21.842Z</time></trkpt><trkpt lat="46.13313226666668" lon="11.128734083333333"><ele>433.0</ele><time>2026-05-01T10:39:22.855Z</time></trkpt><trkpt lat="46.13298096666667" lon="11.128788933333333"><ele>432.0</ele><time>2026-05-01T10:39:23.84Z</time></trkpt><trkpt lat="46.13282663333333" lon="11.128816166666665"><ele>432.0</ele><time>2026-05-01T10:39:24.84Z</time></trkpt><trkpt lat="46.132671349999995" lon="11.128805333333332"><ele>432.0</ele><time>2026-05-01T10:39:25.834Z</time></trkpt><trkpt lat="46.13251586666667" lon="11.12876545"><ele>432.0</ele><time>2026-05-01T10:39:26.838Z</time></trkpt><trkpt lat="46.132361800000005" lon="11.12870705"><ele>434.33333333333337</ele><time>2026-05-01T10:39:27.842Z</time></trkpt><trkpt lat="46.1322061" lon="11.128644633333334"><ele>436.6666666666667</ele><time>2026-05-01T10:39:28.849Z</time></trkpt><trkpt lat="46.13204746666667" lon="11.128582449999998"><ele>439.0</ele><time>2026-05-01T10:39:29.847Z</time></trkpt><trkpt lat="46.13189351666667" lon="11.128518750000001"><ele>439.0</ele><time>2026-05-01T10:39:30.834Z</time></trkpt><trkpt lat="46.13174533333334" lon="11.128451283333336"><ele>439.0</ele><time>2026-05-01T10:39:31.847Z</time></trkpt><trkpt lat="46.131601849999996" lon="11.128369066666668"><ele>439.0</ele><time>2026-05-01T10:39:32.838Z</time></trkpt><trkpt lat="46.131468533333326" lon="11.128263966666669"><ele>438.0</ele><time>2026-05-01T10:39:33.853Z</time></trkpt><trkpt lat="46.13134526666666" lon="11.128143849999999"><ele>437.0</ele><time>2026-05-01T10:39:34.853Z</time></trkpt><trkpt lat="46.13123035" lon="11.128017566666664"><ele>436.0</ele><time>2026-05-01T10:39:35.838Z</time></trkpt><trkpt lat="46.131124183333334" lon="11.127891599999998"><ele>435.0</ele><time>2026-05-01T10:39:36.846Z</time></trkpt><trkpt lat="46.13102033333333" lon="11.127772366666665"><ele>435.0</ele><time>2026-05-01T10:39:37.834Z</time></trkpt><trkpt lat="46.130920066666675" lon="11.127660449999999"><ele>435.0</ele><time>2026-05-01T10:39:38.839Z</time></trkpt><trkpt lat="46.13082188333333" lon="11.127545983333334"><ele>435.0</ele><time>2026-05-01T10:39:39.836Z</time></trkpt><trkpt lat="46.13072558333333" lon="11.12742305"><ele>435.0</ele><time>2026-05-01T10:39:40.846Z</time></trkpt><trkpt lat="46.13063648333333" lon="11.127285566666668"><ele>435.0</ele><time>2026-05-01T10:39:41.84Z</time></trkpt><trkpt lat="46.13056410000001" lon="11.127130016666667"><ele>435.0</ele><time>2026-05-01T10:39:42.841Z</time></trkpt><trkpt lat="46.13051881666667" lon="11.126957216666666"><ele>435.0</ele><time>2026-05-01T10:39:43.852Z</time></trkpt><trkpt lat="46.13051086666666" lon="11.126769283333331"><ele>435.0</ele><time>2026-05-01T10:39:44.849Z</time></trkpt><trkpt lat="46.13054471666666" lon="11.126572666666668"><ele>435.33333333333337</ele><time>2026-05-01T10:39:45.842Z</time></trkpt><trkpt lat="46.13061493333333" lon="11.126381283333334"><ele>435.6666666666667</ele><time>2026-05-01T10:39:46.842Z</time></trkpt><trkpt lat="46.13072026666667" lon="11.126219783333333"><ele>436.0</ele><time>2026-05-01T10:39:47.839Z</time></trkpt><trkpt lat="46.13085738333333" lon="11.126108766666666"><ele>437.33333333333337</ele><time>2026-05-01T10:39:48.841Z</time></trkpt><trkpt lat="46.13101415" lon="11.126044733333332"><ele>438.66666666666663</ele><time>2026-05-01T10:39:49.852Z</time></trkpt><trkpt lat="46.13117779999999" lon="11.1259979"><ele>440.0</ele><time>2026-05-01T10:39:50.839Z</time></trkpt><trkpt lat="46.13134378333333" lon="11.125955733333333"><ele>440.0</ele><time>2026-05-01T10:39:51.84Z</time></trkpt><trkpt lat="46.131509466666664" lon="11.125903100000002"><ele>440.0</ele><time>2026-05-01T10:39:52.848Z</time></trkpt><trkpt lat="46.131668383333334" lon="11.125826516666667"><ele>440.0</ele><time>2026-05-01T10:39:53.839Z</time></trkpt><trkpt lat="46.13181091666667" lon="11.12570345"><ele>439.3333333333333</ele><time>2026-05-01T10:39:54.851Z</time></trkpt><trkpt lat="46.131934316666666" lon="11.125533566666665"><ele>438.66666666666663</ele><time>2026-05-01T10:39:55.846Z</time></trkpt><trkpt lat="46.13202806666666" lon="11.125324983333334"><ele>438.0</ele><time>2026-05-01T10:39:56.837Z</time></trkpt><trkpt lat="46.132092583333325" lon="11.125091716666669"><ele>436.0</ele><time>2026-05-01T10:39:57.842Z</time></trkpt><trkpt lat="46.132121966666666" lon="11.124841716666666"><ele>434.0</ele><time>2026-05-01T10:39:58.848Z</time></trkpt><trkpt lat="46.132106433333334" lon="11.124586299999997"><ele>432.0</ele><time>2026-05-01T10:39:59.839Z</time></trkpt><trkpt lat="46.13206855" lon="11.124324300000001"><ele>432.0</ele><time>2026-05-01T10:40:00.834Z</time></trkpt><trkpt lat="46.13203761666667" lon="11.124063916666667"><ele>432.0</ele><time>2026-05-01T10:40:01.847Z</time></trkpt><trkpt lat="46.13202979999999" lon="11.123807466666664"><ele>432.0</ele><time>2026-05-01T10:40:02.839Z</time></trkpt><trkpt lat="46.13206416666667" lon="11.123557733333334"><ele>428.66666666666663</ele><time>2026-05-01T10:40:03.842Z</time></trkpt><trkpt lat="46.132119716666665" lon="11.123319683333333"><ele>425.3333333333333</ele><time>2026-05-01T10:40:04.853Z</time></trkpt><trkpt lat="46.132157033333336" lon="11.123092833333331"><ele>422.0</ele><time>2026-05-01T10:40:05.839Z</time></trkpt><trkpt lat="46.1321607" lon="11.122869600000001"><ele>417.66666666666663</ele><time>2026-05-01T10:40:06.843Z</time></trkpt><trkpt lat="46.13212436666666" lon="11.122656566666668"><ele>413.33333333333337</ele><time>2026-05-01T10:40:07.847Z</time></trkpt><trkpt lat="46.13204848333333" lon="11.122464616666665"><ele>409.0</ele><time>2026-05-01T10:40:08.84Z</time></trkpt><trkpt lat="46.13192741666666" lon="11.122304149999998"><ele>404.33333333333337</ele><time>2026-05-01T10:40:09.845Z</time></trkpt><trkpt lat="46.13177133333333" lon="11.122187116666664"><ele>399.66666666666663</ele><time>2026-05-01T10:40:10.854Z</time></trkpt><trkpt lat="46.131589983333335" lon="11.122097400000001"><ele>395.0</ele><time>2026-05-01T10:40:11.84Z</time></trkpt><trkpt lat="46.13139646666667" lon="11.122005466666668"><ele>395.0</ele><time>2026-05-01T10:40:12.842Z</time></trkpt><trkpt lat="46.13120548333333" lon="11.121910933333334"><ele>395.0</ele><time>2026-05-01T10:40:13.851Z</time></trkpt><trkpt lat="46.13102453333333" lon="11.121815766666668"><ele>395.0</ele><time>2026-05-01T10:40:14.837Z</time></trkpt><trkpt lat="46.13084980000001" lon="11.121715566666667"><ele>395.66666666666663</ele><time>2026-05-01T10:40:15.847Z</time></trkpt><trkpt lat="46.13068355000001" lon="11.121616233333334"><ele>396.33333333333337</ele><time>2026-05-01T10:40:16.849Z</time></trkpt><trkpt lat="46.130522983333336" lon="11.12152305"><ele>397.0</ele><time>2026-05-01T10:40:17.839Z</time></trkpt><trkpt lat="46.13036913333334" lon="11.12143955"><ele>390.6666666666667</ele><time>2026-05-01T10:40:18.843Z</time></trkpt><trkpt lat="46.13021853333333" lon="11.121365266666665"><ele>384.33333333333337</ele><time>2026-05-01T10:40:19.854Z</time></trkpt><trkpt lat="46.13007371666666" lon="11.121298650000002"><ele>378.0</ele><time>2026-05-01T10:40:20.842Z</time></trkpt><trkpt lat="46.1299305" lon="11.12124265"><ele>377.5</ele><time>2026-05-01T10:40:21.841Z</time></trkpt><trkpt lat="46.12978918333334" lon="11.12119198333333"><ele>377.0</ele><time>2026-05-01T10:40:22.847Z</time></trkpt><trkpt lat="46.129644899999995" lon="11.121146"><ele>376.5</ele><time>2026-05-01T10:40:23.85Z</time></trkpt><trkpt lat="46.12949471666668" lon="11.121099050000002"><ele>376.0</ele><time>2026-05-01T10:40:24.844Z</time></trkpt><trkpt lat="46.129339200000004" lon="11.121050083333333"><ele>376.0</ele><time>2026-05-01T10:40:25.834Z</time></trkpt><trkpt lat="46.12918078333333" lon="11.1210001"><ele>376.0</ele><time>2026-05-01T10:40:26.839Z</time></trkpt><trkpt lat="46.12902275" lon="11.120946883333334"><ele>376.0</ele><time>2026-05-01T10:40:27.841Z</time></trkpt><trkpt lat="46.12887098333334" lon="11.120896799999999"><ele>377.0</ele><time>2026-05-01T10:40:28.851Z</time></trkpt><trkpt lat="46.12872448333333" lon="11.120845533333332"><ele>378.0</ele><time>2026-05-01T10:40:29.837Z</time></trkpt><trkpt lat="46.128594850000006" lon="11.120767433333333"><ele>379.0</ele><time>2026-05-01T10:40:30.841Z</time></trkpt><trkpt lat="46.12848893333333" lon="11.120647450000002"><ele>380.0</ele><time>2026-05-01T10:40:31.847Z</time></trkpt><trkpt lat="46.12841296666667" lon="11.120499983333332"><ele>377.0</ele><time>2026-05-01T10:40:32.837Z</time></trkpt><trkpt lat="46.12836605000001" lon="11.120336783333334"><ele>374.0</ele><time>2026-05-01T10:40:33.841Z</time></trkpt><trkpt lat="46.12833845" lon="11.120164133333333"><ele>371.0</ele><time>2026-05-01T10:40:34.853Z</time></trkpt><trkpt lat="46.12832081666667" lon="11.119982766666665"><ele>368.0</ele><time>2026-05-01T10:40:35.842Z</time></trkpt><trkpt lat="46.12830626666667" lon="11.119798483333334"><ele>369.0</ele><time>2026-05-01T10:40:36.848Z</time></trkpt><trkpt lat="46.12828771666666" lon="11.119619900000002"><ele>370.0</ele><time>2026-05-01T10:40:37.853Z</time></trkpt><trkpt lat="46.12827078333333" lon="11.119449666666666"><ele>371.0</ele><time>2026-05-01T10:40:38.84Z</time></trkpt><trkpt lat="46.12825408333333" lon="11.119287233333333"><ele>372.0</ele><time>2026-05-01T10:40:39.844Z</time></trkpt><trkpt lat="46.12822251666666" lon="11.119130333333331"><ele>368.5</ele><time>2026-05-01T10:40:40.856Z</time></trkpt><trkpt lat="46.128162833333334" lon="11.118980933333335"><ele>365.0</ele><time>2026-05-01T10:40:41.839Z</time></trkpt><trkpt lat="46.12808229545355" lon="11.118823112104554"><ele>361.5</ele><time>2026-05-01T10:40:42.842Z</time></trkpt><trkpt lat="46.127947411230025" lon="11.11871337270501"><ele>358.0</ele><time>2026-05-01T10:40:43.847Z</time></trkpt><trkpt lat="46.127784854568965" lon="11.118638175211132"><ele>358.0</ele><time>2026-05-01T10:40:44.839Z</time></trkpt><trkpt lat="46.12760440927905" lon="11.118565602826076"><ele>358.0</ele><time>2026-05-01T10:40:45.841Z</time></trkpt><trkpt lat="46.127419314603834" lon="11.118493115660353"><ele>358.0</ele><time>2026-05-01T10:40:46.848Z</time></trkpt><trkpt lat="46.12724585056736" lon="11.118424574444129"><ele>357.66666666666663</ele><time>2026-05-01T10:40:47.843Z</time></trkpt><trkpt lat="46.127083231205035" lon="11.11836031895548"><ele>357.3333333333333</ele><time>2026-05-01T10:40:48.843Z</time></trkpt><trkpt lat="46.126923149999996" lon="11.1183218"><ele>357.0</ele><time>2026-05-01T10:40:49.85Z</time></trkpt><trkpt lat="46.12678064699633" lon="11.118241758103217"><ele>353.75</ele><time>2026-05-01T10:40:50.839Z</time></trkpt><trkpt lat="46.12663263333334" lon="11.118222233333332"><ele>350.5</ele><time>2026-05-01T10:40:51.841Z</time></trkpt><trkpt lat="46.12649011666667" lon="11.118194416666665"><ele>347.25</ele><time>2026-05-01T10:40:52.843Z</time></trkpt><trkpt lat="46.126354000000006" lon="11.118188750000002"><ele>344.0</ele><time>2026-05-01T10:40:53.839Z</time></trkpt><trkpt lat="46.126221300000005" lon="11.118192266666664"><ele>343.75</ele><time>2026-05-01T10:40:54.841Z</time></trkpt><trkpt lat="46.12609476499638" lon="11.118168865710487"><ele>343.5</ele><time>2026-05-01T10:40:55.855Z</time></trkpt><trkpt lat="46.12597474999999" lon="11.118183066666665"><ele>343.25</ele><time>2026-05-01T10:40:56.843Z</time></trkpt><trkpt lat="46.12585795" lon="11.118140966666665"><ele>343.0</ele><time>2026-05-01T10:40:57.844Z</time></trkpt><trkpt lat="46.12575053333333" lon="11.118049583333335"><ele>343.0</ele><time>2026-05-01T10:40:58.846Z</time></trkpt><trkpt lat="46.12566551666667" lon="11.117912816666667"><ele>343.0</ele><time>2026-05-01T10:40:59.838Z</time></trkpt><trkpt lat="46.125609950000005" lon="11.117741666666666"><ele>343.0</ele><time>2026-05-01T10:41:00.851Z</time></trkpt><trkpt lat="46.12559386666667" lon="11.1175476"><ele>343.0</ele><time>2026-05-01T10:41:01.834Z</time></trkpt><trkpt lat="46.125627216666665" lon="11.1173538"><ele>342.0</ele><time>2026-05-01T10:41:02.841Z</time></trkpt><trkpt lat="46.125701750000005" lon="11.117182483333332"><ele>341.0</ele><time>2026-05-01T10:41:03.841Z</time></trkpt><trkpt lat="46.12580996666667" lon="11.117052033333334"><ele>340.0</ele><time>2026-05-01T10:41:04.835Z</time></trkpt><trkpt lat="46.12594285" lon="11.11696165"><ele>339.0</ele><time>2026-05-01T10:41:05.839Z</time></trkpt><trkpt lat="46.126079266666665" lon="11.11689265"><ele>338.75</ele><time>2026-05-01T10:41:06.837Z</time></trkpt><trkpt lat="46.126209716666665" lon="11.116841383333334"><ele>338.5</ele><time>2026-05-01T10:41:07.847Z</time></trkpt><trkpt lat="46.126342599999994" lon="11.116813433333334"><ele>338.25</ele><time>2026-05-01T10:41:08.841Z</time></trkpt><trkpt lat="46.12647635" lon="11.116810083333334"><ele>338.0</ele><time>2026-05-01T10:41:09.844Z</time></trkpt><trkpt lat="46.12660856666667" lon="11.116822966666666"><ele>338.0</ele><time>2026-05-01T10:41:10.848Z</time></trkpt><trkpt lat="46.12673301666667" lon="11.116839316666669"><ele>338.0</ele><time>2026-05-01T10:41:11.841Z</time></trkpt><trkpt lat="46.12685021666666" lon="11.116846516666664"><ele>338.0</ele><time>2026-05-01T10:41:12.849Z</time></trkpt><trkpt lat="46.12695850000001" lon="11.116838466666664"><ele>338.0</ele><time>2026-05-01T10:41:13.834Z</time></trkpt><trkpt lat="46.12706081666667" lon="11.11681081666667"><ele>338.0</ele><time>2026-05-01T10:41:14.841Z</time></trkpt><trkpt lat="46.12715933333334" lon="11.116764183333332"><ele>338.0</ele><time>2026-05-01T10:41:15.834Z</time></trkpt><trkpt lat="46.127257166666666" lon="11.11669865"><ele>338.0</ele><time>2026-05-01T10:41:16.848Z</time></trkpt><trkpt lat="46.127352833333326" lon="11.1166159"><ele>338.0</ele><time>2026-05-01T10:41:17.843Z</time></trkpt><trkpt lat="46.12744715000001" lon="11.116522316666666"><ele>338.0</ele><time>2026-05-01T10:41:18.842Z</time></trkpt><trkpt lat="46.12754126666667" lon="11.116417883333334"><ele>336.5</ele><time>2026-05-01T10:41:19.833Z</time></trkpt><trkpt lat="46.127635933333345" lon="11.116308700000003"><ele>335.0</ele><time>2026-05-01T10:41:20.855Z</time></trkpt><trkpt lat="46.12773823333333" lon="11.116196616666665"><ele>333.5</ele><time>2026-05-01T10:41:21.84Z</time></trkpt><trkpt lat="46.12784951666666" lon="11.1160902"><ele>332.0</ele><time>2026-05-01T10:41:22.834Z</time></trkpt><trkpt lat="46.12796889999999" lon="11.115996883333333"><ele>332.0</ele><time>2026-05-01T10:41:23.839Z</time></trkpt><trkpt lat="46.128099983333335" lon="11.115930416666666"><ele>332.0</ele><time>2026-05-01T10:41:24.841Z</time></trkpt><trkpt lat="46.12824025" lon="11.115889216666668"><ele>332.0</ele><time>2026-05-01T10:41:25.846Z</time></trkpt><trkpt lat="46.12837713333334" lon="11.115855266666664"><ele>332.0</ele><time>2026-05-01T10:41:26.838Z</time></trkpt><trkpt lat="46.12851521666666" lon="11.115836866666667"><ele>333.6666666666667</ele><time>2026-05-01T10:41:27.848Z</time></trkpt><trkpt lat="46.128662529481325" lon="11.115873804507657"><ele>335.3333333333333</ele><time>2026-05-01T10:41:28.853Z</time></trkpt><trkpt lat="46.12880979216649" lon="11.115937946620523"><ele>337.0</ele><time>2026-05-01T10:41:29.839Z</time></trkpt><trkpt lat="46.1289670417342" lon="11.116022104206687"><ele>331.0</ele><time>2026-05-01T10:41:30.844Z</time></trkpt><trkpt lat="46.12912330173076" lon="11.116105732168538"><ele>325.0</ele><time>2026-05-01T10:41:31.834Z</time></trkpt><trkpt lat="46.12927320533851" lon="11.116186521568295"><ele>319.0</ele><time>2026-05-01T10:41:32.841Z</time></trkpt><trkpt lat="46.129410217801656" lon="11.116262286335992"><ele>319.0</ele><time>2026-05-01T10:41:33.842Z</time></trkpt><trkpt lat="46.12953291858852" lon="11.11633311693137"><ele>319.0</ele><time>2026-05-01T10:41:34.851Z</time></trkpt><trkpt lat="46.129643041112054" lon="11.11639160671187"><ele>319.0</ele><time>2026-05-01T10:41:35.841Z</time></trkpt><trkpt lat="46.12973878333334" lon="11.116398566666664"><ele>319.0</ele><time>2026-05-01T10:41:36.851Z</time></trkpt><trkpt lat="46.12981934999999" lon="11.11637345"><ele>319.0</ele><time>2026-05-01T10:41:37.851Z</time></trkpt><trkpt lat="46.12987266666667" lon="11.116296250000001"><ele>319.0</ele><time>2026-05-01T10:41:38.838Z</time></trkpt><trkpt lat="46.12988211666667" lon="11.116182683333335"><ele>319.0</ele><time>2026-05-01T10:41:39.843Z</time></trkpt><trkpt lat="46.12984351666667" lon="11.11606705"><ele>319.0</ele><time>2026-05-01T10:41:40.832Z</time></trkpt><trkpt lat="46.1297665" lon="11.115989233333334"><ele>319.0</ele><time>2026-05-01T10:41:41.838Z</time></trkpt><trkpt lat="46.129658000000006" lon="11.115948266666665"><ele>319.0</ele><time>2026-05-01T10:41:42.843Z</time></trkpt><trkpt lat="46.1295328" lon="11.115914433333334"><ele>319.0</ele><time>2026-05-01T10:41:43.863Z</time></trkpt><trkpt lat="46.12939708333333" lon="11.11586605"><ele>319.0</ele><time>2026-05-01T10:41:44.838Z</time></trkpt><trkpt lat="46.1292542" lon="11.1157981"><ele>319.0</ele><time>2026-05-01T10:41:45.852Z</time></trkpt><trkpt lat="46.129114900000005" lon="11.115704766666667"><ele>319.0</ele><time>2026-05-01T10:41:46.85Z</time></trkpt><trkpt lat="46.12898748333334" lon="11.11559725"><ele>317.0</ele><time>2026-05-01T10:41:47.837Z</time></trkpt><trkpt lat="46.12888656666667" lon="11.115504300000001"><ele>315.0</ele><time>2026-05-01T10:41:48.84Z</time></trkpt><trkpt lat="46.128819783333334" lon="11.115439966666669"><ele>313.0</ele><time>2026-05-01T10:41:49.847Z</time></trkpt><trkpt lat="46.128791066666665" lon="11.1153248"><ele>311.0</ele><time>2026-05-01T10:41:51.848Z</time></trkpt><trkpt lat="46.1288775" lon="11.115302350000002"><ele>309.0</ele><time>2026-05-01T10:41:53.839Z</time></trkpt><trkpt lat="46.128952899999994" lon="11.115334066666666"><ele>309.0</ele><time>2026-05-01T10:41:54.846Z</time></trkpt><trkpt lat="46.12903343333334" lon="11.115397166666666"><ele>309.0</ele><time>2026-05-01T10:41:55.849Z</time></trkpt><trkpt lat="46.129118649999995" lon="11.11549355"><ele>309.0</ele><time>2026-05-01T10:41:56.84Z</time></trkpt><trkpt lat="46.12920721666666" lon="11.115586450000002"><ele>309.0</ele><time>2026-05-01T10:41:57.841Z</time></trkpt><trkpt lat="46.12931041666667" lon="11.115636949999999"><ele>309.0</ele><time>2026-05-01T10:41:58.847Z</time></trkpt><trkpt lat="46.12942775" lon="11.115640166666665"><ele>305.5</ele><time>2026-05-01T10:41:59.84Z</time></trkpt><trkpt lat="46.12954565" lon="11.115601466666664"><ele>302.0</ele><time>2026-05-01T10:42:00.851Z</time></trkpt><trkpt lat="46.12965938333333" lon="11.115547833333334"><ele>298.5</ele><time>2026-05-01T10:42:01.837Z</time></trkpt><trkpt lat="46.12976714999999" lon="11.115508199999999"><ele>295.0</ele><time>2026-05-01T10:42:02.841Z</time></trkpt><trkpt lat="46.129871416666674" lon="11.115502966666668"><ele>293.2</ele><time>2026-05-01T10:42:03.848Z</time></trkpt><trkpt lat="46.12996884999999" lon="11.115533699999999"><ele>291.4</ele><time>2026-05-01T10:42:04.855Z</time></trkpt><trkpt lat="46.13006035" lon="11.115584916666666"><ele>289.6</ele><time>2026-05-01T10:42:05.839Z</time></trkpt><trkpt lat="46.13016328333333" lon="11.115649716666667"><ele>287.8</ele><time>2026-05-01T10:42:06.842Z</time></trkpt><trkpt lat="46.13028013333332" lon="11.1157183"><ele>286.0</ele><time>2026-05-01T10:42:07.848Z</time></trkpt><trkpt lat="46.130411050000006" lon="11.115792350000001"><ele>287.3333333333333</ele><time>2026-05-01T10:42:08.838Z</time></trkpt><trkpt lat="46.130555433333335" lon="11.11587465"><ele>288.6666666666667</ele><time>2026-05-01T10:42:09.842Z</time></trkpt><trkpt lat="46.130701200000004" lon="11.115966933333334"><ele>290.0</ele><time>2026-05-01T10:42:10.854Z</time></trkpt><trkpt lat="46.13084403333334" lon="11.116053533333334"><ele>290.0</ele><time>2026-05-01T10:42:11.841Z</time></trkpt><trkpt lat="46.1309844" lon="11.1161071"><ele>290.0</ele><time>2026-05-01T10:42:12.844Z</time></trkpt><trkpt lat="46.1311241" lon="11.116119133333333"><ele>290.0</ele><time>2026-05-01T10:42:13.848Z</time></trkpt><trkpt lat="46.131268850000005" lon="11.116097766666666"><ele>290.0</ele><time>2026-05-01T10:42:14.838Z</time></trkpt><trkpt lat="46.131420766666665" lon="11.116064933333334"><ele>289.5</ele><time>2026-05-01T10:42:15.841Z</time></trkpt><trkpt lat="46.13156996666667" lon="11.116039266666666"><ele>289.0</ele><time>2026-05-01T10:42:16.847Z</time></trkpt><trkpt lat="46.13170933333334" lon="11.116023483333334"><ele>288.5</ele><time>2026-05-01T10:42:17.844Z</time></trkpt><trkpt lat="46.13184018333333" lon="11.116022666666668"><ele>288.0</ele><time>2026-05-01T10:42:18.852Z</time></trkpt><trkpt lat="46.13196271666668" lon="11.116034033333337"><ele>288.0</ele><time>2026-05-01T10:42:19.846Z</time></trkpt><trkpt lat="46.13207810000001" lon="11.116047066666665"><ele>288.0</ele><time>2026-05-01T10:42:20.841Z</time></trkpt><trkpt lat="46.13218791666666" lon="11.116039733333333"><ele>288.0</ele><time>2026-05-01T10:42:21.842Z</time></trkpt><trkpt lat="46.13230253333332" lon="11.116002199999999"><ele>288.0</ele><time>2026-05-01T10:42:22.848Z</time></trkpt><trkpt lat="46.13243023333333" lon="11.115962033333336"><ele>287.25</ele><time>2026-05-01T10:42:23.838Z</time></trkpt><trkpt lat="46.13256691666667" lon="11.115908983333334"><ele>286.5</ele><time>2026-05-01T10:42:24.843Z</time></trkpt><trkpt lat="46.132698016666666" lon="11.115822800000002"><ele>285.75</ele><time>2026-05-01T10:42:25.85Z</time></trkpt><trkpt lat="46.13282195" lon="11.115722999999997"><ele>285.0</ele><time>2026-05-01T10:42:26.841Z</time></trkpt><trkpt lat="46.13293208333333" lon="11.115620100000001"><ele>283.0</ele><time>2026-05-01T10:42:27.841Z</time></trkpt><trkpt lat="46.13302319999999" lon="11.115516466666667"><ele>281.0</ele><time>2026-05-01T10:42:28.844Z</time></trkpt><trkpt lat="46.13311198333334" lon="11.115434866666666"><ele>279.0</ele><time>2026-05-01T10:42:29.842Z</time></trkpt><trkpt lat="46.133211683333336" lon="11.115390749999998"><ele>277.0</ele><time>2026-05-01T10:42:30.849Z</time></trkpt><trkpt lat="46.13333121666666" lon="11.115364266666665"><ele>275.0</ele><time>2026-05-01T10:42:31.847Z</time></trkpt><trkpt lat="46.13347661666667" lon="11.115334333333331"><ele>273.0</ele><time>2026-05-01T10:42:32.843Z</time></trkpt><trkpt lat="46.13364058333333" lon="11.115306633333335"><ele>271.0</ele><time>2026-05-01T10:42:33.844Z</time></trkpt><trkpt lat="46.133809816666655" lon="11.115292116666668"><ele>269.0</ele><time>2026-05-01T10:42:34.851Z</time></trkpt><trkpt lat="46.13396788333333" lon="11.115266799999999"><ele>267.75</ele><time>2026-05-01T10:42:35.84Z</time></trkpt><trkpt lat="46.13411026666666" lon="11.115231683333331"><ele>266.5</ele><time>2026-05-01T10:42:36.843Z</time></trkpt><trkpt lat="46.13423981666667" lon="11.115205233333333"><ele>265.25</ele><time>2026-05-01T10:42:37.833Z</time></trkpt><trkpt lat="46.13435671666666" lon="11.115194933333333"><ele>264.0</ele><time>2026-05-01T10:42:38.84Z</time></trkpt><trkpt lat="46.13445711666667" lon="11.115216916666668"><ele>264.0</ele><time>2026-05-01T10:42:39.845Z</time></trkpt><trkpt lat="46.13454058333333" lon="11.115290716666667"><ele>264.0</ele><time>2026-05-01T10:42:40.852Z</time></trkpt><trkpt lat="46.134596316666666" lon="11.115410683333335"><ele>264.0</ele><time>2026-05-01T10:42:41.84Z</time></trkpt><trkpt lat="46.13463215" lon="11.115565433333332"><ele>264.0</ele><time>2026-05-01T10:42:42.838Z</time></trkpt><trkpt lat="46.13465258333334" lon="11.11574735"><ele>264.0</ele><time>2026-05-01T10:42:43.848Z</time></trkpt><trkpt lat="46.13466458333334" lon="11.115944633333333"><ele>263.4</ele><time>2026-05-01T10:42:44.841Z</time></trkpt><trkpt lat="46.13468278333333" lon="11.116131916666667"><ele>262.79999999999995</ele><time>2026-05-01T10:42:45.842Z</time></trkpt><trkpt lat="46.134715883333335" lon="11.116293083333334"><ele>262.20000000000005</ele><time>2026-05-01T10:42:46.853Z</time></trkpt><trkpt lat="46.13477285000001" lon="11.11641345"><ele>261.6</ele><time>2026-05-01T10:42:47.843Z</time></trkpt><trkpt lat="46.1348521" lon="11.116486583333336"><ele>261.0</ele><time>2026-05-01T10:42:48.842Z</time></trkpt><trkpt lat="46.13493688333333" lon="11.116515983333333"><ele>261.0</ele><time>2026-05-01T10:42:49.849Z</time></trkpt><trkpt lat="46.13501695" lon="11.116492333333333"><ele>261.0</ele><time>2026-05-01T10:42:50.84Z</time></trkpt><trkpt lat="46.13510135954401" lon="11.116424109538405"><ele>261.0</ele><time>2026-05-01T10:42:51.833Z</time></trkpt><trkpt lat="46.13516175474316" lon="11.116291187895069"><ele>261.0</ele><time>2026-05-01T10:42:52.848Z</time></trkpt><trkpt lat="46.13521135685531" lon="11.116146608476484"><ele>261.0</ele><time>2026-05-01T10:42:53.84Z</time></trkpt><trkpt lat="46.135225680852464" lon="11.115999213764548"><ele>261.0</ele><time>2026-05-01T10:42:54.843Z</time></trkpt><trkpt lat="46.135201366666664" lon="11.115887066666668"><ele>261.0</ele><time>2026-05-01T10:42:55.834Z</time></trkpt><trkpt lat="46.1352282" lon="11.115802283333336"><ele>261.0</ele><time>2026-05-01T10:42:56.851Z</time></trkpt><trkpt lat="46.135338733333334" lon="11.11576255"><ele>261.0</ele><time>2026-05-01T10:42:58.848Z</time></trkpt><trkpt lat="46.13540748333333" lon="11.115793616666668"><ele>261.0</ele><time>2026-05-01T10:42:59.841Z</time></trkpt><trkpt lat="46.13549116666666" lon="11.1158423"><ele>261.0</ele><time>2026-05-01T10:43:00.843Z</time></trkpt><trkpt lat="46.1355848" lon="11.115907466666666"><ele>261.0</ele><time>2026-05-01T10:43:01.85Z</time></trkpt><trkpt lat="46.13568076666667" lon="11.115993366666666"><ele>261.0</ele><time>2026-05-01T10:43:02.842Z</time></trkpt><trkpt lat="46.13577531666666" lon="11.116100333333335"><ele>261.0</ele><time>2026-05-01T10:43:03.836Z</time></trkpt><trkpt lat="46.13586045" lon="11.1162053"><ele>261.0</ele><time>2026-05-01T10:43:04.854Z</time></trkpt><trkpt lat="46.135940700000006" lon="11.116306283333332"><ele>261.0</ele><time>2026-05-01T10:43:05.84Z</time></trkpt><trkpt lat="46.13601165" lon="11.116407233333332"><ele>261.0</ele><time>2026-05-01T10:43:06.844Z</time></trkpt><trkpt lat="46.13607558333333" lon="11.116509033333333"><ele>261.0</ele><time>2026-05-01T10:43:07.849Z</time></trkpt><trkpt lat="46.13614688333334" lon="11.116598783333332"><ele>261.0</ele><time>2026-05-01T10:43:08.841Z</time></trkpt><trkpt lat="46.136237216666665" lon="11.116670883333333"><ele>261.0</ele><time>2026-05-01T10:43:09.854Z</time></trkpt><trkpt lat="46.13634281666666" lon="11.11673025"><ele>261.0</ele><time>2026-05-01T10:43:10.848Z</time></trkpt><trkpt lat="46.13644385" lon="11.1167871"><ele>261.0</ele><time>2026-05-01T10:43:11.842Z</time></trkpt><trkpt lat="46.13653931666666" lon="11.116834083333334"><ele>261.0</ele><time>2026-05-01T10:43:12.834Z</time></trkpt><trkpt lat="46.13663143333333" lon="11.116850900000001"><ele>261.0</ele><time>2026-05-01T10:43:13.848Z</time></trkpt><trkpt lat="46.136715566666666" lon="11.116843950000002"><ele>261.0</ele><time>2026-05-01T10:43:14.841Z</time></trkpt><trkpt lat="46.13678316666666" lon="11.116831666666666"><ele>257.6</ele><time>2026-05-01T10:43:15.841Z</time></trkpt><trkpt lat="46.13689168333334" lon="11.116830183333331"><ele>254.20000000000002</ele><time>2026-05-01T10:43:59.843Z</time></trkpt><trkpt lat="46.13697678235336" lon="11.116833721754668"><ele>250.79999999999998</ele><time>2026-05-01T10:44:00.847Z</time></trkpt><trkpt lat="46.13701731666667" lon="11.116929133333334"><ele>247.39999999999998</ele><time>2026-05-01T10:44:01.85Z</time></trkpt><trkpt lat="46.13707868333333" lon="11.117028983333334"><ele>244.0</ele><time>2026-05-01T10:44:02.84Z</time></trkpt><trkpt lat="46.137141850000006" lon="11.117146666666667"><ele>244.0</ele><time>2026-05-01T10:44:03.845Z</time></trkpt><trkpt lat="46.137211616666676" lon="11.11727085"><ele>243.99999999999997</ele><time>2026-05-01T10:44:04.839Z</time></trkpt><trkpt lat="46.137282066666664" lon="11.1173964"><ele>243.99999999999997</ele><time>2026-05-01T10:44:05.886Z</time></trkpt><trkpt lat="46.13734571666667" lon="11.117514533333335"><ele>244.0</ele><time>2026-05-01T10:44:06.894Z</time></trkpt><trkpt lat="46.13740311666667" lon="11.117621833333331"><ele>244.0</ele><time>2026-05-01T10:44:07.86Z</time></trkpt><trkpt lat="46.13745721666666" lon="11.117726833333332"><ele>243.0</ele><time>2026-05-01T10:44:08.876Z</time></trkpt><trkpt lat="46.137508433333345" lon="11.117834349999997"><ele>241.99999999999997</ele><time>2026-05-01T10:44:09.856Z</time></trkpt><trkpt lat="46.137561999999996" lon="11.117943066666665"><ele>240.99999999999997</ele><time>2026-05-01T10:44:10.836Z</time></trkpt><trkpt lat="46.13761661666667" lon="11.118048649999999"><ele>240.0</ele><time>2026-05-01T10:44:11.834Z</time></trkpt><trkpt lat="46.13766985" lon="11.118152733333332"><ele>239.0</ele><time>2026-05-01T10:44:12.849Z</time></trkpt><trkpt lat="46.137723433333335" lon="11.118259266666666"><ele>241.16666666666669</ele><time>2026-05-01T10:44:13.838Z</time></trkpt><trkpt lat="46.1377738" lon="11.118364833333333"><ele>243.33333333333334</ele><time>2026-05-01T10:44:14.834Z</time></trkpt><trkpt lat="46.13782016666668" lon="11.118470933333333"><ele>245.5</ele><time>2026-05-01T10:44:15.833Z</time></trkpt><trkpt lat="46.13786128333333" lon="11.118572366666667"><ele>247.66666666666669</ele><time>2026-05-01T10:44:16.837Z</time></trkpt><trkpt lat="46.13789868333333" lon="11.1186546"><ele>249.83333333333334</ele><time>2026-05-01T10:44:17.855Z</time></trkpt><trkpt lat="46.137993566666665" lon="11.118722283333332"><ele>252.0</ele><time>2026-05-01T10:44:19.852Z</time></trkpt><trkpt lat="46.13805641363082" lon="11.118728690484698"><ele>252.0</ele><time>2026-05-01T10:44:20.833Z</time></trkpt><trkpt lat="46.13811783333334" lon="11.118669033333333"><ele>252.0</ele><time>2026-05-01T10:44:21.837Z</time></trkpt><trkpt lat="46.13818988333334" lon="11.118625349999999"><ele>252.0</ele><time>2026-05-01T10:44:22.846Z</time></trkpt><trkpt lat="46.13826461666666" lon="11.118579633333333"><ele>252.0</ele><time>2026-05-01T10:44:23.855Z</time></trkpt><trkpt lat="46.138332733333336" lon="11.118536016666665"><ele>252.0</ele><time>2026-05-01T10:44:24.836Z</time></trkpt><trkpt lat="46.1383943" lon="11.118498833333334"><ele>252.0</ele><time>2026-05-01T10:44:25.842Z</time></trkpt><trkpt lat="46.13845536666666" lon="11.118461633333334"><ele>252.0</ele><time>2026-05-01T10:44:26.855Z</time></trkpt><trkpt lat="46.13851111666666" lon="11.118417183333335"><ele>250.16666666666666</ele><time>2026-05-01T10:44:27.836Z</time></trkpt><trkpt lat="46.13856131666667" lon="11.118361933333333"><ele>248.33333333333331</ele><time>2026-05-01T10:44:28.833Z</time></trkpt><trkpt lat="46.138630714570816" lon="11.118213035629159"><ele>246.5</ele><time>2026-05-01T10:44:30.834Z</time></trkpt><trkpt lat="46.13862429055504" lon="11.118109122746805"><ele>244.66666666666666</ele><time>2026-05-01T10:44:31.839Z</time></trkpt><trkpt lat="46.138593322607704" lon="11.11801512946936"><ele>242.83333333333331</ele><time>2026-05-01T10:44:32.855Z</time></trkpt><trkpt lat="46.13855156600625" lon="11.117929248099227"><ele>241.0</ele><time>2026-05-01T10:44:33.836Z</time></trkpt><trkpt lat="46.138493933333336" lon="11.117861499999998"><ele>240.83333333333331</ele><time>2026-05-01T10:44:34.832Z</time></trkpt><trkpt lat="46.138450399999996" lon="11.117774866666666"><ele>240.66666666666666</ele><time>2026-05-01T10:44:35.855Z</time></trkpt><trkpt lat="46.13841643333333" lon="11.117692716666667"><ele>240.5</ele><time>2026-05-01T10:44:36.838Z</time></trkpt><trkpt lat="46.138365533333335" lon="11.117534566666667"><ele>240.33333333333331</ele><time>2026-05-01T10:44:38.855Z</time></trkpt><trkpt lat="46.13834031666667" lon="11.117451266666666"><ele>240.16666666666666</ele><time>2026-05-01T10:44:39.855Z</time></trkpt><trkpt lat="46.13831333333333" lon="11.11736255"><ele>240.0</ele><time>2026-05-01T10:44:40.837Z</time></trkpt><trkpt lat="46.13830328601198" lon="11.117261357204612"><ele>239.71428571428572</ele><time>2026-05-01T10:44:41.842Z</time></trkpt><trkpt lat="46.1382815735953" lon="11.117161298109806"><ele>239.42857142857142</ele><time>2026-05-01T10:44:42.836Z</time></trkpt><trkpt lat="46.13826029430976" lon="11.117066782760201"><ele>239.14285714285714</ele><time>2026-05-01T10:44:43.835Z</time></trkpt><trkpt lat="46.13823416666668" lon="11.116977916666668"><ele>238.85714285714286</ele><time>2026-05-01T10:44:44.833Z</time></trkpt><trkpt lat="46.13822608333333" lon="11.1168771"><ele>238.57142857142856</ele><time>2026-05-01T10:44:45.834Z</time></trkpt><trkpt lat="46.13822198333334" lon="11.11677491666667"><ele>238.28571428571428</ele><time>2026-05-01T10:44:46.847Z</time></trkpt><trkpt lat="46.13821623333334" lon="11.116677583333335"><ele>238.0</ele><time>2026-05-01T10:44:47.835Z</time></trkpt><trkpt lat="46.13819711666667" lon="11.1165095"><ele>237.99999999999997</ele><time>2026-05-01T10:44:49.847Z</time></trkpt><trkpt lat="46.13820571469123" lon="11.116417548272429"><ele>238.0</ele><time>2026-05-01T10:44:50.834Z</time></trkpt><trkpt lat="46.138190843421306" lon="11.116320059664893"><ele>238.0</ele><time>2026-05-01T10:44:51.837Z</time></trkpt><trkpt lat="46.13815438333333" lon="11.116228016666666"><ele>238.0</ele><time>2026-05-01T10:44:52.834Z</time></trkpt><trkpt lat="46.13811896666666" lon="11.11606255"><ele>237.99999999999997</ele><time>2026-05-01T10:44:54.841Z</time></trkpt><trkpt lat="46.13812478037781" lon="11.115897300402649"><ele>238.0</ele><time>2026-05-01T10:44:56.834Z</time></trkpt><trkpt lat="46.138154873505904" lon="11.115722526865488"><ele>237.99999999999997</ele><time>2026-05-01T10:44:58.849Z</time></trkpt><trkpt lat="46.13817287440711" lon="11.115623745507154"><ele>238.0</ele><time>2026-05-01T10:44:59.842Z</time></trkpt><trkpt lat="46.13818234292131" lon="11.115524550000002"><ele>238.0</ele><time>2026-05-01T10:45:00.836Z</time></trkpt><trkpt lat="46.13814693333334" lon="11.115443550000002"><ele>238.0</ele><time>2026-05-01T10:45:01.839Z</time></trkpt><trkpt lat="46.1381026" lon="11.115277633333335"><ele>237.99999999999997</ele><time>2026-05-01T10:45:03.835Z</time></trkpt><trkpt lat="46.138087933333324" lon="11.115185383333335"><ele>238.0</ele><time>2026-05-01T10:45:04.838Z</time></trkpt><trkpt lat="46.138077433333336" lon="11.115091866666669"><ele>238.0</ele><time>2026-05-01T10:45:05.855Z</time></trkpt><trkpt lat="46.13806475" lon="11.114998216666667"><ele>238.0</ele><time>2026-05-01T10:45:06.836Z</time></trkpt><trkpt lat="46.138048600000005" lon="11.114898000000002"><ele>238.0</ele><time>2026-05-01T10:45:07.833Z</time></trkpt><trkpt lat="46.13803171666667" lon="11.114793666666667"><ele>238.0</ele><time>2026-05-01T10:45:08.855Z</time></trkpt><trkpt lat="46.13801731666667" lon="11.11468838333333"><ele>238.0</ele><time>2026-05-01T10:45:09.837Z</time></trkpt><trkpt lat="46.138003250000004" lon="11.114581116666667"><ele>238.0</ele><time>2026-05-01T10:45:10.843Z</time></trkpt><trkpt lat="46.137981833333335" lon="11.11447715"><ele>238.0</ele><time>2026-05-01T10:45:11.841Z</time></trkpt><trkpt lat="46.13796103333334" lon="11.114372116666667"><ele>237.8</ele><time>2026-05-01T10:45:12.848Z</time></trkpt><trkpt lat="46.137945699999996" lon="11.114273166666663"><ele>237.60000000000002</ele><time>2026-05-01T10:45:13.839Z</time></trkpt><trkpt lat="46.137924483333336" lon="11.11410775"><ele>237.39999999999998</ele><time>2026-05-01T10:45:15.845Z</time></trkpt><trkpt lat="46.13790903333334" lon="11.113966149999998"><ele>237.2</ele><time>2026-05-01T10:45:17.834Z</time></trkpt><trkpt lat="46.13787975" lon="11.113795233333335"><ele>237.0</ele><time>2026-05-01T10:45:19.849Z</time></trkpt><trkpt lat="46.137872900000005" lon="11.113693716666667"><ele>237.0</ele><time>2026-05-01T10:45:20.842Z</time></trkpt><trkpt lat="46.13789476334915" lon="11.113602342151424"><ele>237.0</ele><time>2026-05-01T10:45:21.832Z</time></trkpt><trkpt lat="46.13797024681061" lon="11.113443860332659"><ele>237.0</ele><time>2026-05-01T10:45:23.842Z</time></trkpt><trkpt lat="46.13804014176583" lon="11.11338295916868"><ele>237.0</ele><time>2026-05-01T10:45:24.835Z</time></trkpt><trkpt lat="46.13812037784979" lon="11.113324717009622"><ele>237.0</ele><time>2026-05-01T10:45:25.846Z</time></trkpt><trkpt lat="46.13819246367795" lon="11.113271840947114"><ele>237.2</ele><time>2026-05-01T10:45:26.835Z</time></trkpt><trkpt lat="46.13825454750535" lon="11.113227705645798"><ele>237.39999999999998</ele><time>2026-05-01T10:45:27.849Z</time></trkpt><trkpt lat="46.13835536666667" lon="11.113174866666668"><ele>237.60000000000002</ele><time>2026-05-01T10:45:29.835Z</time></trkpt><trkpt lat="46.13846046994439" lon="11.11317009356619"><ele>237.8</ele><time>2026-05-01T10:45:31.835Z</time></trkpt><trkpt lat="46.13850578333333" lon="11.113042183333334"><ele>238.0</ele><time>2026-05-01T10:45:33.834Z</time></trkpt><trkpt lat="46.13853258333334" lon="11.1129031"><ele>238.0</ele><time>2026-05-01T10:45:35.855Z</time></trkpt><trkpt lat="46.13855534999999" lon="11.112751099999999"><ele>238.0</ele><time>2026-05-01T10:45:37.836Z</time></trkpt><trkpt lat="46.13856641666666" lon="11.112581616666667"><ele>238.0</ele><time>2026-05-01T10:45:39.836Z</time></trkpt><trkpt lat="46.13852993333333" lon="11.112429216666666"><ele>238.0</ele><time>2026-05-01T10:45:41.855Z</time></trkpt><trkpt lat="46.138474683333335" lon="11.112299716666667"><ele>238.0</ele><time>2026-05-01T10:45:43.852Z</time></trkpt><trkpt lat="46.13841608333333" lon="11.112163733333334"><ele>237.49999999999997</ele><time>2026-05-01T10:45:45.845Z</time></trkpt><trkpt lat="46.13837066666667" lon="11.112011500000001"><ele>237.0</ele><time>2026-05-01T10:45:47.835Z</time></trkpt><trkpt lat="46.138348150000006" lon="11.111925416666669"><ele>236.5</ele><time>2026-05-01T10:45:48.836Z</time></trkpt><trkpt lat="46.13833074999999" lon="11.111827566666667"><ele>236.0</ele><time>2026-05-01T10:45:49.845Z</time></trkpt><trkpt lat="46.13830475" lon="11.1117241"><ele>235.49999999999997</ele><time>2026-05-01T10:45:50.856Z</time></trkpt><trkpt lat="46.13829865477128" lon="11.111608012163313"><ele>235.0</ele><time>2026-05-01T10:45:51.833Z</time></trkpt><trkpt lat="46.13826641666667" lon="11.111494133333334"><ele>234.66666666666666</ele><time>2026-05-01T10:45:52.852Z</time></trkpt><trkpt lat="46.13825025" lon="11.111372183333334"><ele>234.33333333333331</ele><time>2026-05-01T10:45:53.835Z</time></trkpt><trkpt lat="46.13823645000001" lon="11.111254133333334"><ele>234.0</ele><time>2026-05-01T10:45:54.834Z</time></trkpt><trkpt lat="46.138220466666674" lon="11.1111371"><ele>233.66666666666669</ele><time>2026-05-01T10:45:55.834Z</time></trkpt><trkpt lat="46.13820425000001" lon="11.1110194"><ele>233.33333333333334</ele><time>2026-05-01T10:45:56.835Z</time></trkpt><trkpt lat="46.13819215" lon="11.110900099999999"><ele>233.0</ele><time>2026-05-01T10:45:57.834Z</time></trkpt><trkpt lat="46.13817973333333" lon="11.110780516666667"><ele>233.0</ele><time>2026-05-01T10:45:58.853Z</time></trkpt><trkpt lat="46.1381657" lon="11.11066415"><ele>233.0</ele><time>2026-05-01T10:45:59.858Z</time></trkpt><trkpt lat="46.138153216666666" lon="11.110551999999998"><ele>233.0</ele><time>2026-05-01T10:46:00.838Z</time></trkpt><trkpt lat="46.13814535" lon="11.110455133333335"><ele>233.0</ele><time>2026-05-01T10:46:01.849Z</time></trkpt><trkpt lat="46.13813643333333" lon="11.110361049999998"><ele>233.0</ele><time>2026-05-01T10:46:02.855Z</time></trkpt><trkpt lat="46.13812678333334" lon="11.110261249999999"><ele>233.0</ele><time>2026-05-01T10:46:03.834Z</time></trkpt><trkpt lat="46.13811593333334" lon="11.110159866666667"><ele>233.0</ele><time>2026-05-01T10:46:04.836Z</time></trkpt><trkpt lat="46.13810505" lon="11.110050733333333"><ele>233.00000000000003</ele><time>2026-05-01T10:46:05.834Z</time></trkpt><trkpt lat="46.13809401666667" lon="11.109929033333334"><ele>233.0</ele><time>2026-05-01T10:46:06.836Z</time></trkpt><trkpt lat="46.13808123333334" lon="11.109805633333334"><ele>233.0</ele><time>2026-05-01T10:46:07.843Z</time></trkpt><trkpt lat="46.13807375" lon="11.109690483333335"><ele>233.0</ele><time>2026-05-01T10:46:08.855Z</time></trkpt><trkpt lat="46.13806735" lon="11.109586383333331"><ele>233.00000000000003</ele><time>2026-05-01T10:46:09.838Z</time></trkpt><trkpt lat="46.138054849999996" lon="11.109490249999999"><ele>233.0</ele><time>2026-05-01T10:46:10.847Z</time></trkpt><trkpt lat="46.1380523" lon="11.109353549999998"><ele>232.8</ele><time>2026-05-01T10:46:12.839Z</time></trkpt><trkpt lat="46.13808788333334" lon="11.109233016666666"><ele>232.60000000000002</ele><time>2026-05-01T10:46:25.836Z</time></trkpt><trkpt lat="46.138151" lon="11.109197333333334"><ele>232.39999999999998</ele><time>2026-05-01T10:46:28.847Z</time></trkpt><trkpt lat="46.13824088333334" lon="11.109182316666665"><ele>232.2</ele><time>2026-05-01T10:46:33.839Z</time></trkpt><trkpt lat="46.13831888333334" lon="11.1091606"><ele>232.0</ele><time>2026-05-01T10:46:35.841Z</time></trkpt><trkpt lat="46.138446333333334" lon="11.10910055"><ele>231.8</ele><time>2026-05-01T10:46:37.856Z</time></trkpt><trkpt lat="46.138529283333334" lon="11.109060050000002"><ele>231.6</ele><time>2026-05-01T10:46:38.836Z</time></trkpt><trkpt lat="46.13862301666666" lon="11.109016033333335"><ele>231.40000000000003</ele><time>2026-05-01T10:46:39.834Z</time></trkpt><trkpt lat="46.13872921666666" lon="11.108967"><ele>231.20000000000002</ele><time>2026-05-01T10:46:40.838Z</time></trkpt><trkpt lat="46.13884456666667" lon="11.108909549999998"><ele>231.0</ele><time>2026-05-01T10:46:41.836Z</time></trkpt><trkpt lat="46.13896475" lon="11.108853183333334"><ele>231.0</ele><time>2026-05-01T10:46:42.841Z</time></trkpt><trkpt lat="46.13908133333333" lon="11.108796833333335"><ele>231.00000000000003</ele><time>2026-05-01T10:46:43.838Z</time></trkpt><trkpt lat="46.139189916666666" lon="11.108746666666667"><ele>231.00000000000003</ele><time>2026-05-01T10:46:44.836Z</time></trkpt><trkpt lat="46.13929266666667" lon="11.108703783333333"><ele>231.0</ele><time>2026-05-01T10:46:45.837Z</time></trkpt><trkpt lat="46.13939031666667" lon="11.108653566666666"><ele>231.0</ele><time>2026-05-01T10:46:46.834Z</time></trkpt><trkpt lat="46.139492416666656" lon="11.108593033333333"><ele>231.0</ele><time>2026-05-01T10:46:47.853Z</time></trkpt><trkpt lat="46.13960303333333" lon="11.108532983333335"><ele>231.0</ele><time>2026-05-01T10:46:48.834Z</time></trkpt><trkpt lat="46.13971889999999" lon="11.108458150000002"><ele>231.0</ele><time>2026-05-01T10:46:49.838Z</time></trkpt><trkpt lat="46.13984083333333" lon="11.108376833333335"><ele>231.0</ele><time>2026-05-01T10:46:50.836Z</time></trkpt><trkpt lat="46.1399706" lon="11.108303833333332"><ele>230.0</ele><time>2026-05-01T10:46:51.841Z</time></trkpt><trkpt lat="46.1401053" lon="11.108225016666664"><ele>229.0</ele><time>2026-05-01T10:46:52.847Z</time></trkpt><trkpt lat="46.14024051666667" lon="11.108129066666667"><ele>228.0</ele><time>2026-05-01T10:46:53.834Z</time></trkpt><trkpt lat="46.140372549999995" lon="11.108017716666666"><ele>227.0</ele><time>2026-05-01T10:46:54.837Z</time></trkpt><trkpt lat="46.140501633333336" lon="11.107900016666667"><ele>227.0</ele><time>2026-05-01T10:46:55.845Z</time></trkpt><trkpt lat="46.14062028333333" lon="11.10776955"><ele>227.0</ele><time>2026-05-01T10:46:56.836Z</time></trkpt><trkpt lat="46.14072603333334" lon="11.107627800000001"><ele>227.0</ele><time>2026-05-01T10:46:57.834Z</time></trkpt><trkpt lat="46.14081838333333" lon="11.107487783333333"><ele>227.0</ele><time>2026-05-01T10:46:58.856Z</time></trkpt><trkpt lat="46.14089851666666" lon="11.107350033333335"><ele>226.39999999999998</ele><time>2026-05-01T10:46:59.836Z</time></trkpt><trkpt lat="46.14096858333334" lon="11.107216933333333"><ele>225.79999999999998</ele><time>2026-05-01T10:47:00.835Z</time></trkpt><trkpt lat="46.141034383333334" lon="11.107087066666667"><ele>225.2</ele><time>2026-05-01T10:47:01.845Z</time></trkpt><trkpt lat="46.14109406666667" lon="11.106951150000002"><ele>224.6</ele><time>2026-05-01T10:47:02.836Z</time></trkpt><trkpt lat="46.14114878333333" lon="11.106814233333335"><ele>224.0</ele><time>2026-05-01T10:47:03.837Z</time></trkpt><trkpt lat="46.14120511666666" lon="11.106676183333331"><ele>224.0</ele><time>2026-05-01T10:47:04.85Z</time></trkpt><trkpt lat="46.14126275" lon="11.106532966666668"><ele>224.0</ele><time>2026-05-01T10:47:05.836Z</time></trkpt><trkpt lat="46.141323216666656" lon="11.106384199999999"><ele>224.0</ele><time>2026-05-01T10:47:06.837Z</time></trkpt><trkpt lat="46.141383250000004" lon="11.106231716666665"><ele>224.0</ele><time>2026-05-01T10:47:07.835Z</time></trkpt><trkpt lat="46.141441150000006" lon="11.106082233333334"><ele>224.0</ele><time>2026-05-01T10:47:08.857Z</time></trkpt><trkpt lat="46.14149738333334" lon="11.10594445"><ele>223.99999999999997</ele><time>2026-05-01T10:47:09.835Z</time></trkpt><trkpt lat="46.14154918333334" lon="11.105814383333334"><ele>223.99999999999997</ele><time>2026-05-01T10:47:10.835Z</time></trkpt><trkpt lat="46.141596" lon="11.105693266666666"><ele>224.0</ele><time>2026-05-01T10:47:11.856Z</time></trkpt><trkpt lat="46.14163803333332" lon="11.105575733333335"><ele>224.0</ele><time>2026-05-01T10:47:12.85Z</time></trkpt><trkpt lat="46.141679283333325" lon="11.105459150000002"><ele>223.50000000000003</ele><time>2026-05-01T10:47:13.851Z</time></trkpt><trkpt lat="46.14172131666666" lon="11.10534905"><ele>223.0</ele><time>2026-05-01T10:47:14.858Z</time></trkpt><trkpt lat="46.141760983333334" lon="11.10524715"><ele>222.5</ele><time>2026-05-01T10:47:15.835Z</time></trkpt><trkpt lat="46.141798050000006" lon="11.105151249999999"><ele>222.0</ele><time>2026-05-01T10:47:16.846Z</time></trkpt><trkpt lat="46.14183011666667" lon="11.105060066666665"><ele>221.50000000000003</ele><time>2026-05-01T10:47:17.856Z</time></trkpt><trkpt lat="46.141861500000005" lon="11.1049712"><ele>221.0</ele><time>2026-05-01T10:47:18.837Z</time></trkpt><trkpt lat="46.14189613333333" lon="11.104885216666666"><ele>220.83333333333334</ele><time>2026-05-01T10:47:19.851Z</time></trkpt><trkpt lat="46.141938749999994" lon="11.104809366666666"><ele>220.66666666666669</ele><time>2026-05-01T10:47:20.841Z</time></trkpt><trkpt lat="46.14199216666666" lon="11.104746516666667"><ele>220.5</ele><time>2026-05-01T10:47:21.848Z</time></trkpt><trkpt lat="46.142055733333336" lon="11.104689516666665"><ele>220.33333333333331</ele><time>2026-05-01T10:47:22.854Z</time></trkpt><trkpt lat="46.142127033333324" lon="11.104634183333333"><ele>220.16666666666666</ele><time>2026-05-01T10:47:23.856Z</time></trkpt><trkpt lat="46.14219073333334" lon="11.10455755"><ele>220.0</ele><time>2026-05-01T10:47:24.85Z</time></trkpt><trkpt lat="46.14223128333333" lon="11.104449783333333"><ele>220.0</ele><time>2026-05-01T10:47:25.844Z</time></trkpt><trkpt lat="46.14224446666667" lon="11.104320016666668"><ele>220.0</ele><time>2026-05-01T10:47:26.857Z</time></trkpt><trkpt lat="46.142251466666664" lon="11.104177833333333"><ele>220.0</ele><time>2026-05-01T10:47:27.835Z</time></trkpt><trkpt lat="46.14227734999999" lon="11.104026466666667"><ele>220.0</ele><time>2026-05-01T10:47:28.839Z</time></trkpt><trkpt lat="46.14232666666666" lon="11.103867816666666"><ele>220.0</ele><time>2026-05-01T10:47:29.836Z</time></trkpt><trkpt lat="46.14238813333333" lon="11.1036978"><ele>220.0</ele><time>2026-05-01T10:47:30.834Z</time></trkpt><trkpt lat="46.14245868333334" lon="11.1035091"><ele>220.0</ele><time>2026-05-01T10:47:31.848Z</time></trkpt><trkpt lat="46.142540849999996" lon="11.103306716666667"><ele>220.0</ele><time>2026-05-01T10:47:32.856Z</time></trkpt><trkpt lat="46.14262838333334" lon="11.103095116666667"><ele>220.0</ele><time>2026-05-01T10:47:33.835Z</time></trkpt><trkpt lat="46.142719400000004" lon="11.10287035"><ele>220.0</ele><time>2026-05-01T10:47:34.853Z</time></trkpt><trkpt lat="46.142817766666674" lon="11.102629999999998"><ele>220.0</ele><time>2026-05-01T10:47:35.858Z</time></trkpt><trkpt lat="46.142918083333335" lon="11.1023842"><ele>218.33333333333331</ele><time>2026-05-01T10:47:36.835Z</time></trkpt><trkpt lat="46.143021533333325" lon="11.102132316666665"><ele>216.66666666666669</ele><time>2026-05-01T10:47:37.837Z</time></trkpt><trkpt lat="46.14312573333333" lon="11.101872199999997"><ele>215.0</ele><time>2026-05-01T10:47:38.836Z</time></trkpt><trkpt lat="46.1432271" lon="11.101618966666667"><ele>214.66666666666669</ele><time>2026-05-01T10:47:39.835Z</time></trkpt><trkpt lat="46.143325716666666" lon="11.101382200000002"><ele>214.33333333333331</ele><time>2026-05-01T10:47:40.854Z</time></trkpt><trkpt lat="46.14342421666667" lon="11.10115805"><ele>214.0</ele><time>2026-05-01T10:47:41.857Z</time></trkpt><trkpt lat="46.1435277" lon="11.100944316666668"><ele>214.0</ele><time>2026-05-01T10:47:42.837Z</time></trkpt><trkpt lat="46.14363323333334" lon="11.100745983333335"><ele>214.0</ele><time>2026-05-01T10:47:43.845Z</time></trkpt><trkpt lat="46.143739000000004" lon="11.100571533333333"><ele>214.0</ele><time>2026-05-01T10:47:44.857Z</time></trkpt><trkpt lat="46.143838433333336" lon="11.100425983333333"><ele>214.0</ele><time>2026-05-01T10:47:45.837Z</time></trkpt><trkpt lat="46.14392608333333" lon="11.100307183333332"><ele>213.99999999999997</ele><time>2026-05-01T10:47:46.834Z</time></trkpt><trkpt lat="46.14400631666667" lon="11.100204516666668"><ele>213.99999999999997</ele><time>2026-05-01T10:47:47.856Z</time></trkpt><trkpt lat="46.14408064999999" lon="11.100116566666669"><ele>214.0</ele><time>2026-05-01T10:47:48.842Z</time></trkpt><trkpt lat="46.14414848333333" lon="11.100033766666664"><ele>214.0</ele><time>2026-05-01T10:47:49.837Z</time></trkpt><trkpt lat="46.144216433333334" lon="11.099963616666667"><ele>213.6</ele><time>2026-05-01T10:47:50.856Z</time></trkpt><trkpt lat="46.14429126666667" lon="11.099910733333335"><ele>213.2</ele><time>2026-05-01T10:47:51.856Z</time></trkpt><trkpt lat="46.14437026666666" lon="11.099865133333333"><ele>212.79999999999998</ele><time>2026-05-01T10:47:52.839Z</time></trkpt><trkpt lat="46.14445253333333" lon="11.099813516666666"><ele>212.39999999999998</ele><time>2026-05-01T10:47:53.838Z</time></trkpt><trkpt lat="46.14454641666666" lon="11.099758283333331"><ele>212.0</ele><time>2026-05-01T10:47:54.835Z</time></trkpt><trkpt lat="46.144652316666665" lon="11.099715183333336"><ele>212.0</ele><time>2026-05-01T10:47:55.835Z</time></trkpt><trkpt lat="46.144779199999995" lon="11.099705866666667"><ele>212.0</ele><time>2026-05-01T10:47:56.856Z</time></trkpt><trkpt lat="46.144928150000005" lon="11.099720583333331"><ele>212.0</ele><time>2026-05-01T10:47:57.834Z</time></trkpt><trkpt lat="46.14509643333334" lon="11.099725950000002"><ele>212.0</ele><time>2026-05-01T10:47:58.843Z</time></trkpt><trkpt lat="46.14526683333333" lon="11.099718583333335"><ele>212.33333333333334</ele><time>2026-05-01T10:47:59.835Z</time></trkpt><trkpt lat="46.14543375" lon="11.099705633333334"><ele>212.66666666666669</ele><time>2026-05-01T10:48:00.853Z</time></trkpt><trkpt lat="46.14559025" lon="11.099692533333334"><ele>213.0</ele><time>2026-05-01T10:48:01.837Z</time></trkpt><trkpt lat="46.145737200000006" lon="11.0996814"><ele>213.0</ele><time>2026-05-01T10:48:02.835Z</time></trkpt><trkpt lat="46.14588406666667" lon="11.099670133333332"><ele>213.0</ele><time>2026-05-01T10:48:03.837Z</time></trkpt><trkpt lat="46.146036316666674" lon="11.099660100000001"><ele>213.0</ele><time>2026-05-01T10:48:04.836Z</time></trkpt><trkpt lat="46.146194949999995" lon="11.099653816666667"><ele>213.0</ele><time>2026-05-01T10:48:05.835Z</time></trkpt><trkpt lat="46.14635435" lon="11.099647866666665"><ele>213.0</ele><time>2026-05-01T10:48:06.835Z</time></trkpt><trkpt lat="46.14651868333333" lon="11.099644016666666"><ele>213.0</ele><time>2026-05-01T10:48:07.846Z</time></trkpt><trkpt lat="46.14669083333333" lon="11.099638333333333"><ele>212.66666666666669</ele><time>2026-05-01T10:48:08.856Z</time></trkpt><trkpt lat="46.14686799999999" lon="11.09963156666667"><ele>212.33333333333334</ele><time>2026-05-01T10:48:09.854Z</time></trkpt><trkpt lat="46.14704893333333" lon="11.099628733333335"><ele>212.0</ele><time>2026-05-01T10:48:10.844Z</time></trkpt><trkpt lat="46.14723273333334" lon="11.09963015"><ele>211.66666666666669</ele><time>2026-05-01T10:48:11.841Z</time></trkpt><trkpt lat="46.14742051666667" lon="11.099640283333335"><ele>211.33333333333331</ele><time>2026-05-01T10:48:12.839Z</time></trkpt><trkpt lat="46.14761140000001" lon="11.099656750000001"><ele>211.0</ele><time>2026-05-01T10:48:13.838Z</time></trkpt><trkpt lat="46.14780081666667" lon="11.099682633333336"><ele>211.0</ele><time>2026-05-01T10:48:14.836Z</time></trkpt><trkpt lat="46.14798541666667" lon="11.099717100000001"><ele>211.0</ele><time>2026-05-01T10:48:15.835Z</time></trkpt><trkpt lat="46.14816810000001" lon="11.09975743333333"><ele>211.0</ele><time>2026-05-01T10:48:16.839Z</time></trkpt><trkpt lat="46.14834981666666" lon="11.099806783333333"><ele>210.66666666666666</ele><time>2026-05-01T10:48:17.856Z</time></trkpt><trkpt lat="46.14853353333333" lon="11.099863233333334"><ele>210.33333333333331</ele><time>2026-05-01T10:48:18.854Z</time></trkpt><trkpt lat="46.14872006666666" lon="11.099921533333335"><ele>210.0</ele><time>2026-05-01T10:48:19.836Z</time></trkpt><trkpt lat="46.14890735000001" lon="11.099983733333332"><ele>208.66666666666669</ele><time>2026-05-01T10:48:20.859Z</time></trkpt><trkpt lat="46.1490899" lon="11.100045383333335"><ele>207.33333333333334</ele><time>2026-05-01T10:48:21.845Z</time></trkpt><trkpt lat="46.149264433333336" lon="11.100102066666667"><ele>206.0</ele><time>2026-05-01T10:48:22.844Z</time></trkpt><trkpt lat="46.149429600000005" lon="11.100158016666667"><ele>206.0</ele><time>2026-05-01T10:48:23.842Z</time></trkpt><trkpt lat="46.14958693333333" lon="11.100215483333333"><ele>206.0</ele><time>2026-05-01T10:48:24.841Z</time></trkpt><trkpt lat="46.149735183333334" lon="11.100269966666668"><ele>206.0</ele><time>2026-05-01T10:48:25.84Z</time></trkpt><trkpt lat="46.149875183333336" lon="11.100321033333334"><ele>205.75</ele><time>2026-05-01T10:48:26.836Z</time></trkpt><trkpt lat="46.15000895" lon="11.1003693"><ele>205.5</ele><time>2026-05-01T10:48:27.842Z</time></trkpt><trkpt lat="46.150131166666675" lon="11.100425033333332"><ele>205.25</ele><time>2026-05-01T10:48:28.835Z</time></trkpt><trkpt lat="46.15023786666667" lon="11.100493983333335"><ele>205.0</ele><time>2026-05-01T10:48:29.838Z</time></trkpt><trkpt lat="46.15032433333334" lon="11.100577833333332"><ele>205.0</ele><time>2026-05-01T10:48:30.841Z</time></trkpt><trkpt lat="46.15039398333334" lon="11.100675383333332"><ele>205.0</ele><time>2026-05-01T10:48:31.833Z</time></trkpt><trkpt lat="46.15045323333334" lon="11.100789783333335"><ele>205.0</ele><time>2026-05-01T10:48:32.837Z</time></trkpt><trkpt lat="46.150518516666665" lon="11.100897149999998"><ele>205.0</ele><time>2026-05-01T10:48:33.835Z</time></trkpt><trkpt lat="46.150597683333345" lon="11.100967333333331"><ele>205.0</ele><time>2026-05-01T10:48:34.834Z</time></trkpt><trkpt lat="46.15067821666666" lon="11.100983016666666"><ele>205.4</ele><time>2026-05-01T10:48:35.843Z</time></trkpt><trkpt lat="46.150757883333334" lon="11.100962733333333"><ele>205.8</ele><time>2026-05-01T10:48:36.835Z</time></trkpt><trkpt lat="46.150851133333326" lon="11.100937700000001"><ele>206.2</ele><time>2026-05-01T10:48:37.853Z</time></trkpt><trkpt lat="46.15095845000001" lon="11.100930449999998"><ele>206.6</ele><time>2026-05-01T10:48:38.836Z</time></trkpt><trkpt lat="46.1510777" lon="11.100948100000002"><ele>207.0</ele><time>2026-05-01T10:48:39.838Z</time></trkpt><trkpt lat="46.15120151666667" lon="11.100987466666668"><ele>207.0</ele><time>2026-05-01T10:48:40.847Z</time></trkpt><trkpt lat="46.151324300000006" lon="11.10102445"><ele>207.0</ele><time>2026-05-01T10:48:41.837Z</time></trkpt><trkpt lat="46.151447866666665" lon="11.101060333333331"><ele>207.0</ele><time>2026-05-01T10:48:42.834Z</time></trkpt><trkpt lat="46.15157176666667" lon="11.101100833333332"><ele>207.0</ele><time>2026-05-01T10:48:43.834Z</time></trkpt><trkpt lat="46.15169835" lon="11.101148016666667"><ele>206.5</ele><time>2026-05-01T10:48:44.837Z</time></trkpt><trkpt lat="46.151829633333335" lon="11.101195166666665"><ele>206.0</ele><time>2026-05-01T10:48:45.834Z</time></trkpt><trkpt lat="46.15196905" lon="11.101247266666666"><ele>205.5</ele><time>2026-05-01T10:48:46.835Z</time></trkpt><trkpt lat="46.15211436666667" lon="11.101308966666666"><ele>205.0</ele><time>2026-05-01T10:48:47.837Z</time></trkpt><trkpt lat="46.15226766666667" lon="11.101380233333336"><ele>205.0</ele><time>2026-05-01T10:48:48.848Z</time></trkpt><trkpt lat="46.15243040000001" lon="11.1014633"><ele>205.0</ele><time>2026-05-01T10:48:49.837Z</time></trkpt><trkpt lat="46.15260395" lon="11.101554883333332"><ele>205.0</ele><time>2026-05-01T10:48:50.837Z</time></trkpt><trkpt lat="46.1527932" lon="11.1016521"><ele>205.0</ele><time>2026-05-01T10:48:51.835Z</time></trkpt><trkpt lat="46.153003866666666" lon="11.101762433333333"><ele>205.0</ele><time>2026-05-01T10:48:52.847Z</time></trkpt><trkpt lat="46.153226950000004" lon="11.10188135"><ele>204.5</ele><time>2026-05-01T10:48:53.837Z</time></trkpt><trkpt lat="46.15345195" lon="11.102001583333333"><ele>204.0</ele><time>2026-05-01T10:48:54.836Z</time></trkpt><trkpt lat="46.153669900000004" lon="11.102119400000001"><ele>204.0</ele><time>2026-05-01T10:48:55.853Z</time></trkpt><trkpt lat="46.15387401666667" lon="11.102227966666666"><ele>204.0</ele><time>2026-05-01T10:48:56.837Z</time></trkpt><trkpt lat="46.15406435" lon="11.1023284"><ele>204.0</ele><time>2026-05-01T10:48:57.847Z</time></trkpt><trkpt lat="46.15424481666667" lon="11.102426966666666"><ele>204.0</ele><time>2026-05-01T10:48:58.844Z</time></trkpt><trkpt lat="46.154415" lon="11.102525250000001"><ele>204.0</ele><time>2026-05-01T10:48:59.847Z</time></trkpt><trkpt lat="46.154577016666664" lon="11.102629733333334"><ele>204.0</ele><time>2026-05-01T10:49:00.847Z</time></trkpt><trkpt lat="46.15474048333334" lon="11.102754966666664"><ele>203.66666666666669</ele><time>2026-05-01T10:49:01.844Z</time></trkpt><trkpt lat="46.15490266666668" lon="11.102881966666667"><ele>203.33333333333334</ele><time>2026-05-01T10:49:02.844Z</time></trkpt><trkpt lat="46.155070300000006" lon="11.103021316666664"><ele>203.0</ele><time>2026-05-01T10:49:03.845Z</time></trkpt><trkpt lat="46.155241350000004" lon="11.103169683333332"><ele>203.0</ele><time>2026-05-01T10:49:04.855Z</time></trkpt><trkpt lat="46.15541584999999" lon="11.10332533333333"><ele>203.0</ele><time>2026-05-01T10:49:05.844Z</time></trkpt><trkpt lat="46.15559343333333" lon="11.103488599999999"><ele>203.0</ele><time>2026-05-01T10:49:06.845Z</time></trkpt><trkpt lat="46.15577499999999" lon="11.103655216666668"><ele>203.0</ele><time>2026-05-01T10:49:07.844Z</time></trkpt><trkpt lat="46.15596051666667" lon="11.103825116666666"><ele>203.0</ele><time>2026-05-01T10:49:08.837Z</time></trkpt><trkpt lat="46.15614810000001" lon="11.104000616666667"><ele>203.0</ele><time>2026-05-01T10:49:09.833Z</time></trkpt><trkpt lat="46.15634376666667" lon="11.104181983333335"><ele>202.5</ele><time>2026-05-01T10:49:10.844Z</time></trkpt><trkpt lat="46.15655651666666" lon="11.104369816666667"><ele>202.0</ele><time>2026-05-01T10:49:11.845Z</time></trkpt><trkpt lat="46.15678678333334" lon="11.104570149999999"><ele>202.0</ele><time>2026-05-01T10:49:12.847Z</time></trkpt><trkpt lat="46.15702905" lon="11.104791"><ele>202.0</ele><time>2026-05-01T10:49:13.851Z</time></trkpt><trkpt lat="46.15727713333334" lon="11.105032016666666"><ele>203.0</ele><time>2026-05-01T10:49:14.837Z</time></trkpt><trkpt lat="46.15752883333333" lon="11.105285499999999"><ele>204.0</ele><time>2026-05-01T10:49:15.836Z</time></trkpt><trkpt lat="46.15779434999999" lon="11.105543166666667"><ele>203.5</ele><time>2026-05-01T10:49:16.853Z</time></trkpt><trkpt lat="46.158072999999995" lon="11.10580255"><ele>203.0</ele><time>2026-05-01T10:49:17.846Z</time></trkpt><trkpt lat="46.15835781666666" lon="11.106065899999999"><ele>203.0</ele><time>2026-05-01T10:49:18.833Z</time></trkpt><trkpt lat="46.158652983333326" lon="11.106330099999997"><ele>203.0</ele><time>2026-05-01T10:49:19.847Z</time></trkpt><trkpt lat="46.158949283333335" lon="11.10659765"><ele>204.5</ele><time>2026-05-01T10:49:20.867Z</time></trkpt><trkpt lat="46.159234600000005" lon="11.106870916666667"><ele>206.0</ele><time>2026-05-01T10:49:21.836Z</time></trkpt><trkpt lat="46.15951163333334" lon="11.107145133333333"><ele>207.5</ele><time>2026-05-01T10:49:22.855Z</time></trkpt><trkpt lat="46.15979025" lon="11.107414216666665"><ele>209.0</ele><time>2026-05-01T10:49:23.844Z</time></trkpt><trkpt lat="46.160066083333334" lon="11.107677999999998"><ele>209.0</ele><time>2026-05-01T10:49:24.835Z</time></trkpt><trkpt lat="46.1603418" lon="11.107936383333332"><ele>209.0</ele><time>2026-05-01T10:49:25.845Z</time></trkpt><trkpt lat="46.16061475" lon="11.108197033333333"><ele>208.0</ele><time>2026-05-01T10:49:26.846Z</time></trkpt><trkpt lat="46.1608801" lon="11.10845725"><ele>207.0</ele><time>2026-05-01T10:49:27.842Z</time></trkpt><trkpt lat="46.16113896666667" lon="11.1087083"><ele>207.0</ele><time>2026-05-01T10:49:28.855Z</time></trkpt><trkpt lat="46.16139016666666" lon="11.108955366666665"><ele>207.0</ele><time>2026-05-01T10:49:29.853Z</time></trkpt><trkpt lat="46.161627200000005" lon="11.10918735"><ele>207.5</ele><time>2026-05-01T10:49:30.847Z</time></trkpt><trkpt lat="46.16185218333333" lon="11.109408716666666"><ele>208.0</ele><time>2026-05-01T10:49:31.852Z</time></trkpt><trkpt lat="46.162062600000006" lon="11.109631216666665"><ele>208.0</ele><time>2026-05-01T10:49:32.85Z</time></trkpt><trkpt lat="46.16226065000001" lon="11.109844749999999"><ele>208.0</ele><time>2026-05-01T10:49:33.846Z</time></trkpt><trkpt lat="46.16245018333334" lon="11.110045549999999"><ele>207.0</ele><time>2026-05-01T10:49:34.847Z</time></trkpt><trkpt lat="46.162627916666665" lon="11.110237316666666"><ele>206.0</ele><time>2026-05-01T10:49:35.845Z</time></trkpt><trkpt lat="46.162793783333335" lon="11.110418799999998"><ele>205.0</ele><time>2026-05-01T10:49:36.854Z</time></trkpt><trkpt lat="46.16295910000001" lon="11.110594399999998"><ele>205.33333333333331</ele><time>2026-05-01T10:49:37.845Z</time></trkpt><trkpt lat="46.16312713333333" lon="11.110772899999999"><ele>205.66666666666669</ele><time>2026-05-01T10:49:38.853Z</time></trkpt><trkpt lat="46.16329496666667" lon="11.110947666666668"><ele>206.0</ele><time>2026-05-01T10:49:39.837Z</time></trkpt><trkpt lat="46.16345806666667" lon="11.111111316666666"><ele>206.0</ele><time>2026-05-01T10:49:40.846Z</time></trkpt><trkpt lat="46.16361266666666" lon="11.111266683333334"><ele>206.0</ele><time>2026-05-01T10:49:41.845Z</time></trkpt><trkpt lat="46.16376515" lon="11.111417266666667"><ele>206.0</ele><time>2026-05-01T10:49:42.847Z</time></trkpt><trkpt lat="46.16392041666666" lon="11.111558749999999"><ele>205.66666666666669</ele><time>2026-05-01T10:49:43.845Z</time></trkpt><trkpt lat="46.16408183333333" lon="11.111686283333333"><ele>205.33333333333331</ele><time>2026-05-01T10:49:44.848Z</time></trkpt><trkpt lat="46.164247833333334" lon="11.111805483333333"><ele>205.0</ele><time>2026-05-01T10:49:45.837Z</time></trkpt><trkpt lat="46.16441764999999" lon="11.11191355"><ele>205.0</ele><time>2026-05-01T10:49:46.845Z</time></trkpt><trkpt lat="46.16458998333333" lon="11.112014216666667"><ele>205.0</ele><time>2026-05-01T10:49:47.842Z</time></trkpt><trkpt lat="46.16476113333333" lon="11.112113566666668"><ele>205.0</ele><time>2026-05-01T10:49:48.847Z</time></trkpt><trkpt lat="46.164932766666674" lon="11.11221328333333"><ele>205.66666666666666</ele><time>2026-05-01T10:49:49.849Z</time></trkpt><trkpt lat="46.16510531666666" lon="11.1123121"><ele>206.33333333333331</ele><time>2026-05-01T10:49:50.845Z</time></trkpt><trkpt lat="46.165278666666666" lon="11.112408433333334"><ele>207.0</ele><time>2026-05-01T10:49:51.836Z</time></trkpt><trkpt lat="46.16545293333334" lon="11.1125041"><ele>207.0</ele><time>2026-05-01T10:49:52.84Z</time></trkpt><trkpt lat="46.165626016666664" lon="11.112602233333334"><ele>207.0</ele><time>2026-05-01T10:49:53.845Z</time></trkpt><trkpt lat="46.16579721666667" lon="11.112696933333332"><ele>207.0</ele><time>2026-05-01T10:49:54.836Z</time></trkpt><trkpt lat="46.165966399999995" lon="11.112790316666667"><ele>206.33333333333331</ele><time>2026-05-01T10:49:55.845Z</time></trkpt><trkpt lat="46.1661315" lon="11.112883333333333"><ele>205.66666666666666</ele><time>2026-05-01T10:49:56.837Z</time></trkpt><trkpt lat="46.1662875" lon="11.112981816666668"><ele>205.0</ele><time>2026-05-01T10:49:57.847Z</time></trkpt><trkpt lat="46.16643438333333" lon="11.113091899999999"><ele>204.33333333333331</ele><time>2026-05-01T10:49:58.847Z</time></trkpt><trkpt lat="46.166570333333325" lon="11.1132212"><ele>203.66666666666669</ele><time>2026-05-01T10:49:59.852Z</time></trkpt><trkpt lat="46.1666937" lon="11.113375033333332"><ele>203.0</ele><time>2026-05-01T10:50:00.836Z</time></trkpt><trkpt lat="46.16680854999999" lon="11.113551133333333"><ele>205.33333333333334</ele><time>2026-05-01T10:50:01.845Z</time></trkpt><trkpt lat="46.16692853333334" lon="11.113737466666663"><ele>207.66666666666669</ele><time>2026-05-01T10:50:02.841Z</time></trkpt><trkpt lat="46.167049833333344" lon="11.113933033333334"><ele>210.0</ele><time>2026-05-01T10:50:03.849Z</time></trkpt><trkpt lat="46.167176966666666" lon="11.114129983333333"><ele>208.33333333333331</ele><time>2026-05-01T10:50:04.849Z</time></trkpt><trkpt lat="46.167311999999995" lon="11.114328183333336"><ele>206.66666666666666</ele><time>2026-05-01T10:50:05.836Z</time></trkpt><trkpt lat="46.16744871666666" lon="11.114530383333333"><ele>205.0</ele><time>2026-05-01T10:50:06.836Z</time></trkpt><trkpt lat="46.167585966666664" lon="11.114735916666666"><ele>208.33333333333331</ele><time>2026-05-01T10:50:07.846Z</time></trkpt><trkpt lat="46.16772111666668" lon="11.1149431"><ele>211.66666666666669</ele><time>2026-05-01T10:50:08.854Z</time></trkpt><trkpt lat="46.167856500000006" lon="11.115151033333332"><ele>215.0</ele><time>2026-05-01T10:50:09.836Z</time></trkpt><trkpt lat="46.167995616666666" lon="11.115358833333335"><ele>215.0</ele><time>2026-05-01T10:50:10.835Z</time></trkpt><trkpt lat="46.16813725" lon="11.115564583333331"><ele>215.0</ele><time>2026-05-01T10:50:11.845Z</time></trkpt><trkpt lat="46.16828950000001" lon="11.115764233333335"><ele>215.0</ele><time>2026-05-01T10:50:12.836Z</time></trkpt><trkpt lat="46.168449433333336" lon="11.115960933333334"><ele>213.66666666666669</ele><time>2026-05-01T10:50:13.845Z</time></trkpt><trkpt lat="46.16861560000001" lon="11.116162666666666"><ele>212.33333333333331</ele><time>2026-05-01T10:50:14.837Z</time></trkpt><trkpt lat="46.16878735" lon="11.11637015"><ele>211.0</ele><time>2026-05-01T10:50:15.837Z</time></trkpt><trkpt lat="46.16896831666666" lon="11.116584933333334"><ele>209.0</ele><time>2026-05-01T10:50:16.855Z</time></trkpt><trkpt lat="46.16915853333333" lon="11.11680245"><ele>207.0</ele><time>2026-05-01T10:50:17.853Z</time></trkpt><trkpt lat="46.169359083333326" lon="11.117022666666665"><ele>207.0</ele><time>2026-05-01T10:50:18.847Z</time></trkpt><trkpt lat="46.16956998333333" lon="11.117242533333334"><ele>207.0</ele><time>2026-05-01T10:50:19.837Z</time></trkpt><trkpt lat="46.16978795" lon="11.117457966666665"><ele>205.0</ele><time>2026-05-01T10:50:20.845Z</time></trkpt><trkpt lat="46.17000923333333" lon="11.117670533333333"><ele>203.0</ele><time>2026-05-01T10:50:21.836Z</time></trkpt><trkpt lat="46.17023211666667" lon="11.117885450000003"><ele>203.0</ele><time>2026-05-01T10:50:22.854Z</time></trkpt><trkpt lat="46.170456650000006" lon="11.11810185"><ele>203.0</ele><time>2026-05-01T10:50:23.846Z</time></trkpt><trkpt lat="46.17068648333334" lon="11.118317133333335"><ele>202.5</ele><time>2026-05-01T10:50:24.848Z</time></trkpt><trkpt lat="46.17092021666668" lon="11.118535000000001"><ele>202.0</ele><time>2026-05-01T10:50:25.844Z</time></trkpt><trkpt lat="46.17115786666667" lon="11.118755483333333"><ele>202.0</ele><time>2026-05-01T10:50:26.849Z</time></trkpt><trkpt lat="46.1713951" lon="11.1189766"><ele>202.0</ele><time>2026-05-01T10:50:27.845Z</time></trkpt><trkpt lat="46.17162211666667" lon="11.119186916666669"><ele>201.5</ele><time>2026-05-01T10:50:28.846Z</time></trkpt><trkpt lat="46.17184023333333" lon="11.119379166666667"><ele>201.0</ele><time>2026-05-01T10:50:29.845Z</time></trkpt><trkpt lat="46.17204790000001" lon="11.119550250000001"><ele>201.0</ele><time>2026-05-01T10:50:30.834Z</time></trkpt><trkpt lat="46.172251149999994" lon="11.11970235"><ele>201.0</ele><time>2026-05-01T10:50:31.842Z</time></trkpt><trkpt lat="46.17243853333333" lon="11.119846483333333"><ele>201.0</ele><time>2026-05-01T10:50:32.844Z</time></trkpt><trkpt lat="46.172616749999996" lon="11.11999225"><ele>202.33333333333331</ele><time>2026-05-01T10:50:33.847Z</time></trkpt><trkpt lat="46.172786466666665" lon="11.120137816666665"><ele>203.66666666666666</ele><time>2026-05-01T10:50:34.849Z</time></trkpt><trkpt lat="46.172965350000005" lon="11.120276533333332"><ele>205.0</ele><time>2026-05-01T10:50:35.852Z</time></trkpt><trkpt lat="46.17315891666667" lon="11.120394416666667"><ele>204.66666666666666</ele><time>2026-05-01T10:50:36.844Z</time></trkpt><trkpt lat="46.173359233333336" lon="11.120487516666666"><ele>204.33333333333331</ele><time>2026-05-01T10:50:37.841Z</time></trkpt><trkpt lat="46.17355288333333" lon="11.120564733333334"><ele>204.0</ele><time>2026-05-01T10:50:38.841Z</time></trkpt><trkpt lat="46.17373678333333" lon="11.120633449999998"><ele>204.0</ele><time>2026-05-01T10:50:39.83Z</time></trkpt><trkpt lat="46.17390534999999" lon="11.120703416666666"><ele>204.0</ele><time>2026-05-01T10:50:40.834Z</time></trkpt><trkpt lat="46.17405874999999" lon="11.120792349999999"><ele>204.0</ele><time>2026-05-01T10:50:41.84Z</time></trkpt><trkpt lat="46.17419508333334" lon="11.120909133333335"><ele>204.0</ele><time>2026-05-01T10:50:42.832Z</time></trkpt><trkpt lat="46.174311016666664" lon="11.121048850000001"><ele>204.0</ele><time>2026-05-01T10:50:43.848Z</time></trkpt><trkpt lat="46.1744057" lon="11.121198216666667"><ele>204.0</ele><time>2026-05-01T10:50:44.851Z</time></trkpt><trkpt lat="46.17448208333334" lon="11.121350866666667"><ele>204.0</ele><time>2026-05-01T10:50:45.83Z</time></trkpt><trkpt lat="46.174548833333326" lon="11.12149776666667"><ele>204.79999999999998</ele><time>2026-05-01T10:50:46.84Z</time></trkpt><trkpt lat="46.17461175" lon="11.121638783333333"><ele>205.6</ele><time>2026-05-01T10:50:47.849Z</time></trkpt><trkpt lat="46.17466996666667" lon="11.121771683333334"><ele>206.4</ele><time>2026-05-01T10:50:48.831Z</time></trkpt><trkpt lat="46.17471373333333" lon="11.121898416666667"><ele>207.2</ele><time>2026-05-01T10:50:49.84Z</time></trkpt><trkpt lat="46.174746649999996" lon="11.122018849999998"><ele>208.0</ele><time>2026-05-01T10:50:50.843Z</time></trkpt><trkpt lat="46.17476311157995" lon="11.122129139370458"><ele>207.25</ele><time>2026-05-01T10:50:51.829Z</time></trkpt><trkpt lat="46.17487761966333" lon="11.122158687401292"><ele>206.5</ele><time>2026-05-01T10:50:52.839Z</time></trkpt><trkpt lat="46.17495076666667" lon="11.122232883333332"><ele>205.75</ele><time>2026-05-01T10:50:53.84Z</time></trkpt><trkpt lat="46.17506526666666" lon="11.122257033333335"><ele>205.0</ele><time>2026-05-01T10:50:54.831Z</time></trkpt><trkpt lat="46.175195900000006" lon="11.122304149999998"><ele>205.0</ele><time>2026-05-01T10:50:55.84Z</time></trkpt><trkpt lat="46.17534737893505" lon="11.122398352196655"><ele>205.0</ele><time>2026-05-01T10:50:56.852Z</time></trkpt><trkpt lat="46.175538350000004" lon="11.122416833333332"><ele>205.0</ele><time>2026-05-01T10:50:57.83Z</time></trkpt><trkpt lat="46.17574606666667" lon="11.122464533333334"><ele>205.0</ele><time>2026-05-01T10:50:58.83Z</time></trkpt><trkpt lat="46.17597563333334" lon="11.122514766666665"><ele>205.0</ele><time>2026-05-01T10:50:59.85Z</time></trkpt><trkpt lat="46.17622255" lon="11.122567599999998"><ele>205.0</ele><time>2026-05-01T10:51:00.831Z</time></trkpt><trkpt lat="46.17646928333334" lon="11.122626383333332"><ele>205.0</ele><time>2026-05-01T10:51:01.839Z</time></trkpt><trkpt lat="46.1767035" lon="11.122675933333335"><ele>204.5</ele><time>2026-05-01T10:51:02.847Z</time></trkpt><trkpt lat="46.17693326666667" lon="11.122701066666664"><ele>204.0</ele><time>2026-05-01T10:51:03.851Z</time></trkpt><trkpt lat="46.177168550000005" lon="11.122676166666666"><ele>207.5</ele><time>2026-05-01T10:51:04.85Z</time></trkpt><trkpt lat="46.17741051666667" lon="11.122587816666666"><ele>211.0</ele><time>2026-05-01T10:51:05.847Z</time></trkpt><trkpt lat="46.177658050000005" lon="11.12245865"><ele>206.5</ele><time>2026-05-01T10:51:06.829Z</time></trkpt><trkpt lat="46.17791415" lon="11.122313400000001"><ele>202.0</ele><time>2026-05-01T10:51:07.839Z</time></trkpt><trkpt lat="46.178176349999994" lon="11.122152683333336"><ele>204.0</ele><time>2026-05-01T10:51:08.845Z</time></trkpt><trkpt lat="46.17843491666666" lon="11.121990966666665"><ele>206.0</ele><time>2026-05-01T10:51:09.843Z</time></trkpt><trkpt lat="46.1786873" lon="11.121840783333335"><ele>206.0</ele><time>2026-05-01T10:51:10.851Z</time></trkpt><trkpt lat="46.17892871666667" lon="11.121711816666668"><ele>206.0</ele><time>2026-05-01T10:51:11.85Z</time></trkpt><trkpt lat="46.17916838333334" lon="11.121617150000002"><ele>204.5</ele><time>2026-05-01T10:51:12.832Z</time></trkpt><trkpt lat="46.17941385000001" lon="11.121566433333332"><ele>203.0</ele><time>2026-05-01T10:51:13.84Z</time></trkpt><trkpt lat="46.179664716666665" lon="11.121546666666667"><ele>202.5</ele><time>2026-05-01T10:51:14.851Z</time></trkpt><trkpt lat="46.17991673333333" lon="11.121557983333332"><ele>202.0</ele><time>2026-05-01T10:51:15.831Z</time></trkpt><trkpt lat="46.180168083333335" lon="11.121609883333335"><ele>205.5</ele><time>2026-05-01T10:51:16.84Z</time></trkpt><trkpt lat="46.1804213" lon="11.121706516666666"><ele>209.0</ele><time>2026-05-01T10:51:17.847Z</time></trkpt><trkpt lat="46.18068256666667" lon="11.121832366666668"><ele>207.0</ele><time>2026-05-01T10:51:18.832Z</time></trkpt><trkpt lat="46.18095065000001" lon="11.12196948333333"><ele>205.0</ele><time>2026-05-01T10:51:19.842Z</time></trkpt><trkpt lat="46.181215050000006" lon="11.122110683333336"><ele>205.0</ele><time>2026-05-01T10:51:20.845Z</time></trkpt><trkpt lat="46.18148005" lon="11.122254850000003"><ele>205.0</ele><time>2026-05-01T10:51:21.832Z</time></trkpt><trkpt lat="46.18174726666666" lon="11.122405066666666"><ele>204.5</ele><time>2026-05-01T10:51:22.841Z</time></trkpt><trkpt lat="46.18201959999999" lon="11.122564849999998"><ele>204.0</ele><time>2026-05-01T10:51:23.837Z</time></trkpt><trkpt lat="46.18229123333334" lon="11.122730699999998"><ele>202.5</ele><time>2026-05-01T10:51:24.831Z</time></trkpt><trkpt lat="46.18256403333333" lon="11.122899916666665"><ele>201.0</ele><time>2026-05-01T10:51:25.841Z</time></trkpt><trkpt lat="46.18283374999999" lon="11.123069283333333"><ele>201.0</ele><time>2026-05-01T10:51:26.848Z</time></trkpt><trkpt lat="46.183102483333336" lon="11.123235383333334"><ele>201.0</ele><time>2026-05-01T10:51:27.829Z</time></trkpt><trkpt lat="46.1833687" lon="11.123400416666668"><ele>201.0</ele><time>2026-05-01T10:51:28.834Z</time></trkpt><trkpt lat="46.18363081666667" lon="11.123562150000001"><ele>201.0</ele><time>2026-05-01T10:51:29.842Z</time></trkpt><trkpt lat="46.183890683333324" lon="11.123720916666665"><ele>201.0</ele><time>2026-05-01T10:51:30.834Z</time></trkpt><trkpt lat="46.18415063333334" lon="11.123883316666667"><ele>201.0</ele><time>2026-05-01T10:51:31.84Z</time></trkpt><trkpt lat="46.18440648333333" lon="11.124040683333332"><ele>200.5</ele><time>2026-05-01T10:51:32.83Z</time></trkpt><trkpt lat="46.18465930000001" lon="11.124197266666666"><ele>200.0</ele><time>2026-05-01T10:51:33.831Z</time></trkpt><trkpt lat="46.18491231666667" lon="11.124357233333333"><ele>200.0</ele><time>2026-05-01T10:51:34.842Z</time></trkpt><trkpt lat="46.18516594999999" lon="11.124528649999998"><ele>200.0</ele><time>2026-05-01T10:51:35.84Z</time></trkpt><trkpt lat="46.185417400000006" lon="11.124719566666665"><ele>200.0</ele><time>2026-05-01T10:51:36.832Z</time></trkpt><trkpt lat="46.18565676666667" lon="11.124915116666667"><ele>200.0</ele><time>2026-05-01T10:51:37.835Z</time></trkpt><trkpt lat="46.1858718" lon="11.125100466666668"><ele>200.66666666666669</ele><time>2026-05-01T10:51:38.84Z</time></trkpt><trkpt lat="46.18606356666666" lon="11.125270650000001"><ele>201.33333333333331</ele><time>2026-05-01T10:51:39.831Z</time></trkpt><trkpt lat="46.18623646666667" lon="11.125427466666666"><ele>202.0</ele><time>2026-05-01T10:51:40.84Z</time></trkpt><trkpt lat="46.18639588333334" lon="11.1255736"><ele>201.66666666666666</ele><time>2026-05-01T10:51:41.831Z</time></trkpt><trkpt lat="46.18654665000001" lon="11.125713683333334"><ele>201.33333333333331</ele><time>2026-05-01T10:51:42.831Z</time></trkpt><trkpt lat="46.186690766666665" lon="11.125849066666667"><ele>201.0</ele><time>2026-05-01T10:51:43.84Z</time></trkpt><trkpt lat="46.18682926666668" lon="11.125982333333333"><ele>202.0</ele><time>2026-05-01T10:51:44.842Z</time></trkpt><trkpt lat="46.186963150000004" lon="11.126116483333334"><ele>203.0</ele><time>2026-05-01T10:51:45.843Z</time></trkpt><trkpt lat="46.18709776666666" lon="11.1262471"><ele>204.0</ele><time>2026-05-01T10:51:46.829Z</time></trkpt><trkpt lat="46.18723198333334" lon="11.126371849999998"><ele>203.75</ele><time>2026-05-01T10:51:47.841Z</time></trkpt><trkpt lat="46.18736468333333" lon="11.12649435"><ele>203.5</ele><time>2026-05-01T10:51:48.831Z</time></trkpt><trkpt lat="46.18749178333334" lon="11.126610249999999"><ele>203.25</ele><time>2026-05-01T10:51:49.842Z</time></trkpt><trkpt lat="46.187610783333334" lon="11.12671975"><ele>203.0</ele><time>2026-05-01T10:51:50.832Z</time></trkpt><trkpt lat="46.18772381666666" lon="11.126824516666666"><ele>203.0</ele><time>2026-05-01T10:51:51.832Z</time></trkpt><trkpt lat="46.18783736666666" lon="11.126925966666667"><ele>203.0</ele><time>2026-05-01T10:51:52.84Z</time></trkpt><trkpt lat="46.18795023333334" lon="11.127028266666665"><ele>203.0</ele><time>2026-05-01T10:51:53.84Z</time></trkpt><trkpt lat="46.188063216666656" lon="11.127131483333336"><ele>203.0</ele><time>2026-05-01T10:51:54.831Z</time></trkpt><trkpt lat="46.188171383333334" lon="11.127231883333332"><ele>203.0</ele><time>2026-05-01T10:51:55.853Z</time></trkpt><trkpt lat="46.18827416666666" lon="11.127326233333333"><ele>203.0</ele><time>2026-05-01T10:51:56.84Z</time></trkpt><trkpt lat="46.188370016666674" lon="11.127416049999999"><ele>203.0</ele><time>2026-05-01T10:51:57.831Z</time></trkpt><trkpt lat="46.188460866666674" lon="11.1275024"><ele>203.0</ele><time>2026-05-01T10:51:58.841Z</time></trkpt><trkpt lat="46.18855118333333" lon="11.127589933333335"><ele>202.75</ele><time>2026-05-01T10:51:59.844Z</time></trkpt><trkpt lat="46.1886438" lon="11.127677016666668"><ele>202.5</ele><time>2026-05-01T10:52:00.846Z</time></trkpt><trkpt lat="46.18873738333333" lon="11.1277662"><ele>202.25</ele><time>2026-05-01T10:52:01.84Z</time></trkpt><trkpt lat="46.18883456666668" lon="11.127858683333333"><ele>202.0</ele><time>2026-05-01T10:52:02.833Z</time></trkpt><trkpt lat="46.18893556666667" lon="11.127956649999998"><ele>202.5</ele><time>2026-05-01T10:52:03.829Z</time></trkpt><trkpt lat="46.18903770000001" lon="11.128057016666666"><ele>203.0</ele><time>2026-05-01T10:52:04.839Z</time></trkpt><trkpt lat="46.18914226666668" lon="11.128157733333335"><ele>203.5</ele><time>2026-05-01T10:52:05.84Z</time></trkpt><trkpt lat="46.18924951666666" lon="11.128262633333335"><ele>204.0</ele><time>2026-05-01T10:52:06.831Z</time></trkpt><trkpt lat="46.189356133333334" lon="11.1283713"><ele>204.75</ele><time>2026-05-01T10:52:07.85Z</time></trkpt><trkpt lat="46.18946173333333" lon="11.128472416666668"><ele>205.5</ele><time>2026-05-01T10:52:08.842Z</time></trkpt><trkpt lat="46.18956486666666" lon="11.128567783333331"><ele>206.25</ele><time>2026-05-01T10:52:09.845Z</time></trkpt><trkpt lat="46.189667916666664" lon="11.128659333333333"><ele>207.0</ele><time>2026-05-01T10:52:10.84Z</time></trkpt><trkpt lat="46.18977244999999" lon="11.128752283333332"><ele>206.0</ele><time>2026-05-01T10:52:11.84Z</time></trkpt><trkpt lat="46.18987846666667" lon="11.128846416666667"><ele>205.0</ele><time>2026-05-01T10:52:12.832Z</time></trkpt><trkpt lat="46.18998625" lon="11.128941950000002"><ele>204.0</ele><time>2026-05-01T10:52:13.84Z</time></trkpt><trkpt lat="46.19009478333334" lon="11.12904338333333"><ele>203.0</ele><time>2026-05-01T10:52:14.843Z</time></trkpt><trkpt lat="46.19020763333333" lon="11.129146716666666"><ele>203.0</ele><time>2026-05-01T10:52:15.829Z</time></trkpt><trkpt lat="46.19032528333334" lon="11.129255533333332"><ele>203.0</ele><time>2026-05-01T10:52:16.84Z</time></trkpt><trkpt lat="46.190447966666675" lon="11.129368066666666"><ele>203.0</ele><time>2026-05-01T10:52:17.84Z</time></trkpt><trkpt lat="46.190570799999996" lon="11.129483116666666"><ele>203.0</ele><time>2026-05-01T10:52:18.831Z</time></trkpt><trkpt lat="46.19069193333333" lon="11.129592383333334"><ele>203.25</ele><time>2026-05-01T10:52:19.842Z</time></trkpt><trkpt lat="46.19081163333333" lon="11.12970345"><ele>203.5</ele><time>2026-05-01T10:52:20.836Z</time></trkpt><trkpt lat="46.19093013333333" lon="11.129813850000001"><ele>203.75</ele><time>2026-05-01T10:52:21.836Z</time></trkpt><trkpt lat="46.191049533333334" lon="11.129927133333334"><ele>204.0</ele><time>2026-05-01T10:52:22.84Z</time></trkpt><trkpt lat="46.19117091666667" lon="11.130042366666666"><ele>204.25</ele><time>2026-05-01T10:52:23.842Z</time></trkpt><trkpt lat="46.19129526666667" lon="11.130157116666664"><ele>204.5</ele><time>2026-05-01T10:52:24.829Z</time></trkpt><trkpt lat="46.191422216666666" lon="11.130272266666669"><ele>204.75</ele><time>2026-05-01T10:52:25.851Z</time></trkpt><trkpt lat="46.1915486" lon="11.1303874"><ele>205.0</ele><time>2026-05-01T10:52:26.843Z</time></trkpt><trkpt lat="46.19167156666668" lon="11.13050045"><ele>205.25</ele><time>2026-05-01T10:52:27.831Z</time></trkpt><trkpt lat="46.19179093333334" lon="11.13061445"><ele>205.5</ele><time>2026-05-01T10:52:28.84Z</time></trkpt><trkpt lat="46.19190910000001" lon="11.13072795"><ele>205.75</ele><time>2026-05-01T10:52:29.832Z</time></trkpt><trkpt lat="46.19202635" lon="11.130839616666666"><ele>206.0</ele><time>2026-05-01T10:52:30.831Z</time></trkpt><trkpt lat="46.192142399999994" lon="11.130950166666667"><ele>206.25</ele><time>2026-05-01T10:52:31.84Z</time></trkpt><trkpt lat="46.19225791666666" lon="11.131057066666665"><ele>206.5</ele><time>2026-05-01T10:52:32.852Z</time></trkpt><trkpt lat="46.192373266666664" lon="11.13116535"><ele>206.75</ele><time>2026-05-01T10:52:33.843Z</time></trkpt><trkpt lat="46.19248996666666" lon="11.131275550000002"><ele>207.0</ele><time>2026-05-01T10:52:34.85Z</time></trkpt><trkpt lat="46.192611299999996" lon="11.1313864"><ele>207.0</ele><time>2026-05-01T10:52:35.848Z</time></trkpt><trkpt lat="46.19273795000001" lon="11.131496116666664"><ele>207.0</ele><time>2026-05-01T10:52:36.832Z</time></trkpt><trkpt lat="46.192863800000005" lon="11.131610899999998"><ele>207.0</ele><time>2026-05-01T10:52:37.829Z</time></trkpt><trkpt lat="46.192983950000006" lon="11.13172945"><ele>207.0</ele><time>2026-05-01T10:52:38.84Z</time></trkpt><trkpt lat="46.19310300000001" lon="11.13183925"><ele>206.75</ele><time>2026-05-01T10:52:39.841Z</time></trkpt><trkpt lat="46.193221583333326" lon="11.131941950000002"><ele>206.5</ele><time>2026-05-01T10:52:40.85Z</time></trkpt><trkpt lat="46.193341600000004" lon="11.132039833333332"><ele>206.25</ele><time>2026-05-01T10:52:41.849Z</time></trkpt><trkpt lat="46.193462966666665" lon="11.132131150000003"><ele>206.0</ele><time>2026-05-01T10:52:42.839Z</time></trkpt><trkpt lat="46.19358158333333" lon="11.132211083333333"><ele>206.0</ele><time>2026-05-01T10:52:43.852Z</time></trkpt><trkpt lat="46.19369620000001" lon="11.132279"><ele>206.0</ele><time>2026-05-01T10:52:44.846Z</time></trkpt><trkpt lat="46.193814366666665" lon="11.132336466666667"><ele>206.0</ele><time>2026-05-01T10:52:45.841Z</time></trkpt><trkpt lat="46.19393671666666" lon="11.132381133333334"><ele>206.0</ele><time>2026-05-01T10:52:46.84Z</time></trkpt><trkpt lat="46.19405363333334" lon="11.132415833333333"><ele>207.20000000000002</ele><time>2026-05-01T10:52:47.844Z</time></trkpt><trkpt lat="46.194165649999995" lon="11.132453716666665"><ele>208.4</ele><time>2026-05-01T10:52:48.84Z</time></trkpt><trkpt lat="46.19427293333333" lon="11.132505483333334"><ele>209.6</ele><time>2026-05-01T10:52:49.842Z</time></trkpt><trkpt lat="46.19437596666667" lon="11.132563116666665"><ele>210.8</ele><time>2026-05-01T10:52:50.848Z</time></trkpt><trkpt lat="46.19447436666666" lon="11.132624583333333"><ele>212.0</ele><time>2026-05-01T10:52:51.831Z</time></trkpt><trkpt lat="46.19456400000001" lon="11.132682516666666"><ele>212.0</ele><time>2026-05-01T10:52:52.829Z</time></trkpt><trkpt lat="46.19465043333333" lon="11.132732133333333"><ele>212.0</ele><time>2026-05-01T10:52:53.845Z</time></trkpt><trkpt lat="46.19473766666666" lon="11.132785550000001"><ele>212.0</ele><time>2026-05-01T10:52:54.831Z</time></trkpt><trkpt lat="46.19483245" lon="11.132847583333334"><ele>212.0</ele><time>2026-05-01T10:52:55.84Z</time></trkpt><trkpt lat="46.19494103333333" lon="11.132910683333334"><ele>212.0</ele><time>2026-05-01T10:52:56.84Z</time></trkpt><trkpt lat="46.195069700000005" lon="11.132981833333334"><ele>213.33333333333334</ele><time>2026-05-01T10:52:57.843Z</time></trkpt><trkpt lat="46.195219349999995" lon="11.133067466666667"><ele>214.66666666666669</ele><time>2026-05-01T10:52:58.841Z</time></trkpt><trkpt lat="46.19539593333334" lon="11.1331704"><ele>216.0</ele><time>2026-05-01T10:52:59.838Z</time></trkpt><trkpt lat="46.19559106666667" lon="11.13328065"><ele>214.5</ele><time>2026-05-01T10:53:00.83Z</time></trkpt><trkpt lat="46.19580251666666" lon="11.1333974"><ele>213.0</ele><time>2026-05-01T10:53:01.848Z</time></trkpt><trkpt lat="46.19601935000001" lon="11.133507"><ele>213.0</ele><time>2026-05-01T10:53:02.827Z</time></trkpt><trkpt lat="46.19622328333333" lon="11.133607133333333"><ele>213.0</ele><time>2026-05-01T10:53:03.831Z</time></trkpt><trkpt lat="46.19641320000001" lon="11.133712183333333"><ele>213.0</ele><time>2026-05-01T10:53:04.836Z</time></trkpt><trkpt lat="46.19658643333334" lon="11.133822316666665"><ele>214.33333333333331</ele><time>2026-05-01T10:53:05.84Z</time></trkpt><trkpt lat="46.196748583333324" lon="11.133939799999998"><ele>215.66666666666666</ele><time>2026-05-01T10:53:06.835Z</time></trkpt><trkpt lat="46.19689923333334" lon="11.134043066666667"><ele>217.0</ele><time>2026-05-01T10:53:07.84Z</time></trkpt><trkpt lat="46.19704575000001" lon="11.134146549999999"><ele>217.0</ele><time>2026-05-01T10:53:08.832Z</time></trkpt><trkpt lat="46.197197766666676" lon="11.134254400000001"><ele>217.0</ele><time>2026-05-01T10:53:09.832Z</time></trkpt><trkpt lat="46.197357849999996" lon="11.134370783333335"><ele>217.0</ele><time>2026-05-01T10:53:10.837Z</time></trkpt><trkpt lat="46.197530783333335" lon="11.134488983333332"><ele>213.0</ele><time>2026-05-01T10:53:11.849Z</time></trkpt><trkpt lat="46.19772103333333" lon="11.134614133333331"><ele>209.0</ele><time>2026-05-01T10:53:12.831Z</time></trkpt><trkpt lat="46.197925983333334" lon="11.134744650000002"><ele>205.0</ele><time>2026-05-01T10:53:13.836Z</time></trkpt><trkpt lat="46.198145216666674" lon="11.134878533333332"><ele>206.0</ele><time>2026-05-01T10:53:14.84Z</time></trkpt><trkpt lat="46.198379116666665" lon="11.135015583333331"><ele>207.0</ele><time>2026-05-01T10:53:15.843Z</time></trkpt><trkpt lat="46.19862895" lon="11.135162083333334"><ele>207.0</ele><time>2026-05-01T10:53:16.841Z</time></trkpt><trkpt lat="46.19889203333334" lon="11.135313483333334"><ele>207.0</ele><time>2026-05-01T10:53:17.831Z</time></trkpt><trkpt lat="46.19916228333333" lon="11.135471133333331"><ele>207.5</ele><time>2026-05-01T10:53:18.843Z</time></trkpt><trkpt lat="46.19943321666666" lon="11.135634033333334"><ele>208.0</ele><time>2026-05-01T10:53:19.848Z</time></trkpt><trkpt lat="46.199701033333334" lon="11.135810433333331"><ele>207.0</ele><time>2026-05-01T10:53:20.829Z</time></trkpt><trkpt lat="46.19997151666667" lon="11.136002633333332"><ele>206.0</ele><time>2026-05-01T10:53:21.831Z</time></trkpt><trkpt lat="46.20025065" lon="11.136206699999999"><ele>206.0</ele><time>2026-05-01T10:53:22.829Z</time></trkpt><trkpt lat="46.20053573333333" lon="11.136427199999998"><ele>206.0</ele><time>2026-05-01T10:53:23.841Z</time></trkpt><trkpt lat="46.20082148333332" lon="11.136656066666667"><ele>206.5</ele><time>2026-05-01T10:53:24.835Z</time></trkpt><trkpt lat="46.2011038" lon="11.136896033333336"><ele>207.0</ele><time>2026-05-01T10:53:25.85Z</time></trkpt><trkpt lat="46.20138188333334" lon="11.137144966666666"><ele>206.0</ele><time>2026-05-01T10:53:26.828Z</time></trkpt><trkpt lat="46.20165666666667" lon="11.137397533333335"><ele>205.0</ele><time>2026-05-01T10:53:27.829Z</time></trkpt><trkpt lat="46.201930366666666" lon="11.137658700000001"><ele>205.0</ele><time>2026-05-01T10:53:28.847Z</time></trkpt><trkpt lat="46.20219901666666" lon="11.13792835"><ele>205.0</ele><time>2026-05-01T10:53:29.85Z</time></trkpt><trkpt lat="46.20246228333334" lon="11.138205216666666"><ele>203.0</ele><time>2026-05-01T10:53:30.839Z</time></trkpt><trkpt lat="46.20271741666667" lon="11.138487000000003"><ele>201.0</ele><time>2026-05-01T10:53:31.847Z</time></trkpt><trkpt lat="46.20296883333334" lon="11.138771350000003"><ele>204.5</ele><time>2026-05-01T10:53:32.85Z</time></trkpt><trkpt lat="46.2032168" lon="11.139056833333333"><ele>208.0</ele><time>2026-05-01T10:53:33.843Z</time></trkpt><trkpt lat="46.20346113333333" lon="11.139344616666664"><ele>208.0</ele><time>2026-05-01T10:53:34.841Z</time></trkpt><trkpt lat="46.20369635" lon="11.139638649999998"><ele>208.0</ele><time>2026-05-01T10:53:35.843Z</time></trkpt><trkpt lat="46.20392063333333" lon="11.139934449999998"><ele>205.0</ele><time>2026-05-01T10:53:36.845Z</time></trkpt><trkpt lat="46.20413476666666" lon="11.140218716666666"><ele>202.0</ele><time>2026-05-01T10:53:37.829Z</time></trkpt><trkpt lat="46.204335400000005" lon="11.140486816666664"><ele>203.0</ele><time>2026-05-01T10:53:38.84Z</time></trkpt><trkpt lat="46.204519399999995" lon="11.1407332"><ele>204.0</ele><time>2026-05-01T10:53:39.832Z</time></trkpt><trkpt lat="46.20468376666666" lon="11.140947866666666"><ele>204.0</ele><time>2026-05-01T10:53:40.841Z</time></trkpt><trkpt lat="46.204827266666676" lon="11.141140800000002"><ele>204.0</ele><time>2026-05-01T10:53:41.841Z</time></trkpt><trkpt lat="46.204956599999996" lon="11.14131715"><ele>204.0</ele><time>2026-05-01T10:53:42.847Z</time></trkpt><trkpt lat="46.20507858333334" lon="11.141482383333335"><ele>203.5</ele><time>2026-05-01T10:53:43.84Z</time></trkpt><trkpt lat="46.20519226666667" lon="11.141638450000002"><ele>203.0</ele><time>2026-05-01T10:53:44.85Z</time></trkpt><trkpt lat="46.20530019999999" lon="11.141788966666665"><ele>202.5</ele><time>2026-05-01T10:53:45.843Z</time></trkpt><trkpt lat="46.20539483333334" lon="11.141930149999999"><ele>202.0</ele><time>2026-05-01T10:53:46.85Z</time></trkpt><trkpt lat="46.205469283333336" lon="11.142058333333335"><ele>202.0</ele><time>2026-05-01T10:53:47.841Z</time></trkpt><trkpt lat="46.205522766666675" lon="11.142164483333334"><ele>202.0</ele><time>2026-05-01T10:53:48.833Z</time></trkpt><trkpt lat="46.205585299999996" lon="11.142288466666667"><ele>202.0</ele><time>2026-05-01T10:53:50.837Z</time></trkpt><trkpt lat="46.20565296666667" lon="11.142354266666667"><ele>202.0</ele><time>2026-05-01T10:53:52.843Z</time></trkpt><trkpt lat="46.20577124999999" lon="11.142295333333333"><ele>202.0</ele><time>2026-05-01T10:53:54.831Z</time></trkpt><trkpt lat="46.20582575" lon="11.14220425"><ele>202.0</ele><time>2026-05-01T10:53:55.847Z</time></trkpt><trkpt lat="46.205881466666675" lon="11.142092283333334"><ele>202.0</ele><time>2026-05-01T10:53:56.843Z</time></trkpt><trkpt lat="46.205939766666674" lon="11.141967183333335"><ele>202.0</ele><time>2026-05-01T10:53:57.831Z</time></trkpt><trkpt lat="46.20600591666667" lon="11.141825933333331"><ele>202.0</ele><time>2026-05-01T10:53:58.841Z</time></trkpt><trkpt lat="46.2060808" lon="11.141670416666667"><ele>202.0</ele><time>2026-05-01T10:53:59.838Z</time></trkpt><trkpt lat="46.20616258333333" lon="11.141499266666665"><ele>203.0</ele><time>2026-05-01T10:54:00.83Z</time></trkpt><trkpt lat="46.20624996666667" lon="11.141318116666666"><ele>204.0</ele><time>2026-05-01T10:54:01.851Z</time></trkpt><trkpt lat="46.20633963333333" lon="11.14113795"><ele>205.0</ele><time>2026-05-01T10:54:02.849Z</time></trkpt><trkpt lat="46.2064295" lon="11.140954733333334"><ele>205.0</ele><time>2026-05-01T10:54:03.831Z</time></trkpt><trkpt lat="46.206518499999994" lon="11.140765366666669"><ele>205.0</ele><time>2026-05-01T10:54:04.85Z</time></trkpt><trkpt lat="46.206605483333334" lon="11.140566799999998"><ele>205.0</ele><time>2026-05-01T10:54:05.841Z</time></trkpt><trkpt lat="46.20669254999999" lon="11.14035853333333"><ele>205.0</ele><time>2026-05-01T10:54:06.831Z</time></trkpt><trkpt lat="46.206777300000006" lon="11.140146666666666"><ele>205.0</ele><time>2026-05-01T10:54:07.842Z</time></trkpt><trkpt lat="46.20685763333332" lon="11.1399418"><ele>205.0</ele><time>2026-05-01T10:54:08.853Z</time></trkpt><trkpt lat="46.206934516666664" lon="11.139741816666668"><ele>204.75</ele><time>2026-05-01T10:54:09.838Z</time></trkpt><trkpt lat="46.20700371666667" lon="11.1395572"><ele>204.5</ele><time>2026-05-01T10:54:10.851Z</time></trkpt><trkpt lat="46.20706836666667" lon="11.139382716666669"><ele>204.25</ele><time>2026-05-01T10:54:11.85Z</time></trkpt><trkpt lat="46.20712906666666" lon="11.139202866666668"><ele>204.0</ele><time>2026-05-01T10:54:12.83Z</time></trkpt><trkpt lat="46.20718493333334" lon="11.1390112"><ele>203.75</ele><time>2026-05-01T10:54:13.84Z</time></trkpt><trkpt lat="46.20723176666667" lon="11.138814433333335"><ele>203.5</ele><time>2026-05-01T10:54:14.843Z</time></trkpt><trkpt lat="46.20727245" lon="11.138632916666666"><ele>203.25</ele><time>2026-05-01T10:54:15.831Z</time></trkpt><trkpt lat="46.20731131666667" lon="11.138465299999998"><ele>203.0</ele><time>2026-05-01T10:54:16.829Z</time></trkpt><trkpt lat="46.20734806666667" lon="11.138311566666667"><ele>203.33333333333334</ele><time>2026-05-01T10:54:17.847Z</time></trkpt><trkpt lat="46.207380933333326" lon="11.138170433333334"><ele>203.66666666666669</ele><time>2026-05-01T10:54:18.843Z</time></trkpt><trkpt lat="46.2074109" lon="11.1380479"><ele>204.0</ele><time>2026-05-01T10:54:19.843Z</time></trkpt><trkpt lat="46.207442916666665" lon="11.137950916666666"><ele>204.33333333333331</ele><time>2026-05-01T10:54:20.836Z</time></trkpt><trkpt lat="46.20749059999999" lon="11.137883283333334"><ele>204.66666666666666</ele><time>2026-05-01T10:54:21.843Z</time></trkpt><trkpt lat="46.20755640000001" lon="11.13783825"><ele>205.0</ele><time>2026-05-01T10:54:22.854Z</time></trkpt><trkpt lat="46.20763786666666" lon="11.137825966666666"><ele>204.99999999999997</ele><time>2026-05-01T10:54:23.839Z</time></trkpt><trkpt lat="46.20771501666667" lon="11.13786331666667"><ele>205.0</ele><time>2026-05-01T10:54:24.83Z</time></trkpt><trkpt lat="46.20776968333333" lon="11.1379354"><ele>205.0</ele><time>2026-05-01T10:54:25.842Z</time></trkpt><trkpt lat="46.20780915" lon="11.13801945"><ele>205.0</ele><time>2026-05-01T10:54:26.848Z</time></trkpt><trkpt lat="46.207852933333335" lon="11.138107383333331"><ele>204.99999999999997</ele><time>2026-05-01T10:54:27.831Z</time></trkpt><trkpt lat="46.207918299999996" lon="11.13820068333333"><ele>205.0</ele><time>2026-05-01T10:54:28.84Z</time></trkpt><trkpt lat="46.20801521666667" lon="11.138292449999998"><ele>205.0</ele><time>2026-05-01T10:54:29.83Z</time></trkpt><trkpt lat="46.20813676666666" lon="11.138381799999998"><ele>205.0</ele><time>2026-05-01T10:54:30.837Z</time></trkpt><trkpt lat="46.20828588333333" lon="11.13846685"><ele>205.0</ele><time>2026-05-01T10:54:31.842Z</time></trkpt><trkpt lat="46.20846433333333" lon="11.138563083333334"><ele>205.0</ele><time>2026-05-01T10:54:32.83Z</time></trkpt><trkpt lat="46.20865278333334" lon="11.138665150000001"><ele>205.0</ele><time>2026-05-01T10:54:33.837Z</time></trkpt><trkpt lat="46.20885505" lon="11.1387716"><ele>205.0</ele><time>2026-05-01T10:54:34.85Z</time></trkpt><trkpt lat="46.209077449999995" lon="11.13888565"><ele>205.0</ele><time>2026-05-01T10:54:35.843Z</time></trkpt><trkpt lat="46.20931733333334" lon="11.139003483333333"><ele>205.0</ele><time>2026-05-01T10:54:36.835Z</time></trkpt><trkpt lat="46.209557333333336" lon="11.139121633333332"><ele>205.0</ele><time>2026-05-01T10:54:37.84Z</time></trkpt><trkpt lat="46.209808083333336" lon="11.139243900000002"><ele>205.0</ele><time>2026-05-01T10:54:38.833Z</time></trkpt><trkpt lat="46.21006213333333" lon="11.139375116666669"><ele>204.5</ele><time>2026-05-01T10:54:39.839Z</time></trkpt><trkpt lat="46.210320749999994" lon="11.139507733333335"><ele>204.0</ele><time>2026-05-01T10:54:40.835Z</time></trkpt><trkpt lat="46.21058856666667" lon="11.139642633333334"><ele>204.0</ele><time>2026-05-01T10:54:41.841Z</time></trkpt><trkpt lat="46.210859" lon="11.139777433333332"><ele>204.0</ele><time>2026-05-01T10:54:42.84Z</time></trkpt><trkpt lat="46.21112966666666" lon="11.139912683333334"><ele>204.5</ele><time>2026-05-01T10:54:43.847Z</time></trkpt><trkpt lat="46.21140184999999" lon="11.140048566666666"><ele>205.0</ele><time>2026-05-01T10:54:44.833Z</time></trkpt><trkpt lat="46.21167390000001" lon="11.140184199999998"><ele>205.0</ele><time>2026-05-01T10:54:45.831Z</time></trkpt><trkpt lat="46.211939483333325" lon="11.140317000000001"><ele>205.0</ele><time>2026-05-01T10:54:46.841Z</time></trkpt><trkpt lat="46.21220024999999" lon="11.140440616666668"><ele>203.5</ele><time>2026-05-01T10:54:47.84Z</time></trkpt><trkpt lat="46.2124516" lon="11.140558533333335"><ele>202.0</ele><time>2026-05-01T10:54:48.831Z</time></trkpt><trkpt lat="46.212691783333334" lon="11.140672749999998"><ele>202.5</ele><time>2026-05-01T10:54:49.837Z</time></trkpt><trkpt lat="46.21291865" lon="11.1407783"><ele>203.0</ele><time>2026-05-01T10:54:50.841Z</time></trkpt><trkpt lat="46.213137466666666" lon="11.140877116666664"><ele>204.0</ele><time>2026-05-01T10:54:51.842Z</time></trkpt><trkpt lat="46.21335535" lon="11.140966066666666"><ele>205.0</ele><time>2026-05-01T10:54:52.847Z</time></trkpt><trkpt lat="46.213577083333334" lon="11.141033516666669"><ele>205.0</ele><time>2026-05-01T10:54:53.831Z</time></trkpt><trkpt lat="46.21380516666667" lon="11.141072683333334"><ele>205.0</ele><time>2026-05-01T10:54:54.833Z</time></trkpt><trkpt lat="46.21404188333333" lon="11.141074600000001"><ele>204.0</ele><time>2026-05-01T10:54:55.851Z</time></trkpt><trkpt lat="46.21428588333333" lon="11.141042483333335"><ele>203.0</ele><time>2026-05-01T10:54:56.833Z</time></trkpt><trkpt lat="46.21453686666667" lon="11.14099165"><ele>203.0</ele><time>2026-05-01T10:54:57.843Z</time></trkpt><trkpt lat="46.21478956666667" lon="11.140933449999999"><ele>203.0</ele><time>2026-05-01T10:54:58.829Z</time></trkpt><trkpt lat="46.21505115" lon="11.140867066666665"><ele>203.0</ele><time>2026-05-01T10:54:59.848Z</time></trkpt><trkpt lat="46.21531771666667" lon="11.140801916666666"><ele>203.0</ele><time>2026-05-01T10:55:00.843Z</time></trkpt><trkpt lat="46.21558601666667" lon="11.140730316666668"><ele>202.0</ele><time>2026-05-01T10:55:01.847Z</time></trkpt><trkpt lat="46.21585718333334" lon="11.140649583333333"><ele>201.0</ele><time>2026-05-01T10:55:02.829Z</time></trkpt><trkpt lat="46.21612485" lon="11.1405655"><ele>201.0</ele><time>2026-05-01T10:55:03.843Z</time></trkpt><trkpt lat="46.21638356666668" lon="11.140481933333334"><ele>201.0</ele><time>2026-05-01T10:55:04.843Z</time></trkpt><trkpt lat="46.21662743333333" lon="11.140404683333335"><ele>202.5</ele><time>2026-05-01T10:55:05.841Z</time></trkpt><trkpt lat="46.21685778333333" lon="11.140334266666667"><ele>204.0</ele><time>2026-05-01T10:55:06.831Z</time></trkpt><trkpt lat="46.217077100000004" lon="11.14026545"><ele>204.0</ele><time>2026-05-01T10:55:07.847Z</time></trkpt><trkpt lat="46.21728315" lon="11.14019945"><ele>204.0</ele><time>2026-05-01T10:55:08.847Z</time></trkpt><trkpt lat="46.21747919999999" lon="11.140133983333332"><ele>204.0</ele><time>2026-05-01T10:55:09.831Z</time></trkpt><trkpt lat="46.21766218333334" lon="11.140062"><ele>204.0</ele><time>2026-05-01T10:55:10.851Z</time></trkpt><trkpt lat="46.21782465" lon="11.139965866666667"><ele>204.0</ele><time>2026-05-01T10:55:11.846Z</time></trkpt><trkpt lat="46.21797316666666" lon="11.139829133333334"><ele>204.0</ele><time>2026-05-01T10:55:12.844Z</time></trkpt><trkpt lat="46.218115783333324" lon="11.13964575"><ele>204.0</ele><time>2026-05-01T10:55:13.84Z</time></trkpt><trkpt lat="46.21825335" lon="11.139429399999997"><ele>204.0</ele><time>2026-05-01T10:55:14.841Z</time></trkpt><trkpt lat="46.21838708333333" lon="11.139196450000002"><ele>204.0</ele><time>2026-05-01T10:55:15.843Z</time></trkpt><trkpt lat="46.21851728333333" lon="11.138962333333334"><ele>204.66666666666669</ele><time>2026-05-01T10:55:16.841Z</time></trkpt><trkpt lat="46.21864011666666" lon="11.13873753333333"><ele>205.33333333333334</ele><time>2026-05-01T10:55:17.841Z</time></trkpt><trkpt lat="46.21875803333334" lon="11.138521233333332"><ele>206.0</ele><time>2026-05-01T10:55:18.831Z</time></trkpt><trkpt lat="46.21887154999999" lon="11.138300450000001"><ele>205.66666666666669</ele><time>2026-05-01T10:55:19.849Z</time></trkpt><trkpt lat="46.21897988333334" lon="11.138064883333334"><ele>205.33333333333331</ele><time>2026-05-01T10:55:20.843Z</time></trkpt><trkpt lat="46.21908036666667" lon="11.13782255"><ele>205.0</ele><time>2026-05-01T10:55:21.843Z</time></trkpt><trkpt lat="46.219174450000004" lon="11.137584666666665"><ele>205.66666666666666</ele><time>2026-05-01T10:55:22.841Z</time></trkpt><trkpt lat="46.21926141666666" lon="11.137344983333332"><ele>206.33333333333331</ele><time>2026-05-01T10:55:23.84Z</time></trkpt><trkpt lat="46.21933973333333" lon="11.137108550000002"><ele>207.0</ele><time>2026-05-01T10:55:24.83Z</time></trkpt><trkpt lat="46.21941700000001" lon="11.136869516666666"><ele>207.0</ele><time>2026-05-01T10:55:25.841Z</time></trkpt><trkpt lat="46.21949333333333" lon="11.136643333333332"><ele>207.0</ele><time>2026-05-01T10:55:26.841Z</time></trkpt><trkpt lat="46.21956595" lon="11.1364483"><ele>207.0</ele><time>2026-05-01T10:55:27.843Z</time></trkpt><trkpt lat="46.21964701666667" lon="11.13626555"><ele>206.66666666666669</ele><time>2026-05-01T10:55:28.841Z</time></trkpt><trkpt lat="46.219744133333336" lon="11.136089066666665"><ele>206.33333333333334</ele><time>2026-05-01T10:55:29.841Z</time></trkpt><trkpt lat="46.21986166666667" lon="11.135933416666667"><ele>206.0</ele><time>2026-05-01T10:55:30.831Z</time></trkpt><trkpt lat="46.22000334999999" lon="11.1357973"><ele>205.66666666666669</ele><time>2026-05-01T10:55:31.828Z</time></trkpt><trkpt lat="46.22016596666668" lon="11.135689316666667"><ele>205.33333333333331</ele><time>2026-05-01T10:55:32.848Z</time></trkpt><trkpt lat="46.22034281666667" lon="11.135608366666668"><ele>205.0</ele><time>2026-05-01T10:55:33.83Z</time></trkpt><trkpt lat="46.22052818333333" lon="11.13553885"><ele>203.66666666666666</ele><time>2026-05-01T10:55:34.841Z</time></trkpt><trkpt lat="46.22070801666667" lon="11.135443999999998"><ele>202.33333333333331</ele><time>2026-05-01T10:55:35.85Z</time></trkpt><trkpt lat="46.22087878333333" lon="11.135310116666668"><ele>201.0</ele><time>2026-05-01T10:55:36.846Z</time></trkpt><trkpt lat="46.2210394" lon="11.135135816666665"><ele>201.0</ele><time>2026-05-01T10:55:37.844Z</time></trkpt><trkpt lat="46.22119643333334" lon="11.134936316666664"><ele>201.0</ele><time>2026-05-01T10:55:38.848Z</time></trkpt><trkpt lat="46.221354850000004" lon="11.134742716666665"><ele>201.0</ele><time>2026-05-01T10:55:39.831Z</time></trkpt><trkpt lat="46.22152221666667" lon="11.134574033333333"><ele>202.66666666666669</ele><time>2026-05-01T10:55:40.843Z</time></trkpt><trkpt lat="46.221700999999996" lon="11.134431866666667"><ele>204.33333333333334</ele><time>2026-05-01T10:55:41.841Z</time></trkpt><trkpt lat="46.22187686666666" lon="11.134309916666666"><ele>206.0</ele><time>2026-05-01T10:55:42.836Z</time></trkpt><trkpt lat="46.22204226666666" lon="11.134198916666666"><ele>206.0</ele><time>2026-05-01T10:55:43.842Z</time></trkpt><trkpt lat="46.222195116666676" lon="11.134098366666668"><ele>206.0</ele><time>2026-05-01T10:55:44.828Z</time></trkpt><trkpt lat="46.22233808333334" lon="11.134010550000001"><ele>206.0</ele><time>2026-05-01T10:55:45.834Z</time></trkpt><trkpt lat="46.222474466666675" lon="11.133928533333334"><ele>208.25</ele><time>2026-05-01T10:55:46.828Z</time></trkpt><trkpt lat="46.22260916666668" lon="11.133846966666667"><ele>210.5</ele><time>2026-05-01T10:55:47.849Z</time></trkpt><trkpt lat="46.2227424" lon="11.133764699999999"><ele>212.75</ele><time>2026-05-01T10:55:48.831Z</time></trkpt><trkpt lat="46.22287558333334" lon="11.133682266666664"><ele>215.0</ele><time>2026-05-01T10:55:49.852Z</time></trkpt><trkpt lat="46.223013333333334" lon="11.133610466666669"><ele>212.66666666666669</ele><time>2026-05-01T10:55:50.849Z</time></trkpt><trkpt lat="46.22315818333333" lon="11.133561583333336"><ele>210.33333333333331</ele><time>2026-05-01T10:55:51.831Z</time></trkpt><trkpt lat="46.22331033333333" lon="11.133544849999998"><ele>208.0</ele><time>2026-05-01T10:55:52.826Z</time></trkpt><trkpt lat="46.22346761666666" lon="11.13355046666667"><ele>208.0</ele><time>2026-05-01T10:55:53.849Z</time></trkpt><trkpt lat="46.22362891666666" lon="11.13356275"><ele>208.0</ele><time>2026-05-01T10:55:54.83Z</time></trkpt><trkpt lat="46.22379651666667" lon="11.133574616666666"><ele>208.0</ele><time>2026-05-01T10:55:55.841Z</time></trkpt><trkpt lat="46.22397093333334" lon="11.133584333333333"><ele>208.0</ele><time>2026-05-01T10:55:56.846Z</time></trkpt><trkpt lat="46.22414908333334" lon="11.133596416666668"><ele>208.0</ele><time>2026-05-01T10:55:57.842Z</time></trkpt><trkpt lat="46.22432715" lon="11.133611716666667"><ele>208.0</ele><time>2026-05-01T10:55:58.841Z</time></trkpt><trkpt lat="46.224499116666664" lon="11.133629983333334"><ele>208.0</ele><time>2026-05-01T10:55:59.843Z</time></trkpt><trkpt lat="46.224667483333334" lon="11.13366465"><ele>208.0</ele><time>2026-05-01T10:56:00.831Z</time></trkpt><trkpt lat="46.224829" lon="11.133745416666667"><ele>208.0</ele><time>2026-05-01T10:56:01.842Z</time></trkpt><trkpt lat="46.22497453333334" lon="11.133881983333334"><ele>210.33333333333331</ele><time>2026-05-01T10:56:02.827Z</time></trkpt><trkpt lat="46.225110816666664" lon="11.134063833333334"><ele>212.66666666666669</ele><time>2026-05-01T10:56:03.843Z</time></trkpt><trkpt lat="46.22524270000001" lon="11.134280733333332"><ele>215.0</ele><time>2026-05-01T10:56:04.84Z</time></trkpt><trkpt lat="46.22537541666667" lon="11.134518433333335"><ele>215.0</ele><time>2026-05-01T10:56:05.833Z</time></trkpt><trkpt lat="46.225515949999995" lon="11.134758466666664"><ele>215.0</ele><time>2026-05-01T10:56:06.843Z</time></trkpt><trkpt lat="46.22566963333333" lon="11.134991200000002"><ele>215.0</ele><time>2026-05-01T10:56:07.826Z</time></trkpt><trkpt lat="46.22584486666667" lon="11.135205666666666"><ele>215.0</ele><time>2026-05-01T10:56:08.849Z</time></trkpt><trkpt lat="46.226045416666665" lon="11.135403316666668"><ele>215.0</ele><time>2026-05-01T10:56:09.831Z</time></trkpt><trkpt lat="46.22625875000001" lon="11.135600033333333"><ele>217.5</ele><time>2026-05-01T10:56:10.858Z</time></trkpt><trkpt lat="46.226479649999995" lon="11.135805633333334"><ele>220.0</ele><time>2026-05-01T10:56:11.838Z</time></trkpt><trkpt lat="46.226703500000006" lon="11.13601775"><ele>220.0</ele><time>2026-05-01T10:56:12.843Z</time></trkpt><trkpt lat="46.226923750000005" lon="11.136230516666668"><ele>220.0</ele><time>2026-05-01T10:56:13.841Z</time></trkpt><trkpt lat="46.227143649999995" lon="11.136449066666666"><ele>215.5</ele><time>2026-05-01T10:56:14.85Z</time></trkpt><trkpt lat="46.22735868333333" lon="11.13666365"><ele>211.0</ele><time>2026-05-01T10:56:15.831Z</time></trkpt><trkpt lat="46.22756761666666" lon="11.136873716666665"><ele>211.0</ele><time>2026-05-01T10:56:16.836Z</time></trkpt><trkpt lat="46.22776448333334" lon="11.137087966666664"><ele>211.0</ele><time>2026-05-01T10:56:17.829Z</time></trkpt><trkpt lat="46.22794296666666" lon="11.137320250000002"><ele>210.0</ele><time>2026-05-01T10:56:18.831Z</time></trkpt><trkpt lat="46.22810356666667" lon="11.137580849999999"><ele>209.0</ele><time>2026-05-01T10:56:19.843Z</time></trkpt><trkpt lat="46.22825509999999" lon="11.1378629"><ele>209.0</ele><time>2026-05-01T10:56:20.833Z</time></trkpt><trkpt lat="46.22840451666666" lon="11.138142366666667"><ele>209.0</ele><time>2026-05-01T10:56:21.844Z</time></trkpt><trkpt lat="46.22855271666667" lon="11.13841925"><ele>206.5</ele><time>2026-05-01T10:56:22.829Z</time></trkpt><trkpt lat="46.22870015" lon="11.13869545"><ele>204.0</ele><time>2026-05-01T10:56:23.844Z</time></trkpt><trkpt lat="46.22884625" lon="11.1389655"><ele>205.0</ele><time>2026-05-01T10:56:24.831Z</time></trkpt><trkpt lat="46.22897410312633" lon="11.139247041694789"><ele>206.0</ele><time>2026-05-01T10:56:25.838Z</time></trkpt><trkpt lat="46.22910762871611" lon="11.13951734096075"><ele>208.5</ele><time>2026-05-01T10:56:26.841Z</time></trkpt><trkpt lat="46.22923819451829" lon="11.1397841101372"><ele>211.0</ele><time>2026-05-01T10:56:27.831Z</time></trkpt><trkpt lat="46.22937831666667" lon="11.140038966666669"><ele>211.0</ele><time>2026-05-01T10:56:28.849Z</time></trkpt><trkpt lat="46.22950304999999" lon="11.140298833333334"><ele>211.0</ele><time>2026-05-01T10:56:29.838Z</time></trkpt><trkpt lat="46.22962643333334" lon="11.140553616666667"><ele>211.0</ele><time>2026-05-01T10:56:30.854Z</time></trkpt><trkpt lat="46.229749350000006" lon="11.140804583333333"><ele>213.33333333333331</ele><time>2026-05-01T10:56:31.841Z</time></trkpt><trkpt lat="46.22987093333333" lon="11.141051333333333"><ele>215.66666666666669</ele><time>2026-05-01T10:56:32.829Z</time></trkpt><trkpt lat="46.229991749999996" lon="11.141301683333332"><ele>218.0</ele><time>2026-05-01T10:56:33.848Z</time></trkpt><trkpt lat="46.23011501666666" lon="11.1415588"><ele>218.0</ele><time>2026-05-01T10:56:34.827Z</time></trkpt><trkpt lat="46.23023995" lon="11.141815583333335"><ele>218.0</ele><time>2026-05-01T10:56:35.841Z</time></trkpt><trkpt lat="46.23037128333334" lon="11.14206275"><ele>218.0</ele><time>2026-05-01T10:56:36.835Z</time></trkpt><trkpt lat="46.23051725" lon="11.14229335"><ele>220.5</ele><time>2026-05-01T10:56:37.841Z</time></trkpt><trkpt lat="46.2306806" lon="11.142509266666664"><ele>223.0</ele><time>2026-05-01T10:56:38.827Z</time></trkpt><trkpt lat="46.23085461666666" lon="11.14272618333333"><ele>223.0</ele><time>2026-05-01T10:56:39.85Z</time></trkpt><trkpt lat="46.23102985" lon="11.142947566666667"><ele>223.0</ele><time>2026-05-01T10:56:40.841Z</time></trkpt><trkpt lat="46.231201933333324" lon="11.143168416666667"><ele>221.33333333333331</ele><time>2026-05-01T10:56:41.841Z</time></trkpt><trkpt lat="46.23136735" lon="11.143380633333333"><ele>219.66666666666669</ele><time>2026-05-01T10:56:42.845Z</time></trkpt><trkpt lat="46.23152425" lon="11.143581933333333"><ele>218.0</ele><time>2026-05-01T10:56:43.831Z</time></trkpt><trkpt lat="46.23167511666667" lon="11.143773666666666"><ele>218.0</ele><time>2026-05-01T10:56:44.849Z</time></trkpt><trkpt lat="46.231820199999994" lon="11.143955333333334"><ele>218.0</ele><time>2026-05-01T10:56:45.831Z</time></trkpt><trkpt lat="46.23196001666667" lon="11.144125433333333"><ele>218.0</ele><time>2026-05-01T10:56:46.831Z</time></trkpt><trkpt lat="46.23209716666667" lon="11.144279733333333"><ele>217.0</ele><time>2026-05-01T10:56:47.842Z</time></trkpt><trkpt lat="46.23224975" lon="11.144406150000002"><ele>216.0</ele><time>2026-05-01T10:56:48.848Z</time></trkpt><trkpt lat="46.23239136015744" lon="11.14456642503801"><ele>215.0</ele><time>2026-05-01T10:56:49.844Z</time></trkpt><trkpt lat="46.23253938446753" lon="11.144707654852109"><ele>215.33333333333334</ele><time>2026-05-01T10:56:50.841Z</time></trkpt><trkpt lat="46.23278686666666" lon="11.144625733333331"><ele>215.66666666666669</ele><time>2026-05-01T10:56:51.85Z</time></trkpt><trkpt lat="46.23297576666668" lon="11.144685350000001"><ele>216.0</ele><time>2026-05-01T10:56:52.844Z</time></trkpt><trkpt lat="46.23317051666666" lon="11.144755316666666"><ele>216.0</ele><time>2026-05-01T10:56:53.842Z</time></trkpt><trkpt lat="46.233369133333326" lon="11.144820666666666"><ele>216.0</ele><time>2026-05-01T10:56:54.835Z</time></trkpt><trkpt lat="46.23356983333333" lon="11.144882483333333"><ele>216.0</ele><time>2026-05-01T10:56:55.841Z</time></trkpt><trkpt lat="46.23376843333334" lon="11.144926316666666"><ele>214.66666666666669</ele><time>2026-05-01T10:56:56.844Z</time></trkpt><trkpt lat="46.23396536666667" lon="11.144960833333334"><ele>213.33333333333334</ele><time>2026-05-01T10:56:57.852Z</time></trkpt><trkpt lat="46.23416118333333" lon="11.144991350000002"><ele>212.0</ele><time>2026-05-01T10:56:58.841Z</time></trkpt><trkpt lat="46.23435801666667" lon="11.145029633333335"><ele>210.33333333333334</ele><time>2026-05-01T10:56:59.845Z</time></trkpt><trkpt lat="46.23455378333333" lon="11.145096100000002"><ele>208.66666666666669</ele><time>2026-05-01T10:57:00.834Z</time></trkpt><trkpt lat="46.2347363" lon="11.145215883333332"><ele>207.0</ele><time>2026-05-01T10:57:01.84Z</time></trkpt><trkpt lat="46.2349013" lon="11.145385783333332"><ele>208.0</ele><time>2026-05-01T10:57:02.84Z</time></trkpt><trkpt lat="46.235059033333336" lon="11.145578816666667"><ele>209.0</ele><time>2026-05-01T10:57:03.831Z</time></trkpt><trkpt lat="46.235216566666665" lon="11.145780283333334"><ele>210.0</ele><time>2026-05-01T10:57:04.844Z</time></trkpt><trkpt lat="46.2353739" lon="11.14599065"><ele>210.0</ele><time>2026-05-01T10:57:05.842Z</time></trkpt><trkpt lat="46.23553785000001" lon="11.146212649999999"><ele>210.0</ele><time>2026-05-01T10:57:06.83Z</time></trkpt><trkpt lat="46.23570558333333" lon="11.146438583333335"><ele>210.0</ele><time>2026-05-01T10:57:07.841Z</time></trkpt><trkpt lat="46.23587743333332" lon="11.1466632"><ele>210.0</ele><time>2026-05-01T10:57:08.84Z</time></trkpt><trkpt lat="46.236038750000006" lon="11.1468988"><ele>210.0</ele><time>2026-05-01T10:57:09.845Z</time></trkpt><trkpt lat="46.23617826666667" lon="11.147152400000001"><ele>210.0</ele><time>2026-05-01T10:57:10.841Z</time></trkpt><trkpt lat="46.23630003333333" lon="11.147415783333335"><ele>210.0</ele><time>2026-05-01T10:57:11.841Z</time></trkpt><trkpt lat="46.236409249999994" lon="11.147664316666665"><ele>210.0</ele><time>2026-05-01T10:57:12.843Z</time></trkpt><trkpt lat="46.23649868333334" lon="11.147910816666668"><ele>210.0</ele><time>2026-05-01T10:57:13.841Z</time></trkpt><trkpt lat="46.236552416666676" lon="11.148169"><ele>210.0</ele><time>2026-05-01T10:57:14.86Z</time></trkpt><trkpt lat="46.23656269999999" lon="11.148446716666669"><ele>210.33333333333331</ele><time>2026-05-01T10:57:15.835Z</time></trkpt><trkpt lat="46.23654425" lon="11.148742566666666"><ele>210.66666666666666</ele><time>2026-05-01T10:57:16.829Z</time></trkpt><trkpt lat="46.2365152" lon="11.149050716666666"><ele>211.0</ele><time>2026-05-01T10:57:17.841Z</time></trkpt><trkpt lat="46.23648746666666" lon="11.149362633333332"><ele>209.0</ele><time>2026-05-01T10:57:18.831Z</time></trkpt><trkpt lat="46.236461183333326" lon="11.149676"><ele>207.0</ele><time>2026-05-01T10:57:19.844Z</time></trkpt><trkpt lat="46.2364416" lon="11.149982566666665"><ele>205.0</ele><time>2026-05-01T10:57:20.829Z</time></trkpt><trkpt lat="46.23643845" lon="11.150282416666668"><ele>205.0</ele><time>2026-05-01T10:57:21.831Z</time></trkpt><trkpt lat="46.23646961666666" lon="11.150578183333334"><ele>205.0</ele><time>2026-05-01T10:57:22.841Z</time></trkpt><trkpt lat="46.236540299999994" lon="11.150860933333336"><ele>205.0</ele><time>2026-05-01T10:57:23.841Z</time></trkpt><trkpt lat="46.23664990000001" lon="11.151129150000001"><ele>205.5</ele><time>2026-05-01T10:57:24.834Z</time></trkpt><trkpt lat="46.236796549999994" lon="11.151380133333337"><ele>206.0</ele><time>2026-05-01T10:57:25.841Z</time></trkpt><trkpt lat="46.23696513333333" lon="11.151600183333334"><ele>206.0</ele><time>2026-05-01T10:57:26.843Z</time></trkpt><trkpt lat="46.237130416666666" lon="11.151793733333333"><ele>206.0</ele><time>2026-05-01T10:57:27.843Z</time></trkpt><trkpt lat="46.23728930000001" lon="11.151980533333335"><ele>206.0</ele><time>2026-05-01T10:57:28.841Z</time></trkpt><trkpt lat="46.237438149999996" lon="11.152161316666666"><ele>207.33333333333334</ele><time>2026-05-01T10:57:29.851Z</time></trkpt><trkpt lat="46.23757168333333" lon="11.152344650000002"><ele>208.66666666666669</ele><time>2026-05-01T10:57:30.832Z</time></trkpt><trkpt lat="46.23768153333334" lon="11.152543549999999"><ele>210.0</ele><time>2026-05-01T10:57:31.841Z</time></trkpt><trkpt lat="46.23776348333334" lon="11.1527623"><ele>210.0</ele><time>2026-05-01T10:57:32.834Z</time></trkpt><trkpt lat="46.237827100000004" lon="11.152989516666665"><ele>210.0</ele><time>2026-05-01T10:57:33.842Z</time></trkpt><trkpt lat="46.23788475" lon="11.153217249999999"><ele>210.0</ele><time>2026-05-01T10:57:34.842Z</time></trkpt><trkpt lat="46.23794813333334" lon="11.15343086666667"><ele>210.0</ele><time>2026-05-01T10:57:35.842Z</time></trkpt><trkpt lat="46.238038116666665" lon="11.15361953333333"><ele>210.0</ele><time>2026-05-01T10:57:36.837Z</time></trkpt><trkpt lat="46.23816058333333" lon="11.153771533333336"><ele>210.0</ele><time>2026-05-01T10:57:37.841Z</time></trkpt><trkpt lat="46.23830934999999" lon="11.15388805"><ele>210.0</ele><time>2026-05-01T10:57:38.849Z</time></trkpt><trkpt lat="46.238479416666664" lon="11.153990583333334"><ele>210.0</ele><time>2026-05-01T10:57:39.83Z</time></trkpt><trkpt lat="46.238663883333324" lon="11.154089949999998"><ele>210.0</ele><time>2026-05-01T10:57:40.848Z</time></trkpt><trkpt lat="46.23885556666667" lon="11.154200616666666"><ele>209.0</ele><time>2026-05-01T10:57:41.828Z</time></trkpt><trkpt lat="46.23905549999999" lon="11.154331899999999"><ele>208.0</ele><time>2026-05-01T10:57:42.846Z</time></trkpt><trkpt lat="46.23926275" lon="11.154485"><ele>208.0</ele><time>2026-05-01T10:57:43.843Z</time></trkpt><trkpt lat="46.239472250000006" lon="11.154650733333334"><ele>208.0</ele><time>2026-05-01T10:57:44.846Z</time></trkpt><trkpt lat="46.23967328333333" lon="11.154811916666665"><ele>208.0</ele><time>2026-05-01T10:57:45.831Z</time></trkpt><trkpt lat="46.23986231666666" lon="11.1549561"><ele>208.0</ele><time>2026-05-01T10:57:46.844Z</time></trkpt><trkpt lat="46.24003785" lon="11.155096916666666"><ele>208.0</ele><time>2026-05-01T10:57:47.838Z</time></trkpt><trkpt lat="46.24020173333333" lon="11.155227683333331"><ele>208.0</ele><time>2026-05-01T10:57:48.85Z</time></trkpt><trkpt lat="46.24035718333332" lon="11.15531275"><ele>208.0</ele><time>2026-05-01T10:57:49.827Z</time></trkpt><trkpt lat="46.24052226666666" lon="11.15533465"><ele>208.0</ele><time>2026-05-01T10:57:50.828Z</time></trkpt><trkpt lat="46.24069933333334" lon="11.155307816666667"><ele>207.33333333333331</ele><time>2026-05-01T10:57:51.833Z</time></trkpt><trkpt lat="46.24087755000001" lon="11.155263099999999"><ele>206.66666666666669</ele><time>2026-05-01T10:57:52.836Z</time></trkpt><trkpt lat="46.241045166666666" lon="11.155226716666666"><ele>206.0</ele><time>2026-05-01T10:57:53.842Z</time></trkpt><trkpt lat="46.24120668333333" lon="11.15521775"><ele>206.0</ele><time>2026-05-01T10:57:54.842Z</time></trkpt><trkpt lat="46.24136976666667" lon="11.155252316666667"><ele>206.0</ele><time>2026-05-01T10:57:55.847Z</time></trkpt><trkpt lat="46.24153743333333" lon="11.155329216666667"><ele>206.0</ele><time>2026-05-01T10:57:56.834Z</time></trkpt><trkpt lat="46.24171436666667" lon="11.1554347"><ele>205.33333333333334</ele><time>2026-05-01T10:57:57.831Z</time></trkpt><trkpt lat="46.24190325" lon="11.155548299999998"><ele>204.66666666666669</ele><time>2026-05-01T10:57:58.849Z</time></trkpt><trkpt lat="46.242102" lon="11.155669900000001"><ele>204.0</ele><time>2026-05-01T10:57:59.841Z</time></trkpt><trkpt lat="46.24230271666667" lon="11.155794066666667"><ele>204.0</ele><time>2026-05-01T10:58:00.833Z</time></trkpt><trkpt lat="46.2424999" lon="11.155923050000002"><ele>204.0</ele><time>2026-05-01T10:58:01.828Z</time></trkpt><trkpt lat="46.2426851" lon="11.156061916666667"><ele>204.0</ele><time>2026-05-01T10:58:02.841Z</time></trkpt><trkpt lat="46.24284825" lon="11.156234733333335"><ele>204.0</ele><time>2026-05-01T10:58:03.842Z</time></trkpt><trkpt lat="46.2429825" lon="11.156457366666666"><ele>204.0</ele><time>2026-05-01T10:58:04.846Z</time></trkpt><trkpt lat="46.243072365782105" lon="11.156736525996966"><ele>204.0</ele><time>2026-05-01T10:58:05.832Z</time></trkpt><trkpt lat="46.24316858948807" lon="11.157008600115594"><ele>204.66666666666669</ele><time>2026-05-01T10:58:06.83Z</time></trkpt><trkpt lat="46.24326524584098" lon="11.157262140829339"><ele>205.33333333333334</ele><time>2026-05-01T10:58:07.843Z</time></trkpt><trkpt lat="46.24338799263505" lon="11.157491565713958"><ele>206.0</ele><time>2026-05-01T10:58:08.838Z</time></trkpt><trkpt lat="46.24353739479636" lon="11.157689855322547"><ele>206.0</ele><time>2026-05-01T10:58:09.833Z</time></trkpt><trkpt lat="46.243718838156795" lon="11.157858838505183"><ele>206.0</ele><time>2026-05-01T10:58:10.828Z</time></trkpt><trkpt lat="46.2439114939147" lon="11.158019663097816"><ele>206.0</ele><time>2026-05-01T10:58:11.842Z</time></trkpt><trkpt lat="46.24410707889632" lon="11.15818487915097"><ele>206.33333333333334</ele><time>2026-05-01T10:58:12.833Z</time></trkpt><trkpt lat="46.24430036157637" lon="11.158349013216231"><ele>206.66666666666669</ele><time>2026-05-01T10:58:13.844Z</time></trkpt><trkpt lat="46.244486790743366" lon="11.158503612331051"><ele>207.0</ele><time>2026-05-01T10:58:14.827Z</time></trkpt><trkpt lat="46.24468186155739" lon="11.15864133532201"><ele>210.0</ele><time>2026-05-01T10:58:15.844Z</time></trkpt><trkpt lat="46.24490418333333" lon="11.158709566666667"><ele>213.0</ele><time>2026-05-01T10:58:16.842Z</time></trkpt><trkpt lat="46.24511621666667" lon="11.158774483333332"><ele>216.0</ele><time>2026-05-01T10:58:17.842Z</time></trkpt><trkpt lat="46.245318016666666" lon="11.15883225"><ele>216.0</ele><time>2026-05-01T10:58:18.831Z</time></trkpt><trkpt lat="46.24550491666667" lon="11.158917899999999"><ele>216.0</ele><time>2026-05-01T10:58:19.826Z</time></trkpt><trkpt lat="46.245676583333335" lon="11.159052383333334"><ele>216.0</ele><time>2026-05-01T10:58:20.842Z</time></trkpt><trkpt lat="46.24583058333332" lon="11.159241550000003"><ele>216.0</ele><time>2026-05-01T10:58:21.844Z</time></trkpt><trkpt lat="46.24596256666667" lon="11.159466133333336"><ele>216.0</ele><time>2026-05-01T10:58:22.828Z</time></trkpt><trkpt lat="46.24607031666667" lon="11.159700149999999"><ele>216.0</ele><time>2026-05-01T10:58:23.849Z</time></trkpt><trkpt lat="46.24614896666667" lon="11.159948316666664"><ele>213.33333333333331</ele><time>2026-05-01T10:58:24.847Z</time></trkpt><trkpt lat="46.24619153333333" lon="11.160219416666665"><ele>210.66666666666666</ele><time>2026-05-01T10:58:25.842Z</time></trkpt><trkpt lat="46.24619163333333" lon="11.160506400000001"><ele>208.0</ele><time>2026-05-01T10:58:26.841Z</time></trkpt><trkpt lat="46.24612951490553" lon="11.160791398126307"><ele>207.5</ele><time>2026-05-01T10:58:27.843Z</time></trkpt><trkpt lat="46.24605573333094" lon="11.161101116822286"><ele>207.0</ele><time>2026-05-01T10:58:28.842Z</time></trkpt><trkpt lat="46.245973368496706" lon="11.16143129248935"><ele>208.5</ele><time>2026-05-01T10:58:29.844Z</time></trkpt><trkpt lat="46.24590906969669" lon="11.161788899484598"><ele>210.0</ele><time>2026-05-01T10:58:30.847Z</time></trkpt><trkpt lat="46.24586408873688" lon="11.162137266654742"><ele>210.33333333333331</ele><time>2026-05-01T10:58:31.845Z</time></trkpt><trkpt lat="46.24582175544972" lon="11.162466329597548"><ele>210.66666666666666</ele><time>2026-05-01T10:58:32.847Z</time></trkpt><trkpt lat="46.24578319682323" lon="11.162771434840405"><ele>211.0</ele><time>2026-05-01T10:58:33.844Z</time></trkpt><trkpt lat="46.24575344227282" lon="11.16303484007187"><ele>211.60000000000002</ele><time>2026-05-01T10:58:34.829Z</time></trkpt><trkpt lat="46.24574855000001" lon="11.163250033333334"><ele>212.2</ele><time>2026-05-01T10:58:35.844Z</time></trkpt><trkpt lat="46.2457404" lon="11.163414416666667"><ele>212.79999999999998</ele><time>2026-05-01T10:58:36.831Z</time></trkpt><trkpt lat="46.24574488333332" lon="11.163555133333332"><ele>213.39999999999998</ele><time>2026-05-01T10:58:37.842Z</time></trkpt><trkpt lat="46.245753016666676" lon="11.163680116666667"><ele>214.0</ele><time>2026-05-01T10:58:38.843Z</time></trkpt><trkpt lat="46.24574767463945" lon="11.163795122878017"><ele>214.0</ele><time>2026-05-01T10:58:39.835Z</time></trkpt><trkpt lat="46.245822366666665" lon="11.163858683333334"><ele>213.99999999999997</ele><time>2026-05-01T10:58:40.847Z</time></trkpt><trkpt lat="46.245897" lon="11.163919033333332"><ele>213.99999999999997</ele><time>2026-05-01T10:58:41.842Z</time></trkpt><trkpt lat="46.245984383333344" lon="11.16398225"><ele>214.0</ele><time>2026-05-01T10:58:42.833Z</time></trkpt><trkpt lat="46.24607873333333" lon="11.164076566666665"><ele>214.0</ele><time>2026-05-01T10:58:43.842Z</time></trkpt><trkpt lat="46.2461834" lon="11.164179566666666"><ele>213.75</ele><time>2026-05-01T10:58:44.85Z</time></trkpt><trkpt lat="46.246303649999994" lon="11.164259900000001"><ele>213.5</ele><time>2026-05-01T10:58:45.833Z</time></trkpt><trkpt lat="46.24642973333333" lon="11.164319716666666"><ele>213.25</ele><time>2026-05-01T10:58:46.842Z</time></trkpt><trkpt lat="46.246556666666656" lon="11.1643794"><ele>213.0</ele><time>2026-05-01T10:58:47.844Z</time></trkpt><trkpt lat="46.24667913333332" lon="11.164446183333332"><ele>214.25</ele><time>2026-05-01T10:58:48.833Z</time></trkpt><trkpt lat="46.24679464999999" lon="11.164525450000001"><ele>215.5</ele><time>2026-05-01T10:58:49.844Z</time></trkpt><trkpt lat="46.24690315" lon="11.164609299999999"><ele>216.75</ele><time>2026-05-01T10:58:50.828Z</time></trkpt><trkpt lat="46.247008599999994" lon="11.164693766666668"><ele>218.0</ele><time>2026-05-01T10:58:51.842Z</time></trkpt><trkpt lat="46.24710946666667" lon="11.164777116666668"><ele>218.0</ele><time>2026-05-01T10:58:52.844Z</time></trkpt><trkpt lat="46.24721083333334" lon="11.164860766666667"><ele>218.0</ele><time>2026-05-01T10:58:53.843Z</time></trkpt><trkpt lat="46.247311833333335" lon="11.164947566666667"><ele>218.0</ele><time>2026-05-01T10:58:54.837Z</time></trkpt><trkpt lat="46.24740893333333" lon="11.165041966666667"><ele>218.0</ele><time>2026-05-01T10:58:55.844Z</time></trkpt><trkpt lat="46.247500666666674" lon="11.165148816666667"><ele>220.25</ele><time>2026-05-01T10:58:56.83Z</time></trkpt><trkpt lat="46.24758645" lon="11.165267749999998"><ele>222.5</ele><time>2026-05-01T10:58:57.844Z</time></trkpt><trkpt lat="46.24766521666667" lon="11.165395899999998"><ele>224.75</ele><time>2026-05-01T10:58:58.842Z</time></trkpt><trkpt lat="46.24771965928391" lon="11.165547399425396"><ele>227.0</ele><time>2026-05-01T10:58:59.852Z</time></trkpt><trkpt lat="46.24777827849098" lon="11.165700878400783"><ele>227.5</ele><time>2026-05-01T10:59:00.833Z</time></trkpt><trkpt lat="46.24783329085868" lon="11.165856344369901"><ele>228.0</ele><time>2026-05-01T10:59:01.842Z</time></trkpt><trkpt lat="46.2478882320917" lon="11.166017764626691"><ele>228.5</ele><time>2026-05-01T10:59:02.842Z</time></trkpt><trkpt lat="46.24794286226041" lon="11.166178270959962"><ele>229.0</ele><time>2026-05-01T10:59:03.833Z</time></trkpt><trkpt lat="46.2479982185356" lon="11.166340619917932"><ele>229.0</ele><time>2026-05-01T10:59:04.829Z</time></trkpt><trkpt lat="46.24805365763977" lon="11.166502142607612"><ele>229.0</ele><time>2026-05-01T10:59:05.828Z</time></trkpt><trkpt lat="46.248109613570655" lon="11.166665171085157"><ele>229.0</ele><time>2026-05-01T10:59:06.833Z</time></trkpt><trkpt lat="46.248164025091214" lon="11.166823699902661"><ele>229.0</ele><time>2026-05-01T10:59:07.842Z</time></trkpt><trkpt lat="46.2482165910189" lon="11.16697685154921"><ele>230.39999999999998</ele><time>2026-05-01T10:59:08.847Z</time></trkpt><trkpt lat="46.24826846357592" lon="11.167128136666305"><ele>231.79999999999998</ele><time>2026-05-01T10:59:09.831Z</time></trkpt><trkpt lat="46.24832061208708" lon="11.167277707328601"><ele>233.20000000000002</ele><time>2026-05-01T10:59:10.839Z</time></trkpt><trkpt lat="46.248370185914276" lon="11.167419075650805"><ele>234.60000000000002</ele><time>2026-05-01T10:59:11.842Z</time></trkpt><trkpt lat="46.2484157161158" lon="11.167548912867979"><ele>236.0</ele><time>2026-05-01T10:59:12.833Z</time></trkpt><trkpt lat="46.248456048220554" lon="11.167663926820625"><ele>236.20000000000002</ele><time>2026-05-01T10:59:13.842Z</time></trkpt><trkpt lat="46.24849563491113" lon="11.167776815096623"><ele>236.40000000000003</ele><time>2026-05-01T10:59:14.852Z</time></trkpt><trkpt lat="46.248539242496705" lon="11.167901169764127"><ele>236.6</ele><time>2026-05-01T10:59:15.845Z</time></trkpt><trkpt lat="46.24859938333334" lon="11.168028350000002"><ele>236.8</ele><time>2026-05-01T10:59:16.842Z</time></trkpt><trkpt lat="46.248637333333335" lon="11.1681755"><ele>237.0</ele><time>2026-05-01T10:59:17.845Z</time></trkpt><trkpt lat="46.248672750000004" lon="11.168326983333333"><ele>237.2</ele><time>2026-05-01T10:59:18.845Z</time></trkpt><trkpt lat="46.24870548333333" lon="11.168481866666665"><ele>237.39999999999998</ele><time>2026-05-01T10:59:19.828Z</time></trkpt><trkpt lat="46.24873421666666" lon="11.168644466666668"><ele>237.60000000000002</ele><time>2026-05-01T10:59:20.844Z</time></trkpt><trkpt lat="46.24875826666667" lon="11.168805216666666"><ele>237.8</ele><time>2026-05-01T10:59:21.839Z</time></trkpt><trkpt lat="46.24878406666667" lon="11.168953649999999"><ele>238.0</ele><time>2026-05-01T10:59:22.86Z</time></trkpt><trkpt lat="46.24880926666666" lon="11.169093766666666"><ele>237.60000000000002</ele><time>2026-05-01T10:59:23.84Z</time></trkpt><trkpt lat="46.24881775419458" lon="11.169238297075692"><ele>237.20000000000002</ele><time>2026-05-01T10:59:24.835Z</time></trkpt><trkpt lat="46.248846964230374" lon="11.169383157095814"><ele>236.8</ele><time>2026-05-01T10:59:25.843Z</time></trkpt><trkpt lat="46.24889625000001" lon="11.169523"><ele>236.4</ele><time>2026-05-01T10:59:26.847Z</time></trkpt><trkpt lat="46.24893411666667" lon="11.16967305"><ele>236.0</ele><time>2026-05-01T10:59:27.835Z</time></trkpt><trkpt lat="46.2489745" lon="11.169822583333332"><ele>237.60000000000002</ele><time>2026-05-01T10:59:28.837Z</time></trkpt><trkpt lat="46.249015116666676" lon="11.169972066666665"><ele>239.20000000000002</ele><time>2026-05-01T10:59:29.844Z</time></trkpt><trkpt lat="46.24905531666667" lon="11.17011785"><ele>240.79999999999998</ele><time>2026-05-01T10:59:30.842Z</time></trkpt><trkpt lat="46.24909635" lon="11.170259016666668"><ele>242.39999999999998</ele><time>2026-05-01T10:59:31.843Z</time></trkpt><trkpt lat="46.24912169286437" lon="11.170410978830384"><ele>244.0</ele><time>2026-05-01T10:59:32.834Z</time></trkpt><trkpt lat="46.24917721666667" lon="11.170545916666665"><ele>244.0</ele><time>2026-05-01T10:59:33.845Z</time></trkpt><trkpt lat="46.24921906666667" lon="11.170686033333334"><ele>243.99999999999997</ele><time>2026-05-01T10:59:34.881Z</time></trkpt><trkpt lat="46.249267399999994" lon="11.170816083333333"><ele>243.99999999999997</ele><time>2026-05-01T10:59:35.865Z</time></trkpt><trkpt lat="46.249318233333334" lon="11.170934733333334"><ele>244.0</ele><time>2026-05-01T10:59:36.877Z</time></trkpt><trkpt lat="46.249372616666676" lon="11.171034183333333"><ele>244.0</ele><time>2026-05-01T10:59:37.861Z</time></trkpt><trkpt lat="46.24942435" lon="11.17111665"><ele>243.49999999999997</ele><time>2026-05-01T10:59:38.842Z</time></trkpt><trkpt lat="46.24948958333333" lon="11.1712165"><ele>243.0</ele><time>2026-05-01T10:59:40.843Z</time></trkpt><trkpt lat="46.24950446666667" lon="11.171358483333332"><ele>242.5</ele><time>2026-05-01T10:59:43.842Z</time></trkpt><trkpt lat="46.249472540860296" lon="11.171443568852577"><ele>242.0</ele><time>2026-05-01T10:59:44.832Z</time></trkpt><trkpt lat="46.249444582171336" lon="11.171552177623582"><ele>241.49999999999997</ele><time>2026-05-01T10:59:45.829Z</time></trkpt><trkpt lat="46.249416994526854" lon="11.171685654780086"><ele>241.0</ele><time>2026-05-01T10:59:46.826Z</time></trkpt><trkpt lat="46.2493886474055" lon="11.17182566665272"><ele>240.20000000000002</ele><time>2026-05-01T10:59:47.834Z</time></trkpt><trkpt lat="46.24936255612727" lon="11.171963838031163"><ele>239.40000000000003</ele><time>2026-05-01T10:59:48.84Z</time></trkpt><trkpt lat="46.24933658996388" lon="11.172098260958178"><ele>238.6</ele><time>2026-05-01T10:59:49.847Z</time></trkpt><trkpt lat="46.24931366457949" lon="11.17222876203024"><ele>237.8</ele><time>2026-05-01T10:59:50.835Z</time></trkpt><trkpt lat="46.24929148978608" lon="11.1723537341989"><ele>237.0</ele><time>2026-05-01T10:59:51.842Z</time></trkpt><trkpt lat="46.249268738720126" lon="11.172482627753752"><ele>236.39999999999998</ele><time>2026-05-01T10:59:52.843Z</time></trkpt><trkpt lat="46.249244612944885" lon="11.172619265837826"><ele>235.79999999999998</ele><time>2026-05-01T10:59:53.829Z</time></trkpt><trkpt lat="46.249230866666664" lon="11.172767933333333"><ele>235.2</ele><time>2026-05-01T10:59:54.847Z</time></trkpt><trkpt lat="46.24919005" lon="11.172915099999999"><ele>234.6</ele><time>2026-05-01T10:59:55.828Z</time></trkpt><trkpt lat="46.24915585" lon="11.173084666666666"><ele>234.0</ele><time>2026-05-01T10:59:56.831Z</time></trkpt><trkpt lat="46.24912586666666" lon="11.173260349999998"><ele>232.5</ele><time>2026-05-01T10:59:57.831Z</time></trkpt><trkpt lat="46.24910156666667" lon="11.173439316666668"><ele>231.0</ele><time>2026-05-01T10:59:58.836Z</time></trkpt><trkpt lat="46.2490793" lon="11.173626416666666"><ele>229.5</ele><time>2026-05-01T10:59:59.831Z</time></trkpt><trkpt lat="46.24906096666666" lon="11.173817516666668"><ele>228.0</ele><time>2026-05-01T11:00:00.845Z</time></trkpt><trkpt lat="46.24904348333333" lon="11.1740107"><ele>227.25</ele><time>2026-05-01T11:00:01.842Z</time></trkpt><trkpt lat="46.249018416666665" lon="11.174205466666669"><ele>226.5</ele><time>2026-05-01T11:00:02.831Z</time></trkpt><trkpt lat="46.248986466666665" lon="11.17440205"><ele>225.75</ele><time>2026-05-01T11:00:03.853Z</time></trkpt><trkpt lat="46.24895158333334" lon="11.174600233333335"><ele>225.0</ele><time>2026-05-01T11:00:04.845Z</time></trkpt><trkpt lat="46.248915683333344" lon="11.17480115"><ele>223.5</ele><time>2026-05-01T11:00:05.833Z</time></trkpt><trkpt lat="46.24888155000001" lon="11.1750049"><ele>222.0</ele><time>2026-05-01T11:00:06.837Z</time></trkpt><trkpt lat="46.24884711666667" lon="11.175206316666667"><ele>220.5</ele><time>2026-05-01T11:00:07.842Z</time></trkpt><trkpt lat="46.248809316666666" lon="11.1754025"><ele>219.0</ele><time>2026-05-01T11:00:08.841Z</time></trkpt><trkpt lat="46.248776166666666" lon="11.175604083333335"><ele>218.25</ele><time>2026-05-01T11:00:09.845Z</time></trkpt><trkpt lat="46.24873996666667" lon="11.175806133333333"><ele>217.5</ele><time>2026-05-01T11:00:10.839Z</time></trkpt><trkpt lat="46.248703483333344" lon="11.176009983333332"><ele>216.75</ele><time>2026-05-01T11:00:11.831Z</time></trkpt><trkpt lat="46.2486641" lon="11.176209349999999"><ele>216.0</ele><time>2026-05-01T11:00:12.849Z</time></trkpt><trkpt lat="46.24862401666666" lon="11.176410766666669"><ele>215.25</ele><time>2026-05-01T11:00:13.842Z</time></trkpt><trkpt lat="46.24858616666667" lon="11.176620116666667"><ele>214.5</ele><time>2026-05-01T11:00:14.835Z</time></trkpt><trkpt lat="46.248550583333326" lon="11.176830216666668"><ele>213.75</ele><time>2026-05-01T11:00:15.839Z</time></trkpt><trkpt lat="46.248511916666665" lon="11.17703455"><ele>213.0</ele><time>2026-05-01T11:00:16.842Z</time></trkpt><trkpt lat="46.24846981666666" lon="11.177234933333333"><ele>212.0</ele><time>2026-05-01T11:00:17.834Z</time></trkpt><trkpt lat="46.248429699999996" lon="11.177433233333332"><ele>211.0</ele><time>2026-05-01T11:00:18.832Z</time></trkpt><trkpt lat="46.248392233333334" lon="11.177626349999999"><ele>210.0</ele><time>2026-05-01T11:00:19.842Z</time></trkpt><trkpt lat="46.248354400000004" lon="11.177818850000001"><ele>209.0</ele><time>2026-05-01T11:00:20.834Z</time></trkpt><trkpt lat="46.24832103333333" lon="11.17800265"><ele>209.0</ele><time>2026-05-01T11:00:21.843Z</time></trkpt><trkpt lat="46.24829126666667" lon="11.178180216666666"><ele>209.0</ele><time>2026-05-01T11:00:22.846Z</time></trkpt><trkpt lat="46.24824974845813" lon="11.178346021080756"><ele>209.0</ele><time>2026-05-01T11:00:23.831Z</time></trkpt><trkpt lat="46.24826121666667" lon="11.178505166666666"><ele>209.0</ele><time>2026-05-01T11:00:24.83Z</time></trkpt><trkpt lat="46.24827338333333" lon="11.178637133333332"><ele>209.0</ele><time>2026-05-01T11:00:25.839Z</time></trkpt><trkpt lat="46.24827728333333" lon="11.178736399999998"><ele>209.0</ele><time>2026-05-01T11:00:26.859Z</time></trkpt><trkpt lat="46.2482575" lon="11.178877883333332"><ele>209.0</ele><time>2026-05-01T11:00:28.838Z</time></trkpt><trkpt lat="46.24827075234524" lon="11.178984283257677"><ele>209.0</ele><time>2026-05-01T11:00:30.837Z</time></trkpt><trkpt lat="46.24824103333334" lon="11.179078216666667"><ele>209.0</ele><time>2026-05-01T11:00:34.845Z</time></trkpt></trkseg><trkseg><trkpt lat="46.818841742806924" lon="11.440320765454382"><ele>2200.0</ele><time>2026-05-01T13:16:15.999Z</time></trkpt><trkpt lat="46.818916800000004" lon="11.440315850000003"><ele>2200.0</ele><time>2026-05-01T13:16:32.4Z</time></trkpt><trkpt lat="46.818975216666665" lon="11.440266116666663"><ele>2200.0</ele><time>2026-05-01T13:16:35.401Z</time></trkpt><trkpt lat="46.8190117" lon="11.44015895"><ele>2200.0</ele><time>2026-05-01T13:16:37.42Z</time></trkpt><trkpt lat="46.81905881666666" lon="11.44001775"><ele>2200.0</ele><time>2026-05-01T13:16:39.423Z</time></trkpt><trkpt lat="46.81909251666666" lon="11.43992495"><ele>2200.0</ele><time>2026-05-01T13:16:40.402Z</time></trkpt><trkpt lat="46.81912878333332" lon="11.439807550000001"><ele>2200.0</ele><time>2026-05-01T13:16:41.402Z</time></trkpt><trkpt lat="46.81917661666667" lon="11.4396724"><ele>2200.0</ele><time>2026-05-01T13:16:42.402Z</time></trkpt><trkpt lat="46.819244016666666" lon="11.439525949999998"><ele>2200.0</ele><time>2026-05-01T13:16:43.404Z</time></trkpt><trkpt lat="46.81932393333333" lon="11.439388399999999"><ele>2200.0</ele><time>2026-05-01T13:16:44.422Z</time></trkpt><trkpt lat="46.8194065" lon="11.439265233333334"><ele>2199.8</ele><time>2026-05-01T13:16:45.4Z</time></trkpt><trkpt lat="46.81948746666667" lon="11.4391496"><ele>2199.6</ele><time>2026-05-01T13:16:46.4Z</time></trkpt><trkpt lat="46.819563550000005" lon="11.439035783333335"><ele>2199.4</ele><time>2026-05-01T13:16:47.402Z</time></trkpt><trkpt lat="46.819641233333336" lon="11.43892355"><ele>2199.2</ele><time>2026-05-01T13:16:48.402Z</time></trkpt><trkpt lat="46.819726366666664" lon="11.438805316666667"><ele>2199.0</ele><time>2026-05-01T13:16:49.42Z</time></trkpt><trkpt lat="46.81982070000001" lon="11.438672850000001"><ele>2199.0</ele><time>2026-05-01T13:16:50.401Z</time></trkpt><trkpt lat="46.819921916666665" lon="11.438527233333332"><ele>2199.0</ele><time>2026-05-01T13:16:51.401Z</time></trkpt><trkpt lat="46.82002791666667" lon="11.438374299999998"><ele>2199.0</ele><time>2026-05-01T13:16:52.402Z</time></trkpt><trkpt lat="46.82013485000001" lon="11.438225766666667"><ele>2199.0</ele><time>2026-05-01T13:16:53.402Z</time></trkpt><trkpt lat="46.82024048333333" lon="11.438085366666668"><ele>2198.0</ele><time>2026-05-01T13:16:54.401Z</time></trkpt><trkpt lat="46.82034828333334" lon="11.437952150000001"><ele>2197.0</ele><time>2026-05-01T13:16:55.418Z</time></trkpt><trkpt lat="46.82046053333333" lon="11.437825666666667"><ele>2196.0</ele><time>2026-05-01T13:16:56.4Z</time></trkpt><trkpt lat="46.820587016666664" lon="11.437713233333334"><ele>2195.0</ele><time>2026-05-01T13:16:57.414Z</time></trkpt><trkpt lat="46.82072705" lon="11.437623033333333"><ele>2195.0</ele><time>2026-05-01T13:16:58.418Z</time></trkpt><trkpt lat="46.820881400000005" lon="11.437554699999998"><ele>2195.0</ele><time>2026-05-01T13:16:59.403Z</time></trkpt><trkpt lat="46.821038066666674" lon="11.437503233333333"><ele>2195.0</ele><time>2026-05-01T13:17:00.405Z</time></trkpt><trkpt lat="46.82118928333333" lon="11.437455100000001"><ele>2184.6666666666665</ele><time>2026-05-01T13:17:01.421Z</time></trkpt><trkpt lat="46.821334750000005" lon="11.437390183333333"><ele>2174.3333333333335</ele><time>2026-05-01T13:17:02.414Z</time></trkpt><trkpt lat="46.82147233333333" lon="11.4372974"><ele>2164.0</ele><time>2026-05-01T13:17:03.423Z</time></trkpt><trkpt lat="46.8216042" lon="11.437176066666666"><ele>2165.3333333333335</ele><time>2026-05-01T13:17:04.4Z</time></trkpt><trkpt lat="46.82173548333334" lon="11.437038433333331"><ele>2166.6666666666665</ele><time>2026-05-01T13:17:05.425Z</time></trkpt><trkpt lat="46.82186756666666" lon="11.436904799999999"><ele>2168.0</ele><time>2026-05-01T13:17:06.423Z</time></trkpt><trkpt lat="46.822004083333326" lon="11.436791683333334"><ele>2168.0</ele><time>2026-05-01T13:17:07.455Z</time></trkpt><trkpt lat="46.82215025" lon="11.436701916666667"><ele>2168.0</ele><time>2026-05-01T13:17:08.402Z</time></trkpt><trkpt lat="46.822304249999995" lon="11.436639566666669"><ele>2168.0</ele><time>2026-05-01T13:17:09.401Z</time></trkpt><trkpt lat="46.82246078333333" lon="11.436592033333334"><ele>2168.0</ele><time>2026-05-01T13:17:10.421Z</time></trkpt><trkpt lat="46.822614916666666" lon="11.436564950000001"><ele>2168.0</ele><time>2026-05-01T13:17:11.408Z</time></trkpt><trkpt lat="46.82276565" lon="11.436562366666665"><ele>2168.0</ele><time>2026-05-01T13:17:12.404Z</time></trkpt><trkpt lat="46.822912233333334" lon="11.436571116666668"><ele>2163.5</ele><time>2026-05-01T13:17:13.419Z</time></trkpt><trkpt lat="46.823058800000005" lon="11.4365858"><ele>2159.0</ele><time>2026-05-01T13:17:14.402Z</time></trkpt><trkpt lat="46.823206150000004" lon="11.436598833333335"><ele>2154.5</ele><time>2026-05-01T13:17:15.413Z</time></trkpt><trkpt lat="46.823355783333334" lon="11.436602"><ele>2150.0</ele><time>2026-05-01T13:17:16.412Z</time></trkpt><trkpt lat="46.82350840000001" lon="11.436569033333335"><ele>2144.333333333333</ele><time>2026-05-01T13:17:17.402Z</time></trkpt><trkpt lat="46.823656416666665" lon="11.436494416666669"><ele>2138.6666666666665</ele><time>2026-05-01T13:17:18.402Z</time></trkpt><trkpt lat="46.82379576666667" lon="11.436398350000001"><ele>2133.0</ele><time>2026-05-01T13:17:19.4Z</time></trkpt><trkpt lat="46.8239289" lon="11.436303266666668"><ele>2137.0</ele><time>2026-05-01T13:17:20.4Z</time></trkpt><trkpt lat="46.82406041666666" lon="11.436221366666667"><ele>2141.0</ele><time>2026-05-01T13:17:21.4Z</time></trkpt><trkpt lat="46.82419541666667" lon="11.436170166666667"><ele>2145.0</ele><time>2026-05-01T13:17:22.418Z</time></trkpt><trkpt lat="46.82433675" lon="11.436161949999999"><ele>2149.0</ele><time>2026-05-01T13:17:23.403Z</time></trkpt><trkpt lat="46.82448716666666" lon="11.436186000000001"><ele>2149.0</ele><time>2026-05-01T13:17:24.402Z</time></trkpt><trkpt lat="46.82464908333333" lon="11.436228316666666"><ele>2149.0</ele><time>2026-05-01T13:17:25.418Z</time></trkpt><trkpt lat="46.82480908746505" lon="11.436297858145064"><ele>2149.0</ele><time>2026-05-01T13:17:26.4Z</time></trkpt><trkpt lat="46.8249703" lon="11.4363026"><ele>2142.666666666667</ele><time>2026-05-01T13:17:27.4Z</time></trkpt><trkpt lat="46.825123266666665" lon="11.436312766666665"><ele>2136.3333333333335</ele><time>2026-05-01T13:17:28.42Z</time></trkpt><trkpt lat="46.82527541666667" lon="11.436320666666665"><ele>2130.0</ele><time>2026-05-01T13:17:29.402Z</time></trkpt><trkpt lat="46.825433249999996" lon="11.436352766666667"><ele>2128.6666666666665</ele><time>2026-05-01T13:17:30.426Z</time></trkpt><trkpt lat="46.825592066666665" lon="11.436411716666665"><ele>2127.333333333333</ele><time>2026-05-01T13:17:31.423Z</time></trkpt><trkpt lat="46.82574688333334" lon="11.436476783333335"><ele>2126.0</ele><time>2026-05-01T13:17:32.4Z</time></trkpt><trkpt lat="46.825902666666664" lon="11.436527066666669"><ele>2122.333333333333</ele><time>2026-05-01T13:17:33.424Z</time></trkpt><trkpt lat="46.826053183333336" lon="11.4365573"><ele>2118.6666666666665</ele><time>2026-05-01T13:17:34.419Z</time></trkpt><trkpt lat="46.82620313333334" lon="11.436574366666665"><ele>2115.0</ele><time>2026-05-01T13:17:35.402Z</time></trkpt><trkpt lat="46.826359783333324" lon="11.436587416666669"><ele>2115.0</ele><time>2026-05-01T13:17:36.402Z</time></trkpt><trkpt lat="46.82652661666666" lon="11.436598566666666"><ele>2115.0</ele><time>2026-05-01T13:17:37.421Z</time></trkpt><trkpt lat="46.82670060000001" lon="11.43660765"><ele>2115.0</ele><time>2026-05-01T13:17:38.402Z</time></trkpt><trkpt lat="46.82687378333333" lon="11.436613499999998"><ele>2112.3333333333335</ele><time>2026-05-01T13:17:39.465Z</time></trkpt><trkpt lat="46.827041566666665" lon="11.436617850000001"><ele>2109.666666666667</ele><time>2026-05-01T13:17:40.402Z</time></trkpt><trkpt lat="46.82720541666666" lon="11.436623716666668"><ele>2107.0</ele><time>2026-05-01T13:17:41.402Z</time></trkpt><trkpt lat="46.82735805000001" lon="11.436640583333334"><ele>2107.0</ele><time>2026-05-01T13:17:42.418Z</time></trkpt><trkpt lat="46.82749749999999" lon="11.436684316666668"><ele>2107.0</ele><time>2026-05-01T13:17:43.42Z</time></trkpt><trkpt lat="46.827628983333334" lon="11.436742650000001"><ele>2107.0</ele><time>2026-05-01T13:17:44.426Z</time></trkpt><trkpt lat="46.827761833333334" lon="11.436770316666665"><ele>2107.0</ele><time>2026-05-01T13:17:45.422Z</time></trkpt><trkpt lat="46.82789136666667" lon="11.436759516666665"><ele>2106.75</ele><time>2026-05-01T13:17:46.419Z</time></trkpt><trkpt lat="46.82801213333334" lon="11.436730866666668"><ele>2106.5</ele><time>2026-05-01T13:17:47.4Z</time></trkpt><trkpt lat="46.82812675" lon="11.436713433333335"><ele>2106.25</ele><time>2026-05-01T13:17:48.412Z</time></trkpt><trkpt lat="46.82824101666667" lon="11.436727450000001"><ele>2106.0</ele><time>2026-05-01T13:17:49.419Z</time></trkpt><trkpt lat="46.82835825" lon="11.436779766666666"><ele>2106.0</ele><time>2026-05-01T13:17:50.426Z</time></trkpt><trkpt lat="46.82847490000001" lon="11.436863549999998"><ele>2106.0</ele><time>2026-05-01T13:17:51.405Z</time></trkpt><trkpt lat="46.828574172341284" lon="11.436990342999598"><ele>2106.0</ele><time>2026-05-01T13:17:52.419Z</time></trkpt><trkpt lat="46.82868566666666" lon="11.437076433333333"><ele>2106.0</ele><time>2026-05-01T13:17:53.402Z</time></trkpt><trkpt lat="46.828787566666676" lon="11.4371835"><ele>2104.5</ele><time>2026-05-01T13:17:54.402Z</time></trkpt><trkpt lat="46.82888385" lon="11.437296"><ele>2103.0</ele><time>2026-05-01T13:17:55.419Z</time></trkpt><trkpt lat="46.82897974999999" lon="11.437421400000002"><ele>2101.5</ele><time>2026-05-01T13:17:56.426Z</time></trkpt><trkpt lat="46.82906415000001" lon="11.437562116666667"><ele>2100.0</ele><time>2026-05-01T13:17:57.41Z</time></trkpt><trkpt lat="46.82912239040139" lon="11.437737047801463"><ele>2100.0</ele><time>2026-05-01T13:17:58.419Z</time></trkpt><trkpt lat="46.829182201713046" lon="11.437909312489733"><ele>2100.0</ele><time>2026-05-01T13:17:59.402Z</time></trkpt><trkpt lat="46.82923651944255" lon="11.438091668514149"><ele>2100.0</ele><time>2026-05-01T13:18:00.404Z</time></trkpt><trkpt lat="46.82929186966916" lon="11.438278438954045"><ele>2100.0</ele><time>2026-05-01T13:18:01.402Z</time></trkpt><trkpt lat="46.82934677348556" lon="11.4384620358683"><ele>2098.25</ele><time>2026-05-01T13:18:02.402Z</time></trkpt><trkpt lat="46.829402376859576" lon="11.438647972114248"><ele>2096.5</ele><time>2026-05-01T13:18:03.403Z</time></trkpt><trkpt lat="46.82945660092034" lon="11.438829295978975"><ele>2094.75</ele><time>2026-05-01T13:18:04.419Z</time></trkpt><trkpt lat="46.82950890417181" lon="11.43900905299383"><ele>2093.0</ele><time>2026-05-01T13:18:05.402Z</time></trkpt><trkpt lat="46.829561620898204" lon="11.439185282886331"><ele>2093.0</ele><time>2026-05-01T13:18:06.424Z</time></trkpt><trkpt lat="46.8296186543466" lon="11.439351169436401"><ele>2093.0</ele><time>2026-05-01T13:18:07.42Z</time></trkpt><trkpt lat="46.82969143222362" lon="11.439497486745443"><ele>2093.0</ele><time>2026-05-01T13:18:08.402Z</time></trkpt><trkpt lat="46.829791416666666" lon="11.439591033333333"><ele>2093.0</ele><time>2026-05-01T13:18:09.48Z</time></trkpt><trkpt lat="46.829889566666665" lon="11.4396763"><ele>2094.4</ele><time>2026-05-01T13:18:10.437Z</time></trkpt><trkpt lat="46.82998866666667" lon="11.4397511"><ele>2095.8</ele><time>2026-05-01T13:18:11.466Z</time></trkpt><trkpt lat="46.830086550000004" lon="11.439817783333334"><ele>2097.2</ele><time>2026-05-01T13:18:12.429Z</time></trkpt><trkpt lat="46.830182150000006" lon="11.439890816666667"><ele>2098.6</ele><time>2026-05-01T13:18:13.45Z</time></trkpt><trkpt lat="46.83026605" lon="11.439987416666668"><ele>2100.0</ele><time>2026-05-01T13:18:14.437Z</time></trkpt><trkpt lat="46.830330116666666" lon="11.44011513333333"><ele>2100.0</ele><time>2026-05-01T13:18:15.419Z</time></trkpt><trkpt lat="46.83037506666667" lon="11.440276100000002"><ele>2100.0</ele><time>2026-05-01T13:18:16.402Z</time></trkpt><trkpt lat="46.830409200000005" lon="11.44045466666667"><ele>2100.0</ele><time>2026-05-01T13:18:17.4Z</time></trkpt><trkpt lat="46.830442083333345" lon="11.440633133333332"><ele>2100.0</ele><time>2026-05-01T13:18:18.42Z</time></trkpt><trkpt lat="46.830461430526874" lon="11.440816404736196"><ele>2093.0</ele><time>2026-05-01T13:18:19.409Z</time></trkpt><trkpt lat="46.83049886121237" lon="11.440991884228774"><ele>2086.0</ele><time>2026-05-01T13:18:20.428Z</time></trkpt><trkpt lat="46.83055824447835" lon="11.441143937426396"><ele>2079.0</ele><time>2026-05-01T13:18:21.403Z</time></trkpt><trkpt lat="46.83064399146319" lon="11.44126557254989"><ele>2072.0</ele><time>2026-05-01T13:18:22.403Z</time></trkpt><trkpt lat="46.83074805" lon="11.441327583333337"><ele>2065.25</ele><time>2026-05-01T13:18:23.404Z</time></trkpt><trkpt lat="46.83086006666667" lon="11.441378016666667"><ele>2058.5</ele><time>2026-05-01T13:18:24.42Z</time></trkpt><trkpt lat="46.83099751666667" lon="11.44139928333333"><ele>2051.75</ele><time>2026-05-01T13:18:25.405Z</time></trkpt><trkpt lat="46.83116481666666" lon="11.441403466666669"><ele>2045.0</ele><time>2026-05-01T13:18:26.404Z</time></trkpt><trkpt lat="46.83134775143932" lon="11.4414388634953"><ele>2045.0</ele><time>2026-05-01T13:18:27.423Z</time></trkpt><trkpt lat="46.83153522142633" lon="11.441459465835822"><ele>2045.0</ele><time>2026-05-01T13:18:28.401Z</time></trkpt><trkpt lat="46.83171503333333" lon="11.441454966666667"><ele>2045.0</ele><time>2026-05-01T13:18:29.423Z</time></trkpt><trkpt lat="46.83188789999999" lon="11.441489133333336"><ele>2049.333333333333</ele><time>2026-05-01T13:18:30.421Z</time></trkpt><trkpt lat="46.832051766666666" lon="11.441558816666669"><ele>2053.6666666666665</ele><time>2026-05-01T13:18:31.4Z</time></trkpt><trkpt lat="46.832202800000005" lon="11.4416824"><ele>2058.0</ele><time>2026-05-01T13:18:32.423Z</time></trkpt><trkpt lat="46.83231830931471" lon="11.441882657338901"><ele>2058.0</ele><time>2026-05-01T13:18:33.423Z</time></trkpt><trkpt lat="46.832437604424385" lon="11.442090234646939"><ele>2058.0</ele><time>2026-05-01T13:18:34.405Z</time></trkpt><trkpt lat="46.8325534558733" lon="11.44229743707165"><ele>2058.0</ele><time>2026-05-01T13:18:35.423Z</time></trkpt><trkpt lat="46.832659070794335" lon="11.442499845017938"><ele>2055.0</ele><time>2026-05-01T13:18:36.421Z</time></trkpt><trkpt lat="46.8327336948826" lon="11.442720306277957"><ele>2052.0</ele><time>2026-05-01T13:18:37.408Z</time></trkpt><trkpt lat="46.83280373641402" lon="11.44294302716891"><ele>2049.0</ele><time>2026-05-01T13:18:38.423Z</time></trkpt><trkpt lat="46.83289749239595" lon="11.443152169707393"><ele>2044.0</ele><time>2026-05-01T13:18:39.421Z</time></trkpt><trkpt lat="46.83304813333333" lon="11.4432803"><ele>2039.0</ele><time>2026-05-01T13:18:40.414Z</time></trkpt><trkpt lat="46.8331775" lon="11.443458383333333"><ele>2034.0</ele><time>2026-05-01T13:18:41.402Z</time></trkpt><trkpt lat="46.83327743104879" lon="11.443694661782375"><ele>2035.0</ele><time>2026-05-01T13:18:42.425Z</time></trkpt><trkpt lat="46.83337859450302" lon="11.443938273884429"><ele>2036.0</ele><time>2026-05-01T13:18:43.403Z</time></trkpt><trkpt lat="46.83348025197279" lon="11.444183379478813"><ele>2037.0</ele><time>2026-05-01T13:18:44.405Z</time></trkpt><trkpt lat="46.833584224766774" lon="11.4444340678238"><ele>2034.0</ele><time>2026-05-01T13:18:45.422Z</time></trkpt><trkpt lat="46.83368890750792" lon="11.444685298034603"><ele>2031.0</ele><time>2026-05-01T13:18:46.4Z</time></trkpt><trkpt lat="46.83378806930091" lon="11.444931315073443"><ele>2028.0</ele><time>2026-05-01T13:18:47.422Z</time></trkpt><trkpt lat="46.833870981268205" lon="11.445183713247037"><ele>2028.0</ele><time>2026-05-01T13:18:48.443Z</time></trkpt><trkpt lat="46.83391925413291" lon="11.445442644671928"><ele>2028.0</ele><time>2026-05-01T13:18:49.425Z</time></trkpt><trkpt lat="46.83392369506955" lon="11.445712612348755"><ele>2028.0</ele><time>2026-05-01T13:18:50.445Z</time></trkpt><trkpt lat="46.833900079020886" lon="11.44599115646264"><ele>2028.3333333333335</ele><time>2026-05-01T13:18:51.4Z</time></trkpt><trkpt lat="46.833873319411985" lon="11.44627545778084"><ele>2028.6666666666667</ele><time>2026-05-01T13:18:52.421Z</time></trkpt><trkpt lat="46.8338495432982" lon="11.446545335046785"><ele>2029.0</ele><time>2026-05-01T13:18:53.401Z</time></trkpt><trkpt lat="46.83382130642612" lon="11.446790505231261"><ele>2027.6666666666667</ele><time>2026-05-01T13:18:54.416Z</time></trkpt><trkpt lat="46.83375852540941" lon="11.447004540851694"><ele>2026.3333333333335</ele><time>2026-05-01T13:18:55.424Z</time></trkpt><trkpt lat="46.83366205407973" lon="11.447194072289825"><ele>2025.0</ele><time>2026-05-01T13:18:56.411Z</time></trkpt><trkpt lat="46.83358440274161" lon="11.447418113473775"><ele>2024.3333333333335</ele><time>2026-05-01T13:18:57.416Z</time></trkpt><trkpt lat="46.833524596971635" lon="11.447655311112069"><ele>2023.6666666666667</ele><time>2026-05-01T13:18:58.423Z</time></trkpt><trkpt lat="46.83347591388087" lon="11.4478998732377"><ele>2023.0</ele><time>2026-05-01T13:18:59.41Z</time></trkpt><trkpt lat="46.83345523816769" lon="11.448141728278124"><ele>2019.3333333333335</ele><time>2026-05-01T13:19:00.423Z</time></trkpt><trkpt lat="46.83345338681185" lon="11.448374620061344"><ele>2015.6666666666665</ele><time>2026-05-01T13:19:01.402Z</time></trkpt><trkpt lat="46.83348388047123" lon="11.44860483917389"><ele>2012.0</ele><time>2026-05-01T13:19:02.4Z</time></trkpt><trkpt lat="46.83354766778935" lon="11.448813316707072"><ele>2006.6666666666665</ele><time>2026-05-01T13:19:03.418Z</time></trkpt><trkpt lat="46.83362775644995" lon="11.449019057944943"><ele>2001.3333333333335</ele><time>2026-05-01T13:19:04.421Z</time></trkpt><trkpt lat="46.833664249975726" lon="11.449259779899306"><ele>1996.0</ele><time>2026-05-01T13:19:05.4Z</time></trkpt><trkpt lat="46.83369972524055" lon="11.449519997443499"><ele>1993.6666666666667</ele><time>2026-05-01T13:19:06.415Z</time></trkpt><trkpt lat="46.83373463476893" lon="11.449778743952034"><ele>1991.3333333333335</ele><time>2026-05-01T13:19:07.423Z</time></trkpt><trkpt lat="46.83376982523453" lon="11.45003496006621"><ele>1989.0</ele><time>2026-05-01T13:19:08.401Z</time></trkpt><trkpt lat="46.833806228950706" lon="11.450283586822737"><ele>1983.0</ele><time>2026-05-01T13:19:09.416Z</time></trkpt><trkpt lat="46.83385821246697" lon="11.45052788580512"><ele>1977.0</ele><time>2026-05-01T13:19:10.419Z</time></trkpt><trkpt lat="46.83394387353754" lon="11.45074858173055"><ele>1971.0</ele><time>2026-05-01T13:19:11.406Z</time></trkpt><trkpt lat="46.83403443380602" lon="11.45095577039627"><ele>1971.0</ele><time>2026-05-01T13:19:12.416Z</time></trkpt><trkpt lat="46.83412800599001" lon="11.451161570163752"><ele>1971.0</ele><time>2026-05-01T13:19:13.42Z</time></trkpt><trkpt lat="46.834233806967816" lon="11.451357471067345"><ele>1971.0</ele><time>2026-05-01T13:19:14.404Z</time></trkpt><trkpt lat="46.834358766666675" lon="11.451500916666664"><ele>1968.25</ele><time>2026-05-01T13:19:15.44Z</time></trkpt><trkpt lat="46.834466583333345" lon="11.451629583333332"><ele>1965.5</ele><time>2026-05-01T13:19:16.421Z</time></trkpt><trkpt lat="46.83457669999999" lon="11.451711049999998"><ele>1962.75</ele><time>2026-05-01T13:19:17.4Z</time></trkpt><trkpt lat="46.83469276666666" lon="11.451728050000002"><ele>1960.0</ele><time>2026-05-01T13:19:18.416Z</time></trkpt><trkpt lat="46.83481260000001" lon="11.451688366666668"><ele>1960.0</ele><time>2026-05-01T13:19:19.401Z</time></trkpt><trkpt lat="46.83493910000001" lon="11.451623633333336"><ele>1960.0</ele><time>2026-05-01T13:19:20.434Z</time></trkpt><trkpt lat="46.83508306666666" lon="11.451593199999998"><ele>1960.0</ele><time>2026-05-01T13:19:21.416Z</time></trkpt><trkpt lat="46.83524538333333" lon="11.451604650000002"><ele>1960.0</ele><time>2026-05-01T13:19:22.423Z</time></trkpt><trkpt lat="46.83541438333334" lon="11.451626083333334"><ele>1959.3333333333335</ele><time>2026-05-01T13:19:23.403Z</time></trkpt><trkpt lat="46.83558060000001" lon="11.451647916666666"><ele>1958.6666666666665</ele><time>2026-05-01T13:19:24.441Z</time></trkpt><trkpt lat="46.83574238333334" lon="11.451674600000002"><ele>1958.0</ele><time>2026-05-01T13:19:25.421Z</time></trkpt><trkpt lat="46.83589921666667" lon="11.451726633333331"><ele>1965.6666666666665</ele><time>2026-05-01T13:19:26.436Z</time></trkpt><trkpt lat="46.83605103333333" lon="11.451811750000001"><ele>1973.3333333333335</ele><time>2026-05-01T13:19:27.418Z</time></trkpt><trkpt lat="46.836191024428416" lon="11.45194946153058"><ele>1981.0</ele><time>2026-05-01T13:19:28.415Z</time></trkpt><trkpt lat="46.83632656605563" lon="11.452102725154583"><ele>1970.0</ele><time>2026-05-01T13:19:29.402Z</time></trkpt><trkpt lat="46.83645626120433" lon="11.4522802689943"><ele>1959.0</ele><time>2026-05-01T13:19:30.417Z</time></trkpt><trkpt lat="46.83657412718191" lon="11.452468649099982"><ele>1948.0</ele><time>2026-05-01T13:19:31.421Z</time></trkpt><trkpt lat="46.836671404581054" lon="11.452672683361621"><ele>1948.0</ele><time>2026-05-01T13:19:32.405Z</time></trkpt><trkpt lat="46.83673631296199" lon="11.452901074819929"><ele>1948.0</ele><time>2026-05-01T13:19:33.423Z</time></trkpt><trkpt lat="46.83677665161113" lon="11.453144737000697"><ele>1948.0</ele><time>2026-05-01T13:19:34.42Z</time></trkpt><trkpt lat="46.83681038079424" lon="11.453391341371221"><ele>1951.6666666666667</ele><time>2026-05-01T13:19:35.403Z</time></trkpt><trkpt lat="46.836850771762585" lon="11.453633151500622"><ele>1955.3333333333335</ele><time>2026-05-01T13:19:36.415Z</time></trkpt><trkpt lat="46.83692470155204" lon="11.453861115417356"><ele>1959.0</ele><time>2026-05-01T13:19:37.408Z</time></trkpt><trkpt lat="46.83704336666666" lon="11.45404133333333"><ele>1959.0</ele><time>2026-05-01T13:19:38.402Z</time></trkpt><trkpt lat="46.837132912089004" lon="11.454267881003398"><ele>1959.0</ele><time>2026-05-01T13:19:39.419Z</time></trkpt><trkpt lat="46.83723260113193" lon="11.454494175846044"><ele>1959.0</ele><time>2026-05-01T13:19:40.433Z</time></trkpt><trkpt lat="46.83735360000001" lon="11.454679583333332"><ele>1947.3333333333335</ele><time>2026-05-01T13:19:41.4Z</time></trkpt><trkpt lat="46.837436600000004" lon="11.454890483333335"><ele>1935.6666666666667</ele><time>2026-05-01T13:19:42.402Z</time></trkpt><trkpt lat="46.83747733853122" lon="11.455129164954327"><ele>1924.0</ele><time>2026-05-01T13:19:43.4Z</time></trkpt><trkpt lat="46.83757847598259" lon="11.455322759697589"><ele>1929.3333333333335</ele><time>2026-05-01T13:19:44.408Z</time></trkpt><trkpt lat="46.837684564345594" lon="11.455501865577912"><ele>1934.6666666666665</ele><time>2026-05-01T13:19:45.403Z</time></trkpt><trkpt lat="46.83779762037631" lon="11.455693501391904"><ele>1940.0</ele><time>2026-05-01T13:19:46.422Z</time></trkpt><trkpt lat="46.8379196139976" lon="11.455901688204852"><ele>1940.0</ele><time>2026-05-01T13:19:47.4Z</time></trkpt><trkpt lat="46.838042741674016" lon="11.456115647151485"><ele>1940.0</ele><time>2026-05-01T13:19:48.421Z</time></trkpt><trkpt lat="46.83816211382501" lon="11.456324599074952"><ele>1940.0</ele><time>2026-05-01T13:19:49.4Z</time></trkpt><trkpt lat="46.83827736659417" lon="11.456526926597862"><ele>1938.0</ele><time>2026-05-01T13:19:50.427Z</time></trkpt><trkpt lat="46.83837756176426" lon="11.456728265884085"><ele>1936.0</ele><time>2026-05-01T13:19:51.425Z</time></trkpt><trkpt lat="46.83845026171518" lon="11.456950790308275"><ele>1934.0</ele><time>2026-05-01T13:19:52.399Z</time></trkpt><trkpt lat="46.83851774438636" lon="11.457176428694368"><ele>1934.0</ele><time>2026-05-01T13:19:53.419Z</time></trkpt><trkpt lat="46.83858476341065" lon="11.457411004784603"><ele>1934.0</ele><time>2026-05-01T13:19:54.402Z</time></trkpt><trkpt lat="46.838655669394406" lon="11.45764480346472"><ele>1934.0</ele><time>2026-05-01T13:19:55.403Z</time></trkpt><trkpt lat="46.83872492951576" lon="11.457876745372634"><ele>1927.25</ele><time>2026-05-01T13:19:56.42Z</time></trkpt><trkpt lat="46.83878561694314" lon="11.45809550738307"><ele>1920.5</ele><time>2026-05-01T13:19:57.413Z</time></trkpt><trkpt lat="46.83884413240355" lon="11.458286305110704"><ele>1913.75</ele><time>2026-05-01T13:19:58.425Z</time></trkpt><trkpt lat="46.83889693088893" lon="11.458443940609056"><ele>1907.0</ele><time>2026-05-01T13:19:59.414Z</time></trkpt><trkpt lat="46.83894554713258" lon="11.458579890733"><ele>1907.0</ele><time>2026-05-01T13:20:00.415Z</time></trkpt><trkpt lat="46.83897425261917" lon="11.458674366086406"><ele>1906.9999999999998</ele><time>2026-05-01T13:20:01.399Z</time></trkpt><trkpt lat="46.83897368333334" lon="11.458823733333334"><ele>1906.9999999999998</ele><time>2026-05-01T13:20:03.404Z</time></trkpt><trkpt lat="46.83887085" lon="11.458731599999998"><ele>1907.0</ele><time>2026-05-01T13:20:05.399Z</time></trkpt><trkpt lat="46.83883433333334" lon="11.458597316666665"><ele>1907.0</ele><time>2026-05-01T13:20:06.412Z</time></trkpt><trkpt lat="46.838769033333335" lon="11.458434416666668"><ele>1907.0</ele><time>2026-05-01T13:20:07.407Z</time></trkpt><trkpt lat="46.838677383333334" lon="11.458249333333333"><ele>1907.0</ele><time>2026-05-01T13:20:08.4Z</time></trkpt><trkpt lat="46.83856835" lon="11.4580378"><ele>1907.0</ele><time>2026-05-01T13:20:09.408Z</time></trkpt><trkpt lat="46.83844403333333" lon="11.457804116666667"><ele>1898.0</ele><time>2026-05-01T13:20:10.404Z</time></trkpt><trkpt lat="46.83832021666667" lon="11.457570100000002"><ele>1889.0</ele><time>2026-05-01T13:20:11.399Z</time></trkpt><trkpt lat="46.838201149999996" lon="11.457354966666665"><ele>1880.0</ele><time>2026-05-01T13:20:12.399Z</time></trkpt><trkpt lat="46.83808811949956" lon="11.45713246269167"><ele>1888.0</ele><time>2026-05-01T13:20:13.404Z</time></trkpt><trkpt lat="46.83795630214783" lon="11.456957412102398"><ele>1896.0</ele><time>2026-05-01T13:20:14.403Z</time></trkpt><trkpt lat="46.837813616666665" lon="11.456811049999999"><ele>1904.0</ele><time>2026-05-01T13:20:15.401Z</time></trkpt><trkpt lat="46.83769155" lon="11.456628333333333"><ele>1898.0</ele><time>2026-05-01T13:20:16.405Z</time></trkpt><trkpt lat="46.83757731666666" lon="11.456419000000002"><ele>1892.0</ele><time>2026-05-01T13:20:17.399Z</time></trkpt><trkpt lat="46.83747690546207" lon="11.456184454560475"><ele>1886.0</ele><time>2026-05-01T13:20:18.408Z</time></trkpt><trkpt lat="46.83735216666667" lon="11.455997483333332"><ele>1886.0</ele><time>2026-05-01T13:20:19.408Z</time></trkpt><trkpt lat="46.83724586666667" lon="11.455798000000001"><ele>1886.0</ele><time>2026-05-01T13:20:20.401Z</time></trkpt><trkpt lat="46.83715292872013" lon="11.455586332820143"><ele>1886.0</ele><time>2026-05-01T13:20:21.401Z</time></trkpt><trkpt lat="46.83701356666667" lon="11.455461600000001"><ele>1879.3333333333333</ele><time>2026-05-01T13:20:22.422Z</time></trkpt><trkpt lat="46.83690785" lon="11.455294266666666"><ele>1872.6666666666665</ele><time>2026-05-01T13:20:23.409Z</time></trkpt><trkpt lat="46.83682504240466" lon="11.455107315925616"><ele>1866.0</ele><time>2026-05-01T13:20:24.402Z</time></trkpt><trkpt lat="46.83670276666666" lon="11.454982466666669"><ele>1866.0</ele><time>2026-05-01T13:20:25.417Z</time></trkpt><trkpt lat="46.836590166666674" lon="11.454861033333335"><ele>1866.0</ele><time>2026-05-01T13:20:26.401Z</time></trkpt><trkpt lat="46.836471616666664" lon="11.454773166666667"><ele>1866.0</ele><time>2026-05-01T13:20:27.419Z</time></trkpt><trkpt lat="46.836353058054875" lon="11.454700944933505"><ele>1866.0</ele><time>2026-05-01T13:20:28.415Z</time></trkpt><trkpt lat="46.83621759999999" lon="11.454681455812114"><ele>1866.0</ele><time>2026-05-01T13:20:29.405Z</time></trkpt><trkpt lat="46.83608175092652" lon="11.454687220561581"><ele>1866.0</ele><time>2026-05-01T13:20:30.402Z</time></trkpt><trkpt lat="46.83593909999999" lon="11.454702133333333"><ele>1866.0</ele><time>2026-05-01T13:20:31.399Z</time></trkpt><trkpt lat="46.83579840000001" lon="11.454665800000003"><ele>1866.0</ele><time>2026-05-01T13:20:32.402Z</time></trkpt><trkpt lat="46.835659150000005" lon="11.454613600000002"><ele>1866.5</ele><time>2026-05-01T13:20:33.402Z</time></trkpt><trkpt lat="46.83552193333333" lon="11.454543483333335"><ele>1867.0</ele><time>2026-05-01T13:20:34.418Z</time></trkpt><trkpt lat="46.83539091666666" lon="11.454459683333335"><ele>1867.5</ele><time>2026-05-01T13:20:35.419Z</time></trkpt><trkpt lat="46.835265083333326" lon="11.454364866666666"><ele>1868.0</ele><time>2026-05-01T13:20:36.417Z</time></trkpt><trkpt lat="46.835148583333336" lon="11.45425668333333"><ele>1863.0</ele><time>2026-05-01T13:20:37.4Z</time></trkpt><trkpt lat="46.83504995" lon="11.454139650000002"><ele>1858.0</ele><time>2026-05-01T13:20:38.408Z</time></trkpt><trkpt lat="46.83495835000001" lon="11.4540259"><ele>1853.0</ele><time>2026-05-01T13:20:39.402Z</time></trkpt><trkpt lat="46.834869614197395" lon="11.4539114993947"><ele>1848.0</ele><time>2026-05-01T13:20:40.417Z</time></trkpt><trkpt lat="46.83477038333334" lon="11.45386885"><ele>1848.0</ele><time>2026-05-01T13:20:41.419Z</time></trkpt><trkpt lat="46.83468468333334" lon="11.453829783333333"><ele>1848.0000000000002</ele><time>2026-05-01T13:20:42.41Z</time></trkpt><trkpt lat="46.834594202387336" lon="11.453799394652062"><ele>1848.0000000000002</ele><time>2026-05-01T13:20:43.414Z</time></trkpt><trkpt lat="46.834519834975964" lon="11.453882661835523"><ele>1848.0</ele><time>2026-05-01T13:20:44.401Z</time></trkpt><trkpt lat="46.83451573134401" lon="11.454033289258689"><ele>1848.0</ele><time>2026-05-01T13:20:45.414Z</time></trkpt><trkpt lat="46.83458030269046" lon="11.454130813296516"><ele>1848.0</ele><time>2026-05-01T13:20:46.399Z</time></trkpt><trkpt lat="46.8346716" lon="11.454157566666666"><ele>1848.0000000000002</ele><time>2026-05-01T13:20:47.399Z</time></trkpt><trkpt lat="46.834766116666664" lon="11.454203983333333"><ele>1848.0000000000002</ele><time>2026-05-01T13:20:48.413Z</time></trkpt><trkpt lat="46.83487506666667" lon="11.454273200000001"><ele>1848.0</ele><time>2026-05-01T13:20:49.417Z</time></trkpt><trkpt lat="46.834973902785066" lon="11.454409919520069"><ele>1848.0</ele><time>2026-05-01T13:20:50.419Z</time></trkpt><trkpt lat="46.83509293855029" lon="11.454543094594845"><ele>1844.0</ele><time>2026-05-01T13:20:51.413Z</time></trkpt><trkpt lat="46.8352302" lon="11.454656516666667"><ele>1840.0</ele><time>2026-05-01T13:20:52.417Z</time></trkpt><trkpt lat="46.8353456182058" lon="11.454817086256412"><ele>1836.0</ele><time>2026-05-01T13:20:53.424Z</time></trkpt><trkpt lat="46.835443505944774" lon="11.454978502079067"><ele>1836.0</ele><time>2026-05-01T13:20:54.409Z</time></trkpt><trkpt lat="46.83553694203334" lon="11.455161340083684"><ele>1836.0</ele><time>2026-05-01T13:20:55.422Z</time></trkpt><trkpt lat="46.83564335" lon="11.455322883333334"><ele>1836.0</ele><time>2026-05-01T13:20:56.399Z</time></trkpt><trkpt lat="46.83574901666666" lon="11.455457933333332"><ele>1836.25</ele><time>2026-05-01T13:20:57.41Z</time></trkpt><trkpt lat="46.835866149999994" lon="11.45555736666667"><ele>1836.5</ele><time>2026-05-01T13:20:58.417Z</time></trkpt><trkpt lat="46.83598566666666" lon="11.455647866666666"><ele>1836.75</ele><time>2026-05-01T13:20:59.408Z</time></trkpt><trkpt lat="46.83611261666667" lon="11.455742400000002"><ele>1837.0</ele><time>2026-05-01T13:21:00.432Z</time></trkpt><trkpt lat="46.83623513333334" lon="11.455846583333335"><ele>1837.0</ele><time>2026-05-01T13:21:01.414Z</time></trkpt><trkpt lat="46.83634000000001" lon="11.455977233333332"><ele>1837.0</ele><time>2026-05-01T13:21:02.425Z</time></trkpt><trkpt lat="46.83640521822029" lon="11.456157037734357"><ele>1837.0</ele><time>2026-05-01T13:21:03.413Z</time></trkpt><trkpt lat="46.83646904681969" lon="11.45636180463424"><ele>1837.0</ele><time>2026-05-01T13:21:04.414Z</time></trkpt><trkpt lat="46.83654138333333" lon="11.456575950000001"><ele>1830.3333333333335</ele><time>2026-05-01T13:21:05.423Z</time></trkpt><trkpt lat="46.83656392677306" lon="11.456805182668589"><ele>1823.6666666666665</ele><time>2026-05-01T13:21:06.41Z</time></trkpt><trkpt lat="46.8365804804086" lon="11.457031127661681"><ele>1817.0</ele><time>2026-05-01T13:21:07.416Z</time></trkpt><trkpt lat="46.83659001535031" lon="11.457253211046313"><ele>1812.6666666666665</ele><time>2026-05-01T13:21:08.419Z</time></trkpt><trkpt lat="46.83660152917262" lon="11.45747058354771"><ele>1808.3333333333335</ele><time>2026-05-01T13:21:09.412Z</time></trkpt><trkpt lat="46.836640262900275" lon="11.457690297433093"><ele>1804.0</ele><time>2026-05-01T13:21:10.401Z</time></trkpt><trkpt lat="46.83672368333334" lon="11.457871516666668"><ele>1801.0</ele><time>2026-05-01T13:21:11.42Z</time></trkpt><trkpt lat="46.8367977" lon="11.458073883333336"><ele>1798.0</ele><time>2026-05-01T13:21:12.411Z</time></trkpt><trkpt lat="46.8368643760577" lon="11.458293872696295"><ele>1795.0</ele><time>2026-05-01T13:21:13.416Z</time></trkpt><trkpt lat="46.836945341984226" lon="11.45850480877158"><ele>1801.0</ele><time>2026-05-01T13:21:14.405Z</time></trkpt><trkpt lat="46.83702757590282" lon="11.458707455833055"><ele>1807.0</ele><time>2026-05-01T13:21:15.413Z</time></trkpt><trkpt lat="46.83711616649077" lon="11.458896750919198"><ele>1813.0</ele><time>2026-05-01T13:21:16.416Z</time></trkpt><trkpt lat="46.83722037348111" lon="11.459058991357777"><ele>1813.0</ele><time>2026-05-01T13:21:17.425Z</time></trkpt><trkpt lat="46.83733821666666" lon="11.459199416666667"><ele>1813.0</ele><time>2026-05-01T13:21:18.414Z</time></trkpt><trkpt lat="46.83740715926631" lon="11.459403939371674"><ele>1813.0</ele><time>2026-05-01T13:21:19.422Z</time></trkpt><trkpt lat="46.83748211337425" lon="11.459605455091008"><ele>1815.0</ele><time>2026-05-01T13:21:20.405Z</time></trkpt><trkpt lat="46.83758384465278" lon="11.459774793162564"><ele>1817.0</ele><time>2026-05-01T13:21:21.411Z</time></trkpt><trkpt lat="46.83768185871713" lon="11.45991345889782"><ele>1819.0</ele><time>2026-05-01T13:21:22.416Z</time></trkpt><trkpt lat="46.83776608333333" lon="11.460057683333332"><ele>1821.0</ele><time>2026-05-01T13:21:23.423Z</time></trkpt><trkpt lat="46.837783875583796" lon="11.460241703530773"><ele>1821.0</ele><time>2026-05-01T13:21:24.413Z</time></trkpt><trkpt lat="46.837807424403394" lon="11.460404864804865"><ele>1821.0</ele><time>2026-05-01T13:21:25.401Z</time></trkpt><trkpt lat="46.83786084621079" lon="11.460547622412001"><ele>1821.0</ele><time>2026-05-01T13:21:26.416Z</time></trkpt><trkpt lat="46.837954265269296" lon="11.460620895468738"><ele>1821.0</ele><time>2026-05-01T13:21:27.413Z</time></trkpt><trkpt lat="46.83804895324159" lon="11.460658635576848"><ele>1821.0</ele><time>2026-05-01T13:21:28.413Z</time></trkpt><trkpt lat="46.83814227845441" lon="11.460688412578072"><ele>1815.0</ele><time>2026-05-01T13:21:29.423Z</time></trkpt><trkpt lat="46.83821882149351" lon="11.460726517244126"><ele>1809.0</ele><time>2026-05-01T13:21:30.418Z</time></trkpt><trkpt lat="46.838270916666666" lon="11.460816599999998"><ele>1803.0</ele><time>2026-05-01T13:21:31.421Z</time></trkpt><trkpt lat="46.838284533333336" lon="11.460954916666665"><ele>1797.0</ele><time>2026-05-01T13:21:32.421Z</time></trkpt><trkpt lat="46.83826337142216" lon="11.461108191186904"><ele>1791.0</ele><time>2026-05-01T13:21:33.413Z</time></trkpt><trkpt lat="46.838245020543326" lon="11.461275241596043"><ele>1793.5</ele><time>2026-05-01T13:21:34.401Z</time></trkpt><trkpt lat="46.83828912663129" lon="11.461432559291024"><ele>1796.0</ele><time>2026-05-01T13:21:35.401Z</time></trkpt><trkpt lat="46.83840832538665" lon="11.4615344993862"><ele>1798.5</ele><time>2026-05-01T13:21:36.412Z</time></trkpt><trkpt lat="46.83852608361786" lon="11.461578672509837"><ele>1801.0</ele><time>2026-05-01T13:21:37.417Z</time></trkpt><trkpt lat="46.838640173894404" lon="11.461617168593461"><ele>1801.0</ele><time>2026-05-01T13:21:38.419Z</time></trkpt><trkpt lat="46.838732496207626" lon="11.461641917376724"><ele>1801.0</ele><time>2026-05-01T13:21:39.414Z</time></trkpt><trkpt lat="46.838807031556" lon="11.461690256111618"><ele>1801.0</ele><time>2026-05-01T13:21:40.417Z</time></trkpt><trkpt lat="46.83886561666666" lon="11.461769533333332"><ele>1801.0</ele><time>2026-05-01T13:21:41.401Z</time></trkpt><trkpt lat="46.83885651666666" lon="11.461908933333333"><ele>1801.0</ele><time>2026-05-01T13:21:42.414Z</time></trkpt><trkpt lat="46.83880920528506" lon="11.462056856549253"><ele>1799.75</ele><time>2026-05-01T13:21:43.414Z</time></trkpt><trkpt lat="46.838755263228585" lon="11.462219879066826"><ele>1798.5</ele><time>2026-05-01T13:21:44.408Z</time></trkpt><trkpt lat="46.838699813171885" lon="11.462382031624934"><ele>1797.25</ele><time>2026-05-01T13:21:45.413Z</time></trkpt><trkpt lat="46.838644321677535" lon="11.462548912579189"><ele>1796.0</ele><time>2026-05-01T13:21:46.401Z</time></trkpt><trkpt lat="46.83860587174195" lon="11.46273553044396"><ele>1796.0</ele><time>2026-05-01T13:21:47.401Z</time></trkpt><trkpt lat="46.83859632721511" lon="11.462931408786668"><ele>1796.0</ele><time>2026-05-01T13:21:48.411Z</time></trkpt><trkpt lat="46.838628827410425" lon="11.463154850280086"><ele>1796.0</ele><time>2026-05-01T13:21:49.413Z</time></trkpt><trkpt lat="46.83867914216046" lon="11.463342824846482"><ele>1796.0</ele><time>2026-05-01T13:21:50.413Z</time></trkpt><trkpt lat="46.83872881034596" lon="11.46351392489387"><ele>1793.75</ele><time>2026-05-01T13:21:51.414Z</time></trkpt><trkpt lat="46.83878296821663" lon="11.46368269081997"><ele>1791.5</ele><time>2026-05-01T13:21:52.414Z</time></trkpt><trkpt lat="46.83886578186606" lon="11.46384286590975"><ele>1789.25</ele><time>2026-05-01T13:21:53.427Z</time></trkpt><trkpt lat="46.83896417626449" lon="11.463983292457517"><ele>1787.0</ele><time>2026-05-01T13:21:54.409Z</time></trkpt><trkpt lat="46.83906397609399" lon="11.464101029431882"><ele>1781.8</ele><time>2026-05-01T13:21:55.401Z</time></trkpt><trkpt lat="46.839148709334815" lon="11.464203459942661"><ele>1776.6</ele><time>2026-05-01T13:21:56.423Z</time></trkpt><trkpt lat="46.83920898772369" lon="11.464307447163064"><ele>1771.3999999999999</ele><time>2026-05-01T13:21:57.412Z</time></trkpt><trkpt lat="46.839242600000006" lon="11.464453366666666"><ele>1766.1999999999998</ele><time>2026-05-01T13:21:58.421Z</time></trkpt><trkpt lat="46.83918933474823" lon="11.464596898944984"><ele>1761.0</ele><time>2026-05-01T13:21:59.409Z</time></trkpt><trkpt lat="46.83911932566288" lon="11.464752036681999"><ele>1759.25</ele><time>2026-05-01T13:22:00.411Z</time></trkpt><trkpt lat="46.83906638726144" lon="11.464932737384935"><ele>1757.5</ele><time>2026-05-01T13:22:01.418Z</time></trkpt><trkpt lat="46.8390577201332" lon="11.465136321931437"><ele>1755.75</ele><time>2026-05-01T13:22:02.429Z</time></trkpt><trkpt lat="46.83907451098441" lon="11.465329780206895"><ele>1754.0</ele><time>2026-05-01T13:22:03.421Z</time></trkpt><trkpt lat="46.839092029671214" lon="11.465518839378607"><ele>1751.75</ele><time>2026-05-01T13:22:04.401Z</time></trkpt><trkpt lat="46.839112217971724" lon="11.465702932342735"><ele>1749.5</ele><time>2026-05-01T13:22:05.403Z</time></trkpt><trkpt lat="46.83914465891262" lon="11.465897766697024"><ele>1747.25</ele><time>2026-05-01T13:22:06.411Z</time></trkpt><trkpt lat="46.83919050689455" lon="11.466098201031139"><ele>1745.0</ele><time>2026-05-01T13:22:07.416Z</time></trkpt><trkpt lat="46.839253657625406" lon="11.466287774573178"><ele>1741.75</ele><time>2026-05-01T13:22:08.414Z</time></trkpt><trkpt lat="46.83928610396831" lon="11.466482352287994"><ele>1738.5</ele><time>2026-05-01T13:22:09.413Z</time></trkpt><trkpt lat="46.83926201369151" lon="11.466686302020449"><ele>1735.25</ele><time>2026-05-01T13:22:10.414Z</time></trkpt><trkpt lat="46.839277299560045" lon="11.466901676649712"><ele>1732.0</ele><time>2026-05-01T13:22:11.424Z</time></trkpt><trkpt lat="46.83930244603319" lon="11.46708605909879"><ele>1730.0</ele><time>2026-05-01T13:22:12.411Z</time></trkpt><trkpt lat="46.83930958075094" lon="11.467263712173652"><ele>1728.0</ele><time>2026-05-01T13:22:13.403Z</time></trkpt><trkpt lat="46.83930002957288" lon="11.467449221410973"><ele>1726.0</ele><time>2026-05-01T13:22:14.42Z</time></trkpt><trkpt lat="46.83927807554049" lon="11.467644754846578"><ele>1724.0</ele><time>2026-05-01T13:22:15.414Z</time></trkpt><trkpt lat="46.83927077351827" lon="11.467847911596934"><ele>1720.0</ele><time>2026-05-01T13:22:16.401Z</time></trkpt><trkpt lat="46.839275869551244" lon="11.468043981090094"><ele>1716.0</ele><time>2026-05-01T13:22:17.419Z</time></trkpt><trkpt lat="46.839295506546335" lon="11.468214649648075"><ele>1712.0</ele><time>2026-05-01T13:22:18.416Z</time></trkpt><trkpt lat="46.83932262577879" lon="11.468382978010254"><ele>1708.0</ele><time>2026-05-01T13:22:19.402Z</time></trkpt><trkpt lat="46.83939708403605" lon="11.468531257387236"><ele>1713.25</ele><time>2026-05-01T13:22:20.405Z</time></trkpt><trkpt lat="46.83948686175079" lon="11.468662300608461"><ele>1718.5</ele><time>2026-05-01T13:22:21.413Z</time></trkpt><trkpt lat="46.83956879200203" lon="11.468811144402139"><ele>1723.75</ele><time>2026-05-01T13:22:22.412Z</time></trkpt><trkpt lat="46.83964816667501" lon="11.468982296059682"><ele>1729.0</ele><time>2026-05-01T13:22:23.408Z</time></trkpt><trkpt lat="46.83975158787764" lon="11.469112459874165"><ele>1729.0</ele><time>2026-05-01T13:22:24.413Z</time></trkpt><trkpt lat="46.83985943333334" lon="11.469213883333335"><ele>1729.0</ele><time>2026-05-01T13:22:25.401Z</time></trkpt><trkpt lat="46.839936333333334" lon="11.469362899999998"><ele>1729.0</ele><time>2026-05-01T13:22:26.419Z</time></trkpt><trkpt lat="46.84000571666667" lon="11.469518633333333"><ele>1729.0</ele><time>2026-05-01T13:22:27.411Z</time></trkpt><trkpt lat="46.840089066666664" lon="11.469649933333335"><ele>1732.0</ele><time>2026-05-01T13:22:28.415Z</time></trkpt><trkpt lat="46.8401639424666" lon="11.469792886027552"><ele>1735.0</ele><time>2026-05-01T13:22:29.424Z</time></trkpt><trkpt lat="46.84025119999999" lon="11.469920016666666"><ele>1738.0</ele><time>2026-05-01T13:22:30.41Z</time></trkpt><trkpt lat="46.84030296666666" lon="11.470072766666666"><ele>1741.0</ele><time>2026-05-01T13:22:31.422Z</time></trkpt><trkpt lat="46.84033518333334" lon="11.470227"><ele>1741.0</ele><time>2026-05-01T13:22:32.402Z</time></trkpt><trkpt lat="46.84033803868647" lon="11.470396914132136"><ele>1741.0</ele><time>2026-05-01T13:22:33.413Z</time></trkpt><trkpt lat="46.840370912256944" lon="11.47055945829479"><ele>1741.0</ele><time>2026-05-01T13:22:34.414Z</time></trkpt><trkpt lat="46.840441379273685" lon="11.47069022784733"><ele>1741.0</ele><time>2026-05-01T13:22:35.421Z</time></trkpt><trkpt lat="46.840533733333324" lon="11.470788766666665"><ele>1732.75</ele><time>2026-05-01T13:22:36.44Z</time></trkpt><trkpt lat="46.840613983333334" lon="11.47092525"><ele>1724.5</ele><time>2026-05-01T13:22:37.417Z</time></trkpt><trkpt lat="46.84069065" lon="11.471090583333334"><ele>1716.25</ele><time>2026-05-01T13:22:38.405Z</time></trkpt><trkpt lat="46.84075458012536" lon="11.47127608139307"><ele>1708.0</ele><time>2026-05-01T13:22:39.413Z</time></trkpt><trkpt lat="46.840857716666676" lon="11.471410500000001"><ele>1707.75</ele><time>2026-05-01T13:22:40.416Z</time></trkpt><trkpt lat="46.840950233333324" lon="11.4715489"><ele>1707.5</ele><time>2026-05-01T13:22:41.42Z</time></trkpt><trkpt lat="46.84103738333333" lon="11.47168925"><ele>1707.25</ele><time>2026-05-01T13:22:42.412Z</time></trkpt><trkpt lat="46.84110569999999" lon="11.471842683333334"><ele>1707.0</ele><time>2026-05-01T13:22:43.402Z</time></trkpt><trkpt lat="46.84116611666667" lon="11.47199395"><ele>1700.25</ele><time>2026-05-01T13:22:44.42Z</time></trkpt><trkpt lat="46.84123663333334" lon="11.472126666666668"><ele>1693.5</ele><time>2026-05-01T13:22:45.411Z</time></trkpt><trkpt lat="46.84133466666667" lon="11.472228533333336"><ele>1686.75</ele><time>2026-05-01T13:22:46.402Z</time></trkpt><trkpt lat="46.841458949999996" lon="11.472308133333335"><ele>1680.0</ele><time>2026-05-01T13:22:47.426Z</time></trkpt><trkpt lat="46.84158595000001" lon="11.472385316666665"><ele>1680.0</ele><time>2026-05-01T13:22:48.413Z</time></trkpt><trkpt lat="46.841706499999994" lon="11.4724555"><ele>1680.0</ele><time>2026-05-01T13:22:49.417Z</time></trkpt><trkpt lat="46.84182616666667" lon="11.472522766666668"><ele>1680.0</ele><time>2026-05-01T13:22:50.405Z</time></trkpt><trkpt lat="46.84193296666667" lon="11.472601483333335"><ele>1680.0</ele><time>2026-05-01T13:22:51.412Z</time></trkpt><trkpt lat="46.84201475" lon="11.472696133333333"><ele>1685.5</ele><time>2026-05-01T13:22:52.418Z</time></trkpt><trkpt lat="46.84206735" lon="11.472831766666665"><ele>1691.0</ele><time>2026-05-01T13:22:53.423Z</time></trkpt><trkpt lat="46.842107633333335" lon="11.473008883333334"><ele>1696.5</ele><time>2026-05-01T13:22:54.414Z</time></trkpt><trkpt lat="46.84214104999999" lon="11.47319805"><ele>1702.0</ele><time>2026-05-01T13:22:55.4Z</time></trkpt><trkpt lat="46.84217528333334" lon="11.473393099999997"><ele>1702.0</ele><time>2026-05-01T13:22:56.423Z</time></trkpt><trkpt lat="46.84222101666666" lon="11.473577983333334"><ele>1702.0</ele><time>2026-05-01T13:22:57.413Z</time></trkpt><trkpt lat="46.84228108333333" lon="11.473741533333335"><ele>1702.0</ele><time>2026-05-01T13:22:58.419Z</time></trkpt><trkpt lat="46.84235711666666" lon="11.473881066666669"><ele>1702.0</ele><time>2026-05-01T13:22:59.419Z</time></trkpt><trkpt lat="46.84243878333333" lon="11.474017333333332"><ele>1699.25</ele><time>2026-05-01T13:23:00.411Z</time></trkpt><trkpt lat="46.84252105" lon="11.474170366666666"><ele>1696.5</ele><time>2026-05-01T13:23:01.4Z</time></trkpt><trkpt lat="46.84260795" lon="11.4743368"><ele>1693.75</ele><time>2026-05-01T13:23:02.4Z</time></trkpt><trkpt lat="46.84268760851057" lon="11.474530024516152"><ele>1691.0</ele><time>2026-05-01T13:23:03.413Z</time></trkpt><trkpt lat="46.842790233237906" lon="11.474695923298588"><ele>1691.0</ele><time>2026-05-01T13:23:04.402Z</time></trkpt><trkpt lat="46.84288700267359" lon="11.474860700239956"><ele>1691.0</ele><time>2026-05-01T13:23:05.42Z</time></trkpt><trkpt lat="46.842984783333335" lon="11.475003050000002"><ele>1691.0</ele><time>2026-05-01T13:23:06.414Z</time></trkpt><trkpt lat="46.84304033333333" lon="11.475181266666667"><ele>1691.0</ele><time>2026-05-01T13:23:07.424Z</time></trkpt><trkpt lat="46.84307383414619" lon="11.475368864458478"><ele>1684.75</ele><time>2026-05-01T13:23:08.423Z</time></trkpt><trkpt lat="46.84313889386362" lon="11.475540003008422"><ele>1678.5</ele><time>2026-05-01T13:23:09.417Z</time></trkpt><trkpt lat="46.84321950484787" lon="11.475684412840165"><ele>1672.25</ele><time>2026-05-01T13:23:10.422Z</time></trkpt><trkpt lat="46.8433020494584" lon="11.475823460852865"><ele>1666.0</ele><time>2026-05-01T13:23:11.423Z</time></trkpt><trkpt lat="46.843368766487764" lon="11.475998812028799"><ele>1666.0</ele><time>2026-05-01T13:23:12.414Z</time></trkpt><trkpt lat="46.843421092099526" lon="11.4762018035047"><ele>1666.0</ele><time>2026-05-01T13:23:13.402Z</time></trkpt><trkpt lat="46.84347523519117" lon="11.47641640782206"><ele>1666.0</ele><time>2026-05-01T13:23:14.405Z</time></trkpt><trkpt lat="46.8435308796564" lon="11.476636963058342"><ele>1672.6666666666667</ele><time>2026-05-01T13:23:15.413Z</time></trkpt><trkpt lat="46.843602399999995" lon="11.47684115"><ele>1679.3333333333335</ele><time>2026-05-01T13:23:16.417Z</time></trkpt><trkpt lat="46.843650216666674" lon="11.47704925"><ele>1686.0</ele><time>2026-05-01T13:23:17.401Z</time></trkpt><trkpt lat="46.84368993333332" lon="11.477257300000002"><ele>1686.0</ele><time>2026-05-01T13:23:18.414Z</time></trkpt><trkpt lat="46.84371148333334" lon="11.4774693"><ele>1686.0</ele><time>2026-05-01T13:23:19.415Z</time></trkpt><trkpt lat="46.8437135" lon="11.4776884"><ele>1686.0</ele><time>2026-05-01T13:23:20.423Z</time></trkpt><trkpt lat="46.84370575" lon="11.477927283333335"><ele>1679.6666666666665</ele><time>2026-05-01T13:23:21.41Z</time></trkpt><trkpt lat="46.843696783333336" lon="11.478172883333333"><ele>1673.3333333333333</ele><time>2026-05-01T13:23:22.415Z</time></trkpt><trkpt lat="46.84368795" lon="11.478411983333336"><ele>1667.0</ele><time>2026-05-01T13:23:23.406Z</time></trkpt><trkpt lat="46.84368979999999" lon="11.47863585"><ele>1661.25</ele><time>2026-05-01T13:23:24.413Z</time></trkpt><trkpt lat="46.84371218333334" lon="11.4788486"><ele>1655.5</ele><time>2026-05-01T13:23:25.419Z</time></trkpt><trkpt lat="46.84375156666666" lon="11.4790546"><ele>1649.75</ele><time>2026-05-01T13:23:26.408Z</time></trkpt><trkpt lat="46.84379401666667" lon="11.479257516666665"><ele>1644.0</ele><time>2026-05-01T13:23:27.411Z</time></trkpt><trkpt lat="46.84384329999999" lon="11.479439233333336"><ele>1644.0</ele><time>2026-05-01T13:23:28.414Z</time></trkpt><trkpt lat="46.84390390000001" lon="11.479587533333332"><ele>1644.0</ele><time>2026-05-01T13:23:29.42Z</time></trkpt><trkpt lat="46.8439897" lon="11.479701050000001"><ele>1644.0</ele><time>2026-05-01T13:23:30.417Z</time></trkpt><trkpt lat="46.8440986" lon="11.479769516666666"><ele>1644.0</ele><time>2026-05-01T13:23:31.402Z</time></trkpt><trkpt lat="46.84422385" lon="11.479790616666667"><ele>1637.5</ele><time>2026-05-01T13:23:32.404Z</time></trkpt><trkpt lat="46.84436098333334" lon="11.47978735"><ele>1631.0</ele><time>2026-05-01T13:23:33.416Z</time></trkpt><trkpt lat="46.84451065" lon="11.479780016666666"><ele>1624.5</ele><time>2026-05-01T13:23:34.422Z</time></trkpt><trkpt lat="46.844661200000004" lon="11.479785450000001"><ele>1618.0</ele><time>2026-05-01T13:23:35.403Z</time></trkpt><trkpt lat="46.84480173333333" lon="11.479809733333331"><ele>1618.0</ele><time>2026-05-01T13:23:36.412Z</time></trkpt><trkpt lat="46.84493556666666" lon="11.47985036666667"><ele>1618.0</ele><time>2026-05-01T13:23:37.422Z</time></trkpt><trkpt lat="46.84506153333333" lon="11.479898983333333"><ele>1618.0</ele><time>2026-05-01T13:23:38.406Z</time></trkpt><trkpt lat="46.84517621646407" lon="11.479989219150745"><ele>1618.0</ele><time>2026-05-01T13:23:39.413Z</time></trkpt><trkpt lat="46.84529434356907" lon="11.480075449060587"><ele>1621.0</ele><time>2026-05-01T13:23:40.418Z</time></trkpt><trkpt lat="46.845405007251884" lon="11.480193437277249"><ele>1624.0</ele><time>2026-05-01T13:23:41.4Z</time></trkpt><trkpt lat="46.84551690764909" lon="11.480322481752605"><ele>1627.0</ele><time>2026-05-01T13:23:42.419Z</time></trkpt><trkpt lat="46.845637473545956" lon="11.480466162608993"><ele>1630.0</ele><time>2026-05-01T13:23:43.399Z</time></trkpt><trkpt lat="46.84576155888703" lon="11.480613158482392"><ele>1629.0</ele><time>2026-05-01T13:23:44.399Z</time></trkpt><trkpt lat="46.84589038254758" lon="11.480765292644735"><ele>1628.0</ele><time>2026-05-01T13:23:45.413Z</time></trkpt><trkpt lat="46.8460120313614" lon="11.480930947086916"><ele>1627.0</ele><time>2026-05-01T13:23:46.401Z</time></trkpt><trkpt lat="46.84611326866518" lon="11.481125689539377"><ele>1620.3333333333335</ele><time>2026-05-01T13:23:47.404Z</time></trkpt><trkpt lat="46.846214355530385" lon="11.481356419352938"><ele>1613.6666666666665</ele><time>2026-05-01T13:23:48.414Z</time></trkpt><trkpt lat="46.8463468710666" lon="11.481572912646671"><ele>1607.0</ele><time>2026-05-01T13:23:49.403Z</time></trkpt><trkpt lat="46.846479749448775" lon="11.48176441715767"><ele>1607.0</ele><time>2026-05-01T13:23:50.422Z</time></trkpt><trkpt lat="46.846605944472984" lon="11.481944210435977"><ele>1607.0</ele><time>2026-05-01T13:23:51.415Z</time></trkpt><trkpt lat="46.84671693435232" lon="11.482120828794887"><ele>1607.0</ele><time>2026-05-01T13:23:52.417Z</time></trkpt><trkpt lat="46.8468050638258" lon="11.482304263311562"><ele>1610.6666666666665</ele><time>2026-05-01T13:23:53.408Z</time></trkpt><trkpt lat="46.846871339583316" lon="11.482502726075305"><ele>1614.3333333333335</ele><time>2026-05-01T13:23:54.413Z</time></trkpt><trkpt lat="46.846928238365926" lon="11.482706822227883"><ele>1618.0</ele><time>2026-05-01T13:23:55.401Z</time></trkpt><trkpt lat="46.846985274552765" lon="11.482916494327448"><ele>1611.3333333333335</ele><time>2026-05-01T13:23:56.42Z</time></trkpt><trkpt lat="46.847042737361285" lon="11.483127734072005"><ele>1604.6666666666665</ele><time>2026-05-01T13:23:57.409Z</time></trkpt><trkpt lat="46.84710116610742" lon="11.483341931899377"><ele>1598.0</ele><time>2026-05-01T13:23:58.401Z</time></trkpt><trkpt lat="46.847157830806836" lon="11.483549606227278"><ele>1598.0</ele><time>2026-05-01T13:23:59.42Z</time></trkpt><trkpt lat="46.84721685460415" lon="11.483756812589995"><ele>1598.0</ele><time>2026-05-01T13:24:00.414Z</time></trkpt><trkpt lat="46.84729418731738" lon="11.483945940954218"><ele>1598.0</ele><time>2026-05-01T13:24:01.401Z</time></trkpt><trkpt lat="46.84739217418393" lon="11.484110832821376"><ele>1598.6666666666665</ele><time>2026-05-01T13:24:02.401Z</time></trkpt><trkpt lat="46.84751082608457" lon="11.484256295098229"><ele>1599.3333333333335</ele><time>2026-05-01T13:24:03.414Z</time></trkpt><trkpt lat="46.84764049129792" lon="11.484393896547576"><ele>1600.0</ele><time>2026-05-01T13:24:04.399Z</time></trkpt><trkpt lat="46.84777726495686" lon="11.484536839650874"><ele>1589.3333333333335</ele><time>2026-05-01T13:24:05.419Z</time></trkpt><trkpt lat="46.847924639497" lon="11.484679957949453"><ele>1578.6666666666665</ele><time>2026-05-01T13:24:06.409Z</time></trkpt><trkpt lat="46.848083613742745" lon="11.48479869176744"><ele>1568.0</ele><time>2026-05-01T13:24:07.42Z</time></trkpt><trkpt lat="46.84823784409546" lon="11.484915981529161"><ele>1568.0</ele><time>2026-05-01T13:24:08.407Z</time></trkpt><trkpt lat="46.848389979117435" lon="11.485035424543462"><ele>1568.0</ele><time>2026-05-01T13:24:09.415Z</time></trkpt><trkpt lat="46.848539227174825" lon="11.485152600902687"><ele>1568.0</ele><time>2026-05-01T13:24:10.415Z</time></trkpt><trkpt lat="46.84869497648266" lon="11.485274881744857"><ele>1571.6666666666665</ele><time>2026-05-01T13:24:11.42Z</time></trkpt><trkpt lat="46.84885460313833" lon="11.485400206508833"><ele>1575.3333333333335</ele><time>2026-05-01T13:24:12.433Z</time></trkpt><trkpt lat="46.849012355432734" lon="11.4855244043211"><ele>1579.0</ele><time>2026-05-01T13:24:13.415Z</time></trkpt><trkpt lat="46.84917148575084" lon="11.485645986414221"><ele>1567.6666666666667</ele><time>2026-05-01T13:24:14.41Z</time></trkpt><trkpt lat="46.84932785460027" lon="11.485754854969793"><ele>1556.3333333333335</ele><time>2026-05-01T13:24:15.414Z</time></trkpt><trkpt lat="46.84947580758189" lon="11.485836913811516"><ele>1545.0</ele><time>2026-05-01T13:24:16.417Z</time></trkpt><trkpt lat="46.84961287838325" lon="11.485918496376248"><ele>1545.0</ele><time>2026-05-01T13:24:17.401Z</time></trkpt><trkpt lat="46.849765845714636" lon="11.485968806119406"><ele>1545.0</ele><time>2026-05-01T13:24:18.414Z</time></trkpt><trkpt lat="46.84990770190095" lon="11.48596333555347"><ele>1545.0</ele><time>2026-05-01T13:24:19.416Z</time></trkpt><trkpt lat="46.85004423277534" lon="11.485944997902976"><ele>1545.0</ele><time>2026-05-01T13:24:20.414Z</time></trkpt><trkpt lat="46.85017950014797" lon="11.485928060988718"><ele>1543.4</ele><time>2026-05-01T13:24:21.41Z</time></trkpt><trkpt lat="46.85031121752127" lon="11.485911920523113"><ele>1541.8</ele><time>2026-05-01T13:24:22.414Z</time></trkpt><trkpt lat="46.8504332215338" lon="11.485894790705752"><ele>1540.1999999999998</ele><time>2026-05-01T13:24:23.42Z</time></trkpt><trkpt lat="46.85054046666668" lon="11.485890250329396"><ele>1538.6</ele><time>2026-05-01T13:24:24.421Z</time></trkpt><trkpt lat="46.850615271602635" lon="11.48591282807599"><ele>1537.0</ele><time>2026-05-01T13:24:25.417Z</time></trkpt><trkpt lat="46.850706616228436" lon="11.486016307675046"><ele>1537.0000000000002</ele><time>2026-05-01T13:24:27.412Z</time></trkpt><trkpt lat="46.85072616248275" lon="11.4861251"><ele>1537.0</ele><time>2026-05-01T13:24:28.415Z</time></trkpt><trkpt lat="46.850723933333335" lon="11.486250283333334"><ele>1537.0</ele><time>2026-05-01T13:24:29.401Z</time></trkpt><trkpt lat="46.85066343333333" lon="11.486337050000001"><ele>1537.0</ele><time>2026-05-01T13:24:30.414Z</time></trkpt><trkpt lat="46.85057591666667" lon="11.486376900000002"><ele>1537.0000000000002</ele><time>2026-05-01T13:24:31.401Z</time></trkpt><trkpt lat="46.8504666" lon="11.486370733333334"><ele>1537.0</ele><time>2026-05-01T13:24:32.401Z</time></trkpt><trkpt lat="46.85034601666666" lon="11.486337416666668"><ele>1534.0</ele><time>2026-05-01T13:24:33.414Z</time></trkpt><trkpt lat="46.850217099999995" lon="11.486327216666666"><ele>1531.0</ele><time>2026-05-01T13:24:34.414Z</time></trkpt><trkpt lat="46.8500861564735" lon="11.486336994061169"><ele>1528.0</ele><time>2026-05-01T13:24:35.407Z</time></trkpt><trkpt lat="46.84998027100735" lon="11.486410326998062"><ele>1525.0</ele><time>2026-05-01T13:24:36.413Z</time></trkpt><trkpt lat="46.84989228333334" lon="11.486501566666668"><ele>1525.0</ele><time>2026-05-01T13:24:37.418Z</time></trkpt><trkpt lat="46.84979140000001" lon="11.486519183333334"><ele>1525.0</ele><time>2026-05-01T13:24:38.402Z</time></trkpt><trkpt lat="46.84968068333333" lon="11.486492566666668"><ele>1525.0</ele><time>2026-05-01T13:24:39.413Z</time></trkpt><trkpt lat="46.84955816666667" lon="11.486442016666668"><ele>1525.0</ele><time>2026-05-01T13:24:40.399Z</time></trkpt><trkpt lat="46.84943543333334" lon="11.48638618333333"><ele>1525.0</ele><time>2026-05-01T13:24:41.401Z</time></trkpt><trkpt lat="46.8493109" lon="11.486333100000003"><ele>1525.0</ele><time>2026-05-01T13:24:42.411Z</time></trkpt><trkpt lat="46.8491819" lon="11.4862883"><ele>1525.0</ele><time>2026-05-01T13:24:43.422Z</time></trkpt><trkpt lat="46.849056716666674" lon="11.48626"><ele>1525.0</ele><time>2026-05-01T13:24:44.424Z</time></trkpt><trkpt lat="46.84893906666666" lon="11.48624905"><ele>1522.0</ele><time>2026-05-01T13:24:45.413Z</time></trkpt><trkpt lat="46.84882725000001" lon="11.486254883333332"><ele>1519.0</ele><time>2026-05-01T13:24:46.415Z</time></trkpt><trkpt lat="46.84871202019625" lon="11.486252332674596"><ele>1516.0</ele><time>2026-05-01T13:24:47.401Z</time></trkpt><trkpt lat="46.848595464451684" lon="11.486286844688973"><ele>1513.0</ele><time>2026-05-01T13:24:48.413Z</time></trkpt><trkpt lat="46.84847523342491" lon="11.486321391232403"><ele>1509.25</ele><time>2026-05-01T13:24:49.401Z</time></trkpt><trkpt lat="46.848353372839114" lon="11.486356552352987"><ele>1505.5</ele><time>2026-05-01T13:24:50.408Z</time></trkpt><trkpt lat="46.848232744481805" lon="11.48639034703465"><ele>1501.75</ele><time>2026-05-01T13:24:51.41Z</time></trkpt><trkpt lat="46.8481178337396" lon="11.486418995379392"><ele>1498.0</ele><time>2026-05-01T13:24:52.42Z</time></trkpt><trkpt lat="46.84801215000001" lon="11.486433249584092"><ele>1498.0</ele><time>2026-05-01T13:24:53.414Z</time></trkpt><trkpt lat="46.84791258333333" lon="11.486442550000001"><ele>1498.0</ele><time>2026-05-01T13:24:54.414Z</time></trkpt><trkpt lat="46.84782376666667" lon="11.4864033"><ele>1498.0</ele><time>2026-05-01T13:24:55.414Z</time></trkpt><trkpt lat="46.84773986666667" lon="11.486356533333332"><ele>1498.0</ele><time>2026-05-01T13:24:56.399Z</time></trkpt><trkpt lat="46.847655116666665" lon="11.486304833333335"><ele>1498.0</ele><time>2026-05-01T13:24:57.415Z</time></trkpt><trkpt lat="46.847569366666654" lon="11.486250666666669"><ele>1496.6000000000001</ele><time>2026-05-01T13:24:58.415Z</time></trkpt><trkpt lat="46.84748396666667" lon="11.486198950000002"><ele>1495.2</ele><time>2026-05-01T13:24:59.409Z</time></trkpt><trkpt lat="46.847399366666664" lon="11.486172933333334"><ele>1493.8</ele><time>2026-05-01T13:25:00.414Z</time></trkpt><trkpt lat="46.84730737155191" lon="11.486153755152293"><ele>1492.4</ele><time>2026-05-01T13:25:01.419Z</time></trkpt><trkpt lat="46.84722767889196" lon="11.486254181008547"><ele>1491.0</ele><time>2026-05-01T13:25:02.421Z</time></trkpt><trkpt lat="46.84721435460819" lon="11.486408005006671"><ele>1491.0</ele><time>2026-05-01T13:25:03.412Z</time></trkpt><trkpt lat="46.84726487538958" lon="11.48652513516332"><ele>1491.0</ele><time>2026-05-01T13:25:04.399Z</time></trkpt><trkpt lat="46.84735181666667" lon="11.486565783333333"><ele>1491.0</ele><time>2026-05-01T13:25:05.42Z</time></trkpt><trkpt lat="46.847434716666676" lon="11.486613433333332"><ele>1491.0</ele><time>2026-05-01T13:25:06.41Z</time></trkpt><trkpt lat="46.84753296666666" lon="11.486657450000001"><ele>1491.0</ele><time>2026-05-01T13:25:07.451Z</time></trkpt><trkpt lat="46.8476425" lon="11.486708383333333"><ele>1492.75</ele><time>2026-05-01T13:25:08.401Z</time></trkpt><trkpt lat="46.84776453333334" lon="11.486769316666669"><ele>1494.5</ele><time>2026-05-01T13:25:09.414Z</time></trkpt><trkpt lat="46.84789558333333" lon="11.486838416666668"><ele>1496.25</ele><time>2026-05-01T13:25:10.423Z</time></trkpt><trkpt lat="46.84803863333333" lon="11.486908116666667"><ele>1498.0</ele><time>2026-05-01T13:25:11.404Z</time></trkpt><trkpt lat="46.84819406666667" lon="11.486978299999997"><ele>1498.0</ele><time>2026-05-01T13:25:12.412Z</time></trkpt><trkpt lat="46.84835081666667" lon="11.487047933333335"><ele>1498.0</ele><time>2026-05-01T13:25:13.415Z</time></trkpt><trkpt lat="46.848501299999995" lon="11.487118233333335"><ele>1498.0</ele><time>2026-05-01T13:25:14.408Z</time></trkpt><trkpt lat="46.84864846666666" lon="11.487184983333334"><ele>1492.0</ele><time>2026-05-01T13:25:15.414Z</time></trkpt><trkpt lat="46.84880053333333" lon="11.4872573"><ele>1486.0</ele><time>2026-05-01T13:25:16.402Z</time></trkpt><trkpt lat="46.84896033333333" lon="11.487331166666669"><ele>1480.0</ele><time>2026-05-01T13:25:17.401Z</time></trkpt><trkpt lat="46.849125699999995" lon="11.4874095"><ele>1484.3333333333333</ele><time>2026-05-01T13:25:18.416Z</time></trkpt><trkpt lat="46.84929258333333" lon="11.487500883333333"><ele>1488.6666666666667</ele><time>2026-05-01T13:25:19.401Z</time></trkpt><trkpt lat="46.84945545000001" lon="11.48761945"><ele>1493.0</ele><time>2026-05-01T13:25:20.413Z</time></trkpt><trkpt lat="46.849598463428954" lon="11.487778641616135"><ele>1493.0</ele><time>2026-05-01T13:25:21.414Z</time></trkpt><trkpt lat="46.84974539206077" lon="11.487917690913214"><ele>1493.0</ele><time>2026-05-01T13:25:22.417Z</time></trkpt><trkpt lat="46.84988645004514" lon="11.488047494290438"><ele>1493.0</ele><time>2026-05-01T13:25:23.408Z</time></trkpt><trkpt lat="46.850022270484715" lon="11.488167017722331"><ele>1485.3333333333335</ele><time>2026-05-01T13:25:24.414Z</time></trkpt><trkpt lat="46.85016840271796" lon="11.488250757662836"><ele>1477.6666666666667</ele><time>2026-05-01T13:25:25.404Z</time></trkpt><trkpt lat="46.85031905000001" lon="11.488277583333335"><ele>1470.0</ele><time>2026-05-01T13:25:26.401Z</time></trkpt><trkpt lat="46.85046736666667" lon="11.488318383333334"><ele>1470.0</ele><time>2026-05-01T13:25:27.413Z</time></trkpt><trkpt lat="46.85061536666667" lon="11.488353683333333"><ele>1470.0</ele><time>2026-05-01T13:25:28.414Z</time></trkpt><trkpt lat="46.850760066666666" lon="11.488390266666665"><ele>1470.0</ele><time>2026-05-01T13:25:29.414Z</time></trkpt><trkpt lat="46.850895949999995" lon="11.488438516666667"><ele>1470.0</ele><time>2026-05-01T13:25:30.414Z</time></trkpt><trkpt lat="46.85100667202585" lon="11.488545942378769"><ele>1469.5</ele><time>2026-05-01T13:25:31.401Z</time></trkpt><trkpt lat="46.851110696321896" lon="11.48866248586514"><ele>1469.0</ele><time>2026-05-01T13:25:32.401Z</time></trkpt><trkpt lat="46.851215676788556" lon="11.488778018269754"><ele>1468.5</ele><time>2026-05-01T13:25:33.412Z</time></trkpt><trkpt lat="46.85134006114108" lon="11.488842820073685"><ele>1468.0</ele><time>2026-05-01T13:25:34.399Z</time></trkpt><trkpt lat="46.851474384786464" lon="11.488817474281134"><ele>1468.0</ele><time>2026-05-01T13:25:35.409Z</time></trkpt><trkpt lat="46.85158955" lon="11.488759733333332"><ele>1468.0</ele><time>2026-05-01T13:25:36.414Z</time></trkpt><trkpt lat="46.85170553333334" lon="11.488712566666667"><ele>1468.0</ele><time>2026-05-01T13:25:37.419Z</time></trkpt><trkpt lat="46.8518217" lon="11.488668783333333"><ele>1468.0</ele><time>2026-05-01T13:25:38.421Z</time></trkpt><trkpt lat="46.85193183333334" lon="11.488619866666665"><ele>1460.5</ele><time>2026-05-01T13:25:39.414Z</time></trkpt><trkpt lat="46.852030316666664" lon="11.488547866666666"><ele>1453.0</ele><time>2026-05-01T13:25:40.401Z</time></trkpt><trkpt lat="46.85211996666667" lon="11.488445833333333"><ele>1445.5</ele><time>2026-05-01T13:25:41.401Z</time></trkpt><trkpt lat="46.852200866666664" lon="11.488306616666666"><ele>1438.0</ele><time>2026-05-01T13:25:42.416Z</time></trkpt><trkpt lat="46.85227665000001" lon="11.488143783333332"><ele>1438.0</ele><time>2026-05-01T13:25:43.422Z</time></trkpt><trkpt lat="46.85235068333333" lon="11.48798468333333"><ele>1438.0</ele><time>2026-05-01T13:25:44.419Z</time></trkpt><trkpt lat="46.85243054999999" lon="11.487847466666665"><ele>1438.0</ele><time>2026-05-01T13:25:45.412Z</time></trkpt><trkpt lat="46.852519900000004" lon="11.487752816666667"><ele>1438.0</ele><time>2026-05-01T13:25:46.418Z</time></trkpt><trkpt lat="46.85262233333333" lon="11.487705033333336"><ele>1435.2</ele><time>2026-05-01T13:25:47.401Z</time></trkpt><trkpt lat="46.85272796666667" lon="11.487696616666666"><ele>1432.4</ele><time>2026-05-01T13:25:48.434Z</time></trkpt><trkpt lat="46.85282720000001" lon="11.487688516666665"><ele>1429.6000000000001</ele><time>2026-05-01T13:25:49.407Z</time></trkpt><trkpt lat="46.852912266666664" lon="11.487640016666669"><ele>1426.8000000000002</ele><time>2026-05-01T13:25:50.419Z</time></trkpt><trkpt lat="46.852979966666666" lon="11.487539250000001"><ele>1424.0</ele><time>2026-05-01T13:25:51.412Z</time></trkpt><trkpt lat="46.853022666666654" lon="11.487393899999999"><ele>1424.0</ele><time>2026-05-01T13:25:52.423Z</time></trkpt><trkpt lat="46.85304751666666" lon="11.487216516666667"><ele>1424.0</ele><time>2026-05-01T13:25:53.424Z</time></trkpt><trkpt lat="46.85307841666666" lon="11.48703855"><ele>1424.0</ele><time>2026-05-01T13:25:54.414Z</time></trkpt><trkpt lat="46.85313483333333" lon="11.486886333333333"><ele>1424.0</ele><time>2026-05-01T13:25:55.401Z</time></trkpt><trkpt lat="46.85321363333334" lon="11.486781833333334"><ele>1426.75</ele><time>2026-05-01T13:25:56.423Z</time></trkpt><trkpt lat="46.853302083333325" lon="11.486695300000001"><ele>1429.5</ele><time>2026-05-01T13:25:57.414Z</time></trkpt><trkpt lat="46.85338528333334" lon="11.486585266666667"><ele>1432.25</ele><time>2026-05-01T13:25:58.401Z</time></trkpt><trkpt lat="46.85346606666667" lon="11.486463083333335"><ele>1435.0</ele><time>2026-05-01T13:25:59.408Z</time></trkpt><trkpt lat="46.853562833333335" lon="11.486349099999998"><ele>1431.5</ele><time>2026-05-01T13:26:00.412Z</time></trkpt><trkpt lat="46.85367656666667" lon="11.486248666666667"><ele>1428.0</ele><time>2026-05-01T13:26:01.416Z</time></trkpt><trkpt lat="46.85379778333333" lon="11.486158466666668"><ele>1424.5</ele><time>2026-05-01T13:26:02.399Z</time></trkpt><trkpt lat="46.85391956666667" lon="11.486078316666664"><ele>1421.0</ele><time>2026-05-01T13:26:03.416Z</time></trkpt><trkpt lat="46.854038016666664" lon="11.486000766666665"><ele>1421.0</ele><time>2026-05-01T13:26:04.417Z</time></trkpt><trkpt lat="46.85414885" lon="11.485910533333334"><ele>1421.0</ele><time>2026-05-01T13:26:05.401Z</time></trkpt><trkpt lat="46.85425555" lon="11.485795316666668"><ele>1421.0</ele><time>2026-05-01T13:26:06.415Z</time></trkpt><trkpt lat="46.8543634" lon="11.485651716666666"><ele>1421.0</ele><time>2026-05-01T13:26:07.418Z</time></trkpt><trkpt lat="46.85447115" lon="11.485485866666666"><ele>1416.3333333333335</ele><time>2026-05-01T13:26:08.419Z</time></trkpt><trkpt lat="46.85458075" lon="11.485315816666665"><ele>1411.6666666666667</ele><time>2026-05-01T13:26:09.412Z</time></trkpt><trkpt lat="46.8546953" lon="11.485161000000002"><ele>1407.0</ele><time>2026-05-01T13:26:10.419Z</time></trkpt><trkpt lat="46.85481373333334" lon="11.485032216666665"><ele>1407.0</ele><time>2026-05-01T13:26:11.421Z</time></trkpt><trkpt lat="46.8549341" lon="11.484922016666665"><ele>1407.0</ele><time>2026-05-01T13:26:12.412Z</time></trkpt><trkpt lat="46.855042350000005" lon="11.484800716666667"><ele>1407.0</ele><time>2026-05-01T13:26:13.416Z</time></trkpt><trkpt lat="46.855131416666666" lon="11.484654"><ele>1407.0</ele><time>2026-05-01T13:26:14.402Z</time></trkpt><trkpt lat="46.855199166666665" lon="11.484478533333332"><ele>1400.0</ele><time>2026-05-01T13:26:15.414Z</time></trkpt><trkpt lat="46.85525031666666" lon="11.484297733333335"><ele>1393.0</ele><time>2026-05-01T13:26:16.417Z</time></trkpt><trkpt lat="46.855292899999995" lon="11.484119866666667"><ele>1386.0</ele><time>2026-05-01T13:26:17.41Z</time></trkpt><trkpt lat="46.855315950000005" lon="11.48394816666667"><ele>1379.0</ele><time>2026-05-01T13:26:18.414Z</time></trkpt><trkpt lat="46.855314166666666" lon="11.483777616666664"><ele>1382.0</ele><time>2026-05-01T13:26:19.421Z</time></trkpt><trkpt lat="46.85530369999999" lon="11.483610500000001"><ele>1385.0</ele><time>2026-05-01T13:26:20.425Z</time></trkpt><trkpt lat="46.8553113" lon="11.483445316666666"><ele>1388.0</ele><time>2026-05-01T13:26:21.412Z</time></trkpt><trkpt lat="46.85535410000001" lon="11.4832883"><ele>1391.0</ele><time>2026-05-01T13:26:22.416Z</time></trkpt><trkpt lat="46.85543903333334" lon="11.483149849999998"><ele>1391.0</ele><time>2026-05-01T13:26:23.421Z</time></trkpt><trkpt lat="46.85555491666667" lon="11.483039683333335"><ele>1391.0</ele><time>2026-05-01T13:26:24.414Z</time></trkpt><trkpt lat="46.855684316666675" lon="11.482939116666667"><ele>1391.0</ele><time>2026-05-01T13:26:25.416Z</time></trkpt><trkpt lat="46.85581361666667" lon="11.482809883333335"><ele>1391.0</ele><time>2026-05-01T13:26:26.401Z</time></trkpt><trkpt lat="46.85593383333333" lon="11.482646"><ele>1383.6666666666667</ele><time>2026-05-01T13:26:27.413Z</time></trkpt><trkpt lat="46.85603845" lon="11.4824639"><ele>1376.3333333333333</ele><time>2026-05-01T13:26:28.418Z</time></trkpt><trkpt lat="46.856129849999995" lon="11.482276916666667"><ele>1369.0</ele><time>2026-05-01T13:26:29.399Z</time></trkpt><trkpt lat="46.85621141666667" lon="11.482097099999997"><ele>1369.0</ele><time>2026-05-01T13:26:30.414Z</time></trkpt><trkpt lat="46.856279433333334" lon="11.4819222"><ele>1369.0</ele><time>2026-05-01T13:26:31.416Z</time></trkpt><trkpt lat="46.85633515" lon="11.4817503"><ele>1369.0</ele><time>2026-05-01T13:26:32.4Z</time></trkpt><trkpt lat="46.856383050000005" lon="11.481573966666668"><ele>1369.0</ele><time>2026-05-01T13:26:33.414Z</time></trkpt><trkpt lat="46.856422949999995" lon="11.481399866666669"><ele>1369.75</ele><time>2026-05-01T13:26:34.418Z</time></trkpt><trkpt lat="46.856451883333335" lon="11.481221899999998"><ele>1370.5</ele><time>2026-05-01T13:26:35.4Z</time></trkpt><trkpt lat="46.85646485000001" lon="11.481035750000002"><ele>1371.25</ele><time>2026-05-01T13:26:36.412Z</time></trkpt><trkpt lat="46.856462799999996" lon="11.480836700000001"><ele>1372.0</ele><time>2026-05-01T13:26:37.42Z</time></trkpt><trkpt lat="46.856454500000005" lon="11.480631999999998"><ele>1372.0</ele><time>2026-05-01T13:26:38.416Z</time></trkpt><trkpt lat="46.85645261666667" lon="11.480436583333335"><ele>1372.0</ele><time>2026-05-01T13:26:39.414Z</time></trkpt><trkpt lat="46.856473433333335" lon="11.480255166666666"><ele>1372.0</ele><time>2026-05-01T13:26:40.399Z</time></trkpt><trkpt lat="46.856531666666655" lon="11.480096533333336"><ele>1372.0</ele><time>2026-05-01T13:26:41.421Z</time></trkpt><trkpt lat="46.85662676666668" lon="11.479974383333335"><ele>1375.5</ele><time>2026-05-01T13:26:42.414Z</time></trkpt><trkpt lat="46.85674531666667" lon="11.47988033333333"><ele>1379.0</ele><time>2026-05-01T13:26:43.452Z</time></trkpt><trkpt lat="46.85687636666667" lon="11.479805633333335"><ele>1382.5</ele><time>2026-05-01T13:26:44.421Z</time></trkpt><trkpt lat="46.8570069" lon="11.479760116666668"><ele>1386.0</ele><time>2026-05-01T13:26:45.417Z</time></trkpt><trkpt lat="46.85713343333333" lon="11.479736966666666"><ele>1378.5</ele><time>2026-05-01T13:26:46.416Z</time></trkpt><trkpt lat="46.857258050000006" lon="11.479730749999998"><ele>1371.0</ele><time>2026-05-01T13:26:47.41Z</time></trkpt><trkpt lat="46.85738559999999" lon="11.479737416666667"><ele>1363.5</ele><time>2026-05-01T13:26:48.416Z</time></trkpt><trkpt lat="46.85750533333333" lon="11.479721083333335"><ele>1356.0</ele><time>2026-05-01T13:26:49.401Z</time></trkpt><trkpt lat="46.85760908333333" lon="11.479657550000002"><ele>1357.75</ele><time>2026-05-01T13:26:50.411Z</time></trkpt><trkpt lat="46.85770995" lon="11.479569116666669"><ele>1359.5</ele><time>2026-05-01T13:26:51.421Z</time></trkpt><trkpt lat="46.857819433333326" lon="11.4795028"><ele>1361.25</ele><time>2026-05-01T13:26:52.412Z</time></trkpt><trkpt lat="46.857937133333344" lon="11.479479933333334"><ele>1363.0</ele><time>2026-05-01T13:26:53.399Z</time></trkpt><trkpt lat="46.85805808333333" lon="11.47946115"><ele>1363.0</ele><time>2026-05-01T13:26:54.416Z</time></trkpt><trkpt lat="46.858167116666664" lon="11.4793933"><ele>1363.0</ele><time>2026-05-01T13:26:55.402Z</time></trkpt><trkpt lat="46.858262399999994" lon="11.479282633333332"><ele>1363.0</ele><time>2026-05-01T13:26:56.401Z</time></trkpt><trkpt lat="46.85834518333333" lon="11.4791544"><ele>1363.0</ele><time>2026-05-01T13:26:57.414Z</time></trkpt><trkpt lat="46.858413816666676" lon="11.479004750000001"><ele>1358.0</ele><time>2026-05-01T13:26:58.402Z</time></trkpt><trkpt lat="46.85848599999999" lon="11.478845033333334"><ele>1353.0</ele><time>2026-05-01T13:26:59.408Z</time></trkpt><trkpt lat="46.858578183333336" lon="11.478702883333336"><ele>1348.0</ele><time>2026-05-01T13:27:00.411Z</time></trkpt><trkpt lat="46.85869123333333" lon="11.4785773"><ele>1343.0</ele><time>2026-05-01T13:27:01.404Z</time></trkpt><trkpt lat="46.85881349999999" lon="11.478454150000001"><ele>1343.0</ele><time>2026-05-01T13:27:02.4Z</time></trkpt><trkpt lat="46.85892694999999" lon="11.478317383333334"><ele>1343.0</ele><time>2026-05-01T13:27:03.415Z</time></trkpt><trkpt lat="46.85903693333333" lon="11.478165383333332"><ele>1343.0</ele><time>2026-05-01T13:27:04.416Z</time></trkpt><trkpt lat="46.859153866666674" lon="11.4780071"><ele>1334.0</ele><time>2026-05-01T13:27:05.418Z</time></trkpt><trkpt lat="46.859271883333335" lon="11.477844533333332"><ele>1325.0</ele><time>2026-05-01T13:27:06.415Z</time></trkpt><trkpt lat="46.85938621666666" lon="11.477673183333332"><ele>1316.0</ele><time>2026-05-01T13:27:07.418Z</time></trkpt><trkpt lat="46.85949846666668" lon="11.477493983333334"><ele>1316.0</ele><time>2026-05-01T13:27:08.409Z</time></trkpt><trkpt lat="46.859608333333334" lon="11.477313933333335"><ele>1316.0</ele><time>2026-05-01T13:27:09.411Z</time></trkpt><trkpt lat="46.85970786666667" lon="11.477127966666666"><ele>1316.0</ele><time>2026-05-01T13:27:10.399Z</time></trkpt><trkpt lat="46.85979175000001" lon="11.476938700000002"><ele>1324.0</ele><time>2026-05-01T13:27:11.399Z</time></trkpt><trkpt lat="46.85985841666667" lon="11.476745233333332"><ele>1332.0</ele><time>2026-05-01T13:27:12.412Z</time></trkpt><trkpt lat="46.859927299999995" lon="11.476544683333335"><ele>1340.0</ele><time>2026-05-01T13:27:13.399Z</time></trkpt><trkpt lat="46.86001495000001" lon="11.476351549999999"><ele>1322.6666666666667</ele><time>2026-05-01T13:27:14.42Z</time></trkpt><trkpt lat="46.860125100000005" lon="11.476176766666667"><ele>1305.3333333333333</ele><time>2026-05-01T13:27:15.416Z</time></trkpt><trkpt lat="46.860248766666665" lon="11.476023366666668"><ele>1288.0</ele><time>2026-05-01T13:27:16.399Z</time></trkpt><trkpt lat="46.8603617" lon="11.475868766666666"><ele>1288.0</ele><time>2026-05-01T13:27:17.401Z</time></trkpt><trkpt lat="46.86044216666666" lon="11.475693066666667"><ele>1288.0</ele><time>2026-05-01T13:27:18.412Z</time></trkpt><trkpt lat="46.860500966666656" lon="11.475494716666665"><ele>1288.0</ele><time>2026-05-01T13:27:19.401Z</time></trkpt><trkpt lat="46.860552199999994" lon="11.475268066666667"><ele>1293.0</ele><time>2026-05-01T13:27:20.408Z</time></trkpt><trkpt lat="46.86060476666666" lon="11.475022816666668"><ele>1298.0</ele><time>2026-05-01T13:27:21.415Z</time></trkpt><trkpt lat="46.860656799999994" lon="11.474772116666667"><ele>1303.0</ele><time>2026-05-01T13:27:22.421Z</time></trkpt><trkpt lat="46.86070848333334" lon="11.47452965"><ele>1306.0</ele><time>2026-05-01T13:27:23.401Z</time></trkpt><trkpt lat="46.860755266666665" lon="11.474305433333333"><ele>1309.0</ele><time>2026-05-01T13:27:24.439Z</time></trkpt><trkpt lat="46.860795766666655" lon="11.474111583333334"><ele>1312.0</ele><time>2026-05-01T13:27:25.4Z</time></trkpt><trkpt lat="46.86082561666667" lon="11.473947149999999"><ele>1315.0</ele><time>2026-05-01T13:27:26.421Z</time></trkpt><trkpt lat="46.860828383333335" lon="11.473792683333333"><ele>1311.75</ele><time>2026-05-01T13:27:27.413Z</time></trkpt><trkpt lat="46.86079039999999" lon="11.47363555"><ele>1308.5</ele><time>2026-05-01T13:27:28.415Z</time></trkpt><trkpt lat="46.86072240000001" lon="11.47345985"><ele>1305.25</ele><time>2026-05-01T13:27:29.401Z</time></trkpt><trkpt lat="46.86064423333334" lon="11.473269216666665"><ele>1302.0</ele><time>2026-05-01T13:27:30.412Z</time></trkpt><trkpt lat="46.860569" lon="11.473084866666666"><ele>1296.6</ele><time>2026-05-01T13:27:31.401Z</time></trkpt><trkpt lat="46.86050495" lon="11.472920533333335"><ele>1291.1999999999998</ele><time>2026-05-01T13:27:32.4Z</time></trkpt><trkpt lat="46.86046041666667" lon="11.472771133333334"><ele>1285.8</ele><time>2026-05-01T13:27:33.411Z</time></trkpt><trkpt lat="46.86045253333333" lon="11.472624216666668"><ele>1280.4</ele><time>2026-05-01T13:27:34.402Z</time></trkpt><trkpt lat="46.8604801" lon="11.472493016666665"><ele>1275.0</ele><time>2026-05-01T13:27:35.409Z</time></trkpt><trkpt lat="46.86052970000001" lon="11.472375383333334"><ele>1275.0</ele><time>2026-05-01T13:27:36.419Z</time></trkpt><trkpt lat="46.860580250000005" lon="11.472250016666665"><ele>1275.0</ele><time>2026-05-01T13:27:37.416Z</time></trkpt><trkpt lat="46.86060988333333" lon="11.472118149999998"><ele>1275.0</ele><time>2026-05-01T13:27:38.421Z</time></trkpt><trkpt lat="46.86060368333333" lon="11.471984916666667"><ele>1275.0</ele><time>2026-05-01T13:27:39.413Z</time></trkpt><trkpt lat="46.86055253333334" lon="11.471855833333333"><ele>1275.0</ele><time>2026-05-01T13:27:40.399Z</time></trkpt><trkpt lat="46.860464900000004" lon="11.471729083333333"><ele>1270.5</ele><time>2026-05-01T13:27:41.421Z</time></trkpt><trkpt lat="46.8603637" lon="11.471600166666667"><ele>1266.0</ele><time>2026-05-01T13:27:42.417Z</time></trkpt><trkpt lat="46.86026355000001" lon="11.47148105"><ele>1261.5</ele><time>2026-05-01T13:27:43.416Z</time></trkpt><trkpt lat="46.86018493333333" lon="11.471344283333334"><ele>1257.0</ele><time>2026-05-01T13:27:44.421Z</time></trkpt><trkpt lat="46.86014483333333" lon="11.47116415"><ele>1251.5</ele><time>2026-05-01T13:27:45.415Z</time></trkpt><trkpt lat="46.86012876666667" lon="11.47096895"><ele>1246.0</ele><time>2026-05-01T13:27:46.415Z</time></trkpt><trkpt lat="46.8601104" lon="11.470787183333336"><ele>1240.5</ele><time>2026-05-01T13:27:47.409Z</time></trkpt><trkpt lat="46.86008611245287" lon="11.470611653444745"><ele>1235.0</ele><time>2026-05-01T13:27:48.412Z</time></trkpt><trkpt lat="46.86000896666666" lon="11.470481450000001"><ele>1242.5</ele><time>2026-05-01T13:27:49.399Z</time></trkpt><trkpt lat="46.85994641666666" lon="11.470340033333333"><ele>1250.0</ele><time>2026-05-01T13:27:50.399Z</time></trkpt><trkpt lat="46.85988783333334" lon="11.470185533333332"><ele>1257.5</ele><time>2026-05-01T13:27:51.415Z</time></trkpt><trkpt lat="46.85982144999999" lon="11.470029966666667"><ele>1265.0</ele><time>2026-05-01T13:27:52.419Z</time></trkpt><trkpt lat="46.859742966666666" lon="11.469887566666667"><ele>1265.0</ele><time>2026-05-01T13:27:53.421Z</time></trkpt><trkpt lat="46.8596545" lon="11.469757566666665"><ele>1265.0</ele><time>2026-05-01T13:27:54.421Z</time></trkpt><trkpt lat="46.859569166666674" lon="11.469632133333333"><ele>1265.0</ele><time>2026-05-01T13:27:55.421Z</time></trkpt><trkpt lat="46.85948558333333" lon="11.469504583333332"><ele>1265.0</ele><time>2026-05-01T13:27:56.425Z</time></trkpt><trkpt lat="46.85940963333334" lon="11.469366099999998"><ele>1262.25</ele><time>2026-05-01T13:27:57.413Z</time></trkpt><trkpt lat="46.85933743333333" lon="11.469214299999999"><ele>1259.5</ele><time>2026-05-01T13:27:58.416Z</time></trkpt><trkpt lat="46.859254449999995" lon="11.469041"><ele>1256.75</ele><time>2026-05-01T13:27:59.421Z</time></trkpt><trkpt lat="46.859163" lon="11.468845066666667"><ele>1254.0</ele><time>2026-05-01T13:28:00.415Z</time></trkpt><trkpt lat="46.859070433333336" lon="11.468641300000002"><ele>1254.0</ele><time>2026-05-01T13:28:01.419Z</time></trkpt><trkpt lat="46.85897765" lon="11.468446400000001"><ele>1254.0</ele><time>2026-05-01T13:28:02.4Z</time></trkpt><trkpt lat="46.858882333333334" lon="11.468266266666667"><ele>1254.0</ele><time>2026-05-01T13:28:03.411Z</time></trkpt><trkpt lat="46.85877756666667" lon="11.468102649999999"><ele>1254.0</ele><time>2026-05-01T13:28:04.419Z</time></trkpt><trkpt lat="46.858672316666656" lon="11.467951183333332"><ele>1254.0</ele><time>2026-05-01T13:28:05.415Z</time></trkpt><trkpt lat="46.85857308333334" lon="11.46780588333333"><ele>1254.0</ele><time>2026-05-01T13:28:06.415Z</time></trkpt><trkpt lat="46.85848043333334" lon="11.467659666666668"><ele>1254.0</ele><time>2026-05-01T13:28:07.415Z</time></trkpt><trkpt lat="46.858392450000004" lon="11.467513483333335"><ele>1259.4</ele><time>2026-05-01T13:28:08.401Z</time></trkpt><trkpt lat="46.85831056666665" lon="11.467384833333332"><ele>1264.8000000000002</ele><time>2026-05-01T13:28:09.415Z</time></trkpt><trkpt lat="46.858244833333345" lon="11.467266283333334"><ele>1270.1999999999998</ele><time>2026-05-01T13:28:10.4Z</time></trkpt><trkpt lat="46.858211383333334" lon="11.467135366666666"><ele>1275.6</ele><time>2026-05-01T13:28:11.401Z</time></trkpt><trkpt lat="46.85822015" lon="11.467017883333332"><ele>1281.0</ele><time>2026-05-01T13:28:12.414Z</time></trkpt><trkpt lat="46.85826335" lon="11.466932416666669"><ele>1282.0</ele><time>2026-05-01T13:28:13.415Z</time></trkpt><trkpt lat="46.8583315" lon="11.46687785"><ele>1283.0</ele><time>2026-05-01T13:28:14.415Z</time></trkpt><trkpt lat="46.85842373333333" lon="11.466872133333332"><ele>1284.0</ele><time>2026-05-01T13:28:15.402Z</time></trkpt><trkpt lat="46.8585323" lon="11.466906583333332"><ele>1285.0</ele><time>2026-05-01T13:28:16.402Z</time></trkpt><trkpt lat="46.85865306666667" lon="11.466937316666668"><ele>1286.0</ele><time>2026-05-01T13:28:17.416Z</time></trkpt><trkpt lat="46.85877943333333" lon="11.466937616666668"><ele>1286.0</ele><time>2026-05-01T13:28:18.401Z</time></trkpt><trkpt lat="46.858911400000004" lon="11.466914116666665"><ele>1286.0</ele><time>2026-05-01T13:28:19.402Z</time></trkpt><trkpt lat="46.85904338333333" lon="11.466870100000003"><ele>1286.0</ele><time>2026-05-01T13:28:20.421Z</time></trkpt><trkpt lat="46.85916675000001" lon="11.466823783333332"><ele>1286.0</ele><time>2026-05-01T13:28:21.404Z</time></trkpt><trkpt lat="46.85928065301029" lon="11.466759067779641"><ele>1288.5</ele><time>2026-05-01T13:28:22.402Z</time></trkpt><trkpt lat="46.859405988635395" lon="11.466760479608427"><ele>1291.0</ele><time>2026-05-01T13:28:23.405Z</time></trkpt><trkpt lat="46.859529183333336" lon="11.466814333333332"><ele>1293.5</ele><time>2026-05-01T13:28:24.402Z</time></trkpt><trkpt lat="46.859660366666674" lon="11.466864766666667"><ele>1296.0</ele><time>2026-05-01T13:28:25.4Z</time></trkpt><trkpt lat="46.85980825278437" lon="11.466900739499485"><ele>1296.0</ele><time>2026-05-01T13:28:26.409Z</time></trkpt><trkpt lat="46.85996586881448" lon="11.466961153662673"><ele>1296.0</ele><time>2026-05-01T13:28:27.401Z</time></trkpt><trkpt lat="46.86012404142195" lon="11.467025240267564"><ele>1296.0</ele><time>2026-05-01T13:28:28.401Z</time></trkpt><trkpt lat="46.8602826882938" lon="11.467064012853129"><ele>1281.25</ele><time>2026-05-01T13:28:29.41Z</time></trkpt><trkpt lat="46.86043163326309" lon="11.467138337187277"><ele>1266.5</ele><time>2026-05-01T13:28:30.402Z</time></trkpt><trkpt lat="46.860569709691674" lon="11.467224960517393"><ele>1251.75</ele><time>2026-05-01T13:28:31.402Z</time></trkpt><trkpt lat="46.860702437180706" lon="11.467293583597693"><ele>1237.0</ele><time>2026-05-01T13:28:32.419Z</time></trkpt><trkpt lat="46.86084618910658" lon="11.467344419801163"><ele>1236.0</ele><time>2026-05-01T13:28:33.4Z</time></trkpt><trkpt lat="46.86097377548121" lon="11.467453832576336"><ele>1235.0</ele><time>2026-05-01T13:28:34.4Z</time></trkpt><trkpt lat="46.86108570253094" lon="11.46756273656975"><ele>1234.0</ele><time>2026-05-01T13:28:35.409Z</time></trkpt><trkpt lat="46.86118966767047" lon="11.467644932848186"><ele>1233.0</ele><time>2026-05-01T13:28:36.4Z</time></trkpt><trkpt lat="46.8612827" lon="11.467662846663519"><ele>1233.0</ele><time>2026-05-01T13:28:37.403Z</time></trkpt><trkpt lat="46.861383336935724" lon="11.467640697357579"><ele>1233.0</ele><time>2026-05-01T13:28:38.41Z</time></trkpt><trkpt lat="46.861519784458096" lon="11.467610151834949"><ele>1233.0</ele><time>2026-05-01T13:28:39.4Z</time></trkpt><trkpt lat="46.86164524072771" lon="11.467672016503668"><ele>1233.0</ele><time>2026-05-01T13:28:40.4Z</time></trkpt><trkpt lat="46.86177333699943" lon="11.467738425723628"><ele>1228.25</ele><time>2026-05-01T13:28:41.417Z</time></trkpt><trkpt lat="46.86190237277535" lon="11.4677878620598"><ele>1223.5</ele><time>2026-05-01T13:28:42.402Z</time></trkpt><trkpt lat="46.862026024124965" lon="11.467817720672915"><ele>1218.75</ele><time>2026-05-01T13:28:43.402Z</time></trkpt><trkpt lat="46.862140509543785" lon="11.467840052230342"><ele>1214.0</ele><time>2026-05-01T13:28:44.409Z</time></trkpt><trkpt lat="46.862237983333344" lon="11.467847956993108"><ele>1214.0</ele><time>2026-05-01T13:28:45.402Z</time></trkpt><trkpt lat="46.86232734363678" lon="11.467831203707112"><ele>1214.0</ele><time>2026-05-01T13:28:46.415Z</time></trkpt><trkpt lat="46.86241185000001" lon="11.467751683333331"><ele>1214.0</ele><time>2026-05-01T13:28:47.413Z</time></trkpt><trkpt lat="46.86246845000001" lon="11.467602050000002"><ele>1214.0</ele><time>2026-05-01T13:28:48.402Z</time></trkpt><trkpt lat="46.86250885" lon="11.467409750000002"><ele>1214.0</ele><time>2026-05-01T13:28:49.402Z</time></trkpt><trkpt lat="46.86254126666666" lon="11.46718515"><ele>1214.3333333333335</ele><time>2026-05-01T13:28:50.415Z</time></trkpt><trkpt lat="46.86256593333332" lon="11.466936283333334"><ele>1214.6666666666667</ele><time>2026-05-01T13:28:51.402Z</time></trkpt><trkpt lat="46.86259155" lon="11.466684750000002"><ele>1215.0</ele><time>2026-05-01T13:28:52.417Z</time></trkpt><trkpt lat="46.862618966666666" lon="11.4664445"><ele>1204.0</ele><time>2026-05-01T13:28:53.414Z</time></trkpt><trkpt lat="46.862654883333335" lon="11.466221449999999"><ele>1193.0</ele><time>2026-05-01T13:28:54.402Z</time></trkpt><trkpt lat="46.86270093333333" lon="11.466010566666668"><ele>1182.0</ele><time>2026-05-01T13:28:55.409Z</time></trkpt><trkpt lat="46.86275591666667" lon="11.465809149999998"><ele>1182.0</ele><time>2026-05-01T13:28:56.409Z</time></trkpt><trkpt lat="46.862815649999995" lon="11.465617449999998"><ele>1182.0</ele><time>2026-05-01T13:28:57.4Z</time></trkpt><trkpt lat="46.86287938333333" lon="11.465431066666667"><ele>1182.0</ele><time>2026-05-01T13:28:58.401Z</time></trkpt><trkpt lat="46.862940983333324" lon="11.465246633333335"><ele>1182.0</ele><time>2026-05-01T13:28:59.41Z</time></trkpt><trkpt lat="46.86300405" lon="11.465063116666666"><ele>1181.75</ele><time>2026-05-01T13:29:00.43Z</time></trkpt><trkpt lat="46.86306355" lon="11.464884033333332"><ele>1181.5</ele><time>2026-05-01T13:29:01.402Z</time></trkpt><trkpt lat="46.863105049999994" lon="11.464712383333332"><ele>1181.25</ele><time>2026-05-01T13:29:02.414Z</time></trkpt><trkpt lat="46.86310736666666" lon="11.464542666666667"><ele>1181.0</ele><time>2026-05-01T13:29:03.402Z</time></trkpt><trkpt lat="46.86307126666667" lon="11.464370666666666"><ele>1180.25</ele><time>2026-05-01T13:29:04.405Z</time></trkpt><trkpt lat="46.86302706666667" lon="11.464186999999999"><ele>1179.5</ele><time>2026-05-01T13:29:05.412Z</time></trkpt><trkpt lat="46.86300148333333" lon="11.463980516666666"><ele>1178.75</ele><time>2026-05-01T13:29:06.4Z</time></trkpt><trkpt lat="46.8630149" lon="11.463760633333333"><ele>1178.0</ele><time>2026-05-01T13:29:07.4Z</time></trkpt><trkpt lat="46.86305728333333" lon="11.463544166666669"><ele>1177.0</ele><time>2026-05-01T13:29:08.413Z</time></trkpt><trkpt lat="46.863103450000004" lon="11.463337216666666"><ele>1176.0</ele><time>2026-05-01T13:29:09.401Z</time></trkpt><trkpt lat="46.86313755" lon="11.463134283333334"><ele>1175.0</ele><time>2026-05-01T13:29:10.41Z</time></trkpt><trkpt lat="46.86315778333332" lon="11.462930666666667"><ele>1174.0</ele><time>2026-05-01T13:29:11.409Z</time></trkpt><trkpt lat="46.86318528333333" lon="11.462732833333332"><ele>1174.0</ele><time>2026-05-01T13:29:12.403Z</time></trkpt><trkpt lat="46.86323113333333" lon="11.462534266666667"><ele>1174.0</ele><time>2026-05-01T13:29:13.405Z</time></trkpt><trkpt lat="46.86329260000001" lon="11.462331983333335"><ele>1174.0</ele><time>2026-05-01T13:29:14.409Z</time></trkpt><trkpt lat="46.86337063333333" lon="11.462124783333335"><ele>1165.0</ele><time>2026-05-01T13:29:15.402Z</time></trkpt><trkpt lat="46.86347261666666" lon="11.461914783333334"><ele>1156.0</ele><time>2026-05-01T13:29:16.401Z</time></trkpt><trkpt lat="46.86359146666667" lon="11.461722833333333"><ele>1147.0</ele><time>2026-05-01T13:29:17.412Z</time></trkpt><trkpt lat="46.86371075" lon="11.461539833333331"><ele>1147.0</ele><time>2026-05-01T13:29:18.402Z</time></trkpt><trkpt lat="46.8638212" lon="11.461358849999998"><ele>1147.0</ele><time>2026-05-01T13:29:19.403Z</time></trkpt><trkpt lat="46.86391355000001" lon="11.461194716666666"><ele>1147.0</ele><time>2026-05-01T13:29:20.415Z</time></trkpt><trkpt lat="46.863997866666665" lon="11.461051750000001"><ele>1147.0</ele><time>2026-05-01T13:29:21.402Z</time></trkpt><trkpt lat="46.86409631666667" lon="11.460947533333334"><ele>1150.2</ele><time>2026-05-01T13:29:22.405Z</time></trkpt><trkpt lat="46.86420216666667" lon="11.460897949999998"><ele>1153.4</ele><time>2026-05-01T13:29:23.409Z</time></trkpt><trkpt lat="46.86431303333333" lon="11.460900533333332"><ele>1156.6</ele><time>2026-05-01T13:29:24.4Z</time></trkpt><trkpt lat="46.864426" lon="11.460909583333333"><ele>1159.8</ele><time>2026-05-01T13:29:25.401Z</time></trkpt><trkpt lat="46.86452773333334" lon="11.4608644"><ele>1163.0</ele><time>2026-05-01T13:29:26.409Z</time></trkpt><trkpt lat="46.86460543333333" lon="11.46075975"><ele>1155.0</ele><time>2026-05-01T13:29:27.403Z</time></trkpt><trkpt lat="46.864632328579496" lon="11.460593920237919"><ele>1147.0</ele><time>2026-05-01T13:29:28.403Z</time></trkpt><trkpt lat="46.86467332632656" lon="11.460415108721822"><ele>1139.0</ele><time>2026-05-01T13:29:29.409Z</time></trkpt><trkpt lat="46.86471370784776" lon="11.460229798847209"><ele>1131.0</ele><time>2026-05-01T13:29:30.405Z</time></trkpt><trkpt lat="46.86476675000001" lon="11.460050249999998"><ele>1131.0</ele><time>2026-05-01T13:29:31.404Z</time></trkpt><trkpt lat="46.864808800000006" lon="11.459871833333333"><ele>1131.0</ele><time>2026-05-01T13:29:32.423Z</time></trkpt><trkpt lat="46.86487023333334" lon="11.459712000000001"><ele>1131.0</ele><time>2026-05-01T13:29:33.403Z</time></trkpt><trkpt lat="46.8649615" lon="11.459600733333332"><ele>1131.0</ele><time>2026-05-01T13:29:34.403Z</time></trkpt><trkpt lat="46.86507336666667" lon="11.459553766666666"><ele>1125.5</ele><time>2026-05-01T13:29:35.416Z</time></trkpt><trkpt lat="46.86519563333333" lon="11.459534466666666"><ele>1120.0</ele><time>2026-05-01T13:29:36.401Z</time></trkpt><trkpt lat="46.865321916666666" lon="11.459511516666664"><ele>1114.5</ele><time>2026-05-01T13:29:37.402Z</time></trkpt><trkpt lat="46.86544895000001" lon="11.459475650000002"><ele>1109.0</ele><time>2026-05-01T13:29:38.409Z</time></trkpt><trkpt lat="46.865565649999986" lon="11.45940285"><ele>1109.0</ele><time>2026-05-01T13:29:39.403Z</time></trkpt><trkpt lat="46.865669583333336" lon="11.459284416666666"><ele>1109.0</ele><time>2026-05-01T13:29:40.412Z</time></trkpt><trkpt lat="46.8657652" lon="11.459127433333334"><ele>1109.0</ele><time>2026-05-01T13:29:41.404Z</time></trkpt><trkpt lat="46.86586126666666" lon="11.458952366666665"><ele>1109.0</ele><time>2026-05-01T13:29:42.4Z</time></trkpt><trkpt lat="46.86595881666667" lon="11.458783483333333"><ele>1104.75</ele><time>2026-05-01T13:29:43.402Z</time></trkpt><trkpt lat="46.86605653333333" lon="11.458620299999998"><ele>1100.5</ele><time>2026-05-01T13:29:44.409Z</time></trkpt><trkpt lat="46.86614971666666" lon="11.458458066666667"><ele>1096.25</ele><time>2026-05-01T13:29:45.403Z</time></trkpt><trkpt lat="46.866225666666665" lon="11.458286216666666"><ele>1092.0</ele><time>2026-05-01T13:29:46.405Z</time></trkpt><trkpt lat="46.86627683333333" lon="11.458100716666667"><ele>1094.0</ele><time>2026-05-01T13:29:47.413Z</time></trkpt><trkpt lat="46.866322049999994" lon="11.457913233333333"><ele>1096.0</ele><time>2026-05-01T13:29:48.403Z</time></trkpt><trkpt lat="46.86637333333333" lon="11.457733716666667"><ele>1098.0</ele><time>2026-05-01T13:29:49.401Z</time></trkpt><trkpt lat="46.866440133333334" lon="11.457571566666665"><ele>1100.0</ele><time>2026-05-01T13:29:50.418Z</time></trkpt><trkpt lat="46.866515250000006" lon="11.457429133333335"><ele>1100.0</ele><time>2026-05-01T13:29:51.402Z</time></trkpt><trkpt lat="46.86658681666666" lon="11.457310133333332"><ele>1100.0</ele><time>2026-05-01T13:29:52.403Z</time></trkpt><trkpt lat="46.866644583333326" lon="11.4571997"><ele>1100.0</ele><time>2026-05-01T13:29:53.411Z</time></trkpt><trkpt lat="46.86667163333333" lon="11.457080150000001"><ele>1100.0</ele><time>2026-05-01T13:29:54.401Z</time></trkpt><trkpt lat="46.86666408333334" lon="11.45695925"><ele>1100.0</ele><time>2026-05-01T13:29:55.401Z</time></trkpt><trkpt lat="46.86664835" lon="11.456835966666665"><ele>1105.4</ele><time>2026-05-01T13:29:56.411Z</time></trkpt><trkpt lat="46.866651583333336" lon="11.456713999999998"><ele>1110.8</ele><time>2026-05-01T13:29:57.403Z</time></trkpt><trkpt lat="46.86669318333334" lon="11.456614666666667"><ele>1116.2</ele><time>2026-05-01T13:29:58.403Z</time></trkpt><trkpt lat="46.866768699999994" lon="11.456542766666667"><ele>1121.6</ele><time>2026-05-01T13:29:59.405Z</time></trkpt><trkpt lat="46.86685893333333" lon="11.45649073333333"><ele>1127.0</ele><time>2026-05-01T13:30:00.403Z</time></trkpt><trkpt lat="46.86695888333334" lon="11.456458566666667"><ele>1113.6</ele><time>2026-05-01T13:30:01.403Z</time></trkpt><trkpt lat="46.86706886666666" lon="11.4564525"><ele>1100.2</ele><time>2026-05-01T13:30:02.413Z</time></trkpt><trkpt lat="46.86718375" lon="11.456466716666666"><ele>1086.8</ele><time>2026-05-01T13:30:03.404Z</time></trkpt><trkpt lat="46.867293933333336" lon="11.456471083333335"><ele>1073.4</ele><time>2026-05-01T13:30:04.414Z</time></trkpt><trkpt lat="46.867388299999995" lon="11.456447216666666"><ele>1060.0</ele><time>2026-05-01T13:30:05.409Z</time></trkpt><trkpt lat="46.86745895000001" lon="11.4563806"><ele>1065.2</ele><time>2026-05-01T13:30:06.405Z</time></trkpt><trkpt lat="46.867501350000005" lon="11.456272983333335"><ele>1070.4</ele><time>2026-05-01T13:30:07.403Z</time></trkpt><trkpt lat="46.86752388333333" lon="11.456136033333332"><ele>1075.6</ele><time>2026-05-01T13:30:08.4Z</time></trkpt><trkpt lat="46.86754129999999" lon="11.455973333333333"><ele>1080.8</ele><time>2026-05-01T13:30:09.403Z</time></trkpt><trkpt lat="46.867561466666665" lon="11.455803966666666"><ele>1086.0</ele><time>2026-05-01T13:30:10.414Z</time></trkpt><trkpt lat="46.86757233333333" lon="11.455632833333334"><ele>1086.0</ele><time>2026-05-01T13:30:11.409Z</time></trkpt><trkpt lat="46.86757115" lon="11.455456916666666"><ele>1086.0</ele><time>2026-05-01T13:30:12.403Z</time></trkpt><trkpt lat="46.86757718333333" lon="11.455296183333333"><ele>1086.0</ele><time>2026-05-01T13:30:13.4Z</time></trkpt><trkpt lat="46.86761228333333" lon="11.455165833333334"><ele>1086.0</ele><time>2026-05-01T13:30:14.408Z</time></trkpt><trkpt lat="46.867678766666664" lon="11.455061733333332"><ele>1086.0</ele><time>2026-05-01T13:30:15.401Z</time></trkpt><trkpt lat="46.86777458503464" lon="11.455038360514322"><ele>1086.0</ele><time>2026-05-01T13:30:16.404Z</time></trkpt><trkpt lat="46.86788456982763" lon="11.455043393571954"><ele>1086.0</ele><time>2026-05-01T13:30:17.422Z</time></trkpt><trkpt lat="46.8680036664529" lon="11.45507791863601"><ele>1086.0</ele><time>2026-05-01T13:30:18.403Z</time></trkpt><trkpt lat="46.868117752529166" lon="11.455144533938453"><ele>1086.0</ele><time>2026-05-01T13:30:19.403Z</time></trkpt><trkpt lat="46.86822459542167" lon="11.455225736865277"><ele>1086.0</ele><time>2026-05-01T13:30:20.416Z</time></trkpt><trkpt lat="46.86832483114004" lon="11.4552991236789"><ele>1086.0</ele><time>2026-05-01T13:30:21.403Z</time></trkpt><trkpt lat="46.86842249346977" lon="11.45535831259883"><ele>1086.0</ele><time>2026-05-01T13:30:22.411Z</time></trkpt><trkpt lat="46.86854257585409" lon="11.45534767368293"><ele>1086.0</ele><time>2026-05-01T13:30:23.41Z</time></trkpt><trkpt lat="46.86864147608517" lon="11.455268825457996"><ele>1074.5</ele><time>2026-05-01T13:30:24.404Z</time></trkpt><trkpt lat="46.86872596016046" lon="11.455165548611907"><ele>1063.0</ele><time>2026-05-01T13:30:25.403Z</time></trkpt><trkpt lat="46.8687981" lon="11.455035100000003"><ele>1051.5</ele><time>2026-05-01T13:30:26.418Z</time></trkpt><trkpt lat="46.868888649999995" lon="11.45490315"><ele>1040.0</ele><time>2026-05-01T13:30:27.401Z</time></trkpt><trkpt lat="46.868980616666676" lon="11.454765966666665"><ele>1031.75</ele><time>2026-05-01T13:30:28.403Z</time></trkpt><trkpt lat="46.86907646666666" lon="11.454611683333333"><ele>1023.5</ele><time>2026-05-01T13:30:29.42Z</time></trkpt><trkpt lat="46.8691739" lon="11.45445685"><ele>1015.25</ele><time>2026-05-01T13:30:30.403Z</time></trkpt><trkpt lat="46.86926816666667" lon="11.454315066666666"><ele>1007.0</ele><time>2026-05-01T13:30:31.408Z</time></trkpt><trkpt lat="46.86935616666666" lon="11.454174049999997"><ele>1007.0</ele><time>2026-05-01T13:30:32.416Z</time></trkpt><trkpt lat="46.86944690000001" lon="11.454041949999997"><ele>1007.0</ele><time>2026-05-01T13:30:33.402Z</time></trkpt><trkpt lat="46.869537266666676" lon="11.453913599999998"><ele>1007.0</ele><time>2026-05-01T13:30:34.407Z</time></trkpt><trkpt lat="46.869628633333335" lon="11.453794100000001"><ele>1007.0</ele><time>2026-05-01T13:30:35.41Z</time></trkpt><trkpt lat="46.86971386666668" lon="11.453672466666667"><ele>1014.25</ele><time>2026-05-01T13:30:36.43Z</time></trkpt><trkpt lat="46.86979034999999" lon="11.453526316666666"><ele>1021.5</ele><time>2026-05-01T13:30:37.403Z</time></trkpt><trkpt lat="46.86986220000001" lon="11.453353366666667"><ele>1028.75</ele><time>2026-05-01T13:30:38.41Z</time></trkpt><trkpt lat="46.86993223333334" lon="11.4531659"><ele>1036.0</ele><time>2026-05-01T13:30:39.403Z</time></trkpt><trkpt lat="46.8700126" lon="11.452962433333335"><ele>1042.3333333333333</ele><time>2026-05-01T13:30:40.412Z</time></trkpt><trkpt lat="46.870101049999995" lon="11.452742966666666"><ele>1048.6666666666667</ele><time>2026-05-01T13:30:41.41Z</time></trkpt><trkpt lat="46.87018821666667" lon="11.452515033333336"><ele>1055.0</ele><time>2026-05-01T13:30:42.402Z</time></trkpt><trkpt lat="46.87026806666666" lon="11.452281616666667"><ele>1040.6666666666667</ele><time>2026-05-01T13:30:43.404Z</time></trkpt><trkpt lat="46.87034276666666" lon="11.45204915"><ele>1026.3333333333333</ele><time>2026-05-01T13:30:44.411Z</time></trkpt><trkpt lat="46.87042633333334" lon="11.451838500000001"><ele>1012.0</ele><time>2026-05-01T13:30:45.403Z</time></trkpt><trkpt lat="46.87050666666667" lon="11.451638633333333"><ele>1012.0</ele><time>2026-05-01T13:30:46.402Z</time></trkpt><trkpt lat="46.87057421666667" lon="11.451427116666665"><ele>1012.0</ele><time>2026-05-01T13:30:47.414Z</time></trkpt><trkpt lat="46.870644" lon="11.451210366666665"><ele>1012.0</ele><time>2026-05-01T13:30:48.401Z</time></trkpt><trkpt lat="46.870730566666666" lon="11.451002566666666"><ele>1017.6666666666666</ele><time>2026-05-01T13:30:49.414Z</time></trkpt><trkpt lat="46.870832633333336" lon="11.450798316666665"><ele>1023.3333333333333</ele><time>2026-05-01T13:30:50.412Z</time></trkpt><trkpt lat="46.87093320000001" lon="11.450597216666665"><ele>1029.0</ele><time>2026-05-01T13:30:51.4Z</time></trkpt><trkpt lat="46.87103691666666" lon="11.450408433333333"><ele>1016.0</ele><time>2026-05-01T13:30:52.401Z</time></trkpt><trkpt lat="46.8711397" lon="11.450227133333332"><ele>1003.0</ele><time>2026-05-01T13:30:53.412Z</time></trkpt><trkpt lat="46.87122541666666" lon="11.450031349999998"><ele>990.0</ele><time>2026-05-01T13:30:54.403Z</time></trkpt><trkpt lat="46.87129141666666" lon="11.449805266666667"><ele>992.0</ele><time>2026-05-01T13:30:55.404Z</time></trkpt><trkpt lat="46.871348016666666" lon="11.449546916666668"><ele>994.0</ele><time>2026-05-01T13:30:56.408Z</time></trkpt><trkpt lat="46.87140618333333" lon="11.449270149999998"><ele>996.0</ele><time>2026-05-01T13:30:57.401Z</time></trkpt><trkpt lat="46.871465533333335" lon="11.448993733333335"><ele>995.0</ele><time>2026-05-01T13:30:58.402Z</time></trkpt><trkpt lat="46.87152006666667" lon="11.448725333333334"><ele>994.0</ele><time>2026-05-01T13:30:59.409Z</time></trkpt><trkpt lat="46.87157265000001" lon="11.448467383333332"><ele>993.0</ele><time>2026-05-01T13:31:00.403Z</time></trkpt><trkpt lat="46.87162494999999" lon="11.44821903333333"><ele>993.0</ele><time>2026-05-01T13:31:01.403Z</time></trkpt><trkpt lat="46.871682250000006" lon="11.447980833333332"><ele>993.0</ele><time>2026-05-01T13:31:02.413Z</time></trkpt><trkpt lat="46.87175189999999" lon="11.447747183333334"><ele>993.0</ele><time>2026-05-01T13:31:03.403Z</time></trkpt><trkpt lat="46.87183751666666" lon="11.4475106"><ele>988.0</ele><time>2026-05-01T13:31:04.403Z</time></trkpt><trkpt lat="46.87193561666666" lon="11.447269233333333"><ele>983.0</ele><time>2026-05-01T13:31:05.409Z</time></trkpt><trkpt lat="46.87204405000001" lon="11.447018916666664"><ele>978.0</ele><time>2026-05-01T13:31:06.41Z</time></trkpt><trkpt lat="46.87216481666666" lon="11.446776666666665"><ele>978.0</ele><time>2026-05-01T13:31:07.401Z</time></trkpt><trkpt lat="46.87231058976807" lon="11.446573650902497"><ele>978.0</ele><time>2026-05-01T13:31:08.426Z</time></trkpt><trkpt lat="46.872448099900595" lon="11.446378425673242"><ele>978.0</ele><time>2026-05-01T13:31:09.404Z</time></trkpt><trkpt lat="46.87258113119599" lon="11.446191717076143"><ele>975.3333333333333</ele><time>2026-05-01T13:31:10.403Z</time></trkpt><trkpt lat="46.87270382663841" lon="11.446019514660978"><ele>972.6666666666666</ele><time>2026-05-01T13:31:11.412Z</time></trkpt><trkpt lat="46.872812800000005" lon="11.445843366666669"><ele>970.0</ele><time>2026-05-01T13:31:12.402Z</time></trkpt><trkpt lat="46.8729263" lon="11.445687116666665"><ele>970.0</ele><time>2026-05-01T13:31:13.403Z</time></trkpt><trkpt lat="46.87303208333333" lon="11.4455423"><ele>970.0</ele><time>2026-05-01T13:31:14.411Z</time></trkpt><trkpt lat="46.87314533073026" lon="11.445404793563759"><ele>970.0</ele><time>2026-05-01T13:31:15.403Z</time></trkpt><trkpt lat="46.873221422234515" lon="11.44521562309101"><ele>970.0</ele><time>2026-05-01T13:31:16.404Z</time></trkpt><trkpt lat="46.87326173552185" lon="11.44501372832362"><ele>971.0</ele><time>2026-05-01T13:31:17.416Z</time></trkpt><trkpt lat="46.87327865000001" lon="11.44480766666667"><ele>972.0</ele><time>2026-05-01T13:31:18.401Z</time></trkpt><trkpt lat="46.87330982449082" lon="11.444605365284996"><ele>973.0</ele><time>2026-05-01T13:31:19.403Z</time></trkpt><trkpt lat="46.87329561412054" lon="11.444396609789585"><ele>974.0</ele><time>2026-05-01T13:31:20.412Z</time></trkpt><trkpt lat="46.87325438333334" lon="11.444180033333335"><ele>974.0</ele><time>2026-05-01T13:31:21.403Z</time></trkpt><trkpt lat="46.87325751666667" lon="11.443942466666666"><ele>974.0</ele><time>2026-05-01T13:31:22.401Z</time></trkpt><trkpt lat="46.87329355" lon="11.443712750000001"><ele>974.0</ele><time>2026-05-01T13:31:23.41Z</time></trkpt><trkpt lat="46.8733394" lon="11.443492633333335"><ele>971.25</ele><time>2026-05-01T13:31:24.406Z</time></trkpt><trkpt lat="46.87339073333333" lon="11.44328545"><ele>968.5</ele><time>2026-05-01T13:31:25.403Z</time></trkpt><trkpt lat="46.87346441666667" lon="11.443098333333333"><ele>965.75</ele><time>2026-05-01T13:31:26.418Z</time></trkpt><trkpt lat="46.87357386666666" lon="11.442945933333332"><ele>963.0</ele><time>2026-05-01T13:31:27.406Z</time></trkpt><trkpt lat="46.87371395" lon="11.442838433333336"><ele>971.0</ele><time>2026-05-01T13:31:28.401Z</time></trkpt><trkpt lat="46.87387278333334" lon="11.44276735"><ele>979.0</ele><time>2026-05-01T13:31:29.41Z</time></trkpt><trkpt lat="46.87403810000001" lon="11.442708433333333"><ele>987.0</ele><time>2026-05-01T13:31:30.402Z</time></trkpt><trkpt lat="46.874199950000005" lon="11.442648383333333"><ele>978.3333333333333</ele><time>2026-05-01T13:31:31.404Z</time></trkpt><trkpt lat="46.87435528333334" lon="11.442573116666665"><ele>969.6666666666666</ele><time>2026-05-01T13:31:32.414Z</time></trkpt><trkpt lat="46.874507316666666" lon="11.442471350000002"><ele>961.0</ele><time>2026-05-01T13:31:33.403Z</time></trkpt><trkpt lat="46.87465883333333" lon="11.442348699999998"><ele>961.0</ele><time>2026-05-01T13:31:34.403Z</time></trkpt><trkpt lat="46.87480071666668" lon="11.442215266666665"><ele>961.0</ele><time>2026-05-01T13:31:35.407Z</time></trkpt><trkpt lat="46.8749272" lon="11.442063733333335"><ele>961.0</ele><time>2026-05-01T13:31:36.403Z</time></trkpt><trkpt lat="46.875032499999996" lon="11.441882833333333"><ele>959.0</ele><time>2026-05-01T13:31:37.403Z</time></trkpt><trkpt lat="46.87512826666666" lon="11.441676366666664"><ele>957.0</ele><time>2026-05-01T13:31:38.402Z</time></trkpt><trkpt lat="46.87522976666667" lon="11.441469666666668"><ele>955.0</ele><time>2026-05-01T13:31:39.402Z</time></trkpt><trkpt lat="46.875345833333334" lon="11.441289166666666"><ele>964.3333333333333</ele><time>2026-05-01T13:31:40.416Z</time></trkpt><trkpt lat="46.87547998333333" lon="11.44117141666667"><ele>973.6666666666667</ele><time>2026-05-01T13:31:41.409Z</time></trkpt><trkpt lat="46.87562548333334" lon="11.441115716666665"><ele>983.0</ele><time>2026-05-01T13:31:42.401Z</time></trkpt><trkpt lat="46.87577206666666" lon="11.441107883333332"><ele>983.0</ele><time>2026-05-01T13:31:43.41Z</time></trkpt><trkpt lat="46.87591538333332" lon="11.441129733333332"><ele>983.0</ele><time>2026-05-01T13:31:44.412Z</time></trkpt><trkpt lat="46.87604276666666" lon="11.441123333333334"><ele>983.0</ele><time>2026-05-01T13:31:45.403Z</time></trkpt><trkpt lat="46.876147083333336" lon="11.441049083333334"><ele>983.0</ele><time>2026-05-01T13:31:46.403Z</time></trkpt><trkpt lat="46.87623668333334" lon="11.44091915"><ele>974.3333333333334</ele><time>2026-05-01T13:31:47.417Z</time></trkpt><trkpt lat="46.87632085" lon="11.440749149999998"><ele>965.6666666666667</ele><time>2026-05-01T13:31:48.403Z</time></trkpt><trkpt lat="46.87640411666666" lon="11.440554216666666"><ele>957.0</ele><time>2026-05-01T13:31:49.406Z</time></trkpt><trkpt lat="46.87648588333333" lon="11.440344933333332"><ele>957.0</ele><time>2026-05-01T13:31:50.41Z</time></trkpt><trkpt lat="46.8765663" lon="11.440117883333334"><ele>957.0</ele><time>2026-05-01T13:31:51.405Z</time></trkpt><trkpt lat="46.87664615" lon="11.439871716666667"><ele>957.0</ele><time>2026-05-01T13:31:52.403Z</time></trkpt><trkpt lat="46.876733349999995" lon="11.439617416666666"><ele>953.3333333333333</ele><time>2026-05-01T13:31:53.401Z</time></trkpt><trkpt lat="46.876838283333335" lon="11.439381883333331"><ele>949.6666666666666</ele><time>2026-05-01T13:31:54.404Z</time></trkpt><trkpt lat="46.8769597" lon="11.439184799999998"><ele>946.0</ele><time>2026-05-01T13:31:55.403Z</time></trkpt><trkpt lat="46.877093483333326" lon="11.439026516666669"><ele>946.0</ele><time>2026-05-01T13:31:56.409Z</time></trkpt><trkpt lat="46.87722816666666" lon="11.4388926"><ele>946.0</ele><time>2026-05-01T13:31:57.402Z</time></trkpt><trkpt lat="46.87734716666667" lon="11.438751016666668"><ele>946.0</ele><time>2026-05-01T13:31:58.413Z</time></trkpt><trkpt lat="46.87743433333333" lon="11.43857985"><ele>946.0</ele><time>2026-05-01T13:31:59.413Z</time></trkpt><trkpt lat="46.87750933333333" lon="11.43839545"><ele>946.0</ele><time>2026-05-01T13:32:00.403Z</time></trkpt><trkpt lat="46.877596700000005" lon="11.438220133333335"><ele>946.0</ele><time>2026-05-01T13:32:01.403Z</time></trkpt><trkpt lat="46.87768661666667" lon="11.438057083333335"><ele>946.0</ele><time>2026-05-01T13:32:02.417Z</time></trkpt><trkpt lat="46.877782716666665" lon="11.437908450000002"><ele>946.0</ele><time>2026-05-01T13:32:03.403Z</time></trkpt><trkpt lat="46.87787913333334" lon="11.437760033333333"><ele>946.0</ele><time>2026-05-01T13:32:04.412Z</time></trkpt><trkpt lat="46.8779706" lon="11.437601783333333"><ele>946.0</ele><time>2026-05-01T13:32:05.41Z</time></trkpt><trkpt lat="46.878059050000005" lon="11.437448099999997"><ele>946.0</ele><time>2026-05-01T13:32:06.403Z</time></trkpt><trkpt lat="46.87812671666667" lon="11.43727975"><ele>950.5</ele><time>2026-05-01T13:32:07.41Z</time></trkpt><trkpt lat="46.87817749999999" lon="11.437097416666665"><ele>955.0</ele><time>2026-05-01T13:32:08.41Z</time></trkpt><trkpt lat="46.87823381666667" lon="11.436928866666664"><ele>959.5</ele><time>2026-05-01T13:32:09.401Z</time></trkpt><trkpt lat="46.878314233333334" lon="11.436780516666667"><ele>964.0</ele><time>2026-05-01T13:32:10.405Z</time></trkpt><trkpt lat="46.87842366666667" lon="11.436676699999998"><ele>960.0</ele><time>2026-05-01T13:32:11.413Z</time></trkpt><trkpt lat="46.87854686666667" lon="11.436599616666669"><ele>956.0</ele><time>2026-05-01T13:32:12.428Z</time></trkpt><trkpt lat="46.87867293333334" lon="11.436515016666666"><ele>952.0</ele><time>2026-05-01T13:32:13.403Z</time></trkpt><trkpt lat="46.878787133333326" lon="11.436414749999997"><ele>948.0</ele><time>2026-05-01T13:32:14.412Z</time></trkpt><trkpt lat="46.87888725" lon="11.4362964"><ele>948.0</ele><time>2026-05-01T13:32:15.403Z</time></trkpt><trkpt lat="46.87897970000001" lon="11.436161033333333"><ele>948.0</ele><time>2026-05-01T13:32:16.412Z</time></trkpt><trkpt lat="46.87907035" lon="11.436009683333335"><ele>948.0</ele><time>2026-05-01T13:32:17.413Z</time></trkpt><trkpt lat="46.87916045000001" lon="11.435848"><ele>948.0</ele><time>2026-05-01T13:32:18.403Z</time></trkpt><trkpt lat="46.87924841666666" lon="11.435676899999999"><ele>946.6666666666667</ele><time>2026-05-01T13:32:19.403Z</time></trkpt><trkpt lat="46.87933713333334" lon="11.435500283333333"><ele>945.3333333333334</ele><time>2026-05-01T13:32:20.415Z</time></trkpt><trkpt lat="46.879433066666664" lon="11.435326816666668"><ele>944.0</ele><time>2026-05-01T13:32:21.402Z</time></trkpt><trkpt lat="46.87954303333333" lon="11.435167899999998"><ele>944.0</ele><time>2026-05-01T13:32:22.403Z</time></trkpt><trkpt lat="46.87966823333333" lon="11.435033700000002"><ele>944.0</ele><time>2026-05-01T13:32:23.412Z</time></trkpt><trkpt lat="46.87980434999999" lon="11.434917016666667"><ele>944.0</ele><time>2026-05-01T13:32:24.401Z</time></trkpt><trkpt lat="46.87993558333333" lon="11.4347966"><ele>944.0</ele><time>2026-05-01T13:32:25.41Z</time></trkpt><trkpt lat="46.88004689999999" lon="11.434656766666667"><ele>944.0</ele><time>2026-05-01T13:32:26.41Z</time></trkpt><trkpt lat="46.88013365" lon="11.434493833333333"><ele>944.0</ele><time>2026-05-01T13:32:27.405Z</time></trkpt><trkpt lat="46.88020451666666" lon="11.434322383333331"><ele>944.0</ele><time>2026-05-01T13:32:28.403Z</time></trkpt><trkpt lat="46.880272749999996" lon="11.434154416666669"><ele>944.0</ele><time>2026-05-01T13:32:29.41Z</time></trkpt><trkpt lat="46.88035061666666" lon="11.433995683333334"><ele>944.0</ele><time>2026-05-01T13:32:30.403Z</time></trkpt><trkpt lat="46.88043616666667" lon="11.433848566666667"><ele>944.0</ele><time>2026-05-01T13:32:31.404Z</time></trkpt><trkpt lat="46.88051201666667" lon="11.433685516666667"><ele>944.0</ele><time>2026-05-01T13:32:32.411Z</time></trkpt><trkpt lat="46.88056746666666" lon="11.433494366666665"><ele>944.0</ele><time>2026-05-01T13:32:33.404Z</time></trkpt><trkpt lat="46.880614083333334" lon="11.433278116666667"><ele>944.0</ele><time>2026-05-01T13:32:34.415Z</time></trkpt><trkpt lat="46.8806586" lon="11.4330508"><ele>944.0</ele><time>2026-05-01T13:32:35.42Z</time></trkpt><trkpt lat="46.88070643333333" lon="11.432836799999999"><ele>943.0</ele><time>2026-05-01T13:32:36.403Z</time></trkpt><trkpt lat="46.88075789999999" lon="11.432643200000001"><ele>942.0</ele><time>2026-05-01T13:32:37.403Z</time></trkpt><trkpt lat="46.880816833333334" lon="11.4324759"><ele>941.0</ele><time>2026-05-01T13:32:38.412Z</time></trkpt><trkpt lat="46.88089093333333" lon="11.432333933333332"><ele>940.0</ele><time>2026-05-01T13:32:39.403Z</time></trkpt><trkpt lat="46.88098936666667" lon="11.432222566666667"><ele>942.5</ele><time>2026-05-01T13:32:40.402Z</time></trkpt><trkpt lat="46.88110660000001" lon="11.432138566666666"><ele>945.0</ele><time>2026-05-01T13:32:41.41Z</time></trkpt><trkpt lat="46.881236066666666" lon="11.432090833333332"><ele>947.5</ele><time>2026-05-01T13:32:42.402Z</time></trkpt><trkpt lat="46.881379550000005" lon="11.432079066666665"><ele>950.0</ele><time>2026-05-01T13:32:43.404Z</time></trkpt><trkpt lat="46.88152758333334" lon="11.432084183333332"><ele>950.0</ele><time>2026-05-01T13:32:44.426Z</time></trkpt><trkpt lat="46.881673183333334" lon="11.432076466666668"><ele>950.0</ele><time>2026-05-01T13:32:45.407Z</time></trkpt><trkpt lat="46.881813583333326" lon="11.432031649999997"><ele>950.0</ele><time>2026-05-01T13:32:46.403Z</time></trkpt><trkpt lat="46.88193938333334" lon="11.431951399999997"><ele>950.0</ele><time>2026-05-01T13:32:47.42Z</time></trkpt><trkpt lat="46.88204571666667" lon="11.43184635"><ele>950.0</ele><time>2026-05-01T13:32:48.402Z</time></trkpt><trkpt lat="46.88213275" lon="11.431717233333334"><ele>950.0</ele><time>2026-05-01T13:32:49.403Z</time></trkpt><trkpt lat="46.8822034" lon="11.431566666666667"><ele>950.0</ele><time>2026-05-01T13:32:50.411Z</time></trkpt><trkpt lat="46.882258699999994" lon="11.431402016666668"><ele>950.0</ele><time>2026-05-01T13:32:51.403Z</time></trkpt><trkpt lat="46.88229515" lon="11.431224049999999"><ele>950.0</ele><time>2026-05-01T13:32:52.402Z</time></trkpt><trkpt lat="46.88231376666666" lon="11.431038149999997"><ele>950.0</ele><time>2026-05-01T13:32:53.402Z</time></trkpt><trkpt lat="46.88233001666667" lon="11.430859966666667"><ele>950.0</ele><time>2026-05-01T13:32:54.401Z</time></trkpt><trkpt lat="46.882355149999995" lon="11.430692466666668"><ele>950.0</ele><time>2026-05-01T13:32:55.401Z</time></trkpt><trkpt lat="46.88239278333334" lon="11.430527866666667"><ele>948.75</ele><time>2026-05-01T13:32:56.411Z</time></trkpt><trkpt lat="46.88244913333333" lon="11.430373349999998"><ele>947.5</ele><time>2026-05-01T13:32:57.402Z</time></trkpt><trkpt lat="46.882525" lon="11.430242966666667"><ele>946.25</ele><time>2026-05-01T13:32:58.405Z</time></trkpt><trkpt lat="46.88261943333334" lon="11.430143183333332"><ele>945.0</ele><time>2026-05-01T13:32:59.416Z</time></trkpt><trkpt lat="46.882722650000005" lon="11.430067183333332"><ele>945.0</ele><time>2026-05-01T13:33:00.402Z</time></trkpt><trkpt lat="46.882832300000004" lon="11.430011799999999"><ele>945.0</ele><time>2026-05-01T13:33:01.403Z</time></trkpt><trkpt lat="46.88294653333334" lon="11.429977616666669"><ele>945.0</ele><time>2026-05-01T13:33:02.42Z</time></trkpt><trkpt lat="46.883062333333335" lon="11.429955833333333"><ele>945.0</ele><time>2026-05-01T13:33:03.405Z</time></trkpt><trkpt lat="46.88317848333333" lon="11.429936616666666"><ele>945.0</ele><time>2026-05-01T13:33:04.403Z</time></trkpt><trkpt lat="46.883294899999996" lon="11.429925416666666"><ele>945.0</ele><time>2026-05-01T13:33:05.412Z</time></trkpt><trkpt lat="46.883416483333335" lon="11.429925833333334"><ele>945.0</ele><time>2026-05-01T13:33:06.404Z</time></trkpt><trkpt lat="46.88354121666666" lon="11.429933449999998"><ele>945.0</ele><time>2026-05-01T13:33:07.405Z</time></trkpt><trkpt lat="46.883664683333336" lon="11.429947116666664"><ele>944.0</ele><time>2026-05-01T13:33:08.411Z</time></trkpt><trkpt lat="46.88378798333333" lon="11.4299622"><ele>943.0</ele><time>2026-05-01T13:33:09.404Z</time></trkpt><trkpt lat="46.883906983333326" lon="11.429973250000002"><ele>942.0</ele><time>2026-05-01T13:33:10.413Z</time></trkpt><trkpt lat="46.88402345" lon="11.429979566666667"><ele>941.0</ele><time>2026-05-01T13:33:11.408Z</time></trkpt><trkpt lat="46.884144600000006" lon="11.429984666666666"><ele>941.0</ele><time>2026-05-01T13:33:12.404Z</time></trkpt><trkpt lat="46.88427043333333" lon="11.429995000000002"><ele>941.0</ele><time>2026-05-01T13:33:13.404Z</time></trkpt><trkpt lat="46.88440390000001" lon="11.430001899999999"><ele>941.0</ele><time>2026-05-01T13:33:14.414Z</time></trkpt><trkpt lat="46.884545433333344" lon="11.429989650000001"><ele>941.0</ele><time>2026-05-01T13:33:15.407Z</time></trkpt><trkpt lat="46.88468955" lon="11.42995215"><ele>941.0</ele><time>2026-05-01T13:33:16.415Z</time></trkpt><trkpt lat="46.88483469999999" lon="11.429887433333333"><ele>941.0</ele><time>2026-05-01T13:33:17.414Z</time></trkpt><trkpt lat="46.88497746666667" lon="11.429792716666668"><ele>941.0</ele><time>2026-05-01T13:33:18.403Z</time></trkpt><trkpt lat="46.88510948333333" lon="11.429664483333333"><ele>941.3333333333334</ele><time>2026-05-01T13:33:19.404Z</time></trkpt><trkpt lat="46.885234049999994" lon="11.42952315"><ele>941.6666666666667</ele><time>2026-05-01T13:33:20.402Z</time></trkpt><trkpt lat="46.88535341666667" lon="11.42937445"><ele>942.0</ele><time>2026-05-01T13:33:21.402Z</time></trkpt><trkpt lat="46.88546741666668" lon="11.429223766666667"><ele>942.0</ele><time>2026-05-01T13:33:22.403Z</time></trkpt><trkpt lat="46.88558161666667" lon="11.429073549999998"><ele>942.0</ele><time>2026-05-01T13:33:23.413Z</time></trkpt><trkpt lat="46.88570021666666" lon="11.428919650000001"><ele>942.0</ele><time>2026-05-01T13:33:24.404Z</time></trkpt><trkpt lat="46.88581623333333" lon="11.428758149999998"><ele>942.0</ele><time>2026-05-01T13:33:25.407Z</time></trkpt><trkpt lat="46.885933783333336" lon="11.428602216666665"><ele>942.0</ele><time>2026-05-01T13:33:26.411Z</time></trkpt><trkpt lat="46.88605291666666" lon="11.428448616666667"><ele>942.0</ele><time>2026-05-01T13:33:27.404Z</time></trkpt><trkpt lat="46.88617135" lon="11.428294166666667"><ele>942.0</ele><time>2026-05-01T13:33:28.404Z</time></trkpt><trkpt lat="46.886289483333336" lon="11.42814161666667"><ele>942.0</ele><time>2026-05-01T13:33:29.413Z</time></trkpt><trkpt lat="46.886399950000005" lon="11.42799245"><ele>942.0</ele><time>2026-05-01T13:33:30.405Z</time></trkpt><trkpt lat="46.88650306666667" lon="11.427851266666668"><ele>942.0</ele><time>2026-05-01T13:33:31.404Z</time></trkpt><trkpt lat="46.88659888333333" lon="11.42772285"><ele>942.0</ele><time>2026-05-01T13:33:32.417Z</time></trkpt><trkpt lat="46.88668581666668" lon="11.427606116666668"><ele>942.0</ele><time>2026-05-01T13:33:33.404Z</time></trkpt><trkpt lat="46.88676780000001" lon="11.427513466666667"><ele>942.0</ele><time>2026-05-01T13:33:34.4Z</time></trkpt><trkpt lat="46.88684743333333" lon="11.42745895"><ele>942.0</ele><time>2026-05-01T13:33:35.41Z</time></trkpt><trkpt lat="46.886916383333336" lon="11.4274436"><ele>942.0</ele><time>2026-05-01T13:33:36.402Z</time></trkpt><trkpt lat="46.88700751666667" lon="11.427486016666668"><ele>942.0</ele><time>2026-05-01T13:33:39.444Z</time></trkpt><trkpt lat="46.887095083333335" lon="11.427595083333332"><ele>942.0</ele><time>2026-05-01T13:33:41.429Z</time></trkpt><trkpt lat="46.88714656666666" lon="11.427701983333334"><ele>942.0</ele><time>2026-05-01T13:33:42.415Z</time></trkpt><trkpt lat="46.88720238333334" lon="11.427818233333333"><ele>942.0</ele><time>2026-05-01T13:33:43.432Z</time></trkpt><trkpt lat="46.88727771666666" lon="11.42794495"><ele>942.0</ele><time>2026-05-01T13:33:44.421Z</time></trkpt><trkpt lat="46.88735316876933" lon="11.428101927506752"><ele>942.0</ele><time>2026-05-01T13:33:45.424Z</time></trkpt><trkpt lat="46.88745993333333" lon="11.428251166666668"><ele>942.0</ele><time>2026-05-01T13:33:46.433Z</time></trkpt><trkpt lat="46.88756055" lon="11.4284386"><ele>942.0</ele><time>2026-05-01T13:33:47.418Z</time></trkpt><trkpt lat="46.88765589999999" lon="11.428608566666666"><ele>941.75</ele><time>2026-05-01T13:33:48.415Z</time></trkpt><trkpt lat="46.88774671666667" lon="11.428772933333335"><ele>941.5</ele><time>2026-05-01T13:33:49.4Z</time></trkpt><trkpt lat="46.88783156666667" lon="11.4289307"><ele>941.25</ele><time>2026-05-01T13:33:50.416Z</time></trkpt><trkpt lat="46.8879188" lon="11.429079916666668"><ele>941.0</ele><time>2026-05-01T13:33:51.42Z</time></trkpt><trkpt lat="46.8880085" lon="11.4292403"><ele>941.0</ele><time>2026-05-01T13:33:52.419Z</time></trkpt><trkpt lat="46.888100383333324" lon="11.429405000000001"><ele>941.0</ele><time>2026-05-01T13:33:53.416Z</time></trkpt><trkpt lat="46.888194183333326" lon="11.429573066666668"><ele>941.0</ele><time>2026-05-01T13:33:54.419Z</time></trkpt><trkpt lat="46.888287866666666" lon="11.429739150000001"><ele>941.0</ele><time>2026-05-01T13:33:55.418Z</time></trkpt><trkpt lat="46.888376900000004" lon="11.429895716666666"><ele>940.75</ele><time>2026-05-01T13:33:56.401Z</time></trkpt><trkpt lat="46.88845911666667" lon="11.430039516666668"><ele>940.5</ele><time>2026-05-01T13:33:57.415Z</time></trkpt><trkpt lat="46.88853155" lon="11.43017785"><ele>940.25</ele><time>2026-05-01T13:33:58.4Z</time></trkpt><trkpt lat="46.88859718333333" lon="11.430304616666668"><ele>940.0</ele><time>2026-05-01T13:33:59.416Z</time></trkpt><trkpt lat="46.88865521666666" lon="11.430420033333332"><ele>939.9999999999999</ele><time>2026-05-01T13:34:00.4Z</time></trkpt><trkpt lat="46.88869866666667" lon="11.430527566666669"><ele>940.0</ele><time>2026-05-01T13:34:01.413Z</time></trkpt><trkpt lat="46.888721950000004" lon="11.430632066666666"><ele>940.0</ele><time>2026-05-01T13:34:02.419Z</time></trkpt><trkpt lat="46.888728883333336" lon="11.430729983333332"><ele>940.0</ele><time>2026-05-01T13:34:03.422Z</time></trkpt><trkpt lat="46.88872068333334" lon="11.430912999999999"><ele>939.9999999999999</ele><time>2026-05-01T13:34:05.416Z</time></trkpt><trkpt lat="46.88873186666667" lon="11.431008866666664"><ele>940.0</ele><time>2026-05-01T13:34:06.408Z</time></trkpt><trkpt lat="46.88876628333334" lon="11.431095349999998"><ele>939.9999999999999</ele><time>2026-05-01T13:34:07.4Z</time></trkpt><trkpt lat="46.88882189999999" lon="11.431167583333336"><ele>940.0</ele><time>2026-05-01T13:34:08.421Z</time></trkpt><trkpt lat="46.88888610000001" lon="11.431239799999998"><ele>940.0</ele><time>2026-05-01T13:34:09.422Z</time></trkpt><trkpt lat="46.88894718333333" lon="11.431336883333332"><ele>940.0</ele><time>2026-05-01T13:34:10.422Z</time></trkpt><trkpt lat="46.889000083333336" lon="11.431457483333334"><ele>939.9999999999999</ele><time>2026-05-01T13:34:11.42Z</time></trkpt><trkpt lat="46.88904475" lon="11.431596800000001"><ele>940.0</ele><time>2026-05-01T13:34:12.424Z</time></trkpt><trkpt lat="46.8890844" lon="11.431757650000002"><ele>940.0</ele><time>2026-05-01T13:34:13.4Z</time></trkpt><trkpt lat="46.88911753333334" lon="11.431939700000003"><ele>940.0</ele><time>2026-05-01T13:34:14.418Z</time></trkpt><trkpt lat="46.88914828333333" lon="11.432141416666665"><ele>940.0</ele><time>2026-05-01T13:34:15.4Z</time></trkpt><trkpt lat="46.88917861666667" lon="11.432362266666665"><ele>940.0</ele><time>2026-05-01T13:34:16.399Z</time></trkpt><trkpt lat="46.8892104" lon="11.432594116666666"><ele>940.0</ele><time>2026-05-01T13:34:17.421Z</time></trkpt><trkpt lat="46.889241033333334" lon="11.432810233333331"><ele>940.0</ele><time>2026-05-01T13:34:18.42Z</time></trkpt><trkpt lat="46.88927066666667" lon="11.433016516666665"><ele>940.0</ele><time>2026-05-01T13:34:19.41Z</time></trkpt><trkpt lat="46.88930353333333" lon="11.433222966666666"><ele>940.0</ele><time>2026-05-01T13:34:20.413Z</time></trkpt><trkpt lat="46.889340733333334" lon="11.433430316666666"><ele>940.5</ele><time>2026-05-01T13:34:21.42Z</time></trkpt><trkpt lat="46.88938219999999" lon="11.433630533333334"><ele>941.0</ele><time>2026-05-01T13:34:22.401Z</time></trkpt><trkpt lat="46.88942976666667" lon="11.433819316666666"><ele>941.5</ele><time>2026-05-01T13:34:23.418Z</time></trkpt><trkpt lat="46.88948201666667" lon="11.433994383333333"><ele>942.0</ele><time>2026-05-01T13:34:24.399Z</time></trkpt><trkpt lat="46.88953628333334" lon="11.434152666666666"><ele>942.0</ele><time>2026-05-01T13:34:25.4Z</time></trkpt><trkpt lat="46.88959523333333" lon="11.434303800000002"><ele>942.0</ele><time>2026-05-01T13:34:26.403Z</time></trkpt><trkpt lat="46.8896607" lon="11.4344472"><ele>942.0</ele><time>2026-05-01T13:34:27.423Z</time></trkpt><trkpt lat="46.88972938333333" lon="11.434589133333334"><ele>942.0</ele><time>2026-05-01T13:34:28.399Z</time></trkpt><trkpt lat="46.889799566666674" lon="11.434731050000002"><ele>941.75</ele><time>2026-05-01T13:34:29.403Z</time></trkpt><trkpt lat="46.889871049999996" lon="11.43486953333333"><ele>941.5</ele><time>2026-05-01T13:34:30.42Z</time></trkpt><trkpt lat="46.889943300000006" lon="11.435006766666667"><ele>941.25</ele><time>2026-05-01T13:34:31.399Z</time></trkpt><trkpt lat="46.890018399999995" lon="11.435150266666668"><ele>941.0</ele><time>2026-05-01T13:34:32.42Z</time></trkpt><trkpt lat="46.89009564999999" lon="11.435297033333333"><ele>941.25</ele><time>2026-05-01T13:34:33.4Z</time></trkpt><trkpt lat="46.890175899999996" lon="11.435448133333333"><ele>941.5</ele><time>2026-05-01T13:34:34.4Z</time></trkpt><trkpt lat="46.890259699999994" lon="11.435601499999999"><ele>941.75</ele><time>2026-05-01T13:34:35.417Z</time></trkpt><trkpt lat="46.89034561666667" lon="11.435762083333335"><ele>942.0</ele><time>2026-05-01T13:34:36.42Z</time></trkpt><trkpt lat="46.89042848333333" lon="11.435919666666667"><ele>942.0</ele><time>2026-05-01T13:34:37.4Z</time></trkpt><trkpt lat="46.890507583333324" lon="11.436064366666669"><ele>942.0</ele><time>2026-05-01T13:34:38.418Z</time></trkpt><trkpt lat="46.89057948333334" lon="11.43619765"><ele>942.0</ele><time>2026-05-01T13:34:39.42Z</time></trkpt><trkpt lat="46.89064998333333" lon="11.436316433333333"><ele>942.0</ele><time>2026-05-01T13:34:40.422Z</time></trkpt><trkpt lat="46.89070751666666" lon="11.436410333333333"><ele>942.0</ele><time>2026-05-01T13:34:41.418Z</time></trkpt><trkpt lat="46.8907776" lon="11.436540483333332"><ele>942.0</ele><time>2026-05-01T13:34:43.411Z</time></trkpt><trkpt lat="46.8908204" lon="11.43669125"><ele>942.0</ele><time>2026-05-01T13:34:45.423Z</time></trkpt><trkpt lat="46.890838416666675" lon="11.436790616666666"><ele>942.0</ele><time>2026-05-01T13:34:46.422Z</time></trkpt><trkpt lat="46.890868366666666" lon="11.436891716666667"><ele>942.0</ele><time>2026-05-01T13:34:47.42Z</time></trkpt><trkpt lat="46.890914216666665" lon="11.436961166666666"><ele>942.0</ele><time>2026-05-01T13:34:48.42Z</time></trkpt><trkpt lat="46.89097076666667" lon="11.437002066666667"><ele>942.0</ele><time>2026-05-01T13:34:49.4Z</time></trkpt><trkpt lat="46.89103751666667" lon="11.437008533333335"><ele>942.0</ele><time>2026-05-01T13:34:50.417Z</time></trkpt><trkpt lat="46.891108233333334" lon="11.436969166666664"><ele>942.0</ele><time>2026-05-01T13:34:51.428Z</time></trkpt><trkpt lat="46.89116793333333" lon="11.436882766666669"><ele>942.0</ele><time>2026-05-01T13:34:52.408Z</time></trkpt><trkpt lat="46.89120978333334" lon="11.436761216666666"><ele>942.0</ele><time>2026-05-01T13:34:53.419Z</time></trkpt><trkpt lat="46.89125401666667" lon="11.43662485"><ele>942.0</ele><time>2026-05-01T13:34:54.423Z</time></trkpt><trkpt lat="46.89132511666667" lon="11.4365021"><ele>942.0</ele><time>2026-05-01T13:34:55.404Z</time></trkpt><trkpt lat="46.89142053333333" lon="11.4363919"><ele>942.0</ele><time>2026-05-01T13:34:56.421Z</time></trkpt><trkpt lat="46.89152730000001" lon="11.436289466666665"><ele>942.0</ele><time>2026-05-01T13:34:57.421Z</time></trkpt><trkpt lat="46.89164473333334" lon="11.4361961"><ele>942.0</ele><time>2026-05-01T13:34:58.401Z</time></trkpt><trkpt lat="46.891773549999996" lon="11.436110266666665"><ele>942.0</ele><time>2026-05-01T13:34:59.42Z</time></trkpt><trkpt lat="46.8919046" lon="11.436037216666668"><ele>942.0</ele><time>2026-05-01T13:35:00.421Z</time></trkpt><trkpt lat="46.89203896666666" lon="11.4359763"><ele>942.0</ele><time>2026-05-01T13:35:01.43Z</time></trkpt><trkpt lat="46.892177466666666" lon="11.435921"><ele>942.0</ele><time>2026-05-01T13:35:02.419Z</time></trkpt><trkpt lat="46.892318433333344" lon="11.435876366666665"><ele>942.0</ele><time>2026-05-01T13:35:03.421Z</time></trkpt><trkpt lat="46.89245666666667" lon="11.435845166666665"><ele>942.0</ele><time>2026-05-01T13:35:04.401Z</time></trkpt><trkpt lat="46.89259541666667" lon="11.435820750000001"><ele>942.0</ele><time>2026-05-01T13:35:05.418Z</time></trkpt><trkpt lat="46.89273388333333" lon="11.435806216666666"><ele>942.0</ele><time>2026-05-01T13:35:06.421Z</time></trkpt><trkpt lat="46.89286793333334" lon="11.4358038"><ele>942.5</ele><time>2026-05-01T13:35:07.399Z</time></trkpt><trkpt lat="46.8929898" lon="11.435810566666666"><ele>943.0</ele><time>2026-05-01T13:35:08.419Z</time></trkpt><trkpt lat="46.8931021" lon="11.4358159"><ele>943.5</ele><time>2026-05-01T13:35:09.401Z</time></trkpt><trkpt lat="46.89321176666667" lon="11.435819983333333"><ele>944.0</ele><time>2026-05-01T13:35:10.406Z</time></trkpt><trkpt lat="46.893323466666665" lon="11.43582188333333"><ele>944.25</ele><time>2026-05-01T13:35:11.403Z</time></trkpt><trkpt lat="46.89343881666667" lon="11.435825599999998"><ele>944.5</ele><time>2026-05-01T13:35:12.424Z</time></trkpt><trkpt lat="46.893558266666666" lon="11.435830033333332"><ele>944.75</ele><time>2026-05-01T13:35:13.4Z</time></trkpt><trkpt lat="46.893675966666656" lon="11.435834666666665"><ele>945.0</ele><time>2026-05-01T13:35:14.418Z</time></trkpt><trkpt lat="46.893793599999995" lon="11.435836300000002"><ele>945.0</ele><time>2026-05-01T13:35:15.446Z</time></trkpt><trkpt lat="46.89391220000001" lon="11.43583615"><ele>945.0</ele><time>2026-05-01T13:35:16.399Z</time></trkpt><trkpt lat="46.894031766666664" lon="11.435834933333336"><ele>945.0</ele><time>2026-05-01T13:35:17.402Z</time></trkpt><trkpt lat="46.89415286666667" lon="11.435835"><ele>945.0</ele><time>2026-05-01T13:35:18.421Z</time></trkpt><trkpt lat="46.89427513333333" lon="11.435836083333335"><ele>945.5</ele><time>2026-05-01T13:35:19.404Z</time></trkpt><trkpt lat="46.894399716666676" lon="11.435840816666666"><ele>946.0</ele><time>2026-05-01T13:35:20.419Z</time></trkpt><trkpt lat="46.89453091666666" lon="11.435848900000002"><ele>946.5</ele><time>2026-05-01T13:35:21.421Z</time></trkpt><trkpt lat="46.894665716666665" lon="11.435856999999999"><ele>947.0</ele><time>2026-05-01T13:35:22.4Z</time></trkpt><trkpt lat="46.89480021666667" lon="11.435861966666668"><ele>947.0</ele><time>2026-05-01T13:35:23.418Z</time></trkpt><trkpt lat="46.894931449999994" lon="11.435865466666668"><ele>947.0</ele><time>2026-05-01T13:35:24.416Z</time></trkpt><trkpt lat="46.89506105" lon="11.435862516666669"><ele>947.0</ele><time>2026-05-01T13:35:25.401Z</time></trkpt><trkpt lat="46.89519061666667" lon="11.43586636666667"><ele>947.0</ele><time>2026-05-01T13:35:26.419Z</time></trkpt><trkpt lat="46.895318916666675" lon="11.435863066666665"><ele>946.75</ele><time>2026-05-01T13:35:27.423Z</time></trkpt><trkpt lat="46.89544711666667" lon="11.435845166666665"><ele>946.5</ele><time>2026-05-01T13:35:28.4Z</time></trkpt><trkpt lat="46.89557041666667" lon="11.435810383333333"><ele>946.25</ele><time>2026-05-01T13:35:29.403Z</time></trkpt><trkpt lat="46.89568040000001" lon="11.435764849999998"><ele>946.0</ele><time>2026-05-01T13:35:30.421Z</time></trkpt><trkpt lat="46.8957821" lon="11.435728033333332"><ele>946.0</ele><time>2026-05-01T13:35:31.422Z</time></trkpt><trkpt lat="46.895883716666674" lon="11.435696600000002"><ele>945.9999999999999</ele><time>2026-05-01T13:35:32.419Z</time></trkpt><trkpt lat="46.89598668333333" lon="11.43565295"><ele>945.9999999999999</ele><time>2026-05-01T13:35:33.414Z</time></trkpt><trkpt lat="46.89609078333333" lon="11.43560795"><ele>946.0</ele><time>2026-05-01T13:35:34.4Z</time></trkpt><trkpt lat="46.896199949999996" lon="11.435574883333334"><ele>946.0</ele><time>2026-05-01T13:35:35.403Z</time></trkpt><trkpt lat="46.89631353333333" lon="11.435543233333332"><ele>946.25</ele><time>2026-05-01T13:35:36.421Z</time></trkpt><trkpt lat="46.89642683333333" lon="11.435504216666668"><ele>946.5</ele><time>2026-05-01T13:35:37.402Z</time></trkpt><trkpt lat="46.89654208333334" lon="11.435469033333334"><ele>946.75</ele><time>2026-05-01T13:35:38.418Z</time></trkpt><trkpt lat="46.89666158333333" lon="11.435434133333334"><ele>947.0</ele><time>2026-05-01T13:35:39.424Z</time></trkpt><trkpt lat="46.89677923333334" lon="11.435396716666665"><ele>947.75</ele><time>2026-05-01T13:35:40.399Z</time></trkpt><trkpt lat="46.89689409999999" lon="11.4353549"><ele>948.5</ele><time>2026-05-01T13:35:41.418Z</time></trkpt><trkpt lat="46.89700738333333" lon="11.435314633333334"><ele>949.25</ele><time>2026-05-01T13:35:42.401Z</time></trkpt><trkpt lat="46.89711753333333" lon="11.435271133333334"><ele>950.0</ele><time>2026-05-01T13:35:43.411Z</time></trkpt><trkpt lat="46.89722724999999" lon="11.435227999999999"><ele>950.0</ele><time>2026-05-01T13:35:44.418Z</time></trkpt><trkpt lat="46.897338516666665" lon="11.435192566666668"><ele>950.0</ele><time>2026-05-01T13:35:45.421Z</time></trkpt><trkpt lat="46.89744883333333" lon="11.435161816666668"><ele>950.0</ele><time>2026-05-01T13:35:46.399Z</time></trkpt><trkpt lat="46.89755835" lon="11.435129266666669"><ele>950.0</ele><time>2026-05-01T13:35:47.423Z</time></trkpt><trkpt lat="46.89766418333333" lon="11.435092916666667"><ele>950.0</ele><time>2026-05-01T13:35:48.409Z</time></trkpt><trkpt lat="46.897766399999995" lon="11.43506025"><ele>950.0</ele><time>2026-05-01T13:35:49.411Z</time></trkpt><trkpt lat="46.89786774999999" lon="11.43502705"><ele>950.0</ele><time>2026-05-01T13:35:50.419Z</time></trkpt><trkpt lat="46.89796736666668" lon="11.434997183333333"><ele>950.0</ele><time>2026-05-01T13:35:51.418Z</time></trkpt><trkpt lat="46.89806511666667" lon="11.434964483333333"><ele>950.0</ele><time>2026-05-01T13:35:52.4Z</time></trkpt><trkpt lat="46.89816423333333" lon="11.434931933333333"><ele>950.0</ele><time>2026-05-01T13:35:53.403Z</time></trkpt><trkpt lat="46.89826603333332" lon="11.43489815"><ele>950.0000000000001</ele><time>2026-05-01T13:35:54.421Z</time></trkpt><trkpt lat="46.898366933333335" lon="11.434864333333334"><ele>950.0</ele><time>2026-05-01T13:35:55.4Z</time></trkpt><trkpt lat="46.89846333333333" lon="11.434832066666669"><ele>950.0</ele><time>2026-05-01T13:35:56.415Z</time></trkpt><trkpt lat="46.89855046666666" lon="11.43480195"><ele>950.0</ele><time>2026-05-01T13:35:57.423Z</time></trkpt><trkpt lat="46.89862908333333" lon="11.434782849999998"><ele>950.0000000000001</ele><time>2026-05-01T13:35:58.411Z</time></trkpt><trkpt lat="46.898705033333336" lon="11.434764916666666"><ele>950.0</ele><time>2026-05-01T13:35:59.419Z</time></trkpt><trkpt lat="46.89878075" lon="11.434740099999999"><ele>951.0</ele><time>2026-05-01T13:36:00.401Z</time></trkpt><trkpt lat="46.89885583333333" lon="11.434710366666666"><ele>952.0</ele><time>2026-05-01T13:36:01.402Z</time></trkpt><trkpt lat="46.89893553333333" lon="11.434677549999998"><ele>953.0</ele><time>2026-05-01T13:36:02.421Z</time></trkpt><trkpt lat="46.899020883333336" lon="11.43463265"><ele>954.0</ele><time>2026-05-01T13:36:03.421Z</time></trkpt><trkpt lat="46.89910750000001" lon="11.434571683333335"><ele>955.0</ele><time>2026-05-01T13:36:04.4Z</time></trkpt><trkpt lat="46.899197699999995" lon="11.434500400000001"><ele>956.0</ele><time>2026-05-01T13:36:05.403Z</time></trkpt><trkpt lat="46.89928615" lon="11.4344127"><ele>957.0</ele><time>2026-05-01T13:36:06.4Z</time></trkpt><trkpt lat="46.89937539999999" lon="11.4343106"><ele>958.0</ele><time>2026-05-01T13:36:07.401Z</time></trkpt><trkpt lat="46.89946171666667" lon="11.434195266666666"><ele>959.0</ele><time>2026-05-01T13:36:08.419Z</time></trkpt><trkpt lat="46.89954718333333" lon="11.434068883333335"><ele>959.0</ele><time>2026-05-01T13:36:09.401Z</time></trkpt><trkpt lat="46.899634633333335" lon="11.4339271"><ele>959.0</ele><time>2026-05-01T13:36:10.416Z</time></trkpt><trkpt lat="46.899725866666664" lon="11.433775199999998"><ele>959.0</ele><time>2026-05-01T13:36:11.418Z</time></trkpt><trkpt lat="46.89982123333333" lon="11.433612533333333"><ele>959.0</ele><time>2026-05-01T13:36:12.423Z</time></trkpt><trkpt lat="46.899920900000005" lon="11.433441249999998"><ele>959.3333333333334</ele><time>2026-05-01T13:36:13.412Z</time></trkpt><trkpt lat="46.90002891666666" lon="11.433255683333334"><ele>959.6666666666667</ele><time>2026-05-01T13:36:14.405Z</time></trkpt><trkpt lat="46.90014398333333" lon="11.433055183333332"><ele>960.0</ele><time>2026-05-01T13:36:15.425Z</time></trkpt><trkpt lat="46.90026568333333" lon="11.432853533333331"><ele>960.0</ele><time>2026-05-01T13:36:16.401Z</time></trkpt><trkpt lat="46.9003995" lon="11.432657516666666"><ele>960.0</ele><time>2026-05-01T13:36:17.421Z</time></trkpt><trkpt lat="46.90053475" lon="11.432478283333333"><ele>960.0</ele><time>2026-05-01T13:36:18.402Z</time></trkpt><trkpt lat="46.90066376666667" lon="11.432316949999999"><ele>960.0</ele><time>2026-05-01T13:36:19.411Z</time></trkpt><trkpt lat="46.90078635" lon="11.432172716666667"><ele>960.0</ele><time>2026-05-01T13:36:20.403Z</time></trkpt><trkpt lat="46.90090261666666" lon="11.4320384"><ele>960.0</ele><time>2026-05-01T13:36:21.421Z</time></trkpt><trkpt lat="46.901015566666665" lon="11.431909916666665"><ele>960.0</ele><time>2026-05-01T13:36:22.398Z</time></trkpt><trkpt lat="46.90112535" lon="11.431784483333335"><ele>960.75</ele><time>2026-05-01T13:36:23.419Z</time></trkpt><trkpt lat="46.90123331666667" lon="11.431666416666667"><ele>961.5</ele><time>2026-05-01T13:36:24.421Z</time></trkpt><trkpt lat="46.90134043333334" lon="11.431551416666666"><ele>962.25</ele><time>2026-05-01T13:36:25.401Z</time></trkpt><trkpt lat="46.90144314999999" lon="11.431425983333334"><ele>963.0</ele><time>2026-05-01T13:36:26.417Z</time></trkpt><trkpt lat="46.90154261666667" lon="11.431301616666666"><ele>961.5</ele><time>2026-05-01T13:36:27.4Z</time></trkpt><trkpt lat="46.901640150000006" lon="11.431185466666665"><ele>960.0</ele><time>2026-05-01T13:36:28.414Z</time></trkpt><trkpt lat="46.901735716666664" lon="11.431071950000002"><ele>958.5</ele><time>2026-05-01T13:36:29.418Z</time></trkpt><trkpt lat="46.9018286" lon="11.430959333333332"><ele>957.0</ele><time>2026-05-01T13:36:30.421Z</time></trkpt><trkpt lat="46.901918099999996" lon="11.430852433333332"><ele>957.0</ele><time>2026-05-01T13:36:31.4Z</time></trkpt><trkpt lat="46.90200346666667" lon="11.430749066666666"><ele>957.0</ele><time>2026-05-01T13:36:32.398Z</time></trkpt><trkpt lat="46.902085199999995" lon="11.43064605"><ele>957.0</ele><time>2026-05-01T13:36:33.421Z</time></trkpt><trkpt lat="46.90216168333333" lon="11.430543666666665"><ele>957.0</ele><time>2026-05-01T13:36:34.423Z</time></trkpt><trkpt lat="46.90224051666667" lon="11.430447716666666"><ele>957.0</ele><time>2026-05-01T13:36:35.417Z</time></trkpt><trkpt lat="46.90232155" lon="11.430359433333335"><ele>957.0</ele><time>2026-05-01T13:36:36.421Z</time></trkpt><trkpt lat="46.90240555" lon="11.430279666666667"><ele>957.0</ele><time>2026-05-01T13:36:37.405Z</time></trkpt><trkpt lat="46.90249491666667" lon="11.430211466666666"><ele>957.0</ele><time>2026-05-01T13:36:38.419Z</time></trkpt><trkpt lat="46.90259235" lon="11.430162766666667"><ele>957.0</ele><time>2026-05-01T13:36:39.424Z</time></trkpt><trkpt lat="46.90269808333334" lon="11.430144216666667"><ele>957.0</ele><time>2026-05-01T13:36:40.4Z</time></trkpt><trkpt lat="46.902812666666655" lon="11.43014905"><ele>957.0</ele><time>2026-05-01T13:36:41.422Z</time></trkpt><trkpt lat="46.902931599999995" lon="11.430155916666669"><ele>957.0</ele><time>2026-05-01T13:36:42.421Z</time></trkpt><trkpt lat="46.90305433333333" lon="11.430166633333332"><ele>957.0</ele><time>2026-05-01T13:36:43.411Z</time></trkpt><trkpt lat="46.90317806666667" lon="11.43017593333333"><ele>957.0</ele><time>2026-05-01T13:36:44.419Z</time></trkpt><trkpt lat="46.903298966666675" lon="11.430187833333331"><ele>957.5</ele><time>2026-05-01T13:36:45.422Z</time></trkpt><trkpt lat="46.903417450000006" lon="11.430201383333333"><ele>958.0</ele><time>2026-05-01T13:36:46.417Z</time></trkpt><trkpt lat="46.90353093333333" lon="11.430209633333332"><ele>958.5</ele><time>2026-05-01T13:36:47.419Z</time></trkpt><trkpt lat="46.90364048333333" lon="11.430218783333332"><ele>959.0</ele><time>2026-05-01T13:36:48.422Z</time></trkpt><trkpt lat="46.90374951666666" lon="11.430224200000001"><ele>959.0</ele><time>2026-05-01T13:36:49.4Z</time></trkpt><trkpt lat="46.9038599" lon="11.430229833333332"><ele>959.0</ele><time>2026-05-01T13:36:50.4Z</time></trkpt><trkpt lat="46.90397553333334" lon="11.430242816666665"><ele>959.0</ele><time>2026-05-01T13:36:51.442Z</time></trkpt><trkpt lat="46.90409366666666" lon="11.430260383333332"><ele>959.0</ele><time>2026-05-01T13:36:52.414Z</time></trkpt><trkpt lat="46.90421845000001" lon="11.43028285"><ele>958.75</ele><time>2026-05-01T13:36:53.418Z</time></trkpt><trkpt lat="46.90434501666667" lon="11.430311683333331"><ele>958.5</ele><time>2026-05-01T13:36:54.423Z</time></trkpt><trkpt lat="46.90447235" lon="11.430346200000002"><ele>958.25</ele><time>2026-05-01T13:36:55.415Z</time></trkpt><trkpt lat="46.90459848333333" lon="11.430383516666666"><ele>958.0</ele><time>2026-05-01T13:36:56.417Z</time></trkpt><trkpt lat="46.90472293333334" lon="11.430421716666668"><ele>958.0</ele><time>2026-05-01T13:36:57.424Z</time></trkpt><trkpt lat="46.904844999999995" lon="11.430462033333333"><ele>958.0</ele><time>2026-05-01T13:36:58.4Z</time></trkpt><trkpt lat="46.90496988333332" lon="11.430497733333334"><ele>958.0</ele><time>2026-05-01T13:36:59.417Z</time></trkpt><trkpt lat="46.905096400000005" lon="11.430528816666667"><ele>958.0</ele><time>2026-05-01T13:37:00.43Z</time></trkpt><trkpt lat="46.905223533333334" lon="11.430562583333336"><ele>958.5</ele><time>2026-05-01T13:37:01.4Z</time></trkpt><trkpt lat="46.905348599999996" lon="11.430604766666667"><ele>959.0</ele><time>2026-05-01T13:37:02.421Z</time></trkpt><trkpt lat="46.905470333333334" lon="11.430648399999999"><ele>959.5</ele><time>2026-05-01T13:37:03.401Z</time></trkpt><trkpt lat="46.90558916666667" lon="11.430684983333334"><ele>960.0</ele><time>2026-05-01T13:37:04.419Z</time></trkpt><trkpt lat="46.90570235" lon="11.430724316666666"><ele>960.0</ele><time>2026-05-01T13:37:05.419Z</time></trkpt><trkpt lat="46.90581246666667" lon="11.430764466666668"><ele>960.0</ele><time>2026-05-01T13:37:06.4Z</time></trkpt><trkpt lat="46.90591890000001" lon="11.430807883333333"><ele>960.0</ele><time>2026-05-01T13:37:07.401Z</time></trkpt><trkpt lat="46.906022866666675" lon="11.430857033333332"><ele>960.0</ele><time>2026-05-01T13:37:08.422Z</time></trkpt><trkpt lat="46.90612720000001" lon="11.430907733333333"><ele>960.0</ele><time>2026-05-01T13:37:09.428Z</time></trkpt><trkpt lat="46.90623336666666" lon="11.430961583333332"><ele>962.75</ele><time>2026-05-01T13:37:10.401Z</time></trkpt><trkpt lat="46.90634095000001" lon="11.431020616666666"><ele>965.5</ele><time>2026-05-01T13:37:11.417Z</time></trkpt><trkpt lat="46.90644893333333" lon="11.431090249999999"><ele>968.25</ele><time>2026-05-01T13:37:12.421Z</time></trkpt><trkpt lat="46.9065594" lon="11.431168583333333"><ele>971.0</ele><time>2026-05-01T13:37:13.411Z</time></trkpt><trkpt lat="46.90667031666666" lon="11.43125235"><ele>970.0</ele><time>2026-05-01T13:37:14.417Z</time></trkpt><trkpt lat="46.90677918333334" lon="11.431343316666668"><ele>969.0</ele><time>2026-05-01T13:37:15.401Z</time></trkpt><trkpt lat="46.90688683333333" lon="11.431439166666665"><ele>968.0</ele><time>2026-05-01T13:37:16.4Z</time></trkpt><trkpt lat="46.906993516666674" lon="11.4315452"><ele>967.0</ele><time>2026-05-01T13:37:17.419Z</time></trkpt><trkpt lat="46.907098600000005" lon="11.43166075"><ele>967.0</ele><time>2026-05-01T13:37:18.402Z</time></trkpt><trkpt lat="46.907191452376765" lon="11.431800650541124"><ele>967.0</ele><time>2026-05-01T13:37:19.411Z</time></trkpt><trkpt lat="46.90729624975907" lon="11.431938869717793"><ele>967.0</ele><time>2026-05-01T13:37:20.417Z</time></trkpt><trkpt lat="46.907404343872344" lon="11.43208981596889"><ele>967.0</ele><time>2026-05-01T13:37:21.421Z</time></trkpt><trkpt lat="46.90751713912741" lon="11.432252685756747"><ele>971.3333333333333</ele><time>2026-05-01T13:37:22.4Z</time></trkpt><trkpt lat="46.9076353330141" lon="11.432423274291402"><ele>975.6666666666667</ele><time>2026-05-01T13:37:23.421Z</time></trkpt><trkpt lat="46.90775863553649" lon="11.432601235829898"><ele>980.0</ele><time>2026-05-01T13:37:24.4Z</time></trkpt><trkpt lat="46.90788329703892" lon="11.432783256027697"><ele>980.0</ele><time>2026-05-01T13:37:25.411Z</time></trkpt><trkpt lat="46.90800476769551" lon="11.432961551065514"><ele>980.0</ele><time>2026-05-01T13:37:26.405Z</time></trkpt><trkpt lat="46.90813693333333" lon="11.43312115"><ele>980.0</ele><time>2026-05-01T13:37:27.421Z</time></trkpt><trkpt lat="46.90825981666667" lon="11.433300816666668"><ele>981.3333333333334</ele><time>2026-05-01T13:37:28.414Z</time></trkpt><trkpt lat="46.908379366666665" lon="11.433479283333336"><ele>982.6666666666667</ele><time>2026-05-01T13:37:29.419Z</time></trkpt><trkpt lat="46.90849466666666" lon="11.433654316666665"><ele>984.0</ele><time>2026-05-01T13:37:30.423Z</time></trkpt><trkpt lat="46.90861076666666" lon="11.43382945"><ele>984.0</ele><time>2026-05-01T13:37:31.4Z</time></trkpt><trkpt lat="46.908727600000006" lon="11.434002416666667"><ele>984.0</ele><time>2026-05-01T13:37:32.414Z</time></trkpt><trkpt lat="46.90884308333334" lon="11.434172866666666"><ele>984.0</ele><time>2026-05-01T13:37:33.422Z</time></trkpt><trkpt lat="46.90895873333334" lon="11.43434435"><ele>984.0</ele><time>2026-05-01T13:37:34.401Z</time></trkpt><trkpt lat="46.90907666666667" lon="11.43451465"><ele>984.0</ele><time>2026-05-01T13:37:35.418Z</time></trkpt><trkpt lat="46.90919978333333" lon="11.434685649999999"><ele>984.0</ele><time>2026-05-01T13:37:36.4Z</time></trkpt><trkpt lat="46.90931058656402" lon="11.434876630014255"><ele>990.0</ele><time>2026-05-01T13:37:37.414Z</time></trkpt><trkpt lat="46.90943570499619" lon="11.435053560745777"><ele>996.0</ele><time>2026-05-01T13:37:38.401Z</time></trkpt><trkpt lat="46.909566970375394" lon="11.435230035024459"><ele>1002.0</ele><time>2026-05-01T13:37:39.421Z</time></trkpt><trkpt lat="46.90970171251242" lon="11.435405470091856"><ele>999.0</ele><time>2026-05-01T13:37:40.4Z</time></trkpt><trkpt lat="46.90985396666667" lon="11.435557866666667"><ele>996.0</ele><time>2026-05-01T13:37:41.418Z</time></trkpt><trkpt lat="46.91000091666666" lon="11.435737483333332"><ele>993.0</ele><time>2026-05-01T13:37:42.43Z</time></trkpt><trkpt lat="46.91015958333334" lon="11.435918716666666"><ele>993.0</ele><time>2026-05-01T13:37:43.412Z</time></trkpt><trkpt lat="46.9103244" lon="11.436097166666665"><ele>993.0</ele><time>2026-05-01T13:37:44.419Z</time></trkpt><trkpt lat="46.910491333333326" lon="11.4362764"><ele>993.0</ele><time>2026-05-01T13:37:45.422Z</time></trkpt><trkpt lat="46.910660266666675" lon="11.436457616666667"><ele>990.3333333333333</ele><time>2026-05-01T13:37:46.411Z</time></trkpt><trkpt lat="46.91083073333333" lon="11.436635533333334"><ele>987.6666666666666</ele><time>2026-05-01T13:37:47.421Z</time></trkpt><trkpt lat="46.91100038333334" lon="11.436810566666667"><ele>985.0</ele><time>2026-05-01T13:37:48.421Z</time></trkpt><trkpt lat="46.91116681666667" lon="11.436988233333333"><ele>982.0</ele><time>2026-05-01T13:37:49.411Z</time></trkpt><trkpt lat="46.911327966666676" lon="11.437161983333333"><ele>979.0</ele><time>2026-05-01T13:37:50.419Z</time></trkpt><trkpt lat="46.91148345" lon="11.437330683333334"><ele>976.0</ele><time>2026-05-01T13:37:51.404Z</time></trkpt><trkpt lat="46.911634750000005" lon="11.437493333333336"><ele>979.3333333333333</ele><time>2026-05-01T13:37:52.398Z</time></trkpt><trkpt lat="46.911778133333335" lon="11.437649400000002"><ele>982.6666666666667</ele><time>2026-05-01T13:37:53.404Z</time></trkpt><trkpt lat="46.91191823333334" lon="11.437803000000002"><ele>986.0</ele><time>2026-05-01T13:37:54.422Z</time></trkpt><trkpt lat="46.91205414999999" lon="11.437951333333334"><ele>982.6666666666667</ele><time>2026-05-01T13:37:55.413Z</time></trkpt><trkpt lat="46.91218808333333" lon="11.438091983333333"><ele>979.3333333333333</ele><time>2026-05-01T13:37:56.422Z</time></trkpt><trkpt lat="46.91232355" lon="11.438234133333333"><ele>976.0</ele><time>2026-05-01T13:37:57.424Z</time></trkpt><trkpt lat="46.912461799999996" lon="11.438380433333336"><ele>976.3333333333333</ele><time>2026-05-01T13:37:58.4Z</time></trkpt><trkpt lat="46.91260183333333" lon="11.438528016666666"><ele>976.6666666666667</ele><time>2026-05-01T13:37:59.418Z</time></trkpt><trkpt lat="46.91274246666667" lon="11.438681916666667"><ele>977.0</ele><time>2026-05-01T13:38:00.401Z</time></trkpt><trkpt lat="46.91288473333334" lon="11.438839050000002"><ele>977.0</ele><time>2026-05-01T13:38:01.4Z</time></trkpt><trkpt lat="46.91301437366847" lon="11.43902220895111"><ele>977.0</ele><time>2026-05-01T13:38:02.42Z</time></trkpt><trkpt lat="46.91315127468135" lon="11.439200245165122"><ele>977.0</ele><time>2026-05-01T13:38:03.422Z</time></trkpt><trkpt lat="46.913279546208244" lon="11.439398710852146"><ele>977.0</ele><time>2026-05-01T13:38:04.406Z</time></trkpt><trkpt lat="46.91338997603558" lon="11.439613458545663"><ele>977.0</ele><time>2026-05-01T13:38:05.419Z</time></trkpt><trkpt lat="46.91348521704133" lon="11.439838580240972"><ele>977.0</ele><time>2026-05-01T13:38:06.422Z</time></trkpt><trkpt lat="46.913567826344774" lon="11.44007903884694"><ele>981.6666666666667</ele><time>2026-05-01T13:38:07.415Z</time></trkpt><trkpt lat="46.91364644398986" lon="11.44032469989859"><ele>986.3333333333333</ele><time>2026-05-01T13:38:08.404Z</time></trkpt><trkpt lat="46.91371821789139" lon="11.440574006821956"><ele>991.0</ele><time>2026-05-01T13:38:09.399Z</time></trkpt><trkpt lat="46.913790413348714" lon="11.440820390391995"><ele>991.0</ele><time>2026-05-01T13:38:10.4Z</time></trkpt><trkpt lat="46.91385754474323" lon="11.441046256896744"><ele>991.0</ele><time>2026-05-01T13:38:11.409Z</time></trkpt><trkpt lat="46.9139189902979" lon="11.44125299349535"><ele>991.0</ele><time>2026-05-01T13:38:12.424Z</time></trkpt><trkpt lat="46.91397637957684" lon="11.44144900674045"><ele>990.25</ele><time>2026-05-01T13:38:13.408Z</time></trkpt><trkpt lat="46.91403695666684" lon="11.441638229664507"><ele>989.5</ele><time>2026-05-01T13:38:14.404Z</time></trkpt><trkpt lat="46.9141344" lon="11.441795466666667"><ele>988.75</ele><time>2026-05-01T13:38:15.422Z</time></trkpt><trkpt lat="46.91421186666666" lon="11.441965916666668"><ele>988.0</ele><time>2026-05-01T13:38:16.4Z</time></trkpt><trkpt lat="46.91430525000001" lon="11.442124750000001"><ele>991.0</ele><time>2026-05-01T13:38:17.42Z</time></trkpt><trkpt lat="46.91440736666667" lon="11.442272333333335"><ele>994.0</ele><time>2026-05-01T13:38:18.422Z</time></trkpt><trkpt lat="46.91450607937662" lon="11.442440752594715"><ele>997.0</ele><time>2026-05-01T13:38:19.411Z</time></trkpt><trkpt lat="46.91463991317582" lon="11.442550631639438"><ele>1000.0</ele><time>2026-05-01T13:38:20.418Z</time></trkpt><trkpt lat="46.914778739021976" lon="11.44264162871559"><ele>1000.0</ele><time>2026-05-01T13:38:21.4Z</time></trkpt><trkpt lat="46.91492066984437" lon="11.442727995259053"><ele>1000.0</ele><time>2026-05-01T13:38:22.399Z</time></trkpt><trkpt lat="46.915059738642796" lon="11.44281525899999"><ele>1000.0</ele><time>2026-05-01T13:38:23.419Z</time></trkpt><trkpt lat="46.915193435018814" lon="11.44290446790199"><ele>1000.0</ele><time>2026-05-01T13:38:24.422Z</time></trkpt><trkpt lat="46.91532567122805" lon="11.443001993230286"><ele>1000.0</ele><time>2026-05-01T13:38:25.4Z</time></trkpt><trkpt lat="46.91545683940534" lon="11.443115975707551"><ele>1000.0</ele><time>2026-05-01T13:38:26.419Z</time></trkpt><trkpt lat="46.91559189779367" lon="11.443232978246584"><ele>1000.0</ele><time>2026-05-01T13:38:27.399Z</time></trkpt><trkpt lat="46.915733096300286" lon="11.443355224255274"><ele>1000.0</ele><time>2026-05-01T13:38:28.412Z</time></trkpt><trkpt lat="46.915874811476876" lon="11.443475884921058"><ele>1000.0</ele><time>2026-05-01T13:38:29.404Z</time></trkpt><trkpt lat="46.91601675118026" lon="11.443589407732082"><ele>997.0</ele><time>2026-05-01T13:38:30.401Z</time></trkpt><trkpt lat="46.91616426666667" lon="11.443677800000001"><ele>994.0</ele><time>2026-05-01T13:38:31.4Z</time></trkpt><trkpt lat="46.91630316666666" lon="11.443778750000002"><ele>991.0</ele><time>2026-05-01T13:38:32.421Z</time></trkpt><trkpt lat="46.91644518333333" lon="11.443857966666668"><ele>991.0</ele><time>2026-05-01T13:38:33.422Z</time></trkpt><trkpt lat="46.91659378333334" lon="11.443928683333334"><ele>991.0</ele><time>2026-05-01T13:38:34.4Z</time></trkpt><trkpt lat="46.91674791666666" lon="11.443983116666667"><ele>991.0</ele><time>2026-05-01T13:38:35.419Z</time></trkpt><trkpt lat="46.9169106" lon="11.444024066666667"><ele>994.6666666666666</ele><time>2026-05-01T13:38:36.416Z</time></trkpt><trkpt lat="46.91708068333334" lon="11.444053733333332"><ele>998.3333333333333</ele><time>2026-05-01T13:38:37.414Z</time></trkpt><trkpt lat="46.9172581" lon="11.444084016666666"><ele>1002.0</ele><time>2026-05-01T13:38:38.418Z</time></trkpt><trkpt lat="46.91744048333333" lon="11.444115299999998"><ele>1008.0</ele><time>2026-05-01T13:38:39.421Z</time></trkpt><trkpt lat="46.9176243" lon="11.444151183333334"><ele>1014.0</ele><time>2026-05-01T13:38:40.414Z</time></trkpt><trkpt lat="46.917804700000005" lon="11.444192383333332"><ele>1020.0</ele><time>2026-05-01T13:38:41.418Z</time></trkpt><trkpt lat="46.917982699999996" lon="11.44423845"><ele>1020.0</ele><time>2026-05-01T13:38:42.424Z</time></trkpt><trkpt lat="46.91815624105302" lon="11.444314950717589"><ele>1020.0</ele><time>2026-05-01T13:38:43.402Z</time></trkpt><trkpt lat="46.91833509772854" lon="11.444358936416121"><ele>1020.0</ele><time>2026-05-01T13:38:44.418Z</time></trkpt><trkpt lat="46.918522483333334" lon="11.444362899999998"><ele>1023.0</ele><time>2026-05-01T13:38:45.414Z</time></trkpt><trkpt lat="46.91871116666667" lon="11.444371833333333"><ele>1026.0</ele><time>2026-05-01T13:38:46.4Z</time></trkpt><trkpt lat="46.918896399999994" lon="11.444361433333333"><ele>1029.0</ele><time>2026-05-01T13:38:47.421Z</time></trkpt><trkpt lat="46.919078416666665" lon="11.444343983333333"><ele>1028.0</ele><time>2026-05-01T13:38:48.422Z</time></trkpt><trkpt lat="46.91925795" lon="11.444324633333334"><ele>1027.0</ele><time>2026-05-01T13:38:49.4Z</time></trkpt><trkpt lat="46.91943405000001" lon="11.444310150000002"><ele>1026.0</ele><time>2026-05-01T13:38:50.418Z</time></trkpt><trkpt lat="46.919608116666666" lon="11.4442989"><ele>1026.0</ele><time>2026-05-01T13:38:51.422Z</time></trkpt><trkpt lat="46.91978085000001" lon="11.444290916666667"><ele>1026.0</ele><time>2026-05-01T13:38:52.398Z</time></trkpt><trkpt lat="46.919951016666666" lon="11.444292800000001"><ele>1026.0</ele><time>2026-05-01T13:38:53.413Z</time></trkpt><trkpt lat="46.9201200936587" lon="11.44433968246791"><ele>1031.6666666666667</ele><time>2026-05-01T13:38:54.422Z</time></trkpt><trkpt lat="46.92028738641022" lon="11.444386436528763"><ele>1037.3333333333335</ele><time>2026-05-01T13:38:55.404Z</time></trkpt><trkpt lat="46.92046682213053" lon="11.44445407635671"><ele>1043.0</ele><time>2026-05-01T13:38:56.422Z</time></trkpt><trkpt lat="46.92066429220329" lon="11.44453001048448"><ele>1043.0</ele><time>2026-05-01T13:38:57.421Z</time></trkpt><trkpt lat="46.92086357923363" lon="11.444606643250976"><ele>1043.0</ele><time>2026-05-01T13:38:58.403Z</time></trkpt><trkpt lat="46.92106894802496" lon="11.444685614632313"><ele>1043.0</ele><time>2026-05-01T13:38:59.418Z</time></trkpt><trkpt lat="46.921278356389664" lon="11.444766912523814"><ele>1042.6666666666667</ele><time>2026-05-01T13:39:00.419Z</time></trkpt><trkpt lat="46.921488166445364" lon="11.444848785154358"><ele>1042.3333333333333</ele><time>2026-05-01T13:39:01.401Z</time></trkpt><trkpt lat="46.9216985" lon="11.444925366666666"><ele>1042.0</ele><time>2026-05-01T13:39:02.417Z</time></trkpt><trkpt lat="46.92190178333334" lon="11.445040449999999"><ele>1042.0</ele><time>2026-05-01T13:39:03.404Z</time></trkpt><trkpt lat="46.92210526666666" lon="11.44515563333333"><ele>1042.0</ele><time>2026-05-01T13:39:04.402Z</time></trkpt><trkpt lat="46.922309150000004" lon="11.445271066666665"><ele>1042.0</ele><time>2026-05-01T13:39:05.413Z</time></trkpt><trkpt lat="46.92251731301787" lon="11.44535916962448"><ele>1043.6666666666665</ele><time>2026-05-01T13:39:06.422Z</time></trkpt><trkpt lat="46.92272679520495" lon="11.445440281403041"><ele>1045.3333333333333</ele><time>2026-05-01T13:39:07.414Z</time></trkpt><trkpt lat="46.922936752418856" lon="11.445522642378265"><ele>1047.0</ele><time>2026-05-01T13:39:08.425Z</time></trkpt><trkpt lat="46.92314601496003" lon="11.445602318543077"><ele>1047.0</ele><time>2026-05-01T13:39:09.422Z</time></trkpt><trkpt lat="46.92285057996579" lon="11.445376882401025"><ele>1047.0</ele><time>2026-05-01T13:39:10.419Z</time></trkpt><trkpt lat="46.923014816666665" lon="11.445433766666667"><ele>1043.0</ele><time>2026-05-01T13:39:11.412Z</time></trkpt><trkpt lat="46.92318456666667" lon="11.445508066666665"><ele>1039.0</ele><time>2026-05-01T13:39:12.412Z</time></trkpt><trkpt lat="46.92335589999999" lon="11.445555316666667"><ele>1035.0</ele><time>2026-05-01T13:39:13.4Z</time></trkpt><trkpt lat="46.92352906666667" lon="11.445626283333334"><ele>1035.0</ele><time>2026-05-01T13:39:14.412Z</time></trkpt><trkpt lat="46.923707650000004" lon="11.445680633333332"><ele>1035.0</ele><time>2026-05-01T13:39:15.424Z</time></trkpt><trkpt lat="46.92388161666666" lon="11.445729816666669"><ele>1035.0</ele><time>2026-05-01T13:39:16.423Z</time></trkpt><trkpt lat="46.924047900000005" lon="11.445779816666667"><ele>1035.0</ele><time>2026-05-01T13:39:17.4Z</time></trkpt><trkpt lat="46.924207200000005" lon="11.445830083333332"><ele>1035.0</ele><time>2026-05-01T13:39:18.441Z</time></trkpt><trkpt lat="46.92436514999999" lon="11.445881033333334"><ele>1035.0</ele><time>2026-05-01T13:39:19.418Z</time></trkpt><trkpt lat="46.92452201666667" lon="11.445937933333335"><ele>1042.3333333333333</ele><time>2026-05-01T13:39:20.413Z</time></trkpt><trkpt lat="46.92467276666666" lon="11.446022266666668"><ele>1049.6666666666665</ele><time>2026-05-01T13:39:21.419Z</time></trkpt><trkpt lat="46.92481386666666" lon="11.446141499999998"><ele>1057.0</ele><time>2026-05-01T13:39:22.403Z</time></trkpt><trkpt lat="46.92494931666667" lon="11.446280333333336"><ele>1061.3333333333333</ele><time>2026-05-01T13:39:23.423Z</time></trkpt><trkpt lat="46.925070749999996" lon="11.446419350000001"><ele>1065.6666666666667</ele><time>2026-05-01T13:39:24.418Z</time></trkpt><trkpt lat="46.92518116666667" lon="11.446573149999997"><ele>1070.0</ele><time>2026-05-01T13:39:25.419Z</time></trkpt><trkpt lat="46.92527943333333" lon="11.446743233333333"><ele>1070.0</ele><time>2026-05-01T13:39:26.403Z</time></trkpt><trkpt lat="46.92536478333333" lon="11.446925833333335"><ele>1070.0</ele><time>2026-05-01T13:39:27.424Z</time></trkpt><trkpt lat="46.925439499999996" lon="11.447115483333334"><ele>1070.0</ele><time>2026-05-01T13:39:28.42Z</time></trkpt><trkpt lat="46.92550046666667" lon="11.447312849999998"><ele>1070.0</ele><time>2026-05-01T13:39:29.413Z</time></trkpt><trkpt lat="46.925518753334856" lon="11.44752722626975"><ele>1061.3333333333335</ele><time>2026-05-01T13:39:30.419Z</time></trkpt><trkpt lat="46.92554949858252" lon="11.447745228495119"><ele>1052.6666666666667</ele><time>2026-05-01T13:39:31.4Z</time></trkpt><trkpt lat="46.92559787084062" lon="11.447961037957546"><ele>1044.0</ele><time>2026-05-01T13:39:32.412Z</time></trkpt><trkpt lat="46.925669537251785" lon="11.44816407180075"><ele>1041.5</ele><time>2026-05-01T13:39:33.421Z</time></trkpt><trkpt lat="46.92574587118478" lon="11.448355571765216"><ele>1039.0</ele><time>2026-05-01T13:39:34.419Z</time></trkpt><trkpt lat="46.92581869696352" lon="11.44853192318714"><ele>1036.5</ele><time>2026-05-01T13:39:35.413Z</time></trkpt><trkpt lat="46.92588606378032" lon="11.448701698770192"><ele>1034.0</ele><time>2026-05-01T13:39:36.422Z</time></trkpt><trkpt lat="46.925951312772796" lon="11.448874309907458"><ele>1033.25</ele><time>2026-05-01T13:39:37.422Z</time></trkpt><trkpt lat="46.926018082242656" lon="11.449049726500437"><ele>1032.5</ele><time>2026-05-01T13:39:38.412Z</time></trkpt><trkpt lat="46.92610121269289" lon="11.449219487799505"><ele>1031.75</ele><time>2026-05-01T13:39:39.422Z</time></trkpt><trkpt lat="46.92621039650153" lon="11.449357864536548"><ele>1031.0</ele><time>2026-05-01T13:39:40.418Z</time></trkpt><trkpt lat="46.92633926317338" lon="11.449455074392079"><ele>1031.0</ele><time>2026-05-01T13:39:41.411Z</time></trkpt><trkpt lat="46.92648331666666" lon="11.44948358333333"><ele>1031.0</ele><time>2026-05-01T13:39:42.421Z</time></trkpt><trkpt lat="46.9266281" lon="11.449508666666667"><ele>1031.0</ele><time>2026-05-01T13:39:43.399Z</time></trkpt><trkpt lat="46.92678148333332" lon="11.449499600000001"><ele>1031.0</ele><time>2026-05-01T13:39:44.412Z</time></trkpt><trkpt lat="46.92694159999999" lon="11.449472199999999"><ele>1033.3333333333335</ele><time>2026-05-01T13:39:45.42Z</time></trkpt><trkpt lat="46.927104449999995" lon="11.449445833333334"><ele>1035.6666666666667</ele><time>2026-05-01T13:39:46.42Z</time></trkpt><trkpt lat="46.927268133333335" lon="11.4494262"><ele>1038.0</ele><time>2026-05-01T13:39:47.414Z</time></trkpt><trkpt lat="46.927437800000014" lon="11.44940465"><ele>1041.0</ele><time>2026-05-01T13:39:48.414Z</time></trkpt><trkpt lat="46.92761086666666" lon="11.449379433333334"><ele>1044.0</ele><time>2026-05-01T13:39:49.408Z</time></trkpt><trkpt lat="46.927780433333325" lon="11.449357283333333"><ele>1047.0</ele><time>2026-05-01T13:39:50.431Z</time></trkpt><trkpt lat="46.92794558333333" lon="11.449333316666666"><ele>1047.0</ele><time>2026-05-01T13:39:51.419Z</time></trkpt><trkpt lat="46.92810751666666" lon="11.449299466666664"><ele>1047.0</ele><time>2026-05-01T13:39:52.399Z</time></trkpt><trkpt lat="46.92827483333333" lon="11.44926706666667"><ele>1047.0</ele><time>2026-05-01T13:39:53.412Z</time></trkpt><trkpt lat="46.92844975" lon="11.4492401"><ele>1048.3333333333333</ele><time>2026-05-01T13:39:54.419Z</time></trkpt><trkpt lat="46.92863345000001" lon="11.449208633333335"><ele>1049.6666666666665</ele><time>2026-05-01T13:39:55.418Z</time></trkpt><trkpt lat="46.92882061666666" lon="11.44917195"><ele>1051.0</ele><time>2026-05-01T13:39:56.412Z</time></trkpt><trkpt lat="46.92900643333334" lon="11.449134933333335"><ele>1051.0</ele><time>2026-05-01T13:39:57.421Z</time></trkpt><trkpt lat="46.929190466666654" lon="11.449097233333335"><ele>1051.0</ele><time>2026-05-01T13:39:58.401Z</time></trkpt><trkpt lat="46.929373500000004" lon="11.449061783333331"><ele>1051.0</ele><time>2026-05-01T13:39:59.408Z</time></trkpt><trkpt lat="46.92955806666667" lon="11.44902775"><ele>1051.0</ele><time>2026-05-01T13:40:00.422Z</time></trkpt><trkpt lat="46.92974865" lon="11.448990766666668"><ele>1051.0</ele><time>2026-05-01T13:40:01.4Z</time></trkpt><trkpt lat="46.92993953333333" lon="11.448956883333336"><ele>1051.0</ele><time>2026-05-01T13:40:02.424Z</time></trkpt><trkpt lat="46.930130750000004" lon="11.448900816666667"><ele>1052.3333333333333</ele><time>2026-05-01T13:40:03.419Z</time></trkpt><trkpt lat="46.93033432505318" lon="11.448876287466021"><ele>1053.6666666666667</ele><time>2026-05-01T13:40:04.418Z</time></trkpt><trkpt lat="46.93053785263788" lon="11.44882646814435"><ele>1055.0</ele><time>2026-05-01T13:40:05.414Z</time></trkpt><trkpt lat="46.930752124160385" lon="11.448775270414954"><ele>1072.5</ele><time>2026-05-01T13:40:06.422Z</time></trkpt><trkpt lat="46.930982374088266" lon="11.448720768831537"><ele>1090.0</ele><time>2026-05-01T13:40:07.399Z</time></trkpt><trkpt lat="46.93121847586671" lon="11.448664790901805"><ele>1090.0</ele><time>2026-05-01T13:40:08.413Z</time></trkpt><trkpt lat="46.93145500853038" lon="11.44860869221423"><ele>1090.0</ele><time>2026-05-01T13:40:09.401Z</time></trkpt><trkpt lat="46.93169401665579" lon="11.448549617295388"><ele>1087.0</ele><time>2026-05-01T13:40:10.422Z</time></trkpt><trkpt lat="46.93195415762361" lon="11.44847559721115"><ele>1084.0</ele><time>2026-05-01T13:40:11.414Z</time></trkpt><trkpt lat="46.932187054363396" lon="11.448389290642714"><ele>1084.0</ele><time>2026-05-01T13:40:12.414Z</time></trkpt><trkpt lat="46.93242017962209" lon="11.448305562164002"><ele>1084.0</ele><time>2026-05-01T13:40:13.42Z</time></trkpt><trkpt lat="46.93265278524841" lon="11.448222881460717"><ele>1085.0</ele><time>2026-05-01T13:40:14.414Z</time></trkpt><trkpt lat="46.93294722697022" lon="11.44809898996479"><ele>1086.0</ele><time>2026-05-01T13:40:15.419Z</time></trkpt><trkpt lat="46.933197154763114" lon="11.447903492983713"><ele>1086.0</ele><time>2026-05-01T13:40:16.415Z</time></trkpt><trkpt lat="46.933249599999996" lon="11.447302583333332"><ele>1086.0</ele><time>2026-05-01T13:40:17.414Z</time></trkpt><trkpt lat="46.93298535000001" lon="11.448459016666666"><ele>1086.0</ele><time>2026-05-01T13:40:18.419Z</time></trkpt><trkpt lat="46.93299576666667" lon="11.448288900000001"><ele>1086.0</ele><time>2026-05-01T13:40:19.42Z</time></trkpt><trkpt lat="46.93308784999999" lon="11.448190516666667"><ele>1086.0</ele><time>2026-05-01T13:40:20.415Z</time></trkpt><trkpt lat="46.933184833333335" lon="11.448008799999998"><ele>1086.0</ele><time>2026-05-01T13:40:21.415Z</time></trkpt><trkpt lat="46.93329991666666" lon="11.4478372"><ele>1087.6666666666667</ele><time>2026-05-01T13:40:22.441Z</time></trkpt><trkpt lat="46.93340591666667" lon="11.447653666666668"><ele>1089.3333333333335</ele><time>2026-05-01T13:40:23.421Z</time></trkpt><trkpt lat="46.93351238333333" lon="11.447474283333333"><ele>1091.0</ele><time>2026-05-01T13:40:24.413Z</time></trkpt><trkpt lat="46.93362171666666" lon="11.447312949999997"><ele>1091.0</ele><time>2026-05-01T13:40:25.412Z</time></trkpt><trkpt lat="46.933727266666665" lon="11.447168616666668"><ele>1091.0</ele><time>2026-05-01T13:40:26.412Z</time></trkpt><trkpt lat="46.93383966666667" lon="11.447034216666669"><ele>1091.0</ele><time>2026-05-01T13:40:27.424Z</time></trkpt><trkpt lat="46.933957783333334" lon="11.446918733333332"><ele>1091.0</ele><time>2026-05-01T13:40:28.419Z</time></trkpt><trkpt lat="46.934079266666664" lon="11.44681595"><ele>1090.0</ele><time>2026-05-01T13:40:29.417Z</time></trkpt><trkpt lat="46.93420716666667" lon="11.44673625"><ele>1089.0</ele><time>2026-05-01T13:40:30.424Z</time></trkpt><trkpt lat="46.9343361" lon="11.446657533333333"><ele>1088.0</ele><time>2026-05-01T13:40:31.419Z</time></trkpt><trkpt lat="46.93446158333333" lon="11.446579266666667"><ele>1087.0</ele><time>2026-05-01T13:40:32.414Z</time></trkpt><trkpt lat="46.93458473333334" lon="11.446506900000003"><ele>1087.0</ele><time>2026-05-01T13:40:33.422Z</time></trkpt><trkpt lat="46.93469700000001" lon="11.446439683333331"><ele>1087.0</ele><time>2026-05-01T13:40:34.403Z</time></trkpt><trkpt lat="46.93479918333334" lon="11.446379783333335"><ele>1087.0</ele><time>2026-05-01T13:40:35.412Z</time></trkpt><trkpt lat="46.93489666666666" lon="11.446323749999998"><ele>1087.0</ele><time>2026-05-01T13:40:36.422Z</time></trkpt><trkpt lat="46.93498808333333" lon="11.446272666666667"><ele>1087.0</ele><time>2026-05-01T13:40:37.422Z</time></trkpt><trkpt lat="46.93507695" lon="11.446222599999999"><ele>1086.3333333333333</ele><time>2026-05-01T13:40:38.415Z</time></trkpt><trkpt lat="46.93515878333333" lon="11.446176833333334"><ele>1085.6666666666665</ele><time>2026-05-01T13:40:39.403Z</time></trkpt><trkpt lat="46.93522161666666" lon="11.446144066666667"><ele>1085.0</ele><time>2026-05-01T13:40:40.414Z</time></trkpt><trkpt lat="46.93530118333334" lon="11.446107849999999"><ele>1084.3333333333333</ele><time>2026-05-01T13:40:42.424Z</time></trkpt><trkpt lat="46.93539633333333" lon="11.446045900000001"><ele>1083.6666666666667</ele><time>2026-05-01T13:40:44.422Z</time></trkpt><trkpt lat="46.93547664999999" lon="11.44600065"><ele>1083.0</ele><time>2026-05-01T13:40:45.422Z</time></trkpt><trkpt lat="46.935573833333336" lon="11.4459473"><ele>1083.0</ele><time>2026-05-01T13:40:46.42Z</time></trkpt><trkpt lat="46.935678466666666" lon="11.445883233333332"><ele>1083.0</ele><time>2026-05-01T13:40:47.421Z</time></trkpt><trkpt lat="46.93578935" lon="11.445808933333335"><ele>1083.0</ele><time>2026-05-01T13:40:48.413Z</time></trkpt><trkpt lat="46.93590606666667" lon="11.445722733333332"><ele>1083.0</ele><time>2026-05-01T13:40:49.422Z</time></trkpt><trkpt lat="46.93602331666666" lon="11.445626466666665"><ele>1083.5</ele><time>2026-05-01T13:40:50.412Z</time></trkpt><trkpt lat="46.93614736666667" lon="11.445530699999999"><ele>1084.0</ele><time>2026-05-01T13:40:51.424Z</time></trkpt><trkpt lat="46.93626715" lon="11.445448533333336"><ele>1084.5</ele><time>2026-05-01T13:40:52.424Z</time></trkpt><trkpt lat="46.93637851666667" lon="11.445384266666666"><ele>1085.0</ele><time>2026-05-01T13:40:53.401Z</time></trkpt><trkpt lat="46.93648595" lon="11.445338133333333"><ele>1084.0</ele><time>2026-05-01T13:40:54.427Z</time></trkpt><trkpt lat="46.936598000000004" lon="11.445307600000001"><ele>1083.0</ele><time>2026-05-01T13:40:55.42Z</time></trkpt><trkpt lat="46.93671105" lon="11.445278966666669"><ele>1082.0</ele><time>2026-05-01T13:40:56.411Z</time></trkpt><trkpt lat="46.9368224" lon="11.445246266666667"><ele>1081.0</ele><time>2026-05-01T13:40:57.422Z</time></trkpt><trkpt lat="46.936934766666674" lon="11.445207799999999"><ele>1081.0</ele><time>2026-05-01T13:40:58.415Z</time></trkpt><trkpt lat="46.93704733333334" lon="11.445162116666665"><ele>1081.0</ele><time>2026-05-01T13:40:59.431Z</time></trkpt><trkpt lat="46.93715485" lon="11.4451064"><ele>1081.0</ele><time>2026-05-01T13:41:00.415Z</time></trkpt><trkpt lat="46.937259250000004" lon="11.445040466666667"><ele>1081.0</ele><time>2026-05-01T13:41:01.42Z</time></trkpt><trkpt lat="46.93736189999999" lon="11.444966333333332"><ele>1081.0</ele><time>2026-05-01T13:41:02.417Z</time></trkpt><trkpt lat="46.937463449999996" lon="11.444884100000001"><ele>1081.0</ele><time>2026-05-01T13:41:03.403Z</time></trkpt><trkpt lat="46.93756376666667" lon="11.444800883333334"><ele>1081.0</ele><time>2026-05-01T13:41:04.421Z</time></trkpt><trkpt lat="46.93766403333334" lon="11.444725366666669"><ele>1081.0</ele><time>2026-05-01T13:41:05.431Z</time></trkpt><trkpt lat="46.93776316666668" lon="11.444662983333334"><ele>1081.6</ele><time>2026-05-01T13:41:06.422Z</time></trkpt><trkpt lat="46.937858883333334" lon="11.444604633333332"><ele>1082.1999999999998</ele><time>2026-05-01T13:41:07.432Z</time></trkpt><trkpt lat="46.93795393333333" lon="11.444561883333332"><ele>1082.8000000000002</ele><time>2026-05-01T13:41:08.422Z</time></trkpt><trkpt lat="46.93804898333333" lon="11.444553749999999"><ele>1083.4</ele><time>2026-05-01T13:41:09.419Z</time></trkpt><trkpt lat="46.93814031666667" lon="11.444582283333334"><ele>1084.0</ele><time>2026-05-01T13:41:10.421Z</time></trkpt><trkpt lat="46.93819118434577" lon="11.444670283214867"><ele>1084.8</ele><time>2026-05-01T13:41:11.412Z</time></trkpt><trkpt lat="46.938217273103376" lon="11.444774218020019"><ele>1085.6000000000001</ele><time>2026-05-01T13:41:12.403Z</time></trkpt><trkpt lat="46.938243704972514" lon="11.4448988509156"><ele>1086.4</ele><time>2026-05-01T13:41:13.421Z</time></trkpt><trkpt lat="46.93826760173344" lon="11.445036961444323"><ele>1087.2</ele><time>2026-05-01T13:41:14.416Z</time></trkpt><trkpt lat="46.938310000384796" lon="11.445177377753673"><ele>1088.0</ele><time>2026-05-01T13:41:15.423Z</time></trkpt><trkpt lat="46.9383740625605" lon="11.44530548170051"><ele>1089.8</ele><time>2026-05-01T13:41:16.41Z</time></trkpt><trkpt lat="46.93845369298423" lon="11.445422551644821"><ele>1091.6</ele><time>2026-05-01T13:41:17.414Z</time></trkpt><trkpt lat="46.93852743642277" lon="11.445522658342135"><ele>1093.4</ele><time>2026-05-01T13:41:18.422Z</time></trkpt><trkpt lat="46.93859250498469" lon="11.445621796051803"><ele>1095.2</ele><time>2026-05-01T13:41:19.421Z</time></trkpt><trkpt lat="46.938649506706206" lon="11.445725982465639"><ele>1097.0</ele><time>2026-05-01T13:41:20.412Z</time></trkpt><trkpt lat="46.938695923261946" lon="11.445826543190837"><ele>1097.2</ele><time>2026-05-01T13:41:21.399Z</time></trkpt><trkpt lat="46.9387364406737" lon="11.445934264955296"><ele>1097.4</ele><time>2026-05-01T13:41:22.422Z</time></trkpt><trkpt lat="46.93882551666667" lon="11.446012266666665"><ele>1097.6</ele><time>2026-05-01T13:41:23.413Z</time></trkpt><trkpt lat="46.93886848333333" lon="11.446129033333333"><ele>1097.8</ele><time>2026-05-01T13:41:24.4Z</time></trkpt><trkpt lat="46.93891149999999" lon="11.446247483333332"><ele>1098.0</ele><time>2026-05-01T13:41:25.408Z</time></trkpt><trkpt lat="46.938952566666664" lon="11.446362683333332"><ele>1099.2</ele><time>2026-05-01T13:41:26.414Z</time></trkpt><trkpt lat="46.938948531018696" lon="11.446516405056228"><ele>1100.4</ele><time>2026-05-01T13:41:27.425Z</time></trkpt><trkpt lat="46.939005337403245" lon="11.446627843375015"><ele>1101.6000000000001</ele><time>2026-05-01T13:41:28.42Z</time></trkpt><trkpt lat="46.939079458993405" lon="11.446742851184329"><ele>1102.8</ele><time>2026-05-01T13:41:29.414Z</time></trkpt><trkpt lat="46.93918273717938" lon="11.446863834423247"><ele>1104.0</ele><time>2026-05-01T13:41:30.406Z</time></trkpt><trkpt lat="46.93934381666666" lon="11.446906133333336"><ele>1109.3333333333333</ele><time>2026-05-01T13:41:31.419Z</time></trkpt><trkpt lat="46.93949881666667" lon="11.447027666666669"><ele>1114.6666666666665</ele><time>2026-05-01T13:41:32.416Z</time></trkpt><trkpt lat="46.93968038333334" lon="11.447151899999998"><ele>1120.0</ele><time>2026-05-01T13:41:33.415Z</time></trkpt><trkpt lat="46.93988301666667" lon="11.44728"><ele>1125.0</ele><time>2026-05-01T13:41:34.401Z</time></trkpt><trkpt lat="46.940103283333336" lon="11.447407083333333"><ele>1130.0</ele><time>2026-05-01T13:41:35.419Z</time></trkpt><trkpt lat="46.94034188333334" lon="11.447534616666667"><ele>1130.0</ele><time>2026-05-01T13:41:36.422Z</time></trkpt><trkpt lat="46.94058844999999" lon="11.447659983333333"><ele>1130.0</ele><time>2026-05-01T13:41:37.4Z</time></trkpt><trkpt lat="46.9408359" lon="11.447759866666669"><ele>1132.0</ele><time>2026-05-01T13:41:38.42Z</time></trkpt><trkpt lat="46.941083316666656" lon="11.447832616666668"><ele>1134.0</ele><time>2026-05-01T13:41:39.419Z</time></trkpt><trkpt lat="46.94131908333334" lon="11.44790095"><ele>1134.0</ele><time>2026-05-01T13:41:40.42Z</time></trkpt><trkpt lat="46.94154125" lon="11.447937950000002"><ele>1134.0</ele><time>2026-05-01T13:41:41.416Z</time></trkpt><trkpt lat="46.94175898333333" lon="11.447938716666666"><ele>1134.0</ele><time>2026-05-01T13:41:42.424Z</time></trkpt><trkpt lat="46.94197603333334" lon="11.4479303"><ele>1137.0</ele><time>2026-05-01T13:41:43.403Z</time></trkpt><trkpt lat="46.94219374999999" lon="11.447941566666668"><ele>1140.0</ele><time>2026-05-01T13:41:44.418Z</time></trkpt><trkpt lat="46.942421033333325" lon="11.44798515"><ele>1143.0</ele><time>2026-05-01T13:41:45.418Z</time></trkpt><trkpt lat="46.94265203333333" lon="11.44806915"><ele>1144.5</ele><time>2026-05-01T13:41:46.398Z</time></trkpt><trkpt lat="46.94288128333333" lon="11.448167066666667"><ele>1146.0</ele><time>2026-05-01T13:41:47.42Z</time></trkpt><trkpt lat="46.9431111" lon="11.448283583333334"><ele>1146.0</ele><time>2026-05-01T13:41:48.417Z</time></trkpt><trkpt lat="46.94334495" lon="11.448423700000001"><ele>1146.0</ele><time>2026-05-01T13:41:49.419Z</time></trkpt><trkpt lat="46.94357217341877" lon="11.448609807840764"><ele>1153.0</ele><time>2026-05-01T13:41:50.4Z</time></trkpt><trkpt lat="46.94381448545392" lon="11.448775937210835"><ele>1160.0</ele><time>2026-05-01T13:41:51.423Z</time></trkpt><trkpt lat="46.9440589498378" lon="11.448926102628375"><ele>1166.0</ele><time>2026-05-01T13:41:52.415Z</time></trkpt><trkpt lat="46.94428464956684" lon="11.449096430209462"><ele>1172.0</ele><time>2026-05-01T13:41:53.4Z</time></trkpt><trkpt lat="46.94449301140643" lon="11.449248247282206"><ele>1172.0</ele><time>2026-05-01T13:41:54.422Z</time></trkpt><trkpt lat="46.94468032129014" lon="11.449393219359292"><ele>1172.0</ele><time>2026-05-01T13:41:55.421Z</time></trkpt><trkpt lat="46.944838014197806" lon="11.44957062205332"><ele>1172.0</ele><time>2026-05-01T13:41:56.415Z</time></trkpt><trkpt lat="46.94498881985708" lon="11.449778469340117"><ele>1170.6666666666667</ele><time>2026-05-01T13:41:57.415Z</time></trkpt><trkpt lat="46.94513583802036" lon="11.449985467573674"><ele>1169.3333333333333</ele><time>2026-05-01T13:41:58.428Z</time></trkpt><trkpt lat="46.945287556523795" lon="11.450196682485958"><ele>1168.0</ele><time>2026-05-01T13:41:59.414Z</time></trkpt><trkpt lat="46.94546921441866" lon="11.450362716470783"><ele>1171.0</ele><time>2026-05-01T13:42:00.423Z</time></trkpt><trkpt lat="46.945671380327504" lon="11.450497464537953"><ele>1174.0</ele><time>2026-05-01T13:42:01.419Z</time></trkpt><trkpt lat="46.945889866499485" lon="11.450616983963373"><ele>1174.0</ele><time>2026-05-01T13:42:02.412Z</time></trkpt><trkpt lat="46.94611935411207" lon="11.450736687993157"><ele>1174.0</ele><time>2026-05-01T13:42:03.422Z</time></trkpt><trkpt lat="46.94635736321829" lon="11.45086192736879"><ele>1174.0</ele><time>2026-05-01T13:42:04.42Z</time></trkpt><trkpt lat="46.94659343939173" lon="11.450984567282845"><ele>1174.0</ele><time>2026-05-01T13:42:05.417Z</time></trkpt><trkpt lat="46.946818801797725" lon="11.451103456620856"><ele>1175.5</ele><time>2026-05-01T13:42:06.415Z</time></trkpt><trkpt lat="46.94703226953976" lon="11.451231272623934"><ele>1177.0</ele><time>2026-05-01T13:42:07.402Z</time></trkpt><trkpt lat="46.94723606089132" lon="11.451373778852373"><ele>1180.5</ele><time>2026-05-01T13:42:08.414Z</time></trkpt><trkpt lat="46.94744112885145" lon="11.451521583358607"><ele>1184.0</ele><time>2026-05-01T13:42:09.419Z</time></trkpt><trkpt lat="46.94765193906529" lon="11.451669953598506"><ele>1185.5</ele><time>2026-05-01T13:42:10.409Z</time></trkpt><trkpt lat="46.947875700000004" lon="11.451800600000002"><ele>1187.0</ele><time>2026-05-01T13:42:11.4Z</time></trkpt><trkpt lat="46.94809695" lon="11.451962616666666"><ele>1191.5</ele><time>2026-05-01T13:42:12.425Z</time></trkpt><trkpt lat="46.948322833333336" lon="11.452130216666669"><ele>1196.0</ele><time>2026-05-01T13:42:13.419Z</time></trkpt><trkpt lat="46.948551650000006" lon="11.452294383333333"><ele>1196.0</ele><time>2026-05-01T13:42:14.413Z</time></trkpt><trkpt lat="46.94877656666666" lon="11.4524517"><ele>1196.0</ele><time>2026-05-01T13:42:15.401Z</time></trkpt><trkpt lat="46.94899765" lon="11.45260258333333"><ele>1195.5</ele><time>2026-05-01T13:42:16.402Z</time></trkpt><trkpt lat="46.94921513333334" lon="11.452736166666666"><ele>1195.0</ele><time>2026-05-01T13:42:17.415Z</time></trkpt><trkpt lat="46.94943045" lon="11.452848366666668"><ele>1195.0</ele><time>2026-05-01T13:42:18.43Z</time></trkpt><trkpt lat="46.94964461666667" lon="11.452944116666666"><ele>1195.0</ele><time>2026-05-01T13:42:19.413Z</time></trkpt><trkpt lat="46.94985268333333" lon="11.453036016666665"><ele>1195.0</ele><time>2026-05-01T13:42:20.399Z</time></trkpt><trkpt lat="46.950052133333344" lon="11.453125216666667"><ele>1197.0</ele><time>2026-05-01T13:42:21.423Z</time></trkpt><trkpt lat="46.950243433333334" lon="11.453204483333332"><ele>1199.0</ele><time>2026-05-01T13:42:22.422Z</time></trkpt><trkpt lat="46.950431716666664" lon="11.453264566666666"><ele>1201.0</ele><time>2026-05-01T13:42:23.398Z</time></trkpt><trkpt lat="46.95061358333334" lon="11.453291316666665"><ele>1201.0</ele><time>2026-05-01T13:42:24.41Z</time></trkpt><trkpt lat="46.950791366666664" lon="11.453309883333333"><ele>1201.0</ele><time>2026-05-01T13:42:25.409Z</time></trkpt><trkpt lat="46.950968100000004" lon="11.453352700000002"><ele>1201.0</ele><time>2026-05-01T13:42:26.398Z</time></trkpt><trkpt lat="46.951141266666674" lon="11.453435316666665"><ele>1202.3333333333333</ele><time>2026-05-01T13:42:27.423Z</time></trkpt><trkpt lat="46.95130149105982" lon="11.45358222845849"><ele>1203.6666666666667</ele><time>2026-05-01T13:42:28.398Z</time></trkpt><trkpt lat="46.95145122341401" lon="11.453764042973221"><ele>1205.0</ele><time>2026-05-01T13:42:29.398Z</time></trkpt><trkpt lat="46.95159122579706" lon="11.453986635409438"><ele>1209.0</ele><time>2026-05-01T13:42:30.441Z</time></trkpt><trkpt lat="46.95174322924067" lon="11.454214880289028"><ele>1213.0</ele><time>2026-05-01T13:42:31.419Z</time></trkpt><trkpt lat="46.9519104837003" lon="11.454431842321075"><ele>1217.0</ele><time>2026-05-01T13:42:32.416Z</time></trkpt><trkpt lat="46.95208285375998" lon="11.454652810925376"><ele>1217.0</ele><time>2026-05-01T13:42:33.42Z</time></trkpt><trkpt lat="46.95225945735588" lon="11.454882628750372"><ele>1217.0</ele><time>2026-05-01T13:42:34.402Z</time></trkpt><trkpt lat="46.95243919428288" lon="11.455112021591965"><ele>1213.5</ele><time>2026-05-01T13:42:35.414Z</time></trkpt><trkpt lat="46.95261632538443" lon="11.455339953767519"><ele>1210.0</ele><time>2026-05-01T13:42:36.42Z</time></trkpt><trkpt lat="46.952788921645066" lon="11.455566658538421"><ele>1210.0</ele><time>2026-05-01T13:42:37.4Z</time></trkpt><trkpt lat="46.95296513588159" lon="11.455774706523721"><ele>1210.0</ele><time>2026-05-01T13:42:38.41Z</time></trkpt><trkpt lat="46.95316601068589" lon="11.455927057572795"><ele>1216.0</ele><time>2026-05-01T13:42:39.423Z</time></trkpt><trkpt lat="46.953378125593986" lon="11.456029172235796"><ele>1222.0</ele><time>2026-05-01T13:42:40.403Z</time></trkpt><trkpt lat="46.95359378380571" lon="11.456090733904308"><ele>1228.0</ele><time>2026-05-01T13:42:41.414Z</time></trkpt><trkpt lat="46.9538151" lon="11.456104533333333"><ele>1228.0</ele><time>2026-05-01T13:42:42.423Z</time></trkpt><trkpt lat="46.95403795000001" lon="11.456135950000002"><ele>1228.0</ele><time>2026-05-01T13:42:43.403Z</time></trkpt><trkpt lat="46.95426848333333" lon="11.456161583333335"><ele>1236.5</ele><time>2026-05-01T13:42:44.4Z</time></trkpt><trkpt lat="46.95450446666667" lon="11.456182266666668"><ele>1245.0</ele><time>2026-05-01T13:42:45.423Z</time></trkpt><trkpt lat="46.95474513333334" lon="11.456203166666667"><ele>1245.0</ele><time>2026-05-01T13:42:46.419Z</time></trkpt><trkpt lat="46.95498564999999" lon="11.456223783333332"><ele>1245.0</ele><time>2026-05-01T13:42:47.421Z</time></trkpt><trkpt lat="46.955228716666674" lon="11.456247066666666"><ele>1253.0</ele><time>2026-05-01T13:42:48.419Z</time></trkpt><trkpt lat="46.955469949999994" lon="11.456274083333335"><ele>1261.0</ele><time>2026-05-01T13:42:49.4Z</time></trkpt><trkpt lat="46.95570538333333" lon="11.456296916666668"><ele>1254.6666666666665</ele><time>2026-05-01T13:42:50.412Z</time></trkpt><trkpt lat="46.955918649999994" lon="11.45631503333333"><ele>1248.3333333333333</ele><time>2026-05-01T13:42:51.423Z</time></trkpt><trkpt lat="46.956105150000006" lon="11.45633023333333"><ele>1242.0</ele><time>2026-05-01T13:42:52.406Z</time></trkpt><trkpt lat="46.95626593333333" lon="11.456354233333332"><ele>1242.0</ele><time>2026-05-01T13:42:53.413Z</time></trkpt><trkpt lat="46.95639514999999" lon="11.456408583333333"><ele>1242.0</ele><time>2026-05-01T13:42:54.399Z</time></trkpt><trkpt lat="46.95648503333334" lon="11.456509083333332"><ele>1242.0</ele><time>2026-05-01T13:42:55.398Z</time></trkpt><trkpt lat="46.95653181666667" lon="11.456654133333332"><ele>1242.0</ele><time>2026-05-01T13:42:56.413Z</time></trkpt><trkpt lat="46.95653248333333" lon="11.45682235"><ele>1242.0</ele><time>2026-05-01T13:42:57.423Z</time></trkpt><trkpt lat="46.956479599999994" lon="11.456978699999997"><ele>1242.0</ele><time>2026-05-01T13:42:58.42Z</time></trkpt><trkpt lat="46.95638661666666" lon="11.457081166666667"><ele>1242.0</ele><time>2026-05-01T13:42:59.413Z</time></trkpt><trkpt lat="46.956270499999995" lon="11.457121583333333"><ele>1242.0</ele><time>2026-05-01T13:43:00.414Z</time></trkpt><trkpt lat="46.95613423333333" lon="11.457114500000001"><ele>1242.0</ele><time>2026-05-01T13:43:01.407Z</time></trkpt><trkpt lat="46.95597875" lon="11.457091433333336"><ele>1242.0</ele><time>2026-05-01T13:43:02.415Z</time></trkpt><trkpt lat="46.95579920000001" lon="11.457072783333334"><ele>1242.0</ele><time>2026-05-01T13:43:03.399Z</time></trkpt><trkpt lat="46.95559811666667" lon="11.457053183333334"><ele>1234.0</ele><time>2026-05-01T13:43:04.4Z</time></trkpt><trkpt lat="46.9553842" lon="11.457029916666666"><ele>1226.0</ele><time>2026-05-01T13:43:05.412Z</time></trkpt><trkpt lat="46.955180366666674" lon="11.45700665"><ele>1218.0</ele><time>2026-05-01T13:43:06.419Z</time></trkpt><trkpt lat="46.954991850000006" lon="11.456982316666666"><ele>1218.0</ele><time>2026-05-01T13:43:07.399Z</time></trkpt><trkpt lat="46.95482303333333" lon="11.456957083333336"><ele>1218.0</ele><time>2026-05-01T13:43:08.413Z</time></trkpt><trkpt lat="46.95465655" lon="11.4569536"><ele>1218.0</ele><time>2026-05-01T13:43:09.417Z</time></trkpt><trkpt lat="46.95450606666667" lon="11.456995566666668"><ele>1218.0</ele><time>2026-05-01T13:43:10.398Z</time></trkpt><trkpt lat="46.95439195000001" lon="11.45710175"><ele>1218.0</ele><time>2026-05-01T13:43:11.404Z</time></trkpt><trkpt lat="46.95432405" lon="11.457254933333335"><ele>1218.0</ele><time>2026-05-01T13:43:12.423Z</time></trkpt><trkpt lat="46.95431228333334" lon="11.457421933333334"><ele>1218.0</ele><time>2026-05-01T13:43:13.398Z</time></trkpt><trkpt lat="46.95433985442547" lon="11.457600997943816"><ele>1222.3333333333333</ele><time>2026-05-01T13:43:14.421Z</time></trkpt><trkpt lat="46.954435448047406" lon="11.457749042748528"><ele>1226.6666666666665</ele><time>2026-05-01T13:43:15.419Z</time></trkpt><trkpt lat="46.954574799999996" lon="11.457820066666665"><ele>1231.0</ele><time>2026-05-01T13:43:16.419Z</time></trkpt><trkpt lat="46.954735" lon="11.457869383333332"><ele>1231.0</ele><time>2026-05-01T13:43:17.416Z</time></trkpt><trkpt lat="46.95491421666667" lon="11.457905216666665"><ele>1231.0</ele><time>2026-05-01T13:43:18.422Z</time></trkpt><trkpt lat="46.955109033333336" lon="11.4579551"><ele>1231.0</ele><time>2026-05-01T13:43:19.414Z</time></trkpt><trkpt lat="46.95532043333333" lon="11.458024333333334"><ele>1229.3333333333333</ele><time>2026-05-01T13:43:20.412Z</time></trkpt><trkpt lat="46.9555348" lon="11.458115766666666"><ele>1227.6666666666667</ele><time>2026-05-01T13:43:21.419Z</time></trkpt><trkpt lat="46.95573885" lon="11.458224666666666"><ele>1226.0</ele><time>2026-05-01T13:43:22.399Z</time></trkpt><trkpt lat="46.95592868333333" lon="11.458339433333332"><ele>1226.0</ele><time>2026-05-01T13:43:23.413Z</time></trkpt><trkpt lat="46.95610356666666" lon="11.458466566666669"><ele>1226.0</ele><time>2026-05-01T13:43:24.418Z</time></trkpt><trkpt lat="46.95626905" lon="11.458614749999999"><ele>1226.0</ele><time>2026-05-01T13:43:25.401Z</time></trkpt><trkpt lat="46.95642036666667" lon="11.458785333333331"><ele>1228.3333333333335</ele><time>2026-05-01T13:43:26.414Z</time></trkpt><trkpt lat="46.956556049999996" lon="11.458982"><ele>1230.6666666666667</ele><time>2026-05-01T13:43:27.423Z</time></trkpt><trkpt lat="46.956678333333336" lon="11.459196999999998"><ele>1233.0</ele><time>2026-05-01T13:43:28.417Z</time></trkpt><trkpt lat="46.956809066666665" lon="11.459411616666667"><ele>1238.6666666666667</ele><time>2026-05-01T13:43:29.413Z</time></trkpt><trkpt lat="46.95694029999999" lon="11.459626883333332"><ele>1244.3333333333335</ele><time>2026-05-01T13:43:30.423Z</time></trkpt><trkpt lat="46.957059583333326" lon="11.4598443"><ele>1250.0</ele><time>2026-05-01T13:43:31.398Z</time></trkpt><trkpt lat="46.957184483333336" lon="11.460058116666668"><ele>1250.0</ele><time>2026-05-01T13:43:32.416Z</time></trkpt><trkpt lat="46.9573154" lon="11.460260100000001"><ele>1250.0</ele><time>2026-05-01T13:43:33.415Z</time></trkpt><trkpt lat="46.9574636" lon="11.460438183333334"><ele>1250.0</ele><time>2026-05-01T13:43:34.399Z</time></trkpt><trkpt lat="46.9576272" lon="11.460575950000003"><ele>1252.0</ele><time>2026-05-01T13:43:35.412Z</time></trkpt><trkpt lat="46.957798016666665" lon="11.460675083333335"><ele>1254.0</ele><time>2026-05-01T13:43:36.398Z</time></trkpt><trkpt lat="46.95796788333334" lon="11.4607557"><ele>1256.0</ele><time>2026-05-01T13:43:37.413Z</time></trkpt><trkpt lat="46.95812826666668" lon="11.460830433333333"><ele>1256.0</ele><time>2026-05-01T13:43:38.414Z</time></trkpt><trkpt lat="46.958281533333334" lon="11.460919716666668"><ele>1256.0</ele><time>2026-05-01T13:43:39.423Z</time></trkpt><trkpt lat="46.958429433333336" lon="11.46104555"><ele>1256.0</ele><time>2026-05-01T13:43:40.421Z</time></trkpt><trkpt lat="46.958568433333326" lon="11.461205583333333"><ele>1260.0</ele><time>2026-05-01T13:43:41.413Z</time></trkpt><trkpt lat="46.95869518333334" lon="11.461387633333333"><ele>1264.0</ele><time>2026-05-01T13:43:42.401Z</time></trkpt><trkpt lat="46.95881888333333" lon="11.461579983333335"><ele>1268.0</ele><time>2026-05-01T13:43:43.42Z</time></trkpt><trkpt lat="46.958945666666665" lon="11.461779566666666"><ele>1268.0</ele><time>2026-05-01T13:43:44.399Z</time></trkpt><trkpt lat="46.95907756666667" lon="11.461977416666665"><ele>1268.0</ele><time>2026-05-01T13:43:45.423Z</time></trkpt><trkpt lat="46.95921608333333" lon="11.462164166666666"><ele>1268.0</ele><time>2026-05-01T13:43:46.403Z</time></trkpt><trkpt lat="46.95936585" lon="11.462343083333334"><ele>1270.0</ele><time>2026-05-01T13:43:47.416Z</time></trkpt><trkpt lat="46.95953001666667" lon="11.462505416666666"><ele>1272.0</ele><time>2026-05-01T13:43:48.42Z</time></trkpt><trkpt lat="46.95970926666667" lon="11.462648133333333"><ele>1274.0</ele><time>2026-05-01T13:43:49.421Z</time></trkpt><trkpt lat="46.95989946666667" lon="11.462768850000002"><ele>1272.6666666666667</ele><time>2026-05-01T13:43:50.414Z</time></trkpt><trkpt lat="46.96009613333334" lon="11.462867766666667"><ele>1271.3333333333333</ele><time>2026-05-01T13:43:51.403Z</time></trkpt><trkpt lat="46.9602937" lon="11.462952233333333"><ele>1270.0</ele><time>2026-05-01T13:43:52.403Z</time></trkpt><trkpt lat="46.96048853333334" lon="11.463027966666669"><ele>1275.6666666666665</ele><time>2026-05-01T13:43:53.4Z</time></trkpt><trkpt lat="46.96068296666667" lon="11.463099399999997"><ele>1281.3333333333333</ele><time>2026-05-01T13:43:54.423Z</time></trkpt><trkpt lat="46.96087868333334" lon="11.463157566666666"><ele>1287.0</ele><time>2026-05-01T13:43:55.413Z</time></trkpt><trkpt lat="46.96107501666667" lon="11.463189966666668"><ele>1287.0</ele><time>2026-05-01T13:43:56.398Z</time></trkpt><trkpt lat="46.96126986666667" lon="11.463193983333335"><ele>1287.0</ele><time>2026-05-01T13:43:57.426Z</time></trkpt><trkpt lat="46.961464033333336" lon="11.463182883333332"><ele>1287.0</ele><time>2026-05-01T13:43:58.42Z</time></trkpt><trkpt lat="46.96165181666667" lon="11.463162566666666"><ele>1289.3333333333333</ele><time>2026-05-01T13:43:59.415Z</time></trkpt><trkpt lat="46.96183948333334" lon="11.463142249999999"><ele>1291.6666666666665</ele><time>2026-05-01T13:44:00.41Z</time></trkpt><trkpt lat="46.96202553333333" lon="11.463112866666666"><ele>1294.0</ele><time>2026-05-01T13:44:01.4Z</time></trkpt><trkpt lat="46.96220145000001" lon="11.463059133333337"><ele>1294.0</ele><time>2026-05-01T13:44:02.414Z</time></trkpt><trkpt lat="46.96237656666667" lon="11.463028883333335"><ele>1294.0</ele><time>2026-05-01T13:44:03.42Z</time></trkpt><trkpt lat="46.96254019989985" lon="11.463126721664388"><ele>1294.0</ele><time>2026-05-01T13:44:04.401Z</time></trkpt><trkpt lat="46.962694758018706" lon="11.463177528029192"><ele>1295.6666666666665</ele><time>2026-05-01T13:44:05.408Z</time></trkpt><trkpt lat="46.96284461331914" lon="11.46325968964491"><ele>1297.3333333333333</ele><time>2026-05-01T13:44:06.428Z</time></trkpt><trkpt lat="46.962990903902195" lon="11.463376075274265"><ele>1299.0</ele><time>2026-05-01T13:44:07.4Z</time></trkpt><trkpt lat="46.96312943767116" lon="11.463525027766229"><ele>1299.0</ele><time>2026-05-01T13:44:08.414Z</time></trkpt><trkpt lat="46.963272433934755" lon="11.463699865014288"><ele>1299.0</ele><time>2026-05-01T13:44:09.42Z</time></trkpt><trkpt lat="46.96341965863969" lon="11.46388134121189"><ele>1299.0</ele><time>2026-05-01T13:44:10.417Z</time></trkpt><trkpt lat="46.96357328673403" lon="11.464072339073045"><ele>1299.3333333333333</ele><time>2026-05-01T13:44:11.413Z</time></trkpt><trkpt lat="46.96373661798997" lon="11.464275473625275"><ele>1299.6666666666665</ele><time>2026-05-01T13:44:12.4Z</time></trkpt><trkpt lat="46.963914162746" lon="11.464493289283835"><ele>1300.0</ele><time>2026-05-01T13:44:13.42Z</time></trkpt><trkpt lat="46.96410693111926" lon="11.464726081866615"><ele>1298.5</ele><time>2026-05-01T13:44:14.404Z</time></trkpt><trkpt lat="46.96432197455893" lon="11.464970402056572"><ele>1297.0</ele><time>2026-05-01T13:44:15.405Z</time></trkpt><trkpt lat="46.964553626778944" lon="11.465223975608161"><ele>1295.5</ele><time>2026-05-01T13:44:16.42Z</time></trkpt><trkpt lat="46.96479565489568" lon="11.465496225889085"><ele>1294.0</ele><time>2026-05-01T13:44:17.416Z</time></trkpt><trkpt lat="46.965046145892934" lon="11.465799681474799"><ele>1294.0</ele><time>2026-05-01T13:44:18.42Z</time></trkpt><trkpt lat="46.96530500356564" lon="11.466119472114286"><ele>1294.0</ele><time>2026-05-01T13:44:19.4Z</time></trkpt><trkpt lat="46.965573391413315" lon="11.466446741618967"><ele>1295.5</ele><time>2026-05-01T13:44:20.417Z</time></trkpt><trkpt lat="46.96584636233722" lon="11.466786164335717"><ele>1297.0</ele><time>2026-05-01T13:44:21.4Z</time></trkpt><trkpt lat="46.966125464899896" lon="11.467131132416673"><ele>1297.0</ele><time>2026-05-01T13:44:22.4Z</time></trkpt><trkpt lat="46.966395674202396" lon="11.467463416082825"><ele>1297.0</ele><time>2026-05-01T13:44:23.413Z</time></trkpt><trkpt lat="46.96664827941852" lon="11.467774663043096"><ele>1298.5</ele><time>2026-05-01T13:44:24.407Z</time></trkpt><trkpt lat="46.966889388216885" lon="11.468071868801534"><ele>1300.0</ele><time>2026-05-01T13:44:25.418Z</time></trkpt><trkpt lat="46.96712799079636" lon="11.468366976234824"><ele>1300.0</ele><time>2026-05-01T13:44:26.412Z</time></trkpt><trkpt lat="46.96736456880484" lon="11.468659851687516"><ele>1300.0</ele><time>2026-05-01T13:44:27.424Z</time></trkpt><trkpt lat="46.96759897314352" lon="11.468950116694817"><ele>1299.5</ele><time>2026-05-01T13:44:28.418Z</time></trkpt><trkpt lat="46.96783284281825" lon="11.469238979288535"><ele>1299.0</ele><time>2026-05-01T13:44:29.401Z</time></trkpt><trkpt lat="46.96806694820333" lon="11.469528133017942"><ele>1300.0</ele><time>2026-05-01T13:44:30.403Z</time></trkpt><trkpt lat="46.968303415511144" lon="11.469820488677762"><ele>1301.0</ele><time>2026-05-01T13:44:31.42Z</time></trkpt><trkpt lat="46.96854209091414" lon="11.470116404880738"><ele>1301.0</ele><time>2026-05-01T13:44:32.416Z</time></trkpt><trkpt lat="46.968782333820904" lon="11.470414264518645"><ele>1301.0</ele><time>2026-05-01T13:44:33.399Z</time></trkpt><trkpt lat="46.96902367226807" lon="11.470712780349924"><ele>1302.0</ele><time>2026-05-01T13:44:34.419Z</time></trkpt><trkpt lat="46.96926501396467" lon="11.471010921855484"><ele>1303.0</ele><time>2026-05-01T13:44:35.416Z</time></trkpt><trkpt lat="46.969506439984734" lon="11.471309245784687"><ele>1303.0</ele><time>2026-05-01T13:44:36.419Z</time></trkpt><trkpt lat="46.969747137378896" lon="11.471608493308157"><ele>1303.0</ele><time>2026-05-01T13:44:37.41Z</time></trkpt><trkpt lat="46.96998660800426" lon="11.471906667576176"><ele>1303.0</ele><time>2026-05-01T13:44:38.441Z</time></trkpt><trkpt lat="46.970226278985045" lon="11.472205232187246"><ele>1303.0</ele><time>2026-05-01T13:44:39.424Z</time></trkpt><trkpt lat="46.97047623333333" lon="11.472482566666667"><ele>1303.0</ele><time>2026-05-01T13:44:40.452Z</time></trkpt><trkpt lat="46.970714949999994" lon="11.47278"><ele>1303.0</ele><time>2026-05-01T13:44:41.407Z</time></trkpt><trkpt lat="46.970952999999994" lon="11.473073866666667"><ele>1303.5</ele><time>2026-05-01T13:44:42.427Z</time></trkpt><trkpt lat="46.97118735" lon="11.473369433333335"><ele>1304.0</ele><time>2026-05-01T13:44:43.455Z</time></trkpt><trkpt lat="46.97141601666667" lon="11.473671283333333"><ele>1303.5</ele><time>2026-05-01T13:44:44.442Z</time></trkpt><trkpt lat="46.971641749999996" lon="11.473972066666665"><ele>1303.0</ele><time>2026-05-01T13:44:45.402Z</time></trkpt><trkpt lat="46.97186751666666" lon="11.474274116666667"><ele>1303.0</ele><time>2026-05-01T13:44:46.399Z</time></trkpt><trkpt lat="46.97209383333334" lon="11.474573300000001"><ele>1303.0</ele><time>2026-05-01T13:44:47.4Z</time></trkpt><trkpt lat="46.972317666666676" lon="11.474873466666669"><ele>1303.5</ele><time>2026-05-01T13:44:48.42Z</time></trkpt><trkpt lat="46.97254013333333" lon="11.47517625"><ele>1304.0</ele><time>2026-05-01T13:44:49.417Z</time></trkpt><trkpt lat="46.97276286666667" lon="11.4754735"><ele>1304.0</ele><time>2026-05-01T13:44:50.405Z</time></trkpt><trkpt lat="46.972985249999994" lon="11.475765783333333"><ele>1304.0</ele><time>2026-05-01T13:44:51.445Z</time></trkpt><trkpt lat="46.97320753333334" lon="11.476054866666667"><ele>1306.0</ele><time>2026-05-01T13:44:52.419Z</time></trkpt><trkpt lat="46.973425283333334" lon="11.476344549999999"><ele>1308.0</ele><time>2026-05-01T13:44:53.401Z</time></trkpt><trkpt lat="46.97363529999999" lon="11.476632700000001"><ele>1308.0</ele><time>2026-05-01T13:44:54.419Z</time></trkpt><trkpt lat="46.97383190000001" lon="11.476901666666667"><ele>1308.0</ele><time>2026-05-01T13:44:55.42Z</time></trkpt><trkpt lat="46.974017316666675" lon="11.477154766666668"><ele>1307.5</ele><time>2026-05-01T13:44:56.416Z</time></trkpt><trkpt lat="46.974193866666674" lon="11.477418616666666"><ele>1307.0</ele><time>2026-05-01T13:44:57.424Z</time></trkpt><trkpt lat="46.97436055" lon="11.477708716666667"><ele>1308.0</ele><time>2026-05-01T13:44:58.42Z</time></trkpt><trkpt lat="46.97452413333334" lon="11.4780149"><ele>1309.0</ele><time>2026-05-01T13:44:59.401Z</time></trkpt><trkpt lat="46.97468885" lon="11.478332483333334"><ele>1309.0</ele><time>2026-05-01T13:45:00.418Z</time></trkpt><trkpt lat="46.974853550000006" lon="11.47866405"><ele>1309.0</ele><time>2026-05-01T13:45:01.417Z</time></trkpt><trkpt lat="46.975020283333336" lon="11.479004433333333"><ele>1310.0</ele><time>2026-05-01T13:45:02.398Z</time></trkpt><trkpt lat="46.975191300000006" lon="11.479346583333331"><ele>1311.0</ele><time>2026-05-01T13:45:03.42Z</time></trkpt><trkpt lat="46.97536445" lon="11.479691533333334"><ele>1312.0</ele><time>2026-05-01T13:45:04.399Z</time></trkpt><trkpt lat="46.975533616666674" lon="11.48003285"><ele>1313.0</ele><time>2026-05-01T13:45:05.413Z</time></trkpt><trkpt lat="46.97569398333333" lon="11.480353433333335"><ele>1313.5</ele><time>2026-05-01T13:45:06.419Z</time></trkpt><trkpt lat="46.97584638333333" lon="11.480651299999998"><ele>1314.0</ele><time>2026-05-01T13:45:07.419Z</time></trkpt><trkpt lat="46.975986733333336" lon="11.480926816666665"><ele>1314.0</ele><time>2026-05-01T13:45:08.4Z</time></trkpt><trkpt lat="46.976123533333336" lon="11.481175050000001"><ele>1314.0</ele><time>2026-05-01T13:45:09.399Z</time></trkpt><trkpt lat="46.976265883333326" lon="11.4813838"><ele>1314.0</ele><time>2026-05-01T13:45:10.428Z</time></trkpt><trkpt lat="46.976419066666665" lon="11.481556716666667"><ele>1314.0</ele><time>2026-05-01T13:45:11.399Z</time></trkpt><trkpt lat="46.97659261666666" lon="11.481699533333332"><ele>1314.0</ele><time>2026-05-01T13:45:12.422Z</time></trkpt><trkpt lat="46.976786483333335" lon="11.481818166666667"><ele>1314.0</ele><time>2026-05-01T13:45:13.417Z</time></trkpt><trkpt lat="46.97699285" lon="11.481929216666668"><ele>1314.0</ele><time>2026-05-01T13:45:14.41Z</time></trkpt><trkpt lat="46.97720335" lon="11.482040133333332"><ele>1314.0</ele><time>2026-05-01T13:45:15.42Z</time></trkpt><trkpt lat="46.97741145" lon="11.482154600000001"><ele>1314.0</ele><time>2026-05-01T13:45:16.42Z</time></trkpt><trkpt lat="46.97761423333333" lon="11.482279783333334"><ele>1320.5</ele><time>2026-05-01T13:45:17.411Z</time></trkpt><trkpt lat="46.97781523333333" lon="11.4824262"><ele>1327.0</ele><time>2026-05-01T13:45:18.421Z</time></trkpt><trkpt lat="46.97801079999999" lon="11.482607483333334"><ele>1327.0</ele><time>2026-05-01T13:45:19.403Z</time></trkpt><trkpt lat="46.97819415000001" lon="11.482832683333333"><ele>1327.0</ele><time>2026-05-01T13:45:20.4Z</time></trkpt><trkpt lat="46.97836956666667" lon="11.483091750000002"><ele>1338.5</ele><time>2026-05-01T13:45:21.424Z</time></trkpt><trkpt lat="46.97853966666667" lon="11.48337035"><ele>1350.0</ele><time>2026-05-01T13:45:22.398Z</time></trkpt><trkpt lat="46.97871108333334" lon="11.483658383333333"><ele>1341.0</ele><time>2026-05-01T13:45:23.397Z</time></trkpt><trkpt lat="46.97888979999999" lon="11.4839506"><ele>1332.0</ele><time>2026-05-01T13:45:24.418Z</time></trkpt><trkpt lat="46.97906665000001" lon="11.48423991666667"><ele>1339.5</ele><time>2026-05-01T13:45:25.417Z</time></trkpt><trkpt lat="46.97923215000001" lon="11.484516716666667"><ele>1347.0</ele><time>2026-05-01T13:45:26.406Z</time></trkpt><trkpt lat="46.979385316666665" lon="11.484782066666666"><ele>1347.0</ele><time>2026-05-01T13:45:27.419Z</time></trkpt><trkpt lat="46.97952375" lon="11.485043066666666"><ele>1347.0</ele><time>2026-05-01T13:45:28.401Z</time></trkpt><trkpt lat="46.979647650000004" lon="11.485305016666667"><ele>1347.0</ele><time>2026-05-01T13:45:29.4Z</time></trkpt><trkpt lat="46.97975981666667" lon="11.485574166666668"><ele>1346.0</ele><time>2026-05-01T13:45:30.419Z</time></trkpt><trkpt lat="46.97985758333333" lon="11.485850816666668"><ele>1345.0</ele><time>2026-05-01T13:45:31.398Z</time></trkpt><trkpt lat="46.97995299999999" lon="11.48613945"><ele>1344.0</ele><time>2026-05-01T13:45:32.4Z</time></trkpt><trkpt lat="46.98004855000001" lon="11.486435433333334"><ele>1344.0</ele><time>2026-05-01T13:45:33.42Z</time></trkpt><trkpt lat="46.980147866666655" lon="11.486737650000002"><ele>1344.0</ele><time>2026-05-01T13:45:34.42Z</time></trkpt><trkpt lat="46.98025048333334" lon="11.487043716666669"><ele>1338.0</ele><time>2026-05-01T13:45:35.398Z</time></trkpt><trkpt lat="46.98035483333333" lon="11.487354016666666"><ele>1332.0</ele><time>2026-05-01T13:45:36.4Z</time></trkpt><trkpt lat="46.980458266666666" lon="11.48766965"><ele>1327.0</ele><time>2026-05-01T13:45:37.401Z</time></trkpt><trkpt lat="46.98056026666666" lon="11.487984883333334"><ele>1322.0</ele><time>2026-05-01T13:45:38.4Z</time></trkpt><trkpt lat="46.98065544999999" lon="11.4882955"><ele>1322.0</ele><time>2026-05-01T13:45:39.42Z</time></trkpt><trkpt lat="46.980736316666665" lon="11.488604633333333"><ele>1322.0</ele><time>2026-05-01T13:45:40.421Z</time></trkpt><trkpt lat="46.98081535" lon="11.488908066666667"><ele>1322.0</ele><time>2026-05-01T13:45:41.406Z</time></trkpt><trkpt lat="46.980902183333335" lon="11.489201099999999"><ele>1325.0</ele><time>2026-05-01T13:45:42.441Z</time></trkpt><trkpt lat="46.98100720000001" lon="11.489485166666668"><ele>1328.0</ele><time>2026-05-01T13:45:43.419Z</time></trkpt><trkpt lat="46.98113341666667" lon="11.489760066666669"><ele>1331.0</ele><time>2026-05-01T13:45:44.397Z</time></trkpt><trkpt lat="46.98127353333333" lon="11.490032866666665"><ele>1331.0</ele><time>2026-05-01T13:45:45.419Z</time></trkpt><trkpt lat="46.98142301666667" lon="11.490311166666668"><ele>1331.0</ele><time>2026-05-01T13:45:46.402Z</time></trkpt><trkpt lat="46.98157711666666" lon="11.490595749999999"><ele>1335.0</ele><time>2026-05-01T13:45:47.398Z</time></trkpt><trkpt lat="46.98173611666666" lon="11.490880383333336"><ele>1339.0</ele><time>2026-05-01T13:45:48.419Z</time></trkpt><trkpt lat="46.98190136666667" lon="11.491159083333333"><ele>1334.5</ele><time>2026-05-01T13:45:49.417Z</time></trkpt><trkpt lat="46.98207551666666" lon="11.491418316666667"><ele>1330.0</ele><time>2026-05-01T13:45:50.421Z</time></trkpt><trkpt lat="46.98226378333334" lon="11.491645116666666"><ele>1330.0</ele><time>2026-05-01T13:45:51.42Z</time></trkpt><trkpt lat="46.982471950000004" lon="11.49184218333333"><ele>1330.0</ele><time>2026-05-01T13:45:52.418Z</time></trkpt><trkpt lat="46.98268995" lon="11.492034983333333"><ele>1331.5</ele><time>2026-05-01T13:45:53.402Z</time></trkpt><trkpt lat="46.98290895" lon="11.492240083333336"><ele>1333.0</ele><time>2026-05-01T13:45:54.419Z</time></trkpt><trkpt lat="46.98312465" lon="11.492462716666667"><ele>1333.0</ele><time>2026-05-01T13:45:55.416Z</time></trkpt><trkpt lat="46.983334899999996" lon="11.492702816666666"><ele>1333.0</ele><time>2026-05-01T13:45:56.398Z</time></trkpt><trkpt lat="46.98354336666666" lon="11.492952466666667"><ele>1335.0</ele><time>2026-05-01T13:45:57.421Z</time></trkpt><trkpt lat="46.98375018333333" lon="11.493204083333334"><ele>1337.0</ele><time>2026-05-01T13:45:58.421Z</time></trkpt><trkpt lat="46.983956" lon="11.493446033333331"><ele>1337.0</ele><time>2026-05-01T13:45:59.411Z</time></trkpt><trkpt lat="46.98417023333333" lon="11.493667533333333"><ele>1337.0</ele><time>2026-05-01T13:46:00.419Z</time></trkpt><trkpt lat="46.984393233333336" lon="11.493872683333333"><ele>1336.5</ele><time>2026-05-01T13:46:01.417Z</time></trkpt><trkpt lat="46.984625099999995" lon="11.494058800000001"><ele>1336.0</ele><time>2026-05-01T13:46:02.4Z</time></trkpt><trkpt lat="46.98486623333333" lon="11.4942284"><ele>1341.0</ele><time>2026-05-01T13:46:03.419Z</time></trkpt><trkpt lat="46.98511418333333" lon="11.494383149999999"><ele>1346.0</ele><time>2026-05-01T13:46:04.408Z</time></trkpt><trkpt lat="46.98536653333334" lon="11.494523416666667"><ele>1346.0</ele><time>2026-05-01T13:46:05.398Z</time></trkpt><trkpt lat="46.985620299999994" lon="11.4946475"><ele>1346.0</ele><time>2026-05-01T13:46:06.42Z</time></trkpt><trkpt lat="46.9858757" lon="11.494757633333332"><ele>1346.0</ele><time>2026-05-01T13:46:07.421Z</time></trkpt><trkpt lat="46.98612695" lon="11.4948614"><ele>1346.0</ele><time>2026-05-01T13:46:08.406Z</time></trkpt><trkpt lat="46.986377516666664" lon="11.494961450000002"><ele>1346.0</ele><time>2026-05-01T13:46:09.421Z</time></trkpt><trkpt lat="46.98663023333334" lon="11.495056366666665"><ele>1346.0</ele><time>2026-05-01T13:46:10.419Z</time></trkpt><trkpt lat="46.98688576666667" lon="11.495149199999998"><ele>1352.5</ele><time>2026-05-01T13:46:11.398Z</time></trkpt><trkpt lat="46.987138016666655" lon="11.495247249999998"><ele>1359.0</ele><time>2026-05-01T13:46:12.421Z</time></trkpt><trkpt lat="46.987390999999995" lon="11.495345499999999"><ele>1357.0</ele><time>2026-05-01T13:46:13.406Z</time></trkpt><trkpt lat="46.9876435" lon="11.495440116666668"><ele>1355.0</ele><time>2026-05-01T13:46:14.4Z</time></trkpt><trkpt lat="46.98789723333333" lon="11.495535516666665"><ele>1355.0</ele><time>2026-05-01T13:46:15.419Z</time></trkpt><trkpt lat="46.98815151666666" lon="11.495629716666667"><ele>1355.0</ele><time>2026-05-01T13:46:16.421Z</time></trkpt><trkpt lat="46.98840341666667" lon="11.495725383333333"><ele>1354.0</ele><time>2026-05-01T13:46:17.409Z</time></trkpt><trkpt lat="46.98865576666667" lon="11.49582475"><ele>1353.0</ele><time>2026-05-01T13:46:18.422Z</time></trkpt><trkpt lat="46.98890861666667" lon="11.495926833333332"><ele>1353.0</ele><time>2026-05-01T13:46:19.417Z</time></trkpt><trkpt lat="46.9891606" lon="11.49602701666667"><ele>1353.0</ele><time>2026-05-01T13:46:20.4Z</time></trkpt><trkpt lat="46.98941248333334" lon="11.496127416666665"><ele>1352.5</ele><time>2026-05-01T13:46:21.42Z</time></trkpt><trkpt lat="46.98966656666666" lon="11.49622886666667"><ele>1352.0</ele><time>2026-05-01T13:46:22.399Z</time></trkpt><trkpt lat="46.98991670000001" lon="11.496336916666666"><ele>1355.5</ele><time>2026-05-01T13:46:23.405Z</time></trkpt><trkpt lat="46.990160233333334" lon="11.496470233333332"><ele>1359.0</ele><time>2026-05-01T13:46:24.419Z</time></trkpt><trkpt lat="46.99039971666666" lon="11.496623016666668"><ele>1359.0</ele><time>2026-05-01T13:46:25.417Z</time></trkpt><trkpt lat="46.99064006666667" lon="11.496777333333332"><ele>1359.0</ele><time>2026-05-01T13:46:26.409Z</time></trkpt><trkpt lat="46.990879183333334" lon="11.496931216666667"><ele>1359.0</ele><time>2026-05-01T13:46:27.422Z</time></trkpt><trkpt lat="46.99111523333333" lon="11.497085316666666"><ele>1359.0</ele><time>2026-05-01T13:46:28.42Z</time></trkpt><trkpt lat="46.99134971666667" lon="11.497244599999998"><ele>1359.0</ele><time>2026-05-01T13:46:29.401Z</time></trkpt><trkpt lat="46.99158713333333" lon="11.497402"><ele>1359.0</ele><time>2026-05-01T13:46:30.42Z</time></trkpt><trkpt lat="46.991824066666666" lon="11.497558083333335"><ele>1363.0</ele><time>2026-05-01T13:46:31.421Z</time></trkpt><trkpt lat="46.992059950000005" lon="11.497714783333334"><ele>1367.0</ele><time>2026-05-01T13:46:32.406Z</time></trkpt><trkpt lat="46.99229084730641" lon="11.497894561145383"><ele>1364.5</ele><time>2026-05-01T13:46:33.421Z</time></trkpt><trkpt lat="46.992529050130756" lon="11.498053326539731"><ele>1362.0</ele><time>2026-05-01T13:46:34.419Z</time></trkpt><trkpt lat="46.99276840150504" lon="11.498214769372433"><ele>1362.0</ele><time>2026-05-01T13:46:35.4Z</time></trkpt><trkpt lat="46.99300558233431" lon="11.498378673579833"><ele>1362.0</ele><time>2026-05-01T13:46:36.418Z</time></trkpt><trkpt lat="46.99324633333334" lon="11.498536600000001"><ele>1360.0</ele><time>2026-05-01T13:46:37.419Z</time></trkpt><trkpt lat="46.99346151781193" lon="11.498761724010004"><ele>1358.0</ele><time>2026-05-01T13:46:38.406Z</time></trkpt><trkpt lat="46.99367940756053" lon="11.49897429231401"><ele>1358.0</ele><time>2026-05-01T13:46:39.419Z</time></trkpt><trkpt lat="46.993909815502974" lon="11.49916568225771"><ele>1358.0</ele><time>2026-05-01T13:46:40.398Z</time></trkpt><trkpt lat="46.99415271666667" lon="11.499320733333333"><ele>1359.5</ele><time>2026-05-01T13:46:41.401Z</time></trkpt><trkpt lat="46.99438798333334" lon="11.499492666666667"><ele>1361.0</ele><time>2026-05-01T13:46:42.42Z</time></trkpt><trkpt lat="46.99462606666666" lon="11.49965886666667"><ele>1361.0</ele><time>2026-05-01T13:46:43.417Z</time></trkpt><trkpt lat="46.99486421666668" lon="11.499821733333333"><ele>1361.0</ele><time>2026-05-01T13:46:44.4Z</time></trkpt><trkpt lat="46.995100466666656" lon="11.499983416666666"><ele>1372.0</ele><time>2026-05-01T13:46:45.397Z</time></trkpt><trkpt lat="46.99533561666667" lon="11.500145633333332"><ele>1383.0</ele><time>2026-05-01T13:46:46.432Z</time></trkpt><trkpt lat="46.995571299999995" lon="11.500308983333332"><ele>1375.5</ele><time>2026-05-01T13:46:47.4Z</time></trkpt><trkpt lat="46.99580651666667" lon="11.50047075"><ele>1368.0</ele><time>2026-05-01T13:46:48.421Z</time></trkpt><trkpt lat="46.996038150000004" lon="11.500632099999999"><ele>1368.0</ele><time>2026-05-01T13:46:49.422Z</time></trkpt><trkpt lat="46.99626896666667" lon="11.500789433333333"><ele>1368.0</ele><time>2026-05-01T13:46:50.424Z</time></trkpt><trkpt lat="46.9964996" lon="11.500943766666667"><ele>1368.0</ele><time>2026-05-01T13:46:51.419Z</time></trkpt><trkpt lat="46.99672066354341" lon="11.501121143351725"><ele>1368.0</ele><time>2026-05-01T13:46:52.42Z</time></trkpt><trkpt lat="46.99695042632459" lon="11.501271966671895"><ele>1368.0</ele><time>2026-05-01T13:46:53.407Z</time></trkpt><trkpt lat="46.997179062913865" lon="11.501419378665153"><ele>1368.0</ele><time>2026-05-01T13:46:54.419Z</time></trkpt><trkpt lat="46.997408365344356" lon="11.501565990403831"><ele>1370.0</ele><time>2026-05-01T13:46:55.419Z</time></trkpt><trkpt lat="46.997636810131546" lon="11.50170908255264"><ele>1372.0</ele><time>2026-05-01T13:46:56.4Z</time></trkpt><trkpt lat="46.99786542262461" lon="11.501851716792306"><ele>1372.0</ele><time>2026-05-01T13:46:57.426Z</time></trkpt><trkpt lat="46.99809092624117" lon="11.501986663301908"><ele>1372.0</ele><time>2026-05-01T13:46:58.399Z</time></trkpt><trkpt lat="46.998312950000006" lon="11.5020895"><ele>1370.6666666666665</ele><time>2026-05-01T13:46:59.401Z</time></trkpt><trkpt lat="46.99850907782003" lon="11.502228463522023"><ele>1369.3333333333333</ele><time>2026-05-01T13:47:00.421Z</time></trkpt><trkpt lat="46.99869876696294" lon="11.502339634268964"><ele>1368.0</ele><time>2026-05-01T13:47:01.419Z</time></trkpt><trkpt lat="46.99888415" lon="11.502422766666665"><ele>1368.0</ele><time>2026-05-01T13:47:02.414Z</time></trkpt><trkpt lat="46.99904458507242" lon="11.502544358344199"><ele>1368.0</ele><time>2026-05-01T13:47:03.4Z</time></trkpt><trkpt lat="46.9991985089216" lon="11.50264416487563"><ele>1368.0</ele><time>2026-05-01T13:47:04.4Z</time></trkpt><trkpt lat="46.99934420198489" lon="11.50274208711364"><ele>1368.5</ele><time>2026-05-01T13:47:05.399Z</time></trkpt><trkpt lat="46.99948212335612" lon="11.502833581634858"><ele>1369.0</ele><time>2026-05-01T13:47:06.434Z</time></trkpt><trkpt lat="46.99961151464397" lon="11.502920895017091"><ele>1369.5</ele><time>2026-05-01T13:47:07.4Z</time></trkpt><trkpt lat="46.99972966327277" lon="11.503004629160198"><ele>1370.0</ele><time>2026-05-01T13:47:08.427Z</time></trkpt><trkpt lat="46.99984580263713" lon="11.50308693927976"><ele>1370.0</ele><time>2026-05-01T13:47:09.419Z</time></trkpt><trkpt lat="46.99996374862574" lon="11.503170117197184"><ele>1370.0</ele><time>2026-05-01T13:47:10.418Z</time></trkpt><trkpt lat="47.00007944167771" lon="11.503251530012015"><ele>1370.0</ele><time>2026-05-01T13:47:11.4Z</time></trkpt><trkpt lat="47.00019597984733" lon="11.50333353537739"><ele>1370.0</ele><time>2026-05-01T13:47:12.421Z</time></trkpt><trkpt lat="47.00031200311334" lon="11.503415178582639"><ele>1370.0</ele><time>2026-05-01T13:47:13.42Z</time></trkpt><trkpt lat="47.000427248504266" lon="11.50349627433318"><ele>1370.0</ele><time>2026-05-01T13:47:14.4Z</time></trkpt><trkpt lat="47.00054462367766" lon="11.503578868783826"><ele>1370.0</ele><time>2026-05-01T13:47:15.421Z</time></trkpt><trkpt lat="47.00066216800504" lon="11.503661583598968"><ele>1370.0</ele><time>2026-05-01T13:47:16.422Z</time></trkpt><trkpt lat="47.00078765" lon="11.50371545"><ele>1370.5</ele><time>2026-05-01T13:47:17.422Z</time></trkpt><trkpt lat="47.00090511666667" lon="11.5037989"><ele>1371.0</ele><time>2026-05-01T13:47:18.421Z</time></trkpt><trkpt lat="47.00102220000001" lon="11.503886583333333"><ele>1371.5</ele><time>2026-05-01T13:47:19.418Z</time></trkpt><trkpt lat="47.00114261666666" lon="11.503971383333331"><ele>1372.0</ele><time>2026-05-01T13:47:20.402Z</time></trkpt><trkpt lat="47.001264883333334" lon="11.504054450000002"><ele>1372.0</ele><time>2026-05-01T13:47:21.419Z</time></trkpt><trkpt lat="47.00138716666667" lon="11.504136833333334"><ele>1372.0</ele><time>2026-05-01T13:47:22.435Z</time></trkpt><trkpt lat="47.001502849999994" lon="11.50421615"><ele>1372.0</ele><time>2026-05-01T13:47:23.4Z</time></trkpt><trkpt lat="47.00161046666667" lon="11.504284483333334"><ele>1372.0</ele><time>2026-05-01T13:47:24.421Z</time></trkpt><trkpt lat="47.00171218333333" lon="11.5043394"><ele>1372.3999999999999</ele><time>2026-05-01T13:47:25.418Z</time></trkpt><trkpt lat="47.001808133333334" lon="11.5043793"><ele>1372.8</ele><time>2026-05-01T13:47:26.422Z</time></trkpt><trkpt lat="47.001899766666675" lon="11.504410649999999"><ele>1373.2</ele><time>2026-05-01T13:47:27.426Z</time></trkpt><trkpt lat="47.00198846666667" lon="11.5044419"><ele>1373.6</ele><time>2026-05-01T13:47:28.417Z</time></trkpt><trkpt lat="47.00207921666667" lon="11.504476583333334"><ele>1374.0</ele><time>2026-05-01T13:47:29.4Z</time></trkpt><trkpt lat="47.00217141666667" lon="11.504510483333334"><ele>1374.0</ele><time>2026-05-01T13:47:30.419Z</time></trkpt><trkpt lat="47.0022651" lon="11.504542800000001"><ele>1374.0</ele><time>2026-05-01T13:47:31.409Z</time></trkpt><trkpt lat="47.00235835" lon="11.504576116666666"><ele>1374.0</ele><time>2026-05-01T13:47:32.399Z</time></trkpt><trkpt lat="47.00244671666667" lon="11.504626983333333"><ele>1374.0</ele><time>2026-05-01T13:47:33.4Z</time></trkpt><trkpt lat="47.00253308333333" lon="11.504690916666668"><ele>1374.0</ele><time>2026-05-01T13:47:34.419Z</time></trkpt><trkpt lat="47.002619749999994" lon="11.504749466666665"><ele>1374.5</ele><time>2026-05-01T13:47:35.419Z</time></trkpt><trkpt lat="47.002701949999995" lon="11.504809466666666"><ele>1375.0</ele><time>2026-05-01T13:47:36.421Z</time></trkpt><trkpt lat="47.00277821666667" lon="11.504862416666667"><ele>1375.5</ele><time>2026-05-01T13:47:37.416Z</time></trkpt><trkpt lat="47.00284713333333" lon="11.504909349999998"><ele>1376.0</ele><time>2026-05-01T13:47:38.4Z</time></trkpt><trkpt lat="47.00291361666667" lon="11.504957983333334"><ele>1376.5</ele><time>2026-05-01T13:47:39.42Z</time></trkpt><trkpt lat="47.00298398333332" lon="11.505004566666667"><ele>1377.0</ele><time>2026-05-01T13:47:40.416Z</time></trkpt><trkpt lat="47.00305685" lon="11.505056666666666"><ele>1377.0</ele><time>2026-05-01T13:47:41.4Z</time></trkpt><trkpt lat="47.003132533333336" lon="11.505112183333331"><ele>1377.0</ele><time>2026-05-01T13:47:42.422Z</time></trkpt><trkpt lat="47.003211316666665" lon="11.505165716666665"><ele>1377.0</ele><time>2026-05-01T13:47:43.421Z</time></trkpt><trkpt lat="47.00329409999999" lon="11.5052184"><ele>1377.0</ele><time>2026-05-01T13:47:44.406Z</time></trkpt><trkpt lat="47.00338048333333" lon="11.505271016666665"><ele>1377.0</ele><time>2026-05-01T13:47:45.421Z</time></trkpt><trkpt lat="47.003466133333326" lon="11.505326383333331"><ele>1377.0</ele><time>2026-05-01T13:47:46.419Z</time></trkpt><trkpt lat="47.003553266666664" lon="11.505380733333334"><ele>1375.8</ele><time>2026-05-01T13:47:47.396Z</time></trkpt><trkpt lat="47.00364128333334" lon="11.5054351"><ele>1374.6</ele><time>2026-05-01T13:47:48.429Z</time></trkpt><trkpt lat="47.00373193333333" lon="11.505483666666665"><ele>1373.3999999999999</ele><time>2026-05-01T13:47:49.407Z</time></trkpt><trkpt lat="47.00382273333333" lon="11.505527566666668"><ele>1372.1999999999998</ele><time>2026-05-01T13:47:50.4Z</time></trkpt><trkpt lat="47.00391351666667" lon="11.505569783333332"><ele>1371.0</ele><time>2026-05-01T13:47:51.419Z</time></trkpt><trkpt lat="47.00400476666667" lon="11.5056107"><ele>1371.0</ele><time>2026-05-01T13:47:52.42Z</time></trkpt><trkpt lat="47.004095066666665" lon="11.50564925"><ele>1371.0</ele><time>2026-05-01T13:47:53.411Z</time></trkpt><trkpt lat="47.004185400000004" lon="11.5056844"><ele>1371.0</ele><time>2026-05-01T13:47:54.445Z</time></trkpt><trkpt lat="47.004272400000005" lon="11.505707483333333"><ele>1371.0</ele><time>2026-05-01T13:47:55.422Z</time></trkpt><trkpt lat="47.00436143333333" lon="11.505739083333333"><ele>1371.0</ele><time>2026-05-01T13:47:56.4Z</time></trkpt><trkpt lat="47.00444835" lon="11.505781433333334"><ele>1371.1999999999998</ele><time>2026-05-01T13:47:57.422Z</time></trkpt><trkpt lat="47.00453606666667" lon="11.505826033333335"><ele>1371.3999999999999</ele><time>2026-05-01T13:47:58.4Z</time></trkpt><trkpt lat="47.004627250000006" lon="11.505868733333333"><ele>1371.6</ele><time>2026-05-01T13:47:59.4Z</time></trkpt><trkpt lat="47.00472159999999" lon="11.50591368333333"><ele>1371.8</ele><time>2026-05-01T13:48:00.408Z</time></trkpt><trkpt lat="47.004816833333344" lon="11.505959866666668"><ele>1372.0</ele><time>2026-05-01T13:48:01.419Z</time></trkpt><trkpt lat="47.004912299999994" lon="11.506003016666666"><ele>1371.6</ele><time>2026-05-01T13:48:02.411Z</time></trkpt><trkpt lat="47.00500423333333" lon="11.506047616666669"><ele>1371.1999999999998</ele><time>2026-05-01T13:48:03.4Z</time></trkpt><trkpt lat="47.005098033333326" lon="11.506091316666668"><ele>1370.8</ele><time>2026-05-01T13:48:04.418Z</time></trkpt><trkpt lat="47.00519146666667" lon="11.506131866666665"><ele>1370.4</ele><time>2026-05-01T13:48:05.399Z</time></trkpt><trkpt lat="47.00528691666666" lon="11.506167466666666"><ele>1370.0</ele><time>2026-05-01T13:48:06.421Z</time></trkpt><trkpt lat="47.00537796666668" lon="11.506201066666666"><ele>1370.0</ele><time>2026-05-01T13:48:07.424Z</time></trkpt><trkpt lat="47.005467749999994" lon="11.5062352"><ele>1370.0</ele><time>2026-05-01T13:48:08.4Z</time></trkpt><trkpt lat="47.005556399999996" lon="11.506265466666665"><ele>1370.0</ele><time>2026-05-01T13:48:09.424Z</time></trkpt><trkpt lat="47.005641433333324" lon="11.506300216666668"><ele>1370.0</ele><time>2026-05-01T13:48:10.421Z</time></trkpt><trkpt lat="47.00571756666667" lon="11.506327716666666"><ele>1370.0</ele><time>2026-05-01T13:48:11.4Z</time></trkpt><trkpt lat="47.00578796666667" lon="11.506352733333332"><ele>1370.0</ele><time>2026-05-01T13:48:12.419Z</time></trkpt><trkpt lat="47.00585053333333" lon="11.506372566666668"><ele>1369.8</ele><time>2026-05-01T13:48:13.418Z</time></trkpt><trkpt lat="47.00595563333333" lon="11.506405700000002"><ele>1369.6</ele><time>2026-05-01T13:48:15.421Z</time></trkpt><trkpt lat="47.006047466666665" lon="11.50641205"><ele>1369.4</ele><time>2026-05-01T13:48:17.397Z</time></trkpt><trkpt lat="47.00613505" lon="11.506430233333333"><ele>1369.2</ele><time>2026-05-01T13:48:19.4Z</time></trkpt><trkpt lat="47.00624880000001" lon="11.506421566666665"><ele>1369.0</ele><time>2026-05-01T13:48:21.399Z</time></trkpt><trkpt lat="47.00631948333333" lon="11.5064148"><ele>1369.0</ele><time>2026-05-01T13:48:22.423Z</time></trkpt><trkpt lat="47.00639195" lon="11.506423616666666"><ele>1369.0</ele><time>2026-05-01T13:48:23.421Z</time></trkpt><trkpt lat="47.006461766666675" lon="11.506441283333334"><ele>1369.0</ele><time>2026-05-01T13:48:24.421Z</time></trkpt><trkpt lat="47.00653046666666" lon="11.50644456666667"><ele>1369.0</ele><time>2026-05-01T13:48:25.42Z</time></trkpt><trkpt lat="47.00660163333334" lon="11.506428716666669"><ele>1369.0</ele><time>2026-05-01T13:48:26.398Z</time></trkpt><trkpt lat="47.006683800000005" lon="11.506411666666667"><ele>1369.0</ele><time>2026-05-01T13:48:27.426Z</time></trkpt><trkpt lat="47.00676773333333" lon="11.506413433333334"><ele>1369.3333333333333</ele><time>2026-05-01T13:48:28.422Z</time></trkpt><trkpt lat="47.00684833333333" lon="11.506440266666669"><ele>1369.6666666666665</ele><time>2026-05-01T13:48:29.41Z</time></trkpt><trkpt lat="47.00692541666667" lon="11.506484250000002"><ele>1370.0</ele><time>2026-05-01T13:48:30.419Z</time></trkpt><trkpt lat="47.00700333333332" lon="11.506524616666665"><ele>1370.3333333333333</ele><time>2026-05-01T13:48:31.419Z</time></trkpt><trkpt lat="47.00708373333334" lon="11.506560433333332"><ele>1370.6666666666667</ele><time>2026-05-01T13:48:32.399Z</time></trkpt><trkpt lat="47.007159866666676" lon="11.506601983333333"><ele>1371.0</ele><time>2026-05-01T13:48:33.421Z</time></trkpt><trkpt lat="47.00723101666668" lon="11.506648066666665"><ele>1371.0</ele><time>2026-05-01T13:48:34.399Z</time></trkpt><trkpt lat="47.00730888333332" lon="11.50669235"><ele>1371.0</ele><time>2026-05-01T13:48:35.408Z</time></trkpt><trkpt lat="47.00739101666666" lon="11.506735883333333"><ele>1371.0</ele><time>2026-05-01T13:48:36.421Z</time></trkpt><trkpt lat="47.00747355" lon="11.506781499999999"><ele>1371.0</ele><time>2026-05-01T13:48:37.419Z</time></trkpt><trkpt lat="47.00755716666666" lon="11.506826983333333"><ele>1371.0</ele><time>2026-05-01T13:48:38.401Z</time></trkpt><trkpt lat="47.00764993333334" lon="11.5068775"><ele>1371.0</ele><time>2026-05-01T13:48:39.421Z</time></trkpt><trkpt lat="47.00775241666667" lon="11.506919283333332"><ele>1371.1999999999998</ele><time>2026-05-01T13:48:40.419Z</time></trkpt><trkpt lat="47.007853133333334" lon="11.506957966666668"><ele>1371.3999999999999</ele><time>2026-05-01T13:48:41.409Z</time></trkpt><trkpt lat="47.007951716666675" lon="11.506994733333332"><ele>1371.6</ele><time>2026-05-01T13:48:42.421Z</time></trkpt><trkpt lat="47.00805226666666" lon="11.5070184"><ele>1371.8</ele><time>2026-05-01T13:48:43.4Z</time></trkpt><trkpt lat="47.0081596" lon="11.507029516666668"><ele>1372.0</ele><time>2026-05-01T13:48:44.427Z</time></trkpt><trkpt lat="47.0082732" lon="11.507041350000002"><ele>1372.75</ele><time>2026-05-01T13:48:45.421Z</time></trkpt><trkpt lat="47.00839606666667" lon="11.507054100000001"><ele>1373.5</ele><time>2026-05-01T13:48:46.42Z</time></trkpt><trkpt lat="47.0085311" lon="11.507064533333335"><ele>1374.25</ele><time>2026-05-01T13:48:47.419Z</time></trkpt><trkpt lat="47.00867960000001" lon="11.507070833333334"><ele>1375.0</ele><time>2026-05-01T13:48:48.4Z</time></trkpt><trkpt lat="47.00884323333334" lon="11.507073400000003"><ele>1375.0</ele><time>2026-05-01T13:48:49.418Z</time></trkpt><trkpt lat="47.009014416666666" lon="11.507075316666665"><ele>1375.0</ele><time>2026-05-01T13:48:50.422Z</time></trkpt><trkpt lat="47.0091942" lon="11.507081699999999"><ele>1375.0</ele><time>2026-05-01T13:48:51.402Z</time></trkpt><trkpt lat="47.009381749999996" lon="11.507086466666665"><ele>1371.0</ele><time>2026-05-01T13:48:52.422Z</time></trkpt><trkpt lat="47.00958063333334" lon="11.50709255"><ele>1367.0</ele><time>2026-05-01T13:48:53.415Z</time></trkpt><trkpt lat="47.009784333333336" lon="11.507097516666667"><ele>1363.0</ele><time>2026-05-01T13:48:54.421Z</time></trkpt><trkpt lat="47.00999135000001" lon="11.507096433333334"><ele>1363.0</ele><time>2026-05-01T13:48:55.415Z</time></trkpt><trkpt lat="47.01020203333334" lon="11.507092783333333"><ele>1363.0</ele><time>2026-05-01T13:48:56.408Z</time></trkpt><trkpt lat="47.01040891666666" lon="11.507087466666666"><ele>1363.0</ele><time>2026-05-01T13:48:57.399Z</time></trkpt><trkpt lat="47.01060741666667" lon="11.507080816666667"><ele>1368.6666666666665</ele><time>2026-05-01T13:48:58.404Z</time></trkpt><trkpt lat="47.010796" lon="11.507076366666668"><ele>1374.3333333333333</ele><time>2026-05-01T13:48:59.401Z</time></trkpt><trkpt lat="47.01097205" lon="11.5070682"><ele>1380.0</ele><time>2026-05-01T13:49:00.421Z</time></trkpt><trkpt lat="47.01114255" lon="11.5070543"><ele>1380.0</ele><time>2026-05-01T13:49:01.422Z</time></trkpt><trkpt lat="47.01131078333333" lon="11.507037549999998"><ele>1380.0</ele><time>2026-05-01T13:49:02.398Z</time></trkpt><trkpt lat="47.01147596666666" lon="11.507019683333333"><ele>1380.0</ele><time>2026-05-01T13:49:03.421Z</time></trkpt><trkpt lat="47.01164693333333" lon="11.507001283333333"><ele>1374.6666666666667</ele><time>2026-05-01T13:49:04.422Z</time></trkpt><trkpt lat="47.01182256666666" lon="11.50698425"><ele>1369.3333333333335</ele><time>2026-05-01T13:49:05.403Z</time></trkpt><trkpt lat="47.01200881666667" lon="11.506974066666666"><ele>1364.0</ele><time>2026-05-01T13:49:06.421Z</time></trkpt><trkpt lat="47.012202099999996" lon="11.506969966666668"><ele>1364.0</ele><time>2026-05-01T13:49:07.399Z</time></trkpt><trkpt lat="47.0124061" lon="11.506970933333331"><ele>1364.0</ele><time>2026-05-01T13:49:08.406Z</time></trkpt><trkpt lat="47.01261335" lon="11.506980883333332"><ele>1364.0</ele><time>2026-05-01T13:49:09.446Z</time></trkpt><trkpt lat="47.01282200000001" lon="11.507006566666666"><ele>1365.6666666666667</ele><time>2026-05-01T13:49:10.432Z</time></trkpt><trkpt lat="47.01302691666667" lon="11.507040616666666"><ele>1367.3333333333333</ele><time>2026-05-01T13:49:11.423Z</time></trkpt><trkpt lat="47.013226416666676" lon="11.507082083333335"><ele>1369.0</ele><time>2026-05-01T13:49:12.41Z</time></trkpt><trkpt lat="47.01341866666667" lon="11.507138000000001"><ele>1365.3333333333333</ele><time>2026-05-01T13:49:13.435Z</time></trkpt><trkpt lat="47.013602033333335" lon="11.507204549999997"><ele>1361.6666666666667</ele><time>2026-05-01T13:49:14.42Z</time></trkpt><trkpt lat="47.01377301666667" lon="11.5072767"><ele>1358.0</ele><time>2026-05-01T13:49:15.415Z</time></trkpt><trkpt lat="47.01393281666666" lon="11.507363033333336"><ele>1358.0</ele><time>2026-05-01T13:49:16.409Z</time></trkpt><trkpt lat="47.014082633333324" lon="11.507468950000002"><ele>1358.0</ele><time>2026-05-01T13:49:17.417Z</time></trkpt><trkpt lat="47.01422198333333" lon="11.507600500000002"><ele>1358.0</ele><time>2026-05-01T13:49:18.415Z</time></trkpt><trkpt lat="47.01435355000001" lon="11.507754983333333"><ele>1358.3333333333335</ele><time>2026-05-01T13:49:19.421Z</time></trkpt><trkpt lat="47.01447009713783" lon="11.507942672994155"><ele>1358.6666666666667</ele><time>2026-05-01T13:49:20.415Z</time></trkpt><trkpt lat="47.01459073496433" lon="11.508122351484735"><ele>1359.0</ele><time>2026-05-01T13:49:21.399Z</time></trkpt><trkpt lat="47.01470802686539" lon="11.508300021477199"><ele>1359.0</ele><time>2026-05-01T13:49:22.399Z</time></trkpt><trkpt lat="47.01482294143109" lon="11.50847395950158"><ele>1359.0</ele><time>2026-05-01T13:49:23.416Z</time></trkpt><trkpt lat="47.01494026432084" lon="11.508636606481373"><ele>1359.0</ele><time>2026-05-01T13:49:24.415Z</time></trkpt><trkpt lat="47.015072483333334" lon="11.5087711"><ele>1356.6666666666667</ele><time>2026-05-01T13:49:25.407Z</time></trkpt><trkpt lat="47.01520548333333" lon="11.50891465"><ele>1354.3333333333335</ele><time>2026-05-01T13:49:26.414Z</time></trkpt><trkpt lat="47.01535271666667" lon="11.509045433333332"><ele>1352.0</ele><time>2026-05-01T13:49:27.416Z</time></trkpt><trkpt lat="47.01550918333334" lon="11.509160483333334"><ele>1352.0</ele><time>2026-05-01T13:49:28.399Z</time></trkpt><trkpt lat="47.01567125" lon="11.509255966666668"><ele>1352.0</ele><time>2026-05-01T13:49:29.415Z</time></trkpt><trkpt lat="47.01583516666666" lon="11.509328966666665"><ele>1352.0</ele><time>2026-05-01T13:49:30.417Z</time></trkpt><trkpt lat="47.015999650000005" lon="11.509367999999998"><ele>1345.0</ele><time>2026-05-01T13:49:31.421Z</time></trkpt><trkpt lat="47.016166649999995" lon="11.509378966666668"><ele>1338.0</ele><time>2026-05-01T13:49:32.417Z</time></trkpt><trkpt lat="47.01633515" lon="11.509370183333331"><ele>1331.0</ele><time>2026-05-01T13:49:33.414Z</time></trkpt><trkpt lat="47.016498299999995" lon="11.509338366666668"><ele>1330.0</ele><time>2026-05-01T13:49:34.398Z</time></trkpt><trkpt lat="47.01665379999999" lon="11.509284483333332"><ele>1329.0</ele><time>2026-05-01T13:49:35.415Z</time></trkpt><trkpt lat="47.0168083" lon="11.509213733333334"><ele>1328.0</ele><time>2026-05-01T13:49:36.415Z</time></trkpt><trkpt lat="47.0169617" lon="11.509118216666666"><ele>1328.0</ele><time>2026-05-01T13:49:37.399Z</time></trkpt><trkpt lat="47.01711125" lon="11.508997566666668"><ele>1328.0</ele><time>2026-05-01T13:49:38.399Z</time></trkpt><trkpt lat="47.01725329999999" lon="11.50884845"><ele>1328.0</ele><time>2026-05-01T13:49:39.405Z</time></trkpt><trkpt lat="47.01739185" lon="11.508683183333336"><ele>1327.3333333333335</ele><time>2026-05-01T13:49:40.399Z</time></trkpt><trkpt lat="47.01752195000001" lon="11.508500833333335"><ele>1326.6666666666667</ele><time>2026-05-01T13:49:41.417Z</time></trkpt><trkpt lat="47.017640500000006" lon="11.508312483333334"><ele>1326.0</ele><time>2026-05-01T13:49:42.423Z</time></trkpt><trkpt lat="47.01774715" lon="11.508123983333332"><ele>1326.0</ele><time>2026-05-01T13:49:43.403Z</time></trkpt><trkpt lat="47.01784561666666" lon="11.507934550000002"><ele>1326.0</ele><time>2026-05-01T13:49:44.415Z</time></trkpt><trkpt lat="47.01793705000001" lon="11.507732733333333"><ele>1326.0</ele><time>2026-05-01T13:49:45.416Z</time></trkpt><trkpt lat="47.01802831666667" lon="11.507530966666664"><ele>1324.0</ele><time>2026-05-01T13:49:46.402Z</time></trkpt><trkpt lat="47.018120450000005" lon="11.5073319"><ele>1322.0</ele><time>2026-05-01T13:49:47.419Z</time></trkpt><trkpt lat="47.01821686666668" lon="11.507137216666667"><ele>1320.0</ele><time>2026-05-01T13:49:48.417Z</time></trkpt><trkpt lat="47.01831603333333" lon="11.506946000000001"><ele>1321.0</ele><time>2026-05-01T13:49:49.421Z</time></trkpt><trkpt lat="47.01841358333333" lon="11.506751450000003"><ele>1322.0</ele><time>2026-05-01T13:49:50.415Z</time></trkpt><trkpt lat="47.01851215" lon="11.506557583333333"><ele>1323.0</ele><time>2026-05-01T13:49:51.417Z</time></trkpt><trkpt lat="47.01861868333334" lon="11.506376916666666"><ele>1320.0</ele><time>2026-05-01T13:49:52.417Z</time></trkpt><trkpt lat="47.01872893333332" lon="11.506206149999999"><ele>1317.0</ele><time>2026-05-01T13:49:53.415Z</time></trkpt><trkpt lat="47.018841949999995" lon="11.506036466666668"><ele>1314.0</ele><time>2026-05-01T13:49:54.415Z</time></trkpt><trkpt lat="47.01895521666667" lon="11.505867299999998"><ele>1314.0</ele><time>2026-05-01T13:49:55.398Z</time></trkpt><trkpt lat="47.01907200000001" lon="11.505696766666665"><ele>1314.0</ele><time>2026-05-01T13:49:56.417Z</time></trkpt><trkpt lat="47.01918824999999" lon="11.505529783333335"><ele>1314.0</ele><time>2026-05-01T13:49:57.419Z</time></trkpt><trkpt lat="47.01930396666666" lon="11.505362183333334"><ele>1315.3333333333333</ele><time>2026-05-01T13:49:58.421Z</time></trkpt><trkpt lat="47.01942148333333" lon="11.505195883333332"><ele>1316.6666666666665</ele><time>2026-05-01T13:49:59.416Z</time></trkpt><trkpt lat="47.01953991666666" lon="11.50503195"><ele>1318.0</ele><time>2026-05-01T13:50:00.415Z</time></trkpt><trkpt lat="47.01965485000001" lon="11.5048718"><ele>1318.0</ele><time>2026-05-01T13:50:01.417Z</time></trkpt><trkpt lat="47.019761383333325" lon="11.504716433333332"><ele>1318.0</ele><time>2026-05-01T13:50:02.417Z</time></trkpt><trkpt lat="47.01986396666666" lon="11.504572183333334"><ele>1318.0</ele><time>2026-05-01T13:50:03.417Z</time></trkpt><trkpt lat="47.01996666666667" lon="11.504427416666667"><ele>1318.0</ele><time>2026-05-01T13:50:04.399Z</time></trkpt><trkpt lat="47.02006686666667" lon="11.504282733333332"><ele>1318.5</ele><time>2026-05-01T13:50:05.415Z</time></trkpt><trkpt lat="47.02016861666666" lon="11.504136183333333"><ele>1319.0</ele><time>2026-05-01T13:50:06.413Z</time></trkpt><trkpt lat="47.02027031666666" lon="11.503996299999999"><ele>1319.5</ele><time>2026-05-01T13:50:07.399Z</time></trkpt><trkpt lat="47.02037205" lon="11.50385175"><ele>1320.0</ele><time>2026-05-01T13:50:08.415Z</time></trkpt><trkpt lat="47.020475649999995" lon="11.503710616666668"><ele>1321.0</ele><time>2026-05-01T13:50:09.415Z</time></trkpt><trkpt lat="47.02058083333333" lon="11.503568316666666"><ele>1322.0</ele><time>2026-05-01T13:50:10.399Z</time></trkpt><trkpt lat="47.02068566666667" lon="11.503429416666664"><ele>1323.0</ele><time>2026-05-01T13:50:11.399Z</time></trkpt><trkpt lat="47.02079186666666" lon="11.503298516666668"><ele>1324.0</ele><time>2026-05-01T13:50:12.417Z</time></trkpt><trkpt lat="47.02090136666667" lon="11.503172116666667"><ele>1324.0</ele><time>2026-05-01T13:50:13.42Z</time></trkpt><trkpt lat="47.021015033333335" lon="11.503054883333334"><ele>1324.0</ele><time>2026-05-01T13:50:14.415Z</time></trkpt><trkpt lat="47.02113278333333" lon="11.502944616666666"><ele>1324.0</ele><time>2026-05-01T13:50:15.412Z</time></trkpt><trkpt lat="47.02125511666666" lon="11.5028432"><ele>1324.0</ele><time>2026-05-01T13:50:16.42Z</time></trkpt><trkpt lat="47.02138320000001" lon="11.502745733333333"><ele>1323.25</ele><time>2026-05-01T13:50:17.417Z</time></trkpt><trkpt lat="47.021511833333335" lon="11.502652899999998"><ele>1322.5</ele><time>2026-05-01T13:50:18.401Z</time></trkpt><trkpt lat="47.021640083333324" lon="11.502573116666667"><ele>1321.75</ele><time>2026-05-01T13:50:19.399Z</time></trkpt><trkpt lat="47.021769416666665" lon="11.50251216666667"><ele>1321.0</ele><time>2026-05-01T13:50:20.429Z</time></trkpt><trkpt lat="47.02189898333333" lon="11.502457916666666"><ele>1321.0</ele><time>2026-05-01T13:50:21.421Z</time></trkpt><trkpt lat="47.02202923333333" lon="11.502405833333333"><ele>1321.0</ele><time>2026-05-01T13:50:22.399Z</time></trkpt><trkpt lat="47.02215231666667" lon="11.502348066666665"><ele>1321.0</ele><time>2026-05-01T13:50:23.417Z</time></trkpt><trkpt lat="47.02226958333333" lon="11.502285233333334"><ele>1321.0</ele><time>2026-05-01T13:50:24.421Z</time></trkpt><trkpt lat="47.02238395" lon="11.50223135"><ele>1321.25</ele><time>2026-05-01T13:50:25.406Z</time></trkpt><trkpt lat="47.02250016666667" lon="11.50218065"><ele>1321.5</ele><time>2026-05-01T13:50:26.414Z</time></trkpt><trkpt lat="47.022618183333336" lon="11.502128833333332"><ele>1321.75</ele><time>2026-05-01T13:50:27.399Z</time></trkpt><trkpt lat="47.022738700000005" lon="11.502069316666667"><ele>1322.0</ele><time>2026-05-01T13:50:28.399Z</time></trkpt><trkpt lat="47.0228602" lon="11.502009150000001"><ele>1319.5</ele><time>2026-05-01T13:50:29.421Z</time></trkpt><trkpt lat="47.02297406666666" lon="11.501947616666666"><ele>1317.0</ele><time>2026-05-01T13:50:30.416Z</time></trkpt><trkpt lat="47.023078766666664" lon="11.501884749999999"><ele>1314.5</ele><time>2026-05-01T13:50:31.421Z</time></trkpt><trkpt lat="47.02318104999999" lon="11.501825866666666"><ele>1312.0</ele><time>2026-05-01T13:50:32.415Z</time></trkpt><trkpt lat="47.02328315" lon="11.501772633333331"><ele>1311.0</ele><time>2026-05-01T13:50:33.416Z</time></trkpt><trkpt lat="47.02338491666666" lon="11.501733666666667"><ele>1310.0</ele><time>2026-05-01T13:50:34.399Z</time></trkpt><trkpt lat="47.02348886666667" lon="11.501711633333331"><ele>1309.0</ele><time>2026-05-01T13:50:35.415Z</time></trkpt><trkpt lat="47.023593866666666" lon="11.501707116666667"><ele>1308.0</ele><time>2026-05-01T13:50:36.415Z</time></trkpt><trkpt lat="47.02370281666668" lon="11.501721850000001"><ele>1307.0</ele><time>2026-05-01T13:50:37.398Z</time></trkpt><trkpt lat="47.02381706666667" lon="11.501753133333334"><ele>1307.0</ele><time>2026-05-01T13:50:38.399Z</time></trkpt><trkpt lat="47.023932333333335" lon="11.501803733333334"><ele>1307.0</ele><time>2026-05-01T13:50:39.415Z</time></trkpt><trkpt lat="47.02404733333332" lon="11.501871566666667"><ele>1307.0</ele><time>2026-05-01T13:50:40.421Z</time></trkpt><trkpt lat="47.024160816666665" lon="11.501951499999999"><ele>1307.0</ele><time>2026-05-01T13:50:41.415Z</time></trkpt><trkpt lat="47.02427488333333" lon="11.502038650000001"><ele>1308.0</ele><time>2026-05-01T13:50:42.421Z</time></trkpt><trkpt lat="47.02439423333334" lon="11.502121183333335"><ele>1309.0</ele><time>2026-05-01T13:50:43.409Z</time></trkpt><trkpt lat="47.024521816666656" lon="11.502188516666667"><ele>1310.0</ele><time>2026-05-01T13:50:44.415Z</time></trkpt><trkpt lat="47.024654866666665" lon="11.502237150000001"><ele>1311.0</ele><time>2026-05-01T13:50:45.414Z</time></trkpt><trkpt lat="47.02479145000001" lon="11.502266216666666"><ele>1311.0</ele><time>2026-05-01T13:50:46.397Z</time></trkpt><trkpt lat="47.02492793333332" lon="11.502284816666668"><ele>1311.0</ele><time>2026-05-01T13:50:47.415Z</time></trkpt><trkpt lat="47.02506400000001" lon="11.502298316666668"><ele>1311.0</ele><time>2026-05-01T13:50:48.415Z</time></trkpt><trkpt lat="47.02519959999999" lon="11.502311616666669"><ele>1311.0</ele><time>2026-05-01T13:50:49.421Z</time></trkpt><trkpt lat="47.02533636666667" lon="11.502327333333335"><ele>1307.75</ele><time>2026-05-01T13:50:50.417Z</time></trkpt><trkpt lat="47.02547136666667" lon="11.502343116666669"><ele>1304.5</ele><time>2026-05-01T13:50:51.417Z</time></trkpt><trkpt lat="47.0256078" lon="11.502347716666668"><ele>1301.25</ele><time>2026-05-01T13:50:52.421Z</time></trkpt><trkpt lat="47.02575166666667" lon="11.502335483333331"><ele>1298.0</ele><time>2026-05-01T13:50:53.416Z</time></trkpt><trkpt lat="47.02589963333334" lon="11.502306833333334"><ele>1297.25</ele><time>2026-05-01T13:50:54.415Z</time></trkpt><trkpt lat="47.02604661666666" lon="11.502254916666667"><ele>1296.5</ele><time>2026-05-01T13:50:55.423Z</time></trkpt><trkpt lat="47.02618869999999" lon="11.502186649999999"><ele>1295.75</ele><time>2026-05-01T13:50:56.415Z</time></trkpt><trkpt lat="47.02632435" lon="11.502108850000003"><ele>1295.0</ele><time>2026-05-01T13:50:57.417Z</time></trkpt><trkpt lat="47.02645368333333" lon="11.502013066666665"><ele>1288.0</ele><time>2026-05-01T13:50:58.4Z</time></trkpt><trkpt lat="47.02657803333333" lon="11.501893800000001"><ele>1281.0</ele><time>2026-05-01T13:50:59.415Z</time></trkpt><trkpt lat="47.026694799999994" lon="11.501751516666666"><ele>1274.0</ele><time>2026-05-01T13:51:00.415Z</time></trkpt><trkpt lat="47.02680601666666" lon="11.501577633333333"><ele>1274.0</ele><time>2026-05-01T13:51:01.406Z</time></trkpt><trkpt lat="47.02690528333333" lon="11.501383266666668"><ele>1274.0</ele><time>2026-05-01T13:51:02.398Z</time></trkpt><trkpt lat="47.02698545" lon="11.501157733333331"><ele>1274.0</ele><time>2026-05-01T13:51:03.414Z</time></trkpt><trkpt lat="47.02704406666666" lon="11.500903650000001"><ele>1266.3333333333335</ele><time>2026-05-01T13:51:04.416Z</time></trkpt><trkpt lat="47.02708044999999" lon="11.50062465"><ele>1258.6666666666667</ele><time>2026-05-01T13:51:05.409Z</time></trkpt><trkpt lat="47.027104566666665" lon="11.500318350000002"><ele>1251.0</ele><time>2026-05-01T13:51:06.413Z</time></trkpt><trkpt lat="47.027138083333334" lon="11.499980699999998"><ele>1247.0</ele><time>2026-05-01T13:51:07.422Z</time></trkpt><trkpt lat="47.027185683333336" lon="11.499630533333333"><ele>1243.0</ele><time>2026-05-01T13:51:08.415Z</time></trkpt><trkpt lat="47.027230266666656" lon="11.499289033333332"><ele>1241.5</ele><time>2026-05-01T13:51:09.399Z</time></trkpt><trkpt lat="47.02726768333334" lon="11.498954933333334"><ele>1240.0</ele><time>2026-05-01T13:51:10.401Z</time></trkpt><trkpt lat="47.02729169999999" lon="11.498629850000002"><ele>1237.6666666666665</ele><time>2026-05-01T13:51:11.432Z</time></trkpt><trkpt lat="47.02729415000001" lon="11.498314450000002"><ele>1235.3333333333333</ele><time>2026-05-01T13:51:12.413Z</time></trkpt><trkpt lat="47.02727450000001" lon="11.498001816666665"><ele>1233.0</ele><time>2026-05-01T13:51:13.417Z</time></trkpt><trkpt lat="47.02724665000001" lon="11.49769405"><ele>1232.0</ele><time>2026-05-01T13:51:14.399Z</time></trkpt><trkpt lat="47.02723003333334" lon="11.497393366666664"><ele>1231.0</ele><time>2026-05-01T13:51:15.405Z</time></trkpt><trkpt lat="47.02723833333333" lon="11.497098966666666"><ele>1230.0</ele><time>2026-05-01T13:51:16.421Z</time></trkpt><trkpt lat="47.027276316666665" lon="11.496802433333336"><ele>1229.6666666666667</ele><time>2026-05-01T13:51:17.437Z</time></trkpt><trkpt lat="47.02734323333335" lon="11.496498216666666"><ele>1229.3333333333335</ele><time>2026-05-01T13:51:18.411Z</time></trkpt><trkpt lat="47.02742368333333" lon="11.496190133333334"><ele>1229.0</ele><time>2026-05-01T13:51:19.401Z</time></trkpt><trkpt lat="47.027507016666675" lon="11.495875450000002"><ele>1228.5</ele><time>2026-05-01T13:51:20.408Z</time></trkpt><trkpt lat="47.027590666666676" lon="11.495558316666665"><ele>1228.0</ele><time>2026-05-01T13:51:21.411Z</time></trkpt><trkpt lat="47.027672583333334" lon="11.495247833333334"><ele>1228.0</ele><time>2026-05-01T13:51:22.419Z</time></trkpt><trkpt lat="47.0277513" lon="11.494948433333333"><ele>1228.0</ele><time>2026-05-01T13:51:23.406Z</time></trkpt><trkpt lat="47.02782943333333" lon="11.494658933333335"><ele>1228.0</ele><time>2026-05-01T13:51:24.418Z</time></trkpt><trkpt lat="47.02790846666667" lon="11.494367266666666"><ele>1227.6666666666665</ele><time>2026-05-01T13:51:25.416Z</time></trkpt><trkpt lat="47.027990033333325" lon="11.49407355"><ele>1227.3333333333333</ele><time>2026-05-01T13:51:26.4Z</time></trkpt><trkpt lat="47.028077383333326" lon="11.493781216666667"><ele>1227.0</ele><time>2026-05-01T13:51:27.416Z</time></trkpt><trkpt lat="47.0281733" lon="11.493489983333331"><ele>1226.6666666666667</ele><time>2026-05-01T13:51:28.415Z</time></trkpt><trkpt lat="47.02827591666667" lon="11.493206933333333"><ele>1226.3333333333335</ele><time>2026-05-01T13:51:29.4Z</time></trkpt><trkpt lat="47.02838601666667" lon="11.492927416666664"><ele>1226.0</ele><time>2026-05-01T13:51:30.4Z</time></trkpt><trkpt lat="47.028499883333346" lon="11.492645766666664"><ele>1226.0</ele><time>2026-05-01T13:51:31.419Z</time></trkpt><trkpt lat="47.02861583333333" lon="11.492366283333334"><ele>1226.0</ele><time>2026-05-01T13:51:32.398Z</time></trkpt><trkpt lat="47.028732516666665" lon="11.4920866"><ele>1226.0</ele><time>2026-05-01T13:51:33.418Z</time></trkpt><trkpt lat="47.0288457" lon="11.491815116666666"><ele>1226.0</ele><time>2026-05-01T13:51:34.421Z</time></trkpt><trkpt lat="47.02895301666667" lon="11.4915556"><ele>1226.0</ele><time>2026-05-01T13:51:35.398Z</time></trkpt><trkpt lat="47.029054983333324" lon="11.491312333333333"><ele>1226.0</ele><time>2026-05-01T13:51:36.411Z</time></trkpt><trkpt lat="47.02914965" lon="11.491080383333333"><ele>1223.6666666666667</ele><time>2026-05-01T13:51:37.399Z</time></trkpt><trkpt lat="47.02923933333333" lon="11.490866583333332"><ele>1221.3333333333333</ele><time>2026-05-01T13:51:38.446Z</time></trkpt><trkpt lat="47.02932366666667" lon="11.490661150000003"><ele>1219.0</ele><time>2026-05-01T13:51:39.412Z</time></trkpt><trkpt lat="47.02940521666666" lon="11.49046675"><ele>1223.75</ele><time>2026-05-01T13:51:40.418Z</time></trkpt><trkpt lat="47.02949228333333" lon="11.490287799999999"><ele>1228.5</ele><time>2026-05-01T13:51:41.401Z</time></trkpt><trkpt lat="47.02958635" lon="11.490124733333335"><ele>1233.25</ele><time>2026-05-01T13:51:42.408Z</time></trkpt><trkpt lat="47.02969060000001" lon="11.489971466666669"><ele>1238.0</ele><time>2026-05-01T13:51:43.417Z</time></trkpt><trkpt lat="47.029805383333326" lon="11.489825416666667"><ele>1238.0</ele><time>2026-05-01T13:51:44.4Z</time></trkpt><trkpt lat="47.02992195" lon="11.489676349999998"><ele>1238.0</ele><time>2026-05-01T13:51:45.412Z</time></trkpt><trkpt lat="47.030031683333334" lon="11.489512633333332"><ele>1238.0</ele><time>2026-05-01T13:51:46.398Z</time></trkpt><trkpt lat="47.03013223333335" lon="11.489336016666668"><ele>1235.0</ele><time>2026-05-01T13:51:47.418Z</time></trkpt><trkpt lat="47.030230200000005" lon="11.489151199999998"><ele>1232.0</ele><time>2026-05-01T13:51:48.413Z</time></trkpt><trkpt lat="47.030334466666666" lon="11.488970383333331"><ele>1229.0</ele><time>2026-05-01T13:51:49.416Z</time></trkpt><trkpt lat="47.030446600000005" lon="11.488795083333333"><ele>1225.6666666666667</ele><time>2026-05-01T13:51:50.4Z</time></trkpt><trkpt lat="47.030565499999994" lon="11.488627350000002"><ele>1222.3333333333333</ele><time>2026-05-01T13:51:51.411Z</time></trkpt><trkpt lat="47.030686016666664" lon="11.48847455"><ele>1219.0</ele><time>2026-05-01T13:51:52.42Z</time></trkpt><trkpt lat="47.0308095" lon="11.488347050000002"><ele>1219.0</ele><time>2026-05-01T13:51:53.4Z</time></trkpt><trkpt lat="47.03093511666666" lon="11.488227316666666"><ele>1219.0</ele><time>2026-05-01T13:51:54.399Z</time></trkpt><trkpt lat="47.031063116666665" lon="11.488105700000002"><ele>1219.0</ele><time>2026-05-01T13:51:55.418Z</time></trkpt><trkpt lat="47.03119313333333" lon="11.487983216666665"><ele>1225.3333333333333</ele><time>2026-05-01T13:51:56.398Z</time></trkpt><trkpt lat="47.031320783333335" lon="11.48785995"><ele>1231.6666666666667</ele><time>2026-05-01T13:51:57.415Z</time></trkpt><trkpt lat="47.03144705" lon="11.487731049999999"><ele>1238.0</ele><time>2026-05-01T13:51:58.417Z</time></trkpt><trkpt lat="47.03157123333334" lon="11.487588433333334"><ele>1233.3333333333335</ele><time>2026-05-01T13:51:59.4Z</time></trkpt><trkpt lat="47.03168835" lon="11.487421416666665"><ele>1228.6666666666667</ele><time>2026-05-01T13:52:00.412Z</time></trkpt><trkpt lat="47.031798099999996" lon="11.487232983333334"><ele>1224.0</ele><time>2026-05-01T13:52:01.418Z</time></trkpt><trkpt lat="47.03192683584176" lon="11.487066567123398"><ele>1224.0</ele><time>2026-05-01T13:52:02.398Z</time></trkpt><trkpt lat="47.032031833333335" lon="11.486855983333331"><ele>1224.0</ele><time>2026-05-01T13:52:03.412Z</time></trkpt><trkpt lat="47.032164716666664" lon="11.486684333333336"><ele>1224.0</ele><time>2026-05-01T13:52:04.398Z</time></trkpt><trkpt lat="47.03229911666667" lon="11.486522066666666"><ele>1224.0</ele><time>2026-05-01T13:52:05.4Z</time></trkpt><trkpt lat="47.03242983333333" lon="11.486368016666667"><ele>1224.0</ele><time>2026-05-01T13:52:06.4Z</time></trkpt><trkpt lat="47.03255506666666" lon="11.486205566666667"><ele>1224.0</ele><time>2026-05-01T13:52:07.398Z</time></trkpt><trkpt lat="47.03267618333332" lon="11.486026916666665"><ele>1218.3333333333333</ele><time>2026-05-01T13:52:08.4Z</time></trkpt><trkpt lat="47.03279388333333" lon="11.4858399"><ele>1212.6666666666665</ele><time>2026-05-01T13:52:09.418Z</time></trkpt><trkpt lat="47.03290526666667" lon="11.485641400000002"><ele>1207.0</ele><time>2026-05-01T13:52:10.416Z</time></trkpt><trkpt lat="47.03301678333334" lon="11.4854432"><ele>1205.3333333333333</ele><time>2026-05-01T13:52:11.417Z</time></trkpt><trkpt lat="47.033132983333346" lon="11.4852647"><ele>1203.6666666666667</ele><time>2026-05-01T13:52:12.414Z</time></trkpt><trkpt lat="47.0332497" lon="11.485110449999999"><ele>1202.0</ele><time>2026-05-01T13:52:13.418Z</time></trkpt><trkpt lat="47.033368" lon="11.484974583333333"><ele>1202.0</ele><time>2026-05-01T13:52:14.4Z</time></trkpt><trkpt lat="47.03349725" lon="11.48483775"><ele>1202.0</ele><time>2026-05-01T13:52:15.412Z</time></trkpt><trkpt lat="47.03363483333333" lon="11.484697216666666"><ele>1202.0</ele><time>2026-05-01T13:52:16.399Z</time></trkpt><trkpt lat="47.033784716666666" lon="11.484555283333334"><ele>1201.3333333333335</ele><time>2026-05-01T13:52:17.4Z</time></trkpt><trkpt lat="47.03394098333333" lon="11.484404733333333"><ele>1200.6666666666667</ele><time>2026-05-01T13:52:18.418Z</time></trkpt><trkpt lat="47.03410021666667" lon="11.484249366666665"><ele>1200.0</ele><time>2026-05-01T13:52:19.406Z</time></trkpt><trkpt lat="47.034258533333336" lon="11.484084466666665"><ele>1200.0</ele><time>2026-05-01T13:52:20.435Z</time></trkpt><trkpt lat="47.03440831666667" lon="11.483912166666668"><ele>1200.0</ele><time>2026-05-01T13:52:21.414Z</time></trkpt><trkpt lat="47.03454281666667" lon="11.483734"><ele>1200.0</ele><time>2026-05-01T13:52:22.421Z</time></trkpt><trkpt lat="47.03466611666666" lon="11.483545333333332"><ele>1199.6666666666667</ele><time>2026-05-01T13:52:23.416Z</time></trkpt><trkpt lat="47.03478403333334" lon="11.483350683333333"><ele>1199.3333333333335</ele><time>2026-05-01T13:52:24.412Z</time></trkpt><trkpt lat="47.03489163333334" lon="11.483161933333333"><ele>1199.0</ele><time>2026-05-01T13:52:25.418Z</time></trkpt><trkpt lat="47.03498856666667" lon="11.482993383333334"><ele>1197.75</ele><time>2026-05-01T13:52:26.4Z</time></trkpt><trkpt lat="47.03507973333333" lon="11.482849383333333"><ele>1196.5</ele><time>2026-05-01T13:52:27.415Z</time></trkpt><trkpt lat="47.03516580000001" lon="11.4827154"><ele>1195.25</ele><time>2026-05-01T13:52:28.409Z</time></trkpt><trkpt lat="47.03524616666667" lon="11.482582016666667"><ele>1194.0</ele><time>2026-05-01T13:52:29.404Z</time></trkpt><trkpt lat="47.035320866666666" lon="11.482445783333333"><ele>1194.0</ele><time>2026-05-01T13:52:30.413Z</time></trkpt><trkpt lat="47.03538203333332" lon="11.482303166666668"><ele>1194.0</ele><time>2026-05-01T13:52:31.418Z</time></trkpt><trkpt lat="47.03543689999999" lon="11.482159200000002"><ele>1194.0</ele><time>2026-05-01T13:52:32.411Z</time></trkpt><trkpt lat="47.03548553333333" lon="11.48200935"><ele>1194.0</ele><time>2026-05-01T13:52:33.411Z</time></trkpt><trkpt lat="47.035528533333334" lon="11.481856783333335"><ele>1194.4</ele><time>2026-05-01T13:52:34.416Z</time></trkpt><trkpt lat="47.03556985" lon="11.481708566666669"><ele>1194.8000000000002</ele><time>2026-05-01T13:52:35.435Z</time></trkpt><trkpt lat="47.03560900000001" lon="11.481563666666668"><ele>1195.1999999999998</ele><time>2026-05-01T13:52:36.418Z</time></trkpt><trkpt lat="47.03565243333334" lon="11.48142045"><ele>1195.6</ele><time>2026-05-01T13:52:37.408Z</time></trkpt><trkpt lat="47.03570441666667" lon="11.481280516666668"><ele>1196.0</ele><time>2026-05-01T13:52:38.432Z</time></trkpt><trkpt lat="47.03576351666667" lon="11.481141449999999"><ele>1192.25</ele><time>2026-05-01T13:52:39.412Z</time></trkpt><trkpt lat="47.03582776666667" lon="11.481009183333333"><ele>1188.5</ele><time>2026-05-01T13:52:40.419Z</time></trkpt><trkpt lat="47.035898200000005" lon="11.48088185"><ele>1184.75</ele><time>2026-05-01T13:52:41.408Z</time></trkpt><trkpt lat="47.03597705" lon="11.480758716666665"><ele>1181.0</ele><time>2026-05-01T13:52:42.415Z</time></trkpt><trkpt lat="47.03606391666667" lon="11.4806361"><ele>1181.0</ele><time>2026-05-01T13:52:43.4Z</time></trkpt><trkpt lat="47.036157249999995" lon="11.480513366666665"><ele>1181.0</ele><time>2026-05-01T13:52:44.432Z</time></trkpt><trkpt lat="47.03625436666667" lon="11.480390266666667"><ele>1181.0</ele><time>2026-05-01T13:52:45.416Z</time></trkpt><trkpt lat="47.03635308333334" lon="11.480262616666668"><ele>1181.0</ele><time>2026-05-01T13:52:46.4Z</time></trkpt><trkpt lat="47.03645051666667" lon="11.480130316666669"><ele>1181.25</ele><time>2026-05-01T13:52:47.399Z</time></trkpt><trkpt lat="47.03654851666667" lon="11.479997633333335"><ele>1181.5</ele><time>2026-05-01T13:52:48.418Z</time></trkpt><trkpt lat="47.0366424" lon="11.4798658"><ele>1181.75</ele><time>2026-05-01T13:52:49.418Z</time></trkpt><trkpt lat="47.03673595" lon="11.479740233333333"><ele>1182.0</ele><time>2026-05-01T13:52:50.401Z</time></trkpt><trkpt lat="47.03683676666666" lon="11.4796198"><ele>1181.25</ele><time>2026-05-01T13:52:51.419Z</time></trkpt><trkpt lat="47.03694165" lon="11.479505916666668"><ele>1180.5</ele><time>2026-05-01T13:52:52.4Z</time></trkpt><trkpt lat="47.03705265" lon="11.4794063"><ele>1179.75</ele><time>2026-05-01T13:52:53.4Z</time></trkpt><trkpt lat="47.03717413333334" lon="11.479327083333331"><ele>1179.0</ele><time>2026-05-01T13:52:54.412Z</time></trkpt><trkpt lat="47.0373003" lon="11.479267616666666"><ele>1179.0</ele><time>2026-05-01T13:52:55.416Z</time></trkpt><trkpt lat="47.03742738333334" lon="11.479221916666665"><ele>1179.0</ele><time>2026-05-01T13:52:56.435Z</time></trkpt><trkpt lat="47.03755533333332" lon="11.479190083333334"><ele>1179.0</ele><time>2026-05-01T13:52:57.412Z</time></trkpt><trkpt lat="47.03768756666667" lon="11.47916883333333"><ele>1179.0</ele><time>2026-05-01T13:52:58.417Z</time></trkpt><trkpt lat="47.037824500000006" lon="11.479152466666667"><ele>1178.75</ele><time>2026-05-01T13:52:59.435Z</time></trkpt><trkpt lat="47.03796375" lon="11.479137516666665"><ele>1178.5</ele><time>2026-05-01T13:53:00.418Z</time></trkpt><trkpt lat="47.03810436666666" lon="11.47912575"><ele>1178.25</ele><time>2026-05-01T13:53:01.421Z</time></trkpt><trkpt lat="47.038243316666666" lon="11.479115916666668"><ele>1178.0</ele><time>2026-05-01T13:53:02.399Z</time></trkpt><trkpt lat="47.038381483333325" lon="11.479117316666668"><ele>1177.75</ele><time>2026-05-01T13:53:03.415Z</time></trkpt><trkpt lat="47.03851808333334" lon="11.4791453"><ele>1177.5</ele><time>2026-05-01T13:53:04.419Z</time></trkpt><trkpt lat="47.038653149999995" lon="11.479204916666667"><ele>1177.25</ele><time>2026-05-01T13:53:05.4Z</time></trkpt><trkpt lat="47.03878533333333" lon="11.479297049999998"><ele>1177.0</ele><time>2026-05-01T13:53:06.412Z</time></trkpt><trkpt lat="47.038907699999996" lon="11.479416016666667"><ele>1177.0</ele><time>2026-05-01T13:53:07.42Z</time></trkpt><trkpt lat="47.03899944857749" lon="11.479571421820275"><ele>1177.0</ele><time>2026-05-01T13:53:08.397Z</time></trkpt><trkpt lat="47.03907748994896" lon="11.479716655752142"><ele>1177.0</ele><time>2026-05-01T13:53:09.417Z</time></trkpt><trkpt lat="47.03916550000001" lon="11.479846566666666"><ele>1177.0</ele><time>2026-05-01T13:53:10.421Z</time></trkpt><trkpt lat="47.03923424999999" lon="11.479995599999999"><ele>1176.5</ele><time>2026-05-01T13:53:11.399Z</time></trkpt><trkpt lat="47.0392959" lon="11.480148616666668"><ele>1176.0</ele><time>2026-05-01T13:53:12.398Z</time></trkpt><trkpt lat="47.03935634999999" lon="11.480303233333332"><ele>1175.5</ele><time>2026-05-01T13:53:13.4Z</time></trkpt><trkpt lat="47.039416716666665" lon="11.480449183333334"><ele>1175.0</ele><time>2026-05-01T13:53:14.4Z</time></trkpt><trkpt lat="47.039479933333325" lon="11.480592783333334"><ele>1175.0</ele><time>2026-05-01T13:53:15.399Z</time></trkpt><trkpt lat="47.03954160000001" lon="11.480733633333333"><ele>1175.0</ele><time>2026-05-01T13:53:16.408Z</time></trkpt><trkpt lat="47.03960155" lon="11.480872649999998"><ele>1175.0</ele><time>2026-05-01T13:53:17.397Z</time></trkpt><trkpt lat="47.03964485307422" lon="11.481023881501207"><ele>1175.0</ele><time>2026-05-01T13:53:18.399Z</time></trkpt><trkpt lat="47.03969929316701" lon="11.481165888862328"><ele>1175.0</ele><time>2026-05-01T13:53:19.419Z</time></trkpt><trkpt lat="47.03974865759528" lon="11.48131125063766"><ele>1173.25</ele><time>2026-05-01T13:53:20.417Z</time></trkpt><trkpt lat="47.039796239691405" lon="11.481467933694395"><ele>1171.5</ele><time>2026-05-01T13:53:21.414Z</time></trkpt><trkpt lat="47.03985127132686" lon="11.481626059966572"><ele>1169.75</ele><time>2026-05-01T13:53:22.423Z</time></trkpt><trkpt lat="47.03991296133161" lon="11.481778137569366"><ele>1168.0</ele><time>2026-05-01T13:53:23.409Z</time></trkpt><trkpt lat="47.03998999967603" lon="11.48191305579082"><ele>1168.0</ele><time>2026-05-01T13:53:24.413Z</time></trkpt><trkpt lat="47.040087641581124" lon="11.482026729688537"><ele>1168.0</ele><time>2026-05-01T13:53:25.397Z</time></trkpt><trkpt lat="47.04019024761259" lon="11.482114868448113"><ele>1168.0</ele><time>2026-05-01T13:53:26.416Z</time></trkpt><trkpt lat="47.0403079" lon="11.482156133333334"><ele>1168.0</ele><time>2026-05-01T13:53:27.42Z</time></trkpt><trkpt lat="47.04041835373131" lon="11.482236871005234"><ele>1167.75</ele><time>2026-05-01T13:53:28.417Z</time></trkpt><trkpt lat="47.04054180073555" lon="11.4823001829593"><ele>1167.5</ele><time>2026-05-01T13:53:29.417Z</time></trkpt><trkpt lat="47.0406606745655" lon="11.482364909850489"><ele>1167.25</ele><time>2026-05-01T13:53:30.416Z</time></trkpt><trkpt lat="47.040780418029364" lon="11.482431244367588"><ele>1167.0</ele><time>2026-05-01T13:53:31.421Z</time></trkpt><trkpt lat="47.04090266824347" lon="11.482497410187738"><ele>1167.0</ele><time>2026-05-01T13:53:32.44Z</time></trkpt><trkpt lat="47.041028128271556" lon="11.482562472557321"><ele>1167.0</ele><time>2026-05-01T13:53:33.413Z</time></trkpt><trkpt lat="47.04115344535446" lon="11.482618780156525"><ele>1167.0</ele><time>2026-05-01T13:53:34.418Z</time></trkpt><trkpt lat="47.04127800445556" lon="11.482667565675136"><ele>1167.0</ele><time>2026-05-01T13:53:35.399Z</time></trkpt><trkpt lat="47.04140928333332" lon="11.482688633333332"><ele>1167.0</ele><time>2026-05-01T13:53:36.412Z</time></trkpt><trkpt lat="47.04154055000001" lon="11.482723383333333"><ele>1167.0</ele><time>2026-05-01T13:53:37.42Z</time></trkpt><trkpt lat="47.04167300000001" lon="11.482753216666667"><ele>1167.0</ele><time>2026-05-01T13:53:38.432Z</time></trkpt><trkpt lat="47.04180636666667" lon="11.482787083333335"><ele>1167.0</ele><time>2026-05-01T13:53:39.412Z</time></trkpt><trkpt lat="47.041941" lon="11.482821683333334"><ele>1165.25</ele><time>2026-05-01T13:53:40.399Z</time></trkpt><trkpt lat="47.04207796666666" lon="11.482851083333333"><ele>1163.5</ele><time>2026-05-01T13:53:41.399Z</time></trkpt><trkpt lat="47.04221859999999" lon="11.482874283333334"><ele>1161.75</ele><time>2026-05-01T13:53:42.415Z</time></trkpt><trkpt lat="47.04236061666667" lon="11.482898366666666"><ele>1160.0</ele><time>2026-05-01T13:53:43.399Z</time></trkpt><trkpt lat="47.04250216666666" lon="11.482907716666666"><ele>1160.0</ele><time>2026-05-01T13:53:44.436Z</time></trkpt><trkpt lat="47.04264403333333" lon="11.482904266666667"><ele>1160.0</ele><time>2026-05-01T13:53:45.417Z</time></trkpt><trkpt lat="47.04278681666666" lon="11.482898399999998"><ele>1160.0</ele><time>2026-05-01T13:53:46.42Z</time></trkpt><trkpt lat="47.04292631666667" lon="11.482892466666666"><ele>1160.0</ele><time>2026-05-01T13:53:47.399Z</time></trkpt><trkpt lat="47.04306450000001" lon="11.482887566666665"><ele>1160.0</ele><time>2026-05-01T13:53:48.417Z</time></trkpt><trkpt lat="47.043202533333336" lon="11.482879816666665"><ele>1160.0</ele><time>2026-05-01T13:53:49.418Z</time></trkpt><trkpt lat="47.04333865" lon="11.482870133333332"><ele>1160.0</ele><time>2026-05-01T13:53:50.399Z</time></trkpt><trkpt lat="47.043472949999995" lon="11.482860683333335"><ele>1160.0</ele><time>2026-05-01T13:53:51.4Z</time></trkpt><trkpt lat="47.04360928333334" lon="11.482859166666666"><ele>1160.0</ele><time>2026-05-01T13:53:52.423Z</time></trkpt><trkpt lat="47.04374483333333" lon="11.482866249999999"><ele>1160.0</ele><time>2026-05-01T13:53:53.433Z</time></trkpt><trkpt lat="47.043880216666665" lon="11.482890200000002"><ele>1160.0</ele><time>2026-05-01T13:53:54.418Z</time></trkpt><trkpt lat="47.04401791666666" lon="11.482944650000002"><ele>1160.0</ele><time>2026-05-01T13:53:55.418Z</time></trkpt><trkpt lat="47.044150300000005" lon="11.483030516666666"><ele>1161.75</ele><time>2026-05-01T13:53:56.417Z</time></trkpt><trkpt lat="47.04427141666667" lon="11.483141016666664"><ele>1163.5</ele><time>2026-05-01T13:53:57.414Z</time></trkpt><trkpt lat="47.04438478333333" lon="11.483272549999999"><ele>1165.25</ele><time>2026-05-01T13:53:58.416Z</time></trkpt><trkpt lat="47.044471738807445" lon="11.483439822015514"><ele>1167.0</ele><time>2026-05-01T13:53:59.415Z</time></trkpt><trkpt lat="47.04456576076436" lon="11.483588366683291"><ele>1167.0</ele><time>2026-05-01T13:54:00.399Z</time></trkpt><trkpt lat="47.04467687619847" lon="11.483698672657983"><ele>1167.0</ele><time>2026-05-01T13:54:01.417Z</time></trkpt><trkpt lat="47.044801716666676" lon="11.483747366666666"><ele>1167.0</ele><time>2026-05-01T13:54:02.397Z</time></trkpt><trkpt lat="47.04493168333334" lon="11.483777899999998"><ele>1167.0</ele><time>2026-05-01T13:54:03.412Z</time></trkpt><trkpt lat="47.045068583333325" lon="11.4837642"><ele>1170.0</ele><time>2026-05-01T13:54:04.409Z</time></trkpt><trkpt lat="47.04520771666666" lon="11.483720166666668"><ele>1173.0</ele><time>2026-05-01T13:54:05.399Z</time></trkpt><trkpt lat="47.045347266666674" lon="11.4836441"><ele>1176.0</ele><time>2026-05-01T13:54:06.412Z</time></trkpt><trkpt lat="47.045487916666666" lon="11.483558583333334"><ele>1179.0</ele><time>2026-05-01T13:54:07.42Z</time></trkpt><trkpt lat="47.04563711666666" lon="11.483489266666666"><ele>1177.6666666666667</ele><time>2026-05-01T13:54:08.432Z</time></trkpt><trkpt lat="47.04579686983627" lon="11.483475828052281"><ele>1176.3333333333335</ele><time>2026-05-01T13:54:09.399Z</time></trkpt><trkpt lat="47.04596276213615" lon="11.483482631260005"><ele>1175.0</ele><time>2026-05-01T13:54:10.417Z</time></trkpt><trkpt lat="47.04613201063817" lon="11.483517266048192"><ele>1175.0</ele><time>2026-05-01T13:54:11.417Z</time></trkpt><trkpt lat="47.04631368711127" lon="11.483556372350836"><ele>1175.0</ele><time>2026-05-01T13:54:12.414Z</time></trkpt><trkpt lat="47.04650837088909" lon="11.483598285808233"><ele>1175.0</ele><time>2026-05-01T13:54:13.408Z</time></trkpt><trkpt lat="47.04671568877416" lon="11.483633551351103"><ele>1171.0</ele><time>2026-05-01T13:54:14.417Z</time></trkpt><trkpt lat="47.046919107594476" lon="11.483643019413966"><ele>1167.0</ele><time>2026-05-01T13:54:15.413Z</time></trkpt><trkpt lat="47.04711808316687" lon="11.483648549787619"><ele>1163.0</ele><time>2026-05-01T13:54:16.423Z</time></trkpt><trkpt lat="47.04730803196304" lon="11.483655054618403"><ele>1166.3333333333335</ele><time>2026-05-01T13:54:17.413Z</time></trkpt><trkpt lat="47.04749179257518" lon="11.483671360699997"><ele>1169.6666666666667</ele><time>2026-05-01T13:54:18.401Z</time></trkpt><trkpt lat="47.04767212757293" lon="11.4837124054562"><ele>1173.0</ele><time>2026-05-01T13:54:19.417Z</time></trkpt><trkpt lat="47.04785185832278" lon="11.48377480204368"><ele>1173.0</ele><time>2026-05-01T13:54:20.417Z</time></trkpt><trkpt lat="47.04803295712953" lon="11.483880107124012"><ele>1173.0</ele><time>2026-05-01T13:54:21.42Z</time></trkpt><trkpt lat="47.04821475136397" lon="11.48401339260855"><ele>1173.0</ele><time>2026-05-01T13:54:22.402Z</time></trkpt><trkpt lat="47.04839978564013" lon="11.484166091300493"><ele>1170.6666666666667</ele><time>2026-05-01T13:54:23.433Z</time></trkpt><trkpt lat="47.04859051668268" lon="11.484323491247627"><ele>1168.3333333333335</ele><time>2026-05-01T13:54:24.418Z</time></trkpt><trkpt lat="47.048789557342396" lon="11.484487748747263"><ele>1166.0</ele><time>2026-05-01T13:54:25.417Z</time></trkpt><trkpt lat="47.04898956343134" lon="11.484637965478287"><ele>1157.3333333333335</ele><time>2026-05-01T13:54:26.399Z</time></trkpt><trkpt lat="47.04918378513062" lon="11.484751043943572"><ele>1148.6666666666667</ele><time>2026-05-01T13:54:27.415Z</time></trkpt><trkpt lat="47.049384740617086" lon="11.484841174934054"><ele>1140.0</ele><time>2026-05-01T13:54:28.417Z</time></trkpt><trkpt lat="47.0495984" lon="11.484876750000002"><ele>1140.0</ele><time>2026-05-01T13:54:29.432Z</time></trkpt><trkpt lat="47.04981916666667" lon="11.484911499999999"><ele>1140.0</ele><time>2026-05-01T13:54:30.416Z</time></trkpt><trkpt lat="47.05004518333333" lon="11.48493685"><ele>1140.0</ele><time>2026-05-01T13:54:31.401Z</time></trkpt><trkpt lat="47.05026936666666" lon="11.484977050000001"><ele>1139.6666666666667</ele><time>2026-05-01T13:54:32.407Z</time></trkpt><trkpt lat="47.05048324999999" lon="11.485049233333333"><ele>1139.3333333333335</ele><time>2026-05-01T13:54:33.4Z</time></trkpt><trkpt lat="47.05068901794903" lon="11.485182465095823"><ele>1139.0</ele><time>2026-05-01T13:54:34.421Z</time></trkpt><trkpt lat="47.050901018059974" lon="11.485304103408389"><ele>1141.0</ele><time>2026-05-01T13:54:35.407Z</time></trkpt><trkpt lat="47.05111724050994" lon="11.485431716587586"><ele>1143.0</ele><time>2026-05-01T13:54:36.42Z</time></trkpt><trkpt lat="47.051334566666675" lon="11.485533783333336"><ele>1143.0</ele><time>2026-05-01T13:54:37.422Z</time></trkpt><trkpt lat="47.05153423333333" lon="11.485652333333334"><ele>1143.0</ele><time>2026-05-01T13:54:38.417Z</time></trkpt><trkpt lat="47.05171849737174" lon="11.485786716171102"><ele>1143.0</ele><time>2026-05-01T13:54:39.413Z</time></trkpt><trkpt lat="47.05189460838255" lon="11.48589395475769"><ele>1141.6666666666667</ele><time>2026-05-01T13:54:40.421Z</time></trkpt><trkpt lat="47.05206281990992" lon="11.485991671910089"><ele>1140.3333333333335</ele><time>2026-05-01T13:54:41.417Z</time></trkpt><trkpt lat="47.0522265409844" lon="11.486069090198937"><ele>1139.0</ele><time>2026-05-01T13:54:42.416Z</time></trkpt><trkpt lat="47.05239026806385" lon="11.48612051900707"><ele>1142.0</ele><time>2026-05-01T13:54:43.417Z</time></trkpt><trkpt lat="47.05254839124511" lon="11.486146434908118"><ele>1145.0</ele><time>2026-05-01T13:54:44.399Z</time></trkpt><trkpt lat="47.05269738333333" lon="11.486133683333334"><ele>1148.0</ele><time>2026-05-01T13:54:45.419Z</time></trkpt><trkpt lat="47.05282808333333" lon="11.486134483333336"><ele>1151.0</ele><time>2026-05-01T13:54:46.399Z</time></trkpt><trkpt lat="47.05294423333333" lon="11.486119350000003"><ele>1151.0</ele><time>2026-05-01T13:54:47.435Z</time></trkpt><trkpt lat="47.05305106666667" lon="11.486093316666665"><ele>1151.0</ele><time>2026-05-01T13:54:48.399Z</time></trkpt><trkpt lat="47.053155516666656" lon="11.48605115"><ele>1151.0</ele><time>2026-05-01T13:54:49.399Z</time></trkpt><trkpt lat="47.05326821666666" lon="11.485982533333333"><ele>1151.0</ele><time>2026-05-01T13:54:50.445Z</time></trkpt><trkpt lat="47.05339433333334" lon="11.48587585"><ele>1151.3333333333335</ele><time>2026-05-01T13:54:51.412Z</time></trkpt><trkpt lat="47.053539833333325" lon="11.48572451666667"><ele>1151.6666666666667</ele><time>2026-05-01T13:54:52.399Z</time></trkpt><trkpt lat="47.053700033333335" lon="11.485539033333334"><ele>1152.0</ele><time>2026-05-01T13:54:53.399Z</time></trkpt><trkpt lat="47.05385556666667" lon="11.485336066666665"><ele>1152.0</ele><time>2026-05-01T13:54:54.399Z</time></trkpt><trkpt lat="47.05401063201192" lon="11.485185177799938"><ele>1152.0</ele><time>2026-05-01T13:54:55.42Z</time></trkpt><trkpt lat="47.05415670077124" lon="11.48506034763908"><ele>1152.0</ele><time>2026-05-01T13:54:56.432Z</time></trkpt><trkpt lat="47.05430209632573" lon="11.4849648298687"><ele>1143.0</ele><time>2026-05-01T13:54:57.416Z</time></trkpt><trkpt lat="47.054447407551024" lon="11.484885432697379"><ele>1134.0</ele><time>2026-05-01T13:54:58.42Z</time></trkpt><trkpt lat="47.05460693073849" lon="11.484828468523498"><ele>1125.0</ele><time>2026-05-01T13:54:59.457Z</time></trkpt><trkpt lat="47.054780804479975" lon="11.484793167326815"><ele>1128.0</ele><time>2026-05-01T13:55:00.399Z</time></trkpt><trkpt lat="47.05497298952698" lon="11.484767834618001"><ele>1131.0</ele><time>2026-05-01T13:55:01.417Z</time></trkpt><trkpt lat="47.055169227823114" lon="11.48474905469765"><ele>1134.0</ele><time>2026-05-01T13:55:02.399Z</time></trkpt><trkpt lat="47.05535025432224" lon="11.484726552738177"><ele>1134.0</ele><time>2026-05-01T13:55:03.419Z</time></trkpt><trkpt lat="47.055523916666665" lon="11.48473715"><ele>1134.0</ele><time>2026-05-01T13:55:04.417Z</time></trkpt><trkpt lat="47.05569335" lon="11.484809616666666"><ele>1134.0</ele><time>2026-05-01T13:55:05.409Z</time></trkpt><trkpt lat="47.05586586666667" lon="11.48489655"><ele>1130.6666666666667</ele><time>2026-05-01T13:55:06.412Z</time></trkpt><trkpt lat="47.056052533333336" lon="11.485005666666664"><ele>1127.3333333333335</ele><time>2026-05-01T13:55:07.397Z</time></trkpt><trkpt lat="47.05623265" lon="11.485127533333332"><ele>1124.0</ele><time>2026-05-01T13:55:08.399Z</time></trkpt><trkpt lat="47.056404266666675" lon="11.485247683333334"><ele>1124.0</ele><time>2026-05-01T13:55:09.399Z</time></trkpt><trkpt lat="47.05656321666667" lon="11.485353083333333"><ele>1124.0</ele><time>2026-05-01T13:55:10.419Z</time></trkpt><trkpt lat="47.05671495" lon="11.485442766666667"><ele>1124.0</ele><time>2026-05-01T13:55:11.418Z</time></trkpt><trkpt lat="47.05686848333333" lon="11.485515266666669"><ele>1123.3333333333335</ele><time>2026-05-01T13:55:12.4Z</time></trkpt><trkpt lat="47.057034599999994" lon="11.485549766666667"><ele>1122.6666666666667</ele><time>2026-05-01T13:55:13.419Z</time></trkpt><trkpt lat="47.05722116666667" lon="11.485544566666665"><ele>1122.0</ele><time>2026-05-01T13:55:14.4Z</time></trkpt><trkpt lat="47.05741893333334" lon="11.485523616666667"><ele>1119.3333333333333</ele><time>2026-05-01T13:55:15.399Z</time></trkpt><trkpt lat="47.05761725000001" lon="11.485495633333334"><ele>1116.6666666666665</ele><time>2026-05-01T13:55:16.397Z</time></trkpt><trkpt lat="47.057824399999994" lon="11.485467850000003"><ele>1114.0</ele><time>2026-05-01T13:55:17.399Z</time></trkpt><trkpt lat="47.05803689999999" lon="11.485445283333336"><ele>1114.0</ele><time>2026-05-01T13:55:18.4Z</time></trkpt><trkpt lat="47.05825244999999" lon="11.48543096666667"><ele>1114.0</ele><time>2026-05-01T13:55:19.42Z</time></trkpt><trkpt lat="47.058472783333336" lon="11.485427750000001"><ele>1114.0</ele><time>2026-05-01T13:55:20.406Z</time></trkpt><trkpt lat="47.05869129999999" lon="11.48543275"><ele>1114.0</ele><time>2026-05-01T13:55:21.408Z</time></trkpt><trkpt lat="47.05891433333333" lon="11.485455316666666"><ele>1114.0</ele><time>2026-05-01T13:55:22.4Z</time></trkpt><trkpt lat="47.059136300000006" lon="11.485483766666666"><ele>1114.0</ele><time>2026-05-01T13:55:23.426Z</time></trkpt><trkpt lat="47.05935758333333" lon="11.485511716666666"><ele>1114.0</ele><time>2026-05-01T13:55:24.427Z</time></trkpt><trkpt lat="47.059577350000005" lon="11.485541116666665"><ele>1114.0</ele><time>2026-05-01T13:55:25.419Z</time></trkpt><trkpt lat="47.05979658333334" lon="11.485579533333336"><ele>1114.0</ele><time>2026-05-01T13:55:26.423Z</time></trkpt><trkpt lat="47.06001891666667" lon="11.485653966666666"><ele>1114.0</ele><time>2026-05-01T13:55:27.427Z</time></trkpt><trkpt lat="47.06024711666667" lon="11.485766816666667"><ele>1114.0</ele><time>2026-05-01T13:55:28.419Z</time></trkpt><trkpt lat="47.06047343333333" lon="11.485888766666669"><ele>1114.0</ele><time>2026-05-01T13:55:29.422Z</time></trkpt><trkpt lat="47.060685766666666" lon="11.486010616666665"><ele>1114.0</ele><time>2026-05-01T13:55:30.417Z</time></trkpt><trkpt lat="47.06088076666667" lon="11.486129466666668"><ele>1114.0</ele><time>2026-05-01T13:55:31.419Z</time></trkpt><trkpt lat="47.061064416666675" lon="11.48623635"><ele>1122.3333333333333</ele><time>2026-05-01T13:55:32.428Z</time></trkpt><trkpt lat="47.061239549999996" lon="11.486336383333333"><ele>1130.6666666666667</ele><time>2026-05-01T13:55:33.426Z</time></trkpt><trkpt lat="47.061404633333325" lon="11.486433283333334"><ele>1139.0</ele><time>2026-05-01T13:55:34.419Z</time></trkpt><trkpt lat="47.06156086666666" lon="11.486525866666666"><ele>1132.3333333333335</ele><time>2026-05-01T13:55:35.412Z</time></trkpt><trkpt lat="47.06171511666667" lon="11.486611033333334"><ele>1125.6666666666667</ele><time>2026-05-01T13:55:36.426Z</time></trkpt><trkpt lat="47.06187181666666" lon="11.486695149999997"><ele>1119.0</ele><time>2026-05-01T13:55:37.421Z</time></trkpt><trkpt lat="47.062029583333334" lon="11.486787699999999"><ele>1119.0</ele><time>2026-05-01T13:55:38.427Z</time></trkpt><trkpt lat="47.0621893" lon="11.486882216666666"><ele>1119.0</ele><time>2026-05-01T13:55:39.434Z</time></trkpt><trkpt lat="47.06235303333333" lon="11.486982616666666"><ele>1119.0</ele><time>2026-05-01T13:55:40.41Z</time></trkpt><trkpt lat="47.062515649999995" lon="11.487085483333331"><ele>1118.3333333333333</ele><time>2026-05-01T13:55:41.424Z</time></trkpt><trkpt lat="47.06267641666667" lon="11.487189299999999"><ele>1117.6666666666665</ele><time>2026-05-01T13:55:42.428Z</time></trkpt><trkpt lat="47.06283284999999" lon="11.48729495"><ele>1117.0</ele><time>2026-05-01T13:55:43.419Z</time></trkpt><trkpt lat="47.06298698333333" lon="11.4873985"><ele>1117.0</ele><time>2026-05-01T13:55:44.424Z</time></trkpt><trkpt lat="47.06314278333333" lon="11.487501866666666"><ele>1117.0</ele><time>2026-05-01T13:55:45.426Z</time></trkpt><trkpt lat="47.06330016666668" lon="11.487606616666667"><ele>1117.0</ele><time>2026-05-01T13:55:46.419Z</time></trkpt><trkpt lat="47.06345541666666" lon="11.487703366666665"><ele>1113.6666666666665</ele><time>2026-05-01T13:55:47.428Z</time></trkpt><trkpt lat="47.06360356666668" lon="11.487790666666669"><ele>1110.3333333333333</ele><time>2026-05-01T13:55:48.429Z</time></trkpt><trkpt lat="47.063748100000005" lon="11.4878694"><ele>1107.0</ele><time>2026-05-01T13:55:49.409Z</time></trkpt><trkpt lat="47.063888899999995" lon="11.487939999999998"><ele>1107.0</ele><time>2026-05-01T13:55:50.424Z</time></trkpt><trkpt lat="47.06403295" lon="11.488008216666666"><ele>1107.0</ele><time>2026-05-01T13:55:51.426Z</time></trkpt><trkpt lat="47.06418166666668" lon="11.488077933333335"><ele>1107.0</ele><time>2026-05-01T13:55:52.421Z</time></trkpt><trkpt lat="47.06433041666666" lon="11.48814605"><ele>1104.6666666666667</ele><time>2026-05-01T13:55:53.424Z</time></trkpt><trkpt lat="47.06447541666667" lon="11.488210016666667"><ele>1102.3333333333335</ele><time>2026-05-01T13:55:54.426Z</time></trkpt><trkpt lat="47.06474275000001" lon="11.488316399999999"><ele>1100.0</ele><time>2026-05-01T13:55:56.423Z</time></trkpt><trkpt lat="47.06487601666666" lon="11.488339866666667"><ele>1101.0</ele><time>2026-05-01T13:55:57.409Z</time></trkpt><trkpt lat="47.06500361666667" lon="11.48831285"><ele>1102.0</ele><time>2026-05-01T13:55:58.419Z</time></trkpt><trkpt lat="47.065121233333336" lon="11.488226083333332"><ele>1103.0</ele><time>2026-05-01T13:55:59.425Z</time></trkpt><trkpt lat="47.06522843333334" lon="11.488089316666667"><ele>1104.0</ele><time>2026-05-01T13:56:00.425Z</time></trkpt><trkpt lat="47.065322683333335" lon="11.487916466666666"><ele>1100.3333333333333</ele><time>2026-05-01T13:56:01.418Z</time></trkpt><trkpt lat="47.065414049999994" lon="11.487726433333332"><ele>1096.6666666666665</ele><time>2026-05-01T13:56:02.428Z</time></trkpt><trkpt lat="47.06550458333333" lon="11.487534583333336"><ele>1093.0</ele><time>2026-05-01T13:56:03.42Z</time></trkpt><trkpt lat="47.06559151666667" lon="11.487355700000002"><ele>1093.0</ele><time>2026-05-01T13:56:04.419Z</time></trkpt><trkpt lat="47.065676233333335" lon="11.487181749999998"><ele>1093.0</ele><time>2026-05-01T13:56:05.424Z</time></trkpt><trkpt lat="47.06576141666666" lon="11.487000066666667"><ele>1093.0</ele><time>2026-05-01T13:56:06.425Z</time></trkpt><trkpt lat="47.06585635" lon="11.486819533333334"><ele>1093.3333333333333</ele><time>2026-05-01T13:56:07.428Z</time></trkpt><trkpt lat="47.065966700000004" lon="11.486651349999999"><ele>1093.6666666666667</ele><time>2026-05-01T13:56:08.424Z</time></trkpt><trkpt lat="47.06608941666667" lon="11.4865049"><ele>1094.0</ele><time>2026-05-01T13:56:09.426Z</time></trkpt><trkpt lat="47.066224383333335" lon="11.48637995"><ele>1094.0</ele><time>2026-05-01T13:56:10.419Z</time></trkpt><trkpt lat="47.06636960000001" lon="11.486279000000001"><ele>1094.0</ele><time>2026-05-01T13:56:11.424Z</time></trkpt><trkpt lat="47.06651531666666" lon="11.486198649999997"><ele>1094.0</ele><time>2026-05-01T13:56:12.421Z</time></trkpt><trkpt lat="47.06665988333332" lon="11.486125066666666"><ele>1093.0</ele><time>2026-05-01T13:56:13.42Z</time></trkpt><trkpt lat="47.06680798333334" lon="11.486066916666667"><ele>1092.0</ele><time>2026-05-01T13:56:14.426Z</time></trkpt><trkpt lat="47.06695778333333" lon="11.486022749999998"><ele>1091.0</ele><time>2026-05-01T13:56:15.426Z</time></trkpt><trkpt lat="47.067104833333325" lon="11.485976766666665"><ele>1091.0</ele><time>2026-05-01T13:56:16.419Z</time></trkpt><trkpt lat="47.06724715000001" lon="11.48593"><ele>1091.0</ele><time>2026-05-01T13:56:17.425Z</time></trkpt><trkpt lat="47.06739363333333" lon="11.485898233333335"><ele>1091.0</ele><time>2026-05-01T13:56:18.427Z</time></trkpt><trkpt lat="47.067548900000006" lon="11.485889133333334"><ele>1091.0</ele><time>2026-05-01T13:56:19.423Z</time></trkpt><trkpt lat="47.06770766666667" lon="11.485906383333333"><ele>1092.3333333333335</ele><time>2026-05-01T13:56:20.424Z</time></trkpt><trkpt lat="47.06786776666666" lon="11.485950949999998"><ele>1093.6666666666667</ele><time>2026-05-01T13:56:21.419Z</time></trkpt><trkpt lat="47.06802471666666" lon="11.486007549999998"><ele>1095.0</ele><time>2026-05-01T13:56:22.419Z</time></trkpt><trkpt lat="47.06818346666667" lon="11.4860588"><ele>1092.6666666666667</ele><time>2026-05-01T13:56:23.423Z</time></trkpt><trkpt lat="47.06834786666666" lon="11.486106933333334"><ele>1090.3333333333335</ele><time>2026-05-01T13:56:24.426Z</time></trkpt><trkpt lat="47.068521966666665" lon="11.486153383333333"><ele>1088.0</ele><time>2026-05-01T13:56:25.42Z</time></trkpt><trkpt lat="47.06870188333334" lon="11.486187800000002"><ele>1088.0</ele><time>2026-05-01T13:56:26.426Z</time></trkpt><trkpt lat="47.0688879" lon="11.486199733333335"><ele>1088.0</ele><time>2026-05-01T13:56:27.428Z</time></trkpt><trkpt lat="47.06907419999999" lon="11.486176799999997"><ele>1088.0</ele><time>2026-05-01T13:56:28.423Z</time></trkpt><trkpt lat="47.06925701666667" lon="11.486122933333336"><ele>1085.3333333333335</ele><time>2026-05-01T13:56:29.424Z</time></trkpt><trkpt lat="47.069426899999996" lon="11.486049783333332"><ele>1082.6666666666667</ele><time>2026-05-01T13:56:30.409Z</time></trkpt><trkpt lat="47.06958516666667" lon="11.485976366666668"><ele>1080.0</ele><time>2026-05-01T13:56:31.418Z</time></trkpt><trkpt lat="47.06973326666666" lon="11.485908716666666"><ele>1080.0</ele><time>2026-05-01T13:56:32.427Z</time></trkpt><trkpt lat="47.06987268333334" lon="11.485844833333331"><ele>1080.0</ele><time>2026-05-01T13:56:33.429Z</time></trkpt><trkpt lat="47.07000456666666" lon="11.485782766666667"><ele>1080.0</ele><time>2026-05-01T13:56:34.419Z</time></trkpt><trkpt lat="47.07013181666667" lon="11.485726516666666"><ele>1080.0</ele><time>2026-05-01T13:56:35.412Z</time></trkpt><trkpt lat="47.07026608333334" lon="11.485667233333334"><ele>1080.75</ele><time>2026-05-01T13:56:36.426Z</time></trkpt><trkpt lat="47.070401149999995" lon="11.485604266666668"><ele>1081.5</ele><time>2026-05-01T13:56:37.422Z</time></trkpt><trkpt lat="47.0705378" lon="11.48553915"><ele>1082.25</ele><time>2026-05-01T13:56:38.428Z</time></trkpt><trkpt lat="47.07067773333333" lon="11.485477399999997"><ele>1083.0</ele><time>2026-05-01T13:56:39.41Z</time></trkpt><trkpt lat="47.07081861666667" lon="11.485414233333332"><ele>1083.0</ele><time>2026-05-01T13:56:40.419Z</time></trkpt><trkpt lat="47.07096026666666" lon="11.48534555"><ele>1083.0</ele><time>2026-05-01T13:56:41.429Z</time></trkpt><trkpt lat="47.071099100000005" lon="11.48526361666667"><ele>1083.0</ele><time>2026-05-01T13:56:42.428Z</time></trkpt><trkpt lat="47.07123951666667" lon="11.485179916666667"><ele>1083.0</ele><time>2026-05-01T13:56:43.419Z</time></trkpt><trkpt lat="47.07138248333334" lon="11.485094316666666"><ele>1083.0</ele><time>2026-05-01T13:56:44.43Z</time></trkpt><trkpt lat="47.071520099999994" lon="11.4850055"><ele>1083.0</ele><time>2026-05-01T13:56:45.428Z</time></trkpt><trkpt lat="47.07165194999999" lon="11.484924333333334"><ele>1083.0</ele><time>2026-05-01T13:56:46.419Z</time></trkpt><trkpt lat="47.07178165" lon="11.484851499999998"><ele>1083.25</ele><time>2026-05-01T13:56:47.429Z</time></trkpt><trkpt lat="47.071912833333336" lon="11.48477998333333"><ele>1083.5</ele><time>2026-05-01T13:56:48.409Z</time></trkpt><trkpt lat="47.07204709999999" lon="11.484719633333334"><ele>1083.75</ele><time>2026-05-01T13:56:49.419Z</time></trkpt><trkpt lat="47.07218571666667" lon="11.484670666666668"><ele>1084.0</ele><time>2026-05-01T13:56:50.408Z</time></trkpt><trkpt lat="47.07232818333333" lon="11.484623683333332"><ele>1082.6666666666665</ele><time>2026-05-01T13:56:51.427Z</time></trkpt><trkpt lat="47.072474516666674" lon="11.484573799999998"><ele>1081.3333333333333</ele><time>2026-05-01T13:56:52.429Z</time></trkpt><trkpt lat="47.07262158333333" lon="11.484526483333333"><ele>1080.0</ele><time>2026-05-01T13:56:53.423Z</time></trkpt><trkpt lat="47.07276773333333" lon="11.484477166666666"><ele>1080.0</ele><time>2026-05-01T13:56:54.427Z</time></trkpt><trkpt lat="47.07291406666667" lon="11.484421083333332"><ele>1080.0</ele><time>2026-05-01T13:56:55.419Z</time></trkpt><trkpt lat="47.07305933333333" lon="11.48434948333333"><ele>1080.0</ele><time>2026-05-01T13:56:56.424Z</time></trkpt><trkpt lat="47.073203250000006" lon="11.484258"><ele>1080.3333333333333</ele><time>2026-05-01T13:56:57.409Z</time></trkpt><trkpt lat="47.07334748333333" lon="11.484151200000001"><ele>1080.6666666666665</ele><time>2026-05-01T13:56:58.419Z</time></trkpt><trkpt lat="47.0734906" lon="11.484032833333332"><ele>1081.0</ele><time>2026-05-01T13:56:59.425Z</time></trkpt><trkpt lat="47.073633050000005" lon="11.48391015"><ele>1081.0</ele><time>2026-05-01T13:57:00.426Z</time></trkpt><trkpt lat="47.07377338333334" lon="11.4837901"><ele>1081.0</ele><time>2026-05-01T13:57:01.419Z</time></trkpt><trkpt lat="47.073912050000004" lon="11.483671816666668"><ele>1081.0</ele><time>2026-05-01T13:57:02.426Z</time></trkpt><trkpt lat="47.07404905" lon="11.483560983333332"><ele>1079.0</ele><time>2026-05-01T13:57:03.429Z</time></trkpt><trkpt lat="47.07418566666667" lon="11.4834501"><ele>1077.0</ele><time>2026-05-01T13:57:04.42Z</time></trkpt><trkpt lat="47.07432045000001" lon="11.483336283333331"><ele>1075.0</ele><time>2026-05-01T13:57:05.424Z</time></trkpt><trkpt lat="47.07445380000001" lon="11.483217333333336"><ele>1075.0</ele><time>2026-05-01T13:57:06.434Z</time></trkpt><trkpt lat="47.0745855" lon="11.483095900000002"><ele>1075.0</ele><time>2026-05-01T13:57:07.421Z</time></trkpt><trkpt lat="47.07471236666667" lon="11.482962633333333"><ele>1075.0</ele><time>2026-05-01T13:57:08.424Z</time></trkpt><trkpt lat="47.07483175" lon="11.482813466666668"><ele>1077.6666666666665</ele><time>2026-05-01T13:57:09.427Z</time></trkpt><trkpt lat="47.07494678333334" lon="11.482656566666666"><ele>1080.3333333333333</ele><time>2026-05-01T13:57:10.419Z</time></trkpt><trkpt lat="47.07506244999999" lon="11.4824945"><ele>1083.0</ele><time>2026-05-01T13:57:11.411Z</time></trkpt><trkpt lat="47.07517958333332" lon="11.482332066666666"><ele>1083.0</ele><time>2026-05-01T13:57:12.43Z</time></trkpt><trkpt lat="47.075304933333335" lon="11.482171533333332"><ele>1083.0</ele><time>2026-05-01T13:57:13.42Z</time></trkpt><trkpt lat="47.0754426" lon="11.482014650000002"><ele>1083.0</ele><time>2026-05-01T13:57:14.429Z</time></trkpt><trkpt lat="47.07559081666666" lon="11.481871033333334"><ele>1085.0</ele><time>2026-05-01T13:57:15.432Z</time></trkpt><trkpt lat="47.07576146666667" lon="11.481766016666665"><ele>1087.0</ele><time>2026-05-01T13:57:16.411Z</time></trkpt><trkpt lat="47.0759414" lon="11.481686666666667"><ele>1089.0</ele><time>2026-05-01T13:57:17.428Z</time></trkpt><trkpt lat="47.076114049999994" lon="11.48161215"><ele>1089.0</ele><time>2026-05-01T13:57:18.427Z</time></trkpt><trkpt lat="47.07629115" lon="11.481559983333334"><ele>1089.0</ele><time>2026-05-01T13:57:19.419Z</time></trkpt><trkpt lat="47.07647583333334" lon="11.4815236"><ele>1089.0</ele><time>2026-05-01T13:57:20.423Z</time></trkpt><trkpt lat="47.076667449999995" lon="11.481492533333334"><ele>1085.0</ele><time>2026-05-01T13:57:21.427Z</time></trkpt><trkpt lat="47.07686090000001" lon="11.481457633333333"><ele>1081.0</ele><time>2026-05-01T13:57:22.422Z</time></trkpt><trkpt lat="47.077055183333336" lon="11.481404266666669"><ele>1077.0</ele><time>2026-05-01T13:57:23.429Z</time></trkpt><trkpt lat="47.077251516666664" lon="11.481323683333335"><ele>1081.0</ele><time>2026-05-01T13:57:24.408Z</time></trkpt><trkpt lat="47.0774426" lon="11.481210816666664"><ele>1085.0</ele><time>2026-05-01T13:57:25.437Z</time></trkpt><trkpt lat="47.0776233" lon="11.48106295"><ele>1089.0</ele><time>2026-05-01T13:57:26.424Z</time></trkpt><trkpt lat="47.07779428333333" lon="11.4808921"><ele>1089.0</ele><time>2026-05-01T13:57:27.43Z</time></trkpt><trkpt lat="47.07795318333333" lon="11.480702450000003"><ele>1089.0</ele><time>2026-05-01T13:57:28.42Z</time></trkpt><trkpt lat="47.078096599999995" lon="11.480500116666667"><ele>1089.0</ele><time>2026-05-01T13:57:29.427Z</time></trkpt><trkpt lat="47.07821838333333" lon="11.480282733333336"><ele>1085.6666666666667</ele><time>2026-05-01T13:57:30.427Z</time></trkpt><trkpt lat="47.078330433333335" lon="11.480048266666666"><ele>1082.3333333333335</ele><time>2026-05-01T13:57:31.419Z</time></trkpt><trkpt lat="47.07843375000001" lon="11.479812533333332"><ele>1079.0</ele><time>2026-05-01T13:57:32.427Z</time></trkpt><trkpt lat="47.0785296" lon="11.47958595"><ele>1079.0</ele><time>2026-05-01T13:57:33.427Z</time></trkpt><trkpt lat="47.07861961666668" lon="11.4793744"><ele>1079.0</ele><time>2026-05-01T13:57:34.42Z</time></trkpt><trkpt lat="47.078703399999995" lon="11.479172466666668"><ele>1079.0</ele><time>2026-05-01T13:57:35.424Z</time></trkpt><trkpt lat="47.078778766666666" lon="11.478973383333335"><ele>1079.0</ele><time>2026-05-01T13:57:36.427Z</time></trkpt><trkpt lat="47.078844600000004" lon="11.478763066666666"><ele>1079.0</ele><time>2026-05-01T13:57:37.421Z</time></trkpt><trkpt lat="47.07889325" lon="11.478534216666667"><ele>1079.0</ele><time>2026-05-01T13:57:38.424Z</time></trkpt><trkpt lat="47.07893735" lon="11.4782962"><ele>1079.0</ele><time>2026-05-01T13:57:39.409Z</time></trkpt><trkpt lat="47.07898109999999" lon="11.478052966666667"><ele>1079.0</ele><time>2026-05-01T13:57:40.419Z</time></trkpt><trkpt lat="47.07902166666666" lon="11.477814516666669"><ele>1079.0</ele><time>2026-05-01T13:57:41.409Z</time></trkpt><trkpt lat="47.079064116666665" lon="11.477586983333333"><ele>1082.0</ele><time>2026-05-01T13:57:42.429Z</time></trkpt><trkpt lat="47.07910926666667" lon="11.477371066666668"><ele>1085.0</ele><time>2026-05-01T13:57:43.419Z</time></trkpt><trkpt lat="47.0791728" lon="11.477172216666666"><ele>1088.0</ele><time>2026-05-01T13:57:44.424Z</time></trkpt><trkpt lat="47.079258533333324" lon="11.476994249999999"><ele>1088.0</ele><time>2026-05-01T13:57:45.428Z</time></trkpt><trkpt lat="47.07935848333333" lon="11.476832566666667"><ele>1088.0</ele><time>2026-05-01T13:57:46.419Z</time></trkpt><trkpt lat="47.07946878333333" lon="11.476683350000002"><ele>1088.0</ele><time>2026-05-01T13:57:47.429Z</time></trkpt><trkpt lat="47.07958223333333" lon="11.476527283333334"><ele>1088.0</ele><time>2026-05-01T13:57:48.421Z</time></trkpt><trkpt lat="47.079701583333325" lon="11.476359733333334"><ele>1088.0</ele><time>2026-05-01T13:57:49.426Z</time></trkpt><trkpt lat="47.0798252" lon="11.476184683333335"><ele>1088.0</ele><time>2026-05-01T13:57:50.424Z</time></trkpt><trkpt lat="47.07995128333334" lon="11.47600023333333"><ele>1084.6666666666667</ele><time>2026-05-01T13:57:51.431Z</time></trkpt><trkpt lat="47.080079149999996" lon="11.475816333333334"><ele>1081.3333333333333</ele><time>2026-05-01T13:57:52.421Z</time></trkpt><trkpt lat="47.080206883333325" lon="11.47563655"><ele>1078.0</ele><time>2026-05-01T13:57:53.424Z</time></trkpt><trkpt lat="47.080337616666675" lon="11.4754649"><ele>1081.6666666666665</ele><time>2026-05-01T13:57:54.429Z</time></trkpt><trkpt lat="47.08047423333334" lon="11.475313216666667"><ele>1085.3333333333333</ele><time>2026-05-01T13:57:55.419Z</time></trkpt><trkpt lat="47.08062493333333" lon="11.475186250000002"><ele>1089.0</ele><time>2026-05-01T13:57:56.424Z</time></trkpt><trkpt lat="47.08078439999999" lon="11.47507545"><ele>1081.6666666666667</ele><time>2026-05-01T13:57:57.42Z</time></trkpt><trkpt lat="47.080950349999995" lon="11.474975566666668"><ele>1074.3333333333335</ele><time>2026-05-01T13:57:58.42Z</time></trkpt><trkpt lat="47.08112046666667" lon="11.474880366666666"><ele>1067.0</ele><time>2026-05-01T13:57:59.424Z</time></trkpt><trkpt lat="47.081288150000006" lon="11.4747938"><ele>1067.0</ele><time>2026-05-01T13:58:00.427Z</time></trkpt><trkpt lat="47.08144918333334" lon="11.474710216666665"><ele>1067.0</ele><time>2026-05-01T13:58:01.42Z</time></trkpt><trkpt lat="47.081605999999994" lon="11.474623366666666"><ele>1067.0</ele><time>2026-05-01T13:58:02.429Z</time></trkpt><trkpt lat="47.08176036666667" lon="11.474528383333332"><ele>1065.6666666666667</ele><time>2026-05-01T13:58:03.427Z</time></trkpt><trkpt lat="47.081910683333334" lon="11.474425166666666"><ele>1064.3333333333333</ele><time>2026-05-01T13:58:04.427Z</time></trkpt><trkpt lat="47.08205433333333" lon="11.474313833333335"><ele>1063.0</ele><time>2026-05-01T13:58:05.424Z</time></trkpt><trkpt lat="47.08218660000001" lon="11.474201416666665"><ele>1063.0</ele><time>2026-05-01T13:58:06.409Z</time></trkpt><trkpt lat="47.08231078333333" lon="11.474091383333333"><ele>1063.0</ele><time>2026-05-01T13:58:07.421Z</time></trkpt><trkpt lat="47.08242638333333" lon="11.473986866666667"><ele>1063.0</ele><time>2026-05-01T13:58:08.423Z</time></trkpt><trkpt lat="47.08253201666666" lon="11.47388195"><ele>1063.0</ele><time>2026-05-01T13:58:09.429Z</time></trkpt><trkpt lat="47.08263398333334" lon="11.473774749999999"><ele>1064.5</ele><time>2026-05-01T13:58:10.419Z</time></trkpt><trkpt lat="47.08273333333333" lon="11.473658683333333"><ele>1066.0</ele><time>2026-05-01T13:58:11.423Z</time></trkpt><trkpt lat="47.08283135" lon="11.473541116666668"><ele>1067.5</ele><time>2026-05-01T13:58:12.426Z</time></trkpt><trkpt lat="47.08292906666667" lon="11.473419333333334"><ele>1069.0</ele><time>2026-05-01T13:58:13.418Z</time></trkpt><trkpt lat="47.08302496666667" lon="11.473292783333333"><ele>1069.0</ele><time>2026-05-01T13:58:14.424Z</time></trkpt><trkpt lat="47.08312083333334" lon="11.473159950000003"><ele>1069.0</ele><time>2026-05-01T13:58:15.408Z</time></trkpt><trkpt lat="47.083217016666666" lon="11.473019383333334"><ele>1069.0</ele><time>2026-05-01T13:58:16.419Z</time></trkpt><trkpt lat="47.08331653333333" lon="11.47287875"><ele>1069.0</ele><time>2026-05-01T13:58:17.429Z</time></trkpt><trkpt lat="47.0834188" lon="11.472732983333334"><ele>1068.5</ele><time>2026-05-01T13:58:18.427Z</time></trkpt><trkpt lat="47.08352158333334" lon="11.472588800000002"><ele>1068.0</ele><time>2026-05-01T13:58:19.419Z</time></trkpt><trkpt lat="47.083618783333336" lon="11.472444666666668"><ele>1067.5</ele><time>2026-05-01T13:58:20.429Z</time></trkpt><trkpt lat="47.0837162" lon="11.472302083333332"><ele>1067.0</ele><time>2026-05-01T13:58:21.421Z</time></trkpt><trkpt lat="47.0838147" lon="11.472162683333332"><ele>1071.0</ele><time>2026-05-01T13:58:22.423Z</time></trkpt><trkpt lat="47.08391223333333" lon="11.472022166666665"><ele>1075.0</ele><time>2026-05-01T13:58:23.412Z</time></trkpt><trkpt lat="47.08400758333334" lon="11.47188605"><ele>1079.0</ele><time>2026-05-01T13:58:24.429Z</time></trkpt><trkpt lat="47.08410308333334" lon="11.4717522"><ele>1083.0</ele><time>2026-05-01T13:58:25.419Z</time></trkpt><trkpt lat="47.08419478333334" lon="11.471615816666668"><ele>1075.5</ele><time>2026-05-01T13:58:26.424Z</time></trkpt><trkpt lat="47.08428513333333" lon="11.471472983333335"><ele>1068.0</ele><time>2026-05-01T13:58:27.429Z</time></trkpt><trkpt lat="47.08437171666666" lon="11.471330033333333"><ele>1060.5</ele><time>2026-05-01T13:58:28.427Z</time></trkpt><trkpt lat="47.08445305" lon="11.471184966666666"><ele>1053.0</ele><time>2026-05-01T13:58:29.427Z</time></trkpt><trkpt lat="47.0845318" lon="11.471031966666665"><ele>1053.0</ele><time>2026-05-01T13:58:30.427Z</time></trkpt><trkpt lat="47.08460518333333" lon="11.470867266666668"><ele>1053.0</ele><time>2026-05-01T13:58:31.419Z</time></trkpt><trkpt lat="47.08467273333334" lon="11.47069485"><ele>1053.0</ele><time>2026-05-01T13:58:32.429Z</time></trkpt><trkpt lat="47.08473498333333" lon="11.470521450000001"><ele>1053.0</ele><time>2026-05-01T13:58:33.422Z</time></trkpt><trkpt lat="47.08479361666667" lon="11.470347933333336"><ele>1053.0</ele><time>2026-05-01T13:58:34.42Z</time></trkpt><trkpt lat="47.08485201666667" lon="11.470175549999999"><ele>1053.0</ele><time>2026-05-01T13:58:35.412Z</time></trkpt><trkpt lat="47.08491775000001" lon="11.47000805"><ele>1053.0</ele><time>2026-05-01T13:58:36.427Z</time></trkpt><trkpt lat="47.08499636666667" lon="11.46985246666667"><ele>1053.0</ele><time>2026-05-01T13:58:37.421Z</time></trkpt><trkpt lat="47.08508973333334" lon="11.469715266666666"><ele>1055.5</ele><time>2026-05-01T13:58:38.42Z</time></trkpt><trkpt lat="47.085198483333336" lon="11.469599650000003"><ele>1058.0</ele><time>2026-05-01T13:58:39.426Z</time></trkpt><trkpt lat="47.08531849999999" lon="11.469508683333334"><ele>1060.5</ele><time>2026-05-01T13:58:40.42Z</time></trkpt><trkpt lat="47.08544758333334" lon="11.469443983333335"><ele>1063.0</ele><time>2026-05-01T13:58:41.425Z</time></trkpt><trkpt lat="47.08558376666666" lon="11.469400150000002"><ele>1063.0</ele><time>2026-05-01T13:58:42.433Z</time></trkpt><trkpt lat="47.08572716666666" lon="11.46937205"><ele>1063.0</ele><time>2026-05-01T13:58:43.42Z</time></trkpt><trkpt lat="47.085873416666665" lon="11.469348583333332"><ele>1063.0</ele><time>2026-05-01T13:58:44.424Z</time></trkpt><trkpt lat="47.08601838333334" lon="11.469316599999997"><ele>1063.0</ele><time>2026-05-01T13:58:45.427Z</time></trkpt><trkpt lat="47.086164216666674" lon="11.46928245"><ele>1061.5</ele><time>2026-05-01T13:58:46.419Z</time></trkpt><trkpt lat="47.08630653333333" lon="11.46923705"><ele>1060.0</ele><time>2026-05-01T13:58:47.412Z</time></trkpt><trkpt lat="47.08644801666666" lon="11.469179633333333"><ele>1058.5</ele><time>2026-05-01T13:58:48.427Z</time></trkpt><trkpt lat="47.08658761666667" lon="11.469122833333332"><ele>1057.0</ele><time>2026-05-01T13:58:49.419Z</time></trkpt><trkpt lat="47.08672263333333" lon="11.469059450000003"><ele>1056.5</ele><time>2026-05-01T13:58:50.425Z</time></trkpt><trkpt lat="47.086854816666666" lon="11.468991"><ele>1056.0</ele><time>2026-05-01T13:58:51.428Z</time></trkpt><trkpt lat="47.08698223333334" lon="11.468924350000002"><ele>1055.5</ele><time>2026-05-01T13:58:52.412Z</time></trkpt><trkpt lat="47.087106049999996" lon="11.468859333333334"><ele>1055.0</ele><time>2026-05-01T13:58:53.425Z</time></trkpt><trkpt lat="47.08722526666667" lon="11.468791133333331"><ele>1055.5</ele><time>2026-05-01T13:58:54.427Z</time></trkpt><trkpt lat="47.08734163333334" lon="11.46872645"><ele>1056.0</ele><time>2026-05-01T13:58:55.42Z</time></trkpt><trkpt lat="47.08745646666666" lon="11.468662216666667"><ele>1056.5</ele><time>2026-05-01T13:58:56.428Z</time></trkpt><trkpt lat="47.0875693" lon="11.468595666666667"><ele>1057.0</ele><time>2026-05-01T13:58:57.429Z</time></trkpt><trkpt lat="47.087680066666664" lon="11.468524766666667"><ele>1057.0</ele><time>2026-05-01T13:58:58.421Z</time></trkpt><trkpt lat="47.08779271666667" lon="11.468458983333335"><ele>1057.0</ele><time>2026-05-01T13:58:59.425Z</time></trkpt><trkpt lat="47.087908266666666" lon="11.468394566666666"><ele>1057.0</ele><time>2026-05-01T13:59:00.428Z</time></trkpt><trkpt lat="47.088024716666666" lon="11.46833145"><ele>1057.0</ele><time>2026-05-01T13:59:01.416Z</time></trkpt><trkpt lat="47.08814071666668" lon="11.468268633333333"><ele>1057.0</ele><time>2026-05-01T13:59:02.43Z</time></trkpt><trkpt lat="47.088256533333336" lon="11.468204533333335"><ele>1057.0</ele><time>2026-05-01T13:59:03.427Z</time></trkpt><trkpt lat="47.08837056666666" lon="11.468141383333334"><ele>1057.0</ele><time>2026-05-01T13:59:04.42Z</time></trkpt><trkpt lat="47.08848078333334" lon="11.468080016666665"><ele>1057.0</ele><time>2026-05-01T13:59:05.425Z</time></trkpt><trkpt lat="47.08858539999999" lon="11.4680175"><ele>1057.5</ele><time>2026-05-01T13:59:06.427Z</time></trkpt><trkpt lat="47.08868538333333" lon="11.467960966666665"><ele>1058.0</ele><time>2026-05-01T13:59:07.422Z</time></trkpt><trkpt lat="47.08878825" lon="11.467905150000002"><ele>1058.5</ele><time>2026-05-01T13:59:08.425Z</time></trkpt><trkpt lat="47.088895433333334" lon="11.467847516666666"><ele>1059.0</ele><time>2026-05-01T13:59:09.431Z</time></trkpt><trkpt lat="47.08900813333333" lon="11.467792249999999"><ele>1057.75</ele><time>2026-05-01T13:59:10.421Z</time></trkpt><trkpt lat="47.08912243333332" lon="11.46773465"><ele>1056.5</ele><time>2026-05-01T13:59:11.425Z</time></trkpt><trkpt lat="47.08923395" lon="11.46767145"><ele>1055.25</ele><time>2026-05-01T13:59:12.408Z</time></trkpt><trkpt lat="47.08934355" lon="11.467609133333333"><ele>1054.0</ele><time>2026-05-01T13:59:13.423Z</time></trkpt><trkpt lat="47.089457083333336" lon="11.467552016666664"><ele>1054.0</ele><time>2026-05-01T13:59:14.425Z</time></trkpt><trkpt lat="47.08956935" lon="11.467490933333332"><ele>1054.0</ele><time>2026-05-01T13:59:15.42Z</time></trkpt><trkpt lat="47.08967813333334" lon="11.467428816666667"><ele>1054.0</ele><time>2026-05-01T13:59:16.42Z</time></trkpt><trkpt lat="47.089787066666666" lon="11.467374066666665"><ele>1054.0</ele><time>2026-05-01T13:59:17.429Z</time></trkpt><trkpt lat="47.08989746666666" lon="11.467326783333332"><ele>1054.0</ele><time>2026-05-01T13:59:18.43Z</time></trkpt><trkpt lat="47.090008350000005" lon="11.4672763"><ele>1054.0</ele><time>2026-05-01T13:59:19.42Z</time></trkpt><trkpt lat="47.090118066666676" lon="11.467217916666668"><ele>1054.0</ele><time>2026-05-01T13:59:20.409Z</time></trkpt><trkpt lat="47.090229283333336" lon="11.467165983333333"><ele>1054.0</ele><time>2026-05-01T13:59:21.427Z</time></trkpt><trkpt lat="47.090342549999995" lon="11.467116016666667"><ele>1054.0</ele><time>2026-05-01T13:59:22.422Z</time></trkpt><trkpt lat="47.09045943333334" lon="11.467066099999998"><ele>1054.0</ele><time>2026-05-01T13:59:23.43Z</time></trkpt><trkpt lat="47.09057778333334" lon="11.467017666666669"><ele>1054.0</ele><time>2026-05-01T13:59:24.422Z</time></trkpt><trkpt lat="47.090694783333326" lon="11.466967350000001"><ele>1054.0</ele><time>2026-05-01T13:59:25.42Z</time></trkpt><trkpt lat="47.090812683333326" lon="11.466925866666667"><ele>1054.0</ele><time>2026-05-01T13:59:26.425Z</time></trkpt><trkpt lat="47.090929466666665" lon="11.466892816666665"><ele>1054.0</ele><time>2026-05-01T13:59:27.429Z</time></trkpt><trkpt lat="47.0910421" lon="11.466857333333333"><ele>1054.0</ele><time>2026-05-01T13:59:28.42Z</time></trkpt><trkpt lat="47.091153150000004" lon="11.466815516666667"><ele>1054.0</ele><time>2026-05-01T13:59:29.43Z</time></trkpt><trkpt lat="47.09126898333334" lon="11.46678485"><ele>1054.0</ele><time>2026-05-01T13:59:30.43Z</time></trkpt><trkpt lat="47.09138568333333" lon="11.466761883333334"><ele>1054.0</ele><time>2026-05-01T13:59:31.42Z</time></trkpt><trkpt lat="47.09149868333334" lon="11.466740116666665"><ele>1054.0</ele><time>2026-05-01T13:59:32.409Z</time></trkpt><trkpt lat="47.09160858333333" lon="11.466720916666668"><ele>1054.0</ele><time>2026-05-01T13:59:33.42Z</time></trkpt><trkpt lat="47.091719" lon="11.46672755"><ele>1053.75</ele><time>2026-05-01T13:59:34.42Z</time></trkpt><trkpt lat="47.09183203333334" lon="11.46676245"><ele>1053.5</ele><time>2026-05-01T13:59:35.425Z</time></trkpt><trkpt lat="47.09194491666667" lon="11.466798316666665"><ele>1053.25</ele><time>2026-05-01T13:59:36.427Z</time></trkpt><trkpt lat="47.0920567" lon="11.466835299999998"><ele>1053.0</ele><time>2026-05-01T13:59:37.42Z</time></trkpt><trkpt lat="47.09217151666667" lon="11.466867200000001"><ele>1053.0</ele><time>2026-05-01T13:59:38.425Z</time></trkpt><trkpt lat="47.09228701666666" lon="11.4668857"><ele>1053.0</ele><time>2026-05-01T13:59:39.426Z</time></trkpt><trkpt lat="47.092405583333324" lon="11.466896999999998"><ele>1053.0</ele><time>2026-05-01T13:59:40.42Z</time></trkpt><trkpt lat="47.09253043333333" lon="11.466899483333336"><ele>1053.0</ele><time>2026-05-01T13:59:41.426Z</time></trkpt><trkpt lat="47.09265461666667" lon="11.46688025"><ele>1052.75</ele><time>2026-05-01T13:59:42.409Z</time></trkpt><trkpt lat="47.092775550000006" lon="11.466842483333334"><ele>1052.5</ele><time>2026-05-01T13:59:43.422Z</time></trkpt><trkpt lat="47.09289716666667" lon="11.466795133333333"><ele>1052.25</ele><time>2026-05-01T13:59:44.424Z</time></trkpt><trkpt lat="47.0930209" lon="11.466750583333331"><ele>1052.0</ele><time>2026-05-01T13:59:45.429Z</time></trkpt><trkpt lat="47.09314331666666" lon="11.466702616666666"><ele>1050.0</ele><time>2026-05-01T13:59:46.419Z</time></trkpt><trkpt lat="47.093262249999995" lon="11.466640266666664"><ele>1048.0</ele><time>2026-05-01T13:59:47.409Z</time></trkpt><trkpt lat="47.09338004999999" lon="11.4665689"><ele>1046.0</ele><time>2026-05-01T13:59:48.427Z</time></trkpt><trkpt lat="47.09349918333334" lon="11.46648915"><ele>1044.0</ele><time>2026-05-01T13:59:49.422Z</time></trkpt><trkpt lat="47.09362168333334" lon="11.466403833333334"><ele>1044.0</ele><time>2026-05-01T13:59:50.425Z</time></trkpt><trkpt lat="47.09374025" lon="11.466306133333335"><ele>1044.0</ele><time>2026-05-01T13:59:51.408Z</time></trkpt><trkpt lat="47.09384964999999" lon="11.466206533333333"><ele>1044.0</ele><time>2026-05-01T13:59:52.422Z</time></trkpt><trkpt lat="47.09394665" lon="11.46610405"><ele>1044.0</ele><time>2026-05-01T13:59:53.429Z</time></trkpt><trkpt lat="47.09411956666666" lon="11.46593035"><ele>1043.3333333333333</ele><time>2026-05-01T13:59:55.42Z</time></trkpt><trkpt lat="47.09420114999999" lon="11.465869233333335"><ele>1042.6666666666667</ele><time>2026-05-01T13:59:56.432Z</time></trkpt><trkpt lat="47.094279033333336" lon="11.4658427"><ele>1042.0</ele><time>2026-05-01T13:59:57.429Z</time></trkpt><trkpt lat="47.09435263333333" lon="11.465839616666665"><ele>1041.3333333333335</ele><time>2026-05-01T13:59:58.421Z</time></trkpt><trkpt lat="47.09442003333333" lon="11.465813133333333"><ele>1040.6666666666667</ele><time>2026-05-01T13:59:59.429Z</time></trkpt><trkpt lat="47.09447425" lon="11.465744183333333"><ele>1040.0</ele><time>2026-05-01T14:00:00.432Z</time></trkpt><trkpt lat="47.09451673333333" lon="11.465647566666666"><ele>1040.0</ele><time>2026-05-01T14:00:01.423Z</time></trkpt><trkpt lat="47.09456766666668" lon="11.465549833333334"><ele>1040.0</ele><time>2026-05-01T14:00:02.43Z</time></trkpt><trkpt lat="47.094637533333334" lon="11.46546695"><ele>1040.0</ele><time>2026-05-01T14:00:03.428Z</time></trkpt><trkpt lat="47.094722133333335" lon="11.465398566666668"><ele>1040.0</ele><time>2026-05-01T14:00:04.427Z</time></trkpt><trkpt lat="47.09481801666667" lon="11.465342133333335"><ele>1040.0</ele><time>2026-05-01T14:00:05.425Z</time></trkpt><trkpt lat="47.09492221666667" lon="11.465298683333332"><ele>1043.0</ele><time>2026-05-01T14:00:06.409Z</time></trkpt><trkpt lat="47.095032366666665" lon="11.465265183333335"><ele>1046.0</ele><time>2026-05-01T14:00:07.422Z</time></trkpt><trkpt lat="47.095143300000004" lon="11.465235683333333"><ele>1049.0</ele><time>2026-05-01T14:00:08.425Z</time></trkpt><trkpt lat="47.095258316666666" lon="11.465207033333336"><ele>1052.0</ele><time>2026-05-01T14:00:09.419Z</time></trkpt><trkpt lat="47.095372266666665" lon="11.465189983333334"><ele>1052.0</ele><time>2026-05-01T14:00:10.424Z</time></trkpt><trkpt lat="47.09549165" lon="11.465182966666665"><ele>1052.0</ele><time>2026-05-01T14:00:11.419Z</time></trkpt><trkpt lat="47.09561229999999" lon="11.465176966666668"><ele>1052.0</ele><time>2026-05-01T14:00:12.409Z</time></trkpt><trkpt lat="47.09573481666666" lon="11.465172416666666"><ele>1052.0</ele><time>2026-05-01T14:00:13.411Z</time></trkpt><trkpt lat="47.095858" lon="11.465177999999998"><ele>1051.75</ele><time>2026-05-01T14:00:14.408Z</time></trkpt><trkpt lat="47.09598221666667" lon="11.465184733333336"><ele>1051.5</ele><time>2026-05-01T14:00:15.427Z</time></trkpt><trkpt lat="47.09610994999999" lon="11.465183416666665"><ele>1051.25</ele><time>2026-05-01T14:00:16.422Z</time></trkpt><trkpt lat="47.09624153333333" lon="11.465175099999998"><ele>1051.0</ele><time>2026-05-01T14:00:17.408Z</time></trkpt><trkpt lat="47.09637353333333" lon="11.4651563"><ele>1051.0</ele><time>2026-05-01T14:00:18.433Z</time></trkpt><trkpt lat="47.0965034" lon="11.465130166666665"><ele>1051.0</ele><time>2026-05-01T14:00:19.42Z</time></trkpt><trkpt lat="47.096633583333336" lon="11.465094933333335"><ele>1051.0</ele><time>2026-05-01T14:00:20.425Z</time></trkpt><trkpt lat="47.09676471666666" lon="11.465054083333333"><ele>1051.0</ele><time>2026-05-01T14:00:21.429Z</time></trkpt><trkpt lat="47.09689968333334" lon="11.465005633333332"><ele>1050.75</ele><time>2026-05-01T14:00:22.423Z</time></trkpt><trkpt lat="47.097036566666674" lon="11.464951216666668"><ele>1050.5</ele><time>2026-05-01T14:00:23.415Z</time></trkpt><trkpt lat="47.097172216666664" lon="11.464896783333332"><ele>1050.25</ele><time>2026-05-01T14:00:24.427Z</time></trkpt><trkpt lat="47.097305000000006" lon="11.464836566666667"><ele>1050.0</ele><time>2026-05-01T14:00:26.429Z</time></trkpt><trkpt lat="47.097430550000006" lon="11.464764416666666"><ele>1047.5</ele><time>2026-05-01T14:00:27.431Z</time></trkpt><trkpt lat="47.09754953333333" lon="11.4646833"><ele>1045.0</ele><time>2026-05-01T14:00:28.412Z</time></trkpt><trkpt lat="47.09766606666667" lon="11.464598"><ele>1042.5</ele><time>2026-05-01T14:00:29.429Z</time></trkpt><trkpt lat="47.09777755" lon="11.464511716666667"><ele>1040.0</ele><time>2026-05-01T14:00:30.427Z</time></trkpt><trkpt lat="47.09788571666667" lon="11.46442595"><ele>1043.3333333333335</ele><time>2026-05-01T14:00:31.423Z</time></trkpt><trkpt lat="47.098102399999995" lon="11.464262683333333"><ele>1046.6666666666667</ele><time>2026-05-01T14:00:32.429Z</time></trkpt><trkpt lat="47.09821698333333" lon="11.464182583333335"><ele>1050.0</ele><time>2026-05-01T14:00:33.428Z</time></trkpt><trkpt lat="47.098338116666675" lon="11.464106433333333"><ele>1050.0</ele><time>2026-05-01T14:00:34.42Z</time></trkpt><trkpt lat="47.09846686666666" lon="11.464036633333334"><ele>1050.0</ele><time>2026-05-01T14:00:35.425Z</time></trkpt><trkpt lat="47.098600483333335" lon="11.463969216666664"><ele>1050.0</ele><time>2026-05-01T14:00:36.408Z</time></trkpt><trkpt lat="47.09873555000001" lon="11.463900716666666"><ele>1050.0</ele><time>2026-05-01T14:00:37.411Z</time></trkpt><trkpt lat="47.09886788333333" lon="11.463832933333332"><ele>1053.0</ele><time>2026-05-01T14:00:38.425Z</time></trkpt><trkpt lat="47.09900055" lon="11.463769649999998"><ele>1056.0</ele><time>2026-05-01T14:00:39.427Z</time></trkpt><trkpt lat="47.099133583333334" lon="11.463708683333333"><ele>1059.0</ele><time>2026-05-01T14:00:40.42Z</time></trkpt><trkpt lat="47.09926601666666" lon="11.4636499"><ele>1062.0</ele><time>2026-05-01T14:00:41.427Z</time></trkpt><trkpt lat="47.09939741666667" lon="11.463590399999998"><ele>1062.0</ele><time>2026-05-01T14:00:42.429Z</time></trkpt><trkpt lat="47.09952656666666" lon="11.463532883333334"><ele>1062.0</ele><time>2026-05-01T14:00:43.42Z</time></trkpt><trkpt lat="47.09965654999999" lon="11.463473716666666"><ele>1062.0</ele><time>2026-05-01T14:00:44.425Z</time></trkpt><trkpt lat="47.0997886" lon="11.46341183333333"><ele>1062.0</ele><time>2026-05-01T14:00:45.407Z</time></trkpt><trkpt lat="47.0999235" lon="11.463349899999999"><ele>1057.0</ele><time>2026-05-01T14:00:46.42Z</time></trkpt><trkpt lat="47.100062616666676" lon="11.463286966666665"><ele>1052.0</ele><time>2026-05-01T14:00:47.43Z</time></trkpt><trkpt lat="47.100202866666656" lon="11.463224733333334"><ele>1047.0</ele><time>2026-05-01T14:00:48.428Z</time></trkpt><trkpt lat="47.10034566666666" lon="11.463165816666667"><ele>1042.0</ele><time>2026-05-01T14:00:49.421Z</time></trkpt><trkpt lat="47.10049138333334" lon="11.463106683333335"><ele>1042.0</ele><time>2026-05-01T14:00:50.427Z</time></trkpt><trkpt lat="47.10064148333333" lon="11.463050166666669"><ele>1042.0</ele><time>2026-05-01T14:00:51.411Z</time></trkpt><trkpt lat="47.10079385" lon="11.462998216666666"><ele>1042.0</ele><time>2026-05-01T14:00:52.422Z</time></trkpt><trkpt lat="47.10093635" lon="11.462950483333334"><ele>1043.3333333333333</ele><time>2026-05-01T14:00:53.425Z</time></trkpt><trkpt lat="47.101075400000006" lon="11.46289895"><ele>1044.6666666666667</ele><time>2026-05-01T14:00:54.428Z</time></trkpt><trkpt lat="47.101218966666664" lon="11.46283735"><ele>1046.0</ele><time>2026-05-01T14:00:55.421Z</time></trkpt><trkpt lat="47.10137285000001" lon="11.462758866666665"><ele>1046.0</ele><time>2026-05-01T14:00:56.41Z</time></trkpt><trkpt lat="47.10155041666667" lon="11.462656133333335"><ele>1046.0</ele><time>2026-05-01T14:00:57.43Z</time></trkpt><trkpt lat="47.10174973333333" lon="11.462547700000002"><ele>1046.0</ele><time>2026-05-01T14:00:58.425Z</time></trkpt><trkpt lat="47.101958550000006" lon="11.462430566666669"><ele>1040.5</ele><time>2026-05-01T14:00:59.425Z</time></trkpt><trkpt lat="47.10216881666667" lon="11.462284749999998"><ele>1035.0</ele><time>2026-05-01T14:01:00.421Z</time></trkpt><trkpt lat="47.10237973333333" lon="11.462117533333332"><ele>1036.0</ele><time>2026-05-01T14:01:02.427Z</time></trkpt><trkpt lat="47.10258926666667" lon="11.461934499999998"><ele>1037.0</ele><time>2026-05-01T14:01:03.43Z</time></trkpt><trkpt lat="47.10299761666666" lon="11.461536383333335"><ele>1037.0</ele><time>2026-05-01T14:01:04.423Z</time></trkpt><trkpt lat="47.103198400000004" lon="11.461324916666667"><ele>1037.0</ele><time>2026-05-01T14:01:05.425Z</time></trkpt><trkpt lat="47.103402499999994" lon="11.461103233333333"><ele>1034.0</ele><time>2026-05-01T14:01:06.429Z</time></trkpt><trkpt lat="47.10360994999999" lon="11.460875333333336"><ele>1031.0</ele><time>2026-05-01T14:01:07.422Z</time></trkpt><trkpt lat="47.103819366666656" lon="11.460649166666666"><ele>1029.0</ele><time>2026-05-01T14:01:08.425Z</time></trkpt><trkpt lat="47.104026583333344" lon="11.460426533333335"><ele>1027.0</ele><time>2026-05-01T14:01:09.42Z</time></trkpt><trkpt lat="47.10422948333333" lon="11.460203449999998"><ele>1027.0</ele><time>2026-05-01T14:01:10.42Z</time></trkpt><trkpt lat="47.10443098333334" lon="11.459981333333333"><ele>1027.0</ele><time>2026-05-01T14:01:11.428Z</time></trkpt><trkpt lat="47.104631266666665" lon="11.459765483333333"><ele>1025.5</ele><time>2026-05-01T14:01:12.43Z</time></trkpt><trkpt lat="47.10482903333333" lon="11.459546866666669"><ele>1024.0</ele><time>2026-05-01T14:01:13.42Z</time></trkpt><trkpt lat="47.10502905" lon="11.459326633333335"><ele>1024.0</ele><time>2026-05-01T14:01:14.425Z</time></trkpt><trkpt lat="47.105232550000004" lon="11.459102133333333"><ele>1024.0</ele><time>2026-05-01T14:01:15.426Z</time></trkpt><trkpt lat="47.10543859999999" lon="11.458876066666667"><ele>1025.0</ele><time>2026-05-01T14:01:16.461Z</time></trkpt><trkpt lat="47.10565" lon="11.458646199999999"><ele>1026.0</ele><time>2026-05-01T14:01:17.453Z</time></trkpt><trkpt lat="47.105864833333335" lon="11.458412966666666"><ele>1026.0</ele><time>2026-05-01T14:01:18.442Z</time></trkpt><trkpt lat="47.10608388333333" lon="11.458178100000001"><ele>1026.0</ele><time>2026-05-01T14:01:19.436Z</time></trkpt><trkpt lat="47.10630381666666" lon="11.457939033333332"><ele>1025.5</ele><time>2026-05-01T14:01:20.461Z</time></trkpt><trkpt lat="47.10652506666667" lon="11.457693283333333"><ele>1025.0</ele><time>2026-05-01T14:01:21.42Z</time></trkpt><trkpt lat="47.10674446666667" lon="11.457451050000001"><ele>1025.0</ele><time>2026-05-01T14:01:22.419Z</time></trkpt><trkpt lat="47.10696501666666" lon="11.457211500000001"><ele>1025.0</ele><time>2026-05-01T14:01:23.42Z</time></trkpt><trkpt lat="47.107186399999996" lon="11.456972066666665"><ele>1023.5</ele><time>2026-05-01T14:01:24.42Z</time></trkpt><trkpt lat="47.10740831666667" lon="11.456732933333335"><ele>1022.0</ele><time>2026-05-01T14:01:25.42Z</time></trkpt><trkpt lat="47.10762996666667" lon="11.45649295"><ele>1036.0</ele><time>2026-05-01T14:01:26.415Z</time></trkpt><trkpt lat="47.10807015" lon="11.456007966666666"><ele>1026.5</ele><time>2026-05-01T14:01:28.42Z</time></trkpt><trkpt lat="47.108290649999994" lon="11.455766383333334"><ele>1017.0</ele><time>2026-05-01T14:01:29.418Z</time></trkpt><trkpt lat="47.10851096666667" lon="11.455524866666668"><ele>1027.0</ele><time>2026-05-01T14:01:30.424Z</time></trkpt><trkpt lat="47.108727900000005" lon="11.455282683333333"><ele>1037.0</ele><time>2026-05-01T14:01:31.423Z</time></trkpt><trkpt lat="47.10894285" lon="11.45504168333333"><ele>1039.0</ele><time>2026-05-01T14:01:32.432Z</time></trkpt><trkpt lat="47.109156600000006" lon="11.454808433333334"><ele>1041.0</ele><time>2026-05-01T14:01:33.425Z</time></trkpt><trkpt lat="47.10936388333333" lon="11.454586633333335"><ele>1041.0</ele><time>2026-05-01T14:01:34.426Z</time></trkpt><trkpt lat="47.109564150000004" lon="11.454370066666668"><ele>1041.0</ele><time>2026-05-01T14:01:36.407Z</time></trkpt><trkpt lat="47.109941616666674" lon="11.453943733333332"><ele>1036.0</ele><time>2026-05-01T14:01:37.427Z</time></trkpt><trkpt lat="47.11012904999999" lon="11.453728433333332"><ele>1031.0</ele><time>2026-05-01T14:01:38.415Z</time></trkpt><trkpt lat="47.110318066666665" lon="11.453507983333335"><ele>1031.0</ele><time>2026-05-01T14:01:39.424Z</time></trkpt><trkpt lat="47.11051259999999" lon="11.453286116666668"><ele>1031.0</ele><time>2026-05-01T14:01:40.427Z</time></trkpt><trkpt lat="47.11071400000001" lon="11.453073416666665"><ele>1032.5</ele><time>2026-05-01T14:01:41.43Z</time></trkpt><trkpt lat="47.1109243" lon="11.452872066666666"><ele>1034.0</ele><time>2026-05-01T14:01:42.426Z</time></trkpt><trkpt lat="47.11114331666666" lon="11.452683583333332"><ele>1034.0</ele><time>2026-05-01T14:01:43.407Z</time></trkpt><trkpt lat="47.11137195" lon="11.452512966666667"><ele>1034.0</ele><time>2026-05-01T14:01:44.415Z</time></trkpt><trkpt lat="47.11160669999999" lon="11.452361566666665"><ele>1037.5</ele><time>2026-05-01T14:01:45.429Z</time></trkpt><trkpt lat="47.11184756666667" lon="11.452221899999998"><ele>1041.0</ele><time>2026-05-01T14:01:46.419Z</time></trkpt><trkpt lat="47.11209511666666" lon="11.452102866666666"><ele>1041.0</ele><time>2026-05-01T14:01:47.415Z</time></trkpt><trkpt lat="47.11234751666666" lon="11.452008583333335"><ele>1041.0</ele><time>2026-05-01T14:01:48.42Z</time></trkpt><trkpt lat="47.11260236666667" lon="11.451934483333332"><ele>1035.0</ele><time>2026-05-01T14:01:49.429Z</time></trkpt><trkpt lat="47.11286100000001" lon="11.451876366666667"><ele>1029.0</ele><time>2026-05-01T14:01:50.411Z</time></trkpt><trkpt lat="47.113122016666665" lon="11.451843616666666"><ele>1025.0</ele><time>2026-05-01T14:01:51.408Z</time></trkpt><trkpt lat="47.113376550000005" lon="11.451834183333336"><ele>1021.0</ele><time>2026-05-01T14:01:52.429Z</time></trkpt><trkpt lat="47.113616766666674" lon="11.451838016666667"><ele>1021.0</ele><time>2026-05-01T14:01:53.418Z</time></trkpt><trkpt lat="47.11384976666667" lon="11.451845333333331"><ele>1021.0</ele><time>2026-05-01T14:01:54.42Z</time></trkpt><trkpt lat="47.11407736666667" lon="11.4518489"><ele>1020.0</ele><time>2026-05-01T14:01:55.438Z</time></trkpt><trkpt lat="47.11430325" lon="11.451846583333333"><ele>1019.0</ele><time>2026-05-01T14:01:56.418Z</time></trkpt><trkpt lat="47.11453020000001" lon="11.451837450000001"><ele>1019.0</ele><time>2026-05-01T14:01:57.409Z</time></trkpt><trkpt lat="47.11475643333333" lon="11.451820083333333"><ele>1019.0</ele><time>2026-05-01T14:01:58.424Z</time></trkpt><trkpt lat="47.11498018333334" lon="11.451799966666666"><ele>1019.0</ele><time>2026-05-01T14:01:59.414Z</time></trkpt><trkpt lat="47.11519953333333" lon="11.451773283333335"><ele>1019.0</ele><time>2026-05-01T14:02:00.424Z</time></trkpt><trkpt lat="47.115415983333335" lon="11.451746500000002"><ele>1019.0</ele><time>2026-05-01T14:02:01.425Z</time></trkpt><trkpt lat="47.11562761666667" lon="11.4517192"><ele>1016.6666666666667</ele><time>2026-05-01T14:02:02.416Z</time></trkpt><trkpt lat="47.11583301666666" lon="11.45168175"><ele>1014.3333333333333</ele><time>2026-05-01T14:02:03.42Z</time></trkpt><trkpt lat="47.11603206666667" lon="11.451636683333334"><ele>1012.0</ele><time>2026-05-01T14:02:04.425Z</time></trkpt><trkpt lat="47.116230900000005" lon="11.451592616666668"><ele>1012.0</ele><time>2026-05-01T14:02:05.415Z</time></trkpt><trkpt lat="47.11642681666667" lon="11.451542166666664"><ele>1012.0</ele><time>2026-05-01T14:02:06.422Z</time></trkpt><trkpt lat="47.11661883333333" lon="11.451491133333331"><ele>1012.0</ele><time>2026-05-01T14:02:07.425Z</time></trkpt><trkpt lat="47.116806866666664" lon="11.451438383333334"><ele>1011.0</ele><time>2026-05-01T14:02:08.418Z</time></trkpt><trkpt lat="47.11698774999999" lon="11.4513874"><ele>1010.0</ele><time>2026-05-01T14:02:09.426Z</time></trkpt><trkpt lat="47.11715883333333" lon="11.451340316666665"><ele>1009.0</ele><time>2026-05-01T14:02:10.423Z</time></trkpt><trkpt lat="47.117324216666674" lon="11.451299733333334"><ele>1011.6666666666666</ele><time>2026-05-01T14:02:11.414Z</time></trkpt><trkpt lat="47.11748946666667" lon="11.451260933333332"><ele>1014.3333333333333</ele><time>2026-05-01T14:02:12.43Z</time></trkpt><trkpt lat="47.11765483333334" lon="11.451222883333333"><ele>1017.0</ele><time>2026-05-01T14:02:13.413Z</time></trkpt><trkpt lat="47.11781606666667" lon="11.451187966666666"><ele>1017.0</ele><time>2026-05-01T14:02:14.415Z</time></trkpt><trkpt lat="47.11797418333334" lon="11.451156783333333"><ele>1017.0</ele><time>2026-05-01T14:02:15.42Z</time></trkpt><trkpt lat="47.118131383333335" lon="11.451124466666666"><ele>1017.0</ele><time>2026-05-01T14:02:16.423Z</time></trkpt><trkpt lat="47.11828868333333" lon="11.451093299999998"><ele>1013.6666666666667</ele><time>2026-05-01T14:02:17.42Z</time></trkpt><trkpt lat="47.118444600000004" lon="11.451063633333334"><ele>1010.3333333333334</ele><time>2026-05-01T14:02:18.421Z</time></trkpt><trkpt lat="47.11860205" lon="11.451033800000001"><ele>1007.0</ele><time>2026-05-01T14:02:19.421Z</time></trkpt><trkpt lat="47.11877033333334" lon="11.451006500000002"><ele>1007.0</ele><time>2026-05-01T14:02:20.418Z</time></trkpt><trkpt lat="47.11894345" lon="11.4509776"><ele>1007.0</ele><time>2026-05-01T14:02:21.42Z</time></trkpt><trkpt lat="47.11912111666667" lon="11.450950816666667"><ele>1007.0</ele><time>2026-05-01T14:02:22.432Z</time></trkpt><trkpt lat="47.11930720000001" lon="11.450925833333333"><ele>1006.3333333333334</ele><time>2026-05-01T14:02:23.418Z</time></trkpt><trkpt lat="47.11948616666667" lon="11.450898883333332"><ele>1005.6666666666667</ele><time>2026-05-01T14:02:24.421Z</time></trkpt><trkpt lat="47.11965836666667" lon="11.450874633333335"><ele>1005.0</ele><time>2026-05-01T14:02:25.409Z</time></trkpt><trkpt lat="47.119827533333336" lon="11.450855083333332"><ele>1004.6666666666667</ele><time>2026-05-01T14:02:26.419Z</time></trkpt><trkpt lat="47.119990599999994" lon="11.450839299999998"><ele>1004.3333333333334</ele><time>2026-05-01T14:02:27.422Z</time></trkpt><trkpt lat="47.12015083333334" lon="11.450822500000001"><ele>1004.0</ele><time>2026-05-01T14:02:28.42Z</time></trkpt><trkpt lat="47.1203084" lon="11.450810933333333"><ele>1004.0</ele><time>2026-05-01T14:02:29.415Z</time></trkpt><trkpt lat="47.1204631" lon="11.450798366666668"><ele>1004.0</ele><time>2026-05-01T14:02:30.42Z</time></trkpt><trkpt lat="47.12061743333334" lon="11.45078675"><ele>1004.0</ele><time>2026-05-01T14:02:31.43Z</time></trkpt><trkpt lat="47.1207711" lon="11.450777716666668"><ele>1003.0</ele><time>2026-05-01T14:02:32.415Z</time></trkpt><trkpt lat="47.12092125" lon="11.450771483333332"><ele>1002.0</ele><time>2026-05-01T14:02:33.42Z</time></trkpt><trkpt lat="47.12107213333334" lon="11.450764599999998"><ele>1001.0</ele><time>2026-05-01T14:02:34.409Z</time></trkpt><trkpt lat="47.121222316666675" lon="11.450755633333332"><ele>1001.0</ele><time>2026-05-01T14:02:35.423Z</time></trkpt><trkpt lat="47.12137211666666" lon="11.450743266666667"><ele>1001.0</ele><time>2026-05-01T14:02:36.422Z</time></trkpt><trkpt lat="47.12152578333333" lon="11.450733949999998"><ele>1001.0</ele><time>2026-05-01T14:02:37.425Z</time></trkpt><trkpt lat="47.1216821" lon="11.450731816666666"><ele>1000.6666666666667</ele><time>2026-05-01T14:02:38.415Z</time></trkpt><trkpt lat="47.12184046666667" lon="11.450739683333332"><ele>1000.3333333333333</ele><time>2026-05-01T14:02:39.42Z</time></trkpt><trkpt lat="47.122002233333326" lon="11.450751349999999"><ele>1000.0</ele><time>2026-05-01T14:02:40.42Z</time></trkpt><trkpt lat="47.122169266666674" lon="11.450759516666668"><ele>1000.0</ele><time>2026-05-01T14:02:41.415Z</time></trkpt><trkpt lat="47.122337833333326" lon="11.450762583333336"><ele>1000.0</ele><time>2026-05-01T14:02:42.426Z</time></trkpt><trkpt lat="47.12250671666667" lon="11.450769183333334"><ele>1000.0</ele><time>2026-05-01T14:02:43.421Z</time></trkpt><trkpt lat="47.12267513333333" lon="11.450775933333334"><ele>999.0</ele><time>2026-05-01T14:02:44.42Z</time></trkpt><trkpt lat="47.122847183333334" lon="11.450782783333333"><ele>998.0</ele><time>2026-05-01T14:02:45.421Z</time></trkpt><trkpt lat="47.12301921666667" lon="11.45079915"><ele>997.0</ele><time>2026-05-01T14:02:46.42Z</time></trkpt><trkpt lat="47.12319315" lon="11.4508226"><ele>999.0</ele><time>2026-05-01T14:02:47.42Z</time></trkpt><trkpt lat="47.12336723333333" lon="11.450849400000001"><ele>1001.0</ele><time>2026-05-01T14:02:48.42Z</time></trkpt><trkpt lat="47.12354048333333" lon="11.450879549999998"><ele>1003.0</ele><time>2026-05-01T14:02:49.427Z</time></trkpt><trkpt lat="47.12371396666668" lon="11.450911416666669"><ele>1003.0</ele><time>2026-05-01T14:02:50.419Z</time></trkpt><trkpt lat="47.12388586666666" lon="11.450947533333332"><ele>1003.0</ele><time>2026-05-01T14:02:51.421Z</time></trkpt><trkpt lat="47.124057883333336" lon="11.45099115"><ele>1003.0</ele><time>2026-05-01T14:02:52.425Z</time></trkpt><trkpt lat="47.124227000000005" lon="11.451035183333333"><ele>1005.0</ele><time>2026-05-01T14:02:53.415Z</time></trkpt><trkpt lat="47.124394366666664" lon="11.4510789"><ele>1007.0</ele><time>2026-05-01T14:02:54.408Z</time></trkpt><trkpt lat="47.124557316666674" lon="11.45112435"><ele>1009.0</ele><time>2026-05-01T14:02:55.42Z</time></trkpt><trkpt lat="47.12470983333333" lon="11.451174600000002"><ele>1009.0</ele><time>2026-05-01T14:02:56.417Z</time></trkpt><trkpt lat="47.12485398333333" lon="11.451229816666666"><ele>1009.0</ele><time>2026-05-01T14:02:57.427Z</time></trkpt><trkpt lat="47.124992033333335" lon="11.451286166666666"><ele>1009.0</ele><time>2026-05-01T14:02:58.409Z</time></trkpt><trkpt lat="47.12512645" lon="11.451341016666667"><ele>1009.0</ele><time>2026-05-01T14:02:59.415Z</time></trkpt><trkpt lat="47.12525735" lon="11.4513967"><ele>1005.5</ele><time>2026-05-01T14:03:00.42Z</time></trkpt><trkpt lat="47.125384000000004" lon="11.451451216666664"><ele>1002.0</ele><time>2026-05-01T14:03:01.425Z</time></trkpt><trkpt lat="47.12550960000001" lon="11.4515015"><ele>998.5</ele><time>2026-05-01T14:03:02.416Z</time></trkpt><trkpt lat="47.125627699999995" lon="11.451548066666666"><ele>995.0</ele><time>2026-05-01T14:03:03.413Z</time></trkpt><trkpt lat="47.12573965" lon="11.45159121666667"><ele>995.0</ele><time>2026-05-01T14:03:04.424Z</time></trkpt><trkpt lat="47.12585441666666" lon="11.451632933333332"><ele>995.0</ele><time>2026-05-01T14:03:05.415Z</time></trkpt><trkpt lat="47.12596624999999" lon="11.451679533333333"><ele>995.0</ele><time>2026-05-01T14:03:06.421Z</time></trkpt><trkpt lat="47.126076633333334" lon="11.451735250000002"><ele>995.0</ele><time>2026-05-01T14:03:07.421Z</time></trkpt><trkpt lat="47.12618488333333" lon="11.451794316666668"><ele>995.0</ele><time>2026-05-01T14:03:08.434Z</time></trkpt><trkpt lat="47.126294099999996" lon="11.451849466666665"><ele>995.0</ele><time>2026-05-01T14:03:09.425Z</time></trkpt><trkpt lat="47.126405683333324" lon="11.451908433333331"><ele>995.0</ele><time>2026-05-01T14:03:10.42Z</time></trkpt><trkpt lat="47.12651999999999" lon="11.45197175"><ele>995.0</ele><time>2026-05-01T14:03:11.417Z</time></trkpt><trkpt lat="47.12663438333334" lon="11.452031900000001"><ele>995.0</ele><time>2026-05-01T14:03:12.406Z</time></trkpt><trkpt lat="47.126750366666656" lon="11.452090083333333"><ele>995.0</ele><time>2026-05-01T14:03:13.423Z</time></trkpt><trkpt lat="47.126867700000005" lon="11.4521548"><ele>995.0</ele><time>2026-05-01T14:03:14.418Z</time></trkpt><trkpt lat="47.12698548333333" lon="11.452219766666667"><ele>995.0</ele><time>2026-05-01T14:03:15.42Z</time></trkpt><trkpt lat="47.12710111666667" lon="11.452284000000002"><ele>994.25</ele><time>2026-05-01T14:03:16.428Z</time></trkpt><trkpt lat="47.12721811666667" lon="11.452346433333332"><ele>993.5</ele><time>2026-05-01T14:03:17.41Z</time></trkpt><trkpt lat="47.127335499999994" lon="11.452407733333331"><ele>992.75</ele><time>2026-05-01T14:03:18.428Z</time></trkpt><trkpt lat="47.127454816666656" lon="11.452468766666668"><ele>992.0</ele><time>2026-05-01T14:03:19.42Z</time></trkpt><trkpt lat="47.12757498333334" lon="11.452532699999999"><ele>991.25</ele><time>2026-05-01T14:03:20.416Z</time></trkpt><trkpt lat="47.12769305" lon="11.452596916666668"><ele>990.5</ele><time>2026-05-01T14:03:21.42Z</time></trkpt><trkpt lat="47.12780735" lon="11.452655866666664"><ele>989.75</ele><time>2026-05-01T14:03:22.428Z</time></trkpt><trkpt lat="47.12791441666666" lon="11.4527064"><ele>989.0</ele><time>2026-05-01T14:03:23.416Z</time></trkpt><trkpt lat="47.12801693333334" lon="11.452752883333336"><ele>989.0</ele><time>2026-05-01T14:03:24.421Z</time></trkpt><trkpt lat="47.128115683333334" lon="11.452791950000002"><ele>989.0000000000001</ele><time>2026-05-01T14:03:25.428Z</time></trkpt><trkpt lat="47.12821521666667" lon="11.452822933333335"><ele>989.0000000000001</ele><time>2026-05-01T14:03:26.412Z</time></trkpt><trkpt lat="47.12831596666666" lon="11.45284376666667"><ele>989.0</ele><time>2026-05-01T14:03:27.427Z</time></trkpt><trkpt lat="47.12841400000001" lon="11.452857850000003"><ele>989.0</ele><time>2026-05-01T14:03:28.421Z</time></trkpt><trkpt lat="47.12851046666666" lon="11.45286595"><ele>988.8333333333334</ele><time>2026-05-01T14:03:29.415Z</time></trkpt><trkpt lat="47.12859725" lon="11.452869200000002"><ele>988.6666666666667</ele><time>2026-05-01T14:03:30.424Z</time></trkpt><trkpt lat="47.128682766666664" lon="11.452865000000001"><ele>988.5</ele><time>2026-05-01T14:03:31.42Z</time></trkpt><trkpt lat="47.12877138333334" lon="11.452865866666665"><ele>988.3333333333333</ele><time>2026-05-01T14:03:32.415Z</time></trkpt><trkpt lat="47.12885607923295" lon="11.452910036046843"><ele>988.1666666666666</ele><time>2026-05-01T14:03:33.421Z</time></trkpt><trkpt lat="47.12893701666667" lon="11.452896200000001"><ele>988.0</ele><time>2026-05-01T14:03:34.421Z</time></trkpt><trkpt lat="47.12901588333334" lon="11.452910866666665"><ele>988.4999999999999</ele><time>2026-05-01T14:03:35.415Z</time></trkpt><trkpt lat="47.129098183333326" lon="11.452925166666667"><ele>989.0</ele><time>2026-05-01T14:03:36.425Z</time></trkpt><trkpt lat="47.12918249999999" lon="11.452930516666667"><ele>989.5</ele><time>2026-05-01T14:03:37.425Z</time></trkpt><trkpt lat="47.129263666666674" lon="11.45293913333333"><ele>990.0</ele><time>2026-05-01T14:03:38.414Z</time></trkpt><trkpt lat="47.12934091666666" lon="11.452955566666667"><ele>990.4999999999999</ele><time>2026-05-01T14:03:39.428Z</time></trkpt><trkpt lat="47.12941493333333" lon="11.452970550000002"><ele>991.0</ele><time>2026-05-01T14:03:40.412Z</time></trkpt><trkpt lat="47.12948303333332" lon="11.452983583333333"><ele>991.0</ele><time>2026-05-01T14:03:41.416Z</time></trkpt><trkpt lat="47.12960096666667" lon="11.453001583333332"><ele>991.0</ele><time>2026-05-01T14:03:43.426Z</time></trkpt><trkpt lat="47.12969778132829" lon="11.45302371901432"><ele>991.0</ele><time>2026-05-01T14:03:45.421Z</time></trkpt><trkpt lat="47.1298172436794" lon="11.453039272599213"><ele>991.0</ele><time>2026-05-01T14:03:47.416Z</time></trkpt><trkpt lat="47.129946869016365" lon="11.453055769348037"><ele>990.857142857143</ele><time>2026-05-01T14:03:49.414Z</time></trkpt><trkpt lat="47.13001567184768" lon="11.453064481854309"><ele>990.7142857142858</ele><time>2026-05-01T14:03:50.416Z</time></trkpt><trkpt lat="47.130084178028845" lon="11.453073155160384"><ele>990.5714285714286</ele><time>2026-05-01T14:03:51.421Z</time></trkpt><trkpt lat="47.13015190923138" lon="11.453081730348433"><ele>990.4285714285714</ele><time>2026-05-01T14:03:52.425Z</time></trkpt><trkpt lat="47.13023702461756" lon="11.453092506489176"><ele>990.2857142857142</ele><time>2026-05-01T14:03:53.416Z</time></trkpt><trkpt lat="47.13030826666667" lon="11.453079816666666"><ele>990.142857142857</ele><time>2026-05-01T14:03:54.425Z</time></trkpt><trkpt lat="47.130378400000005" lon="11.453103466666668"><ele>989.9999999999999</ele><time>2026-05-01T14:03:55.421Z</time></trkpt><trkpt lat="47.130446500000005" lon="11.453113199999999"><ele>990.0</ele><time>2026-05-01T14:03:56.415Z</time></trkpt><trkpt lat="47.13056004276145" lon="11.453136979104249"><ele>990.0</ele><time>2026-05-01T14:03:58.409Z</time></trkpt><trkpt lat="47.130666290434085" lon="11.45314373311987"><ele>990.0</ele><time>2026-05-01T14:04:00.421Z</time></trkpt><trkpt lat="47.13073010106256" lon="11.453136138270425"><ele>990.0</ele><time>2026-05-01T14:04:01.421Z</time></trkpt><trkpt lat="47.130792598448224" lon="11.453118627130651"><ele>990.0</ele><time>2026-05-01T14:04:02.416Z</time></trkpt><trkpt lat="47.13085766162789" lon="11.453094848282046"><ele>990.0</ele><time>2026-05-01T14:04:03.421Z</time></trkpt><trkpt lat="47.130922023658954" lon="11.453062998320705"><ele>990.0</ele><time>2026-05-01T14:04:04.421Z</time></trkpt><trkpt lat="47.13098292604677" lon="11.453031907743139"><ele>990.0</ele><time>2026-05-01T14:04:05.415Z</time></trkpt><trkpt lat="47.131086815082575" lon="11.452975935747302"><ele>990.0</ele><time>2026-05-01T14:04:07.408Z</time></trkpt><trkpt lat="47.131180673167016" lon="11.45292374953199"><ele>990.0</ele><time>2026-05-01T14:04:09.425Z</time></trkpt><trkpt lat="47.13127507336558" lon="11.452871261897107"><ele>990.0</ele><time>2026-05-01T14:04:11.422Z</time></trkpt><trkpt lat="47.13136994799532" lon="11.452818510468248"><ele>990.0</ele><time>2026-05-01T14:04:13.426Z</time></trkpt><trkpt lat="47.13147479081449" lon="11.452760216608672"><ele>990.0</ele><time>2026-05-01T14:04:15.424Z</time></trkpt><trkpt lat="47.13158510007726" lon="11.452698883484112"><ele>990.0</ele><time>2026-05-01T14:04:17.418Z</time></trkpt><trkpt lat="47.131697140141746" lon="11.452636326800711"><ele>990.0</ele><time>2026-05-01T14:04:19.429Z</time></trkpt><trkpt lat="47.13175760968719" lon="11.452602378399728"><ele>990.0</ele><time>2026-05-01T14:04:20.423Z</time></trkpt><trkpt lat="47.13182391742277" lon="11.452565152370905"><ele>989.6666666666666</ele><time>2026-05-01T14:04:21.421Z</time></trkpt><trkpt lat="47.13189360685464" lon="11.452526027815741"><ele>989.3333333333333</ele><time>2026-05-01T14:04:22.426Z</time></trkpt><trkpt lat="47.131967187296496" lon="11.452484718806874"><ele>989.0</ele><time>2026-05-01T14:04:23.416Z</time></trkpt><trkpt lat="47.13204641154569" lon="11.452440241283899"><ele>988.6666666666666</ele><time>2026-05-01T14:04:24.429Z</time></trkpt><trkpt lat="47.13212833496644" lon="11.452394248399033"><ele>988.3333333333333</ele><time>2026-05-01T14:04:25.418Z</time></trkpt><trkpt lat="47.13220978337812" lon="11.452349953803525"><ele>988.0</ele><time>2026-05-01T14:04:26.416Z</time></trkpt><trkpt lat="47.132290296888655" lon="11.452306812617113"><ele>987.9999999999999</ele><time>2026-05-01T14:04:27.427Z</time></trkpt><trkpt lat="47.13236809531257" lon="11.452265126343903"><ele>988.0</ele><time>2026-05-01T14:04:28.421Z</time></trkpt><trkpt lat="47.13244374978364" lon="11.452227101612442"><ele>988.0</ele><time>2026-05-01T14:04:29.423Z</time></trkpt><trkpt lat="47.13251641016923" lon="11.452192731900713"><ele>988.0</ele><time>2026-05-01T14:04:30.408Z</time></trkpt><trkpt lat="47.13259078636367" lon="11.452163935262748"><ele>987.9999999999999</ele><time>2026-05-01T14:04:31.421Z</time></trkpt><trkpt lat="47.13266114999999" lon="11.452130933333336"><ele>988.0</ele><time>2026-05-01T14:04:32.416Z</time></trkpt><trkpt lat="47.132740749999996" lon="11.452142516666667"><ele>987.4999999999999</ele><time>2026-05-01T14:04:33.425Z</time></trkpt><trkpt lat="47.132825683333344" lon="11.452152850000001"><ele>987.0</ele><time>2026-05-01T14:04:34.407Z</time></trkpt><trkpt lat="47.1329041" lon="11.452151399999998"><ele>986.5</ele><time>2026-05-01T14:04:35.426Z</time></trkpt><trkpt lat="47.13297583333333" lon="11.4521509"><ele>986.0</ele><time>2026-05-01T14:04:36.421Z</time></trkpt><trkpt lat="47.133050783333324" lon="11.452169516666666"><ele>985.4999999999999</ele><time>2026-05-01T14:04:37.426Z</time></trkpt><trkpt lat="47.133124616666656" lon="11.45219145"><ele>985.0</ele><time>2026-05-01T14:04:38.416Z</time></trkpt><trkpt lat="47.133206699999995" lon="11.452199666666669"><ele>985.3333333333333</ele><time>2026-05-01T14:04:39.462Z</time></trkpt><trkpt lat="47.133298066666676" lon="11.452210566666668"><ele>985.6666666666666</ele><time>2026-05-01T14:04:40.451Z</time></trkpt><trkpt lat="47.13338951666666" lon="11.452229133333333"><ele>986.0</ele><time>2026-05-01T14:04:41.419Z</time></trkpt><trkpt lat="47.133479466666664" lon="11.452251316666665"><ele>986.3333333333333</ele><time>2026-05-01T14:04:42.451Z</time></trkpt><trkpt lat="47.13356059999999" lon="11.452273466666668"><ele>986.6666666666666</ele><time>2026-05-01T14:04:43.437Z</time></trkpt><trkpt lat="47.13363120000001" lon="11.452300199999998"><ele>987.0</ele><time>2026-05-01T14:04:44.453Z</time></trkpt><trkpt lat="47.13369423333334" lon="11.452322533333332"><ele>987.0</ele><time>2026-05-01T14:04:45.428Z</time></trkpt><trkpt lat="47.1338143" lon="11.452384966666667"><ele>987.0</ele><time>2026-05-01T14:04:47.42Z</time></trkpt><trkpt lat="47.13387721666666" lon="11.452424900000002"><ele>987.0</ele><time>2026-05-01T14:04:48.43Z</time></trkpt><trkpt lat="47.1339465" lon="11.45245935"><ele>987.0</ele><time>2026-05-01T14:04:49.429Z</time></trkpt><trkpt lat="47.134025216666664" lon="11.452490733333331"><ele>987.0</ele><time>2026-05-01T14:04:50.422Z</time></trkpt><trkpt lat="47.13411046666667" lon="11.452519466666669"><ele>987.0</ele><time>2026-05-01T14:04:51.425Z</time></trkpt><trkpt lat="47.13419971666667" lon="11.452546816666667"><ele>987.8</ele><time>2026-05-01T14:04:52.432Z</time></trkpt><trkpt lat="47.134290583333325" lon="11.452575783333335"><ele>988.6</ele><time>2026-05-01T14:04:53.425Z</time></trkpt><trkpt lat="47.13438545" lon="11.452600733333336"><ele>989.3999999999999</ele><time>2026-05-01T14:04:54.425Z</time></trkpt><trkpt lat="47.134485966666674" lon="11.452618683333332"><ele>990.1999999999999</ele><time>2026-05-01T14:04:55.408Z</time></trkpt><trkpt lat="47.1345872" lon="11.452629899999998"><ele>991.0</ele><time>2026-05-01T14:04:56.418Z</time></trkpt><trkpt lat="47.13468891666666" lon="11.452639983333333"><ele>991.0</ele><time>2026-05-01T14:04:57.427Z</time></trkpt><trkpt lat="47.13479385" lon="11.45264265"><ele>990.9999999999999</ele><time>2026-05-01T14:04:58.428Z</time></trkpt><trkpt lat="47.13490166666667" lon="11.452634883333333"><ele>990.9999999999999</ele><time>2026-05-01T14:04:59.422Z</time></trkpt><trkpt lat="47.1350139" lon="11.452624533333335"><ele>991.0</ele><time>2026-05-01T14:05:00.425Z</time></trkpt><trkpt lat="47.135124950000005" lon="11.452615199999999"><ele>991.0</ele><time>2026-05-01T14:05:01.428Z</time></trkpt><trkpt lat="47.13523328333334" lon="11.452605850000001"><ele>991.8</ele><time>2026-05-01T14:05:02.428Z</time></trkpt><trkpt lat="47.13533973333333" lon="11.45259058333333"><ele>992.5999999999999</ele><time>2026-05-01T14:05:03.425Z</time></trkpt><trkpt lat="47.13544359999999" lon="11.45257385"><ele>993.4</ele><time>2026-05-01T14:05:04.429Z</time></trkpt><trkpt lat="47.135548400000005" lon="11.4525494"><ele>994.2</ele><time>2026-05-01T14:05:05.429Z</time></trkpt><trkpt lat="47.13565140000001" lon="11.452509016666667"><ele>995.0</ele><time>2026-05-01T14:05:06.425Z</time></trkpt><trkpt lat="47.13574776666666" lon="11.452455850000002"><ele>995.0</ele><time>2026-05-01T14:05:07.41Z</time></trkpt><trkpt lat="47.13583933333333" lon="11.452395383333332"><ele>995.0</ele><time>2026-05-01T14:05:08.425Z</time></trkpt><trkpt lat="47.135927566666666" lon="11.452334016666669"><ele>995.0</ele><time>2026-05-01T14:05:09.425Z</time></trkpt><trkpt lat="47.13602170000001" lon="11.452281950000001"><ele>995.0</ele><time>2026-05-01T14:05:10.429Z</time></trkpt><trkpt lat="47.136125783333334" lon="11.452243133333331"><ele>995.0</ele><time>2026-05-01T14:05:11.418Z</time></trkpt><trkpt lat="47.13623381666666" lon="11.452218000000002"><ele>995.0</ele><time>2026-05-01T14:05:12.431Z</time></trkpt><trkpt lat="47.13634203333333" lon="11.452213666666667"><ele>995.0</ele><time>2026-05-01T14:05:13.43Z</time></trkpt><trkpt lat="47.13644818333334" lon="11.45222055"><ele>995.0</ele><time>2026-05-01T14:05:14.422Z</time></trkpt><trkpt lat="47.13655201666667" lon="11.452235433333332"><ele>995.0</ele><time>2026-05-01T14:05:15.427Z</time></trkpt><trkpt lat="47.136655783333325" lon="11.452259433333332"><ele>995.0</ele><time>2026-05-01T14:05:16.412Z</time></trkpt><trkpt lat="47.13675463333334" lon="11.452288900000001"><ele>994.6</ele><time>2026-05-01T14:05:17.42Z</time></trkpt><trkpt lat="47.13684519947507" lon="11.45235529737418"><ele>994.2</ele><time>2026-05-01T14:05:18.425Z</time></trkpt><trkpt lat="47.13694121666667" lon="11.452367566666664"><ele>993.8</ele><time>2026-05-01T14:05:19.418Z</time></trkpt><trkpt lat="47.137033933333335" lon="11.452397333333332"><ele>993.4</ele><time>2026-05-01T14:05:20.422Z</time></trkpt><trkpt lat="47.13713538333333" lon="11.452406216666668"><ele>993.0</ele><time>2026-05-01T14:05:21.418Z</time></trkpt><trkpt lat="47.13723881666667" lon="11.452401033333336"><ele>993.0</ele><time>2026-05-01T14:05:22.407Z</time></trkpt><trkpt lat="47.13734218333334" lon="11.4523755"><ele>993.0</ele><time>2026-05-01T14:05:23.422Z</time></trkpt><trkpt lat="47.13744801666667" lon="11.45232498333333"><ele>993.0</ele><time>2026-05-01T14:05:24.425Z</time></trkpt><trkpt lat="47.13755341666666" lon="11.452266233333333"><ele>993.0</ele><time>2026-05-01T14:05:25.414Z</time></trkpt><trkpt lat="47.13766005000001" lon="11.452205483333334"><ele>993.0</ele><time>2026-05-01T14:05:26.427Z</time></trkpt><trkpt lat="47.13776583333333" lon="11.452143799999998"><ele>997.25</ele><time>2026-05-01T14:05:27.427Z</time></trkpt><trkpt lat="47.13786799999999" lon="11.452075266666668"><ele>1001.5</ele><time>2026-05-01T14:05:28.409Z</time></trkpt><trkpt lat="47.13797076666666" lon="11.452003983333334"><ele>1005.75</ele><time>2026-05-01T14:05:29.422Z</time></trkpt><trkpt lat="47.138078650000004" lon="11.451938683333333"><ele>1010.0</ele><time>2026-05-01T14:05:30.425Z</time></trkpt><trkpt lat="47.13819023333334" lon="11.451875116666669"><ele>1008.25</ele><time>2026-05-01T14:05:31.429Z</time></trkpt><trkpt lat="47.13830053333333" lon="11.45180085"><ele>1006.5</ele><time>2026-05-01T14:05:32.42Z</time></trkpt><trkpt lat="47.13840838333334" lon="11.4517116"><ele>1004.75</ele><time>2026-05-01T14:05:33.425Z</time></trkpt><trkpt lat="47.13851651666668" lon="11.451606150000002"><ele>1003.0</ele><time>2026-05-01T14:05:34.409Z</time></trkpt><trkpt lat="47.13862415" lon="11.451484650000003"><ele>1003.0</ele><time>2026-05-01T14:05:35.419Z</time></trkpt><trkpt lat="47.13872821666667" lon="11.451361316666667"><ele>1003.0</ele><time>2026-05-01T14:05:36.425Z</time></trkpt><trkpt lat="47.138825399999995" lon="11.451245366666669"><ele>1003.0</ele><time>2026-05-01T14:05:37.408Z</time></trkpt><trkpt lat="47.13891118333333" lon="11.451136916666668"><ele>1003.0</ele><time>2026-05-01T14:05:38.426Z</time></trkpt><trkpt lat="47.138989650000006" lon="11.451040916666667"><ele>1003.4</ele><time>2026-05-01T14:05:39.422Z</time></trkpt><trkpt lat="47.13906444999999" lon="11.450953799999999"><ele>1003.8</ele><time>2026-05-01T14:05:40.408Z</time></trkpt><trkpt lat="47.139136433333334" lon="11.450864583333335"><ele>1004.2</ele><time>2026-05-01T14:05:41.425Z</time></trkpt><trkpt lat="47.13921115" lon="11.450771766666666"><ele>1004.6</ele><time>2026-05-01T14:05:42.431Z</time></trkpt><trkpt lat="47.1392897" lon="11.450676166666666"><ele>1005.0</ele><time>2026-05-01T14:05:43.408Z</time></trkpt><trkpt lat="47.139372" lon="11.450587583333332"><ele>1005.0</ele><time>2026-05-01T14:05:44.419Z</time></trkpt><trkpt lat="47.13946105" lon="11.450520616666665"><ele>1005.0</ele><time>2026-05-01T14:05:45.425Z</time></trkpt><trkpt lat="47.13955456666666" lon="11.450472516666665"><ele>1005.0</ele><time>2026-05-01T14:05:46.429Z</time></trkpt><trkpt lat="47.13965726666667" lon="11.4504423"><ele>1005.0</ele><time>2026-05-01T14:05:47.426Z</time></trkpt><trkpt lat="47.139763533333344" lon="11.450428516666667"><ele>1005.0</ele><time>2026-05-01T14:05:48.422Z</time></trkpt><trkpt lat="47.139869466666674" lon="11.450429550000003"><ele>1007.6</ele><time>2026-05-01T14:05:49.429Z</time></trkpt><trkpt lat="47.13996693333333" lon="11.450436466666668"><ele>1010.2</ele><time>2026-05-01T14:05:50.425Z</time></trkpt><trkpt lat="47.14006415" lon="11.450430950000001"><ele>1012.8</ele><time>2026-05-01T14:05:51.426Z</time></trkpt><trkpt lat="47.14017746666667" lon="11.450402533333333"><ele>1015.4</ele><time>2026-05-01T14:05:52.421Z</time></trkpt><trkpt lat="47.14029443333334" lon="11.450357083333333"><ele>1018.0</ele><time>2026-05-01T14:05:53.42Z</time></trkpt><trkpt lat="47.14040705" lon="11.450316383333332"><ele>1018.0</ele><time>2026-05-01T14:05:54.425Z</time></trkpt><trkpt lat="47.14051593333334" lon="11.450279816666667"><ele>1018.0</ele><time>2026-05-01T14:05:55.409Z</time></trkpt><trkpt lat="47.140624883333345" lon="11.450243949999999"><ele>1018.0</ele><time>2026-05-01T14:05:56.419Z</time></trkpt><trkpt lat="47.140735383333336" lon="11.450207583333334"><ele>1018.0</ele><time>2026-05-01T14:05:57.423Z</time></trkpt><trkpt lat="47.14084548333333" lon="11.450166683333334"><ele>1015.0</ele><time>2026-05-01T14:05:58.429Z</time></trkpt><trkpt lat="47.1409572" lon="11.4501283"><ele>1012.0</ele><time>2026-05-01T14:05:59.421Z</time></trkpt><trkpt lat="47.141072" lon="11.450091516666665"><ele>1009.0</ele><time>2026-05-01T14:06:00.429Z</time></trkpt><trkpt lat="47.14118663333334" lon="11.450055783333335"><ele>1006.0</ele><time>2026-05-01T14:06:01.408Z</time></trkpt><trkpt lat="47.14129313333333" lon="11.4500154"><ele>1006.0</ele><time>2026-05-01T14:06:02.421Z</time></trkpt><trkpt lat="47.141390933333334" lon="11.4499651"><ele>1005.9999999999999</ele><time>2026-05-01T14:06:03.426Z</time></trkpt><trkpt lat="47.14148153333334" lon="11.449893450000001"><ele>1005.9999999999999</ele><time>2026-05-01T14:06:04.429Z</time></trkpt><trkpt lat="47.14156401666667" lon="11.44979155"><ele>1006.0</ele><time>2026-05-01T14:06:05.419Z</time></trkpt><trkpt lat="47.141634800000006" lon="11.449660449999998"><ele>1006.0</ele><time>2026-05-01T14:06:06.416Z</time></trkpt><trkpt lat="47.14169321666667" lon="11.449514700000002"><ele>1004.75</ele><time>2026-05-01T14:06:07.43Z</time></trkpt><trkpt lat="47.141732" lon="11.449357599999999"><ele>1003.5</ele><time>2026-05-01T14:06:08.42Z</time></trkpt><trkpt lat="47.1417575" lon="11.44919335"><ele>1002.25</ele><time>2026-05-01T14:06:09.429Z</time></trkpt><trkpt lat="47.14177981666667" lon="11.449025016666667"><ele>1001.0</ele><time>2026-05-01T14:06:10.429Z</time></trkpt><trkpt lat="47.14180911666668" lon="11.448848266666667"><ele>1002.25</ele><time>2026-05-01T14:06:11.419Z</time></trkpt><trkpt lat="47.14185118333333" lon="11.448664116666665"><ele>1003.5</ele><time>2026-05-01T14:06:12.431Z</time></trkpt><trkpt lat="47.14190208333333" lon="11.448481266666667"><ele>1004.75</ele><time>2026-05-01T14:06:13.429Z</time></trkpt><trkpt lat="47.14196656666666" lon="11.448309883333332"><ele>1006.0</ele><time>2026-05-01T14:06:14.421Z</time></trkpt><trkpt lat="47.14204083333333" lon="11.448151516666666"><ele>1006.0</ele><time>2026-05-01T14:06:15.428Z</time></trkpt><trkpt lat="47.14212491666667" lon="11.448003583333332"><ele>1006.0</ele><time>2026-05-01T14:06:16.418Z</time></trkpt><trkpt lat="47.14221271666667" lon="11.447864933333335"><ele>1006.0</ele><time>2026-05-01T14:06:17.419Z</time></trkpt><trkpt lat="47.14231686666667" lon="11.4477306"><ele>1006.0</ele><time>2026-05-01T14:06:18.428Z</time></trkpt><trkpt lat="47.14244848333333" lon="11.447593"><ele>1004.3333333333333</ele><time>2026-05-01T14:06:19.407Z</time></trkpt><trkpt lat="47.14261588333334" lon="11.447460766666666"><ele>1002.6666666666667</ele><time>2026-05-01T14:06:20.437Z</time></trkpt><trkpt lat="47.142812883333335" lon="11.447364216666665"><ele>1001.0</ele><time>2026-05-01T14:06:21.425Z</time></trkpt><trkpt lat="47.14301927705564" lon="11.447338426652813"><ele>998.6666666666667</ele><time>2026-05-01T14:06:22.409Z</time></trkpt><trkpt lat="47.143227983333325" lon="11.447284083333333"><ele>996.3333333333333</ele><time>2026-05-01T14:06:23.423Z</time></trkpt><trkpt lat="47.143447216666665" lon="11.447255533333335"><ele>994.0</ele><time>2026-05-01T14:06:24.406Z</time></trkpt><trkpt lat="47.14365486666667" lon="11.447206249999999"><ele>994.0</ele><time>2026-05-01T14:06:25.405Z</time></trkpt><trkpt lat="47.143846516666656" lon="11.447136766666665"><ele>994.0</ele><time>2026-05-01T14:06:26.425Z</time></trkpt><trkpt lat="47.14403163333333" lon="11.447032866666666"><ele>994.0</ele><time>2026-05-01T14:06:27.429Z</time></trkpt><trkpt lat="47.14421191666666" lon="11.4469129"><ele>1004.0</ele><time>2026-05-01T14:06:28.43Z</time></trkpt><trkpt lat="47.14438948333333" lon="11.44682401666667"><ele>1014.0</ele><time>2026-05-01T14:06:29.422Z</time></trkpt><trkpt lat="47.14456321666666" lon="11.446796599999999"><ele>1024.0</ele><time>2026-05-01T14:06:30.425Z</time></trkpt><trkpt lat="47.144730249063024" lon="11.446852686585386"><ele>1020.6666666666666</ele><time>2026-05-01T14:06:31.428Z</time></trkpt><trkpt lat="47.14490582984614" lon="11.446933308085203"><ele>1017.3333333333333</ele><time>2026-05-01T14:06:32.422Z</time></trkpt><trkpt lat="47.14509152451969" lon="11.447017436869727"><ele>1014.0</ele><time>2026-05-01T14:06:33.429Z</time></trkpt><trkpt lat="47.145287466666666" lon="11.447075066666665"><ele>1014.0</ele><time>2026-05-01T14:06:34.407Z</time></trkpt><trkpt lat="47.14549266666666" lon="11.447126316666667"><ele>1014.0</ele><time>2026-05-01T14:06:35.42Z</time></trkpt><trkpt lat="47.14571178333334" lon="11.447137433333333"><ele>1014.0</ele><time>2026-05-01T14:06:36.424Z</time></trkpt><trkpt lat="47.14595056666667" lon="11.447119950000001"><ele>1017.5</ele><time>2026-05-01T14:06:37.436Z</time></trkpt><trkpt lat="47.14620695" lon="11.447086616666665"><ele>1021.0</ele><time>2026-05-01T14:06:38.426Z</time></trkpt><trkpt lat="47.14647866666666" lon="11.447050666666668"><ele>1014.5</ele><time>2026-05-01T14:06:39.426Z</time></trkpt><trkpt lat="47.14676108333333" lon="11.447020349999999"><ele>1008.0</ele><time>2026-05-01T14:06:40.429Z</time></trkpt><trkpt lat="47.14704615000001" lon="11.446987233333333"><ele>1008.0</ele><time>2026-05-01T14:06:41.422Z</time></trkpt><trkpt lat="47.14732106666667" lon="11.446954916666668"><ele>1008.0</ele><time>2026-05-01T14:06:42.428Z</time></trkpt><trkpt lat="47.1475799" lon="11.446928233333331"><ele>1009.0</ele><time>2026-05-01T14:06:43.421Z</time></trkpt><trkpt lat="47.14782293333332" lon="11.446921333333334"><ele>1010.0</ele><time>2026-05-01T14:06:44.422Z</time></trkpt><trkpt lat="47.148055910000714" lon="11.446969870081986"><ele>1008.0</ele><time>2026-05-01T14:06:45.425Z</time></trkpt><trkpt lat="47.14828931825615" lon="11.447033363818713"><ele>1006.0</ele><time>2026-05-01T14:06:46.429Z</time></trkpt><trkpt lat="47.14852836115836" lon="11.447038474035242"><ele>1006.0</ele><time>2026-05-01T14:06:47.419Z</time></trkpt><trkpt lat="47.1487665888647" lon="11.447021741369948"><ele>1006.0</ele><time>2026-05-01T14:06:48.428Z</time></trkpt><trkpt lat="47.14900483333333" lon="11.446977983333333"><ele>1001.0</ele><time>2026-05-01T14:06:49.429Z</time></trkpt><trkpt lat="47.14924101666667" lon="11.446959716666667"><ele>996.0</ele><time>2026-05-01T14:06:50.422Z</time></trkpt><trkpt lat="47.14948086666667" lon="11.446921416666664"><ele>996.0</ele><time>2026-05-01T14:06:51.426Z</time></trkpt><trkpt lat="47.14972760000001" lon="11.44684715"><ele>996.0</ele><time>2026-05-01T14:06:52.414Z</time></trkpt><trkpt lat="47.149977883333335" lon="11.446740266666668"><ele>997.0</ele><time>2026-05-01T14:06:53.422Z</time></trkpt><trkpt lat="47.15022016666667" lon="11.446612450000002"><ele>998.0</ele><time>2026-05-01T14:06:54.426Z</time></trkpt><trkpt lat="47.150443599999996" lon="11.446463000000001"><ele>998.0</ele><time>2026-05-01T14:06:55.41Z</time></trkpt><trkpt lat="47.15065760000001" lon="11.446328333333335"><ele>998.0</ele><time>2026-05-01T14:06:56.422Z</time></trkpt><trkpt lat="47.15087568333334" lon="11.446228816666666"><ele>1004.5</ele><time>2026-05-01T14:06:57.428Z</time></trkpt><trkpt lat="47.15110586666666" lon="11.446155166666665"><ele>1011.0</ele><time>2026-05-01T14:06:58.429Z</time></trkpt><trkpt lat="47.15134273333333" lon="11.446096516666667"><ele>1004.5</ele><time>2026-05-01T14:06:59.42Z</time></trkpt><trkpt lat="47.15158513333334" lon="11.446039650000001"><ele>998.0</ele><time>2026-05-01T14:07:00.406Z</time></trkpt><trkpt lat="47.15183831666666" lon="11.44598328333333"><ele>998.0</ele><time>2026-05-01T14:07:01.425Z</time></trkpt><trkpt lat="47.152101949999995" lon="11.445923650000001"><ele>998.0</ele><time>2026-05-01T14:07:02.421Z</time></trkpt><trkpt lat="47.152370649999995" lon="11.445863950000001"><ele>992.5</ele><time>2026-05-01T14:07:03.429Z</time></trkpt><trkpt lat="47.1526411" lon="11.445803016666666"><ele>987.0</ele><time>2026-05-01T14:07:04.41Z</time></trkpt><trkpt lat="47.1529132" lon="11.445740083333332"><ele>987.0</ele><time>2026-05-01T14:07:05.419Z</time></trkpt><trkpt lat="47.153184966666664" lon="11.445677799999999"><ele>987.0</ele><time>2026-05-01T14:07:06.426Z</time></trkpt><trkpt lat="47.15345465" lon="11.4456174"><ele>982.0</ele><time>2026-05-01T14:07:07.407Z</time></trkpt><trkpt lat="47.15371806666667" lon="11.445560799999999"><ele>977.0</ele><time>2026-05-01T14:07:08.423Z</time></trkpt><trkpt lat="47.153976666666665" lon="11.445504533333333"><ele>984.5</ele><time>2026-05-01T14:07:09.43Z</time></trkpt><trkpt lat="47.15422541666667" lon="11.445449483333334"><ele>992.0</ele><time>2026-05-01T14:07:10.407Z</time></trkpt><trkpt lat="47.15445926666666" lon="11.445394766666668"><ele>992.0</ele><time>2026-05-01T14:07:11.423Z</time></trkpt><trkpt lat="47.154679383333324" lon="11.445340733333333"><ele>992.0</ele><time>2026-05-01T14:07:12.412Z</time></trkpt><trkpt lat="47.154896750000006" lon="11.445276149999998"><ele>992.0</ele><time>2026-05-01T14:07:13.448Z</time></trkpt><trkpt lat="47.15511821666667" lon="11.445177533333334"><ele>989.5</ele><time>2026-05-01T14:07:14.469Z</time></trkpt><trkpt lat="47.15534391666667" lon="11.445036133333334"><ele>987.0</ele><time>2026-05-01T14:07:15.453Z</time></trkpt><trkpt lat="47.15557828333334" lon="11.444867183333333"><ele>991.5</ele><time>2026-05-01T14:07:16.439Z</time></trkpt><trkpt lat="47.15582433333334" lon="11.444681966666668"><ele>996.0</ele><time>2026-05-01T14:07:17.424Z</time></trkpt><trkpt lat="47.15607266666666" lon="11.444494016666665"><ele>996.0</ele><time>2026-05-01T14:07:18.428Z</time></trkpt><trkpt lat="47.156309883333336" lon="11.444313716666667"><ele>996.0</ele><time>2026-05-01T14:07:19.407Z</time></trkpt><trkpt lat="47.156533183333345" lon="11.444148233333332"><ele>986.0</ele><time>2026-05-01T14:07:20.42Z</time></trkpt><trkpt lat="47.15674143333334" lon="11.443991500000001"><ele>976.0</ele><time>2026-05-01T14:07:21.419Z</time></trkpt><trkpt lat="47.15693458333333" lon="11.4438233"><ele>976.0</ele><time>2026-05-01T14:07:23.421Z</time></trkpt><trkpt lat="47.15711460000001" lon="11.443634816666668"><ele>976.0</ele><time>2026-05-01T14:07:24.425Z</time></trkpt><trkpt lat="47.15741429999999" lon="11.443220350000002"><ele>976.0</ele><time>2026-05-01T14:07:25.425Z</time></trkpt><trkpt lat="47.157536900000004" lon="11.443011916666668"><ele>976.0</ele><time>2026-05-01T14:07:26.417Z</time></trkpt><trkpt lat="47.1576604" lon="11.44281553333333"><ele>976.0</ele><time>2026-05-01T14:07:27.419Z</time></trkpt><trkpt lat="47.15779095" lon="11.442639183333332"><ele>980.6666666666666</ele><time>2026-05-01T14:07:28.424Z</time></trkpt><trkpt lat="47.15792445000001" lon="11.442481533333334"><ele>985.3333333333333</ele><time>2026-05-01T14:07:29.417Z</time></trkpt><trkpt lat="47.158051983333344" lon="11.442337033333335"><ele>990.0</ele><time>2026-05-01T14:07:30.412Z</time></trkpt><trkpt lat="47.158179416666655" lon="11.442201416666666"><ele>986.0</ele><time>2026-05-01T14:07:31.427Z</time></trkpt><trkpt lat="47.15843811666667" lon="11.4419342"><ele>982.0</ele><time>2026-05-01T14:07:33.421Z</time></trkpt><trkpt lat="47.15857153333333" lon="11.44179785"><ele>982.0</ele><time>2026-05-01T14:07:34.427Z</time></trkpt><trkpt lat="47.15870575000001" lon="11.441656783333334"><ele>982.0</ele><time>2026-05-01T14:07:35.418Z</time></trkpt><trkpt lat="47.15884266666667" lon="11.441510633333333"><ele>982.0</ele><time>2026-05-01T14:07:36.419Z</time></trkpt><trkpt lat="47.15898773333333" lon="11.441363816666668"><ele>982.6666666666666</ele><time>2026-05-01T14:07:37.421Z</time></trkpt><trkpt lat="47.15913796666667" lon="11.441213883333335"><ele>983.3333333333333</ele><time>2026-05-01T14:07:38.418Z</time></trkpt><trkpt lat="47.15929351666667" lon="11.441073466666667"><ele>984.0</ele><time>2026-05-01T14:07:39.421Z</time></trkpt><trkpt lat="47.15945613333333" lon="11.440949833333331"><ele>984.0</ele><time>2026-05-01T14:07:40.426Z</time></trkpt><trkpt lat="47.15962523333333" lon="11.440839000000002"><ele>984.0</ele><time>2026-05-01T14:07:41.418Z</time></trkpt><trkpt lat="47.159798" lon="11.440730683333333"><ele>984.0</ele><time>2026-05-01T14:07:42.419Z</time></trkpt><trkpt lat="47.15997096666667" lon="11.440617166666666"><ele>985.3333333333333</ele><time>2026-05-01T14:07:43.425Z</time></trkpt><trkpt lat="47.16014596666667" lon="11.440505850000001"><ele>986.6666666666666</ele><time>2026-05-01T14:07:44.418Z</time></trkpt><trkpt lat="47.16032425" lon="11.440397116666668"><ele>988.0</ele><time>2026-05-01T14:07:45.419Z</time></trkpt><trkpt lat="47.16050205" lon="11.440287266666667"><ele>988.0</ele><time>2026-05-01T14:07:46.408Z</time></trkpt><trkpt lat="47.160682449999996" lon="11.440176166666667"><ele>988.0</ele><time>2026-05-01T14:07:47.421Z</time></trkpt><trkpt lat="47.16086366666667" lon="11.440063866666666"><ele>988.0</ele><time>2026-05-01T14:07:48.419Z</time></trkpt><trkpt lat="47.161043883333335" lon="11.439945133333334"><ele>983.0</ele><time>2026-05-01T14:07:49.425Z</time></trkpt><trkpt lat="47.16121843333333" lon="11.439809616666667"><ele>978.0</ele><time>2026-05-01T14:07:50.418Z</time></trkpt><trkpt lat="47.161383566666665" lon="11.439651516666666"><ele>973.0</ele><time>2026-05-01T14:07:51.419Z</time></trkpt><trkpt lat="47.161533316666656" lon="11.43946275"><ele>972.6666666666666</ele><time>2026-05-01T14:07:52.429Z</time></trkpt><trkpt lat="47.16166253333334" lon="11.439245399999999"><ele>972.3333333333333</ele><time>2026-05-01T14:07:53.418Z</time></trkpt><trkpt lat="47.16176416666667" lon="11.439001183333334"><ele>972.0</ele><time>2026-05-01T14:07:54.421Z</time></trkpt><trkpt lat="47.16183389999999" lon="11.438733283333333"><ele>976.3333333333333</ele><time>2026-05-01T14:07:55.407Z</time></trkpt><trkpt lat="47.16187463333334" lon="11.438450733333333"><ele>980.6666666666666</ele><time>2026-05-01T14:07:56.428Z</time></trkpt><trkpt lat="47.16188950000001" lon="11.438158833333334"><ele>985.0</ele><time>2026-05-01T14:07:57.419Z</time></trkpt><trkpt lat="47.161896399999996" lon="11.43787815"><ele>990.6666666666666</ele><time>2026-05-01T14:07:58.425Z</time></trkpt><trkpt lat="47.16190636666667" lon="11.437617266666667"><ele>996.3333333333333</ele><time>2026-05-01T14:07:59.418Z</time></trkpt><trkpt lat="47.16191668333333" lon="11.437377050000002"><ele>1002.0</ele><time>2026-05-01T14:08:00.421Z</time></trkpt><trkpt lat="47.16193731666667" lon="11.437155933333335"><ele>1006.75</ele><time>2026-05-01T14:08:01.429Z</time></trkpt><trkpt lat="47.161984266666664" lon="11.4369657"><ele>1011.5</ele><time>2026-05-01T14:08:02.416Z</time></trkpt><trkpt lat="47.16207261666667" lon="11.436825233333332"><ele>1016.25</ele><time>2026-05-01T14:08:03.419Z</time></trkpt><trkpt lat="47.16218963333334" lon="11.436728616666668"><ele>1021.0</ele><time>2026-05-01T14:08:04.428Z</time></trkpt><trkpt lat="47.16231901666667" lon="11.436668766666665"><ele>1013.5</ele><time>2026-05-01T14:08:05.416Z</time></trkpt><trkpt lat="47.162449216666666" lon="11.4366588"><ele>1006.0</ele><time>2026-05-01T14:08:06.418Z</time></trkpt><trkpt lat="47.16258095" lon="11.436700083333337"><ele>998.5</ele><time>2026-05-01T14:08:07.428Z</time></trkpt><trkpt lat="47.16271533333333" lon="11.436761933333331"><ele>991.0</ele><time>2026-05-01T14:08:08.417Z</time></trkpt><trkpt lat="47.16286516666667" lon="11.436828783333333"><ele>991.0</ele><time>2026-05-01T14:08:09.42Z</time></trkpt><trkpt lat="47.16302473333334" lon="11.436905150000001"><ele>991.0</ele><time>2026-05-01T14:08:10.426Z</time></trkpt><trkpt lat="47.163189566666674" lon="11.436989850000002"><ele>991.0</ele><time>2026-05-01T14:08:11.418Z</time></trkpt><trkpt lat="47.16334855" lon="11.437070300000002"><ele>992.0</ele><time>2026-05-01T14:08:12.421Z</time></trkpt><trkpt lat="47.1634977" lon="11.437140783333334"><ele>993.0</ele><time>2026-05-01T14:08:13.431Z</time></trkpt><trkpt lat="47.16364045" lon="11.437181933333333"><ele>994.0</ele><time>2026-05-01T14:08:14.416Z</time></trkpt><trkpt lat="47.16377946666667" lon="11.437174466666667"><ele>995.0</ele><time>2026-05-01T14:08:15.418Z</time></trkpt><trkpt lat="47.163914183333326" lon="11.437118799999999"><ele>989.6666666666667</ele><time>2026-05-01T14:08:16.425Z</time></trkpt><trkpt lat="47.16403998333333" lon="11.437019433333335"><ele>984.3333333333333</ele><time>2026-05-01T14:08:17.412Z</time></trkpt><trkpt lat="47.16416335" lon="11.436885649999999"><ele>979.0</ele><time>2026-05-01T14:08:18.421Z</time></trkpt><trkpt lat="47.16429586666667" lon="11.436739966666668"><ele>979.0</ele><time>2026-05-01T14:08:19.412Z</time></trkpt><trkpt lat="47.16443415" lon="11.436589299999998"><ele>979.0</ele><time>2026-05-01T14:08:20.418Z</time></trkpt><trkpt lat="47.16457473333333" lon="11.436432349999999"><ele>979.0</ele><time>2026-05-01T14:08:21.42Z</time></trkpt><trkpt lat="47.1647145" lon="11.436272933333331"><ele>979.6666666666666</ele><time>2026-05-01T14:08:22.427Z</time></trkpt><trkpt lat="47.164852483333334" lon="11.43611663333333"><ele>980.3333333333333</ele><time>2026-05-01T14:08:23.419Z</time></trkpt><trkpt lat="47.16499213333333" lon="11.4359627"><ele>981.0</ele><time>2026-05-01T14:08:24.42Z</time></trkpt><trkpt lat="47.16513385" lon="11.435804616666667"><ele>981.0</ele><time>2026-05-01T14:08:25.428Z</time></trkpt><trkpt lat="47.16527636666667" lon="11.435649366666665"><ele>981.0</ele><time>2026-05-01T14:08:26.418Z</time></trkpt><trkpt lat="47.16542065" lon="11.435488983333336"><ele>981.0</ele><time>2026-05-01T14:08:27.42Z</time></trkpt><trkpt lat="47.16557318333333" lon="11.435319049999999"><ele>981.3333333333333</ele><time>2026-05-01T14:08:28.428Z</time></trkpt><trkpt lat="47.1657339" lon="11.435141466666668"><ele>981.6666666666666</ele><time>2026-05-01T14:08:29.418Z</time></trkpt><trkpt lat="47.16590083333334" lon="11.43496116666667"><ele>982.0</ele><time>2026-05-01T14:08:30.419Z</time></trkpt><trkpt lat="47.166074483333325" lon="11.434773683333333"><ele>978.5</ele><time>2026-05-01T14:08:31.426Z</time></trkpt><trkpt lat="47.166258116666654" lon="11.434577899999999"><ele>975.0</ele><time>2026-05-01T14:08:32.417Z</time></trkpt><trkpt lat="47.1666465" lon="11.434150833333335"><ele>975.0</ele><time>2026-05-01T14:08:34.408Z</time></trkpt><trkpt lat="47.16685056666667" lon="11.433916666666669"><ele>975.0</ele><time>2026-05-01T14:08:35.416Z</time></trkpt><trkpt lat="47.1670648" lon="11.43367605"><ele>973.0</ele><time>2026-05-01T14:08:36.422Z</time></trkpt><trkpt lat="47.1672843" lon="11.433428800000002"><ele>971.0</ele><time>2026-05-01T14:08:37.416Z</time></trkpt><trkpt lat="47.16750699999999" lon="11.433177166666667"><ele>988.5</ele><time>2026-05-01T14:08:38.418Z</time></trkpt><trkpt lat="47.16772788333333" lon="11.432932366666666"><ele>1006.0</ele><time>2026-05-01T14:08:39.42Z</time></trkpt><trkpt lat="47.167941033333335" lon="11.432700966666667"><ele>1006.0</ele><time>2026-05-01T14:08:40.408Z</time></trkpt><trkpt lat="47.16815413333333" lon="11.432465566666668"><ele>1006.0</ele><time>2026-05-01T14:08:41.415Z</time></trkpt><trkpt lat="47.168364649999994" lon="11.432233"><ele>1001.5</ele><time>2026-05-01T14:08:42.422Z</time></trkpt><trkpt lat="47.16857496666666" lon="11.431998066666667"><ele>997.0</ele><time>2026-05-01T14:08:43.426Z</time></trkpt><trkpt lat="47.168783266666665" lon="11.431765383333333"><ele>997.0</ele><time>2026-05-01T14:08:44.418Z</time></trkpt><trkpt lat="47.16898928333333" lon="11.431537166666667"><ele>997.0</ele><time>2026-05-01T14:08:45.419Z</time></trkpt><trkpt lat="47.169192316666674" lon="11.431309316666665"><ele>997.5</ele><time>2026-05-01T14:08:46.408Z</time></trkpt><trkpt lat="47.16938986666667" lon="11.431089433333334"><ele>998.0</ele><time>2026-05-01T14:08:47.416Z</time></trkpt><trkpt lat="47.1695798" lon="11.430876533333333"><ele>998.0</ele><time>2026-05-01T14:08:48.429Z</time></trkpt><trkpt lat="47.16976506666667" lon="11.430662683333333"><ele>998.0</ele><time>2026-05-01T14:08:49.429Z</time></trkpt><trkpt lat="47.16995273333334" lon="11.430448750000002"><ele>999.0</ele><time>2026-05-01T14:08:50.417Z</time></trkpt><trkpt lat="47.1701385" lon="11.430235816666668"><ele>1000.0</ele><time>2026-05-01T14:08:51.421Z</time></trkpt><trkpt lat="47.17032406666667" lon="11.430024099999999"><ele>1000.0</ele><time>2026-05-01T14:08:52.429Z</time></trkpt><trkpt lat="47.170514266666665" lon="11.429808849999999"><ele>1000.0</ele><time>2026-05-01T14:08:53.418Z</time></trkpt><trkpt lat="47.17071021666667" lon="11.429592183333334"><ele>998.0</ele><time>2026-05-01T14:08:54.421Z</time></trkpt><trkpt lat="47.170909716666664" lon="11.429375883333334"><ele>996.0</ele><time>2026-05-01T14:08:55.408Z</time></trkpt><trkpt lat="47.17110485" lon="11.429162016666664"><ele>996.0</ele><time>2026-05-01T14:08:56.418Z</time></trkpt><trkpt lat="47.171289816666665" lon="11.428953683333335"><ele>996.0</ele><time>2026-05-01T14:08:57.422Z</time></trkpt><trkpt lat="47.17147385" lon="11.428746650000003"><ele>994.0</ele><time>2026-05-01T14:08:58.426Z</time></trkpt><trkpt lat="47.171666349999995" lon="11.428530233333333"><ele>992.0</ele><time>2026-05-01T14:08:59.421Z</time></trkpt><trkpt lat="47.17185946666667" lon="11.428317"><ele>992.0</ele><time>2026-05-01T14:09:00.424Z</time></trkpt><trkpt lat="47.17203890000001" lon="11.428117550000001"><ele>992.0</ele><time>2026-05-01T14:09:01.426Z</time></trkpt><trkpt lat="47.1722012" lon="11.427918583333334"><ele>992.0</ele><time>2026-05-01T14:09:02.416Z</time></trkpt><trkpt lat="47.17235228333334" lon="11.427704549999998"><ele>992.6666666666667</ele><time>2026-05-01T14:09:03.42Z</time></trkpt><trkpt lat="47.17249486666666" lon="11.427475766666664"><ele>993.3333333333333</ele><time>2026-05-01T14:09:04.421Z</time></trkpt><trkpt lat="47.17263745" lon="11.427235766666668"><ele>994.0</ele><time>2026-05-01T14:09:05.44Z</time></trkpt><trkpt lat="47.172787733333344" lon="11.427002033333334"><ele>994.0</ele><time>2026-05-01T14:09:06.405Z</time></trkpt><trkpt lat="47.172950533333335" lon="11.426786916666666"><ele>994.0</ele><time>2026-05-01T14:09:07.46Z</time></trkpt><trkpt lat="47.17312531666667" lon="11.426583583333334"><ele>994.0</ele><time>2026-05-01T14:09:08.441Z</time></trkpt><trkpt lat="47.17330978333332" lon="11.426389066666664"><ele>988.5</ele><time>2026-05-01T14:09:09.421Z</time></trkpt><trkpt lat="47.17350011666667" lon="11.426196883333333"><ele>983.0</ele><time>2026-05-01T14:09:10.435Z</time></trkpt><trkpt lat="47.17369378333333" lon="11.426001866666665"><ele>983.0</ele><time>2026-05-01T14:09:11.406Z</time></trkpt><trkpt lat="47.1738888" lon="11.42580365"><ele>983.0</ele><time>2026-05-01T14:09:12.416Z</time></trkpt><trkpt lat="47.1740815" lon="11.425604383333333"><ele>982.0</ele><time>2026-05-01T14:09:13.43Z</time></trkpt><trkpt lat="47.17426498333332" lon="11.425416983333331"><ele>981.0</ele><time>2026-05-01T14:09:14.408Z</time></trkpt><trkpt lat="47.17443528333333" lon="11.425246483333334"><ele>980.0</ele><time>2026-05-01T14:09:15.415Z</time></trkpt><trkpt lat="47.17459101666667" lon="11.42507235"><ele>980.0</ele><time>2026-05-01T14:09:16.428Z</time></trkpt><trkpt lat="47.174729483333344" lon="11.424880816666667"><ele>980.0</ele><time>2026-05-01T14:09:17.412Z</time></trkpt><trkpt lat="47.174851183333345" lon="11.424661399999998"><ele>980.0</ele><time>2026-05-01T14:09:18.409Z</time></trkpt><trkpt lat="47.17494624999999" lon="11.4244102"><ele>980.3333333333334</ele><time>2026-05-01T14:09:19.427Z</time></trkpt><trkpt lat="47.175013050000004" lon="11.424147783333336"><ele>980.6666666666667</ele><time>2026-05-01T14:09:20.41Z</time></trkpt><trkpt lat="47.17505046666667" lon="11.42388178333333"><ele>981.0</ele><time>2026-05-01T14:09:21.414Z</time></trkpt><trkpt lat="47.17506023333333" lon="11.4235936"><ele>981.0</ele><time>2026-05-01T14:09:22.43Z</time></trkpt><trkpt lat="47.175062149999995" lon="11.423282849999998"><ele>981.0</ele><time>2026-05-01T14:09:23.411Z</time></trkpt><trkpt lat="47.175077916666666" lon="11.422967083333333"><ele>981.0</ele><time>2026-05-01T14:09:24.416Z</time></trkpt><trkpt lat="47.17512215" lon="11.42266288333333"><ele>983.6666666666667</ele><time>2026-05-01T14:09:25.43Z</time></trkpt><trkpt lat="47.17520031666666" lon="11.422375033333333"><ele>986.3333333333334</ele><time>2026-05-01T14:09:26.407Z</time></trkpt><trkpt lat="47.17530286666667" lon="11.422103250000003"><ele>989.0</ele><time>2026-05-01T14:09:27.417Z</time></trkpt><trkpt lat="47.17541118333334" lon="11.421828183333332"><ele>993.6666666666667</ele><time>2026-05-01T14:09:28.419Z</time></trkpt><trkpt lat="47.17550815" lon="11.421533433333332"><ele>998.3333333333333</ele><time>2026-05-01T14:09:29.42Z</time></trkpt><trkpt lat="47.17559875" lon="11.421229300000002"><ele>1003.0</ele><time>2026-05-01T14:09:30.415Z</time></trkpt><trkpt lat="47.1756861" lon="11.420932616666668"><ele>996.0</ele><time>2026-05-01T14:09:31.42Z</time></trkpt><trkpt lat="47.17576813333333" lon="11.420645366666667"><ele>989.0</ele><time>2026-05-01T14:09:32.461Z</time></trkpt><trkpt lat="47.175843199999996" lon="11.420368866666667"><ele>982.0</ele><time>2026-05-01T14:09:33.417Z</time></trkpt><trkpt lat="47.17598393333333" lon="11.419862483333334"><ele>989.6666666666666</ele><time>2026-05-01T14:09:35.46Z</time></trkpt><trkpt lat="47.17605673333334" lon="11.4196312"><ele>997.3333333333333</ele><time>2026-05-01T14:09:36.418Z</time></trkpt><trkpt lat="47.176138266666676" lon="11.419424266666665"><ele>1005.0</ele><time>2026-05-01T14:09:37.439Z</time></trkpt><trkpt lat="47.17623523333333" lon="11.419249683333332"><ele>1005.0</ele><time>2026-05-01T14:09:38.404Z</time></trkpt><trkpt lat="47.1763554" lon="11.419112733333334"><ele>1005.0</ele><time>2026-05-01T14:09:39.413Z</time></trkpt><trkpt lat="47.176500850000004" lon="11.419015683333336"><ele>1005.0</ele><time>2026-05-01T14:09:40.418Z</time></trkpt><trkpt lat="47.17665730000001" lon="11.418930466666666"><ele>999.6666666666667</ele><time>2026-05-01T14:09:41.409Z</time></trkpt><trkpt lat="47.17681811666667" lon="11.418835483333332"><ele>994.3333333333334</ele><time>2026-05-01T14:09:42.407Z</time></trkpt><trkpt lat="47.17697846666666" lon="11.418738016666667"><ele>989.0</ele><time>2026-05-01T14:09:43.407Z</time></trkpt><trkpt lat="47.17713708333334" lon="11.418635716666666"><ele>989.0</ele><time>2026-05-01T14:09:44.409Z</time></trkpt><trkpt lat="47.177289699999996" lon="11.418532083333332"><ele>989.0</ele><time>2026-05-01T14:09:45.42Z</time></trkpt><trkpt lat="47.17743815000001" lon="11.418432299999997"><ele>989.0</ele><time>2026-05-01T14:09:46.423Z</time></trkpt><trkpt lat="47.17758988333333" lon="11.41833855"><ele>984.3333333333334</ele><time>2026-05-01T14:09:47.406Z</time></trkpt><trkpt lat="47.17774585" lon="11.41825295"><ele>979.6666666666667</ele><time>2026-05-01T14:09:48.414Z</time></trkpt><trkpt lat="47.17790191666666" lon="11.418161016666666"><ele>975.0</ele><time>2026-05-01T14:09:49.42Z</time></trkpt><trkpt lat="47.178057599999995" lon="11.418067016666663"><ele>974.6666666666667</ele><time>2026-05-01T14:09:50.427Z</time></trkpt><trkpt lat="47.17821195" lon="11.4179727"><ele>974.3333333333334</ele><time>2026-05-01T14:09:51.407Z</time></trkpt><trkpt lat="47.17836551666666" lon="11.417882866666666"><ele>974.0</ele><time>2026-05-01T14:09:52.42Z</time></trkpt><trkpt lat="47.17851776666666" lon="11.417793166666668"><ele>974.0</ele><time>2026-05-01T14:09:53.412Z</time></trkpt><trkpt lat="47.178670066666676" lon="11.41770315"><ele>974.0</ele><time>2026-05-01T14:09:54.408Z</time></trkpt><trkpt lat="47.17882423333334" lon="11.417615116666665"><ele>974.0</ele><time>2026-05-01T14:09:55.424Z</time></trkpt><trkpt lat="47.17897688333334" lon="11.4175271"><ele>970.3333333333334</ele><time>2026-05-01T14:09:56.412Z</time></trkpt><trkpt lat="47.17912788333333" lon="11.417440816666666"><ele>966.6666666666667</ele><time>2026-05-01T14:09:57.408Z</time></trkpt><trkpt lat="47.179272250000004" lon="11.417356083333333"><ele>963.0</ele><time>2026-05-01T14:09:58.42Z</time></trkpt><trkpt lat="47.17941515000001" lon="11.417272733333334"><ele>963.0</ele><time>2026-05-01T14:09:59.417Z</time></trkpt><trkpt lat="47.179556100000006" lon="11.41718365"><ele>963.0</ele><time>2026-05-01T14:10:00.408Z</time></trkpt><trkpt lat="47.17968705" lon="11.417083666666667"><ele>963.0</ele><time>2026-05-01T14:10:01.41Z</time></trkpt><trkpt lat="47.179804950000005" lon="11.416970099999999"><ele>963.0</ele><time>2026-05-01T14:10:02.419Z</time></trkpt><trkpt lat="47.17991959999999" lon="11.416855500000002"><ele>964.25</ele><time>2026-05-01T14:10:03.414Z</time></trkpt><trkpt lat="47.18004046666666" lon="11.416745"><ele>965.5</ele><time>2026-05-01T14:10:04.417Z</time></trkpt><trkpt lat="47.18016683333334" lon="11.416630166666668"><ele>966.75</ele><time>2026-05-01T14:10:05.416Z</time></trkpt><trkpt lat="47.180297149999994" lon="11.4165132"><ele>968.0</ele><time>2026-05-01T14:10:06.408Z</time></trkpt><trkpt lat="47.180429316666675" lon="11.41639136666667"><ele>966.3333333333334</ele><time>2026-05-01T14:10:07.418Z</time></trkpt><trkpt lat="47.18056401666666" lon="11.416268300000002"><ele>964.6666666666667</ele><time>2026-05-01T14:10:08.408Z</time></trkpt><trkpt lat="47.18070086666667" lon="11.416142416666666"><ele>963.0</ele><time>2026-05-01T14:10:09.429Z</time></trkpt><trkpt lat="47.18084135000001" lon="11.416014883333332"><ele>963.0</ele><time>2026-05-01T14:10:10.419Z</time></trkpt><trkpt lat="47.18098355" lon="11.415885566666669"><ele>963.0</ele><time>2026-05-01T14:10:11.407Z</time></trkpt><trkpt lat="47.181120783333334" lon="11.415745883333333"><ele>963.0</ele><time>2026-05-01T14:10:12.409Z</time></trkpt><trkpt lat="47.18124843333334" lon="11.415583566666664"><ele>967.3333333333333</ele><time>2026-05-01T14:10:13.42Z</time></trkpt><trkpt lat="47.181359" lon="11.415391533333331"><ele>971.6666666666666</ele><time>2026-05-01T14:10:14.424Z</time></trkpt><trkpt lat="47.181444250000006" lon="11.415167866666664"><ele>976.0</ele><time>2026-05-01T14:10:15.43Z</time></trkpt><trkpt lat="47.18150513333333" lon="11.414916750000001"><ele>968.0</ele><time>2026-05-01T14:10:16.419Z</time></trkpt><trkpt lat="47.18155638333332" lon="11.414655533333333"><ele>960.0</ele><time>2026-05-01T14:10:17.407Z</time></trkpt><trkpt lat="47.18161468333333" lon="11.414394599999998"><ele>952.0</ele><time>2026-05-01T14:10:18.426Z</time></trkpt><trkpt lat="47.181692216666676" lon="11.414144199999997"><ele>952.0</ele><time>2026-05-01T14:10:19.419Z</time></trkpt><trkpt lat="47.18179408333334" lon="11.413912483333336"><ele>952.0</ele><time>2026-05-01T14:10:20.424Z</time></trkpt><trkpt lat="47.181919733333345" lon="11.41370395"><ele>952.0</ele><time>2026-05-01T14:10:21.412Z</time></trkpt><trkpt lat="47.182056583333335" lon="11.413511300000001"><ele>955.3333333333333</ele><time>2026-05-01T14:10:22.427Z</time></trkpt><trkpt lat="47.18219985000001" lon="11.413320149999999"><ele>958.6666666666667</ele><time>2026-05-01T14:10:23.424Z</time></trkpt><trkpt lat="47.18234803333333" lon="11.413124366666667"><ele>962.0</ele><time>2026-05-01T14:10:24.426Z</time></trkpt><trkpt lat="47.18249743333334" lon="11.412925316666666"><ele>962.0</ele><time>2026-05-01T14:10:25.419Z</time></trkpt><trkpt lat="47.18265031666666" lon="11.412726366666668"><ele>962.0</ele><time>2026-05-01T14:10:26.427Z</time></trkpt><trkpt lat="47.18280176666667" lon="11.412527666666666"><ele>962.0</ele><time>2026-05-01T14:10:27.41Z</time></trkpt><trkpt lat="47.18295281666666" lon="11.412338783333334"><ele>962.0</ele><time>2026-05-01T14:10:28.419Z</time></trkpt><trkpt lat="47.18309991666666" lon="11.412159183333332"><ele>962.0</ele><time>2026-05-01T14:10:29.425Z</time></trkpt><trkpt lat="47.18323959999999" lon="11.411980666666667"><ele>962.0</ele><time>2026-05-01T14:10:30.429Z</time></trkpt><trkpt lat="47.18337348333333" lon="11.411805666666666"><ele>961.0</ele><time>2026-05-01T14:10:31.419Z</time></trkpt><trkpt lat="47.18350675" lon="11.411639116666667"><ele>960.0</ele><time>2026-05-01T14:10:32.429Z</time></trkpt><trkpt lat="47.18364608333333" lon="11.411489216666666"><ele>959.0</ele><time>2026-05-01T14:10:33.43Z</time></trkpt><trkpt lat="47.1838047" lon="11.411369400000002"><ele>955.0</ele><time>2026-05-01T14:10:34.421Z</time></trkpt><trkpt lat="47.18416345" lon="11.41118895"><ele>951.0</ele><time>2026-05-01T14:10:36.423Z</time></trkpt><trkpt lat="47.184333233333334" lon="11.411100900000001"><ele>951.0</ele><time>2026-05-01T14:10:37.419Z</time></trkpt><trkpt lat="47.1844889" lon="11.411018933333331"><ele>951.0</ele><time>2026-05-01T14:10:38.425Z</time></trkpt><trkpt lat="47.184626916666666" lon="11.410956916666665"><ele>951.0</ele><time>2026-05-01T14:10:39.426Z</time></trkpt><trkpt lat="47.18475261666667" lon="11.410928816666667"><ele>951.0</ele><time>2026-05-01T14:10:40.422Z</time></trkpt><trkpt lat="47.18486816666667" lon="11.410950933333334"><ele>950.25</ele><time>2026-05-01T14:10:41.425Z</time></trkpt><trkpt lat="47.184962931295864" lon="11.411055619272362"><ele>949.5</ele><time>2026-05-01T14:10:42.405Z</time></trkpt><trkpt lat="47.185042876928875" lon="11.411193394534116"><ele>948.75</ele><time>2026-05-01T14:10:43.419Z</time></trkpt><trkpt lat="47.185137499774456" lon="11.411349014047207"><ele>948.0</ele><time>2026-05-01T14:10:44.424Z</time></trkpt><trkpt lat="47.18524834673535" lon="11.41147446599441"><ele>945.25</ele><time>2026-05-01T14:10:45.421Z</time></trkpt><trkpt lat="47.18537983149189" lon="11.411553125674821"><ele>942.5</ele><time>2026-05-01T14:10:46.419Z</time></trkpt><trkpt lat="47.18551891666666" lon="11.411550483333334"><ele>939.75</ele><time>2026-05-01T14:10:47.425Z</time></trkpt><trkpt lat="47.18565173333333" lon="11.411518166666667"><ele>937.0</ele><time>2026-05-01T14:10:48.426Z</time></trkpt><trkpt lat="47.185776066666655" lon="11.411419216666664"><ele>942.0</ele><time>2026-05-01T14:10:49.421Z</time></trkpt><trkpt lat="47.18589543333333" lon="11.411274183333335"><ele>947.0</ele><time>2026-05-01T14:10:50.426Z</time></trkpt><trkpt lat="47.18601506666667" lon="11.411128866666665"><ele>952.0</ele><time>2026-05-01T14:10:51.429Z</time></trkpt><trkpt lat="47.1861338" lon="11.411022716666666"><ele>957.0</ele><time>2026-05-01T14:10:52.421Z</time></trkpt><trkpt lat="47.18625258173292" lon="11.411011041683198"><ele>957.0</ele><time>2026-05-01T14:10:53.427Z</time></trkpt><trkpt lat="47.18635447938081" lon="11.41106004892784"><ele>957.0</ele><time>2026-05-01T14:10:54.41Z</time></trkpt><trkpt lat="47.186448707917606" lon="11.411163832374076"><ele>957.0</ele><time>2026-05-01T14:10:55.419Z</time></trkpt><trkpt lat="47.18651501597403" lon="11.41134232042389"><ele>957.0</ele><time>2026-05-01T14:10:56.425Z</time></trkpt><trkpt lat="47.18657159706185" lon="11.411571806438484"><ele>952.3333333333333</ele><time>2026-05-01T14:10:57.407Z</time></trkpt><trkpt lat="47.18662903855201" lon="11.411805259010581"><ele>947.6666666666666</ele><time>2026-05-01T14:10:58.42Z</time></trkpt><trkpt lat="47.1866867862272" lon="11.412019654396534"><ele>943.0</ele><time>2026-05-01T14:10:59.422Z</time></trkpt><trkpt lat="47.18678205092064" lon="11.412183077232486"><ele>935.3333333333333</ele><time>2026-05-01T14:11:00.426Z</time></trkpt><trkpt lat="47.18691420328121" lon="11.412280128934217"><ele>927.6666666666667</ele><time>2026-05-01T14:11:01.418Z</time></trkpt><trkpt lat="47.1870602596926" lon="11.412346218711399"><ele>920.0</ele><time>2026-05-01T14:11:02.428Z</time></trkpt><trkpt lat="47.187205515414014" lon="11.41240946197607"><ele>920.0</ele><time>2026-05-01T14:11:03.408Z</time></trkpt><trkpt lat="47.18734255" lon="11.412462066666667"><ele>920.0</ele><time>2026-05-01T14:11:04.422Z</time></trkpt><trkpt lat="47.18743337077202" lon="11.412600495758136"><ele>920.0</ele><time>2026-05-01T14:11:05.424Z</time></trkpt><trkpt lat="47.18748666064135" lon="11.412747925153854"><ele>920.0</ele><time>2026-05-01T14:11:06.406Z</time></trkpt><trkpt lat="47.18749062640276" lon="11.41290787708485"><ele>922.25</ele><time>2026-05-01T14:11:07.421Z</time></trkpt><trkpt lat="47.18744895614732" lon="11.41308022944555"><ele>924.5</ele><time>2026-05-01T14:11:08.407Z</time></trkpt><trkpt lat="47.187384640865176" lon="11.413277091264845"><ele>926.75</ele><time>2026-05-01T14:11:09.425Z</time></trkpt><trkpt lat="47.187338488222245" lon="11.413508099106116"><ele>929.0</ele><time>2026-05-01T14:11:10.42Z</time></trkpt><trkpt lat="47.187339469160456" lon="11.413734366596131"><ele>926.6666666666667</ele><time>2026-05-01T14:11:11.423Z</time></trkpt><trkpt lat="47.18739092020481" lon="11.41394685714528"><ele>924.3333333333333</ele><time>2026-05-01T14:11:12.407Z</time></trkpt><trkpt lat="47.187478281082925" lon="11.414121871512995"><ele>922.0</ele><time>2026-05-01T14:11:13.42Z</time></trkpt><trkpt lat="47.18760455391101" lon="11.414238909150168"><ele>922.0</ele><time>2026-05-01T14:11:14.424Z</time></trkpt><trkpt lat="47.18775735" lon="11.414275083333333"><ele>922.0</ele><time>2026-05-01T14:11:15.406Z</time></trkpt><trkpt lat="47.18789664999999" lon="11.414351166666666"><ele>922.0</ele><time>2026-05-01T14:11:16.419Z</time></trkpt><trkpt lat="47.18801106666667" lon="11.414465983333333"><ele>922.0</ele><time>2026-05-01T14:11:17.427Z</time></trkpt><trkpt lat="47.18808838333333" lon="11.4146347"><ele>915.3333333333333</ele><time>2026-05-01T14:11:18.429Z</time></trkpt><trkpt lat="47.18810252134047" lon="11.4148526323462"><ele>908.6666666666667</ele><time>2026-05-01T14:11:19.419Z</time></trkpt><trkpt lat="47.18810870724207" lon="11.415093427013032"><ele>902.0</ele><time>2026-05-01T14:11:20.425Z</time></trkpt><trkpt lat="47.18815500177642" lon="11.415343573051546"><ele>907.0</ele><time>2026-05-01T14:11:21.42Z</time></trkpt><trkpt lat="47.18824362679598" lon="11.41556624285748"><ele>912.0</ele><time>2026-05-01T14:11:22.421Z</time></trkpt><trkpt lat="47.1883623" lon="11.415756"><ele>917.0</ele><time>2026-05-01T14:11:23.423Z</time></trkpt><trkpt lat="47.18846656666666" lon="11.415939066666665"><ele>917.0</ele><time>2026-05-01T14:11:24.426Z</time></trkpt><trkpt lat="47.18856658333333" lon="11.416107533333332"><ele>917.0</ele><time>2026-05-01T14:11:25.418Z</time></trkpt><trkpt lat="47.188668400000005" lon="11.416255883333335"><ele>917.0</ele><time>2026-05-01T14:11:26.427Z</time></trkpt><trkpt lat="47.18878411666666" lon="11.416344533333332"><ele>917.0</ele><time>2026-05-01T14:11:27.431Z</time></trkpt><trkpt lat="47.18890765" lon="11.416364716666665"><ele>916.75</ele><time>2026-05-01T14:11:28.42Z</time></trkpt><trkpt lat="47.18902421666667" lon="11.416309983333333"><ele>916.5</ele><time>2026-05-01T14:11:29.423Z</time></trkpt><trkpt lat="47.18911918333333" lon="11.416181749999998"><ele>916.25</ele><time>2026-05-01T14:11:30.426Z</time></trkpt><trkpt lat="47.189180666666665" lon="11.416004850000002"><ele>916.0</ele><time>2026-05-01T14:11:31.418Z</time></trkpt><trkpt lat="47.18921701666666" lon="11.41579"><ele>916.0</ele><time>2026-05-01T14:11:32.429Z</time></trkpt><trkpt lat="47.18926021666666" lon="11.415576483333332"><ele>916.0</ele><time>2026-05-01T14:11:33.429Z</time></trkpt><trkpt lat="47.189328133333326" lon="11.41536605"><ele>916.0</ele><time>2026-05-01T14:11:34.421Z</time></trkpt><trkpt lat="47.189420999999996" lon="11.415174483333331"><ele>922.3333333333333</ele><time>2026-05-01T14:11:35.418Z</time></trkpt><trkpt lat="47.18953601666667" lon="11.415021316666666"><ele>928.6666666666667</ele><time>2026-05-01T14:11:36.426Z</time></trkpt><trkpt lat="47.18966635" lon="11.414912166666666"><ele>935.0</ele><time>2026-05-01T14:11:37.425Z</time></trkpt><trkpt lat="47.18980481666667" lon="11.414826783333334"><ele>928.0</ele><time>2026-05-01T14:11:38.425Z</time></trkpt><trkpt lat="47.189931949999995" lon="11.414712633333332"><ele>921.0</ele><time>2026-05-01T14:11:39.406Z</time></trkpt><trkpt lat="47.19002913333333" lon="11.414547249999998"><ele>914.0</ele><time>2026-05-01T14:11:40.412Z</time></trkpt><trkpt lat="47.19008815" lon="11.414344216666667"><ele>907.0</ele><time>2026-05-01T14:11:41.425Z</time></trkpt><trkpt lat="47.19010658333333" lon="11.414140049999999"><ele>907.0</ele><time>2026-05-01T14:11:42.407Z</time></trkpt><trkpt lat="47.19007580000001" lon="11.413945466666666"><ele>907.0</ele><time>2026-05-01T14:11:43.42Z</time></trkpt><trkpt lat="47.189998100000004" lon="11.413773283333333"><ele>907.0</ele><time>2026-05-01T14:11:44.426Z</time></trkpt><trkpt lat="47.1898825" lon="11.413633933333331"><ele>907.0</ele><time>2026-05-01T14:11:45.43Z</time></trkpt><trkpt lat="47.18974688333333" lon="11.413510233333334"><ele>908.0</ele><time>2026-05-01T14:11:46.42Z</time></trkpt><trkpt lat="47.18961049999999" lon="11.413388783333335"><ele>909.0</ele><time>2026-05-01T14:11:47.428Z</time></trkpt><trkpt lat="47.189482733333335" lon="11.413267366666666"><ele>910.0</ele><time>2026-05-01T14:11:48.408Z</time></trkpt><trkpt lat="47.18935580000001" lon="11.413141733333335"><ele>910.0</ele><time>2026-05-01T14:11:49.426Z</time></trkpt><trkpt lat="47.189246149999995" lon="11.413011766666667"><ele>910.0</ele><time>2026-05-01T14:11:50.425Z</time></trkpt><trkpt lat="47.189167399999995" lon="11.412850383333334"><ele>910.0</ele><time>2026-05-01T14:11:51.43Z</time></trkpt><trkpt lat="47.18911873333333" lon="11.4126539"><ele>910.0</ele><time>2026-05-01T14:11:52.422Z</time></trkpt><trkpt lat="47.189090500000006" lon="11.412448316666667"><ele>911.5</ele><time>2026-05-01T14:11:53.406Z</time></trkpt><trkpt lat="47.18910156666667" lon="11.4122475"><ele>913.0</ele><time>2026-05-01T14:11:54.429Z</time></trkpt><trkpt lat="47.18914961666666" lon="11.412067449999999"><ele>914.5</ele><time>2026-05-01T14:11:55.419Z</time></trkpt><trkpt lat="47.189225366666676" lon="11.411929916666669"><ele>916.0</ele><time>2026-05-01T14:11:56.427Z</time></trkpt><trkpt lat="47.1893381" lon="11.411836433333333"><ele>916.0</ele><time>2026-05-01T14:11:57.408Z</time></trkpt><trkpt lat="47.18947273333333" lon="11.411772966666668"><ele>916.0</ele><time>2026-05-01T14:11:58.427Z</time></trkpt><trkpt lat="47.189615800000006" lon="11.411713283333333"><ele>916.0</ele><time>2026-05-01T14:11:59.425Z</time></trkpt><trkpt lat="47.18975425" lon="11.411656616666669"><ele>916.0</ele><time>2026-05-01T14:12:00.426Z</time></trkpt><trkpt lat="47.189882616666665" lon="11.411603833333334"><ele>910.0</ele><time>2026-05-01T14:12:01.42Z</time></trkpt><trkpt lat="47.190003716666666" lon="11.411554666666666"><ele>904.0</ele><time>2026-05-01T14:12:02.428Z</time></trkpt><trkpt lat="47.190120150000006" lon="11.411508800000002"><ele>898.0</ele><time>2026-05-01T14:12:03.425Z</time></trkpt><trkpt lat="47.19023046666666" lon="11.411464333333333"><ele>892.0</ele><time>2026-05-01T14:12:04.42Z</time></trkpt><trkpt lat="47.19033126666667" lon="11.411416716666666"><ele>892.0</ele><time>2026-05-01T14:12:05.424Z</time></trkpt><trkpt lat="47.19041786666667" lon="11.411337283333333"><ele>892.0</ele><time>2026-05-01T14:12:06.43Z</time></trkpt><trkpt lat="47.19048125" lon="11.411212049999998"><ele>892.0</ele><time>2026-05-01T14:12:07.426Z</time></trkpt><trkpt lat="47.19050860000001" lon="11.411052583333332"><ele>892.0</ele><time>2026-05-01T14:12:08.424Z</time></trkpt><trkpt lat="47.190489616666675" lon="11.41087655"><ele>892.0</ele><time>2026-05-01T14:12:09.425Z</time></trkpt><trkpt lat="47.19043191666666" lon="11.410681066666665"><ele>895.6666666666666</ele><time>2026-05-01T14:12:10.42Z</time></trkpt><trkpt lat="47.19036266666667" lon="11.41045245"><ele>899.3333333333333</ele><time>2026-05-01T14:12:11.426Z</time></trkpt><trkpt lat="47.19030500000001" lon="11.410216666666669"><ele>903.0</ele><time>2026-05-01T14:12:12.422Z</time></trkpt><trkpt lat="47.190275683333326" lon="11.409996300000001"><ele>903.0</ele><time>2026-05-01T14:12:13.42Z</time></trkpt><trkpt lat="47.19028788333333" lon="11.409793016666667"><ele>903.0</ele><time>2026-05-01T14:12:14.425Z</time></trkpt><trkpt lat="47.19034279999999" lon="11.409627483333333"><ele>903.0</ele><time>2026-05-01T14:12:15.426Z</time></trkpt><trkpt lat="47.190435883333336" lon="11.4095156"><ele>903.0</ele><time>2026-05-01T14:12:16.421Z</time></trkpt><trkpt lat="47.19056465" lon="11.409456550000002"><ele>900.0</ele><time>2026-05-01T14:12:17.425Z</time></trkpt><trkpt lat="47.19071949999999" lon="11.409425483333333"><ele>897.0</ele><time>2026-05-01T14:12:18.426Z</time></trkpt><trkpt lat="47.19088473333333" lon="11.409397550000003"><ele>894.0</ele><time>2026-05-01T14:12:19.419Z</time></trkpt><trkpt lat="47.19103793333334" lon="11.409367183333332"><ele>894.0</ele><time>2026-05-01T14:12:20.425Z</time></trkpt><trkpt lat="47.19116666666667" lon="11.409312216666669"><ele>894.0</ele><time>2026-05-01T14:12:21.422Z</time></trkpt><trkpt lat="47.19126575000001" lon="11.409217033333334"><ele>894.0</ele><time>2026-05-01T14:12:22.422Z</time></trkpt><trkpt lat="47.19132218333332" lon="11.409067666666665"><ele>894.0</ele><time>2026-05-01T14:12:23.426Z</time></trkpt><trkpt lat="47.19133910000001" lon="11.408863616666668"><ele>901.0</ele><time>2026-05-01T14:12:24.426Z</time></trkpt><trkpt lat="47.191345299999995" lon="11.408631949999998"><ele>908.0</ele><time>2026-05-01T14:12:25.418Z</time></trkpt><trkpt lat="47.19135124999999" lon="11.408395933333335"><ele>915.0</ele><time>2026-05-01T14:12:26.428Z</time></trkpt><trkpt lat="47.19136353333334" lon="11.408173216666667"><ele>916.0</ele><time>2026-05-01T14:12:27.431Z</time></trkpt><trkpt lat="47.191415983333336" lon="11.407985049999999"><ele>917.0</ele><time>2026-05-01T14:12:28.42Z</time></trkpt><trkpt lat="47.19151531666666" lon="11.407845983333335"><ele>918.0</ele><time>2026-05-01T14:12:29.424Z</time></trkpt><trkpt lat="47.191652383333334" lon="11.407763966666668"><ele>919.0</ele><time>2026-05-01T14:12:30.421Z</time></trkpt><trkpt lat="47.19182011666666" lon="11.40773096666667"><ele>911.6666666666666</ele><time>2026-05-01T14:12:31.418Z</time></trkpt><trkpt lat="47.192003449999994" lon="11.407712"><ele>904.3333333333333</ele><time>2026-05-01T14:12:32.408Z</time></trkpt><trkpt lat="47.19218813333334" lon="11.407699066666664"><ele>897.0</ele><time>2026-05-01T14:12:33.408Z</time></trkpt><trkpt lat="47.192350133333335" lon="11.407686633333332"><ele>892.5</ele><time>2026-05-01T14:12:34.423Z</time></trkpt><trkpt lat="47.19248843333333" lon="11.407651549999999"><ele>888.0</ele><time>2026-05-01T14:12:35.413Z</time></trkpt><trkpt lat="47.19260081666666" lon="11.407572066666667"><ele>883.5</ele><time>2026-05-01T14:12:36.427Z</time></trkpt><trkpt lat="47.19270154999999" lon="11.407436299999999"><ele>879.0</ele><time>2026-05-01T14:12:37.421Z</time></trkpt><trkpt lat="47.19279811666667" lon="11.407263583333334"><ele>875.5</ele><time>2026-05-01T14:12:38.425Z</time></trkpt><trkpt lat="47.19289505" lon="11.407088216666667"><ele>872.0</ele><time>2026-05-01T14:12:39.413Z</time></trkpt><trkpt lat="47.19300243333334" lon="11.406943"><ele>868.5</ele><time>2026-05-01T14:12:40.422Z</time></trkpt><trkpt lat="47.19312193333334" lon="11.406841283333332"><ele>865.0</ele><time>2026-05-01T14:12:41.407Z</time></trkpt><trkpt lat="47.19324735" lon="11.406770766666666"><ele>865.0</ele><time>2026-05-01T14:12:42.407Z</time></trkpt><trkpt lat="47.193361016666664" lon="11.40669315"><ele>865.0</ele><time>2026-05-01T14:12:43.419Z</time></trkpt><trkpt lat="47.193460566666666" lon="11.406566750000001"><ele>865.0</ele><time>2026-05-01T14:12:44.435Z</time></trkpt><trkpt lat="47.19352813333334" lon="11.406387083333334"><ele>865.0</ele><time>2026-05-01T14:12:45.426Z</time></trkpt><trkpt lat="47.19355668333333" lon="11.406176983333335"><ele>871.0</ele><time>2026-05-01T14:12:46.42Z</time></trkpt><trkpt lat="47.193571649999996" lon="11.405950983333332"><ele>877.0</ele><time>2026-05-01T14:12:47.427Z</time></trkpt><trkpt lat="47.19359183333332" lon="11.405720033333333"><ele>883.0</ele><time>2026-05-01T14:12:48.406Z</time></trkpt><trkpt lat="47.19362246666666" lon="11.405485466666669"><ele>887.3333333333333</ele><time>2026-05-01T14:12:49.419Z</time></trkpt><trkpt lat="47.19368349999999" lon="11.405272466666668"><ele>891.6666666666667</ele><time>2026-05-01T14:12:50.426Z</time></trkpt><trkpt lat="47.19377743333333" lon="11.405103166666668"><ele>896.0</ele><time>2026-05-01T14:12:51.406Z</time></trkpt><trkpt lat="47.19390068333334" lon="11.404984183333333"><ele>883.0</ele><time>2026-05-01T14:12:52.419Z</time></trkpt><trkpt lat="47.1940461" lon="11.404902733333333"><ele>870.0</ele><time>2026-05-01T14:12:53.413Z</time></trkpt><trkpt lat="47.19418918333334" lon="11.404827916666667"><ele>857.0</ele><time>2026-05-01T14:12:54.426Z</time></trkpt><trkpt lat="47.19431633333333" lon="11.404719933333334"><ele>864.3333333333334</ele><time>2026-05-01T14:12:55.418Z</time></trkpt><trkpt lat="47.194433366666665" lon="11.404565383333333"><ele>871.6666666666667</ele><time>2026-05-01T14:12:56.425Z</time></trkpt><trkpt lat="47.19453621666667" lon="11.404394533333333"><ele>879.0</ele><time>2026-05-01T14:12:57.428Z</time></trkpt><trkpt lat="47.194633149999994" lon="11.4042355"><ele>879.0</ele><time>2026-05-01T14:12:58.42Z</time></trkpt><trkpt lat="47.194721200000004" lon="11.40408405"><ele>879.0</ele><time>2026-05-01T14:12:59.425Z</time></trkpt><trkpt lat="47.19478273333334" lon="11.403925816666666"><ele>879.0</ele><time>2026-05-01T14:13:00.427Z</time></trkpt><trkpt lat="47.19479843333334" lon="11.403759449999999"><ele>879.0</ele><time>2026-05-01T14:13:01.419Z</time></trkpt><trkpt lat="47.19477892423611" lon="11.403576634570035"><ele>877.3333333333333</ele><time>2026-05-01T14:13:02.427Z</time></trkpt><trkpt lat="47.1946925416737" lon="11.403401014665523"><ele>875.6666666666666</ele><time>2026-05-01T14:13:03.425Z</time></trkpt><trkpt lat="47.19456751443829" lon="11.40325518174952"><ele>874.0</ele><time>2026-05-01T14:13:04.421Z</time></trkpt><trkpt lat="47.194414783333336" lon="11.403119116666668"><ele>871.3333333333333</ele><time>2026-05-01T14:13:05.424Z</time></trkpt><trkpt lat="47.194260433333326" lon="11.402947549999999"><ele>868.6666666666667</ele><time>2026-05-01T14:13:06.421Z</time></trkpt><trkpt lat="47.19410048333334" lon="11.402775350000002"><ele>866.0</ele><time>2026-05-01T14:13:07.421Z</time></trkpt><trkpt lat="47.19394663333334" lon="11.40260665"><ele>866.0</ele><time>2026-05-01T14:13:08.425Z</time></trkpt><trkpt lat="47.19380376666666" lon="11.402453116666667"><ele>866.0</ele><time>2026-05-01T14:13:09.407Z</time></trkpt><trkpt lat="47.19366193333334" lon="11.402313483333334"><ele>866.0</ele><time>2026-05-01T14:13:10.42Z</time></trkpt><trkpt lat="47.19352896666666" lon="11.402175150000001"><ele>862.75</ele><time>2026-05-01T14:13:11.42Z</time></trkpt><trkpt lat="47.19341691666667" lon="11.402030116666667"><ele>859.5</ele><time>2026-05-01T14:13:12.43Z</time></trkpt><trkpt lat="47.19333116666667" lon="11.401858299999999"><ele>856.25</ele><time>2026-05-01T14:13:13.421Z</time></trkpt><trkpt lat="47.19329041666666" lon="11.401653733333335"><ele>853.0</ele><time>2026-05-01T14:13:14.425Z</time></trkpt><trkpt lat="47.19330508333334" lon="11.401439016666666"><ele>856.3333333333333</ele><time>2026-05-01T14:13:15.406Z</time></trkpt><trkpt lat="47.19337158333333" lon="11.401238633333334"><ele>859.6666666666667</ele><time>2026-05-01T14:13:16.413Z</time></trkpt><trkpt lat="47.19347323333333" lon="11.401059016666666"><ele>863.0</ele><time>2026-05-01T14:13:17.43Z</time></trkpt><trkpt lat="47.19359553333334" lon="11.400907966666667"><ele>863.0</ele><time>2026-05-01T14:13:18.427Z</time></trkpt><trkpt lat="47.19372934999999" lon="11.4007965"><ele>863.0</ele><time>2026-05-01T14:13:19.42Z</time></trkpt><trkpt lat="47.19387475" lon="11.4007409"><ele>863.0</ele><time>2026-05-01T14:13:20.409Z</time></trkpt><trkpt lat="47.19402743333333" lon="11.4007488"><ele>858.0</ele><time>2026-05-01T14:13:21.427Z</time></trkpt><trkpt lat="47.1941786" lon="11.40082175"><ele>853.0</ele><time>2026-05-01T14:13:22.422Z</time></trkpt><trkpt lat="47.194315678684646" lon="11.400961965027703"><ele>848.0</ele><time>2026-05-01T14:13:23.426Z</time></trkpt><trkpt lat="47.19447223333333" lon="11.401074600000001"><ele>848.0</ele><time>2026-05-01T14:13:24.408Z</time></trkpt><trkpt lat="47.194615649490395" lon="11.40122076120566"><ele>848.0</ele><time>2026-05-01T14:13:25.42Z</time></trkpt><trkpt lat="47.1947739704523" lon="11.401340798125752"><ele>848.0</ele><time>2026-05-01T14:13:26.425Z</time></trkpt><trkpt lat="47.19494590799429" lon="11.401428328230278"><ele>841.6666666666667</ele><time>2026-05-01T14:13:27.432Z</time></trkpt><trkpt lat="47.19512213882372" lon="11.401486496233149"><ele>835.3333333333333</ele><time>2026-05-01T14:13:28.421Z</time></trkpt><trkpt lat="47.19530512707883" lon="11.401540002252304"><ele>829.0</ele><time>2026-05-01T14:13:29.406Z</time></trkpt><trkpt lat="47.19549191666667" lon="11.401576733333332"><ele>829.3333333333333</ele><time>2026-05-01T14:13:30.407Z</time></trkpt><trkpt lat="47.19567193333334" lon="11.40164"><ele>829.6666666666667</ele><time>2026-05-01T14:13:31.421Z</time></trkpt><trkpt lat="47.19584596666667" lon="11.401676333333334"><ele>830.0</ele><time>2026-05-01T14:13:32.428Z</time></trkpt><trkpt lat="47.19601113333333" lon="11.40167265"><ele>830.0</ele><time>2026-05-01T14:13:33.409Z</time></trkpt><trkpt lat="47.19615986666666" lon="11.401645483333334"><ele>830.0</ele><time>2026-05-01T14:13:34.427Z</time></trkpt><trkpt lat="47.196289300000004" lon="11.401588066666667"><ele>830.0</ele><time>2026-05-01T14:13:35.424Z</time></trkpt><trkpt lat="47.19639560000001" lon="11.401484850000001"><ele>830.0</ele><time>2026-05-01T14:13:36.426Z</time></trkpt><trkpt lat="47.19647504999999" lon="11.401329016666667"><ele>832.0</ele><time>2026-05-01T14:13:37.422Z</time></trkpt><trkpt lat="47.196532383333334" lon="11.401145666666665"><ele>834.0</ele><time>2026-05-01T14:13:38.428Z</time></trkpt><trkpt lat="47.19659204999999" lon="11.400971716666668"><ele>836.0</ele><time>2026-05-01T14:13:39.412Z</time></trkpt><trkpt lat="47.1966703" lon="11.40083975"><ele>838.0</ele><time>2026-05-01T14:13:40.42Z</time></trkpt><trkpt lat="47.196775566666666" lon="11.400785016666669"><ele>838.0</ele><time>2026-05-01T14:13:41.424Z</time></trkpt><trkpt lat="47.19690179999999" lon="11.400795883333334"><ele>838.0</ele><time>2026-05-01T14:13:42.43Z</time></trkpt><trkpt lat="47.197030581659234" lon="11.400870568143977"><ele>838.0</ele><time>2026-05-01T14:13:43.417Z</time></trkpt><trkpt lat="47.197165983012326" lon="11.400903070543157"><ele>838.0</ele><time>2026-05-01T14:13:44.406Z</time></trkpt><trkpt lat="47.19729181253366" lon="11.400899628130352"><ele>837.4</ele><time>2026-05-01T14:13:45.429Z</time></trkpt><trkpt lat="47.19741380581309" lon="11.40088350887705"><ele>836.8</ele><time>2026-05-01T14:13:46.419Z</time></trkpt><trkpt lat="47.19752385626572" lon="11.400884575984703"><ele>836.2</ele><time>2026-05-01T14:13:47.407Z</time></trkpt><trkpt lat="47.19761630586863" lon="11.400936113270992"><ele>835.6</ele><time>2026-05-01T14:13:48.424Z</time></trkpt><trkpt lat="47.19769031524815" lon="11.401038394648662"><ele>835.0</ele><time>2026-05-01T14:13:49.42Z</time></trkpt><trkpt lat="47.19774640000001" lon="11.401182966666667"><ele>829.5</ele><time>2026-05-01T14:13:50.425Z</time></trkpt><trkpt lat="47.19773871666666" lon="11.401363783333332"><ele>824.0</ele><time>2026-05-01T14:13:51.427Z</time></trkpt><trkpt lat="47.197673076971896" lon="11.401538402613127"><ele>818.5</ele><time>2026-05-01T14:13:52.422Z</time></trkpt><trkpt lat="47.19761839298422" lon="11.401723084995918"><ele>813.0</ele><time>2026-05-01T14:13:53.425Z</time></trkpt><trkpt lat="47.197567254012505" lon="11.401901523561374"><ele>813.0</ele><time>2026-05-01T14:13:54.407Z</time></trkpt><trkpt lat="47.19754291147887" lon="11.402091184387611"><ele>813.0</ele><time>2026-05-01T14:13:55.42Z</time></trkpt><trkpt lat="47.1975835582354" lon="11.402269979066132"><ele>813.0</ele><time>2026-05-01T14:13:56.425Z</time></trkpt><trkpt lat="47.197677056224606" lon="11.402405850406824"><ele>813.0</ele><time>2026-05-01T14:13:57.438Z</time></trkpt><trkpt lat="47.19778595127832" lon="11.402530451927902"><ele>814.75</ele><time>2026-05-01T14:13:58.419Z</time></trkpt><trkpt lat="47.19789612340135" lon="11.402654583622509"><ele>816.5</ele><time>2026-05-01T14:13:59.423Z</time></trkpt><trkpt lat="47.198003033506275" lon="11.402768846417656"><ele>818.25</ele><time>2026-05-01T14:14:00.438Z</time></trkpt><trkpt lat="47.19813022325612" lon="11.40282877674015"><ele>820.0</ele><time>2026-05-01T14:14:01.42Z</time></trkpt><trkpt lat="47.19826669737308" lon="11.402795362866794"><ele>820.0</ele><time>2026-05-01T14:14:02.427Z</time></trkpt><trkpt lat="47.198410245305894" lon="11.402749512741437"><ele>820.0</ele><time>2026-05-01T14:14:03.407Z</time></trkpt><trkpt lat="47.19857475018782" lon="11.402696968822024"><ele>820.0</ele><time>2026-05-01T14:14:04.419Z</time></trkpt><trkpt lat="47.19875106666667" lon="11.402616133333334"><ele>820.0</ele><time>2026-05-01T14:14:05.425Z</time></trkpt><trkpt lat="47.19894811666666" lon="11.402560116666665"><ele>820.0</ele><time>2026-05-01T14:14:06.41Z</time></trkpt><trkpt lat="47.199161816666674" lon="11.402495866666667"><ele>820.0</ele><time>2026-05-01T14:14:07.42Z</time></trkpt><trkpt lat="47.19938278333334" lon="11.402424783333334"><ele>817.6666666666666</ele><time>2026-05-01T14:14:08.423Z</time></trkpt><trkpt lat="47.19959973333333" lon="11.402360866666667"><ele>815.3333333333333</ele><time>2026-05-01T14:14:09.404Z</time></trkpt><trkpt lat="47.19980016666667" lon="11.402302283333333"><ele>813.0</ele><time>2026-05-01T14:14:10.42Z</time></trkpt><trkpt lat="47.19997111666666" lon="11.402246566666667"><ele>817.0</ele><time>2026-05-01T14:14:11.42Z</time></trkpt><trkpt lat="47.20012066666666" lon="11.402185983333334"><ele>821.0</ele><time>2026-05-01T14:14:12.406Z</time></trkpt><trkpt lat="47.200249533333334" lon="11.402090566666669"><ele>825.0</ele><time>2026-05-01T14:14:13.42Z</time></trkpt><trkpt lat="47.20034911666667" lon="11.401937366666667"><ele>829.0</ele><time>2026-05-01T14:14:14.422Z</time></trkpt><trkpt lat="47.20042870000001" lon="11.401743616666664"><ele>829.0</ele><time>2026-05-01T14:14:15.409Z</time></trkpt><trkpt lat="47.20050651666667" lon="11.401544966666664"><ele>829.0</ele><time>2026-05-01T14:14:16.419Z</time></trkpt><trkpt lat="47.200578216666656" lon="11.401352183333334"><ele>829.0</ele><time>2026-05-01T14:14:17.427Z</time></trkpt><trkpt lat="47.20064631666667" lon="11.401161816666669"><ele>827.5</ele><time>2026-05-01T14:14:18.409Z</time></trkpt><trkpt lat="47.200689566666675" lon="11.40097315"><ele>826.0</ele><time>2026-05-01T14:14:19.42Z</time></trkpt><trkpt lat="47.20068831666667" lon="11.400772383333333"><ele>824.5</ele><time>2026-05-01T14:14:20.407Z</time></trkpt><trkpt lat="47.20066165" lon="11.400574700000002"><ele>823.0</ele><time>2026-05-01T14:14:21.437Z</time></trkpt><trkpt lat="47.20064816666667" lon="11.400377666666667"><ele>815.25</ele><time>2026-05-01T14:14:22.419Z</time></trkpt><trkpt lat="47.200662433333335" lon="11.400176400000003"><ele>807.5</ele><time>2026-05-01T14:14:23.407Z</time></trkpt><trkpt lat="47.20067483333334" lon="11.399962733333332"><ele>799.75</ele><time>2026-05-01T14:14:24.406Z</time></trkpt><trkpt lat="47.2006725" lon="11.399731883333335"><ele>792.0</ele><time>2026-05-01T14:14:25.425Z</time></trkpt><trkpt lat="47.200680383333335" lon="11.399488583333333"><ele>792.0</ele><time>2026-05-01T14:14:26.425Z</time></trkpt><trkpt lat="47.20072063333334" lon="11.399249583333335"><ele>792.0</ele><time>2026-05-01T14:14:27.406Z</time></trkpt><trkpt lat="47.200778850000006" lon="11.39902545"><ele>792.0</ele><time>2026-05-01T14:14:28.42Z</time></trkpt><trkpt lat="47.200828433333335" lon="11.3988081"><ele>796.5</ele><time>2026-05-01T14:14:29.426Z</time></trkpt><trkpt lat="47.20085654999999" lon="11.39859245"><ele>801.0</ele><time>2026-05-01T14:14:30.406Z</time></trkpt><trkpt lat="47.20088691666667" lon="11.398386583333334"><ele>805.5</ele><time>2026-05-01T14:14:31.42Z</time></trkpt><trkpt lat="47.20094416666667" lon="11.398198483333333"><ele>810.0</ele><time>2026-05-01T14:14:32.427Z</time></trkpt><trkpt lat="47.201039333333334" lon="11.398035366666667"><ele>818.0</ele><time>2026-05-01T14:14:33.438Z</time></trkpt><trkpt lat="47.20116656666668" lon="11.397902166666665"><ele>826.0</ele><time>2026-05-01T14:14:34.42Z</time></trkpt><trkpt lat="47.20130186666667" lon="11.397787966666666"><ele>834.0</ele><time>2026-05-01T14:14:35.423Z</time></trkpt><trkpt lat="47.201420133333336" lon="11.3976662"><ele>830.25</ele><time>2026-05-01T14:14:36.439Z</time></trkpt><trkpt lat="47.20150731666666" lon="11.397509766666667"><ele>826.5</ele><time>2026-05-01T14:14:37.421Z</time></trkpt><trkpt lat="47.201578149999996" lon="11.397339700000002"><ele>822.75</ele><time>2026-05-01T14:14:38.428Z</time></trkpt><trkpt lat="47.201663350000004" lon="11.397201866666668"><ele>819.0</ele><time>2026-05-01T14:14:39.438Z</time></trkpt><trkpt lat="47.20177329999999" lon="11.397127016666664"><ele>819.0</ele><time>2026-05-01T14:14:40.42Z</time></trkpt><trkpt lat="47.2019025" lon="11.3971232"><ele>819.0</ele><time>2026-05-01T14:14:41.425Z</time></trkpt><trkpt lat="47.202048016666666" lon="11.39715605"><ele>819.0</ele><time>2026-05-01T14:14:42.447Z</time></trkpt><trkpt lat="47.20221218333333" lon="11.397157566666666"><ele>819.0</ele><time>2026-05-01T14:14:43.421Z</time></trkpt><trkpt lat="47.20238988333334" lon="11.397116316666667"><ele>812.6666666666667</ele><time>2026-05-01T14:14:44.425Z</time></trkpt><trkpt lat="47.2025659" lon="11.397049250000002"><ele>806.3333333333334</ele><time>2026-05-01T14:14:45.438Z</time></trkpt><trkpt lat="47.202737549999995" lon="11.396976633333335"><ele>800.0</ele><time>2026-05-01T14:14:46.421Z</time></trkpt><trkpt lat="47.202911416666666" lon="11.396908216666668"><ele>800.0</ele><time>2026-05-01T14:14:47.418Z</time></trkpt><trkpt lat="47.203083050000004" lon="11.396848933333334"><ele>800.0</ele><time>2026-05-01T14:14:48.409Z</time></trkpt><trkpt lat="47.20325153333333" lon="11.396806699999997"><ele>800.0</ele><time>2026-05-01T14:14:49.421Z</time></trkpt><trkpt lat="47.20341563333333" lon="11.396817333333335"><ele>797.0</ele><time>2026-05-01T14:14:50.407Z</time></trkpt><trkpt lat="47.20357471666666" lon="11.396882249999999"><ele>794.0</ele><time>2026-05-01T14:14:51.407Z</time></trkpt><trkpt lat="47.203734147211996" lon="11.396984080464627"><ele>791.0</ele><time>2026-05-01T14:14:52.424Z</time></trkpt><trkpt lat="47.203913416666666" lon="11.397012266666666"><ele>791.3333333333334</ele><time>2026-05-01T14:14:53.425Z</time></trkpt><trkpt lat="47.204100783333324" lon="11.397034383333335"><ele>791.6666666666667</ele><time>2026-05-01T14:14:54.406Z</time></trkpt><trkpt lat="47.20428618333334" lon="11.397038183333333"><ele>792.0</ele><time>2026-05-01T14:14:55.42Z</time></trkpt><trkpt lat="47.204462220517584" lon="11.397028525956284"><ele>792.0</ele><time>2026-05-01T14:14:56.413Z</time></trkpt><trkpt lat="47.204618333333336" lon="11.396936033333336"><ele>792.0</ele><time>2026-05-01T14:14:57.406Z</time></trkpt><trkpt lat="47.204775133333335" lon="11.396865700000001"><ele>792.0</ele><time>2026-05-01T14:14:58.42Z</time></trkpt><trkpt lat="47.204931416666675" lon="11.396828850000002"><ele>794.6666666666667</ele><time>2026-05-01T14:14:59.424Z</time></trkpt><trkpt lat="47.20507532746077" lon="11.39690407252138"><ele>797.3333333333334</ele><time>2026-05-01T14:15:00.404Z</time></trkpt><trkpt lat="47.205223417723865" lon="11.397001633078501"><ele>800.0</ele><time>2026-05-01T14:15:01.413Z</time></trkpt><trkpt lat="47.20536730929749" lon="11.397104427551454"><ele>788.25</ele><time>2026-05-01T14:15:02.428Z</time></trkpt><trkpt lat="47.20549568664785" lon="11.397203871756876"><ele>776.5</ele><time>2026-05-01T14:15:03.406Z</time></trkpt><trkpt lat="47.20558974602301" lon="11.397342246790224"><ele>764.75</ele><time>2026-05-01T14:15:04.421Z</time></trkpt><trkpt lat="47.20564230499079" lon="11.397496119038928"><ele>753.0</ele><time>2026-05-01T14:15:05.427Z</time></trkpt><trkpt lat="47.20565386778306" lon="11.397684170775655"><ele>753.0</ele><time>2026-05-01T14:15:06.406Z</time></trkpt><trkpt lat="47.205635532639405" lon="11.39788651410204"><ele>753.0</ele><time>2026-05-01T14:15:07.423Z</time></trkpt><trkpt lat="47.20561604419605" lon="11.398074250682662"><ele>753.0</ele><time>2026-05-01T14:15:08.423Z</time></trkpt><trkpt lat="47.20564482629272" lon="11.398260422311699"><ele>753.0</ele><time>2026-05-01T14:15:09.438Z</time></trkpt><trkpt lat="47.20572628472279" lon="11.398379620698298"><ele>753.75</ele><time>2026-05-01T14:15:10.423Z</time></trkpt><trkpt lat="47.20583483026624" lon="11.398424805334571"><ele>754.5</ele><time>2026-05-01T14:15:11.425Z</time></trkpt><trkpt lat="47.20594998333333" lon="11.398414716666666"><ele>755.25</ele><time>2026-05-01T14:15:12.407Z</time></trkpt><trkpt lat="47.20608165" lon="11.398418266666665"><ele>756.0</ele><time>2026-05-01T14:15:13.421Z</time></trkpt><trkpt lat="47.206232799999995" lon="11.398418866666669"><ele>756.0</ele><time>2026-05-01T14:15:14.405Z</time></trkpt><trkpt lat="47.20640323333334" lon="11.3984197"><ele>756.0</ele><time>2026-05-01T14:15:15.451Z</time></trkpt><trkpt lat="47.20657705" lon="11.398431533333332"><ele>756.0</ele><time>2026-05-01T14:15:16.421Z</time></trkpt><trkpt lat="47.20674038333333" lon="11.39846875"><ele>759.0</ele><time>2026-05-01T14:15:17.428Z</time></trkpt><trkpt lat="47.20688715" lon="11.398550499999999"><ele>762.0</ele><time>2026-05-01T14:15:18.438Z</time></trkpt><trkpt lat="47.20700049504485" lon="11.39870305579745"><ele>765.0</ele><time>2026-05-01T14:15:19.425Z</time></trkpt><trkpt lat="47.207138381908564" lon="11.398785657346815"><ele>765.0</ele><time>2026-05-01T14:15:20.422Z</time></trkpt><trkpt lat="47.20728808333333" lon="11.39880591550419"><ele>765.0</ele><time>2026-05-01T14:15:21.437Z</time></trkpt><trkpt lat="47.20744153333333" lon="11.398758016666667"><ele>765.0</ele><time>2026-05-01T14:15:22.421Z</time></trkpt><trkpt lat="47.2076024" lon="11.398719266666667"><ele>768.0</ele><time>2026-05-01T14:15:23.423Z</time></trkpt><trkpt lat="47.20776803333333" lon="11.398673533333334"><ele>771.0</ele><time>2026-05-01T14:15:24.451Z</time></trkpt><trkpt lat="47.20793918333334" lon="11.398622733333331"><ele>774.0</ele><time>2026-05-01T14:15:25.428Z</time></trkpt><trkpt lat="47.20811635" lon="11.3985634"><ele>769.0</ele><time>2026-05-01T14:15:26.423Z</time></trkpt><trkpt lat="47.20829991666666" lon="11.398491233333335"><ele>764.0</ele><time>2026-05-01T14:15:27.407Z</time></trkpt><trkpt lat="47.20847701666666" lon="11.398413666666666"><ele>759.0</ele><time>2026-05-01T14:15:28.423Z</time></trkpt><trkpt lat="47.20864543333334" lon="11.398341049999999"><ele>759.0</ele><time>2026-05-01T14:15:29.422Z</time></trkpt><trkpt lat="47.20880271666666" lon="11.398269650000001"><ele>759.0</ele><time>2026-05-01T14:15:30.407Z</time></trkpt><trkpt lat="47.20894258333333" lon="11.398170466666667"><ele>759.0</ele><time>2026-05-01T14:15:31.421Z</time></trkpt><trkpt lat="47.20905428333334" lon="11.398026583333333"><ele>758.3333333333334</ele><time>2026-05-01T14:15:32.426Z</time></trkpt><trkpt lat="47.20914283333333" lon="11.397839633333335"><ele>757.6666666666667</ele><time>2026-05-01T14:15:33.439Z</time></trkpt><trkpt lat="47.20922388333333" lon="11.397636466666665"><ele>757.0</ele><time>2026-05-01T14:15:34.42Z</time></trkpt><trkpt lat="47.20930645000001" lon="11.39744155"><ele>757.0</ele><time>2026-05-01T14:15:35.426Z</time></trkpt><trkpt lat="47.20939058333333" lon="11.397254416666666"><ele>757.0</ele><time>2026-05-01T14:15:36.407Z</time></trkpt><trkpt lat="47.209467533333324" lon="11.397076383333335"><ele>757.0</ele><time>2026-05-01T14:15:37.423Z</time></trkpt><trkpt lat="47.20954216666667" lon="11.396911150000003"><ele>757.0</ele><time>2026-05-01T14:15:38.423Z</time></trkpt><trkpt lat="47.209629650000004" lon="11.396765599999998"><ele>753.75</ele><time>2026-05-01T14:15:39.407Z</time></trkpt><trkpt lat="47.20973444999999" lon="11.396647399999997"><ele>750.5</ele><time>2026-05-01T14:15:40.421Z</time></trkpt><trkpt lat="47.209857216666656" lon="11.396557883333333"><ele>747.25</ele><time>2026-05-01T14:15:41.422Z</time></trkpt><trkpt lat="47.20998646666667" lon="11.396488283333335"><ele>744.0</ele><time>2026-05-01T14:15:42.408Z</time></trkpt><trkpt lat="47.21011095000001" lon="11.396428600000002"><ele>744.0</ele><time>2026-05-01T14:15:43.42Z</time></trkpt><trkpt lat="47.2102291" lon="11.396378566666664"><ele>744.0</ele><time>2026-05-01T14:15:44.422Z</time></trkpt><trkpt lat="47.21034688333334" lon="11.396349466666669"><ele>744.0</ele><time>2026-05-01T14:15:45.44Z</time></trkpt><trkpt lat="47.21046615" lon="11.396339550000002"><ele>744.0</ele><time>2026-05-01T14:15:46.42Z</time></trkpt><trkpt lat="47.210592016666666" lon="11.396316133333334"><ele>741.75</ele><time>2026-05-01T14:15:47.414Z</time></trkpt><trkpt lat="47.21071308333333" lon="11.396241483333332"><ele>739.5</ele><time>2026-05-01T14:15:48.405Z</time></trkpt><trkpt lat="47.21081333333333" lon="11.396115983333333"><ele>737.25</ele><time>2026-05-01T14:15:49.421Z</time></trkpt><trkpt lat="47.210892550000004" lon="11.395942950000002"><ele>735.0</ele><time>2026-05-01T14:15:50.428Z</time></trkpt><trkpt lat="47.21095546666667" lon="11.3957407"><ele>735.0</ele><time>2026-05-01T14:15:51.413Z</time></trkpt><trkpt lat="47.21100901666667" lon="11.395529766666668"><ele>735.0</ele><time>2026-05-01T14:15:52.423Z</time></trkpt><trkpt lat="47.21106226666667" lon="11.395330216666666"><ele>735.0</ele><time>2026-05-01T14:15:53.423Z</time></trkpt><trkpt lat="47.211131200000004" lon="11.395152633333332"><ele>735.0</ele><time>2026-05-01T14:15:54.407Z</time></trkpt><trkpt lat="47.2112135" lon="11.39499578333333"><ele>731.5</ele><time>2026-05-01T14:15:55.421Z</time></trkpt><trkpt lat="47.21130373333333" lon="11.394858"><ele>728.0</ele><time>2026-05-01T14:15:56.433Z</time></trkpt><trkpt lat="47.211402050000004" lon="11.3947418"><ele>724.5</ele><time>2026-05-01T14:15:57.41Z</time></trkpt><trkpt lat="47.21149789999999" lon="11.39463055"><ele>721.0</ele><time>2026-05-01T14:15:58.421Z</time></trkpt><trkpt lat="47.21158408333334" lon="11.394513116666667"><ele>721.0</ele><time>2026-05-01T14:15:59.422Z</time></trkpt><trkpt lat="47.211651716666665" lon="11.394379900000002"><ele>721.0</ele><time>2026-05-01T14:16:00.407Z</time></trkpt><trkpt lat="47.2116885" lon="11.394223683333333"><ele>721.0</ele><time>2026-05-01T14:16:01.408Z</time></trkpt><trkpt lat="47.21169195000001" lon="11.394050266666666"><ele>721.0</ele><time>2026-05-01T14:16:02.425Z</time></trkpt><trkpt lat="47.211670549999994" lon="11.393871166666667"><ele>720.1999999999999</ele><time>2026-05-01T14:16:03.439Z</time></trkpt><trkpt lat="47.21164205" lon="11.39370305"><ele>719.4</ele><time>2026-05-01T14:16:04.421Z</time></trkpt><trkpt lat="47.211619533333334" lon="11.393548666666668"><ele>718.6</ele><time>2026-05-01T14:16:05.427Z</time></trkpt><trkpt lat="47.21160028333333" lon="11.393411050000001"><ele>717.8</ele><time>2026-05-01T14:16:06.407Z</time></trkpt><trkpt lat="47.2115838" lon="11.393286000000002"><ele>717.0</ele><time>2026-05-01T14:16:07.423Z</time></trkpt><trkpt lat="47.21156623333333" lon="11.393170683333336"><ele>717.0</ele><time>2026-05-01T14:16:08.426Z</time></trkpt><trkpt lat="47.21154888333334" lon="11.393059633333333"><ele>717.0</ele><time>2026-05-01T14:16:09.416Z</time></trkpt><trkpt lat="47.21153063333333" lon="11.392944166666668"><ele>717.0</ele><time>2026-05-01T14:16:10.421Z</time></trkpt><trkpt lat="47.211512516666666" lon="11.392818399999998"><ele>717.0</ele><time>2026-05-01T14:16:11.426Z</time></trkpt><trkpt lat="47.2114925" lon="11.392685616666665"><ele>717.0</ele><time>2026-05-01T14:16:12.44Z</time></trkpt><trkpt lat="47.21147286666666" lon="11.392545150000002"><ele>717.0</ele><time>2026-05-01T14:16:13.423Z</time></trkpt><trkpt lat="47.21145284999999" lon="11.392398349999999"><ele>717.8</ele><time>2026-05-01T14:16:14.43Z</time></trkpt><trkpt lat="47.21143011666666" lon="11.392250516666666"><ele>718.6</ele><time>2026-05-01T14:16:15.406Z</time></trkpt><trkpt lat="47.211406100000005" lon="11.392098166666663"><ele>719.4</ele><time>2026-05-01T14:16:16.421Z</time></trkpt><trkpt lat="47.21138248333333" lon="11.391943083333336"><ele>720.1999999999999</ele><time>2026-05-01T14:16:17.426Z</time></trkpt><trkpt lat="47.21136198333333" lon="11.391795566666666"><ele>721.0</ele><time>2026-05-01T14:16:18.439Z</time></trkpt><trkpt lat="47.21134718333333" lon="11.391661316666667"><ele>718.6666666666667</ele><time>2026-05-01T14:16:19.423Z</time></trkpt><trkpt lat="47.21133431666667" lon="11.391535516666668"><ele>716.3333333333334</ele><time>2026-05-01T14:16:20.423Z</time></trkpt><trkpt lat="47.21132083333333" lon="11.391415616666666"><ele>714.0</ele><time>2026-05-01T14:16:21.452Z</time></trkpt><trkpt lat="47.21130671666667" lon="11.391296966666669"><ele>711.6666666666666</ele><time>2026-05-01T14:16:22.423Z</time></trkpt><trkpt lat="47.21129191666667" lon="11.391176683333333"><ele>709.3333333333333</ele><time>2026-05-01T14:16:23.42Z</time></trkpt><trkpt lat="47.211276883333326" lon="11.3910588"><ele>707.0</ele><time>2026-05-01T14:16:24.407Z</time></trkpt><trkpt lat="47.211262283333326" lon="11.390938750000004"><ele>705.2</ele><time>2026-05-01T14:16:25.421Z</time></trkpt><trkpt lat="47.21124464999999" lon="11.390817900000002"><ele>703.4000000000001</ele><time>2026-05-01T14:16:26.423Z</time></trkpt><trkpt lat="47.2112212" lon="11.390689650000002"><ele>701.5999999999999</ele><time>2026-05-01T14:16:27.409Z</time></trkpt><trkpt lat="47.2111924" lon="11.390555516666666"><ele>699.8</ele><time>2026-05-01T14:16:28.416Z</time></trkpt><trkpt lat="47.211158283333326" lon="11.390411016666667"><ele>698.0</ele><time>2026-05-01T14:16:29.424Z</time></trkpt><trkpt lat="47.2111248" lon="11.390251399999999"><ele>695.75</ele><time>2026-05-01T14:16:30.406Z</time></trkpt><trkpt lat="47.21109435" lon="11.390083550000002"><ele>693.5</ele><time>2026-05-01T14:16:31.421Z</time></trkpt><trkpt lat="47.211068966666666" lon="11.38990925"><ele>691.25</ele><time>2026-05-01T14:16:32.421Z</time></trkpt><trkpt lat="47.211046450000005" lon="11.3897368"><ele>689.0</ele><time>2026-05-01T14:16:33.407Z</time></trkpt><trkpt lat="47.21102366666667" lon="11.389575666666666"><ele>688.6</ele><time>2026-05-01T14:16:34.421Z</time></trkpt><trkpt lat="47.21100143333333" lon="11.389422166666668"><ele>688.2</ele><time>2026-05-01T14:16:35.426Z</time></trkpt><trkpt lat="47.21097645" lon="11.389274583333334"><ele>687.8000000000001</ele><time>2026-05-01T14:16:36.407Z</time></trkpt><trkpt lat="47.21095333333333" lon="11.389136350000001"><ele>687.4000000000001</ele><time>2026-05-01T14:16:37.416Z</time></trkpt><trkpt lat="47.21093258333333" lon="11.389006766666668"><ele>687.0</ele><time>2026-05-01T14:16:38.423Z</time></trkpt><trkpt lat="47.210914249999995" lon="11.388887533333332"><ele>689.4285714285714</ele><time>2026-05-01T14:16:39.406Z</time></trkpt><trkpt lat="47.210898516666674" lon="11.388781649999999"><ele>691.8571428571428</ele><time>2026-05-01T14:16:40.421Z</time></trkpt><trkpt lat="47.21088695" lon="11.388684683333334"><ele>694.2857142857142</ele><time>2026-05-01T14:16:41.407Z</time></trkpt><trkpt lat="47.21087966666667" lon="11.388591450000002"><ele>696.7142857142858</ele><time>2026-05-01T14:16:42.463Z</time></trkpt><trkpt lat="47.21087813333333" lon="11.38849625"><ele>699.1428571428571</ele><time>2026-05-01T14:16:43.421Z</time></trkpt><trkpt lat="47.210884366666676" lon="11.388397116666667"><ele>701.5714285714286</ele><time>2026-05-01T14:16:44.423Z</time></trkpt><trkpt lat="47.21089946666666" lon="11.388296949999997"><ele>704.0</ele><time>2026-05-01T14:16:45.44Z</time></trkpt><trkpt lat="47.21092283333334" lon="11.388196850000002"><ele>704.0</ele><time>2026-05-01T14:16:46.428Z</time></trkpt><trkpt lat="47.21097001666667" lon="11.388100999999997"><ele>704.0</ele><time>2026-05-01T14:16:47.431Z</time></trkpt><trkpt lat="47.21103705000001" lon="11.388010283333331"><ele>704.0</ele><time>2026-05-01T14:16:48.406Z</time></trkpt><trkpt lat="47.21111166666666" lon="11.387923699999998"><ele>704.0</ele><time>2026-05-01T14:16:49.421Z</time></trkpt><trkpt lat="47.2111948" lon="11.387834933333332"><ele>704.0</ele><time>2026-05-01T14:16:50.428Z</time></trkpt><trkpt lat="47.211288783333345" lon="11.3877369"><ele>707.25</ele><time>2026-05-01T14:16:51.451Z</time></trkpt><trkpt lat="47.21139056666666" lon="11.387634733333334"><ele>710.5</ele><time>2026-05-01T14:16:52.424Z</time></trkpt><trkpt lat="47.21148956666666" lon="11.387536050000001"><ele>713.75</ele><time>2026-05-01T14:16:53.423Z</time></trkpt><trkpt lat="47.21158598333333" lon="11.387457649999998"><ele>717.0</ele><time>2026-05-01T14:16:54.438Z</time></trkpt><trkpt lat="47.21169100000001" lon="11.387406216666667"><ele>717.0</ele><time>2026-05-01T14:16:55.421Z</time></trkpt><trkpt lat="47.21180373333333" lon="11.387382616666665"><ele>717.0</ele><time>2026-05-01T14:16:56.423Z</time></trkpt><trkpt lat="47.21191881666667" lon="11.387390216666665"><ele>717.0</ele><time>2026-05-01T14:16:57.439Z</time></trkpt><trkpt lat="47.212034466666665" lon="11.387437833333335"><ele>717.0</ele><time>2026-05-01T14:16:58.42Z</time></trkpt><trkpt lat="47.21212346858838" lon="11.387557286893973"><ele>717.0</ele><time>2026-05-01T14:16:59.423Z</time></trkpt><trkpt lat="47.21222312788779" lon="11.387690157656532"><ele>717.0</ele><time>2026-05-01T14:17:00.452Z</time></trkpt><trkpt lat="47.21233686626523" lon="11.387789382559824"><ele>717.0</ele><time>2026-05-01T14:17:01.42Z</time></trkpt><trkpt lat="47.2124673068038" lon="11.387849922874505"><ele>717.0</ele><time>2026-05-01T14:17:02.428Z</time></trkpt><trkpt lat="47.21260190224011" lon="11.387864504840534"><ele>717.25</ele><time>2026-05-01T14:17:03.407Z</time></trkpt><trkpt lat="47.21273866666667" lon="11.387831783333334"><ele>717.5</ele><time>2026-05-01T14:17:04.424Z</time></trkpt><trkpt lat="47.21288299999999" lon="11.387810783333334"><ele>717.75</ele><time>2026-05-01T14:17:05.426Z</time></trkpt><trkpt lat="47.213037566666664" lon="11.387783766666667"><ele>718.0</ele><time>2026-05-01T14:17:06.407Z</time></trkpt><trkpt lat="47.213204383333334" lon="11.387754849999999"><ele>719.0</ele><time>2026-05-01T14:17:07.423Z</time></trkpt><trkpt lat="47.21338276666667" lon="11.387722550000001"><ele>720.0</ele><time>2026-05-01T14:17:08.407Z</time></trkpt><trkpt lat="47.213559816666674" lon="11.387693033333337"><ele>721.0</ele><time>2026-05-01T14:17:09.446Z</time></trkpt><trkpt lat="47.21372476666667" lon="11.387664316666667"><ele>721.0</ele><time>2026-05-01T14:17:10.421Z</time></trkpt><trkpt lat="47.21387209999999" lon="11.387632583333334"><ele>721.0</ele><time>2026-05-01T14:17:11.424Z</time></trkpt><trkpt lat="47.214014766666665" lon="11.387600599999999"><ele>721.0</ele><time>2026-05-01T14:17:12.441Z</time></trkpt><trkpt lat="47.21415998333333" lon="11.387576000000003"><ele>721.0</ele><time>2026-05-01T14:17:13.421Z</time></trkpt><trkpt lat="47.21430291666667" lon="11.387554699999999"><ele>720.75</ele><time>2026-05-01T14:17:14.423Z</time></trkpt><trkpt lat="47.214437266666664" lon="11.38753085"><ele>720.5</ele><time>2026-05-01T14:17:15.406Z</time></trkpt><trkpt lat="47.21456498333334" lon="11.387511983333331"><ele>720.25</ele><time>2026-05-01T14:17:16.421Z</time></trkpt><trkpt lat="47.2146929" lon="11.387503483333335"><ele>720.0</ele><time>2026-05-01T14:17:17.428Z</time></trkpt><trkpt lat="47.21481931666667" lon="11.387488033333332"><ele>718.0</ele><time>2026-05-01T14:17:18.439Z</time></trkpt><trkpt lat="47.21494613333333" lon="11.387463216666665"><ele>716.0</ele><time>2026-05-01T14:17:19.421Z</time></trkpt><trkpt lat="47.215072316666664" lon="11.387442183333333"><ele>714.0</ele><time>2026-05-01T14:17:20.423Z</time></trkpt><trkpt lat="47.2151956" lon="11.387421833333333"><ele>712.0</ele><time>2026-05-01T14:17:21.439Z</time></trkpt><trkpt lat="47.21531711666667" lon="11.387398250000002"><ele>712.0</ele><time>2026-05-01T14:17:22.423Z</time></trkpt><trkpt lat="47.21543856666668" lon="11.387370166666665"><ele>712.0</ele><time>2026-05-01T14:17:23.425Z</time></trkpt><trkpt lat="47.21555920000001" lon="11.387341216666668"><ele>712.0</ele><time>2026-05-01T14:17:24.41Z</time></trkpt><trkpt lat="47.21567938333333" lon="11.387313216666666"><ele>712.0</ele><time>2026-05-01T14:17:25.421Z</time></trkpt><trkpt lat="47.21579816666667" lon="11.387287266666664"><ele>712.0</ele><time>2026-05-01T14:17:26.427Z</time></trkpt><trkpt lat="47.21591768333332" lon="11.387278250000001"><ele>712.0</ele><time>2026-05-01T14:17:27.416Z</time></trkpt><trkpt lat="47.21603561666667" lon="11.387296599999999"><ele>712.0</ele><time>2026-05-01T14:17:28.421Z</time></trkpt><trkpt lat="47.21615024999999" lon="11.387358566666668"><ele>712.0</ele><time>2026-05-01T14:17:29.425Z</time></trkpt><trkpt lat="47.216256933333334" lon="11.387463400000001"><ele>712.0</ele><time>2026-05-01T14:17:30.404Z</time></trkpt><trkpt lat="47.21636176666666" lon="11.387583233333332"><ele>712.0</ele><time>2026-05-01T14:17:31.421Z</time></trkpt><trkpt lat="47.216474399999996" lon="11.387697849999999"><ele>712.0</ele><time>2026-05-01T14:17:32.408Z</time></trkpt><trkpt lat="47.21659983333333" lon="11.387792666666666"><ele>712.0</ele><time>2026-05-01T14:17:33.408Z</time></trkpt><trkpt lat="47.216737616666656" lon="11.387854016666665"><ele>716.0</ele><time>2026-05-01T14:17:34.421Z</time></trkpt><trkpt lat="47.216885366666666" lon="11.387883183333335"><ele>720.0</ele><time>2026-05-01T14:17:35.405Z</time></trkpt><trkpt lat="47.217038800000005" lon="11.38789725"><ele>724.0</ele><time>2026-05-01T14:17:36.407Z</time></trkpt><trkpt lat="47.217201966666664" lon="11.387903300000001"><ele>728.6666666666667</ele><time>2026-05-01T14:17:37.421Z</time></trkpt><trkpt lat="47.217372383333334" lon="11.387908566666665"><ele>733.3333333333334</ele><time>2026-05-01T14:17:38.426Z</time></trkpt><trkpt lat="47.21754883333333" lon="11.387912649999999"><ele>738.0</ele><time>2026-05-01T14:17:39.439Z</time></trkpt><trkpt lat="47.21772037623628" lon="11.387943371143844"><ele>738.0</ele><time>2026-05-01T14:17:40.421Z</time></trkpt><trkpt lat="47.21788141460386" lon="11.387952057083687"><ele>738.0</ele><time>2026-05-01T14:17:41.428Z</time></trkpt><trkpt lat="47.21803576666666" lon="11.387955119998336"><ele>738.0</ele><time>2026-05-01T14:17:42.406Z</time></trkpt><trkpt lat="47.21817313053338" lon="11.387983095520244"><ele>731.0</ele><time>2026-05-01T14:17:43.421Z</time></trkpt><trkpt lat="47.218303628181786" lon="11.388035061158282"><ele>724.0</ele><time>2026-05-01T14:17:44.424Z</time></trkpt><trkpt lat="47.218421081273824" lon="11.388123443529409"><ele>717.0</ele><time>2026-05-01T14:17:45.439Z</time></trkpt><trkpt lat="47.21852641629542" lon="11.388258554216492"><ele>710.0</ele><time>2026-05-01T14:17:46.423Z</time></trkpt><trkpt lat="47.218595396720495" lon="11.388418236527347"><ele>710.0</ele><time>2026-05-01T14:17:47.412Z</time></trkpt><trkpt lat="47.218644567723665" lon="11.388587334038785"><ele>710.0</ele><time>2026-05-01T14:17:48.439Z</time></trkpt><trkpt lat="47.218680142771106" lon="11.388714967213202"><ele>710.0</ele><time>2026-05-01T14:17:49.426Z</time></trkpt><trkpt lat="47.21871016935217" lon="11.388808211484966"><ele>710.0</ele><time>2026-05-01T14:17:50.406Z</time></trkpt><trkpt lat="47.21877121940925" lon="11.388945503441558"><ele>710.0</ele><time>2026-05-01T14:17:52.424Z</time></trkpt><trkpt lat="47.2188503" lon="11.389055800000001"><ele>709.8333333333333</ele><time>2026-05-01T14:17:54.439Z</time></trkpt><trkpt lat="47.218897766666664" lon="11.389129583333332"><ele>709.6666666666666</ele><time>2026-05-01T14:17:55.421Z</time></trkpt><trkpt lat="47.21895313333333" lon="11.389199316666668"><ele>709.5</ele><time>2026-05-01T14:17:56.424Z</time></trkpt><trkpt lat="47.21900605000001" lon="11.389259116666665"><ele>709.3333333333334</ele><time>2026-05-01T14:17:57.406Z</time></trkpt><trkpt lat="47.21910963333333" lon="11.389354633333335"><ele>709.1666666666667</ele><time>2026-05-01T14:17:59.422Z</time></trkpt><trkpt lat="47.21916783333332" lon="11.389394399999999"><ele>709.0</ele><time>2026-05-01T14:18:00.441Z</time></trkpt><trkpt lat="47.21923063333334" lon="11.389429583333333"><ele>709.0</ele><time>2026-05-01T14:18:01.427Z</time></trkpt><trkpt lat="47.21929346666667" lon="11.389459"><ele>709.0</ele><time>2026-05-01T14:18:02.429Z</time></trkpt><trkpt lat="47.21939726666666" lon="11.389496966666666"><ele>709.0</ele><time>2026-05-01T14:18:04.416Z</time></trkpt><trkpt lat="47.219480016666665" lon="11.389512683333331"><ele>709.0</ele><time>2026-05-01T14:18:06.439Z</time></trkpt><trkpt lat="47.21958226666667" lon="11.389522783333334"><ele>709.0</ele><time>2026-05-01T14:18:08.414Z</time></trkpt><trkpt lat="47.21967131666667" lon="11.389508166666667"><ele>709.0</ele><time>2026-05-01T14:18:10.421Z</time></trkpt><trkpt lat="47.21976865" lon="11.3894738"><ele>710.0</ele><time>2026-05-01T14:18:12.408Z</time></trkpt><trkpt lat="47.2198582" lon="11.3894333"><ele>711.0</ele><time>2026-05-01T14:18:14.423Z</time></trkpt><trkpt lat="47.21995093333334" lon="11.389376316666668"><ele>712.0</ele><time>2026-05-01T14:18:16.422Z</time></trkpt><trkpt lat="47.22005586666668" lon="11.389287033333334"><ele>713.0</ele><time>2026-05-01T14:18:18.406Z</time></trkpt><trkpt lat="47.220160799999995" lon="11.389185566666667"><ele>714.0</ele><time>2026-05-01T14:18:20.424Z</time></trkpt><trkpt lat="47.22025958333334" lon="11.389070933333334"><ele>714.0</ele><time>2026-05-01T14:18:22.406Z</time></trkpt><trkpt lat="47.22036078333334" lon="11.388959216666668"><ele>714.0</ele><time>2026-05-01T14:18:24.406Z</time></trkpt><trkpt lat="47.2204123" lon="11.38890105"><ele>714.0</ele><time>2026-05-01T14:18:25.421Z</time></trkpt><trkpt lat="47.2205122" lon="11.388781533333333"><ele>714.0</ele><time>2026-05-01T14:18:27.453Z</time></trkpt><trkpt lat="47.220567683333336" lon="11.388715100000002"><ele>714.0</ele><time>2026-05-01T14:18:28.429Z</time></trkpt><trkpt lat="47.22062686666667" lon="11.3886469"><ele>713.8333333333334</ele><time>2026-05-01T14:18:29.424Z</time></trkpt><trkpt lat="47.22068861666666" lon="11.388571033333335"><ele>713.6666666666666</ele><time>2026-05-01T14:18:30.441Z</time></trkpt><trkpt lat="47.220754299999996" lon="11.388489266666667"><ele>713.5</ele><time>2026-05-01T14:18:31.421Z</time></trkpt><trkpt lat="47.22082569999999" lon="11.388410133333332"><ele>713.3333333333333</ele><time>2026-05-01T14:18:32.428Z</time></trkpt><trkpt lat="47.22089811666667" lon="11.388328449999998"><ele>713.1666666666666</ele><time>2026-05-01T14:18:33.444Z</time></trkpt><trkpt lat="47.22096725" lon="11.388237783333334"><ele>713.0</ele><time>2026-05-01T14:18:34.421Z</time></trkpt><trkpt lat="47.221044733333336" lon="11.388142633333333"><ele>713.0</ele><time>2026-05-01T14:18:35.405Z</time></trkpt><trkpt lat="47.22113455" lon="11.3880444"><ele>713.0</ele><time>2026-05-01T14:18:36.422Z</time></trkpt><trkpt lat="47.221218833333324" lon="11.387951950000001"><ele>713.0</ele><time>2026-05-01T14:18:37.405Z</time></trkpt><trkpt lat="47.22129521666667" lon="11.387863183333332"><ele>713.0</ele><time>2026-05-01T14:18:38.429Z</time></trkpt><trkpt lat="47.221367199999996" lon="11.3877745"><ele>713.0</ele><time>2026-05-01T14:18:39.455Z</time></trkpt><trkpt lat="47.22143863333334" lon="11.387691633333334"><ele>714.5999999999999</ele><time>2026-05-01T14:18:40.452Z</time></trkpt><trkpt lat="47.221503133333336" lon="11.387617266666668"><ele>716.1999999999999</ele><time>2026-05-01T14:18:41.438Z</time></trkpt><trkpt lat="47.221566916666674" lon="11.387545266666667"><ele>717.8</ele><time>2026-05-01T14:18:42.406Z</time></trkpt><trkpt lat="47.221702183333335" lon="11.387412916666666"><ele>719.4</ele><time>2026-05-01T14:18:44.405Z</time></trkpt><trkpt lat="47.22177364999999" lon="11.387370166666665"><ele>721.0</ele><time>2026-05-01T14:18:45.424Z</time></trkpt><trkpt lat="47.221854566666664" lon="11.387356299999999"><ele>721.0</ele><time>2026-05-01T14:18:46.41Z</time></trkpt><trkpt lat="47.22194202215297" lon="11.387400539243199"><ele>721.0</ele><time>2026-05-01T14:18:47.427Z</time></trkpt><trkpt lat="47.22204239083119" lon="11.387449774477158"><ele>721.0</ele><time>2026-05-01T14:18:48.404Z</time></trkpt><trkpt lat="47.22215401523216" lon="11.387510194790462"><ele>721.0</ele><time>2026-05-01T14:18:49.404Z</time></trkpt><trkpt lat="47.22227209004215" lon="11.387574106541507"><ele>721.0</ele><time>2026-05-01T14:18:50.426Z</time></trkpt><trkpt lat="47.22239186477117" lon="11.387638938468758"><ele>722.0</ele><time>2026-05-01T14:18:51.407Z</time></trkpt><trkpt lat="47.22250632143651" lon="11.387699870065351"><ele>723.0</ele><time>2026-05-01T14:18:52.425Z</time></trkpt><trkpt lat="47.22261410015244" lon="11.387743418394965"><ele>724.0</ele><time>2026-05-01T14:18:53.427Z</time></trkpt><trkpt lat="47.22271275" lon="11.387755222273164"><ele>725.0</ele><time>2026-05-01T14:18:54.421Z</time></trkpt><trkpt lat="47.222800516666666" lon="11.387724166666665"><ele>726.0</ele><time>2026-05-01T14:18:55.421Z</time></trkpt><trkpt lat="47.222875783333336" lon="11.387713533333331"><ele>725.9999999999999</ele><time>2026-05-01T14:18:56.426Z</time></trkpt><trkpt lat="47.22294361666666" lon="11.387703366666665"><ele>726.0</ele><time>2026-05-01T14:18:57.406Z</time></trkpt><trkpt lat="47.22301208333333" lon="11.387692250000002"><ele>726.0</ele><time>2026-05-01T14:18:58.41Z</time></trkpt><trkpt lat="47.223080849999995" lon="11.387679833333333"><ele>726.0</ele><time>2026-05-01T14:18:59.427Z</time></trkpt><trkpt lat="47.223154666666666" lon="11.387667283333334"><ele>726.0</ele><time>2026-05-01T14:19:00.405Z</time></trkpt><trkpt lat="47.22323575000001" lon="11.3876517"><ele>725.9999999999999</ele><time>2026-05-01T14:19:01.413Z</time></trkpt><trkpt lat="47.22332098333333" lon="11.387636433333334"><ele>726.0</ele><time>2026-05-01T14:19:02.43Z</time></trkpt><trkpt lat="47.22340953333334" lon="11.387612899999999"><ele>726.1999999999999</ele><time>2026-05-01T14:19:03.425Z</time></trkpt><trkpt lat="47.22350105" lon="11.387575066666667"><ele>726.4</ele><time>2026-05-01T14:19:04.41Z</time></trkpt><trkpt lat="47.22359196666666" lon="11.387520833333335"><ele>726.6</ele><time>2026-05-01T14:19:05.427Z</time></trkpt><trkpt lat="47.223682800000006" lon="11.38745545"><ele>726.8</ele><time>2026-05-01T14:19:06.406Z</time></trkpt><trkpt lat="47.22378103333334" lon="11.38738045"><ele>727.0</ele><time>2026-05-01T14:19:07.415Z</time></trkpt><trkpt lat="47.22388288333333" lon="11.387292033333333"><ele>730.75</ele><time>2026-05-01T14:19:08.444Z</time></trkpt><trkpt lat="47.223984566666665" lon="11.387191966666666"><ele>734.5</ele><time>2026-05-01T14:19:09.405Z</time></trkpt><trkpt lat="47.22408638333333" lon="11.387087883333333"><ele>738.25</ele><time>2026-05-01T14:19:10.424Z</time></trkpt><trkpt lat="47.224188000000005" lon="11.386982533333333"><ele>742.0</ele><time>2026-05-01T14:19:11.406Z</time></trkpt><trkpt lat="47.22428485" lon="11.386890216666666"><ele>742.0</ele><time>2026-05-01T14:19:12.408Z</time></trkpt><trkpt lat="47.22438056666667" lon="11.386822683333333"><ele>742.0</ele><time>2026-05-01T14:19:13.422Z</time></trkpt><trkpt lat="47.2244784" lon="11.386773000000002"><ele>742.0</ele><time>2026-05-01T14:19:14.426Z</time></trkpt><trkpt lat="47.22457788333333" lon="11.386741899999999"><ele>742.0</ele><time>2026-05-01T14:19:15.404Z</time></trkpt><trkpt lat="47.22468251666666" lon="11.386720716666666"><ele>742.0</ele><time>2026-05-01T14:19:16.42Z</time></trkpt><trkpt lat="47.224800083333335" lon="11.386712216666668"><ele>735.75</ele><time>2026-05-01T14:19:17.428Z</time></trkpt><trkpt lat="47.224926116666666" lon="11.386701833333332"><ele>729.5</ele><time>2026-05-01T14:19:18.405Z</time></trkpt><trkpt lat="47.22504946666666" lon="11.386684449999999"><ele>723.25</ele><time>2026-05-01T14:19:19.409Z</time></trkpt><trkpt lat="47.2251683" lon="11.386673883333334"><ele>717.0</ele><time>2026-05-01T14:19:20.426Z</time></trkpt><trkpt lat="47.2252861" lon="11.386667033333332"><ele>717.0</ele><time>2026-05-01T14:19:21.408Z</time></trkpt><trkpt lat="47.22540215000001" lon="11.386661116666668"><ele>717.0</ele><time>2026-05-01T14:19:22.416Z</time></trkpt><trkpt lat="47.225516299999995" lon="11.386650783333334"><ele>717.0</ele><time>2026-05-01T14:19:23.427Z</time></trkpt><trkpt lat="47.22562406666666" lon="11.386637033333335"><ele>717.0</ele><time>2026-05-01T14:19:24.406Z</time></trkpt><trkpt lat="47.225721166666666" lon="11.386623183333333"><ele>717.0</ele><time>2026-05-01T14:19:25.421Z</time></trkpt><trkpt lat="47.225815960584335" lon="11.386629674347017"><ele>720.8</ele><time>2026-05-01T14:19:26.404Z</time></trkpt><trkpt lat="47.22589813333334" lon="11.38656575"><ele>724.6</ele><time>2026-05-01T14:19:27.405Z</time></trkpt><trkpt lat="47.22597808333334" lon="11.386504466666667"><ele>728.4</ele><time>2026-05-01T14:19:28.414Z</time></trkpt><trkpt lat="47.226054450000014" lon="11.386419333333333"><ele>732.1999999999999</ele><time>2026-05-01T14:19:29.428Z</time></trkpt><trkpt lat="47.2261305" lon="11.386323033333333"><ele>736.0</ele><time>2026-05-01T14:19:30.414Z</time></trkpt><trkpt lat="47.226205483333324" lon="11.386222933333332"><ele>736.0</ele><time>2026-05-01T14:19:31.443Z</time></trkpt><trkpt lat="47.22627261666667" lon="11.386128183333335"><ele>736.0</ele><time>2026-05-01T14:19:32.43Z</time></trkpt><trkpt lat="47.226334099999995" lon="11.386042000000002"><ele>736.0</ele><time>2026-05-01T14:19:33.404Z</time></trkpt><trkpt lat="47.226394899999995" lon="11.385968849999998"><ele>736.0</ele><time>2026-05-01T14:19:34.422Z</time></trkpt><trkpt lat="47.22646181666667" lon="11.385899083333333"><ele>736.0</ele><time>2026-05-01T14:19:35.427Z</time></trkpt><trkpt lat="47.226543000000014" lon="11.385842666666667"><ele>736.0</ele><time>2026-05-01T14:19:36.406Z</time></trkpt><trkpt lat="47.22663636666666" lon="11.385810733333335"><ele>731.8</ele><time>2026-05-01T14:19:37.412Z</time></trkpt><trkpt lat="47.22673775" lon="11.3858086"><ele>727.5999999999999</ele><time>2026-05-01T14:19:38.428Z</time></trkpt><trkpt lat="47.22684556666666" lon="11.38584055"><ele>723.4</ele><time>2026-05-01T14:19:39.413Z</time></trkpt><trkpt lat="47.226954066666664" lon="11.3858988"><ele>719.2</ele><time>2026-05-01T14:19:40.414Z</time></trkpt><trkpt lat="47.22706376666667" lon="11.385969816666666"><ele>715.0</ele><time>2026-05-01T14:19:41.426Z</time></trkpt><trkpt lat="47.227176549999996" lon="11.386041866666668"><ele>715.0</ele><time>2026-05-01T14:19:42.406Z</time></trkpt><trkpt lat="47.22729008333334" lon="11.386114916666667"><ele>715.0</ele><time>2026-05-01T14:19:43.413Z</time></trkpt><trkpt lat="47.22740388333333" lon="11.386191799999999"><ele>715.0</ele><time>2026-05-01T14:19:44.427Z</time></trkpt><trkpt lat="47.227516566666665" lon="11.3862694"><ele>715.0</ele><time>2026-05-01T14:19:45.405Z</time></trkpt><trkpt lat="47.22761895" lon="11.386348049999999"><ele>711.0</ele><time>2026-05-01T14:19:46.412Z</time></trkpt><trkpt lat="47.227708799999995" lon="11.386426616666666"><ele>707.0</ele><time>2026-05-01T14:19:47.427Z</time></trkpt><trkpt lat="47.22778270066381" lon="11.386528796111282"><ele>703.0</ele><time>2026-05-01T14:19:48.407Z</time></trkpt><trkpt lat="47.22787070767284" lon="11.386626143952002"><ele>699.0</ele><time>2026-05-01T14:19:49.411Z</time></trkpt><trkpt lat="47.22795647423776" lon="11.386726336977528"><ele>695.0</ele><time>2026-05-01T14:19:50.427Z</time></trkpt><trkpt lat="47.228035246498024" lon="11.386823653574435"><ele>695.0</ele><time>2026-05-01T14:19:51.406Z</time></trkpt><trkpt lat="47.228111063883894" lon="11.386920173657108"><ele>695.0</ele><time>2026-05-01T14:19:52.415Z</time></trkpt><trkpt lat="47.22820011666666" lon="11.386983533333334"><ele>695.0</ele><time>2026-05-01T14:19:53.427Z</time></trkpt><trkpt lat="47.228281450000004" lon="11.387067366666669"><ele>695.0</ele><time>2026-05-01T14:19:54.406Z</time></trkpt><trkpt lat="47.2283702" lon="11.3871377"><ele>695.0</ele><time>2026-05-01T14:19:55.422Z</time></trkpt><trkpt lat="47.2284699" lon="11.3871939"><ele>692.5</ele><time>2026-05-01T14:19:56.427Z</time></trkpt><trkpt lat="47.228580216666664" lon="11.387234333333332"><ele>690.0</ele><time>2026-05-01T14:19:57.407Z</time></trkpt><trkpt lat="47.228695699999996" lon="11.387261149999999"><ele>687.5</ele><time>2026-05-01T14:19:58.405Z</time></trkpt><trkpt lat="47.2288123" lon="11.387279999999997"><ele>685.0</ele><time>2026-05-01T14:19:59.429Z</time></trkpt><trkpt lat="47.2289274" lon="11.387296083333334"><ele>685.6</ele><time>2026-05-01T14:20:00.404Z</time></trkpt><trkpt lat="47.22903301666667" lon="11.387314133333332"><ele>686.2</ele><time>2026-05-01T14:20:01.417Z</time></trkpt><trkpt lat="47.2291292" lon="11.387335883333332"><ele>686.8</ele><time>2026-05-01T14:20:02.404Z</time></trkpt><trkpt lat="47.22921868333333" lon="11.387352349999999"><ele>687.4</ele><time>2026-05-01T14:20:03.416Z</time></trkpt><trkpt lat="47.22929944999999" lon="11.387360583333335"><ele>688.0</ele><time>2026-05-01T14:20:04.409Z</time></trkpt><trkpt lat="47.22937829999999" lon="11.387352416666666"><ele>688.0</ele><time>2026-05-01T14:20:05.43Z</time></trkpt><trkpt lat="47.22945978333333" lon="11.387324116666665"><ele>688.0</ele><time>2026-05-01T14:20:06.406Z</time></trkpt><trkpt lat="47.22954418333334" lon="11.387271833333333"><ele>688.0</ele><time>2026-05-01T14:20:07.409Z</time></trkpt><trkpt lat="47.229620966666666" lon="11.387203716666667"><ele>688.0</ele><time>2026-05-01T14:20:08.432Z</time></trkpt><trkpt lat="47.22968768333334" lon="11.387119783333333"><ele>688.0</ele><time>2026-05-01T14:20:09.404Z</time></trkpt><trkpt lat="47.229743933333346" lon="11.387025216666666"><ele>688.0</ele><time>2026-05-01T14:20:10.414Z</time></trkpt><trkpt lat="47.229787833333326" lon="11.386922866666664"><ele>688.0</ele><time>2026-05-01T14:20:11.428Z</time></trkpt><trkpt lat="47.229823749999994" lon="11.38681185"><ele>688.0</ele><time>2026-05-01T14:20:12.426Z</time></trkpt><trkpt lat="47.22985048333333" lon="11.386696716666666"><ele>688.0</ele><time>2026-05-01T14:20:13.419Z</time></trkpt><trkpt lat="47.22986635" lon="11.386567966666666"><ele>688.0</ele><time>2026-05-01T14:20:14.427Z</time></trkpt><trkpt lat="47.22987143333334" lon="11.3864252"><ele>688.0</ele><time>2026-05-01T14:20:15.404Z</time></trkpt><trkpt lat="47.229866449999996" lon="11.386263816666668"><ele>689.0</ele><time>2026-05-01T14:20:16.427Z</time></trkpt><trkpt lat="47.229854800000005" lon="11.38607935"><ele>690.0</ele><time>2026-05-01T14:20:17.428Z</time></trkpt><trkpt lat="47.22983958333333" lon="11.385880116666666"><ele>691.0</ele><time>2026-05-01T14:20:18.406Z</time></trkpt><trkpt lat="47.2298251" lon="11.385683283333332"><ele>692.0</ele><time>2026-05-01T14:20:19.422Z</time></trkpt><trkpt lat="47.22981606666667" lon="11.385495683333332"><ele>694.25</ele><time>2026-05-01T14:20:20.408Z</time></trkpt><trkpt lat="47.22981635" lon="11.3853085"><ele>696.5</ele><time>2026-05-01T14:20:21.424Z</time></trkpt><trkpt lat="47.22984116666667" lon="11.385135116666667"><ele>698.75</ele><time>2026-05-01T14:20:22.414Z</time></trkpt><trkpt lat="47.229900349999994" lon="11.384992133333332"><ele>701.0</ele><time>2026-05-01T14:20:23.427Z</time></trkpt><trkpt lat="47.22998330000001" lon="11.384879416666669"><ele>701.0</ele><time>2026-05-01T14:20:24.403Z</time></trkpt><trkpt lat="47.230079333333336" lon="11.384778449999999"><ele>701.0</ele><time>2026-05-01T14:20:25.405Z</time></trkpt><trkpt lat="47.23018431666666" lon="11.384705883333334"><ele>701.0</ele><time>2026-05-01T14:20:26.426Z</time></trkpt><trkpt lat="47.230291322160284" lon="11.384724577190084"><ele>701.0</ele><time>2026-05-01T14:20:27.404Z</time></trkpt><trkpt lat="47.230390118578946" lon="11.384786648342859"><ele>701.0</ele><time>2026-05-01T14:20:28.422Z</time></trkpt><trkpt lat="47.2304946490635" lon="11.384879499742926"><ele>701.0</ele><time>2026-05-01T14:20:29.426Z</time></trkpt><trkpt lat="47.23060652247135" lon="11.384980984163551"><ele>701.0</ele><time>2026-05-01T14:20:30.405Z</time></trkpt><trkpt lat="47.230723702958315" lon="11.38508728286549"><ele>701.0</ele><time>2026-05-01T14:20:31.409Z</time></trkpt><trkpt lat="47.230839699380326" lon="11.385192330000828"><ele>701.0</ele><time>2026-05-01T14:20:32.429Z</time></trkpt><trkpt lat="47.23095651730374" lon="11.385297029464214"><ele>703.75</ele><time>2026-05-01T14:20:33.404Z</time></trkpt><trkpt lat="47.23107265836234" lon="11.385399946770484"><ele>706.5</ele><time>2026-05-01T14:20:34.413Z</time></trkpt><trkpt lat="47.23118698256829" lon="11.38549778663103"><ele>709.25</ele><time>2026-05-01T14:20:35.427Z</time></trkpt><trkpt lat="47.231307714722504" lon="11.38558168291073"><ele>712.0</ele><time>2026-05-01T14:20:36.405Z</time></trkpt><trkpt lat="47.23143583510185" lon="11.38563303143271"><ele>707.25</ele><time>2026-05-01T14:20:37.423Z</time></trkpt><trkpt lat="47.23157091604532" lon="11.38564468596434"><ele>702.5</ele><time>2026-05-01T14:20:38.428Z</time></trkpt><trkpt lat="47.23171008872004" lon="11.385632582489588"><ele>697.75</ele><time>2026-05-01T14:20:39.426Z</time></trkpt><trkpt lat="47.2318551425162" lon="11.385617316779747"><ele>693.0</ele><time>2026-05-01T14:20:40.421Z</time></trkpt><trkpt lat="47.232005706533556" lon="11.385599466520441"><ele>693.0</ele><time>2026-05-01T14:20:41.428Z</time></trkpt><trkpt lat="47.23216118107221" lon="11.38558065739435"><ele>693.0</ele><time>2026-05-01T14:20:42.405Z</time></trkpt><trkpt lat="47.23232499217138" lon="11.385560623740227"><ele>693.0</ele><time>2026-05-01T14:20:43.419Z</time></trkpt><trkpt lat="47.23249399617538" lon="11.385539955007216"><ele>711.0</ele><time>2026-05-01T14:20:44.404Z</time></trkpt><trkpt lat="47.23284754562518" lon="11.385498171837776"><ele>729.0</ele><time>2026-05-01T14:20:46.409Z</time></trkpt><trkpt lat="47.23303504534509" lon="11.385476563492322"><ele>728.6666666666666</ele><time>2026-05-01T14:20:47.429Z</time></trkpt><trkpt lat="47.233229032124015" lon="11.385454207539413"><ele>728.3333333333333</ele><time>2026-05-01T14:20:48.405Z</time></trkpt><trkpt lat="47.23342053644302" lon="11.385434580242745"><ele>728.0</ele><time>2026-05-01T14:20:49.422Z</time></trkpt><trkpt lat="47.23360175201943" lon="11.385416231029305"><ele>728.0</ele><time>2026-05-01T14:20:50.427Z</time></trkpt><trkpt lat="47.23377353684232" lon="11.385402123216226"><ele>728.0</ele><time>2026-05-01T14:20:51.423Z</time></trkpt><trkpt lat="47.23394717544216" lon="11.385407418157126"><ele>728.0</ele><time>2026-05-01T14:20:52.414Z</time></trkpt><trkpt lat="47.23411754884312" lon="11.38543478785111"><ele>727.3333333333333</ele><time>2026-05-01T14:20:53.428Z</time></trkpt><trkpt lat="47.23429082204066" lon="11.385479570928295"><ele>726.6666666666666</ele><time>2026-05-01T14:20:54.405Z</time></trkpt><trkpt lat="47.23446458509608" lon="11.385529140760449"><ele>726.0</ele><time>2026-05-01T14:20:55.408Z</time></trkpt><trkpt lat="47.23463857548422" lon="11.38558098788689"><ele>718.6666666666666</ele><time>2026-05-01T14:20:56.426Z</time></trkpt><trkpt lat="47.23481675040776" lon="11.38563486798473"><ele>711.3333333333333</ele><time>2026-05-01T14:20:57.405Z</time></trkpt><trkpt lat="47.23499834444118" lon="11.385689405989613"><ele>704.0</ele><time>2026-05-01T14:20:58.422Z</time></trkpt><trkpt lat="47.23518190038998" lon="11.38574383838318"><ele>704.0</ele><time>2026-05-01T14:20:59.427Z</time></trkpt><trkpt lat="47.235366627523874" lon="11.385798618120061"><ele>704.0</ele><time>2026-05-01T14:21:00.407Z</time></trkpt><trkpt lat="47.235549693949125" lon="11.38585420929997"><ele>704.0</ele><time>2026-05-01T14:21:01.422Z</time></trkpt><trkpt lat="47.23573167638723" lon="11.385912293326777"><ele>706.3333333333333</ele><time>2026-05-01T14:21:02.405Z</time></trkpt><trkpt lat="47.23591290121555" lon="11.38598399781939"><ele>708.6666666666666</ele><time>2026-05-01T14:21:03.41Z</time></trkpt><trkpt lat="47.236091590814084" lon="11.386071297864971"><ele>711.0</ele><time>2026-05-01T14:21:04.409Z</time></trkpt><trkpt lat="47.23625991423009" lon="11.386166476136722"><ele>711.0</ele><time>2026-05-01T14:21:05.437Z</time></trkpt><trkpt lat="47.2364141068438" lon="11.386275477184741"><ele>711.0</ele><time>2026-05-01T14:21:06.405Z</time></trkpt><trkpt lat="47.23655298011094" lon="11.386385755113432"><ele>711.0</ele><time>2026-05-01T14:21:07.414Z</time></trkpt><trkpt lat="47.236679344709536" lon="11.38650031673216"><ele>706.75</ele><time>2026-05-01T14:21:08.427Z</time></trkpt><trkpt lat="47.23679936457296" lon="11.38661534847913"><ele>702.5</ele><time>2026-05-01T14:21:09.406Z</time></trkpt><trkpt lat="47.23691660596418" lon="11.38673023068658"><ele>698.25</ele><time>2026-05-01T14:21:10.423Z</time></trkpt><trkpt lat="47.237027304949855" lon="11.386840030722272"><ele>694.0</ele><time>2026-05-01T14:21:11.426Z</time></trkpt><trkpt lat="47.23714160750089" lon="11.38693373636208"><ele>694.0</ele><time>2026-05-01T14:21:12.405Z</time></trkpt><trkpt lat="47.237247863102155" lon="11.386996050043388"><ele>694.0</ele><time>2026-05-01T14:21:13.412Z</time></trkpt><trkpt lat="47.23733668010316" lon="11.387036537074804"><ele>694.0</ele><time>2026-05-01T14:21:14.411Z</time></trkpt><trkpt lat="47.23740129999999" lon="11.387043533333335"><ele>694.0</ele><time>2026-05-01T14:21:15.417Z</time></trkpt><trkpt lat="47.23747028333334" lon="11.387106183333332"><ele>694.0</ele><time>2026-05-01T14:21:17.429Z</time></trkpt><trkpt lat="47.237547799999994" lon="11.387171733333332"><ele>694.0</ele><time>2026-05-01T14:21:19.418Z</time></trkpt><trkpt lat="47.23766143333334" lon="11.387189466666666"><ele>692.1666666666667</ele><time>2026-05-01T14:21:21.409Z</time></trkpt><trkpt lat="47.2377272" lon="11.387177466666666"><ele>690.3333333333334</ele><time>2026-05-01T14:21:22.417Z</time></trkpt><trkpt lat="47.2377989" lon="11.387185333333331"><ele>688.5</ele><time>2026-05-01T14:21:23.433Z</time></trkpt><trkpt lat="47.2378797" lon="11.38722065"><ele>686.6666666666666</ele><time>2026-05-01T14:21:24.407Z</time></trkpt><trkpt lat="47.237963900000004" lon="11.387276133333334"><ele>684.8333333333333</ele><time>2026-05-01T14:21:25.426Z</time></trkpt><trkpt lat="47.23805018333334" lon="11.387349400000002"><ele>683.0</ele><time>2026-05-01T14:21:26.426Z</time></trkpt><trkpt lat="47.23813061614084" lon="11.387458887148512"><ele>687.5</ele><time>2026-05-01T14:21:27.408Z</time></trkpt><trkpt lat="47.238223451031324" lon="11.387558939538213"><ele>692.0</ele><time>2026-05-01T14:21:28.422Z</time></trkpt><trkpt lat="47.23832233640692" lon="11.387665484438687"><ele>696.5</ele><time>2026-05-01T14:21:29.426Z</time></trkpt><trkpt lat="47.238435333333335" lon="11.387759216666666"><ele>701.0</ele><time>2026-05-01T14:21:30.404Z</time></trkpt><trkpt lat="47.23854708333333" lon="11.387875983333332"><ele>701.0</ele><time>2026-05-01T14:21:31.412Z</time></trkpt><trkpt lat="47.2386626" lon="11.387991966666668"><ele>701.0</ele><time>2026-05-01T14:21:32.406Z</time></trkpt><trkpt lat="47.23878093333333" lon="11.388103066666668"><ele>701.0</ele><time>2026-05-01T14:21:33.413Z</time></trkpt><trkpt lat="47.23889845" lon="11.388211233333333"><ele>701.0</ele><time>2026-05-01T14:21:34.408Z</time></trkpt><trkpt lat="47.23901408333333" lon="11.3883166"><ele>699.5</ele><time>2026-05-01T14:21:35.428Z</time></trkpt><trkpt lat="47.23913103333332" lon="11.388417966666669"><ele>698.0</ele><time>2026-05-01T14:21:36.405Z</time></trkpt><trkpt lat="47.23925393333334" lon="11.388517533333333"><ele>696.5</ele><time>2026-05-01T14:21:37.423Z</time></trkpt><trkpt lat="47.2393795" lon="11.388617316666668"><ele>695.0</ele><time>2026-05-01T14:21:38.407Z</time></trkpt><trkpt lat="47.23950943333333" lon="11.388716283333334"><ele>695.0</ele><time>2026-05-01T14:21:39.405Z</time></trkpt><trkpt lat="47.23964336666666" lon="11.388816533333332"><ele>695.0</ele><time>2026-05-01T14:21:40.413Z</time></trkpt><trkpt lat="47.239772783333336" lon="11.388916966666667"><ele>695.0</ele><time>2026-05-01T14:21:41.431Z</time></trkpt><trkpt lat="47.239895216666675" lon="11.389011983333335"><ele>695.0</ele><time>2026-05-01T14:21:42.414Z</time></trkpt><trkpt lat="47.240011016666664" lon="11.389101116666666"><ele>694.25</ele><time>2026-05-01T14:21:43.407Z</time></trkpt><trkpt lat="47.240126183333324" lon="11.389185549999999"><ele>693.5</ele><time>2026-05-01T14:21:44.427Z</time></trkpt><trkpt lat="47.240241983333334" lon="11.389268133333333"><ele>692.75</ele><time>2026-05-01T14:21:45.408Z</time></trkpt><trkpt lat="47.24035458333333" lon="11.389372700000001"><ele>692.0</ele><time>2026-05-01T14:21:46.409Z</time></trkpt><trkpt lat="47.240465166666674" lon="11.389475166666667"><ele>692.0</ele><time>2026-05-01T14:21:47.403Z</time></trkpt><trkpt lat="47.2405779" lon="11.389542500000001"><ele>692.0</ele><time>2026-05-01T14:21:48.428Z</time></trkpt><trkpt lat="47.24069" lon="11.389599333333335"><ele>692.0</ele><time>2026-05-01T14:21:49.415Z</time></trkpt><trkpt lat="47.24079428333333" lon="11.389651416666666"><ele>692.0</ele><time>2026-05-01T14:21:50.407Z</time></trkpt><trkpt lat="47.2408958" lon="11.389696683333334"><ele>691.0</ele><time>2026-05-01T14:21:51.407Z</time></trkpt><trkpt lat="47.24099831666667" lon="11.389741016666669"><ele>690.0</ele><time>2026-05-01T14:21:52.426Z</time></trkpt><trkpt lat="47.241094783333324" lon="11.389789550000001"><ele>689.0</ele><time>2026-05-01T14:21:53.428Z</time></trkpt><trkpt lat="47.24118173333333" lon="11.389840416666669"><ele>688.0</ele><time>2026-05-01T14:21:54.417Z</time></trkpt><trkpt lat="47.24126528333333" lon="11.389891183333335"><ele>687.0</ele><time>2026-05-01T14:21:55.405Z</time></trkpt><trkpt lat="47.24134578333332" lon="11.389938333333335"><ele>687.0</ele><time>2026-05-01T14:21:56.405Z</time></trkpt><trkpt lat="47.24143331666668" lon="11.389991449999998"><ele>687.0</ele><time>2026-05-01T14:21:57.407Z</time></trkpt><trkpt lat="47.241528966666664" lon="11.390045716666668"><ele>687.0</ele><time>2026-05-01T14:21:58.422Z</time></trkpt><trkpt lat="47.24162891666667" lon="11.390099616666664"><ele>687.0</ele><time>2026-05-01T14:21:59.405Z</time></trkpt><trkpt lat="47.24173496666668" lon="11.390158283333335"><ele>687.0</ele><time>2026-05-01T14:22:00.407Z</time></trkpt><trkpt lat="47.24185081666666" lon="11.39022785"><ele>687.75</ele><time>2026-05-01T14:22:01.405Z</time></trkpt><trkpt lat="47.241977833333344" lon="11.390300516666667"><ele>688.5</ele><time>2026-05-01T14:22:02.429Z</time></trkpt><trkpt lat="47.24210983333334" lon="11.3903727"><ele>689.25</ele><time>2026-05-01T14:22:03.415Z</time></trkpt><trkpt lat="47.242240633333324" lon="11.390443266666667"><ele>690.0</ele><time>2026-05-01T14:22:04.422Z</time></trkpt><trkpt lat="47.24236833333333" lon="11.390511150000002"><ele>688.25</ele><time>2026-05-01T14:22:05.428Z</time></trkpt><trkpt lat="47.24249536666667" lon="11.390579383333334"><ele>686.5</ele><time>2026-05-01T14:22:06.407Z</time></trkpt><trkpt lat="47.24260601320741" lon="11.390684329836507"><ele>684.75</ele><time>2026-05-01T14:22:07.427Z</time></trkpt><trkpt lat="47.24271800323801" lon="11.390748470095078"><ele>683.0</ele><time>2026-05-01T14:22:08.412Z</time></trkpt><trkpt lat="47.24282442031274" lon="11.390809418558943"><ele>683.0</ele><time>2026-05-01T14:22:09.417Z</time></trkpt><trkpt lat="47.24292944371947" lon="11.39086956882394"><ele>683.0</ele><time>2026-05-01T14:22:10.422Z</time></trkpt><trkpt lat="47.24303697650796" lon="11.390931156288712"><ele>683.0</ele><time>2026-05-01T14:22:11.428Z</time></trkpt><trkpt lat="47.24315078114475" lon="11.390996313241558"><ele>683.0</ele><time>2026-05-01T14:22:12.407Z</time></trkpt><trkpt lat="47.24327092613032" lon="11.391063259085975"><ele>687.0</ele><time>2026-05-01T14:22:13.422Z</time></trkpt><trkpt lat="47.24339281969901" lon="11.391131179257783"><ele>691.0</ele><time>2026-05-01T14:22:14.428Z</time></trkpt><trkpt lat="47.24351896666667" lon="11.391177850000002"><ele>695.0</ele><time>2026-05-01T14:22:15.425Z</time></trkpt><trkpt lat="47.24363793333333" lon="11.391254316666666"><ele>699.0</ele><time>2026-05-01T14:22:16.412Z</time></trkpt><trkpt lat="47.24375726666667" lon="11.391332233333333"><ele>696.25</ele><time>2026-05-01T14:22:17.427Z</time></trkpt><trkpt lat="47.24387635" lon="11.39140871666667"><ele>693.5</ele><time>2026-05-01T14:22:18.418Z</time></trkpt><trkpt lat="47.24399271666667" lon="11.391483233333334"><ele>690.75</ele><time>2026-05-01T14:22:19.412Z</time></trkpt><trkpt lat="47.24410748333333" lon="11.391562766666668"><ele>688.0</ele><time>2026-05-01T14:22:20.406Z</time></trkpt><trkpt lat="47.24421986666666" lon="11.391647350000001"><ele>688.0</ele><time>2026-05-01T14:22:21.419Z</time></trkpt><trkpt lat="47.244332016666675" lon="11.391737966666668"><ele>688.0</ele><time>2026-05-01T14:22:22.424Z</time></trkpt><trkpt lat="47.24443562182879" lon="11.391856887408935"><ele>688.0</ele><time>2026-05-01T14:22:23.427Z</time></trkpt><trkpt lat="47.24454474446304" lon="11.391958359981874"><ele>688.0</ele><time>2026-05-01T14:22:24.403Z</time></trkpt><trkpt lat="47.24464829610492" lon="11.392055810565402"><ele>688.0</ele><time>2026-05-01T14:22:25.414Z</time></trkpt><trkpt lat="47.244746744221075" lon="11.39214846024057"><ele>688.0</ele><time>2026-05-01T14:22:26.429Z</time></trkpt><trkpt lat="47.24483875739746" lon="11.392235052144168"><ele>688.0</ele><time>2026-05-01T14:22:27.415Z</time></trkpt><trkpt lat="47.24492752555443" lon="11.392319387963804"><ele>688.0</ele><time>2026-05-01T14:22:28.415Z</time></trkpt><trkpt lat="47.24501966946389" lon="11.392409735270842"><ele>688.0</ele><time>2026-05-01T14:22:29.431Z</time></trkpt><trkpt lat="47.24511779896061" lon="11.39250595150972"><ele>687.0</ele><time>2026-05-01T14:22:30.42Z</time></trkpt><trkpt lat="47.24522494818456" lon="11.392609896182437"><ele>686.0</ele><time>2026-05-01T14:22:31.423Z</time></trkpt><trkpt lat="47.2453409764793" lon="11.392721127433711"><ele>685.0</ele><time>2026-05-01T14:22:32.429Z</time></trkpt><trkpt lat="47.24547153333333" lon="11.392821266666665"><ele>684.0</ele><time>2026-05-01T14:22:33.413Z</time></trkpt><trkpt lat="47.24557947089222" lon="11.392977513101556"><ele>683.0</ele><time>2026-05-01T14:22:34.412Z</time></trkpt><trkpt lat="47.24570002643962" lon="11.39310528326767"><ele>682.0</ele><time>2026-05-01T14:22:35.427Z</time></trkpt><trkpt lat="47.24581161619316" lon="11.393223186509852"><ele>681.0</ele><time>2026-05-01T14:22:36.409Z</time></trkpt><trkpt lat="47.24591558748821" lon="11.393333040154078"><ele>680.0</ele><time>2026-05-01T14:22:37.426Z</time></trkpt><trkpt lat="47.24601323257325" lon="11.393435661702181"><ele>680.0</ele><time>2026-05-01T14:22:38.405Z</time></trkpt><trkpt lat="47.24610361004579" lon="11.393523535884762"><ele>680.0</ele><time>2026-05-01T14:22:39.417Z</time></trkpt><trkpt lat="47.24619656666667" lon="11.3935814"><ele>680.0</ele><time>2026-05-01T14:22:40.422Z</time></trkpt><trkpt lat="47.24626658333333" lon="11.393664200000002"><ele>680.0</ele><time>2026-05-01T14:22:41.45Z</time></trkpt><trkpt lat="47.24632138333334" lon="11.393754316666664"><ele>680.0</ele><time>2026-05-01T14:22:42.408Z</time></trkpt><trkpt lat="47.246377849999995" lon="11.393835249999999"><ele>679.4</ele><time>2026-05-01T14:22:43.414Z</time></trkpt><trkpt lat="47.246443" lon="11.393890099999998"><ele>678.8</ele><time>2026-05-01T14:22:44.426Z</time></trkpt><trkpt lat="47.246509916666675" lon="11.393923400000002"><ele>678.2</ele><time>2026-05-01T14:22:45.408Z</time></trkpt><trkpt lat="47.24661058333333" lon="11.393941733333333"><ele>677.6</ele><time>2026-05-01T14:22:47.431Z</time></trkpt><trkpt lat="47.24667625" lon="11.393895400000002"><ele>677.0</ele><time>2026-05-01T14:22:50.408Z</time></trkpt><trkpt lat="47.24674827423621" lon="11.394160436476948"><ele>677.0</ele><time>2026-05-01T14:24:03.014Z</time></trkpt><trkpt lat="47.24682764544152" lon="11.394144334481254"><ele>677.0</ele><time>2026-05-01T14:24:52Z</time></trkpt><trkpt lat="47.246877118607856" lon="11.394052317293967"><ele>677.0</ele><time>2026-05-01T14:24:57Z</time></trkpt><trkpt lat="47.24679854323592" lon="11.394006161670635"><ele>677.0</ele><time>2026-05-01T14:25:00Z</time></trkpt><trkpt lat="47.246719944181564" lon="11.394034386612914"><ele>677.0</ele><time>2026-05-01T14:25:03Z</time></trkpt><trkpt lat="47.24670345470303" lon="11.393925147656377"><ele>677.0</ele><time>2026-05-01T14:25:09Z</time></trkpt><trkpt lat="47.246670534063746" lon="11.3938104352935"><ele>677.0</ele><time>2026-05-01T14:26:11Z</time></trkpt><trkpt lat="47.24668249226366" lon="11.393902574420055"><ele>677.0</ele><time>2026-05-01T14:27:05Z</time></trkpt><trkpt lat="47.24676943645494" lon="11.393919382131072"><ele>677.0</ele><time>2026-05-01T14:27:20Z</time></trkpt><trkpt lat="47.246830233333334" lon="11.393849799999996"><ele>677.0</ele><time>2026-05-01T14:27:23.332Z</time></trkpt><trkpt lat="47.24678341666666" lon="11.393758783333332"><ele>677.0</ele><time>2026-05-01T14:27:25.352Z</time></trkpt><trkpt lat="47.24671805" lon="11.393738599999999"><ele>677.0</ele><time>2026-05-01T14:27:26.374Z</time></trkpt><trkpt lat="47.24664016666667" lon="11.393733300000001"><ele>677.75</ele><time>2026-05-01T14:27:27.331Z</time></trkpt><trkpt lat="47.24655316666668" lon="11.393719316666665"><ele>678.5</ele><time>2026-05-01T14:27:28.34Z</time></trkpt><trkpt lat="47.2464487" lon="11.39368325"><ele>679.25</ele><time>2026-05-01T14:27:29.336Z</time></trkpt><trkpt lat="47.24633106666667" lon="11.39362313333333"><ele>680.0</ele><time>2026-05-01T14:27:30.331Z</time></trkpt><trkpt lat="47.246210100000006" lon="11.393533183333334"><ele>680.0</ele><time>2026-05-01T14:27:31.335Z</time></trkpt><trkpt lat="47.246082616666676" lon="11.393408566666668"><ele>680.0</ele><time>2026-05-01T14:27:32.335Z</time></trkpt><trkpt lat="47.24595266666667" lon="11.393265583333335"><ele>680.0</ele><time>2026-05-01T14:27:33.331Z</time></trkpt><trkpt lat="47.24580983333333" lon="11.39311705"><ele>681.3333333333333</ele><time>2026-05-01T14:27:34.334Z</time></trkpt><trkpt lat="47.24566373333333" lon="11.392964816666664"><ele>682.6666666666666</ele><time>2026-05-01T14:27:35.351Z</time></trkpt><trkpt lat="47.245521116666666" lon="11.392811733333334"><ele>684.0</ele><time>2026-05-01T14:27:36.331Z</time></trkpt><trkpt lat="47.24538828333333" lon="11.392665816666666"><ele>684.0</ele><time>2026-05-01T14:27:37.332Z</time></trkpt><trkpt lat="47.245267399999996" lon="11.392526683333331"><ele>684.0</ele><time>2026-05-01T14:27:38.341Z</time></trkpt><trkpt lat="47.24514394999999" lon="11.392400333333335"><ele>684.0</ele><time>2026-05-01T14:27:39.331Z</time></trkpt><trkpt lat="47.24502498333333" lon="11.392275266666665"><ele>685.0</ele><time>2026-05-01T14:27:40.334Z</time></trkpt><trkpt lat="47.24490529999999" lon="11.392151483333336"><ele>686.0</ele><time>2026-05-01T14:27:41.339Z</time></trkpt><trkpt lat="47.24479036666666" lon="11.392028916666668"><ele>687.0</ele><time>2026-05-01T14:27:42.331Z</time></trkpt><trkpt lat="47.24468064999999" lon="11.391917966666664"><ele>688.0</ele><time>2026-05-01T14:27:43.334Z</time></trkpt><trkpt lat="47.24457130000001" lon="11.391808549999999"><ele>688.0</ele><time>2026-05-01T14:27:44.339Z</time></trkpt><trkpt lat="47.24445953333334" lon="11.391705833333333"><ele>688.0</ele><time>2026-05-01T14:27:45.352Z</time></trkpt><trkpt lat="47.24434005" lon="11.391615166666668"><ele>688.0</ele><time>2026-05-01T14:27:46.35Z</time></trkpt><trkpt lat="47.24421090000001" lon="11.391527983333333"><ele>688.0</ele><time>2026-05-01T14:27:47.331Z</time></trkpt><trkpt lat="47.244076283333335" lon="11.391443033333333"><ele>691.6666666666667</ele><time>2026-05-01T14:27:48.352Z</time></trkpt><trkpt lat="47.24393641666667" lon="11.391363166666668"><ele>695.3333333333334</ele><time>2026-05-01T14:27:49.35Z</time></trkpt><trkpt lat="47.24378955" lon="11.391281816666666"><ele>699.0</ele><time>2026-05-01T14:27:50.331Z</time></trkpt><trkpt lat="47.24363896666667" lon="11.391197599999998"><ele>699.0</ele><time>2026-05-01T14:27:51.35Z</time></trkpt><trkpt lat="47.243484433333336" lon="11.39110335"><ele>699.0</ele><time>2026-05-01T14:27:52.35Z</time></trkpt><trkpt lat="47.24332518333334" lon="11.391008683333332"><ele>699.0</ele><time>2026-05-01T14:27:53.344Z</time></trkpt><trkpt lat="47.24316728333333" lon="11.390918700000002"><ele>695.0</ele><time>2026-05-01T14:27:54.35Z</time></trkpt><trkpt lat="47.24301921666667" lon="11.39083135"><ele>691.0</ele><time>2026-05-01T14:27:55.351Z</time></trkpt><trkpt lat="47.242884950000004" lon="11.390750400000002"><ele>687.0</ele><time>2026-05-01T14:27:56.331Z</time></trkpt><trkpt lat="47.24276018333334" lon="11.390673450000001"><ele>683.0</ele><time>2026-05-01T14:27:57.349Z</time></trkpt><trkpt lat="47.24263756666666" lon="11.390596149999999"><ele>683.0</ele><time>2026-05-01T14:27:58.332Z</time></trkpt><trkpt lat="47.24249491025076" lon="11.390542699721822"><ele>683.0</ele><time>2026-05-01T14:27:59.331Z</time></trkpt><trkpt lat="47.24237456710282" lon="11.390427321362099"><ele>683.0</ele><time>2026-05-01T14:28:00.349Z</time></trkpt><trkpt lat="47.2422524026004" lon="11.390297207653537"><ele>683.0</ele><time>2026-05-01T14:28:01.349Z</time></trkpt><trkpt lat="47.24214115746021" lon="11.390143711064425"><ele>684.75</ele><time>2026-05-01T14:28:02.332Z</time></trkpt><trkpt lat="47.24205373333333" lon="11.389959283333333"><ele>686.5</ele><time>2026-05-01T14:28:03.351Z</time></trkpt><trkpt lat="47.24193266666666" lon="11.389829966666666"><ele>688.25</ele><time>2026-05-01T14:28:04.35Z</time></trkpt><trkpt lat="47.241809566666674" lon="11.389715216666666"><ele>690.0</ele><time>2026-05-01T14:28:05.331Z</time></trkpt><trkpt lat="47.24169073333334" lon="11.389616466666666"><ele>692.0</ele><time>2026-05-01T14:28:06.342Z</time></trkpt><trkpt lat="47.241579249999994" lon="11.38952725"><ele>694.0</ele><time>2026-05-01T14:28:07.331Z</time></trkpt><trkpt lat="47.24146886666667" lon="11.389436016666666"><ele>696.0</ele><time>2026-05-01T14:28:08.354Z</time></trkpt><trkpt lat="47.24135193333333" lon="11.389346166666668"><ele>698.0</ele><time>2026-05-01T14:28:09.343Z</time></trkpt><trkpt lat="47.24122765" lon="11.389262116666664"><ele>698.0</ele><time>2026-05-01T14:28:10.331Z</time></trkpt><trkpt lat="47.24110231666667" lon="11.389184550000001"><ele>698.0</ele><time>2026-05-01T14:28:11.331Z</time></trkpt><trkpt lat="47.240987983333326" lon="11.3891118"><ele>698.0</ele><time>2026-05-01T14:28:12.341Z</time></trkpt><trkpt lat="47.24088976666667" lon="11.389041366666667"><ele>698.0</ele><time>2026-05-01T14:28:13.346Z</time></trkpt><trkpt lat="47.24079738333333" lon="11.388985033333332"><ele>698.0</ele><time>2026-05-01T14:28:14.349Z</time></trkpt><trkpt lat="47.24069445" lon="11.388949233333335"><ele>698.0</ele><time>2026-05-01T14:28:15.344Z</time></trkpt><trkpt lat="47.240584350000006" lon="11.388958116666666"><ele>698.0</ele><time>2026-05-01T14:28:16.33Z</time></trkpt><trkpt lat="47.24048015" lon="11.389016499999999"><ele>698.0</ele><time>2026-05-01T14:28:17.331Z</time></trkpt><trkpt lat="47.240390700000006" lon="11.389113750000002"><ele>698.0</ele><time>2026-05-01T14:28:18.34Z</time></trkpt><trkpt lat="47.24031094665337" lon="11.389213449772086"><ele>696.8</ele><time>2026-05-01T14:28:19.344Z</time></trkpt><trkpt lat="47.240257319925554" lon="11.389327670444066"><ele>695.5999999999999</ele><time>2026-05-01T14:28:20.339Z</time></trkpt><trkpt lat="47.24021380354317" lon="11.389439854668387"><ele>694.4000000000001</ele><time>2026-05-01T14:28:21.344Z</time></trkpt><trkpt lat="47.24018608801464" lon="11.38958819706873"><ele>693.2</ele><time>2026-05-01T14:28:22.346Z</time></trkpt><trkpt lat="47.240168175091206" lon="11.389727502247704"><ele>692.0</ele><time>2026-05-01T14:28:23.332Z</time></trkpt><trkpt lat="47.24013521621432" lon="11.389890048366524"><ele>691.0</ele><time>2026-05-01T14:28:24.341Z</time></trkpt><trkpt lat="47.24009927165377" lon="11.390064931949874"><ele>690.0</ele><time>2026-05-01T14:28:25.33Z</time></trkpt><trkpt lat="47.2400592232283" lon="11.390248960120074"><ele>689.0</ele><time>2026-05-01T14:28:26.334Z</time></trkpt><trkpt lat="47.240023507140826" lon="11.390427271547953"><ele>688.0</ele><time>2026-05-01T14:28:27.342Z</time></trkpt><trkpt lat="47.240008700000004" lon="11.390599349999999"><ele>687.2</ele><time>2026-05-01T14:28:28.341Z</time></trkpt><trkpt lat="47.23996196666667" lon="11.390747066666664"><ele>686.4</ele><time>2026-05-01T14:28:29.339Z</time></trkpt><trkpt lat="47.23990345000001" lon="11.390878400000002"><ele>685.6</ele><time>2026-05-01T14:28:30.347Z</time></trkpt><trkpt lat="47.23982753333333" lon="11.390984299999998"><ele>684.8000000000001</ele><time>2026-05-01T14:28:31.344Z</time></trkpt><trkpt lat="47.23973361666667" lon="11.391056700000002"><ele>684.0</ele><time>2026-05-01T14:28:32.35Z</time></trkpt><trkpt lat="47.23962975" lon="11.391088300000002"><ele>684.0</ele><time>2026-05-01T14:28:33.341Z</time></trkpt><trkpt lat="47.23952966666667" lon="11.391071299999998"><ele>684.0</ele><time>2026-05-01T14:28:34.345Z</time></trkpt><trkpt lat="47.239432596610264" lon="11.391032654667265"><ele>684.0</ele><time>2026-05-01T14:28:35.352Z</time></trkpt><trkpt lat="47.23936884978851" lon="11.390936145350258"><ele>684.0</ele><time>2026-05-01T14:28:36.343Z</time></trkpt><trkpt lat="47.2393562085029" lon="11.390815035685288"><ele>684.0</ele><time>2026-05-01T14:28:37.344Z</time></trkpt><trkpt lat="47.23937686038105" lon="11.390713912352773"><ele>684.0</ele><time>2026-05-01T14:28:38.331Z</time></trkpt><trkpt lat="47.23943858333334" lon="11.39065255"><ele>684.0</ele><time>2026-05-01T14:28:39.352Z</time></trkpt><trkpt lat="47.239509600000005" lon="11.390600333333333"><ele>684.0</ele><time>2026-05-01T14:28:40.344Z</time></trkpt><trkpt lat="47.239598581196404" lon="11.390532223146634"><ele>684.0</ele><time>2026-05-01T14:28:41.349Z</time></trkpt><trkpt lat="47.23973073333334" lon="11.390547516666668"><ele>684.0</ele><time>2026-05-01T14:28:42.343Z</time></trkpt><trkpt lat="47.2398682" lon="11.390533466666668"><ele>684.0</ele><time>2026-05-01T14:28:43.344Z</time></trkpt><trkpt lat="47.24003311666667" lon="11.390540433333335"><ele>684.0</ele><time>2026-05-01T14:28:44.334Z</time></trkpt><trkpt lat="47.24021860555277" lon="11.390518607453702"><ele>684.0</ele><time>2026-05-01T14:28:45.344Z</time></trkpt><trkpt lat="47.240408318365766" lon="11.390519552659146"><ele>684.0</ele><time>2026-05-01T14:28:46.331Z</time></trkpt><trkpt lat="47.24060923333333" lon="11.390553016666669"><ele>684.0</ele><time>2026-05-01T14:28:47.35Z</time></trkpt><trkpt lat="47.240831083333326" lon="11.3905706"><ele>684.0</ele><time>2026-05-01T14:28:48.346Z</time></trkpt><trkpt lat="47.241075583333334" lon="11.390604733333332"><ele>677.0</ele><time>2026-05-01T14:28:49.344Z</time></trkpt><trkpt lat="47.24133376666667" lon="11.3906511"><ele>670.0</ele><time>2026-05-01T14:28:50.349Z</time></trkpt><trkpt lat="47.24159528333333" lon="11.390712016666665"><ele>670.0</ele><time>2026-05-01T14:28:51.344Z</time></trkpt><trkpt lat="47.24184834999999" lon="11.390797083333334"><ele>670.0</ele><time>2026-05-01T14:28:52.347Z</time></trkpt><trkpt lat="47.242087866666665" lon="11.3908921"><ele>676.5</ele><time>2026-05-01T14:28:53.33Z</time></trkpt><trkpt lat="47.24231128333333" lon="11.390997966666665"><ele>683.0</ele><time>2026-05-01T14:28:54.343Z</time></trkpt><trkpt lat="47.24252953757737" lon="11.391080404421153"><ele>683.0</ele><time>2026-05-01T14:28:55.345Z</time></trkpt><trkpt lat="47.24272091666666" lon="11.391253433333336"><ele>683.0</ele><time>2026-05-01T14:28:56.332Z</time></trkpt><trkpt lat="47.24291608333333" lon="11.3913919"><ele>683.0</ele><time>2026-05-01T14:28:57.342Z</time></trkpt><trkpt lat="47.243107466666665" lon="11.391538649999998"><ele>678.0</ele><time>2026-05-01T14:28:58.347Z</time></trkpt><trkpt lat="47.24329533333333" lon="11.391694033333334"><ele>673.0</ele><time>2026-05-01T14:28:59.351Z</time></trkpt><trkpt lat="47.24347905" lon="11.39186125"><ele>668.0</ele><time>2026-05-01T14:29:00.342Z</time></trkpt><trkpt lat="47.24366006666668" lon="11.392039433333332"><ele>664.0</ele><time>2026-05-01T14:29:01.331Z</time></trkpt><trkpt lat="47.24384243333334" lon="11.392230683333333"><ele>660.0</ele><time>2026-05-01T14:29:02.354Z</time></trkpt><trkpt lat="47.2440252" lon="11.392445166666667"><ele>660.0</ele><time>2026-05-01T14:29:03.343Z</time></trkpt><trkpt lat="47.24420536666666" lon="11.392688216666665"><ele>660.0</ele><time>2026-05-01T14:29:04.346Z</time></trkpt><trkpt lat="47.244384133333334" lon="11.392949900000001"><ele>650.5</ele><time>2026-05-01T14:29:05.349Z</time></trkpt><trkpt lat="47.2445629" lon="11.3932169"><ele>641.0</ele><time>2026-05-01T14:29:06.343Z</time></trkpt><trkpt lat="47.24473361666666" lon="11.393492150000002"><ele>644.0</ele><time>2026-05-01T14:29:07.33Z</time></trkpt><trkpt lat="47.24490656666667" lon="11.393756450000001"><ele>647.0</ele><time>2026-05-01T14:29:08.332Z</time></trkpt><trkpt lat="47.24508501666666" lon="11.393992616666665"><ele>647.0</ele><time>2026-05-01T14:29:09.343Z</time></trkpt><trkpt lat="47.24526318333332" lon="11.394208700000002"><ele>647.0</ele><time>2026-05-01T14:29:10.35Z</time></trkpt><trkpt lat="47.245450266666666" lon="11.394409166666666"><ele>649.5</ele><time>2026-05-01T14:29:11.352Z</time></trkpt><trkpt lat="47.24564973333333" lon="11.394592233333332"><ele>652.0</ele><time>2026-05-01T14:29:12.343Z</time></trkpt><trkpt lat="47.245843566666665" lon="11.394768333333333"><ele>652.0</ele><time>2026-05-01T14:29:13.347Z</time></trkpt><trkpt lat="47.24603865" lon="11.394958799999998"><ele>652.0</ele><time>2026-05-01T14:29:14.352Z</time></trkpt><trkpt lat="47.24626775607762" lon="11.3950458227161"><ele>661.5</ele><time>2026-05-01T14:29:15.349Z</time></trkpt><trkpt lat="47.24649672362918" lon="11.395122095646029"><ele>671.0</ele><time>2026-05-01T14:29:16.369Z</time></trkpt><trkpt lat="47.246714527894376" lon="11.395164070172354"><ele>671.0</ele><time>2026-05-01T14:29:17.331Z</time></trkpt><trkpt lat="47.24693486312834" lon="11.395183013839983"><ele>671.0</ele><time>2026-05-01T14:29:18.342Z</time></trkpt><trkpt lat="47.24716623798609" lon="11.395176711813752"><ele>676.3333333333333</ele><time>2026-05-01T14:29:19.345Z</time></trkpt><trkpt lat="47.24739017983566" lon="11.395142408589006"><ele>681.6666666666666</ele><time>2026-05-01T14:29:20.352Z</time></trkpt><trkpt lat="47.24760818798333" lon="11.3950806943644"><ele>687.0</ele><time>2026-05-01T14:29:21.343Z</time></trkpt><trkpt lat="47.247830769350344" lon="11.395010724566692"><ele>687.0</ele><time>2026-05-01T14:29:22.346Z</time></trkpt><trkpt lat="47.24800779180582" lon="11.39490609819825"><ele>687.0</ele><time>2026-05-01T14:29:23.331Z</time></trkpt><trkpt lat="47.24829558908095" lon="11.39474042492475"><ele>666.5</ele><time>2026-05-01T14:29:24.344Z</time></trkpt><trkpt lat="47.248522361511505" lon="11.394592428139417"><ele>646.0</ele><time>2026-05-01T14:29:25.344Z</time></trkpt><trkpt lat="47.24875768499252" lon="11.3944254897259"><ele>639.0</ele><time>2026-05-01T14:29:26.352Z</time></trkpt><trkpt lat="47.24898157331887" lon="11.394266663302187"><ele>632.0</ele><time>2026-05-01T14:29:27.352Z</time></trkpt><trkpt lat="47.249206533333336" lon="11.3941133"><ele>632.0</ele><time>2026-05-01T14:29:28.348Z</time></trkpt><trkpt lat="47.249424600000005" lon="11.393941066666667"><ele>632.0</ele><time>2026-05-01T14:29:29.342Z</time></trkpt><trkpt lat="47.24964518333333" lon="11.393771666666664"><ele>630.5</ele><time>2026-05-01T14:29:30.342Z</time></trkpt><trkpt lat="47.24986595000001" lon="11.393602566666669"><ele>629.0</ele><time>2026-05-01T14:29:31.346Z</time></trkpt><trkpt lat="47.25008931666666" lon="11.393436650000002"><ele>629.0</ele><time>2026-05-01T14:29:32.349Z</time></trkpt><trkpt lat="47.25031473333334" lon="11.393267683333333"><ele>629.0</ele><time>2026-05-01T14:29:33.342Z</time></trkpt><trkpt lat="47.250536983333326" lon="11.393099949999998"><ele>633.5</ele><time>2026-05-01T14:29:34.331Z</time></trkpt><trkpt lat="47.2507556" lon="11.392944616666666"><ele>638.0</ele><time>2026-05-01T14:29:35.338Z</time></trkpt><trkpt lat="47.250964216666674" lon="11.39279415"><ele>638.0</ele><time>2026-05-01T14:29:36.344Z</time></trkpt><trkpt lat="47.25116634999999" lon="11.392650849999999"><ele>638.0</ele><time>2026-05-01T14:29:37.344Z</time></trkpt><trkpt lat="47.2513632" lon="11.392512216666667"><ele>638.0</ele><time>2026-05-01T14:29:38.331Z</time></trkpt><trkpt lat="47.25156298333333" lon="11.392373966666666"><ele>640.0</ele><time>2026-05-01T14:29:39.342Z</time></trkpt><trkpt lat="47.251759899999996" lon="11.3922354"><ele>642.0</ele><time>2026-05-01T14:29:40.33Z</time></trkpt><trkpt lat="47.25195286666667" lon="11.39208775"><ele>644.0</ele><time>2026-05-01T14:29:41.332Z</time></trkpt><trkpt lat="47.252147699999995" lon="11.391932116666664"><ele>627.0</ele><time>2026-05-01T14:29:42.342Z</time></trkpt><trkpt lat="47.25234366666667" lon="11.39177405"><ele>610.0</ele><time>2026-05-01T14:29:43.332Z</time></trkpt><trkpt lat="47.25253661666667" lon="11.391599399999999"><ele>610.0</ele><time>2026-05-01T14:29:44.35Z</time></trkpt><trkpt lat="47.25272403333334" lon="11.391399683333335"><ele>610.0</ele><time>2026-05-01T14:29:45.343Z</time></trkpt><trkpt lat="47.25290475" lon="11.391165116666665"><ele>604.0</ele><time>2026-05-01T14:29:46.33Z</time></trkpt><trkpt lat="47.253075966666664" lon="11.390898383333335"><ele>598.0</ele><time>2026-05-01T14:29:47.331Z</time></trkpt><trkpt lat="47.253230216666665" lon="11.390600866666666"><ele>603.0</ele><time>2026-05-01T14:29:48.342Z</time></trkpt><trkpt lat="47.253364566666676" lon="11.390279266666667"><ele>608.0</ele><time>2026-05-01T14:29:49.331Z</time></trkpt><trkpt lat="47.253480450000005" lon="11.38993576666667"><ele>611.0</ele><time>2026-05-01T14:29:50.331Z</time></trkpt><trkpt lat="47.25357640000001" lon="11.38957645"><ele>614.0</ele><time>2026-05-01T14:29:51.339Z</time></trkpt><trkpt lat="47.25364668333333" lon="11.38920371666667"><ele>617.0</ele><time>2026-05-01T14:29:52.33Z</time></trkpt><trkpt lat="47.25368806666667" lon="11.388827449999999"><ele>620.0</ele><time>2026-05-01T14:29:53.332Z</time></trkpt><trkpt lat="47.25370456666666" lon="11.388451333333334"><ele>620.0</ele><time>2026-05-01T14:29:54.344Z</time></trkpt><trkpt lat="47.253699766666664" lon="11.388083783333332"><ele>620.0</ele><time>2026-05-01T14:29:55.346Z</time></trkpt><trkpt lat="47.253677616666664" lon="11.387732366666668"><ele>617.6666666666666</ele><time>2026-05-01T14:29:56.34Z</time></trkpt><trkpt lat="47.2536464" lon="11.387403116666666"><ele>615.3333333333334</ele><time>2026-05-01T14:29:57.34Z</time></trkpt><trkpt lat="47.25360486666667" lon="11.387087866666665"><ele>613.0</ele><time>2026-05-01T14:29:58.351Z</time></trkpt><trkpt lat="47.253555000000006" lon="11.386778933333336"><ele>611.3333333333334</ele><time>2026-05-01T14:29:59.351Z</time></trkpt><trkpt lat="47.25350113333334" lon="11.386471516666665"><ele>609.6666666666666</ele><time>2026-05-01T14:30:00.342Z</time></trkpt><trkpt lat="47.253443883333325" lon="11.386160316666667"><ele>608.0</ele><time>2026-05-01T14:30:01.33Z</time></trkpt><trkpt lat="47.25338573333334" lon="11.385849399999998"><ele>607.3333333333333</ele><time>2026-05-01T14:30:02.353Z</time></trkpt><trkpt lat="47.25332995" lon="11.385548200000002"><ele>606.6666666666666</ele><time>2026-05-01T14:30:03.341Z</time></trkpt><trkpt lat="47.25328348333334" lon="11.385254249999997"><ele>606.0</ele><time>2026-05-01T14:30:04.345Z</time></trkpt><trkpt lat="47.253249933333336" lon="11.384959166666665"><ele>606.0</ele><time>2026-05-01T14:30:05.35Z</time></trkpt><trkpt lat="47.25319369683348" lon="11.384666719997583"><ele>606.0</ele><time>2026-05-01T14:30:06.364Z</time></trkpt><trkpt lat="47.253170698384594" lon="11.384368573198396"><ele>606.0</ele><time>2026-05-01T14:30:07.345Z</time></trkpt><trkpt lat="47.25315694441033" lon="11.384067733635547"><ele>604.6666666666666</ele><time>2026-05-01T14:30:08.353Z</time></trkpt><trkpt lat="47.25315403877817" lon="11.383764476841339"><ele>603.3333333333333</ele><time>2026-05-01T14:30:09.34Z</time></trkpt><trkpt lat="47.253162296003275" lon="11.38346109533584"><ele>602.0</ele><time>2026-05-01T14:30:10.345Z</time></trkpt><trkpt lat="47.253193399999994" lon="11.3831581"><ele>602.0</ele><time>2026-05-01T14:30:11.333Z</time></trkpt><trkpt lat="47.25321105" lon="11.382850483333334"><ele>602.0</ele><time>2026-05-01T14:30:12.344Z</time></trkpt><trkpt lat="47.25323933333334" lon="11.3825411"><ele>602.0</ele><time>2026-05-01T14:30:13.349Z</time></trkpt><trkpt lat="47.253264837192376" lon="11.382228907107947"><ele>603.6666666666666</ele><time>2026-05-01T14:30:14.35Z</time></trkpt><trkpt lat="47.253294443834456" lon="11.381920625241388"><ele>605.3333333333334</ele><time>2026-05-01T14:30:15.352Z</time></trkpt><trkpt lat="47.25332717728127" lon="11.381613734537023"><ele>607.0</ele><time>2026-05-01T14:30:16.331Z</time></trkpt><trkpt lat="47.25344068333334" lon="11.381317416666665"><ele>610.5</ele><time>2026-05-01T14:30:17.35Z</time></trkpt><trkpt lat="47.25349473333334" lon="11.380990983333334"><ele>614.0</ele><time>2026-05-01T14:30:18.341Z</time></trkpt><trkpt lat="47.25354755" lon="11.3806437"><ele>616.0</ele><time>2026-05-01T14:30:19.345Z</time></trkpt><trkpt lat="47.25359815" lon="11.380275666666668"><ele>618.0</ele><time>2026-05-01T14:30:20.332Z</time></trkpt><trkpt lat="47.25364103333333" lon="11.379895500000002"><ele>617.5</ele><time>2026-05-01T14:30:21.343Z</time></trkpt><trkpt lat="47.25366881666667" lon="11.379509166666667"><ele>617.0</ele><time>2026-05-01T14:30:22.345Z</time></trkpt><trkpt lat="47.25368336666667" lon="11.379132250000003"><ele>616.0</ele><time>2026-05-01T14:30:23.353Z</time></trkpt><trkpt lat="47.25368271666666" lon="11.378769283333334"><ele>615.0</ele><time>2026-05-01T14:30:24.34Z</time></trkpt><trkpt lat="47.253671366666666" lon="11.378413333333333"><ele>615.0</ele><time>2026-05-01T14:30:25.345Z</time></trkpt><trkpt lat="47.2536464" lon="11.378063916666667"><ele>615.0</ele><time>2026-05-01T14:30:26.351Z</time></trkpt><trkpt lat="47.25361216666667" lon="11.377716216666666"><ele>609.5</ele><time>2026-05-01T14:30:27.342Z</time></trkpt><trkpt lat="47.253573616666664" lon="11.377368000000002"><ele>604.0</ele><time>2026-05-01T14:30:28.355Z</time></trkpt><trkpt lat="47.253523816666664" lon="11.377017183333331"><ele>597.5</ele><time>2026-05-01T14:30:29.344Z</time></trkpt><trkpt lat="47.25346878333333" lon="11.376661216666665"><ele>591.0</ele><time>2026-05-01T14:30:30.346Z</time></trkpt><trkpt lat="47.25340743333332" lon="11.376299083333333"><ele>590.5</ele><time>2026-05-01T14:30:31.331Z</time></trkpt><trkpt lat="47.25334373333334" lon="11.375934566666668"><ele>590.0</ele><time>2026-05-01T14:30:32.332Z</time></trkpt><trkpt lat="47.25328023333333" lon="11.375565166666668"><ele>587.5</ele><time>2026-05-01T14:30:33.353Z</time></trkpt><trkpt lat="47.25321638333333" lon="11.375189650000001"><ele>585.0</ele><time>2026-05-01T14:30:34.331Z</time></trkpt><trkpt lat="47.253153283333326" lon="11.374808499999999"><ele>593.0</ele><time>2026-05-01T14:30:35.334Z</time></trkpt><trkpt lat="47.253089200000005" lon="11.374430483333333"><ele>601.0</ele><time>2026-05-01T14:30:36.343Z</time></trkpt><trkpt lat="47.25302895" lon="11.374063083333333"><ele>594.0</ele><time>2026-05-01T14:30:37.352Z</time></trkpt><trkpt lat="47.25296891666667" lon="11.373702816666666"><ele>587.0</ele><time>2026-05-01T14:30:38.355Z</time></trkpt><trkpt lat="47.252910566666664" lon="11.3733441"><ele>583.5</ele><time>2026-05-01T14:30:39.343Z</time></trkpt><trkpt lat="47.252853800000004" lon="11.372990383333335"><ele>580.0</ele><time>2026-05-01T14:30:40.346Z</time></trkpt><trkpt lat="47.252793649999994" lon="11.372638416666666"><ele>580.0</ele><time>2026-05-01T14:30:41.337Z</time></trkpt><trkpt lat="47.25273426666666" lon="11.372287116666666"><ele>580.0</ele><time>2026-05-01T14:30:42.344Z</time></trkpt><trkpt lat="47.252676566666665" lon="11.371936666666667"><ele>579.5</ele><time>2026-05-01T14:30:43.357Z</time></trkpt><trkpt lat="47.25261795" lon="11.371586433333334"><ele>579.0</ele><time>2026-05-01T14:30:44.35Z</time></trkpt><trkpt lat="47.252558566666664" lon="11.371234383333334"><ele>578.0</ele><time>2026-05-01T14:30:45.344Z</time></trkpt><trkpt lat="47.25250136666667" lon="11.370880983333333"><ele>577.0</ele><time>2026-05-01T14:30:46.351Z</time></trkpt><trkpt lat="47.252448199999996" lon="11.370525133333334"><ele>578.0</ele><time>2026-05-01T14:30:47.353Z</time></trkpt><trkpt lat="47.25240286666667" lon="11.37016355"><ele>579.0</ele><time>2026-05-01T14:30:48.343Z</time></trkpt><trkpt lat="47.252367199999995" lon="11.369798766666667"><ele>579.5</ele><time>2026-05-01T14:30:49.351Z</time></trkpt><trkpt lat="47.25234896666666" lon="11.369429966666667"><ele>580.0</ele><time>2026-05-01T14:30:50.332Z</time></trkpt><trkpt lat="47.25234558333333" lon="11.369056883333334"><ele>579.0</ele><time>2026-05-01T14:30:51.35Z</time></trkpt><trkpt lat="47.25235743333332" lon="11.368688200000001"><ele>578.0</ele><time>2026-05-01T14:30:52.336Z</time></trkpt><trkpt lat="47.252382816666675" lon="11.368317266666669"><ele>577.5</ele><time>2026-05-01T14:30:53.353Z</time></trkpt><trkpt lat="47.252424616666666" lon="11.367952583333334"><ele>577.0</ele><time>2026-05-01T14:30:54.345Z</time></trkpt><trkpt lat="47.25247883333333" lon="11.367596283333334"><ele>577.0</ele><time>2026-05-01T14:30:55.345Z</time></trkpt><trkpt lat="47.25254326666666" lon="11.367249066666668"><ele>577.0</ele><time>2026-05-01T14:30:56.341Z</time></trkpt><trkpt lat="47.25261305000001" lon="11.366906566666668"><ele>577.0</ele><time>2026-05-01T14:30:57.344Z</time></trkpt><trkpt lat="47.25268828333333" lon="11.366565500000002"><ele>577.0</ele><time>2026-05-01T14:30:58.347Z</time></trkpt><trkpt lat="47.252767616666674" lon="11.366226266666668"><ele>577.0</ele><time>2026-05-01T14:30:59.334Z</time></trkpt><trkpt lat="47.25284861666667" lon="11.365888333333332"><ele>577.0</ele><time>2026-05-01T14:31:00.344Z</time></trkpt><trkpt lat="47.252929133333325" lon="11.365550050000001"><ele>578.0</ele><time>2026-05-01T14:31:01.334Z</time></trkpt><trkpt lat="47.2530088" lon="11.365211150000002"><ele>579.0</ele><time>2026-05-01T14:31:02.351Z</time></trkpt><trkpt lat="47.25308573333333" lon="11.364872533333333"><ele>579.0</ele><time>2026-05-01T14:31:03.343Z</time></trkpt><trkpt lat="47.25316196666666" lon="11.364533116666665"><ele>579.0</ele><time>2026-05-01T14:31:04.331Z</time></trkpt><trkpt lat="47.253242366666676" lon="11.3641966"><ele>577.5</ele><time>2026-05-01T14:31:05.343Z</time></trkpt><trkpt lat="47.25332378333333" lon="11.363859216666667"><ele>576.0</ele><time>2026-05-01T14:31:06.345Z</time></trkpt><trkpt lat="47.25340353333333" lon="11.363518983333332"><ele>576.0</ele><time>2026-05-01T14:31:07.331Z</time></trkpt><trkpt lat="47.25348253333333" lon="11.363181416666665"><ele>576.0</ele><time>2026-05-01T14:31:08.34Z</time></trkpt><trkpt lat="47.253561316666676" lon="11.362842666666664"><ele>577.5</ele><time>2026-05-01T14:31:09.341Z</time></trkpt><trkpt lat="47.253638716666664" lon="11.362504166666666"><ele>579.0</ele><time>2026-05-01T14:31:10.334Z</time></trkpt><trkpt lat="47.253715966666675" lon="11.362165383333334"><ele>579.0</ele><time>2026-05-01T14:31:11.35Z</time></trkpt><trkpt lat="47.2537909" lon="11.361825066666665"><ele>579.0</ele><time>2026-05-01T14:31:12.348Z</time></trkpt><trkpt lat="47.25386206666667" lon="11.361483216666667"><ele>579.0</ele><time>2026-05-01T14:31:13.345Z</time></trkpt><trkpt lat="47.25393266666667" lon="11.361142533333336"><ele>579.0</ele><time>2026-05-01T14:31:14.332Z</time></trkpt><trkpt lat="47.25400223333333" lon="11.360799850000001"><ele>578.5</ele><time>2026-05-01T14:31:15.344Z</time></trkpt><trkpt lat="47.254069749999985" lon="11.360455866666667"><ele>578.0</ele><time>2026-05-01T14:31:16.331Z</time></trkpt><trkpt lat="47.25413199999999" lon="11.360106666666665"><ele>578.0</ele><time>2026-05-01T14:31:17.332Z</time></trkpt><trkpt lat="47.25419433333333" lon="11.35975181666667"><ele>578.0</ele><time>2026-05-01T14:31:18.343Z</time></trkpt><trkpt lat="47.25425518333333" lon="11.35940175"><ele>578.5</ele><time>2026-05-01T14:31:19.346Z</time></trkpt><trkpt lat="47.25431245" lon="11.359050633333334"><ele>579.0</ele><time>2026-05-01T14:31:20.337Z</time></trkpt><trkpt lat="47.25436443333333" lon="11.358698216666667"><ele>580.0</ele><time>2026-05-01T14:31:21.344Z</time></trkpt><trkpt lat="47.2544119" lon="11.358345350000002"><ele>581.0</ele><time>2026-05-01T14:31:22.331Z</time></trkpt><trkpt lat="47.25445341666667" lon="11.357990299999999"><ele>581.0</ele><time>2026-05-01T14:31:23.332Z</time></trkpt><trkpt lat="47.25448698333333" lon="11.357633683333331"><ele>581.0</ele><time>2026-05-01T14:31:24.344Z</time></trkpt><trkpt lat="47.254516516666676" lon="11.3572763"><ele>581.0</ele><time>2026-05-01T14:31:25.331Z</time></trkpt><trkpt lat="47.254542750000006" lon="11.356916349999999"><ele>581.0</ele><time>2026-05-01T14:31:26.333Z</time></trkpt><trkpt lat="47.25456173333334" lon="11.356552183333333"><ele>580.0</ele><time>2026-05-01T14:31:27.344Z</time></trkpt><trkpt lat="47.254573066666666" lon="11.35619055"><ele>579.0</ele><time>2026-05-01T14:31:28.329Z</time></trkpt><trkpt lat="47.25457841666666" lon="11.355828083333332"><ele>578.0</ele><time>2026-05-01T14:31:29.339Z</time></trkpt><trkpt lat="47.254574299999994" lon="11.355465266666666"><ele>577.0</ele><time>2026-05-01T14:31:30.342Z</time></trkpt><trkpt lat="47.25456131666667" lon="11.355101783333335"><ele>577.0</ele><time>2026-05-01T14:31:31.349Z</time></trkpt><trkpt lat="47.2545414" lon="11.354736400000002"><ele>577.0</ele><time>2026-05-01T14:31:32.343Z</time></trkpt><trkpt lat="47.25451438333333" lon="11.354370900000001"><ele>577.5</ele><time>2026-05-01T14:31:33.347Z</time></trkpt><trkpt lat="47.25448173333333" lon="11.354008966666667"><ele>578.0</ele><time>2026-05-01T14:31:34.329Z</time></trkpt><trkpt lat="47.25444006666667" lon="11.353649866666668"><ele>578.0</ele><time>2026-05-01T14:31:35.34Z</time></trkpt><trkpt lat="47.25439108333334" lon="11.3533007"><ele>578.0</ele><time>2026-05-01T14:31:36.348Z</time></trkpt><trkpt lat="47.25434018333333" lon="11.352963316666667"><ele>578.0</ele><time>2026-05-01T14:31:37.331Z</time></trkpt><trkpt lat="47.254285433333344" lon="11.352635883333335"><ele>578.0</ele><time>2026-05-01T14:31:38.354Z</time></trkpt><trkpt lat="47.25422231666666" lon="11.352314133333334"><ele>577.5</ele><time>2026-05-01T14:31:39.344Z</time></trkpt><trkpt lat="47.254154183333334" lon="11.351992700000002"><ele>577.0</ele><time>2026-05-01T14:31:40.346Z</time></trkpt><trkpt lat="47.254076983333334" lon="11.351666366666667"><ele>577.0</ele><time>2026-05-01T14:31:41.351Z</time></trkpt><trkpt lat="47.2539898" lon="11.351331966666665"><ele>577.0</ele><time>2026-05-01T14:31:42.345Z</time></trkpt><trkpt lat="47.25389104999999" lon="11.35098655"><ele>578.0</ele><time>2026-05-01T14:31:43.348Z</time></trkpt><trkpt lat="47.25378891666666" lon="11.35063405"><ele>579.0</ele><time>2026-05-01T14:31:44.333Z</time></trkpt><trkpt lat="47.25368861666667" lon="11.350279583333334"><ele>579.0</ele><time>2026-05-01T14:31:45.345Z</time></trkpt><trkpt lat="47.25358859999999" lon="11.34992725"><ele>579.0</ele><time>2026-05-01T14:31:46.347Z</time></trkpt><trkpt lat="47.25348918333334" lon="11.349577600000002"><ele>579.0</ele><time>2026-05-01T14:31:47.36Z</time></trkpt><trkpt lat="47.253389633333335" lon="11.349229866666667"><ele>579.0</ele><time>2026-05-01T14:31:48.342Z</time></trkpt><trkpt lat="47.25329021666666" lon="11.348882416666667"><ele>579.0</ele><time>2026-05-01T14:31:49.347Z</time></trkpt><trkpt lat="47.25318994999999" lon="11.348532333333333"><ele>579.0</ele><time>2026-05-01T14:31:50.334Z</time></trkpt><trkpt lat="47.25309041666666" lon="11.34818335"><ele>579.0</ele><time>2026-05-01T14:31:51.343Z</time></trkpt><trkpt lat="47.2529926" lon="11.347837483333334"><ele>579.0</ele><time>2026-05-01T14:31:52.345Z</time></trkpt><trkpt lat="47.25289415" lon="11.347492566666665"><ele>579.0</ele><time>2026-05-01T14:31:53.354Z</time></trkpt><trkpt lat="47.252796283333325" lon="11.34714821666667"><ele>579.0</ele><time>2026-05-01T14:31:54.344Z</time></trkpt><trkpt lat="47.252701449999996" lon="11.346799916666665"><ele>579.0</ele><time>2026-05-01T14:31:55.345Z</time></trkpt><trkpt lat="47.252609666666665" lon="11.346453049999997"><ele>579.0</ele><time>2026-05-01T14:31:56.333Z</time></trkpt><trkpt lat="47.25252135000001" lon="11.346103733333333"><ele>578.0</ele><time>2026-05-01T14:31:57.345Z</time></trkpt><trkpt lat="47.25244156666666" lon="11.34575315"><ele>577.0</ele><time>2026-05-01T14:31:58.348Z</time></trkpt><trkpt lat="47.25236646666667" lon="11.345399533333334"><ele>575.5</ele><time>2026-05-01T14:31:59.351Z</time></trkpt><trkpt lat="47.25229755" lon="11.3450468"><ele>574.0</ele><time>2026-05-01T14:32:00.342Z</time></trkpt><trkpt lat="47.25223604999999" lon="11.344691849999998"><ele>582.0</ele><time>2026-05-01T14:32:01.329Z</time></trkpt><trkpt lat="47.25218255" lon="11.344334150000002"><ele>590.0</ele><time>2026-05-01T14:32:02.351Z</time></trkpt><trkpt lat="47.252137833333336" lon="11.343973866666666"><ele>587.5</ele><time>2026-05-01T14:32:03.342Z</time></trkpt><trkpt lat="47.252103133333335" lon="11.343609016666669"><ele>585.0</ele><time>2026-05-01T14:32:04.351Z</time></trkpt><trkpt lat="47.25207705" lon="11.343244049999997"><ele>585.5</ele><time>2026-05-01T14:32:05.335Z</time></trkpt><trkpt lat="47.252059700000004" lon="11.342877566666669"><ele>586.0</ele><time>2026-05-01T14:32:06.344Z</time></trkpt><trkpt lat="47.25204925" lon="11.3425098"><ele>587.5</ele><time>2026-05-01T14:32:07.347Z</time></trkpt><trkpt lat="47.2520501" lon="11.342142366666668"><ele>589.0</ele><time>2026-05-01T14:32:08.333Z</time></trkpt><trkpt lat="47.252060966666676" lon="11.341774133333335"><ele>589.0</ele><time>2026-05-01T14:32:09.341Z</time></trkpt><trkpt lat="47.25208423333333" lon="11.341407050000003"><ele>589.0</ele><time>2026-05-01T14:32:10.345Z</time></trkpt><trkpt lat="47.25211693333334" lon="11.34103855"><ele>591.5</ele><time>2026-05-01T14:32:11.337Z</time></trkpt><trkpt lat="47.25215671666667" lon="11.340673533333332"><ele>594.0</ele><time>2026-05-01T14:32:12.344Z</time></trkpt><trkpt lat="47.252203099999996" lon="11.340308916666666"><ele>594.0</ele><time>2026-05-01T14:32:13.329Z</time></trkpt><trkpt lat="47.252257750000005" lon="11.339945900000002"><ele>594.0</ele><time>2026-05-01T14:32:14.355Z</time></trkpt><trkpt lat="47.25231985" lon="11.339585516666666"><ele>588.0</ele><time>2026-05-01T14:32:15.343Z</time></trkpt><trkpt lat="47.25239006666667" lon="11.339226366666667"><ele>582.0</ele><time>2026-05-01T14:32:16.347Z</time></trkpt><trkpt lat="47.2524684" lon="11.338870016666666"><ele>582.0</ele><time>2026-05-01T14:32:17.338Z</time></trkpt><trkpt lat="47.25255241666667" lon="11.338516016666667"><ele>582.0</ele><time>2026-05-01T14:32:18.341Z</time></trkpt><trkpt lat="47.252642333333334" lon="11.338166683333336"><ele>582.5</ele><time>2026-05-01T14:32:19.36Z</time></trkpt><trkpt lat="47.25273978333333" lon="11.337821033333334"><ele>583.0</ele><time>2026-05-01T14:32:20.351Z</time></trkpt><trkpt lat="47.25284061666666" lon="11.337478616666665"><ele>583.0</ele><time>2026-05-01T14:32:21.342Z</time></trkpt><trkpt lat="47.252945016666665" lon="11.337138216666665"><ele>583.0</ele><time>2026-05-01T14:32:22.351Z</time></trkpt><trkpt lat="47.25305266666666" lon="11.336797983333335"><ele>583.0</ele><time>2026-05-01T14:32:23.333Z</time></trkpt><trkpt lat="47.25316121666666" lon="11.336460900000002"><ele>583.0</ele><time>2026-05-01T14:32:24.345Z</time></trkpt><trkpt lat="47.25327151666667" lon="11.336125083333332"><ele>583.0</ele><time>2026-05-01T14:32:25.347Z</time></trkpt><trkpt lat="47.253386333333346" lon="11.335788500000001"><ele>583.0</ele><time>2026-05-01T14:32:26.333Z</time></trkpt><trkpt lat="47.25350306666667" lon="11.335455399999999"><ele>584.0</ele><time>2026-05-01T14:32:27.351Z</time></trkpt><trkpt lat="47.253619816666664" lon="11.335121783333333"><ele>585.0</ele><time>2026-05-01T14:32:28.35Z</time></trkpt><trkpt lat="47.25373531666668" lon="11.334785916666666"><ele>585.0</ele><time>2026-05-01T14:32:29.339Z</time></trkpt><trkpt lat="47.2538514" lon="11.334450816666667"><ele>585.0</ele><time>2026-05-01T14:32:30.358Z</time></trkpt><trkpt lat="47.25396553333333" lon="11.334115650000001"><ele>584.0</ele><time>2026-05-01T14:32:31.348Z</time></trkpt><trkpt lat="47.25408036666666" lon="11.333780266666668"><ele>583.0</ele><time>2026-05-01T14:32:32.343Z</time></trkpt><trkpt lat="47.25419625" lon="11.333444450000002"><ele>583.0</ele><time>2026-05-01T14:32:33.344Z</time></trkpt><trkpt lat="47.254314949999994" lon="11.333106200000001"><ele>583.0</ele><time>2026-05-01T14:32:34.345Z</time></trkpt><trkpt lat="47.25443361666667" lon="11.332767049999998"><ele>582.5</ele><time>2026-05-01T14:32:35.352Z</time></trkpt><trkpt lat="47.254552566666675" lon="11.332426416666666"><ele>582.0</ele><time>2026-05-01T14:32:36.342Z</time></trkpt><trkpt lat="47.25467114999999" lon="11.332087483333332"><ele>581.0</ele><time>2026-05-01T14:32:37.344Z</time></trkpt><trkpt lat="47.25478938333334" lon="11.331745550000003"><ele>580.0</ele><time>2026-05-01T14:32:38.333Z</time></trkpt><trkpt lat="47.25490565" lon="11.331403833333331"><ele>580.5</ele><time>2026-05-01T14:32:39.344Z</time></trkpt><trkpt lat="47.255024850000005" lon="11.331063016666667"><ele>581.0</ele><time>2026-05-01T14:32:40.348Z</time></trkpt><trkpt lat="47.255142549999995" lon="11.330723350000001"><ele>581.5</ele><time>2026-05-01T14:32:41.344Z</time></trkpt><trkpt lat="47.255261133333335" lon="11.330384299999999"><ele>582.0</ele><time>2026-05-01T14:32:42.344Z</time></trkpt><trkpt lat="47.25538388333333" lon="11.330045050000003"><ele>582.0</ele><time>2026-05-01T14:32:43.348Z</time></trkpt><trkpt lat="47.255512816666666" lon="11.329711033333336"><ele>582.0</ele><time>2026-05-01T14:32:44.352Z</time></trkpt><trkpt lat="47.25564486666667" lon="11.329383416666666"><ele>582.0</ele><time>2026-05-01T14:32:45.341Z</time></trkpt><trkpt lat="47.255780300000005" lon="11.329061399999999"><ele>582.0</ele><time>2026-05-01T14:32:46.337Z</time></trkpt><trkpt lat="47.255920983333326" lon="11.32874555"><ele>581.5</ele><time>2026-05-01T14:32:47.333Z</time></trkpt><trkpt lat="47.256067533333336" lon="11.328435116666666"><ele>581.0</ele><time>2026-05-01T14:32:48.342Z</time></trkpt><trkpt lat="47.25622006666667" lon="11.32813411666667"><ele>581.5</ele><time>2026-05-01T14:32:49.346Z</time></trkpt><trkpt lat="47.25638036666666" lon="11.3278391"><ele>582.0</ele><time>2026-05-01T14:32:50.334Z</time></trkpt><trkpt lat="47.25654586666666" lon="11.327552449999999"><ele>582.0</ele><time>2026-05-01T14:32:51.344Z</time></trkpt><trkpt lat="47.25671856666666" lon="11.327277650000001"><ele>582.0</ele><time>2026-05-01T14:32:52.346Z</time></trkpt><trkpt lat="47.25689713333333" lon="11.32701215"><ele>581.5</ele><time>2026-05-01T14:32:53.341Z</time></trkpt><trkpt lat="47.257080550000005" lon="11.32675355"><ele>581.0</ele><time>2026-05-01T14:32:54.343Z</time></trkpt><trkpt lat="47.25726769999999" lon="11.326501050000003"><ele>580.5</ele><time>2026-05-01T14:32:55.343Z</time></trkpt><trkpt lat="47.25745955000001" lon="11.326257183333334"><ele>580.0</ele><time>2026-05-01T14:32:56.338Z</time></trkpt><trkpt lat="47.25765525" lon="11.326019883333334"><ele>580.0</ele><time>2026-05-01T14:32:57.347Z</time></trkpt><trkpt lat="47.25785318333333" lon="11.3257898"><ele>580.0</ele><time>2026-05-01T14:32:58.349Z</time></trkpt><trkpt lat="47.25805301666666" lon="11.3255658"><ele>579.0</ele><time>2026-05-01T14:32:59.332Z</time></trkpt><trkpt lat="47.25825595" lon="11.325346733333333"><ele>578.0</ele><time>2026-05-01T14:33:00.347Z</time></trkpt><trkpt lat="47.258458166666664" lon="11.32512995"><ele>578.0</ele><time>2026-05-01T14:33:01.329Z</time></trkpt><trkpt lat="47.25866214999999" lon="11.324916366666665"><ele>578.0</ele><time>2026-05-01T14:33:02.352Z</time></trkpt><trkpt lat="47.25886663333334" lon="11.324704933333331"><ele>578.5</ele><time>2026-05-01T14:33:03.344Z</time></trkpt><trkpt lat="47.25906928333334" lon="11.324491550000001"><ele>579.0</ele><time>2026-05-01T14:33:04.332Z</time></trkpt><trkpt lat="47.259270550000004" lon="11.324281599999999"><ele>579.0</ele><time>2026-05-01T14:33:05.333Z</time></trkpt><trkpt lat="47.25947325" lon="11.32407255"><ele>579.0</ele><time>2026-05-01T14:33:06.344Z</time></trkpt><trkpt lat="47.259674366666665" lon="11.323861866666668"><ele>580.0</ele><time>2026-05-01T14:33:07.346Z</time></trkpt><trkpt lat="47.2598743" lon="11.323651066666665"><ele>581.0</ele><time>2026-05-01T14:33:08.347Z</time></trkpt><trkpt lat="47.2600714" lon="11.323435866666667"><ele>581.0</ele><time>2026-05-01T14:33:09.346Z</time></trkpt><trkpt lat="47.26027040000001" lon="11.323219616666666"><ele>581.0</ele><time>2026-05-01T14:33:10.346Z</time></trkpt><trkpt lat="47.26047606666666" lon="11.323011716666667"><ele>582.5</ele><time>2026-05-01T14:33:11.352Z</time></trkpt><trkpt lat="47.26068541666667" lon="11.322799666666668"><ele>584.0</ele><time>2026-05-01T14:33:12.347Z</time></trkpt><trkpt lat="47.26088714999999" lon="11.322578500000002"><ele>584.0</ele><time>2026-05-01T14:33:13.332Z</time></trkpt><trkpt lat="47.26108378333333" lon="11.322354466666665"><ele>584.0</ele><time>2026-05-01T14:33:14.333Z</time></trkpt><trkpt lat="47.26127544999999" lon="11.322120416666666"><ele>583.0</ele><time>2026-05-01T14:33:15.351Z</time></trkpt><trkpt lat="47.261466516666665" lon="11.321882716666668"><ele>582.0</ele><time>2026-05-01T14:33:16.346Z</time></trkpt><trkpt lat="47.261652350000006" lon="11.321637333333335"><ele>582.0</ele><time>2026-05-01T14:33:17.333Z</time></trkpt><trkpt lat="47.26183426666667" lon="11.321382783333336"><ele>582.0</ele><time>2026-05-01T14:33:18.375Z</time></trkpt><trkpt lat="47.26201103333333" lon="11.321114383333333"><ele>582.0</ele><time>2026-05-01T14:33:19.34Z</time></trkpt><trkpt lat="47.262182716666665" lon="11.320838383333333"><ele>582.0</ele><time>2026-05-01T14:33:20.327Z</time></trkpt><trkpt lat="47.26234911666667" lon="11.3205542"><ele>581.5</ele><time>2026-05-01T14:33:21.34Z</time></trkpt><trkpt lat="47.26251195" lon="11.320261449999999"><ele>581.0</ele><time>2026-05-01T14:33:22.345Z</time></trkpt><trkpt lat="47.262668783333325" lon="11.3199661"><ele>581.5</ele><time>2026-05-01T14:33:23.371Z</time></trkpt><trkpt lat="47.26281925" lon="11.319659416666665"><ele>582.0</ele><time>2026-05-01T14:33:24.346Z</time></trkpt><trkpt lat="47.26296295" lon="11.319345349999999"><ele>582.0</ele><time>2026-05-01T14:33:25.346Z</time></trkpt><trkpt lat="47.26309953333333" lon="11.319022449999999"><ele>582.0</ele><time>2026-05-01T14:33:26.333Z</time></trkpt><trkpt lat="47.26323023333333" lon="11.318689616666665"><ele>581.5</ele><time>2026-05-01T14:33:27.364Z</time></trkpt><trkpt lat="47.26335525" lon="11.318347433333335"><ele>581.0</ele><time>2026-05-01T14:33:28.348Z</time></trkpt><trkpt lat="47.263471200000005" lon="11.318004816666667"><ele>581.0</ele><time>2026-05-01T14:33:29.342Z</time></trkpt><trkpt lat="47.26358158333334" lon="11.317658566666667"><ele>581.0</ele><time>2026-05-01T14:33:30.346Z</time></trkpt><trkpt lat="47.263684566666676" lon="11.317310483333332"><ele>580.5</ele><time>2026-05-01T14:33:31.347Z</time></trkpt><trkpt lat="47.26378043333334" lon="11.316954133333335"><ele>580.0</ele><time>2026-05-01T14:33:32.351Z</time></trkpt><trkpt lat="47.26386651666667" lon="11.316592016666666"><ele>580.0</ele><time>2026-05-01T14:33:33.344Z</time></trkpt><trkpt lat="47.26394456666667" lon="11.3162269"><ele>580.0</ele><time>2026-05-01T14:33:34.349Z</time></trkpt><trkpt lat="47.264014816666666" lon="11.31585745"><ele>581.5</ele><time>2026-05-01T14:33:35.332Z</time></trkpt><trkpt lat="47.26407586666666" lon="11.315485216666666"><ele>583.0</ele><time>2026-05-01T14:33:36.34Z</time></trkpt><trkpt lat="47.2641322" lon="11.31511021666667"><ele>582.5</ele><time>2026-05-01T14:33:37.328Z</time></trkpt><trkpt lat="47.26418058333334" lon="11.314732883333333"><ele>582.0</ele><time>2026-05-01T14:33:38.333Z</time></trkpt><trkpt lat="47.26421938333333" lon="11.314350000000001"><ele>582.0</ele><time>2026-05-01T14:33:39.343Z</time></trkpt><trkpt lat="47.2642485" lon="11.313964083333333"><ele>582.0</ele><time>2026-05-01T14:33:40.348Z</time></trkpt><trkpt lat="47.264271133333324" lon="11.313579583333334"><ele>581.5</ele><time>2026-05-01T14:33:41.345Z</time></trkpt><trkpt lat="47.264284333333336" lon="11.313195833333335"><ele>581.0</ele><time>2026-05-01T14:33:42.345Z</time></trkpt><trkpt lat="47.264290200000005" lon="11.312810249999998"><ele>582.5</ele><time>2026-05-01T14:33:43.35Z</time></trkpt><trkpt lat="47.2642906" lon="11.312426483333335"><ele>584.0</ele><time>2026-05-01T14:33:44.339Z</time></trkpt><trkpt lat="47.26428733333334" lon="11.312044566666668"><ele>584.0</ele><time>2026-05-01T14:33:45.33Z</time></trkpt><trkpt lat="47.26427633333333" lon="11.311664450000002"><ele>584.0</ele><time>2026-05-01T14:33:46.346Z</time></trkpt><trkpt lat="47.26426101666666" lon="11.31128225"><ele>583.0</ele><time>2026-05-01T14:33:47.351Z</time></trkpt><trkpt lat="47.26424306666666" lon="11.310901066666668"><ele>582.0</ele><time>2026-05-01T14:33:48.343Z</time></trkpt><trkpt lat="47.264221933333324" lon="11.31052185"><ele>581.0</ele><time>2026-05-01T14:33:49.33Z</time></trkpt><trkpt lat="47.264199850000004" lon="11.310142166666667"><ele>580.0</ele><time>2026-05-01T14:33:50.354Z</time></trkpt><trkpt lat="47.264174749999995" lon="11.30976285"><ele>580.0</ele><time>2026-05-01T14:33:51.35Z</time></trkpt><trkpt lat="47.26415071666667" lon="11.309382300000001"><ele>580.0</ele><time>2026-05-01T14:33:52.345Z</time></trkpt><trkpt lat="47.264126166666664" lon="11.309002749999998"><ele>580.5</ele><time>2026-05-01T14:33:53.336Z</time></trkpt><trkpt lat="47.26409818333334" lon="11.308621650000003"><ele>581.0</ele><time>2026-05-01T14:33:54.329Z</time></trkpt><trkpt lat="47.26406815000001" lon="11.30824365"><ele>582.0</ele><time>2026-05-01T14:33:55.33Z</time></trkpt><trkpt lat="47.26404191666668" lon="11.307863166666667"><ele>583.0</ele><time>2026-05-01T14:33:56.337Z</time></trkpt><trkpt lat="47.26401510000001" lon="11.307481866666668"><ele>584.0</ele><time>2026-05-01T14:33:57.345Z</time></trkpt><trkpt lat="47.26398501666666" lon="11.307101516666668"><ele>585.0</ele><time>2026-05-01T14:33:58.352Z</time></trkpt><trkpt lat="47.26395659999999" lon="11.306718333333334"><ele>584.5</ele><time>2026-05-01T14:33:59.33Z</time></trkpt><trkpt lat="47.26392968333333" lon="11.306333416666668"><ele>584.0</ele><time>2026-05-01T14:34:00.341Z</time></trkpt><trkpt lat="47.26390058333333" lon="11.305948200000001"><ele>583.0</ele><time>2026-05-01T14:34:01.33Z</time></trkpt><trkpt lat="47.263867299999994" lon="11.305562833333333"><ele>582.0</ele><time>2026-05-01T14:34:02.352Z</time></trkpt><trkpt lat="47.2638335" lon="11.305178450000001"><ele>582.0</ele><time>2026-05-01T14:34:03.33Z</time></trkpt><trkpt lat="47.2638024" lon="11.304795100000002"><ele>582.0</ele><time>2026-05-01T14:34:04.335Z</time></trkpt><trkpt lat="47.263775933333335" lon="11.304411016666666"><ele>581.5</ele><time>2026-05-01T14:34:05.352Z</time></trkpt><trkpt lat="47.263748666666665" lon="11.30402475"><ele>581.0</ele><time>2026-05-01T14:34:06.359Z</time></trkpt><trkpt lat="47.263720799999994" lon="11.3036415"><ele>582.0</ele><time>2026-05-01T14:34:07.372Z</time></trkpt><trkpt lat="47.26369081666667" lon="11.3032554"><ele>583.0</ele><time>2026-05-01T14:34:08.394Z</time></trkpt><trkpt lat="47.263663483333325" lon="11.302865350000001"><ele>583.0</ele><time>2026-05-01T14:34:09.341Z</time></trkpt><trkpt lat="47.263635683333334" lon="11.302478316666669"><ele>583.0</ele><time>2026-05-01T14:34:10.33Z</time></trkpt><trkpt lat="47.26360738333332" lon="11.302090433333333"><ele>583.5</ele><time>2026-05-01T14:34:11.372Z</time></trkpt><trkpt lat="47.26357783333333" lon="11.3017001"><ele>584.0</ele><time>2026-05-01T14:34:12.34Z</time></trkpt><trkpt lat="47.26354898333334" lon="11.301310683333334"><ele>585.0</ele><time>2026-05-01T14:34:13.345Z</time></trkpt><trkpt lat="47.263519983333325" lon="11.300921666666666"><ele>586.0</ele><time>2026-05-01T14:34:14.348Z</time></trkpt><trkpt lat="47.26349118333332" lon="11.300531566666667"><ele>586.5</ele><time>2026-05-01T14:34:15.341Z</time></trkpt><trkpt lat="47.2634645" lon="11.30014245"><ele>587.0</ele><time>2026-05-01T14:34:16.344Z</time></trkpt><trkpt lat="47.26343716666667" lon="11.299752450000002"><ele>586.5</ele><time>2026-05-01T14:34:17.344Z</time></trkpt><trkpt lat="47.263409083333336" lon="11.29936211666667"><ele>586.0</ele><time>2026-05-01T14:34:18.341Z</time></trkpt><trkpt lat="47.26338113333333" lon="11.298973233333333"><ele>585.0</ele><time>2026-05-01T14:34:19.344Z</time></trkpt><trkpt lat="47.26335313333334" lon="11.2985836"><ele>584.0</ele><time>2026-05-01T14:34:20.348Z</time></trkpt><trkpt lat="47.26332543333333" lon="11.298193216666668"><ele>583.5</ele><time>2026-05-01T14:34:21.341Z</time></trkpt><trkpt lat="47.2632958" lon="11.297806283333333"><ele>583.0</ele><time>2026-05-01T14:34:22.335Z</time></trkpt><trkpt lat="47.26326505000001" lon="11.297417883333333"><ele>584.0</ele><time>2026-05-01T14:34:23.338Z</time></trkpt><trkpt lat="47.26323628333333" lon="11.297030816666666"><ele>585.0</ele><time>2026-05-01T14:34:24.341Z</time></trkpt><trkpt lat="47.26320665" lon="11.296644233333332"><ele>584.5</ele><time>2026-05-01T14:34:25.344Z</time></trkpt><trkpt lat="47.263177899999995" lon="11.296258633333332"><ele>584.0</ele><time>2026-05-01T14:34:26.333Z</time></trkpt><trkpt lat="47.26315188333333" lon="11.295875433333332"><ele>584.0</ele><time>2026-05-01T14:34:27.341Z</time></trkpt><trkpt lat="47.2631239" lon="11.295489700000001"><ele>584.0</ele><time>2026-05-01T14:34:28.347Z</time></trkpt><trkpt lat="47.26309646666667" lon="11.295103083333334"><ele>583.5</ele><time>2026-05-01T14:34:29.334Z</time></trkpt><trkpt lat="47.2630729" lon="11.2947179"><ele>583.0</ele><time>2026-05-01T14:34:30.344Z</time></trkpt><trkpt lat="47.26305211666666" lon="11.294332550000002"><ele>583.0</ele><time>2026-05-01T14:34:31.331Z</time></trkpt><trkpt lat="47.263032566666666" lon="11.293945033333333"><ele>583.0</ele><time>2026-05-01T14:34:32.349Z</time></trkpt><trkpt lat="47.2630153" lon="11.293557116666667"><ele>583.5</ele><time>2026-05-01T14:34:33.345Z</time></trkpt><trkpt lat="47.263004249999994" lon="11.293170883333334"><ele>584.0</ele><time>2026-05-01T14:34:34.344Z</time></trkpt><trkpt lat="47.262999166666674" lon="11.292783733333332"><ele>584.0</ele><time>2026-05-01T14:34:35.332Z</time></trkpt><trkpt lat="47.26299946666666" lon="11.29239385"><ele>584.0</ele><time>2026-05-01T14:34:36.342Z</time></trkpt><trkpt lat="47.26300675000001" lon="11.2920087"><ele>584.5</ele><time>2026-05-01T14:34:37.345Z</time></trkpt><trkpt lat="47.26301913333333" lon="11.291637383333333"><ele>585.0</ele><time>2026-05-01T14:34:38.339Z</time></trkpt><trkpt lat="47.263036799999995" lon="11.291281483333334"><ele>586.0</ele><time>2026-05-01T14:34:39.338Z</time></trkpt><trkpt lat="47.263059999999996" lon="11.2909311"><ele>587.0</ele><time>2026-05-01T14:34:40.332Z</time></trkpt><trkpt lat="47.2630886" lon="11.290582683333334"><ele>587.5</ele><time>2026-05-01T14:34:41.349Z</time></trkpt><trkpt lat="47.263124966666666" lon="11.290234733333333"><ele>588.0</ele><time>2026-05-01T14:34:42.341Z</time></trkpt><trkpt lat="47.26316815" lon="11.289891783333333"><ele>588.0</ele><time>2026-05-01T14:34:43.346Z</time></trkpt><trkpt lat="47.26321728333334" lon="11.289556816666668"><ele>588.0</ele><time>2026-05-01T14:34:44.341Z</time></trkpt><trkpt lat="47.263273016666666" lon="11.289221516666666"><ele>587.5</ele><time>2026-05-01T14:34:45.344Z</time></trkpt><trkpt lat="47.26333289999999" lon="11.288888616666668"><ele>587.0</ele><time>2026-05-01T14:34:46.343Z</time></trkpt><trkpt lat="47.26339814999999" lon="11.288559133333335"><ele>587.0</ele><time>2026-05-01T14:34:47.348Z</time></trkpt><trkpt lat="47.26346688333333" lon="11.288234150000001"><ele>587.0</ele><time>2026-05-01T14:34:48.343Z</time></trkpt><trkpt lat="47.26354375" lon="11.287909200000001"><ele>586.0</ele><time>2026-05-01T14:34:49.332Z</time></trkpt><trkpt lat="47.263627650000004" lon="11.287590366666665"><ele>585.0</ele><time>2026-05-01T14:34:50.33Z</time></trkpt><trkpt lat="47.26371420000001" lon="11.287271366666667"><ele>584.5</ele><time>2026-05-01T14:34:51.341Z</time></trkpt><trkpt lat="47.263799850000005" lon="11.286954"><ele>584.0</ele><time>2026-05-01T14:34:52.348Z</time></trkpt><trkpt lat="47.263889299999995" lon="11.286639099999999"><ele>585.5</ele><time>2026-05-01T14:34:53.33Z</time></trkpt><trkpt lat="47.26398134999999" lon="11.286324683333332"><ele>587.0</ele><time>2026-05-01T14:34:54.376Z</time></trkpt><trkpt lat="47.26407825" lon="11.286009433333334"><ele>587.0</ele><time>2026-05-01T14:34:55.345Z</time></trkpt><trkpt lat="47.26417893333334" lon="11.285697616666667"><ele>587.0</ele><time>2026-05-01T14:34:56.348Z</time></trkpt><trkpt lat="47.26428131666667" lon="11.285385750000001"><ele>587.5</ele><time>2026-05-01T14:34:57.341Z</time></trkpt><trkpt lat="47.26438374999999" lon="11.285070166666667"><ele>588.0</ele><time>2026-05-01T14:34:58.346Z</time></trkpt><trkpt lat="47.26448526666666" lon="11.284749833333334"><ele>587.0</ele><time>2026-05-01T14:34:59.334Z</time></trkpt><trkpt lat="47.26458478333334" lon="11.284426216666668"><ele>586.0</ele><time>2026-05-01T14:35:00.341Z</time></trkpt><trkpt lat="47.264678833333335" lon="11.28409905"><ele>584.5</ele><time>2026-05-01T14:35:01.343Z</time></trkpt><trkpt lat="47.264772233333325" lon="11.283767416666667"><ele>583.0</ele><time>2026-05-01T14:35:02.348Z</time></trkpt><trkpt lat="47.264861" lon="11.283433700000002"><ele>585.5</ele><time>2026-05-01T14:35:03.353Z</time></trkpt><trkpt lat="47.264945950000005" lon="11.283096433333334"><ele>588.0</ele><time>2026-05-01T14:35:04.344Z</time></trkpt><trkpt lat="47.265028683333334" lon="11.282756633333333"><ele>588.0</ele><time>2026-05-01T14:35:05.352Z</time></trkpt><trkpt lat="47.26510461666667" lon="11.282414600000001"><ele>588.0</ele><time>2026-05-01T14:35:06.341Z</time></trkpt><trkpt lat="47.2651738" lon="11.282069400000001"><ele>587.5</ele><time>2026-05-01T14:35:07.347Z</time></trkpt><trkpt lat="47.2652359" lon="11.281719316666667"><ele>587.0</ele><time>2026-05-01T14:35:08.342Z</time></trkpt><trkpt lat="47.26529073333333" lon="11.2813673"><ele>588.0</ele><time>2026-05-01T14:35:09.341Z</time></trkpt><trkpt lat="47.26533955" lon="11.281014149999997"><ele>589.0</ele><time>2026-05-01T14:35:10.343Z</time></trkpt><trkpt lat="47.26538501666667" lon="11.280658566666668"><ele>589.0</ele><time>2026-05-01T14:35:11.364Z</time></trkpt><trkpt lat="47.26542483333333" lon="11.280298816666667"><ele>589.0</ele><time>2026-05-01T14:35:12.339Z</time></trkpt><trkpt lat="47.265458083333336" lon="11.279937483333335"><ele>589.0</ele><time>2026-05-01T14:35:13.345Z</time></trkpt><trkpt lat="47.26548158333333" lon="11.279574866666666"><ele>589.0</ele><time>2026-05-01T14:35:14.348Z</time></trkpt><trkpt lat="47.26549768333333" lon="11.279212099999999"><ele>588.5</ele><time>2026-05-01T14:35:15.338Z</time></trkpt><trkpt lat="47.265508066666676" lon="11.278845933333331"><ele>588.0</ele><time>2026-05-01T14:35:16.343Z</time></trkpt><trkpt lat="47.26551346666667" lon="11.278478866666669"><ele>588.0</ele><time>2026-05-01T14:35:17.349Z</time></trkpt><trkpt lat="47.265511749999995" lon="11.278111133333335"><ele>588.0</ele><time>2026-05-01T14:35:18.345Z</time></trkpt><trkpt lat="47.26550351666666" lon="11.277741733333334"><ele>587.0</ele><time>2026-05-01T14:35:19.353Z</time></trkpt><trkpt lat="47.2654901" lon="11.277370416666669"><ele>586.0</ele><time>2026-05-01T14:35:20.33Z</time></trkpt><trkpt lat="47.26547178333333" lon="11.277002116666665"><ele>586.0</ele><time>2026-05-01T14:35:21.341Z</time></trkpt><trkpt lat="47.265451266666666" lon="11.276633816666665"><ele>586.0</ele><time>2026-05-01T14:35:22.345Z</time></trkpt><trkpt lat="47.26542708333333" lon="11.276261916666666"><ele>586.0</ele><time>2026-05-01T14:35:23.354Z</time></trkpt><trkpt lat="47.26540045" lon="11.27589223333333"><ele>586.0</ele><time>2026-05-01T14:35:24.342Z</time></trkpt><trkpt lat="47.265372049999996" lon="11.275522783333335"><ele>586.0</ele><time>2026-05-01T14:35:25.343Z</time></trkpt><trkpt lat="47.26533971666667" lon="11.275152516666665"><ele>586.0</ele><time>2026-05-01T14:35:26.354Z</time></trkpt><trkpt lat="47.26530533333333" lon="11.274779133333334"><ele>587.5</ele><time>2026-05-01T14:35:27.344Z</time></trkpt><trkpt lat="47.265270616666676" lon="11.274402899999998"><ele>589.0</ele><time>2026-05-01T14:35:28.345Z</time></trkpt><trkpt lat="47.265237633333335" lon="11.2740245"><ele>589.0</ele><time>2026-05-01T14:35:29.353Z</time></trkpt><trkpt lat="47.26520498333332" lon="11.273645816666665"><ele>589.0</ele><time>2026-05-01T14:35:30.342Z</time></trkpt><trkpt lat="47.26517521666666" lon="11.273266166666668"><ele>589.5</ele><time>2026-05-01T14:35:31.33Z</time></trkpt><trkpt lat="47.26514631666667" lon="11.2728836"><ele>590.0</ele><time>2026-05-01T14:35:32.348Z</time></trkpt><trkpt lat="47.26511803333333" lon="11.272502716666668"><ele>589.0</ele><time>2026-05-01T14:35:33.34Z</time></trkpt><trkpt lat="47.26509053333333" lon="11.2721198"><ele>588.0</ele><time>2026-05-01T14:35:34.356Z</time></trkpt><trkpt lat="47.26506535000001" lon="11.271735966666666"><ele>589.5</ele><time>2026-05-01T14:35:35.331Z</time></trkpt><trkpt lat="47.26504301666667" lon="11.271354149999999"><ele>591.0</ele><time>2026-05-01T14:35:36.339Z</time></trkpt><trkpt lat="47.2650253" lon="11.27097406666667"><ele>591.5</ele><time>2026-05-01T14:35:37.343Z</time></trkpt><trkpt lat="47.26501278333333" lon="11.270593983333333"><ele>592.0</ele><time>2026-05-01T14:35:38.351Z</time></trkpt><trkpt lat="47.26500333333333" lon="11.270215866666668"><ele>592.0</ele><time>2026-05-01T14:35:39.347Z</time></trkpt><trkpt lat="47.26499708333334" lon="11.269837966666667"><ele>592.0</ele><time>2026-05-01T14:35:40.343Z</time></trkpt><trkpt lat="47.264993616666665" lon="11.26946245"><ele>592.5</ele><time>2026-05-01T14:35:41.334Z</time></trkpt><trkpt lat="47.264990833333336" lon="11.269088983333331"><ele>593.0</ele><time>2026-05-01T14:35:42.338Z</time></trkpt><trkpt lat="47.264991983333324" lon="11.268719199999998"><ele>593.5</ele><time>2026-05-01T14:35:43.345Z</time></trkpt><trkpt lat="47.26499861666666" lon="11.268350466666666"><ele>594.0</ele><time>2026-05-01T14:35:44.343Z</time></trkpt><trkpt lat="47.265005933333335" lon="11.26798395"><ele>592.5</ele><time>2026-05-01T14:35:45.341Z</time></trkpt><trkpt lat="47.26501613333333" lon="11.2676173"><ele>591.0</ele><time>2026-05-01T14:35:46.343Z</time></trkpt><trkpt lat="47.26502705" lon="11.267252716666667"><ele>591.0</ele><time>2026-05-01T14:35:47.348Z</time></trkpt><trkpt lat="47.26503608333334" lon="11.266889883333333"><ele>591.0</ele><time>2026-05-01T14:35:48.351Z</time></trkpt><trkpt lat="47.26504536666666" lon="11.266529749999998"><ele>591.0</ele><time>2026-05-01T14:35:49.35Z</time></trkpt><trkpt lat="47.265052916666676" lon="11.266169850000002"><ele>591.0</ele><time>2026-05-01T14:35:50.348Z</time></trkpt><trkpt lat="47.26505695000001" lon="11.265811716666667"><ele>591.5</ele><time>2026-05-01T14:35:51.342Z</time></trkpt><trkpt lat="47.265064699999996" lon="11.265453899999999"><ele>592.0</ele><time>2026-05-01T14:35:52.352Z</time></trkpt><trkpt lat="47.265073566666665" lon="11.265091433333335"><ele>592.5</ele><time>2026-05-01T14:35:53.345Z</time></trkpt><trkpt lat="47.2650816" lon="11.2647292"><ele>593.0</ele><time>2026-05-01T14:35:54.34Z</time></trkpt><trkpt lat="47.26508526666667" lon="11.264363733333335"><ele>593.0</ele><time>2026-05-01T14:35:55.343Z</time></trkpt><trkpt lat="47.265086466666666" lon="11.263995599999998"><ele>593.0</ele><time>2026-05-01T14:35:56.348Z</time></trkpt><trkpt lat="47.265084849999994" lon="11.263627333333334"><ele>592.5</ele><time>2026-05-01T14:35:57.349Z</time></trkpt><trkpt lat="47.26507750000001" lon="11.263258966666667"><ele>592.0</ele><time>2026-05-01T14:35:58.364Z</time></trkpt><trkpt lat="47.26506561666667" lon="11.262889733333335"><ele>593.0</ele><time>2026-05-01T14:35:59.348Z</time></trkpt><trkpt lat="47.26504933333334" lon="11.262523649999999"><ele>594.0</ele><time>2026-05-01T14:36:00.344Z</time></trkpt><trkpt lat="47.26502888333333" lon="11.262156249999999"><ele>595.0</ele><time>2026-05-01T14:36:01.352Z</time></trkpt><trkpt lat="47.26500055" lon="11.26179395"><ele>596.0</ele><time>2026-05-01T14:36:02.338Z</time></trkpt><trkpt lat="47.264973600000005" lon="11.261435866666666"><ele>596.0</ele><time>2026-05-01T14:36:03.34Z</time></trkpt><trkpt lat="47.264944216666656" lon="11.261077416666668"><ele>596.0</ele><time>2026-05-01T14:36:04.343Z</time></trkpt><trkpt lat="47.26490251666667" lon="11.26071695"><ele>597.0</ele><time>2026-05-01T14:36:05.348Z</time></trkpt><trkpt lat="47.26485576666667" lon="11.260356083333335"><ele>598.0</ele><time>2026-05-01T14:36:06.34Z</time></trkpt><trkpt lat="47.26480544999999" lon="11.259994366666668"><ele>596.0</ele><time>2026-05-01T14:36:07.329Z</time></trkpt><trkpt lat="47.26474916666666" lon="11.2596357"><ele>594.0</ele><time>2026-05-01T14:36:08.354Z</time></trkpt><trkpt lat="47.26468768333334" lon="11.25927855"><ele>594.0</ele><time>2026-05-01T14:36:09.342Z</time></trkpt><trkpt lat="47.2646222" lon="11.258921500000001"><ele>594.0</ele><time>2026-05-01T14:36:10.343Z</time></trkpt><trkpt lat="47.264551600000004" lon="11.258566266666666"><ele>594.0</ele><time>2026-05-01T14:36:11.336Z</time></trkpt><trkpt lat="47.26447745" lon="11.258212766666668"><ele>594.0</ele><time>2026-05-01T14:36:12.345Z</time></trkpt><trkpt lat="47.26439748333334" lon="11.2578592"><ele>594.5</ele><time>2026-05-01T14:36:13.343Z</time></trkpt><trkpt lat="47.2643112" lon="11.257506666666666"><ele>595.0</ele><time>2026-05-01T14:36:14.33Z</time></trkpt><trkpt lat="47.264221433333326" lon="11.257154233333331"><ele>596.0</ele><time>2026-05-01T14:36:15.348Z</time></trkpt><trkpt lat="47.264126516666664" lon="11.256807800000002"><ele>597.0</ele><time>2026-05-01T14:36:16.333Z</time></trkpt><trkpt lat="47.26402566666667" lon="11.25646415"><ele>593.5</ele><time>2026-05-01T14:36:17.348Z</time></trkpt><trkpt lat="47.263918700000005" lon="11.256118383333334"><ele>590.0</ele><time>2026-05-01T14:36:18.343Z</time></trkpt><trkpt lat="47.263806300000006" lon="11.255776933333333"><ele>592.5</ele><time>2026-05-01T14:36:19.343Z</time></trkpt><trkpt lat="47.26368996666667" lon="11.255434733333333"><ele>595.0</ele><time>2026-05-01T14:36:20.335Z</time></trkpt><trkpt lat="47.263570516666675" lon="11.255095833333334"><ele>597.0</ele><time>2026-05-01T14:36:21.342Z</time></trkpt><trkpt lat="47.2634492" lon="11.254756616666668"><ele>599.0</ele><time>2026-05-01T14:36:22.346Z</time></trkpt><trkpt lat="47.26332813333334" lon="11.25441548333333"><ele>599.0</ele><time>2026-05-01T14:36:23.348Z</time></trkpt><trkpt lat="47.26320609999999" lon="11.254076583333331"><ele>599.0</ele><time>2026-05-01T14:36:24.342Z</time></trkpt><trkpt lat="47.263081783333334" lon="11.25374191666667"><ele>597.5</ele><time>2026-05-01T14:36:25.339Z</time></trkpt><trkpt lat="47.262958366666666" lon="11.253407366666666"><ele>596.0</ele><time>2026-05-01T14:36:26.329Z</time></trkpt><trkpt lat="47.262833150000006" lon="11.253070849999999"><ele>596.0</ele><time>2026-05-01T14:36:27.343Z</time></trkpt><trkpt lat="47.26270649999999" lon="11.252731283333334"><ele>596.0</ele><time>2026-05-01T14:36:28.348Z</time></trkpt><trkpt lat="47.262584233333335" lon="11.252390183333333"><ele>595.5</ele><time>2026-05-01T14:36:29.334Z</time></trkpt><trkpt lat="47.262466399999994" lon="11.252049499999998"><ele>595.0</ele><time>2026-05-01T14:36:30.347Z</time></trkpt><trkpt lat="47.26235516666667" lon="11.251705033333334"><ele>593.0</ele><time>2026-05-01T14:36:31.345Z</time></trkpt><trkpt lat="47.26225298333333" lon="11.25135275"><ele>591.0</ele><time>2026-05-01T14:36:32.348Z</time></trkpt><trkpt lat="47.26215598333334" lon="11.250996266666668"><ele>591.0</ele><time>2026-05-01T14:36:33.344Z</time></trkpt><trkpt lat="47.26206735" lon="11.250638333333333"><ele>591.0</ele><time>2026-05-01T14:36:34.346Z</time></trkpt><trkpt lat="47.26198553333334" lon="11.250281700000002"><ele>590.5</ele><time>2026-05-01T14:36:35.35Z</time></trkpt><trkpt lat="47.26191471666666" lon="11.249920783333334"><ele>590.0</ele><time>2026-05-01T14:36:36.347Z</time></trkpt><trkpt lat="47.261851283333336" lon="11.249558883333334"><ele>590.5</ele><time>2026-05-01T14:36:37.347Z</time></trkpt><trkpt lat="47.26179221666666" lon="11.249193133333332"><ele>591.0</ele><time>2026-05-01T14:36:38.352Z</time></trkpt><trkpt lat="47.26173983333333" lon="11.24882695"><ele>591.0</ele><time>2026-05-01T14:36:39.356Z</time></trkpt><trkpt lat="47.26169893333334" lon="11.248460883333333"><ele>591.0</ele><time>2026-05-01T14:36:40.345Z</time></trkpt><trkpt lat="47.26166525000001" lon="11.248092983333335"><ele>591.5</ele><time>2026-05-01T14:36:41.348Z</time></trkpt><trkpt lat="47.26164066666667" lon="11.247724616666668"><ele>592.0</ele><time>2026-05-01T14:36:42.339Z</time></trkpt><trkpt lat="47.26162278333333" lon="11.247353433333334"><ele>590.5</ele><time>2026-05-01T14:36:43.349Z</time></trkpt><trkpt lat="47.261612666666664" lon="11.246981833333333"><ele>589.0</ele><time>2026-05-01T14:36:44.33Z</time></trkpt><trkpt lat="47.26161435" lon="11.246605383333334"><ele>590.5</ele><time>2026-05-01T14:36:45.343Z</time></trkpt><trkpt lat="47.261626616666675" lon="11.246226966666667"><ele>592.0</ele><time>2026-05-01T14:36:46.348Z</time></trkpt><trkpt lat="47.26164608333333" lon="11.245850216666666"><ele>593.0</ele><time>2026-05-01T14:36:47.349Z</time></trkpt><trkpt lat="47.2616685" lon="11.245473983333332"><ele>594.0</ele><time>2026-05-01T14:36:48.342Z</time></trkpt><trkpt lat="47.261698166666676" lon="11.245094349999999"><ele>593.0</ele><time>2026-05-01T14:36:49.346Z</time></trkpt><trkpt lat="47.26173738333333" lon="11.244713950000001"><ele>592.0</ele><time>2026-05-01T14:36:50.352Z</time></trkpt><trkpt lat="47.261785833333334" lon="11.244335366666668"><ele>593.0</ele><time>2026-05-01T14:36:51.342Z</time></trkpt><trkpt lat="47.261843633333335" lon="11.243958016666667"><ele>594.0</ele><time>2026-05-01T14:36:52.344Z</time></trkpt><trkpt lat="47.26190781666666" lon="11.243583566666667"><ele>594.0</ele><time>2026-05-01T14:36:53.33Z</time></trkpt><trkpt lat="47.26197646666666" lon="11.243208550000002"><ele>594.0</ele><time>2026-05-01T14:36:54.342Z</time></trkpt><trkpt lat="47.26204863333334" lon="11.242836766666668"><ele>598.0</ele><time>2026-05-01T14:36:55.344Z</time></trkpt><trkpt lat="47.26212303333334" lon="11.242466866666668"><ele>602.0</ele><time>2026-05-01T14:36:56.329Z</time></trkpt><trkpt lat="47.26220048333333" lon="11.242098216666667"><ele>598.0</ele><time>2026-05-01T14:36:57.344Z</time></trkpt><trkpt lat="47.26228168333334" lon="11.241733916666666"><ele>594.0</ele><time>2026-05-01T14:36:58.346Z</time></trkpt><trkpt lat="47.26236775000001" lon="11.241374933333335"><ele>594.0</ele><time>2026-05-01T14:36:59.342Z</time></trkpt><trkpt lat="47.26246174999999" lon="11.241020299999999"><ele>594.0</ele><time>2026-05-01T14:37:00.34Z</time></trkpt><trkpt lat="47.26255853333333" lon="11.240669066666666"><ele>595.0</ele><time>2026-05-01T14:37:01.329Z</time></trkpt><trkpt lat="47.262658316666666" lon="11.240322783333331"><ele>596.0</ele><time>2026-05-01T14:37:02.355Z</time></trkpt><trkpt lat="47.26276183333333" lon="11.239979266666667"><ele>596.5</ele><time>2026-05-01T14:37:03.34Z</time></trkpt><trkpt lat="47.2628698" lon="11.239645366666666"><ele>597.0</ele><time>2026-05-01T14:37:04.344Z</time></trkpt><trkpt lat="47.262983016666674" lon="11.239315516666666"><ele>597.0</ele><time>2026-05-01T14:37:05.35Z</time></trkpt><trkpt lat="47.263098366666654" lon="11.238990233333334"><ele>597.0</ele><time>2026-05-01T14:37:06.341Z</time></trkpt><trkpt lat="47.26321845000001" lon="11.238667716666665"><ele>597.0</ele><time>2026-05-01T14:37:07.35Z</time></trkpt><trkpt lat="47.26334221666666" lon="11.238348416666668"><ele>597.0</ele><time>2026-05-01T14:37:08.342Z</time></trkpt><trkpt lat="47.263468233333334" lon="11.238033733333335"><ele>597.0</ele><time>2026-05-01T14:37:09.342Z</time></trkpt><trkpt lat="47.26359781666667" lon="11.237720000000003"><ele>597.0</ele><time>2026-05-01T14:37:10.33Z</time></trkpt><trkpt lat="47.26373136666666" lon="11.237405999999998"><ele>596.0</ele><time>2026-05-01T14:37:11.328Z</time></trkpt><trkpt lat="47.26386633333333" lon="11.237100416666665"><ele>595.0</ele><time>2026-05-01T14:37:12.349Z</time></trkpt><trkpt lat="47.264005016666665" lon="11.236798166666665"><ele>597.0</ele><time>2026-05-01T14:37:13.347Z</time></trkpt><trkpt lat="47.26414896666667" lon="11.2365005"><ele>599.0</ele><time>2026-05-01T14:37:14.35Z</time></trkpt><trkpt lat="47.264296583333326" lon="11.236206633333332"><ele>599.0</ele><time>2026-05-01T14:37:15.365Z</time></trkpt><trkpt lat="47.26444936666667" lon="11.235911916666664"><ele>599.0</ele><time>2026-05-01T14:37:16.343Z</time></trkpt><trkpt lat="47.264605749999994" lon="11.235618783333333"><ele>598.0</ele><time>2026-05-01T14:37:17.348Z</time></trkpt><trkpt lat="47.26476721666666" lon="11.23532896666667"><ele>597.0</ele><time>2026-05-01T14:37:18.343Z</time></trkpt><trkpt lat="47.26493083333333" lon="11.235038966666664"><ele>597.0</ele><time>2026-05-01T14:37:19.35Z</time></trkpt><trkpt lat="47.2651008" lon="11.234750166666666"><ele>597.0</ele><time>2026-05-01T14:37:20.343Z</time></trkpt><trkpt lat="47.26527598333334" lon="11.234466683333336"><ele>597.0</ele><time>2026-05-01T14:37:21.342Z</time></trkpt><trkpt lat="47.265455933333335" lon="11.234188633333334"><ele>597.0</ele><time>2026-05-01T14:37:22.345Z</time></trkpt><trkpt lat="47.26563866666667" lon="11.233914599999999"><ele>597.0</ele><time>2026-05-01T14:37:23.33Z</time></trkpt><trkpt lat="47.26582398333333" lon="11.233643633333335"><ele>597.0</ele><time>2026-05-01T14:37:24.339Z</time></trkpt><trkpt lat="47.26601278333333" lon="11.233377866666668"><ele>596.5</ele><time>2026-05-01T14:37:25.343Z</time></trkpt><trkpt lat="47.26620378333334" lon="11.233115600000001"><ele>596.0</ele><time>2026-05-01T14:37:26.349Z</time></trkpt><trkpt lat="47.26639888333334" lon="11.232864683333332"><ele>596.5</ele><time>2026-05-01T14:37:27.342Z</time></trkpt><trkpt lat="47.2665931" lon="11.232624033333332"><ele>597.0</ele><time>2026-05-01T14:37:28.346Z</time></trkpt><trkpt lat="47.26678531666666" lon="11.232385716666666"><ele>596.0</ele><time>2026-05-01T14:37:29.34Z</time></trkpt><trkpt lat="47.26697640000001" lon="11.232153666666667"><ele>595.0</ele><time>2026-05-01T14:37:30.345Z</time></trkpt><trkpt lat="47.267169616666656" lon="11.231926699999999"><ele>596.0</ele><time>2026-05-01T14:37:31.343Z</time></trkpt><trkpt lat="47.26736235" lon="11.23170575"><ele>597.0</ele><time>2026-05-01T14:37:32.348Z</time></trkpt><trkpt lat="47.267552949999995" lon="11.231485300000003"><ele>596.0</ele><time>2026-05-01T14:37:33.345Z</time></trkpt><trkpt lat="47.26774326666667" lon="11.231270616666665"><ele>595.0</ele><time>2026-05-01T14:37:34.365Z</time></trkpt><trkpt lat="47.2679317" lon="11.231057566666667"><ele>596.0</ele><time>2026-05-01T14:37:35.348Z</time></trkpt><trkpt lat="47.268120100000004" lon="11.230849000000001"><ele>597.0</ele><time>2026-05-01T14:37:36.349Z</time></trkpt><trkpt lat="47.26830828333333" lon="11.230640466666667"><ele>597.5</ele><time>2026-05-01T14:37:37.349Z</time></trkpt><trkpt lat="47.26849608333333" lon="11.230432383333335"><ele>598.0</ele><time>2026-05-01T14:37:38.334Z</time></trkpt><trkpt lat="47.26868386666666" lon="11.230219166666666"><ele>598.0</ele><time>2026-05-01T14:37:39.34Z</time></trkpt><trkpt lat="47.26887173333333" lon="11.23000335"><ele>598.0</ele><time>2026-05-01T14:37:40.344Z</time></trkpt><trkpt lat="47.2690557" lon="11.229775583333334"><ele>598.0</ele><time>2026-05-01T14:37:41.34Z</time></trkpt><trkpt lat="47.2692388" lon="11.229544316666667"><ele>598.0</ele><time>2026-05-01T14:37:42.345Z</time></trkpt><trkpt lat="47.26942354999999" lon="11.229315450000001"><ele>598.0</ele><time>2026-05-01T14:37:43.35Z</time></trkpt><trkpt lat="47.269604650000005" lon="11.22908538333333"><ele>598.0</ele><time>2026-05-01T14:37:44.35Z</time></trkpt><trkpt lat="47.26978378333333" lon="11.228851183333331"><ele>600.0</ele><time>2026-05-01T14:37:45.349Z</time></trkpt><trkpt lat="47.26996245" lon="11.228613600000001"><ele>602.0</ele><time>2026-05-01T14:37:46.346Z</time></trkpt><trkpt lat="47.27014216666666" lon="11.22836885"><ele>601.5</ele><time>2026-05-01T14:37:47.348Z</time></trkpt><trkpt lat="47.27032346666667" lon="11.228114483333332"><ele>601.0</ele><time>2026-05-01T14:37:48.34Z</time></trkpt><trkpt lat="47.27050773333334" lon="11.227849316666669"><ele>601.0</ele><time>2026-05-01T14:37:49.329Z</time></trkpt><trkpt lat="47.27068795" lon="11.22757515"><ele>601.0</ele><time>2026-05-01T14:37:50.334Z</time></trkpt><trkpt lat="47.270867916666674" lon="11.227293816666666"><ele>601.0</ele><time>2026-05-01T14:37:51.34Z</time></trkpt><trkpt lat="47.27104734999999" lon="11.227010533333331"><ele>601.0</ele><time>2026-05-01T14:37:52.337Z</time></trkpt><trkpt lat="47.27122878333333" lon="11.22672236666667"><ele>601.0</ele><time>2026-05-01T14:37:53.329Z</time></trkpt><trkpt lat="47.27140796666666" lon="11.226428466666666"><ele>601.0</ele><time>2026-05-01T14:37:54.343Z</time></trkpt><trkpt lat="47.271585" lon="11.226128566666667"><ele>601.0</ele><time>2026-05-01T14:37:55.35Z</time></trkpt><trkpt lat="47.27176151666666" lon="11.225824150000001"><ele>601.0</ele><time>2026-05-01T14:37:56.342Z</time></trkpt><trkpt lat="47.271934583333326" lon="11.225511533333334"><ele>600.0</ele><time>2026-05-01T14:37:57.342Z</time></trkpt><trkpt lat="47.27210503333334" lon="11.225192933333334"><ele>599.0</ele><time>2026-05-01T14:37:58.346Z</time></trkpt><trkpt lat="47.272273399999996" lon="11.224869166666668"><ele>599.0</ele><time>2026-05-01T14:37:59.338Z</time></trkpt><trkpt lat="47.272440499999995" lon="11.224537466666668"><ele>599.0</ele><time>2026-05-01T14:38:00.343Z</time></trkpt><trkpt lat="47.27260393333333" lon="11.224200783333332"><ele>599.0</ele><time>2026-05-01T14:38:01.334Z</time></trkpt><trkpt lat="47.27276404999999" lon="11.223859166666667"><ele>599.0</ele><time>2026-05-01T14:38:02.329Z</time></trkpt><trkpt lat="47.272920549999995" lon="11.223512750000001"><ele>599.0</ele><time>2026-05-01T14:38:03.341Z</time></trkpt><trkpt lat="47.273070633333326" lon="11.2231602"><ele>599.0</ele><time>2026-05-01T14:38:04.329Z</time></trkpt><trkpt lat="47.27321761666667" lon="11.22280615"><ele>599.5</ele><time>2026-05-01T14:38:05.349Z</time></trkpt><trkpt lat="47.27336268333333" lon="11.222448666666667"><ele>600.0</ele><time>2026-05-01T14:38:06.351Z</time></trkpt><trkpt lat="47.273505300000004" lon="11.222089983333335"><ele>599.0</ele><time>2026-05-01T14:38:07.345Z</time></trkpt><trkpt lat="47.27364205000001" lon="11.221726216666665"><ele>598.0</ele><time>2026-05-01T14:38:08.338Z</time></trkpt><trkpt lat="47.27377656666666" lon="11.221360683333334"><ele>598.0</ele><time>2026-05-01T14:38:09.341Z</time></trkpt><trkpt lat="47.27390821666666" lon="11.220993099999998"><ele>598.0</ele><time>2026-05-01T14:38:10.344Z</time></trkpt><trkpt lat="47.27403588333334" lon="11.220621733333333"><ele>598.0</ele><time>2026-05-01T14:38:11.35Z</time></trkpt><trkpt lat="47.27416131666667" lon="11.220247833333334"><ele>598.0</ele><time>2026-05-01T14:38:12.345Z</time></trkpt><trkpt lat="47.27428431666667" lon="11.219871016666666"><ele>598.5</ele><time>2026-05-01T14:38:13.354Z</time></trkpt><trkpt lat="47.274404133333334" lon="11.2194929"><ele>599.0</ele><time>2026-05-01T14:38:14.331Z</time></trkpt><trkpt lat="47.27452323333333" lon="11.219113133333334"><ele>598.0</ele><time>2026-05-01T14:38:15.355Z</time></trkpt><trkpt lat="47.27463785" lon="11.218731733333334"><ele>597.0</ele><time>2026-05-01T14:38:16.329Z</time></trkpt><trkpt lat="47.27474818333334" lon="11.218347866666667"><ele>598.5</ele><time>2026-05-01T14:38:17.334Z</time></trkpt><trkpt lat="47.27485685" lon="11.21796335"><ele>600.0</ele><time>2026-05-01T14:38:18.341Z</time></trkpt><trkpt lat="47.27496493333333" lon="11.217575333333333"><ele>600.5</ele><time>2026-05-01T14:38:19.348Z</time></trkpt><trkpt lat="47.275070233333324" lon="11.217187899999997"><ele>601.0</ele><time>2026-05-01T14:38:20.349Z</time></trkpt><trkpt lat="47.275174833333324" lon="11.216799499999997"><ele>600.5</ele><time>2026-05-01T14:38:21.342Z</time></trkpt><trkpt lat="47.27527661666666" lon="11.216413983333332"><ele>600.0</ele><time>2026-05-01T14:38:22.35Z</time></trkpt><trkpt lat="47.27537816666666" lon="11.216027666666665"><ele>598.5</ele><time>2026-05-01T14:38:23.352Z</time></trkpt><trkpt lat="47.27547785" lon="11.215641650000002"><ele>597.0</ele><time>2026-05-01T14:38:24.34Z</time></trkpt><trkpt lat="47.275574999999996" lon="11.215251966666663"><ele>599.5</ele><time>2026-05-01T14:38:25.35Z</time></trkpt><trkpt lat="47.27567513333334" lon="11.214865633333332"><ele>602.0</ele><time>2026-05-01T14:38:26.35Z</time></trkpt><trkpt lat="47.275777166666664" lon="11.214484433333334"><ele>602.0</ele><time>2026-05-01T14:38:27.362Z</time></trkpt><trkpt lat="47.27587738333333" lon="11.2141013"><ele>602.0</ele><time>2026-05-01T14:38:28.346Z</time></trkpt><trkpt lat="47.275975583333334" lon="11.213717316666667"><ele>602.0</ele><time>2026-05-01T14:38:29.326Z</time></trkpt><trkpt lat="47.276071183333336" lon="11.213334016666666"><ele>602.0</ele><time>2026-05-01T14:38:30.342Z</time></trkpt><trkpt lat="47.27616578333334" lon="11.212951916666668"><ele>602.0</ele><time>2026-05-01T14:38:31.343Z</time></trkpt><trkpt lat="47.27626064999999" lon="11.212571766666667"><ele>602.0</ele><time>2026-05-01T14:38:32.327Z</time></trkpt><trkpt lat="47.27635611666666" lon="11.212192133333334"><ele>601.5</ele><time>2026-05-01T14:38:33.341Z</time></trkpt><trkpt lat="47.2764495" lon="11.211814066666665"><ele>601.0</ele><time>2026-05-01T14:38:34.343Z</time></trkpt><trkpt lat="47.276540016666665" lon="11.211434866666666"><ele>600.5</ele><time>2026-05-01T14:38:35.331Z</time></trkpt><trkpt lat="47.2766298" lon="11.211056733333333"><ele>600.0</ele><time>2026-05-01T14:38:36.339Z</time></trkpt><trkpt lat="47.276720616666665" lon="11.210678183333334"><ele>600.0</ele><time>2026-05-01T14:38:37.329Z</time></trkpt><trkpt lat="47.27681429999999" lon="11.210301966666668"><ele>600.0</ele><time>2026-05-01T14:38:38.328Z</time></trkpt><trkpt lat="47.27691063333334" lon="11.209928633333334"><ele>600.5</ele><time>2026-05-01T14:38:39.343Z</time></trkpt><trkpt lat="47.27700825" lon="11.209555816666667"><ele>601.0</ele><time>2026-05-01T14:38:40.349Z</time></trkpt><trkpt lat="47.27710565" lon="11.20918365"><ele>600.5</ele><time>2026-05-01T14:38:41.332Z</time></trkpt><trkpt lat="47.277204499999996" lon="11.208813483333332"><ele>600.0</ele><time>2026-05-01T14:38:42.341Z</time></trkpt><trkpt lat="47.27730225" lon="11.20844365"><ele>601.0</ele><time>2026-05-01T14:38:43.345Z</time></trkpt><trkpt lat="47.27740098333334" lon="11.20807295"><ele>602.0</ele><time>2026-05-01T14:38:44.335Z</time></trkpt><trkpt lat="47.27749963333334" lon="11.207704316666666"><ele>602.0</ele><time>2026-05-01T14:38:45.339Z</time></trkpt><trkpt lat="47.277598033333334" lon="11.207335766666665"><ele>602.0</ele><time>2026-05-01T14:38:46.327Z</time></trkpt><trkpt lat="47.277698433333335" lon="11.206966666666665"><ele>601.0</ele><time>2026-05-01T14:38:47.327Z</time></trkpt><trkpt lat="47.27779856666666" lon="11.20659935"><ele>600.0</ele><time>2026-05-01T14:38:48.341Z</time></trkpt><trkpt lat="47.27789581666666" lon="11.206232716666667"><ele>600.0</ele><time>2026-05-01T14:38:49.344Z</time></trkpt><trkpt lat="47.27799544999999" lon="11.205868333333335"><ele>600.0</ele><time>2026-05-01T14:38:50.331Z</time></trkpt><trkpt lat="47.27809775000001" lon="11.20550645"><ele>600.5</ele><time>2026-05-01T14:38:51.341Z</time></trkpt><trkpt lat="47.27820008333333" lon="11.205142350000001"><ele>601.0</ele><time>2026-05-01T14:38:52.344Z</time></trkpt><trkpt lat="47.2783036" lon="11.204779883333334"><ele>601.5</ele><time>2026-05-01T14:38:53.327Z</time></trkpt><trkpt lat="47.27840549999999" lon="11.2044156"><ele>602.0</ele><time>2026-05-01T14:38:54.341Z</time></trkpt><trkpt lat="47.27850995000001" lon="11.2040557"><ele>602.0</ele><time>2026-05-01T14:38:55.347Z</time></trkpt><trkpt lat="47.27861536666666" lon="11.203696783333331"><ele>602.0</ele><time>2026-05-01T14:38:56.346Z</time></trkpt><trkpt lat="47.278722216666665" lon="11.203338216666669"><ele>602.5</ele><time>2026-05-01T14:38:57.347Z</time></trkpt><trkpt lat="47.27883241666667" lon="11.202983883333332"><ele>603.0</ele><time>2026-05-01T14:38:58.345Z</time></trkpt><trkpt lat="47.27894365" lon="11.202628016666665"><ele>603.0</ele><time>2026-05-01T14:38:59.353Z</time></trkpt><trkpt lat="47.2790541" lon="11.202272650000001"><ele>603.0</ele><time>2026-05-01T14:39:00.339Z</time></trkpt><trkpt lat="47.2791651" lon="11.201923016666669"><ele>603.0</ele><time>2026-05-01T14:39:01.345Z</time></trkpt><trkpt lat="47.279278183333325" lon="11.201573666666665"><ele>603.0</ele><time>2026-05-01T14:39:02.349Z</time></trkpt><trkpt lat="47.27939528333333" lon="11.20122645"><ele>603.0</ele><time>2026-05-01T14:39:03.343Z</time></trkpt><trkpt lat="47.2795107" lon="11.200880316666666"><ele>603.0</ele><time>2026-05-01T14:39:04.345Z</time></trkpt><trkpt lat="47.27962435" lon="11.200533700000003"><ele>603.0</ele><time>2026-05-01T14:39:05.346Z</time></trkpt><trkpt lat="47.27973911666666" lon="11.200190533333334"><ele>603.0</ele><time>2026-05-01T14:39:06.344Z</time></trkpt><trkpt lat="47.27985613333334" lon="11.199843416666667"><ele>602.0</ele><time>2026-05-01T14:39:07.344Z</time></trkpt><trkpt lat="47.27997548333333" lon="11.199495750000002"><ele>601.0</ele><time>2026-05-01T14:39:08.327Z</time></trkpt><trkpt lat="47.280096433333334" lon="11.199149916666665"><ele>601.0</ele><time>2026-05-01T14:39:09.342Z</time></trkpt><trkpt lat="47.28021938333333" lon="11.198802850000002"><ele>601.0</ele><time>2026-05-01T14:39:10.336Z</time></trkpt><trkpt lat="47.28034386666666" lon="11.198456866666666"><ele>601.0</ele><time>2026-05-01T14:39:11.33Z</time></trkpt><trkpt lat="47.28046906666667" lon="11.198110699999999"><ele>601.0</ele><time>2026-05-01T14:39:12.338Z</time></trkpt><trkpt lat="47.28059546666667" lon="11.197767149999999"><ele>601.5</ele><time>2026-05-01T14:39:13.354Z</time></trkpt><trkpt lat="47.280724350000014" lon="11.197423866666668"><ele>602.0</ele><time>2026-05-01T14:39:14.336Z</time></trkpt><trkpt lat="47.28085443333333" lon="11.197079566666664"><ele>602.5</ele><time>2026-05-01T14:39:15.344Z</time></trkpt><trkpt lat="47.28098706666666" lon="11.196738683333335"><ele>603.0</ele><time>2026-05-01T14:39:16.345Z</time></trkpt><trkpt lat="47.28111971666667" lon="11.196395516666668"><ele>602.0</ele><time>2026-05-01T14:39:17.329Z</time></trkpt><trkpt lat="47.28125348333333" lon="11.1960528"><ele>601.0</ele><time>2026-05-01T14:39:18.351Z</time></trkpt><trkpt lat="47.2813899" lon="11.195707533333332"><ele>604.0</ele><time>2026-05-01T14:39:19.332Z</time></trkpt><trkpt lat="47.28152995" lon="11.195362233333332"><ele>607.0</ele><time>2026-05-01T14:39:20.329Z</time></trkpt><trkpt lat="47.281670749999996" lon="11.195018433333333"><ele>606.0</ele><time>2026-05-01T14:39:21.344Z</time></trkpt><trkpt lat="47.28181155000001" lon="11.1946744"><ele>605.0</ele><time>2026-05-01T14:39:22.344Z</time></trkpt><trkpt lat="47.2819543" lon="11.194328733333334"><ele>605.0</ele><time>2026-05-01T14:39:23.339Z</time></trkpt><trkpt lat="47.282097233333324" lon="11.193983666666668"><ele>605.0</ele><time>2026-05-01T14:39:24.34Z</time></trkpt><trkpt lat="47.28224180000001" lon="11.193639583333333"><ele>605.0</ele><time>2026-05-01T14:39:25.344Z</time></trkpt><trkpt lat="47.28238465" lon="11.193296133333336"><ele>605.0</ele><time>2026-05-01T14:39:26.329Z</time></trkpt><trkpt lat="47.28253255" lon="11.192952099999998"><ele>605.5</ele><time>2026-05-01T14:39:27.341Z</time></trkpt><trkpt lat="47.28268153333333" lon="11.192608016666668"><ele>606.0</ele><time>2026-05-01T14:39:28.338Z</time></trkpt><trkpt lat="47.28283136666668" lon="11.1922629"><ele>606.0</ele><time>2026-05-01T14:39:29.333Z</time></trkpt><trkpt lat="47.28298011666667" lon="11.191917983333333"><ele>606.0</ele><time>2026-05-01T14:39:30.341Z</time></trkpt><trkpt lat="47.28312861666667" lon="11.191575133333334"><ele>606.0</ele><time>2026-05-01T14:39:31.353Z</time></trkpt><trkpt lat="47.283277" lon="11.191236550000001"><ele>606.0</ele><time>2026-05-01T14:39:32.343Z</time></trkpt><trkpt lat="47.28342376666666" lon="11.190898650000001"><ele>605.0</ele><time>2026-05-01T14:39:33.343Z</time></trkpt><trkpt lat="47.28357396666667" lon="11.190559116666668"><ele>604.0</ele><time>2026-05-01T14:39:34.347Z</time></trkpt><trkpt lat="47.28372526666667" lon="11.190222666666667"><ele>604.0</ele><time>2026-05-01T14:39:35.335Z</time></trkpt><trkpt lat="47.28387823333334" lon="11.189892566666666"><ele>604.0</ele><time>2026-05-01T14:39:36.342Z</time></trkpt><trkpt lat="47.284031516666666" lon="11.189563333333336"><ele>604.0</ele><time>2026-05-01T14:39:37.335Z</time></trkpt><trkpt lat="47.284180866666674" lon="11.189232366666666"><ele>604.0</ele><time>2026-05-01T14:39:38.338Z</time></trkpt><trkpt lat="47.284328900000006" lon="11.18889945"><ele>604.0</ele><time>2026-05-01T14:39:39.343Z</time></trkpt><trkpt lat="47.284474116666665" lon="11.188563833333335"><ele>604.0</ele><time>2026-05-01T14:39:40.343Z</time></trkpt><trkpt lat="47.28461738333334" lon="11.188230216666666"><ele>603.5</ele><time>2026-05-01T14:39:41.349Z</time></trkpt><trkpt lat="47.28475538333334" lon="11.187896033333333"><ele>603.0</ele><time>2026-05-01T14:39:42.351Z</time></trkpt><trkpt lat="47.28489128333334" lon="11.187557766666664"><ele>604.0</ele><time>2026-05-01T14:39:43.346Z</time></trkpt><trkpt lat="47.285020233333334" lon="11.1872178"><ele>605.0</ele><time>2026-05-01T14:39:44.349Z</time></trkpt><trkpt lat="47.28514528333333" lon="11.186875566666666"><ele>605.0</ele><time>2026-05-01T14:39:45.338Z</time></trkpt><trkpt lat="47.285263900000004" lon="11.186529383333333"><ele>605.0</ele><time>2026-05-01T14:39:46.346Z</time></trkpt><trkpt lat="47.28537575000001" lon="11.186176033333334"><ele>604.0</ele><time>2026-05-01T14:39:47.349Z</time></trkpt><trkpt lat="47.28547743333334" lon="11.185820383333331"><ele>603.0</ele><time>2026-05-01T14:39:48.343Z</time></trkpt><trkpt lat="47.28557216666666" lon="11.18545858333333"><ele>603.0</ele><time>2026-05-01T14:39:49.342Z</time></trkpt><trkpt lat="47.28566000000001" lon="11.1850946"><ele>603.0</ele><time>2026-05-01T14:39:50.349Z</time></trkpt><trkpt lat="47.2857432" lon="11.184727333333333"><ele>603.0</ele><time>2026-05-01T14:39:51.355Z</time></trkpt><trkpt lat="47.285819116666666" lon="11.184357116666668"><ele>603.0</ele><time>2026-05-01T14:39:52.346Z</time></trkpt><trkpt lat="47.28588835000001" lon="11.183984933333333"><ele>604.0</ele><time>2026-05-01T14:39:53.352Z</time></trkpt><trkpt lat="47.28595066666667" lon="11.183613033333332"><ele>605.0</ele><time>2026-05-01T14:39:54.342Z</time></trkpt><trkpt lat="47.28600358333333" lon="11.183239516666665"><ele>605.0</ele><time>2026-05-01T14:39:55.348Z</time></trkpt><trkpt lat="47.28604878333334" lon="11.182861716666666"><ele>605.0</ele><time>2026-05-01T14:39:56.338Z</time></trkpt><trkpt lat="47.2860834" lon="11.182481183333334"><ele>605.5</ele><time>2026-05-01T14:39:57.343Z</time></trkpt><trkpt lat="47.28611068333333" lon="11.18209975"><ele>606.0</ele><time>2026-05-01T14:39:58.346Z</time></trkpt><trkpt lat="47.28613468333334" lon="11.18171715"><ele>605.5</ele><time>2026-05-01T14:39:59.35Z</time></trkpt><trkpt lat="47.286150833333345" lon="11.181335133333334"><ele>605.0</ele><time>2026-05-01T14:40:00.34Z</time></trkpt><trkpt lat="47.28615921666666" lon="11.180952416666665"><ele>605.0</ele><time>2026-05-01T14:40:01.346Z</time></trkpt><trkpt lat="47.286159116666674" lon="11.180569083333333"><ele>605.0</ele><time>2026-05-01T14:40:02.349Z</time></trkpt><trkpt lat="47.286152650000005" lon="11.180185866666667"><ele>605.0</ele><time>2026-05-01T14:40:03.355Z</time></trkpt><trkpt lat="47.28613596666667" lon="11.179801900000001"><ele>605.0</ele><time>2026-05-01T14:40:04.345Z</time></trkpt><trkpt lat="47.286111116666675" lon="11.179416683333333"><ele>605.0</ele><time>2026-05-01T14:40:05.335Z</time></trkpt><trkpt lat="47.286079666666666" lon="11.179031816666667"><ele>605.0</ele><time>2026-05-01T14:40:06.344Z</time></trkpt><trkpt lat="47.28604553333333" lon="11.178646233333332"><ele>605.5</ele><time>2026-05-01T14:40:07.344Z</time></trkpt><trkpt lat="47.28600813333334" lon="11.178257666666667"><ele>606.0</ele><time>2026-05-01T14:40:08.338Z</time></trkpt><trkpt lat="47.28597083333334" lon="11.17786895"><ele>606.0</ele><time>2026-05-01T14:40:09.342Z</time></trkpt><trkpt lat="47.285929550000006" lon="11.177480833333334"><ele>606.0</ele><time>2026-05-01T14:40:10.344Z</time></trkpt><trkpt lat="47.285884733333326" lon="11.177090966666666"><ele>606.0</ele><time>2026-05-01T14:40:11.349Z</time></trkpt><trkpt lat="47.285836450000005" lon="11.176700266666666"><ele>606.0</ele><time>2026-05-01T14:40:12.343Z</time></trkpt><trkpt lat="47.28578563333334" lon="11.176310699999998"><ele>605.5</ele><time>2026-05-01T14:40:13.347Z</time></trkpt><trkpt lat="47.28573216666667" lon="11.175916466666669"><ele>605.0</ele><time>2026-05-01T14:40:14.358Z</time></trkpt><trkpt lat="47.285677633333336" lon="11.175522933333333"><ele>605.0</ele><time>2026-05-01T14:40:15.342Z</time></trkpt><trkpt lat="47.285626349999994" lon="11.175125583333331"><ele>605.0</ele><time>2026-05-01T14:40:16.344Z</time></trkpt><trkpt lat="47.28557548333333" lon="11.1747295"><ele>604.5</ele><time>2026-05-01T14:40:17.351Z</time></trkpt><trkpt lat="47.28552393333333" lon="11.174335666666666"><ele>604.0</ele><time>2026-05-01T14:40:18.343Z</time></trkpt><trkpt lat="47.28547411666666" lon="11.173940516666669"><ele>604.0</ele><time>2026-05-01T14:40:19.345Z</time></trkpt><trkpt lat="47.28542653333334" lon="11.173540733333335"><ele>604.0</ele><time>2026-05-01T14:40:20.352Z</time></trkpt><trkpt lat="47.28537956666667" lon="11.173140366666667"><ele>604.0</ele><time>2026-05-01T14:40:21.343Z</time></trkpt><trkpt lat="47.28532873333333" lon="11.172739733333332"><ele>604.0</ele><time>2026-05-01T14:40:22.351Z</time></trkpt><trkpt lat="47.285277349999994" lon="11.172337666666664"><ele>604.0</ele><time>2026-05-01T14:40:23.33Z</time></trkpt><trkpt lat="47.28522868333333" lon="11.171934333333335"><ele>604.0</ele><time>2026-05-01T14:40:24.342Z</time></trkpt><trkpt lat="47.28518569999999" lon="11.171529633333334"><ele>604.0</ele><time>2026-05-01T14:40:25.344Z</time></trkpt><trkpt lat="47.28515000000001" lon="11.171123150000001"><ele>604.0</ele><time>2026-05-01T14:40:26.33Z</time></trkpt><trkpt lat="47.28512210000001" lon="11.170715633333336"><ele>605.0</ele><time>2026-05-01T14:40:27.343Z</time></trkpt><trkpt lat="47.28509946666666" lon="11.170308966666667"><ele>606.0</ele><time>2026-05-01T14:40:28.349Z</time></trkpt><trkpt lat="47.285085233333334" lon="11.169905333333334"><ele>607.5</ele><time>2026-05-01T14:40:29.349Z</time></trkpt><trkpt lat="47.28508006666666" lon="11.169504833333333"><ele>609.0</ele><time>2026-05-01T14:40:30.35Z</time></trkpt><trkpt lat="47.28507928333333" lon="11.16910575"><ele>607.5</ele><time>2026-05-01T14:40:31.344Z</time></trkpt><trkpt lat="47.28508406666667" lon="11.168709633333332"><ele>606.0</ele><time>2026-05-01T14:40:32.345Z</time></trkpt><trkpt lat="47.2850899" lon="11.168314083333332"><ele>606.0</ele><time>2026-05-01T14:40:33.341Z</time></trkpt><trkpt lat="47.28509673333333" lon="11.167918033333335"><ele>606.0</ele><time>2026-05-01T14:40:34.345Z</time></trkpt><trkpt lat="47.28510811666667" lon="11.167521266666665"><ele>606.5</ele><time>2026-05-01T14:40:35.33Z</time></trkpt><trkpt lat="47.28512381666667" lon="11.167126116666667"><ele>607.0</ele><time>2026-05-01T14:40:36.34Z</time></trkpt><trkpt lat="47.285146516666664" lon="11.166734066666669"><ele>606.5</ele><time>2026-05-01T14:40:37.347Z</time></trkpt><trkpt lat="47.28517525" lon="11.166342449999998"><ele>606.0</ele><time>2026-05-01T14:40:38.325Z</time></trkpt><trkpt lat="47.285207033333336" lon="11.165953533333335"><ele>606.0</ele><time>2026-05-01T14:40:39.343Z</time></trkpt><trkpt lat="47.28524608333334" lon="11.165565699999998"><ele>606.0</ele><time>2026-05-01T14:40:40.346Z</time></trkpt><trkpt lat="47.285289283333334" lon="11.165181500000003"><ele>606.5</ele><time>2026-05-01T14:40:41.346Z</time></trkpt><trkpt lat="47.28533741666667" lon="11.164797833333333"><ele>607.0</ele><time>2026-05-01T14:40:42.341Z</time></trkpt><trkpt lat="47.28539048333334" lon="11.164412983333333"><ele>606.5</ele><time>2026-05-01T14:40:43.348Z</time></trkpt><trkpt lat="47.28544778333333" lon="11.164029016666666"><ele>606.0</ele><time>2026-05-01T14:40:44.34Z</time></trkpt><trkpt lat="47.28550820000001" lon="11.163644299999998"><ele>606.0</ele><time>2026-05-01T14:40:45.341Z</time></trkpt><trkpt lat="47.28556988333333" lon="11.163263466666667"><ele>606.0</ele><time>2026-05-01T14:40:46.366Z</time></trkpt><trkpt lat="47.28563831666667" lon="11.162883283333334"><ele>606.5</ele><time>2026-05-01T14:40:47.351Z</time></trkpt><trkpt lat="47.285709399999995" lon="11.16250505"><ele>607.0</ele><time>2026-05-01T14:40:48.346Z</time></trkpt><trkpt lat="47.285784" lon="11.162128416666668"><ele>607.0</ele><time>2026-05-01T14:40:49.346Z</time></trkpt><trkpt lat="47.28586288333333" lon="11.161751699999998"><ele>607.0</ele><time>2026-05-01T14:40:50.336Z</time></trkpt><trkpt lat="47.285945133333335" lon="11.161375766666668"><ele>607.0</ele><time>2026-05-01T14:40:51.34Z</time></trkpt><trkpt lat="47.286038549999994" lon="11.161004516666665"><ele>607.0</ele><time>2026-05-01T14:40:52.345Z</time></trkpt><trkpt lat="47.28613778333333" lon="11.160638766666667"><ele>607.0</ele><time>2026-05-01T14:40:53.353Z</time></trkpt><trkpt lat="47.28624225" lon="11.160276916666666"><ele>607.0</ele><time>2026-05-01T14:40:54.347Z</time></trkpt><trkpt lat="47.28635156666666" lon="11.159917333333333"><ele>607.0</ele><time>2026-05-01T14:40:55.333Z</time></trkpt><trkpt lat="47.286465299999996" lon="11.159558200000001"><ele>607.0</ele><time>2026-05-01T14:40:56.351Z</time></trkpt><trkpt lat="47.28658253333333" lon="11.15919788333333"><ele>607.5</ele><time>2026-05-01T14:40:57.344Z</time></trkpt><trkpt lat="47.286701449999995" lon="11.158840316666664"><ele>608.0</ele><time>2026-05-01T14:40:58.348Z</time></trkpt><trkpt lat="47.2868281" lon="11.158486100000001"><ele>607.0</ele><time>2026-05-01T14:40:59.337Z</time></trkpt><trkpt lat="47.286960316666665" lon="11.15814025"><ele>606.0</ele><time>2026-05-01T14:41:00.351Z</time></trkpt><trkpt lat="47.28709898333334" lon="11.157800300000002"><ele>606.0</ele><time>2026-05-01T14:41:01.346Z</time></trkpt><trkpt lat="47.28724268333334" lon="11.157460900000002"><ele>606.0</ele><time>2026-05-01T14:41:02.33Z</time></trkpt><trkpt lat="47.287385066666666" lon="11.157123666666667"><ele>606.0</ele><time>2026-05-01T14:41:03.343Z</time></trkpt><trkpt lat="47.287526583333324" lon="11.156787333333332"><ele>606.0</ele><time>2026-05-01T14:41:04.336Z</time></trkpt><trkpt lat="47.28766734999999" lon="11.156445633333332"><ele>606.0</ele><time>2026-05-01T14:41:05.351Z</time></trkpt><trkpt lat="47.28780635" lon="11.156105066666665"><ele>606.0</ele><time>2026-05-01T14:41:06.343Z</time></trkpt><trkpt lat="47.28794598333334" lon="11.155767983333334"><ele>606.0</ele><time>2026-05-01T14:41:07.345Z</time></trkpt><trkpt lat="47.28808621666668" lon="11.155432166666667"><ele>606.0</ele><time>2026-05-01T14:41:08.343Z</time></trkpt><trkpt lat="47.28822964999999" lon="11.155096600000002"><ele>606.5</ele><time>2026-05-01T14:41:09.343Z</time></trkpt><trkpt lat="47.28837371666667" lon="11.1547617"><ele>607.0</ele><time>2026-05-01T14:41:10.345Z</time></trkpt><trkpt lat="47.28851825" lon="11.1544283"><ele>607.0</ele><time>2026-05-01T14:41:11.349Z</time></trkpt><trkpt lat="47.2886593" lon="11.154095400000001"><ele>607.0</ele><time>2026-05-01T14:41:12.341Z</time></trkpt><trkpt lat="47.288804283333334" lon="11.153762783333331"><ele>607.0</ele><time>2026-05-01T14:41:13.344Z</time></trkpt><trkpt lat="47.28895008333334" lon="11.153429116666667"><ele>607.0</ele><time>2026-05-01T14:41:14.35Z</time></trkpt><trkpt lat="47.28909529999999" lon="11.153093783333334"><ele>608.0</ele><time>2026-05-01T14:41:15.343Z</time></trkpt><trkpt lat="47.289239200000004" lon="11.152756366666665"><ele>609.0</ele><time>2026-05-01T14:41:16.345Z</time></trkpt><trkpt lat="47.28938326666667" lon="11.152420600000001"><ele>610.0</ele><time>2026-05-01T14:41:17.328Z</time></trkpt><trkpt lat="47.28952758333333" lon="11.152083666666666"><ele>611.0</ele><time>2026-05-01T14:41:18.368Z</time></trkpt><trkpt lat="47.28967218333334" lon="11.15174571666667"><ele>609.5</ele><time>2026-05-01T14:41:19.345Z</time></trkpt><trkpt lat="47.289818333333336" lon="11.151408916666666"><ele>608.0</ele><time>2026-05-01T14:41:20.351Z</time></trkpt><trkpt lat="47.289964700000006" lon="11.151074783333335"><ele>608.0</ele><time>2026-05-01T14:41:21.343Z</time></trkpt><trkpt lat="47.2901111" lon="11.1507387"><ele>608.0</ele><time>2026-05-01T14:41:22.345Z</time></trkpt><trkpt lat="47.290256899999996" lon="11.150400300000001"><ele>608.0</ele><time>2026-05-01T14:41:23.338Z</time></trkpt><trkpt lat="47.29040123333332" lon="11.150063683333334"><ele>608.0</ele><time>2026-05-01T14:41:24.343Z</time></trkpt><trkpt lat="47.29054353333333" lon="11.14972495"><ele>608.5</ele><time>2026-05-01T14:41:25.345Z</time></trkpt><trkpt lat="47.290684866666666" lon="11.149386016666666"><ele>609.0</ele><time>2026-05-01T14:41:26.328Z</time></trkpt><trkpt lat="47.290827266666675" lon="11.149045466666667"><ele>609.0</ele><time>2026-05-01T14:41:27.356Z</time></trkpt><trkpt lat="47.29096945" lon="11.148709350000003"><ele>609.0</ele><time>2026-05-01T14:41:28.35Z</time></trkpt><trkpt lat="47.29111281666666" lon="11.148375166666664"><ele>608.5</ele><time>2026-05-01T14:41:29.35Z</time></trkpt><trkpt lat="47.2912593" lon="11.148043033333332"><ele>608.0</ele><time>2026-05-01T14:41:30.341Z</time></trkpt><trkpt lat="47.29140348333333" lon="11.147710700000001"><ele>608.0</ele><time>2026-05-01T14:41:31.347Z</time></trkpt><trkpt lat="47.291546000000004" lon="11.147381866666668"><ele>608.0</ele><time>2026-05-01T14:41:32.35Z</time></trkpt><trkpt lat="47.29168995" lon="11.147052533333332"><ele>608.0</ele><time>2026-05-01T14:41:33.342Z</time></trkpt><trkpt lat="47.29183338333333" lon="11.146723316666664"><ele>608.0</ele><time>2026-05-01T14:41:34.344Z</time></trkpt><trkpt lat="47.291973483333344" lon="11.146391733333335"><ele>608.0</ele><time>2026-05-01T14:41:35.328Z</time></trkpt><trkpt lat="47.29211328333334" lon="11.146060716666666"><ele>608.0</ele><time>2026-05-01T14:41:36.341Z</time></trkpt><trkpt lat="47.292252999999995" lon="11.14572755"><ele>609.0</ele><time>2026-05-01T14:41:37.346Z</time></trkpt><trkpt lat="47.29239295" lon="11.145394416666667"><ele>610.0</ele><time>2026-05-01T14:41:38.326Z</time></trkpt><trkpt lat="47.29253550000001" lon="11.145060899999997"><ele>609.0</ele><time>2026-05-01T14:41:39.344Z</time></trkpt><trkpt lat="47.29267883333334" lon="11.144730266666665"><ele>608.0</ele><time>2026-05-01T14:41:40.345Z</time></trkpt><trkpt lat="47.2928231" lon="11.144401083333332"><ele>608.0</ele><time>2026-05-01T14:41:41.328Z</time></trkpt><trkpt lat="47.29296888333333" lon="11.144067216666667"><ele>608.0</ele><time>2026-05-01T14:41:42.346Z</time></trkpt><trkpt lat="47.29311293333334" lon="11.143736000000002"><ele>608.5</ele><time>2026-05-01T14:41:43.34Z</time></trkpt><trkpt lat="47.29325614999999" lon="11.143404233333335"><ele>609.0</ele><time>2026-05-01T14:41:44.33Z</time></trkpt><trkpt lat="47.29339803333334" lon="11.143069316666667"><ele>609.0</ele><time>2026-05-01T14:41:45.328Z</time></trkpt><trkpt lat="47.29353866666667" lon="11.142730649999999"><ele>609.0</ele><time>2026-05-01T14:41:46.327Z</time></trkpt><trkpt lat="47.2936785" lon="11.142393666666665"><ele>609.0</ele><time>2026-05-01T14:41:47.333Z</time></trkpt><trkpt lat="47.29381981666667" lon="11.142057833333334"><ele>609.0</ele><time>2026-05-01T14:41:48.348Z</time></trkpt><trkpt lat="47.29396066666666" lon="11.141724533333335"><ele>610.0</ele><time>2026-05-01T14:41:49.33Z</time></trkpt><trkpt lat="47.29410079999999" lon="11.141389150000002"><ele>611.0</ele><time>2026-05-01T14:41:50.327Z</time></trkpt><trkpt lat="47.29424361666667" lon="11.141056616666667"><ele>611.0</ele><time>2026-05-01T14:41:51.346Z</time></trkpt><trkpt lat="47.2943881" lon="11.1407238"><ele>611.0</ele><time>2026-05-01T14:41:52.335Z</time></trkpt><trkpt lat="47.29453060000001" lon="11.140392450000002"><ele>610.5</ele><time>2026-05-01T14:41:53.331Z</time></trkpt><trkpt lat="47.294674050000005" lon="11.140061150000001"><ele>610.0</ele><time>2026-05-01T14:41:54.35Z</time></trkpt><trkpt lat="47.29481725" lon="11.139727116666666"><ele>610.0</ele><time>2026-05-01T14:41:55.327Z</time></trkpt><trkpt lat="47.294958333333334" lon="11.139393183333334"><ele>610.0</ele><time>2026-05-01T14:41:56.327Z</time></trkpt><trkpt lat="47.29510188333334" lon="11.1390582"><ele>610.0</ele><time>2026-05-01T14:41:57.351Z</time></trkpt><trkpt lat="47.29524575000001" lon="11.138724183333332"><ele>610.0</ele><time>2026-05-01T14:41:58.33Z</time></trkpt><trkpt lat="47.2953909" lon="11.138388533333334"><ele>609.0</ele><time>2026-05-01T14:41:59.33Z</time></trkpt><trkpt lat="47.29553526666667" lon="11.138051866666666"><ele>608.0</ele><time>2026-05-01T14:42:00.351Z</time></trkpt><trkpt lat="47.29567825000001" lon="11.137712916666667"><ele>609.5</ele><time>2026-05-01T14:42:01.327Z</time></trkpt><trkpt lat="47.29582153333334" lon="11.137374783333334"><ele>611.0</ele><time>2026-05-01T14:42:02.328Z</time></trkpt><trkpt lat="47.29596638333334" lon="11.137038366666665"><ele>611.0</ele><time>2026-05-01T14:42:03.328Z</time></trkpt><trkpt lat="47.296112783333335" lon="11.136700183333335"><ele>611.0</ele><time>2026-05-01T14:42:04.328Z</time></trkpt><trkpt lat="47.296259383333336" lon="11.13636218333333"><ele>611.0</ele><time>2026-05-01T14:42:05.329Z</time></trkpt><trkpt lat="47.296404716666665" lon="11.136023583333333"><ele>611.0</ele><time>2026-05-01T14:42:06.327Z</time></trkpt><trkpt lat="47.29654993333333" lon="11.135684466666664"><ele>610.5</ele><time>2026-05-01T14:42:07.328Z</time></trkpt><trkpt lat="47.296694466666665" lon="11.1353439"><ele>610.0</ele><time>2026-05-01T14:42:08.347Z</time></trkpt><trkpt lat="47.29683898333332" lon="11.1350051"><ele>610.0</ele><time>2026-05-01T14:42:09.33Z</time></trkpt><trkpt lat="47.2969835" lon="11.134663916666666"><ele>610.0</ele><time>2026-05-01T14:42:10.35Z</time></trkpt><trkpt lat="47.297126799999994" lon="11.134325216666666"><ele>610.5</ele><time>2026-05-01T14:42:11.329Z</time></trkpt><trkpt lat="47.29726900000001" lon="11.133988683333333"><ele>611.0</ele><time>2026-05-01T14:42:12.346Z</time></trkpt><trkpt lat="47.29741076666666" lon="11.133650566666665"><ele>611.0</ele><time>2026-05-01T14:42:13.328Z</time></trkpt><trkpt lat="47.297553050000005" lon="11.133313116666667"><ele>611.0</ele><time>2026-05-01T14:42:14.33Z</time></trkpt><trkpt lat="47.2976977" lon="11.13297395"><ele>610.5</ele><time>2026-05-01T14:42:15.329Z</time></trkpt><trkpt lat="47.297840650000005" lon="11.132634866666667"><ele>610.0</ele><time>2026-05-01T14:42:16.35Z</time></trkpt><trkpt lat="47.29798501666668" lon="11.132297950000002"><ele>610.5</ele><time>2026-05-01T14:42:17.329Z</time></trkpt><trkpt lat="47.298128399999996" lon="11.131965066666664"><ele>611.0</ele><time>2026-05-01T14:42:18.349Z</time></trkpt><trkpt lat="47.29827121666667" lon="11.131633166666665"><ele>611.5</ele><time>2026-05-01T14:42:19.328Z</time></trkpt><trkpt lat="47.2984154" lon="11.131298033333332"><ele>612.0</ele><time>2026-05-01T14:42:20.329Z</time></trkpt><trkpt lat="47.298560066666674" lon="11.130960066666667"><ele>611.5</ele><time>2026-05-01T14:42:21.347Z</time></trkpt><trkpt lat="47.298704449999995" lon="11.1306214"><ele>611.0</ele><time>2026-05-01T14:42:22.337Z</time></trkpt><trkpt lat="47.29885015" lon="11.13028595"><ele>611.5</ele><time>2026-05-01T14:42:23.327Z</time></trkpt><trkpt lat="47.29899486666667" lon="11.129950383333336"><ele>612.0</ele><time>2026-05-01T14:42:24.351Z</time></trkpt><trkpt lat="47.2991383" lon="11.129616066666664"><ele>612.0</ele><time>2026-05-01T14:42:25.328Z</time></trkpt><trkpt lat="47.29928131666667" lon="11.12928005"><ele>612.0</ele><time>2026-05-01T14:42:26.336Z</time></trkpt><trkpt lat="47.29942576666667" lon="11.128945233333331"><ele>612.0</ele><time>2026-05-01T14:42:27.348Z</time></trkpt><trkpt lat="47.29956956666666" lon="11.128610366666665"><ele>612.0</ele><time>2026-05-01T14:42:28.337Z</time></trkpt><trkpt lat="47.29971803333333" lon="11.12827885"><ele>613.5</ele><time>2026-05-01T14:42:29.34Z</time></trkpt><trkpt lat="47.29986688333333" lon="11.127948250000001"><ele>615.0</ele><time>2026-05-01T14:42:30.346Z</time></trkpt><trkpt lat="47.300019816666655" lon="11.127621816666666"><ele>615.0</ele><time>2026-05-01T14:42:31.335Z</time></trkpt><trkpt lat="47.300174366666674" lon="11.127301050000002"><ele>615.0</ele><time>2026-05-01T14:42:32.333Z</time></trkpt><trkpt lat="47.300333249999994" lon="11.126983183333335"><ele>615.0</ele><time>2026-05-01T14:42:33.329Z</time></trkpt><trkpt lat="47.30049914999999" lon="11.126675350000001"><ele>615.0</ele><time>2026-05-01T14:42:34.327Z</time></trkpt><trkpt lat="47.30067008333334" lon="11.126376316666665"><ele>615.0</ele><time>2026-05-01T14:42:35.329Z</time></trkpt><trkpt lat="47.30084955000001" lon="11.126087150000002"><ele>615.0</ele><time>2026-05-01T14:42:36.346Z</time></trkpt><trkpt lat="47.301033116666666" lon="11.125802833333333"><ele>615.0</ele><time>2026-05-01T14:42:37.329Z</time></trkpt><trkpt lat="47.30121923333333" lon="11.125526149999999"><ele>615.0</ele><time>2026-05-01T14:42:38.341Z</time></trkpt><trkpt lat="47.301409899999996" lon="11.1252569"><ele>614.5</ele><time>2026-05-01T14:42:39.351Z</time></trkpt><trkpt lat="47.30160653333334" lon="11.124996766666667"><ele>614.0</ele><time>2026-05-01T14:42:40.336Z</time></trkpt><trkpt lat="47.30180825000001" lon="11.124746633333332"><ele>614.0</ele><time>2026-05-01T14:42:41.329Z</time></trkpt><trkpt lat="47.30201364999999" lon="11.124504850000003"><ele>614.0</ele><time>2026-05-01T14:42:42.346Z</time></trkpt><trkpt lat="47.30222566666666" lon="11.124274316666666"><ele>614.5</ele><time>2026-05-01T14:42:43.33Z</time></trkpt><trkpt lat="47.302442366666675" lon="11.124052766666665"><ele>615.0</ele><time>2026-05-01T14:42:44.328Z</time></trkpt><trkpt lat="47.3026621" lon="11.12383815"><ele>615.0</ele><time>2026-05-01T14:42:45.347Z</time></trkpt><trkpt lat="47.30288654999999" lon="11.123632200000001"><ele>615.0</ele><time>2026-05-01T14:42:46.333Z</time></trkpt><trkpt lat="47.30311416666667" lon="11.123437916666669"><ele>613.5</ele><time>2026-05-01T14:42:47.33Z</time></trkpt><trkpt lat="47.30334798333334" lon="11.123257349999998"><ele>612.0</ele><time>2026-05-01T14:42:48.349Z</time></trkpt><trkpt lat="47.303586333333335" lon="11.123087733333334"><ele>612.0</ele><time>2026-05-01T14:42:49.329Z</time></trkpt><trkpt lat="47.30382733333333" lon="11.122924933333335"><ele>612.0</ele><time>2026-05-01T14:42:50.329Z</time></trkpt><trkpt lat="47.304070583333335" lon="11.122771716666666"><ele>613.5</ele><time>2026-05-01T14:42:51.345Z</time></trkpt><trkpt lat="47.304314283333326" lon="11.122627116666669"><ele>615.0</ele><time>2026-05-01T14:42:52.33Z</time></trkpt><trkpt lat="47.30455886666667" lon="11.122491483333333"><ele>614.5</ele><time>2026-05-01T14:42:53.353Z</time></trkpt><trkpt lat="47.304807066666676" lon="11.122362133333336"><ele>614.0</ele><time>2026-05-01T14:42:54.357Z</time></trkpt><trkpt lat="47.305056383333344" lon="11.122234183333335"><ele>614.0</ele><time>2026-05-01T14:42:55.328Z</time></trkpt><trkpt lat="47.305306466666664" lon="11.122108566666668"><ele>614.0</ele><time>2026-05-01T14:42:56.329Z</time></trkpt><trkpt lat="47.30555653333332" lon="11.121983150000002"><ele>614.5</ele><time>2026-05-01T14:42:57.328Z</time></trkpt><trkpt lat="47.305806916666675" lon="11.121855449999998"><ele>615.0</ele><time>2026-05-01T14:42:58.336Z</time></trkpt><trkpt lat="47.306056850000004" lon="11.121725433333332"><ele>615.0</ele><time>2026-05-01T14:42:59.342Z</time></trkpt><trkpt lat="47.3063061" lon="11.121590183333335"><ele>615.0</ele><time>2026-05-01T14:43:00.347Z</time></trkpt><trkpt lat="47.30655258333333" lon="11.121448316666665"><ele>614.5</ele><time>2026-05-01T14:43:01.328Z</time></trkpt><trkpt lat="47.30679546666667" lon="11.121293716666665"><ele>614.0</ele><time>2026-05-01T14:43:02.328Z</time></trkpt><trkpt lat="47.307035799999994" lon="11.121127216666666"><ele>616.0</ele><time>2026-05-01T14:43:03.348Z</time></trkpt><trkpt lat="47.30727405" lon="11.120951516666667"><ele>618.0</ele><time>2026-05-01T14:43:04.35Z</time></trkpt><trkpt lat="47.30750566666667" lon="11.120760199999998"><ele>615.5</ele><time>2026-05-01T14:43:05.328Z</time></trkpt><trkpt lat="47.30773613333334" lon="11.120555766666666"><ele>613.0</ele><time>2026-05-01T14:43:06.347Z</time></trkpt><trkpt lat="47.30796313333333" lon="11.120346316666668"><ele>614.0</ele><time>2026-05-01T14:43:07.33Z</time></trkpt><trkpt lat="47.30818435" lon="11.120126316666665"><ele>615.0</ele><time>2026-05-01T14:43:08.328Z</time></trkpt><trkpt lat="47.308400866666666" lon="11.119896666666666"><ele>615.0</ele><time>2026-05-01T14:43:09.347Z</time></trkpt><trkpt lat="47.30861190000001" lon="11.119656566666666"><ele>615.0</ele><time>2026-05-01T14:43:10.328Z</time></trkpt><trkpt lat="47.30881853333333" lon="11.119403583333332"><ele>616.0</ele><time>2026-05-01T14:43:11.331Z</time></trkpt><trkpt lat="47.30902259999999" lon="11.119143316666669"><ele>617.0</ele><time>2026-05-01T14:43:12.329Z</time></trkpt><trkpt lat="47.30922054999999" lon="11.118874866666665"><ele>617.0</ele><time>2026-05-01T14:43:13.328Z</time></trkpt><trkpt lat="47.30941408333333" lon="11.11860255"><ele>617.0</ele><time>2026-05-01T14:43:14.329Z</time></trkpt><trkpt lat="47.3096034" lon="11.118320283333334"><ele>619.5</ele><time>2026-05-01T14:43:15.357Z</time></trkpt><trkpt lat="47.30978386666667" lon="11.118023550000002"><ele>622.0</ele><time>2026-05-01T14:43:16.329Z</time></trkpt><trkpt lat="47.30995848333334" lon="11.117721600000001"><ele>622.0</ele><time>2026-05-01T14:43:17.328Z</time></trkpt><trkpt lat="47.31012461666666" lon="11.117409183333333"><ele>622.0</ele><time>2026-05-01T14:43:18.347Z</time></trkpt><trkpt lat="47.310284583333335" lon="11.117088483333335"><ele>622.5</ele><time>2026-05-01T14:43:19.328Z</time></trkpt><trkpt lat="47.310438850000004" lon="11.116762933333332"><ele>623.0</ele><time>2026-05-01T14:43:20.331Z</time></trkpt><trkpt lat="47.310587166666664" lon="11.116430999999999"><ele>623.0</ele><time>2026-05-01T14:43:21.329Z</time></trkpt><trkpt lat="47.31072506666666" lon="11.116086"><ele>623.0</ele><time>2026-05-01T14:43:22.328Z</time></trkpt><trkpt lat="47.31085745000001" lon="11.115734750000003"><ele>620.0</ele><time>2026-05-01T14:43:23.333Z</time></trkpt><trkpt lat="47.31098146666667" lon="11.11537775"><ele>617.0</ele><time>2026-05-01T14:43:24.328Z</time></trkpt><trkpt lat="47.31110171666666" lon="11.115012516666665"><ele>616.5</ele><time>2026-05-01T14:43:25.328Z</time></trkpt><trkpt lat="47.311213349999996" lon="11.114644749999998"><ele>616.0</ele><time>2026-05-01T14:43:26.327Z</time></trkpt><trkpt lat="47.311315" lon="11.1142692"><ele>618.0</ele><time>2026-05-01T14:43:27.347Z</time></trkpt><trkpt lat="47.31140905" lon="11.113890949999998"><ele>620.0</ele><time>2026-05-01T14:43:28.327Z</time></trkpt><trkpt lat="47.31149310000001" lon="11.113508283333331"><ele>619.5</ele><time>2026-05-01T14:43:29.338Z</time></trkpt><trkpt lat="47.31157016666666" lon="11.113118550000001"><ele>619.0</ele><time>2026-05-01T14:43:30.33Z</time></trkpt><trkpt lat="47.31163886666666" lon="11.11272445"><ele>619.0</ele><time>2026-05-01T14:43:31.33Z</time></trkpt><trkpt lat="47.31169766666667" lon="11.11232855"><ele>619.0</ele><time>2026-05-01T14:43:32.331Z</time></trkpt><trkpt lat="47.311749733333336" lon="11.111936166666666"><ele>618.5</ele><time>2026-05-01T14:43:33.328Z</time></trkpt><trkpt lat="47.311795883333325" lon="11.11153925"><ele>618.0</ele><time>2026-05-01T14:43:34.328Z</time></trkpt><trkpt lat="47.31183266666667" lon="11.1111423"><ele>618.0</ele><time>2026-05-01T14:43:35.33Z</time></trkpt><trkpt lat="47.311861349999994" lon="11.11074293333333"><ele>618.0</ele><time>2026-05-01T14:43:36.35Z</time></trkpt><trkpt lat="47.31188036666667" lon="11.1103402"><ele>618.0</ele><time>2026-05-01T14:43:37.328Z</time></trkpt><trkpt lat="47.31188926666667" lon="11.109938783333334"><ele>618.0</ele><time>2026-05-01T14:43:38.339Z</time></trkpt><trkpt lat="47.31188706666667" lon="11.109538833333334"><ele>618.0</ele><time>2026-05-01T14:43:39.329Z</time></trkpt><trkpt lat="47.31187735" lon="11.109137466666668"><ele>618.0</ele><time>2026-05-01T14:43:40.332Z</time></trkpt><trkpt lat="47.31186146666667" lon="11.108737766666664"><ele>618.0</ele><time>2026-05-01T14:43:41.328Z</time></trkpt><trkpt lat="47.31183833333333" lon="11.108336316666664"><ele>618.0</ele><time>2026-05-01T14:43:42.347Z</time></trkpt><trkpt lat="47.31180693333334" lon="11.107936216666667"><ele>618.5</ele><time>2026-05-01T14:43:43.328Z</time></trkpt><trkpt lat="47.311763649999996" lon="11.107538716666667"><ele>619.0</ele><time>2026-05-01T14:43:44.346Z</time></trkpt><trkpt lat="47.311708883333324" lon="11.1071419"><ele>619.5</ele><time>2026-05-01T14:43:45.347Z</time></trkpt><trkpt lat="47.31164733333333" lon="11.106745499999999"><ele>620.0</ele><time>2026-05-01T14:43:46.328Z</time></trkpt><trkpt lat="47.31157396666668" lon="11.10635103333333"><ele>619.5</ele><time>2026-05-01T14:43:47.335Z</time></trkpt><trkpt lat="47.31149560000001" lon="11.105962116666667"><ele>619.0</ele><time>2026-05-01T14:43:48.328Z</time></trkpt><trkpt lat="47.31141236666667" lon="11.105573399999999"><ele>620.5</ele><time>2026-05-01T14:43:49.337Z</time></trkpt><trkpt lat="47.311322249999996" lon="11.105184966666664"><ele>622.0</ele><time>2026-05-01T14:43:50.328Z</time></trkpt><trkpt lat="47.31122860000001" lon="11.104797533333333"><ele>622.0</ele><time>2026-05-01T14:43:51.346Z</time></trkpt><trkpt lat="47.31113284999999" lon="11.104413150000001"><ele>622.0</ele><time>2026-05-01T14:43:52.328Z</time></trkpt><trkpt lat="47.31103161666667" lon="11.10403175"><ele>622.0</ele><time>2026-05-01T14:43:53.349Z</time></trkpt><trkpt lat="47.310929466666664" lon="11.10365305"><ele>622.0</ele><time>2026-05-01T14:43:54.33Z</time></trkpt><trkpt lat="47.31082406666666" lon="11.103272200000001"><ele>621.0</ele><time>2026-05-01T14:43:55.347Z</time></trkpt><trkpt lat="47.31071541666667" lon="11.102890400000001"><ele>620.0</ele><time>2026-05-01T14:43:56.326Z</time></trkpt><trkpt lat="47.310603916666665" lon="11.102513566666667"><ele>619.0</ele><time>2026-05-01T14:43:57.347Z</time></trkpt><trkpt lat="47.31049186666667" lon="11.10213975"><ele>618.0</ele><time>2026-05-01T14:43:58.343Z</time></trkpt><trkpt lat="47.31037930000001" lon="11.101765766666665"><ele>617.5</ele><time>2026-05-01T14:43:59.337Z</time></trkpt><trkpt lat="47.31026623333334" lon="11.101397133333334"><ele>617.0</ele><time>2026-05-01T14:44:00.347Z</time></trkpt><trkpt lat="47.310152900000006" lon="11.10102885"><ele>617.5</ele><time>2026-05-01T14:44:01.327Z</time></trkpt><trkpt lat="47.31004063333333" lon="11.10066375"><ele>618.0</ele><time>2026-05-01T14:44:02.337Z</time></trkpt><trkpt lat="47.30992651666667" lon="11.100299549999999"><ele>618.0</ele><time>2026-05-01T14:44:03.349Z</time></trkpt><trkpt lat="47.309811933333336" lon="11.099940933333334"><ele>618.0</ele><time>2026-05-01T14:44:04.349Z</time></trkpt><trkpt lat="47.30969530000001" lon="11.099579866666666"><ele>618.0</ele><time>2026-05-01T14:44:05.328Z</time></trkpt><trkpt lat="47.30957975" lon="11.099218266666666"><ele>618.0</ele><time>2026-05-01T14:44:06.347Z</time></trkpt><trkpt lat="47.30946201666667" lon="11.098855833333333"><ele>618.0</ele><time>2026-05-01T14:44:07.347Z</time></trkpt><trkpt lat="47.309342550000004" lon="11.098499466666665"><ele>618.0</ele><time>2026-05-01T14:44:08.326Z</time></trkpt><trkpt lat="47.3092204" lon="11.098144749999998"><ele>617.5</ele><time>2026-05-01T14:44:09.347Z</time></trkpt><trkpt lat="47.30909454999999" lon="11.097793400000002"><ele>617.0</ele><time>2026-05-01T14:44:10.328Z</time></trkpt><trkpt lat="47.30896763333334" lon="11.0974451"><ele>618.5</ele><time>2026-05-01T14:44:11.329Z</time></trkpt><trkpt lat="47.30884023333333" lon="11.097098216666666"><ele>620.0</ele><time>2026-05-01T14:44:12.347Z</time></trkpt><trkpt lat="47.30871008333334" lon="11.09675458333333"><ele>619.0</ele><time>2026-05-01T14:44:13.348Z</time></trkpt><trkpt lat="47.30857911666667" lon="11.096409266666667"><ele>618.0</ele><time>2026-05-01T14:44:14.337Z</time></trkpt><trkpt lat="47.30844691666666" lon="11.096058783333335"><ele>617.0</ele><time>2026-05-01T14:44:15.328Z</time></trkpt><trkpt lat="47.308313600000005" lon="11.095714783333335"><ele>616.0</ele><time>2026-05-01T14:44:16.337Z</time></trkpt><trkpt lat="47.308180099999994" lon="11.095372016666667"><ele>617.0</ele><time>2026-05-01T14:44:17.328Z</time></trkpt><trkpt lat="47.308046399999995" lon="11.095027799999999"><ele>618.0</ele><time>2026-05-01T14:44:18.327Z</time></trkpt><trkpt lat="47.30791394999999" lon="11.094684566666668"><ele>619.0</ele><time>2026-05-01T14:44:19.35Z</time></trkpt><trkpt lat="47.30778071666667" lon="11.094343916666666"><ele>620.0</ele><time>2026-05-01T14:44:20.328Z</time></trkpt><trkpt lat="47.30764455" lon="11.094000883333337"><ele>620.5</ele><time>2026-05-01T14:44:21.347Z</time></trkpt><trkpt lat="47.307510683333334" lon="11.093653016666668"><ele>621.0</ele><time>2026-05-01T14:44:22.328Z</time></trkpt><trkpt lat="47.307378866666674" lon="11.093304366666667"><ele>620.5</ele><time>2026-05-01T14:44:23.346Z</time></trkpt><trkpt lat="47.307244250000004" lon="11.092958833333332"><ele>620.0</ele><time>2026-05-01T14:44:24.347Z</time></trkpt><trkpt lat="47.30710958333334" lon="11.092613933333332"><ele>619.5</ele><time>2026-05-01T14:44:25.328Z</time></trkpt><trkpt lat="47.306974633333326" lon="11.092268766666667"><ele>619.0</ele><time>2026-05-01T14:44:26.328Z</time></trkpt><trkpt lat="47.30683766666667" lon="11.09192385"><ele>618.5</ele><time>2026-05-01T14:44:27.334Z</time></trkpt><trkpt lat="47.30669585000001" lon="11.091581966666668"><ele>618.0</ele><time>2026-05-01T14:44:28.33Z</time></trkpt><trkpt lat="47.30655465" lon="11.09124255"><ele>618.0</ele><time>2026-05-01T14:44:29.331Z</time></trkpt><trkpt lat="47.306411566666675" lon="11.090905466666667"><ele>618.0</ele><time>2026-05-01T14:44:30.357Z</time></trkpt><trkpt lat="47.306270733333335" lon="11.09056575"><ele>617.0</ele><time>2026-05-01T14:44:31.328Z</time></trkpt><trkpt lat="47.306134050000004" lon="11.090224016666665"><ele>616.0</ele><time>2026-05-01T14:44:32.329Z</time></trkpt><trkpt lat="47.30599966666667" lon="11.089880650000001"><ele>616.0</ele><time>2026-05-01T14:44:33.352Z</time></trkpt><trkpt lat="47.30586576666666" lon="11.089536449999997"><ele>616.0</ele><time>2026-05-01T14:44:34.336Z</time></trkpt><trkpt lat="47.30573196666666" lon="11.08919845"><ele>616.5</ele><time>2026-05-01T14:44:35.328Z</time></trkpt><trkpt lat="47.305602216666664" lon="11.08886311666667"><ele>617.0</ele><time>2026-05-01T14:44:36.332Z</time></trkpt><trkpt lat="47.30547338333334" lon="11.088531916666666"><ele>618.0</ele><time>2026-05-01T14:44:37.334Z</time></trkpt><trkpt lat="47.3053422" lon="11.0882065"><ele>619.0</ele><time>2026-05-01T14:44:38.329Z</time></trkpt><trkpt lat="47.30521181666666" lon="11.087882549999998"><ele>619.0</ele><time>2026-05-01T14:44:39.346Z</time></trkpt><trkpt lat="47.3050853" lon="11.087559166666665"><ele>619.0</ele><time>2026-05-01T14:44:40.328Z</time></trkpt><trkpt lat="47.30496003333333" lon="11.087233283333335"><ele>619.0</ele><time>2026-05-01T14:44:41.328Z</time></trkpt><trkpt lat="47.304836433333335" lon="11.086910633333332"><ele>619.0</ele><time>2026-05-01T14:44:42.347Z</time></trkpt><trkpt lat="47.30471536666668" lon="11.086590516666668"><ele>619.0</ele><time>2026-05-01T14:44:43.345Z</time></trkpt><trkpt lat="47.30459623333333" lon="11.086270033333335"><ele>619.0</ele><time>2026-05-01T14:44:44.328Z</time></trkpt><trkpt lat="47.30447713333333" lon="11.08594725"><ele>620.0</ele><time>2026-05-01T14:44:45.329Z</time></trkpt><trkpt lat="47.304361" lon="11.085624150000001"><ele>621.0</ele><time>2026-05-01T14:44:46.328Z</time></trkpt><trkpt lat="47.30424698333333" lon="11.085298499999999"><ele>621.0</ele><time>2026-05-01T14:44:47.328Z</time></trkpt><trkpt lat="47.304139783333326" lon="11.084971133333333"><ele>621.0</ele><time>2026-05-01T14:44:48.328Z</time></trkpt><trkpt lat="47.30403538333333" lon="11.084640533333333"><ele>621.5</ele><time>2026-05-01T14:44:49.328Z</time></trkpt><trkpt lat="47.303934033333334" lon="11.084307200000001"><ele>622.0</ele><time>2026-05-01T14:44:50.337Z</time></trkpt><trkpt lat="47.30383591666667" lon="11.083972716666665"><ele>622.0</ele><time>2026-05-01T14:44:51.347Z</time></trkpt><trkpt lat="47.303742349999986" lon="11.083637050000002"><ele>622.0</ele><time>2026-05-01T14:44:52.328Z</time></trkpt><trkpt lat="47.30365028333333" lon="11.083299133333332"><ele>622.5</ele><time>2026-05-01T14:44:53.337Z</time></trkpt><trkpt lat="47.303559616666675" lon="11.082960816666665"><ele>623.0</ele><time>2026-05-01T14:44:54.328Z</time></trkpt><trkpt lat="47.303469383333336" lon="11.082620616666668"><ele>623.5</ele><time>2026-05-01T14:44:55.329Z</time></trkpt><trkpt lat="47.30338073333334" lon="11.08227985"><ele>624.0</ele><time>2026-05-01T14:44:56.331Z</time></trkpt><trkpt lat="47.303297083333334" lon="11.081935683333333"><ele>623.0</ele><time>2026-05-01T14:44:57.33Z</time></trkpt><trkpt lat="47.30322041666666" lon="11.08158865"><ele>622.0</ele><time>2026-05-01T14:44:58.328Z</time></trkpt><trkpt lat="47.30314941666667" lon="11.0812407"><ele>621.5</ele><time>2026-05-01T14:44:59.347Z</time></trkpt><trkpt lat="47.303079966666665" lon="11.080891183333332"><ele>621.0</ele><time>2026-05-01T14:45:00.328Z</time></trkpt><trkpt lat="47.30301301666666" lon="11.0805376"><ele>621.0</ele><time>2026-05-01T14:45:01.328Z</time></trkpt><trkpt lat="47.30295123333334" lon="11.080182449999999"><ele>621.0</ele><time>2026-05-01T14:45:02.331Z</time></trkpt><trkpt lat="47.30289373333333" lon="11.079824150000002"><ele>621.0</ele><time>2026-05-01T14:45:03.328Z</time></trkpt><trkpt lat="47.30283866666667" lon="11.079464466666666"><ele>621.0</ele><time>2026-05-01T14:45:04.328Z</time></trkpt><trkpt lat="47.30278341666667" lon="11.079101566666669"><ele>622.0</ele><time>2026-05-01T14:45:05.337Z</time></trkpt><trkpt lat="47.302727966666666" lon="11.078739833333335"><ele>623.0</ele><time>2026-05-01T14:45:06.331Z</time></trkpt><trkpt lat="47.30267820000001" lon="11.078376116666668"><ele>623.5</ele><time>2026-05-01T14:45:07.329Z</time></trkpt><trkpt lat="47.302631999999996" lon="11.078011466666664"><ele>624.0</ele><time>2026-05-01T14:45:08.328Z</time></trkpt><trkpt lat="47.30258548333333" lon="11.077644983333334"><ele>624.0</ele><time>2026-05-01T14:45:09.348Z</time></trkpt><trkpt lat="47.30254196666666" lon="11.077276016666668"><ele>624.0</ele><time>2026-05-01T14:45:10.328Z</time></trkpt><trkpt lat="47.30249833333333" lon="11.076903716666667"><ele>624.0</ele><time>2026-05-01T14:45:11.331Z</time></trkpt><trkpt lat="47.302457749999995" lon="11.076530183333333"><ele>624.0</ele><time>2026-05-01T14:45:12.329Z</time></trkpt><trkpt lat="47.302416916666665" lon="11.076153783333332"><ele>624.0</ele><time>2026-05-01T14:45:13.328Z</time></trkpt><trkpt lat="47.30237971666667" lon="11.075778233333331"><ele>624.0</ele><time>2026-05-01T14:45:14.328Z</time></trkpt><trkpt lat="47.30234381666667" lon="11.07539835"><ele>624.0</ele><time>2026-05-01T14:45:15.347Z</time></trkpt><trkpt lat="47.30230865" lon="11.075014016666666"><ele>624.0</ele><time>2026-05-01T14:45:16.328Z</time></trkpt><trkpt lat="47.30227376666667" lon="11.074629416666669"><ele>622.5</ele><time>2026-05-01T14:45:17.343Z</time></trkpt><trkpt lat="47.30224153333334" lon="11.074244583333332"><ele>621.0</ele><time>2026-05-01T14:45:18.35Z</time></trkpt><trkpt lat="47.302208549999996" lon="11.073856283333335"><ele>621.0</ele><time>2026-05-01T14:45:19.329Z</time></trkpt><trkpt lat="47.30217616666667" lon="11.073463883333334"><ele>621.0</ele><time>2026-05-01T14:45:20.346Z</time></trkpt><trkpt lat="47.30214341666667" lon="11.073069966666667"><ele>621.0</ele><time>2026-05-01T14:45:21.347Z</time></trkpt><trkpt lat="47.30210753333334" lon="11.072675366666667"><ele>621.0</ele><time>2026-05-01T14:45:22.328Z</time></trkpt><trkpt lat="47.302072216666666" lon="11.072278483333333"><ele>621.5</ele><time>2026-05-01T14:45:23.329Z</time></trkpt><trkpt lat="47.302034983333336" lon="11.071879483333332"><ele>622.0</ele><time>2026-05-01T14:45:24.347Z</time></trkpt><trkpt lat="47.30199771666666" lon="11.071478566666666"><ele>622.5</ele><time>2026-05-01T14:45:25.349Z</time></trkpt><trkpt lat="47.301960449999996" lon="11.071077549999998"><ele>623.0</ele><time>2026-05-01T14:45:26.341Z</time></trkpt><trkpt lat="47.301920550000006" lon="11.070674766666665"><ele>623.5</ele><time>2026-05-01T14:45:27.352Z</time></trkpt><trkpt lat="47.301882616666674" lon="11.070271400000001"><ele>624.0</ele><time>2026-05-01T14:45:28.334Z</time></trkpt><trkpt lat="47.3018414" lon="11.069867633333335"><ele>624.0</ele><time>2026-05-01T14:45:29.349Z</time></trkpt><trkpt lat="47.30179625000001" lon="11.069464416666666"><ele>624.0</ele><time>2026-05-01T14:45:30.329Z</time></trkpt><trkpt lat="47.30175528333332" lon="11.069060016666667"><ele>624.0</ele><time>2026-05-01T14:45:31.333Z</time></trkpt><trkpt lat="47.30171368333334" lon="11.06865745"><ele>624.0</ele><time>2026-05-01T14:45:32.339Z</time></trkpt><trkpt lat="47.30166908333334" lon="11.068257233333334"><ele>626.0</ele><time>2026-05-01T14:45:33.328Z</time></trkpt><trkpt lat="47.30161955" lon="11.067856950000003"><ele>628.0</ele><time>2026-05-01T14:45:34.334Z</time></trkpt><trkpt lat="47.30156493333334" lon="11.067456916666666"><ele>628.5</ele><time>2026-05-01T14:45:35.347Z</time></trkpt><trkpt lat="47.301507750000006" lon="11.067054616666667"><ele>629.0</ele><time>2026-05-01T14:45:36.347Z</time></trkpt><trkpt lat="47.30144688333333" lon="11.066649666666668"><ele>627.0</ele><time>2026-05-01T14:45:37.328Z</time></trkpt><trkpt lat="47.30138045" lon="11.066248700000003"><ele>625.0</ele><time>2026-05-01T14:45:38.337Z</time></trkpt><trkpt lat="47.301307816666665" lon="11.0658549"><ele>625.0</ele><time>2026-05-01T14:45:39.347Z</time></trkpt><trkpt lat="47.30123165" lon="11.065465033333332"><ele>625.0</ele><time>2026-05-01T14:45:40.329Z</time></trkpt><trkpt lat="47.30115048333334" lon="11.065078016666666"><ele>624.5</ele><time>2026-05-01T14:45:41.328Z</time></trkpt><trkpt lat="47.30106564999999" lon="11.064694249999999"><ele>624.0</ele><time>2026-05-01T14:45:42.347Z</time></trkpt><trkpt lat="47.300977749999994" lon="11.064316100000001"><ele>624.0</ele><time>2026-05-01T14:45:43.336Z</time></trkpt><trkpt lat="47.30088273333334" lon="11.063941216666668"><ele>624.0</ele><time>2026-05-01T14:45:44.341Z</time></trkpt><trkpt lat="47.30078421666667" lon="11.06357055"><ele>624.0</ele><time>2026-05-01T14:45:45.348Z</time></trkpt><trkpt lat="47.30068135" lon="11.063202883333334"><ele>624.0</ele><time>2026-05-01T14:45:46.328Z</time></trkpt><trkpt lat="47.30057669999999" lon="11.062838050000002"><ele>625.0</ele><time>2026-05-01T14:45:47.33Z</time></trkpt><trkpt lat="47.30046973333333" lon="11.062478033333333"><ele>626.0</ele><time>2026-05-01T14:45:48.35Z</time></trkpt><trkpt lat="47.30036125" lon="11.062120916666666"><ele>626.0</ele><time>2026-05-01T14:45:49.33Z</time></trkpt><trkpt lat="47.300249349999994" lon="11.061769433333332"><ele>626.0</ele><time>2026-05-01T14:45:50.328Z</time></trkpt><trkpt lat="47.300136116666664" lon="11.061423249999999"><ele>625.5</ele><time>2026-05-01T14:45:51.328Z</time></trkpt><trkpt lat="47.30001836666667" lon="11.061075383333332"><ele>625.0</ele><time>2026-05-01T14:45:52.339Z</time></trkpt><trkpt lat="47.299898133333336" lon="11.06073115"><ele>624.0</ele><time>2026-05-01T14:45:53.345Z</time></trkpt><trkpt lat="47.29977365" lon="11.060387766666667"><ele>623.0</ele><time>2026-05-01T14:45:54.348Z</time></trkpt><trkpt lat="47.29964636666667" lon="11.060045400000002"><ele>625.0</ele><time>2026-05-01T14:45:55.33Z</time></trkpt><trkpt lat="47.2995176" lon="11.059707866666667"><ele>627.0</ele><time>2026-05-01T14:45:56.327Z</time></trkpt><trkpt lat="47.29938731666667" lon="11.05937198333333"><ele>626.5</ele><time>2026-05-01T14:45:57.347Z</time></trkpt><trkpt lat="47.299258449999996" lon="11.059036166666665"><ele>626.0</ele><time>2026-05-01T14:45:58.335Z</time></trkpt><trkpt lat="47.299132783333334" lon="11.058700666666669"><ele>626.0</ele><time>2026-05-01T14:45:59.328Z</time></trkpt><trkpt lat="47.29900608333334" lon="11.058364366666666"><ele>626.0</ele><time>2026-05-01T14:46:00.347Z</time></trkpt><trkpt lat="47.29888128333334" lon="11.058025866666666"><ele>625.0</ele><time>2026-05-01T14:46:01.329Z</time></trkpt><trkpt lat="47.29875758333333" lon="11.057685616666667"><ele>624.0</ele><time>2026-05-01T14:46:02.329Z</time></trkpt><trkpt lat="47.298632083333324" lon="11.057347266666667"><ele>624.0</ele><time>2026-05-01T14:46:03.346Z</time></trkpt><trkpt lat="47.29850461666666" lon="11.057011733333331"><ele>624.0</ele><time>2026-05-01T14:46:04.329Z</time></trkpt><trkpt lat="47.29837715" lon="11.056678566666669"><ele>623.5</ele><time>2026-05-01T14:46:05.331Z</time></trkpt><trkpt lat="47.29825011666667" lon="11.056343766666664"><ele>623.0</ele><time>2026-05-01T14:46:06.357Z</time></trkpt><trkpt lat="47.29812270000001" lon="11.056005350000001"><ele>625.0</ele><time>2026-05-01T14:46:07.329Z</time></trkpt><trkpt lat="47.297995099999994" lon="11.055671466666668"><ele>627.0</ele><time>2026-05-01T14:46:08.327Z</time></trkpt><trkpt lat="47.29786755" lon="11.055338633333333"><ele>627.0</ele><time>2026-05-01T14:46:09.327Z</time></trkpt><trkpt lat="47.297739533333335" lon="11.055000583333333"><ele>627.0</ele><time>2026-05-01T14:46:10.337Z</time></trkpt><trkpt lat="47.29761331666667" lon="11.054661999999999"><ele>628.5</ele><time>2026-05-01T14:46:11.329Z</time></trkpt><trkpt lat="47.297489399999996" lon="11.054321916666668"><ele>630.0</ele><time>2026-05-01T14:46:12.347Z</time></trkpt><trkpt lat="47.29736746666668" lon="11.053982133333333"><ele>628.5</ele><time>2026-05-01T14:46:13.328Z</time></trkpt><trkpt lat="47.29725031666667" lon="11.053637099999998"><ele>627.0</ele><time>2026-05-01T14:46:14.33Z</time></trkpt><trkpt lat="47.29713964999999" lon="11.053284433333332"><ele>626.5</ele><time>2026-05-01T14:46:15.327Z</time></trkpt><trkpt lat="47.29703691666667" lon="11.052921150000001"><ele>626.0</ele><time>2026-05-01T14:46:16.329Z</time></trkpt><trkpt lat="47.29694231666667" lon="11.052548366666668"><ele>626.0</ele><time>2026-05-01T14:46:17.329Z</time></trkpt><trkpt lat="47.29685501666666" lon="11.052173249999997"><ele>626.0</ele><time>2026-05-01T14:46:18.35Z</time></trkpt><trkpt lat="47.29677496666667" lon="11.051793716666669"><ele>626.5</ele><time>2026-05-01T14:46:19.331Z</time></trkpt><trkpt lat="47.29670214999999" lon="11.051411333333332"><ele>627.0</ele><time>2026-05-01T14:46:20.339Z</time></trkpt><trkpt lat="47.296638050000006" lon="11.051024466666668"><ele>627.0</ele><time>2026-05-01T14:46:21.348Z</time></trkpt><trkpt lat="47.296584516666655" lon="11.050636850000002"><ele>627.0</ele><time>2026-05-01T14:46:22.327Z</time></trkpt><trkpt lat="47.29654648333334" lon="11.050245783333333"><ele>627.0</ele><time>2026-05-01T14:46:23.342Z</time></trkpt><trkpt lat="47.29651666666667" lon="11.049858633333333"><ele>627.0</ele><time>2026-05-01T14:46:24.326Z</time></trkpt><trkpt lat="47.296497516666676" lon="11.049467933333334"><ele>627.0</ele><time>2026-05-01T14:46:25.327Z</time></trkpt><trkpt lat="47.29648501666667" lon="11.049078483333336"><ele>627.0</ele><time>2026-05-01T14:46:26.34Z</time></trkpt><trkpt lat="47.296479749999996" lon="11.048688283333334"><ele>627.0</ele><time>2026-05-01T14:46:27.348Z</time></trkpt><trkpt lat="47.296480249999995" lon="11.048300966666666"><ele>627.0</ele><time>2026-05-01T14:46:28.328Z</time></trkpt><trkpt lat="47.29648533333334" lon="11.047915599999998"><ele>626.5</ele><time>2026-05-01T14:46:29.335Z</time></trkpt><trkpt lat="47.296490283333334" lon="11.047533316666666"><ele>626.0</ele><time>2026-05-01T14:46:30.348Z</time></trkpt><trkpt lat="47.29649176666667" lon="11.047153816666667"><ele>626.0</ele><time>2026-05-01T14:46:31.328Z</time></trkpt><trkpt lat="47.29648758333333" lon="11.04677385"><ele>626.0</ele><time>2026-05-01T14:46:32.331Z</time></trkpt><trkpt lat="47.29647920000001" lon="11.0463944"><ele>626.5</ele><time>2026-05-01T14:46:33.33Z</time></trkpt><trkpt lat="47.29646535" lon="11.046014333333334"><ele>627.0</ele><time>2026-05-01T14:46:34.328Z</time></trkpt><trkpt lat="47.29644735" lon="11.045637483333334"><ele>627.0</ele><time>2026-05-01T14:46:35.338Z</time></trkpt><trkpt lat="47.296425899999996" lon="11.045265933333333"><ele>627.0</ele><time>2026-05-01T14:46:36.328Z</time></trkpt><trkpt lat="47.2964005" lon="11.044894833333334"><ele>626.0</ele><time>2026-05-01T14:46:37.326Z</time></trkpt><trkpt lat="47.296369299999995" lon="11.044523800000002"><ele>625.0</ele><time>2026-05-01T14:46:38.329Z</time></trkpt><trkpt lat="47.296332833333324" lon="11.044154616666665"><ele>625.5</ele><time>2026-05-01T14:46:39.348Z</time></trkpt><trkpt lat="47.29629023333334" lon="11.043787933333332"><ele>626.0</ele><time>2026-05-01T14:46:40.333Z</time></trkpt><trkpt lat="47.2962402" lon="11.043421933333333"><ele>626.5</ele><time>2026-05-01T14:46:41.335Z</time></trkpt><trkpt lat="47.29618458333333" lon="11.043053666666665"><ele>627.0</ele><time>2026-05-01T14:46:42.331Z</time></trkpt><trkpt lat="47.29612770000001" lon="11.042677499999998"><ele>627.0</ele><time>2026-05-01T14:46:43.327Z</time></trkpt><trkpt lat="47.296065" lon="11.042303683333333"><ele>627.0</ele><time>2026-05-01T14:46:44.335Z</time></trkpt><trkpt lat="47.29599788333333" lon="11.041932566666665"><ele>626.0</ele><time>2026-05-01T14:46:45.329Z</time></trkpt><trkpt lat="47.295928749999995" lon="11.041559116666667"><ele>625.0</ele><time>2026-05-01T14:46:46.327Z</time></trkpt><trkpt lat="47.29585740000001" lon="11.041185616666667"><ele>625.0</ele><time>2026-05-01T14:46:47.332Z</time></trkpt><trkpt lat="47.295785166666676" lon="11.040810616666667"><ele>625.0</ele><time>2026-05-01T14:46:48.35Z</time></trkpt><trkpt lat="47.29571478333334" lon="11.040437283333333"><ele>624.0</ele><time>2026-05-01T14:46:49.329Z</time></trkpt><trkpt lat="47.295644849999995" lon="11.040062383333334"><ele>623.0</ele><time>2026-05-01T14:46:50.326Z</time></trkpt><trkpt lat="47.29557523333333" lon="11.039686300000001"><ele>624.5</ele><time>2026-05-01T14:46:51.327Z</time></trkpt><trkpt lat="47.29550466666666" lon="11.039311583333333"><ele>626.0</ele><time>2026-05-01T14:46:52.328Z</time></trkpt><trkpt lat="47.29543638333333" lon="11.038936666666666"><ele>626.0</ele><time>2026-05-01T14:46:53.328Z</time></trkpt><trkpt lat="47.29536988333332" lon="11.03855766666667"><ele>626.0</ele><time>2026-05-01T14:46:54.348Z</time></trkpt><trkpt lat="47.29530218333333" lon="11.038176866666666"><ele>627.0</ele><time>2026-05-01T14:46:55.331Z</time></trkpt><trkpt lat="47.29523235" lon="11.037795416666667"><ele>628.0</ele><time>2026-05-01T14:46:56.349Z</time></trkpt><trkpt lat="47.295165600000004" lon="11.03741353333333"><ele>629.5</ele><time>2026-05-01T14:46:57.348Z</time></trkpt><trkpt lat="47.295100950000005" lon="11.037030733333332"><ele>631.0</ele><time>2026-05-01T14:46:58.33Z</time></trkpt><trkpt lat="47.29503893333334" lon="11.0366473"><ele>631.0</ele><time>2026-05-01T14:46:59.33Z</time></trkpt><trkpt lat="47.29497739999999" lon="11.036260866666664"><ele>631.0</ele><time>2026-05-01T14:47:00.348Z</time></trkpt><trkpt lat="47.29491726666667" lon="11.03587246666667"><ele>629.5</ele><time>2026-05-01T14:47:01.329Z</time></trkpt><trkpt lat="47.29486041666667" lon="11.035484316666668"><ele>628.0</ele><time>2026-05-01T14:47:02.33Z</time></trkpt><trkpt lat="47.29480345" lon="11.035094749999999"><ele>627.5</ele><time>2026-05-01T14:47:03.35Z</time></trkpt><trkpt lat="47.29474746666667" lon="11.0347011"><ele>627.0</ele><time>2026-05-01T14:47:04.328Z</time></trkpt><trkpt lat="47.29469130000001" lon="11.034309066666667"><ele>627.5</ele><time>2026-05-01T14:47:05.348Z</time></trkpt><trkpt lat="47.29463548333333" lon="11.033916733333335"><ele>628.0</ele><time>2026-05-01T14:47:06.348Z</time></trkpt><trkpt lat="47.29457916666667" lon="11.033522566666667"><ele>628.5</ele><time>2026-05-01T14:47:07.345Z</time></trkpt><trkpt lat="47.294523549999994" lon="11.033131416666667"><ele>629.0</ele><time>2026-05-01T14:47:08.327Z</time></trkpt><trkpt lat="47.29447056666667" lon="11.032737149999999"><ele>628.5</ele><time>2026-05-01T14:47:09.348Z</time></trkpt><trkpt lat="47.29442026666667" lon="11.032342983333335"><ele>628.0</ele><time>2026-05-01T14:47:10.342Z</time></trkpt><trkpt lat="47.29436915" lon="11.031946783333336"><ele>628.0</ele><time>2026-05-01T14:47:11.327Z</time></trkpt><trkpt lat="47.29432078333332" lon="11.0315515"><ele>628.0</ele><time>2026-05-01T14:47:12.327Z</time></trkpt><trkpt lat="47.2942758" lon="11.031151983333334"><ele>628.5</ele><time>2026-05-01T14:47:13.329Z</time></trkpt><trkpt lat="47.2942329" lon="11.030752633333334"><ele>629.0</ele><time>2026-05-01T14:47:14.344Z</time></trkpt><trkpt lat="47.29419053333333" lon="11.030355466666666"><ele>630.0</ele><time>2026-05-01T14:47:15.328Z</time></trkpt><trkpt lat="47.29414815" lon="11.029958966666667"><ele>631.0</ele><time>2026-05-01T14:47:16.329Z</time></trkpt><trkpt lat="47.29410838333334" lon="11.029562200000003"><ele>631.0</ele><time>2026-05-01T14:47:17.329Z</time></trkpt><trkpt lat="47.294068349999996" lon="11.029166116666666"><ele>631.0</ele><time>2026-05-01T14:47:18.35Z</time></trkpt><trkpt lat="47.2940276" lon="11.028771033333332"><ele>631.5</ele><time>2026-05-01T14:47:19.337Z</time></trkpt><trkpt lat="47.29398846666667" lon="11.028379066666666"><ele>632.0</ele><time>2026-05-01T14:47:20.33Z</time></trkpt><trkpt lat="47.2939453" lon="11.027987266666665"><ele>631.5</ele><time>2026-05-01T14:47:21.348Z</time></trkpt><trkpt lat="47.29389998333333" lon="11.027595516666667"><ele>631.0</ele><time>2026-05-01T14:47:22.329Z</time></trkpt><trkpt lat="47.29385011666666" lon="11.027206133333333"><ele>631.0</ele><time>2026-05-01T14:47:23.339Z</time></trkpt><trkpt lat="47.293795383333325" lon="11.026820383333332"><ele>631.0</ele><time>2026-05-01T14:47:24.348Z</time></trkpt><trkpt lat="47.29373568333334" lon="11.026436633333331"><ele>631.5</ele><time>2026-05-01T14:47:25.346Z</time></trkpt><trkpt lat="47.293670666666664" lon="11.02605295"><ele>632.0</ele><time>2026-05-01T14:47:26.339Z</time></trkpt><trkpt lat="47.293600950000005" lon="11.025672083333331"><ele>631.5</ele><time>2026-05-01T14:47:27.348Z</time></trkpt><trkpt lat="47.2935259" lon="11.025291650000002"><ele>631.0</ele><time>2026-05-01T14:47:28.338Z</time></trkpt><trkpt lat="47.293445983333335" lon="11.02491435"><ele>631.0</ele><time>2026-05-01T14:47:29.336Z</time></trkpt><trkpt lat="47.293357116666655" lon="11.024537916666668"><ele>631.0</ele><time>2026-05-01T14:47:30.348Z</time></trkpt><trkpt lat="47.2932613" lon="11.024164233333332"><ele>630.5</ele><time>2026-05-01T14:47:31.328Z</time></trkpt><trkpt lat="47.29316116666667" lon="11.023792766666668"><ele>630.0</ele><time>2026-05-01T14:47:32.328Z</time></trkpt><trkpt lat="47.293055733333325" lon="11.023421566666665"><ele>630.0</ele><time>2026-05-01T14:47:33.328Z</time></trkpt><trkpt lat="47.29294306666667" lon="11.02305115"><ele>630.0</ele><time>2026-05-01T14:47:34.347Z</time></trkpt><trkpt lat="47.29282791666666" lon="11.022683350000001"><ele>630.5</ele><time>2026-05-01T14:47:35.332Z</time></trkpt><trkpt lat="47.292713516666666" lon="11.022314016666666"><ele>631.0</ele><time>2026-05-01T14:47:36.348Z</time></trkpt><trkpt lat="47.29260086666667" lon="11.021942066666668"><ele>629.5</ele><time>2026-05-01T14:47:37.328Z</time></trkpt><trkpt lat="47.29248541666666" lon="11.021569166666666"><ele>628.0</ele><time>2026-05-01T14:47:38.33Z</time></trkpt><trkpt lat="47.292366783333335" lon="11.021197233333332"><ele>628.5</ele><time>2026-05-01T14:47:39.333Z</time></trkpt><trkpt lat="47.29224626666667" lon="11.020829883333334"><ele>629.0</ele><time>2026-05-01T14:47:40.328Z</time></trkpt><trkpt lat="47.29212715" lon="11.020462416666666"><ele>629.0</ele><time>2026-05-01T14:47:41.332Z</time></trkpt><trkpt lat="47.29200935000001" lon="11.0200909"><ele>629.0</ele><time>2026-05-01T14:47:42.358Z</time></trkpt><trkpt lat="47.29189326666667" lon="11.01971755"><ele>629.0</ele><time>2026-05-01T14:47:43.33Z</time></trkpt><trkpt lat="47.291777849999995" lon="11.019339816666664"><ele>629.0</ele><time>2026-05-01T14:47:44.329Z</time></trkpt><trkpt lat="47.29166266666666" lon="11.018958983333334"><ele>629.0</ele><time>2026-05-01T14:47:45.348Z</time></trkpt><trkpt lat="47.29155066666667" lon="11.018583816666666"><ele>629.0</ele><time>2026-05-01T14:47:46.336Z</time></trkpt><trkpt lat="47.29143773333334" lon="11.0182082"><ele>630.0</ele><time>2026-05-01T14:47:47.325Z</time></trkpt><trkpt lat="47.29132715000001" lon="11.017833166666666"><ele>631.0</ele><time>2026-05-01T14:47:48.329Z</time></trkpt><trkpt lat="47.29121978333333" lon="11.017456516666668"><ele>631.0</ele><time>2026-05-01T14:47:49.329Z</time></trkpt><trkpt lat="47.2911158" lon="11.017078866666669"><ele>631.0</ele><time>2026-05-01T14:47:50.325Z</time></trkpt><trkpt lat="47.29101366666667" lon="11.01669691666667"><ele>630.5</ele><time>2026-05-01T14:47:51.346Z</time></trkpt><trkpt lat="47.29091701666666" lon="11.016318033333334"><ele>630.0</ele><time>2026-05-01T14:47:52.328Z</time></trkpt><trkpt lat="47.29082046666667" lon="11.015939183333334"><ele>630.5</ele><time>2026-05-01T14:47:53.327Z</time></trkpt><trkpt lat="47.290726666666664" lon="11.015559916666666"><ele>631.0</ele><time>2026-05-01T14:47:54.351Z</time></trkpt><trkpt lat="47.2906336" lon="11.015179516666667"><ele>630.0</ele><time>2026-05-01T14:47:55.346Z</time></trkpt><trkpt lat="47.29053948333333" lon="11.014799266666667"><ele>629.0</ele><time>2026-05-01T14:47:56.337Z</time></trkpt><trkpt lat="47.2904462" lon="11.014421283333334"><ele>630.0</ele><time>2026-05-01T14:47:57.328Z</time></trkpt><trkpt lat="47.29035565000001" lon="11.014042383333333"><ele>631.0</ele><time>2026-05-01T14:47:58.33Z</time></trkpt><trkpt lat="47.29026893333333" lon="11.013659766666668"><ele>631.5</ele><time>2026-05-01T14:47:59.348Z</time></trkpt><trkpt lat="47.290183033333335" lon="11.013275283333332"><ele>632.0</ele><time>2026-05-01T14:48:00.327Z</time></trkpt><trkpt lat="47.29009961666667" lon="11.012889633333335"><ele>632.0</ele><time>2026-05-01T14:48:01.329Z</time></trkpt><trkpt lat="47.290014233333345" lon="11.012504850000001"><ele>632.0</ele><time>2026-05-01T14:48:02.337Z</time></trkpt><trkpt lat="47.289928700000004" lon="11.012116566666668"><ele>632.0</ele><time>2026-05-01T14:48:03.351Z</time></trkpt><trkpt lat="47.289844949999996" lon="11.011729233333332"><ele>632.0</ele><time>2026-05-01T14:48:04.341Z</time></trkpt><trkpt lat="47.28976398333332" lon="11.01134035"><ele>632.0</ele><time>2026-05-01T14:48:05.327Z</time></trkpt><trkpt lat="47.28968556666667" lon="11.010951066666667"><ele>632.0</ele><time>2026-05-01T14:48:06.348Z</time></trkpt><trkpt lat="47.28961435" lon="11.010556016666666"><ele>632.0</ele><time>2026-05-01T14:48:07.329Z</time></trkpt><trkpt lat="47.28954626666666" lon="11.010162483333334"><ele>632.0</ele><time>2026-05-01T14:48:08.327Z</time></trkpt><trkpt lat="47.28947173333332" lon="11.00976625"><ele>632.5</ele><time>2026-05-01T14:48:09.349Z</time></trkpt><trkpt lat="47.2893951" lon="11.009369533333333"><ele>633.0</ele><time>2026-05-01T14:48:10.329Z</time></trkpt><trkpt lat="47.289318599999994" lon="11.008971"><ele>633.5</ele><time>2026-05-01T14:48:11.327Z</time></trkpt><trkpt lat="47.28924563333333" lon="11.008571066666665"><ele>634.0</ele><time>2026-05-01T14:48:12.351Z</time></trkpt><trkpt lat="47.28917203333334" lon="11.008171033333335"><ele>634.0</ele><time>2026-05-01T14:48:13.337Z</time></trkpt><trkpt lat="47.28910101666666" lon="11.007770966666666"><ele>634.0</ele><time>2026-05-01T14:48:14.329Z</time></trkpt><trkpt lat="47.28903148333333" lon="11.007369066666667"><ele>633.0</ele><time>2026-05-01T14:48:15.328Z</time></trkpt><trkpt lat="47.28896039999999" lon="11.006968683333332"><ele>632.0</ele><time>2026-05-01T14:48:16.329Z</time></trkpt><trkpt lat="47.28888756666667" lon="11.006566966666668"><ele>632.0</ele><time>2026-05-01T14:48:17.336Z</time></trkpt><trkpt lat="47.28881338333334" lon="11.00616888333333"><ele>632.0</ele><time>2026-05-01T14:48:18.348Z</time></trkpt><trkpt lat="47.28873778333333" lon="11.00576743333333"><ele>632.0</ele><time>2026-05-01T14:48:19.331Z</time></trkpt><trkpt lat="47.28866213333334" lon="11.005364966666665"><ele>632.0</ele><time>2026-05-01T14:48:20.327Z</time></trkpt><trkpt lat="47.28858866666666" lon="11.004965350000003"><ele>631.5</ele><time>2026-05-01T14:48:21.349Z</time></trkpt><trkpt lat="47.28852135" lon="11.004565600000001"><ele>631.0</ele><time>2026-05-01T14:48:22.336Z</time></trkpt><trkpt lat="47.28845363333333" lon="11.004164916666664"><ele>632.5</ele><time>2026-05-01T14:48:23.33Z</time></trkpt><trkpt lat="47.28838798333333" lon="11.003762383333333"><ele>634.0</ele><time>2026-05-01T14:48:24.348Z</time></trkpt><trkpt lat="47.288320066666664" lon="11.003365433333332"><ele>634.5</ele><time>2026-05-01T14:48:25.329Z</time></trkpt><trkpt lat="47.288249916666665" lon="11.002969233333333"><ele>635.0</ele><time>2026-05-01T14:48:26.33Z</time></trkpt><trkpt lat="47.288179099999994" lon="11.0025712"><ele>635.5</ele><time>2026-05-01T14:48:27.354Z</time></trkpt><trkpt lat="47.28810831666666" lon="11.002176016666665"><ele>636.0</ele><time>2026-05-01T14:48:28.332Z</time></trkpt><trkpt lat="47.28804035" lon="11.001780183333336"><ele>634.0</ele><time>2026-05-01T14:48:29.327Z</time></trkpt><trkpt lat="47.28796988333334" lon="11.00138415"><ele>632.0</ele><time>2026-05-01T14:48:30.348Z</time></trkpt><trkpt lat="47.287898883333334" lon="11.00098835"><ele>633.5</ele><time>2026-05-01T14:48:31.327Z</time></trkpt><trkpt lat="47.28782941666667" lon="11.000592133333335"><ele>635.0</ele><time>2026-05-01T14:48:32.347Z</time></trkpt><trkpt lat="47.28776249999999" lon="11.000197233333331"><ele>635.0</ele><time>2026-05-01T14:48:33.328Z</time></trkpt><trkpt lat="47.2876958" lon="10.999804616666665"><ele>635.0</ele><time>2026-05-01T14:48:34.327Z</time></trkpt><trkpt lat="47.287625799999994" lon="10.999413283333334"><ele>635.0</ele><time>2026-05-01T14:48:35.336Z</time></trkpt><trkpt lat="47.28755525" lon="10.999020783333332"><ele>635.0</ele><time>2026-05-01T14:48:36.328Z</time></trkpt><trkpt lat="47.2874833" lon="10.998630283333334"><ele>634.5</ele><time>2026-05-01T14:48:37.327Z</time></trkpt><trkpt lat="47.287411350000006" lon="10.998240483333332"><ele>634.0</ele><time>2026-05-01T14:48:38.327Z</time></trkpt><trkpt lat="47.28734036666666" lon="10.997853866666667"><ele>635.0</ele><time>2026-05-01T14:48:39.349Z</time></trkpt><trkpt lat="47.28726945" lon="10.997465633333334"><ele>636.0</ele><time>2026-05-01T14:48:40.336Z</time></trkpt><trkpt lat="47.28720045" lon="10.997075216666667"><ele>636.5</ele><time>2026-05-01T14:48:41.349Z</time></trkpt><trkpt lat="47.28713525" lon="10.99668235"><ele>637.0</ele><time>2026-05-01T14:48:42.349Z</time></trkpt><trkpt lat="47.28707175" lon="10.996288133333334"><ele>637.0</ele><time>2026-05-01T14:48:43.327Z</time></trkpt><trkpt lat="47.28700651666666" lon="10.995891066666665"><ele>637.0</ele><time>2026-05-01T14:48:44.327Z</time></trkpt><trkpt lat="47.28694061666666" lon="10.995497066666667"><ele>638.0</ele><time>2026-05-01T14:48:45.336Z</time></trkpt><trkpt lat="47.28687535" lon="10.99510528333333"><ele>639.0</ele><time>2026-05-01T14:48:46.339Z</time></trkpt><trkpt lat="47.286809283333334" lon="10.994715666666664"><ele>639.0</ele><time>2026-05-01T14:48:47.33Z</time></trkpt><trkpt lat="47.28674115" lon="10.994325316666666"><ele>639.0</ele><time>2026-05-01T14:48:48.33Z</time></trkpt><trkpt lat="47.286670183333335" lon="10.993937"><ele>638.5</ele><time>2026-05-01T14:48:49.326Z</time></trkpt><trkpt lat="47.286598500000004" lon="10.993550666666666"><ele>638.0</ele><time>2026-05-01T14:48:50.339Z</time></trkpt><trkpt lat="47.28652715" lon="10.993165633333334"><ele>638.0</ele><time>2026-05-01T14:48:51.349Z</time></trkpt><trkpt lat="47.286456" lon="10.992778150000001"><ele>638.0</ele><time>2026-05-01T14:48:52.33Z</time></trkpt><trkpt lat="47.28638635000001" lon="10.992391216666666"><ele>638.0</ele><time>2026-05-01T14:48:53.329Z</time></trkpt><trkpt lat="47.286314833333336" lon="10.992006066666667"><ele>638.0</ele><time>2026-05-01T14:48:54.329Z</time></trkpt><trkpt lat="47.28624393333333" lon="10.991619933333334"><ele>638.5</ele><time>2026-05-01T14:48:55.337Z</time></trkpt><trkpt lat="47.28617428333334" lon="10.991238133333331"><ele>639.0</ele><time>2026-05-01T14:48:56.336Z</time></trkpt><trkpt lat="47.286109483333334" lon="10.990851983333336"><ele>639.0</ele><time>2026-05-01T14:48:57.349Z</time></trkpt><trkpt lat="47.28604255" lon="10.990466866666667"><ele>639.0</ele><time>2026-05-01T14:48:58.327Z</time></trkpt><trkpt lat="47.28597386666667" lon="10.990080883333333"><ele>637.5</ele><time>2026-05-01T14:48:59.339Z</time></trkpt><trkpt lat="47.285908066666664" lon="10.989695649999998"><ele>636.0</ele><time>2026-05-01T14:49:00.328Z</time></trkpt><trkpt lat="47.28584321666667" lon="10.98931106666667"><ele>634.5</ele><time>2026-05-01T14:49:01.33Z</time></trkpt><trkpt lat="47.285776616666666" lon="10.988924633333331"><ele>633.0</ele><time>2026-05-01T14:49:02.33Z</time></trkpt><trkpt lat="47.28571388333334" lon="10.98853805"><ele>633.0</ele><time>2026-05-01T14:49:03.335Z</time></trkpt><trkpt lat="47.285654" lon="10.9881513"><ele>633.0</ele><time>2026-05-01T14:49:04.339Z</time></trkpt><trkpt lat="47.28559791666667" lon="10.987762483333332"><ele>634.0</ele><time>2026-05-01T14:49:05.33Z</time></trkpt><trkpt lat="47.28554306666667" lon="10.9873744"><ele>635.0</ele><time>2026-05-01T14:49:06.328Z</time></trkpt><trkpt lat="47.285488333333326" lon="10.986983483333331"><ele>635.5</ele><time>2026-05-01T14:49:07.331Z</time></trkpt><trkpt lat="47.28543653333333" lon="10.986589016666668"><ele>636.0</ele><time>2026-05-01T14:49:08.341Z</time></trkpt><trkpt lat="47.285386933333335" lon="10.986197366666666"><ele>635.5</ele><time>2026-05-01T14:49:09.349Z</time></trkpt><trkpt lat="47.28533741666667" lon="10.985803849999998"><ele>635.0</ele><time>2026-05-01T14:49:10.33Z</time></trkpt><trkpt lat="47.285288066666666" lon="10.985412083333332"><ele>635.0</ele><time>2026-05-01T14:49:11.339Z</time></trkpt><trkpt lat="47.28523826666666" lon="10.985019366666666"><ele>635.0</ele><time>2026-05-01T14:49:12.349Z</time></trkpt><trkpt lat="47.28518815" lon="10.984626800000001"><ele>636.0</ele><time>2026-05-01T14:49:13.326Z</time></trkpt><trkpt lat="47.28513826666667" lon="10.984231800000002"><ele>637.0</ele><time>2026-05-01T14:49:14.327Z</time></trkpt><trkpt lat="47.28509051666666" lon="10.983831366666667"><ele>637.0</ele><time>2026-05-01T14:49:15.349Z</time></trkpt><trkpt lat="47.285043949999995" lon="10.98343775"><ele>637.0</ele><time>2026-05-01T14:49:16.327Z</time></trkpt><trkpt lat="47.28499539999999" lon="10.983046416666665"><ele>637.0</ele><time>2026-05-01T14:49:17.336Z</time></trkpt><trkpt lat="47.28494711666667" lon="10.982652366666665"><ele>637.0</ele><time>2026-05-01T14:49:18.361Z</time></trkpt><trkpt lat="47.28490008333333" lon="10.982258433333334"><ele>637.0</ele><time>2026-05-01T14:49:19.33Z</time></trkpt><trkpt lat="47.28485186666666" lon="10.981867133333331"><ele>637.0</ele><time>2026-05-01T14:49:20.327Z</time></trkpt><trkpt lat="47.28480006666667" lon="10.981475499999998"><ele>636.5</ele><time>2026-05-01T14:49:21.329Z</time></trkpt><trkpt lat="47.28474408333333" lon="10.981084033333332"><ele>636.0</ele><time>2026-05-01T14:49:22.338Z</time></trkpt><trkpt lat="47.28468548333334" lon="10.980694616666664"><ele>636.0</ele><time>2026-05-01T14:49:23.339Z</time></trkpt><trkpt lat="47.28462448333333" lon="10.98030795"><ele>636.0</ele><time>2026-05-01T14:49:24.349Z</time></trkpt><trkpt lat="47.284563899999995" lon="10.979922216666667"><ele>636.5</ele><time>2026-05-01T14:49:25.326Z</time></trkpt><trkpt lat="47.28450036666666" lon="10.979535866666668"><ele>637.0</ele><time>2026-05-01T14:49:26.336Z</time></trkpt><trkpt lat="47.28443301666666" lon="10.979148366666669"><ele>637.5</ele><time>2026-05-01T14:49:27.348Z</time></trkpt><trkpt lat="47.28436406666667" lon="10.978763800000001"><ele>638.0</ele><time>2026-05-01T14:49:28.33Z</time></trkpt><trkpt lat="47.28428864999999" lon="10.978377166666666"><ele>636.5</ele><time>2026-05-01T14:49:29.33Z</time></trkpt><trkpt lat="47.28420548333334" lon="10.977990533333331"><ele>635.0</ele><time>2026-05-01T14:49:30.349Z</time></trkpt><trkpt lat="47.28411893333333" lon="10.977609766666667"><ele>637.0</ele><time>2026-05-01T14:49:31.349Z</time></trkpt><trkpt lat="47.28402946666667" lon="10.977228533333333"><ele>639.0</ele><time>2026-05-01T14:49:32.328Z</time></trkpt><trkpt lat="47.28393655" lon="10.976850950000001"><ele>638.0</ele><time>2026-05-01T14:49:33.332Z</time></trkpt><trkpt lat="47.283841516666676" lon="10.976474599999998"><ele>637.0</ele><time>2026-05-01T14:49:34.33Z</time></trkpt><trkpt lat="47.28374053333334" lon="10.976096800000002"><ele>636.5</ele><time>2026-05-01T14:49:35.337Z</time></trkpt><trkpt lat="47.283634633333335" lon="10.975723983333333"><ele>636.0</ele><time>2026-05-01T14:49:36.357Z</time></trkpt><trkpt lat="47.28352561666667" lon="10.975355799999999"><ele>636.5</ele><time>2026-05-01T14:49:37.369Z</time></trkpt><trkpt lat="47.28340865" lon="10.9749892"><ele>637.0</ele><time>2026-05-01T14:49:38.384Z</time></trkpt><trkpt lat="47.28329035" lon="10.974629"><ele>637.0</ele><time>2026-05-01T14:49:39.364Z</time></trkpt><trkpt lat="47.28316636666667" lon="10.974270016666665"><ele>637.0</ele><time>2026-05-01T14:49:40.336Z</time></trkpt><trkpt lat="47.28304298333334" lon="10.973914283333333"><ele>638.0</ele><time>2026-05-01T14:49:41.391Z</time></trkpt><trkpt lat="47.282916400000005" lon="10.9735587"><ele>639.0</ele><time>2026-05-01T14:49:42.351Z</time></trkpt><trkpt lat="47.28278678333333" lon="10.97320465"><ele>637.5</ele><time>2026-05-01T14:49:43.326Z</time></trkpt><trkpt lat="47.2826528" lon="10.972856083333333"><ele>636.0</ele><time>2026-05-01T14:49:44.337Z</time></trkpt><trkpt lat="47.28251650000001" lon="10.972510299999998"><ele>636.0</ele><time>2026-05-01T14:49:45.348Z</time></trkpt><trkpt lat="47.28237536666668" lon="10.9721673"><ele>636.0</ele><time>2026-05-01T14:49:46.326Z</time></trkpt><trkpt lat="47.28222978333333" lon="10.971831366666667"><ele>638.0</ele><time>2026-05-01T14:49:47.341Z</time></trkpt><trkpt lat="47.28208011666667" lon="10.971498033333333"><ele>640.0</ele><time>2026-05-01T14:49:48.348Z</time></trkpt><trkpt lat="47.28192548333333" lon="10.97116905"><ele>640.0</ele><time>2026-05-01T14:49:49.33Z</time></trkpt><trkpt lat="47.28176758333334" lon="10.970845266666666"><ele>640.0</ele><time>2026-05-01T14:49:50.359Z</time></trkpt><trkpt lat="47.28160551666667" lon="10.970526549999999"><ele>640.0</ele><time>2026-05-01T14:49:51.348Z</time></trkpt><trkpt lat="47.28144661666667" lon="10.970212450000002"><ele>640.0</ele><time>2026-05-01T14:49:52.326Z</time></trkpt><trkpt lat="47.281290199999994" lon="10.96990045"><ele>639.0</ele><time>2026-05-01T14:49:53.338Z</time></trkpt><trkpt lat="47.28113831666666" lon="10.969591216666668"><ele>638.0</ele><time>2026-05-01T14:49:54.348Z</time></trkpt><trkpt lat="47.28098725" lon="10.969285383333332"><ele>636.0</ele><time>2026-05-01T14:49:55.338Z</time></trkpt><trkpt lat="47.280837749999996" lon="10.968986399999999"><ele>634.0</ele><time>2026-05-01T14:49:56.337Z</time></trkpt><trkpt lat="47.28068793333333" lon="10.968691983333335"><ele>635.5</ele><time>2026-05-01T14:49:57.329Z</time></trkpt><trkpt lat="47.28054099999999" lon="10.9684037"><ele>637.0</ele><time>2026-05-01T14:49:58.346Z</time></trkpt><trkpt lat="47.28039821666666" lon="10.968121083333331"><ele>637.0</ele><time>2026-05-01T14:49:59.331Z</time></trkpt><trkpt lat="47.28026341666667" lon="10.967844416666667"><ele>637.0</ele><time>2026-05-01T14:50:00.349Z</time></trkpt><trkpt lat="47.2801371" lon="10.967572350000001"><ele>638.0</ele><time>2026-05-01T14:50:01.345Z</time></trkpt><trkpt lat="47.280016233333335" lon="10.967304283333332"><ele>639.0</ele><time>2026-05-01T14:50:02.343Z</time></trkpt><trkpt lat="47.279903100000006" lon="10.967044116666667"><ele>640.0</ele><time>2026-05-01T14:50:03.35Z</time></trkpt><trkpt lat="47.279797949999995" lon="10.966787866666667"><ele>638.6666666666667</ele><time>2026-05-01T14:50:04.326Z</time></trkpt><trkpt lat="47.27970086666666" lon="10.966537416666666"><ele>637.3333333333334</ele><time>2026-05-01T14:50:05.336Z</time></trkpt><trkpt lat="47.2796053" lon="10.9662928"><ele>636.0</ele><time>2026-05-01T14:50:06.352Z</time></trkpt><trkpt lat="47.279515083333344" lon="10.966060366666667"><ele>637.3333333333334</ele><time>2026-05-01T14:50:07.325Z</time></trkpt><trkpt lat="47.27942726666667" lon="10.965835633333333"><ele>638.6666666666667</ele><time>2026-05-01T14:50:08.348Z</time></trkpt><trkpt lat="47.279341949999996" lon="10.965601783333334"><ele>640.0</ele><time>2026-05-01T14:50:09.35Z</time></trkpt><trkpt lat="47.279260233333325" lon="10.965364383333334"><ele>640.0</ele><time>2026-05-01T14:50:10.329Z</time></trkpt><trkpt lat="47.27917528333334" lon="10.965123916666666"><ele>640.0</ele><time>2026-05-01T14:50:11.337Z</time></trkpt><trkpt lat="47.279087399999995" lon="10.964883850000001"><ele>640.0</ele><time>2026-05-01T14:50:12.35Z</time></trkpt><trkpt lat="47.27899855000001" lon="10.964639016666668"><ele>640.0</ele><time>2026-05-01T14:50:13.328Z</time></trkpt><trkpt lat="47.27890968333333" lon="10.96439375"><ele>640.0</ele><time>2026-05-01T14:50:14.345Z</time></trkpt><trkpt lat="47.27882198333334" lon="10.964148049999997"><ele>640.0</ele><time>2026-05-01T14:50:15.353Z</time></trkpt><trkpt lat="47.27873611666667" lon="10.963894316666664"><ele>640.0</ele><time>2026-05-01T14:50:16.327Z</time></trkpt><trkpt lat="47.27864481666667" lon="10.963639316666667"><ele>640.0</ele><time>2026-05-01T14:50:17.351Z</time></trkpt><trkpt lat="47.27854963333333" lon="10.9633929"><ele>640.0</ele><time>2026-05-01T14:50:18.35Z</time></trkpt><trkpt lat="47.2784491" lon="10.963147183333335"><ele>640.6666666666667</ele><time>2026-05-01T14:50:19.338Z</time></trkpt><trkpt lat="47.278345366666656" lon="10.96290715"><ele>641.3333333333334</ele><time>2026-05-01T14:50:20.344Z</time></trkpt><trkpt lat="47.27823928333334" lon="10.962673849999998"><ele>642.0</ele><time>2026-05-01T14:50:21.349Z</time></trkpt><trkpt lat="47.27813176666667" lon="10.962444883333333"><ele>643.6666666666666</ele><time>2026-05-01T14:50:22.326Z</time></trkpt><trkpt lat="47.278024233333326" lon="10.9622251"><ele>645.3333333333333</ele><time>2026-05-01T14:50:23.35Z</time></trkpt><trkpt lat="47.27791353333334" lon="10.962015866666665"><ele>647.0</ele><time>2026-05-01T14:50:24.348Z</time></trkpt><trkpt lat="47.277798950000005" lon="10.961808983333334"><ele>646.6666666666666</ele><time>2026-05-01T14:50:25.326Z</time></trkpt><trkpt lat="47.27768661666667" lon="10.961596550000001"><ele>646.3333333333334</ele><time>2026-05-01T14:50:26.344Z</time></trkpt><trkpt lat="47.27757085" lon="10.961393766666667"><ele>646.0</ele><time>2026-05-01T14:50:27.349Z</time></trkpt><trkpt lat="47.277454033333335" lon="10.961193116666667"><ele>646.0</ele><time>2026-05-01T14:50:28.326Z</time></trkpt><trkpt lat="47.277337416666654" lon="10.960999866666668"><ele>646.0</ele><time>2026-05-01T14:50:29.344Z</time></trkpt><trkpt lat="47.27722239999999" lon="10.960817733333334"><ele>646.0</ele><time>2026-05-01T14:50:30.35Z</time></trkpt><trkpt lat="47.27710425" lon="10.960647416666665"><ele>645.3333333333334</ele><time>2026-05-01T14:50:31.338Z</time></trkpt><trkpt lat="47.27697668333333" lon="10.960488750000001"><ele>644.6666666666666</ele><time>2026-05-01T14:50:32.337Z</time></trkpt><trkpt lat="47.276841466666674" lon="10.960344750000003"><ele>644.0</ele><time>2026-05-01T14:50:33.359Z</time></trkpt><trkpt lat="47.27670379999999" lon="10.960206016666666"><ele>644.0</ele><time>2026-05-01T14:50:34.338Z</time></trkpt><trkpt lat="47.276566733333325" lon="10.960068049999999"><ele>644.0</ele><time>2026-05-01T14:50:35.339Z</time></trkpt><trkpt lat="47.27644981950631" lon="10.959893257111366"><ele>644.0</ele><time>2026-05-01T14:50:36.348Z</time></trkpt><trkpt lat="47.27632273620835" lon="10.959731739640418"><ele>642.6666666666666</ele><time>2026-05-01T14:50:37.326Z</time></trkpt><trkpt lat="47.276196520996834" lon="10.959577818790292"><ele>641.3333333333334</ele><time>2026-05-01T14:50:38.326Z</time></trkpt><trkpt lat="47.27606928334456" lon="10.959425287741752"><ele>640.0</ele><time>2026-05-01T14:50:39.348Z</time></trkpt><trkpt lat="47.27594329737456" lon="10.959274619841217"><ele>640.6666666666667</ele><time>2026-05-01T14:50:40.34Z</time></trkpt><trkpt lat="47.275816111553915" lon="10.959125651945998"><ele>641.3333333333334</ele><time>2026-05-01T14:50:41.352Z</time></trkpt><trkpt lat="47.27568851755511" lon="10.958976361509723"><ele>642.0</ele><time>2026-05-01T14:50:42.348Z</time></trkpt><trkpt lat="47.27556080084252" lon="10.958826927667095"><ele>642.0</ele><time>2026-05-01T14:50:43.324Z</time></trkpt><trkpt lat="47.275432957502666" lon="10.958677345535245"><ele>642.0</ele><time>2026-05-01T14:50:44.347Z</time></trkpt><trkpt lat="47.275308267274134" lon="10.95852903670187"><ele>642.0</ele><time>2026-05-01T14:50:45.348Z</time></trkpt><trkpt lat="47.27518273528836" lon="10.958379669160825"><ele>642.3333333333334</ele><time>2026-05-01T14:50:46.338Z</time></trkpt><trkpt lat="47.27505712148043" lon="10.958228762533722"><ele>642.6666666666667</ele><time>2026-05-01T14:50:47.338Z</time></trkpt><trkpt lat="47.27493224980898" lon="10.95807286103391"><ele>643.0</ele><time>2026-05-01T14:50:48.351Z</time></trkpt><trkpt lat="47.274806606078805" lon="10.957915285427857"><ele>643.0</ele><time>2026-05-01T14:50:49.34Z</time></trkpt><trkpt lat="47.2746820740725" lon="10.957753652260356"><ele>643.0</ele><time>2026-05-01T14:50:50.328Z</time></trkpt><trkpt lat="47.274561684345116" lon="10.95758526648909"><ele>643.0</ele><time>2026-05-01T14:50:51.347Z</time></trkpt><trkpt lat="47.27444538447097" lon="10.9574193961234"><ele>643.0</ele><time>2026-05-01T14:50:52.338Z</time></trkpt><trkpt lat="47.274333002000326" lon="10.957257197417801"><ele>643.0</ele><time>2026-05-01T14:50:53.339Z</time></trkpt><trkpt lat="47.274229091947845" lon="10.957098165830507"><ele>643.0</ele><time>2026-05-01T14:50:54.352Z</time></trkpt><trkpt lat="47.274126872513925" lon="10.956934780267538"><ele>643.0</ele><time>2026-05-01T14:50:55.338Z</time></trkpt><trkpt lat="47.27402945005492" lon="10.956772304423662"><ele>643.0</ele><time>2026-05-01T14:50:56.337Z</time></trkpt><trkpt lat="47.27394076847335" lon="10.956617303585853"><ele>643.0</ele><time>2026-05-01T14:50:57.328Z</time></trkpt><trkpt lat="47.27385847861617" lon="10.956467341285293"><ele>643.0</ele><time>2026-05-01T14:50:58.327Z</time></trkpt><trkpt lat="47.27377906089065" lon="10.95632031251849"><ele>643.0</ele><time>2026-05-01T14:50:59.325Z</time></trkpt><trkpt lat="47.27370215853872" lon="10.956173328697057"><ele>643.0</ele><time>2026-05-01T14:51:00.349Z</time></trkpt><trkpt lat="47.27362741923347" lon="10.956022905797369"><ele>643.0</ele><time>2026-05-01T14:51:01.327Z</time></trkpt><trkpt lat="47.27355381273443" lon="10.955868936290347"><ele>643.0</ele><time>2026-05-01T14:51:02.338Z</time></trkpt><trkpt lat="47.27348121231024" lon="10.955711929216275"><ele>643.0</ele><time>2026-05-01T14:51:03.362Z</time></trkpt><trkpt lat="47.273410440459116" lon="10.955550585872054"><ele>643.0</ele><time>2026-05-01T14:51:04.328Z</time></trkpt><trkpt lat="47.27334007891387" lon="10.955384123152905"><ele>643.0</ele><time>2026-05-01T14:51:05.337Z</time></trkpt><trkpt lat="47.27327007973197" lon="10.955214346734591"><ele>643.0</ele><time>2026-05-01T14:51:06.348Z</time></trkpt><trkpt lat="47.273201821377654" lon="10.955043993771685"><ele>643.0</ele><time>2026-05-01T14:51:07.335Z</time></trkpt><trkpt lat="47.27313353419803" lon="10.95486551094397"><ele>643.0</ele><time>2026-05-01T14:51:08.339Z</time></trkpt><trkpt lat="47.273067815880204" lon="10.95468147888214"><ele>643.0</ele><time>2026-05-01T14:51:09.348Z</time></trkpt><trkpt lat="47.27300410143039" lon="10.954493684930604"><ele>643.0</ele><time>2026-05-01T14:51:10.327Z</time></trkpt><trkpt lat="47.27294092896383" lon="10.954302298633953"><ele>642.75</ele><time>2026-05-01T14:51:11.337Z</time></trkpt><trkpt lat="47.27288547276506" lon="10.954113675317712"><ele>642.5</ele><time>2026-05-01T14:51:12.348Z</time></trkpt><trkpt lat="47.27282870983382" lon="10.953919290339888"><ele>642.25</ele><time>2026-05-01T14:51:13.327Z</time></trkpt><trkpt lat="47.27277433522727" lon="10.953724196199996"><ele>642.0</ele><time>2026-05-01T14:51:14.344Z</time></trkpt><trkpt lat="47.27272046410101" lon="10.953526369251367"><ele>642.0</ele><time>2026-05-01T14:51:15.348Z</time></trkpt><trkpt lat="47.272672161708115" lon="10.95332737504777"><ele>642.0</ele><time>2026-05-01T14:51:16.327Z</time></trkpt><trkpt lat="47.272625059049474" lon="10.953122626085907"><ele>642.0</ele><time>2026-05-01T14:51:17.326Z</time></trkpt><trkpt lat="47.272580771385044" lon="10.95291633848778"><ele>642.0</ele><time>2026-05-01T14:51:18.352Z</time></trkpt><trkpt lat="47.27254032447258" lon="10.952708415221132"><ele>642.0</ele><time>2026-05-01T14:51:19.338Z</time></trkpt><trkpt lat="47.27250341396902" lon="10.952494139204331"><ele>642.0</ele><time>2026-05-01T14:51:20.337Z</time></trkpt><trkpt lat="47.27246866810069" lon="10.952277885059722"><ele>642.0</ele><time>2026-05-01T14:51:21.334Z</time></trkpt><trkpt lat="47.27243447484021" lon="10.952058681483079"><ele>642.0</ele><time>2026-05-01T14:51:22.344Z</time></trkpt><trkpt lat="47.272404093770774" lon="10.951838122937518"><ele>642.0</ele><time>2026-05-01T14:51:23.349Z</time></trkpt><trkpt lat="47.27237460362356" lon="10.951616117500922"><ele>642.0</ele><time>2026-05-01T14:51:24.348Z</time></trkpt><trkpt lat="47.27235000839802" lon="10.95139215836388"><ele>643.0</ele><time>2026-05-01T14:51:25.327Z</time></trkpt><trkpt lat="47.27233001042728" lon="10.95116678741355"><ele>644.0</ele><time>2026-05-01T14:51:26.359Z</time></trkpt><trkpt lat="47.27230975012778" lon="10.950939757645978"><ele>645.0</ele><time>2026-05-01T14:51:27.348Z</time></trkpt><trkpt lat="47.27229592709666" lon="10.950706183186902"><ele>645.0</ele><time>2026-05-01T14:51:28.327Z</time></trkpt><trkpt lat="47.27228209528322" lon="10.950472460939034"><ele>645.0</ele><time>2026-05-01T14:51:29.337Z</time></trkpt><trkpt lat="47.27227547588133" lon="10.950238881069046"><ele>645.0</ele><time>2026-05-01T14:51:30.348Z</time></trkpt><trkpt lat="47.27227233213514" lon="10.950003299647936"><ele>645.0</ele><time>2026-05-01T14:51:31.339Z</time></trkpt><trkpt lat="47.2722704140959" lon="10.949768912039271"><ele>645.0</ele><time>2026-05-01T14:51:32.34Z</time></trkpt><trkpt lat="47.272273431549586" lon="10.949538546511087"><ele>645.0</ele><time>2026-05-01T14:51:33.35Z</time></trkpt><trkpt lat="47.27227980504155" lon="10.949310399439442"><ele>644.6666666666666</ele><time>2026-05-01T14:51:34.328Z</time></trkpt><trkpt lat="47.2722886673929" lon="10.949086425749256"><ele>644.3333333333333</ele><time>2026-05-01T14:51:35.332Z</time></trkpt><trkpt lat="47.27230114441209" lon="10.948861111588299"><ele>644.0</ele><time>2026-05-01T14:51:36.348Z</time></trkpt><trkpt lat="47.272316555185306" lon="10.948639624347857"><ele>644.0</ele><time>2026-05-01T14:51:37.338Z</time></trkpt><trkpt lat="47.27233512260271" lon="10.94841900398326"><ele>644.0</ele><time>2026-05-01T14:51:38.339Z</time></trkpt><trkpt lat="47.27235663666809" lon="10.94820064549062"><ele>644.0</ele><time>2026-05-01T14:51:39.328Z</time></trkpt><trkpt lat="47.27238195381896" lon="10.947988006676672"><ele>644.0</ele><time>2026-05-01T14:51:40.337Z</time></trkpt><trkpt lat="47.27241106236619" lon="10.947773525041452"><ele>644.0</ele><time>2026-05-01T14:51:41.342Z</time></trkpt><trkpt lat="47.272440740603" lon="10.94755710559017"><ele>644.0</ele><time>2026-05-01T14:51:42.348Z</time></trkpt><trkpt lat="47.272472305503285" lon="10.94734051597952"><ele>644.0</ele><time>2026-05-01T14:51:43.325Z</time></trkpt><trkpt lat="47.27250852656887" lon="10.947122497626689"><ele>644.3333333333333</ele><time>2026-05-01T14:51:44.348Z</time></trkpt><trkpt lat="47.272548940223146" lon="10.946904938444776"><ele>644.6666666666666</ele><time>2026-05-01T14:51:45.349Z</time></trkpt><trkpt lat="47.27259012501586" lon="10.94668279951633"><ele>645.0</ele><time>2026-05-01T14:51:46.328Z</time></trkpt><trkpt lat="47.27263256590738" lon="10.946461213517393"><ele>645.0</ele><time>2026-05-01T14:51:47.337Z</time></trkpt><trkpt lat="47.272677535113196" lon="10.946241438896608"><ele>645.0</ele><time>2026-05-01T14:51:48.334Z</time></trkpt><trkpt lat="47.27272223634886" lon="10.946015143837315"><ele>645.0</ele><time>2026-05-01T14:51:49.327Z</time></trkpt><trkpt lat="47.272766951529334" lon="10.945787759551557"><ele>645.0</ele><time>2026-05-01T14:51:50.344Z</time></trkpt><trkpt lat="47.27281154413583" lon="10.945560998869453"><ele>645.0</ele><time>2026-05-01T14:51:51.348Z</time></trkpt><trkpt lat="47.27285627830196" lon="10.945333424531508"><ele>645.0</ele><time>2026-05-01T14:51:52.326Z</time></trkpt><trkpt lat="47.27290237559869" lon="10.94510564346227"><ele>645.6666666666666</ele><time>2026-05-01T14:51:53.347Z</time></trkpt><trkpt lat="47.272949053991184" lon="10.944874759150602"><ele>646.3333333333333</ele><time>2026-05-01T14:51:54.35Z</time></trkpt><trkpt lat="47.27299014163312" lon="10.944644769623128"><ele>647.0</ele><time>2026-05-01T14:51:55.327Z</time></trkpt><trkpt lat="47.27303144787455" lon="10.944413388538024"><ele>646.6666666666666</ele><time>2026-05-01T14:51:56.337Z</time></trkpt><trkpt lat="47.27307316707398" lon="10.9441746332778"><ele>646.3333333333334</ele><time>2026-05-01T14:51:57.329Z</time></trkpt><trkpt lat="47.27310961750081" lon="10.943938255412712"><ele>646.0</ele><time>2026-05-01T14:51:58.325Z</time></trkpt><trkpt lat="47.27314647472726" lon="10.943699240342225"><ele>646.0</ele><time>2026-05-01T14:51:59.344Z</time></trkpt><trkpt lat="47.27318064246272" lon="10.943456814477004"><ele>646.0</ele><time>2026-05-01T14:52:00.348Z</time></trkpt><trkpt lat="47.27321425255666" lon="10.943210409654311"><ele>646.0</ele><time>2026-05-01T14:52:01.337Z</time></trkpt><trkpt lat="47.27324214366603" lon="10.942967284280744"><ele>646.6666666666667</ele><time>2026-05-01T14:52:02.342Z</time></trkpt><trkpt lat="47.27326913832449" lon="10.942727290233519"><ele>647.3333333333334</ele><time>2026-05-01T14:52:03.353Z</time></trkpt><trkpt lat="47.2732952172116" lon="10.942493773502536"><ele>648.0</ele><time>2026-05-01T14:52:04.345Z</time></trkpt><trkpt lat="47.27332118682044" lon="10.942249080620469"><ele>648.0</ele><time>2026-05-01T14:52:05.336Z</time></trkpt><trkpt lat="47.27334178302161" lon="10.942004920723111"><ele>648.0</ele><time>2026-05-01T14:52:06.347Z</time></trkpt><trkpt lat="47.27336054626634" lon="10.94175877670649"><ele>648.0</ele><time>2026-05-01T14:52:07.338Z</time></trkpt><trkpt lat="47.27337665726615" lon="10.941511558506278"><ele>648.0</ele><time>2026-05-01T14:52:08.342Z</time></trkpt><trkpt lat="47.273390211785845" lon="10.941264599979531"><ele>648.0</ele><time>2026-05-01T14:52:09.348Z</time></trkpt><trkpt lat="47.27340238985288" lon="10.941014810645928"><ele>648.0</ele><time>2026-05-01T14:52:10.338Z</time></trkpt><trkpt lat="47.27341340307545" lon="10.940757531546941"><ele>647.0</ele><time>2026-05-01T14:52:11.34Z</time></trkpt><trkpt lat="47.273420959177265" lon="10.9405031176901"><ele>646.0</ele><time>2026-05-01T14:52:12.349Z</time></trkpt><trkpt lat="47.27342556203233" lon="10.94024392670542"><ele>645.0</ele><time>2026-05-01T14:52:13.33Z</time></trkpt><trkpt lat="47.273428545800606" lon="10.939988049999998"><ele>645.0</ele><time>2026-05-01T14:52:14.326Z</time></trkpt><trkpt lat="47.273428346340125" lon="10.939737956861473"><ele>645.0</ele><time>2026-05-01T14:52:15.349Z</time></trkpt><trkpt lat="47.27342488196991" lon="10.93949047479338"><ele>645.0</ele><time>2026-05-01T14:52:16.339Z</time></trkpt><trkpt lat="47.27342098946266" lon="10.93924204119595"><ele>644.3333333333334</ele><time>2026-05-01T14:52:17.337Z</time></trkpt><trkpt lat="47.273413560077444" lon="10.938988862646875"><ele>643.6666666666667</ele><time>2026-05-01T14:52:18.348Z</time></trkpt><trkpt lat="47.273404333917156" lon="10.938742220854758"><ele>643.0</ele><time>2026-05-01T14:52:19.342Z</time></trkpt><trkpt lat="47.27339312421079" lon="10.938497892503673"><ele>642.0</ele><time>2026-05-01T14:52:20.347Z</time></trkpt><trkpt lat="47.27338096711975" lon="10.938255268363015"><ele>641.0</ele><time>2026-05-01T14:52:21.349Z</time></trkpt><trkpt lat="47.273365214681704" lon="10.938013181831202"><ele>640.0</ele><time>2026-05-01T14:52:22.338Z</time></trkpt><trkpt lat="47.27334843821073" lon="10.937775791711443"><ele>640.6666666666667</ele><time>2026-05-01T14:52:23.331Z</time></trkpt><trkpt lat="47.273328968475994" lon="10.937536851550005"><ele>641.3333333333334</ele><time>2026-05-01T14:52:24.352Z</time></trkpt><trkpt lat="47.273305760225526" lon="10.937295790694371"><ele>642.0</ele><time>2026-05-01T14:52:25.339Z</time></trkpt><trkpt lat="47.273281733351794" lon="10.937056501672357"><ele>642.0</ele><time>2026-05-01T14:52:26.337Z</time></trkpt><trkpt lat="47.2732562726222" lon="10.936813782895861"><ele>642.0</ele><time>2026-05-01T14:52:27.349Z</time></trkpt><trkpt lat="47.27322784365679" lon="10.936568534437784"><ele>642.0</ele><time>2026-05-01T14:52:28.325Z</time></trkpt><trkpt lat="47.27319881488672" lon="10.936329295587788"><ele>643.0</ele><time>2026-05-01T14:52:29.339Z</time></trkpt><trkpt lat="47.27316968066193" lon="10.936097284521855"><ele>644.0</ele><time>2026-05-01T14:52:30.355Z</time></trkpt><trkpt lat="47.273141631962254" lon="10.935876662880919"><ele>645.0</ele><time>2026-05-01T14:52:31.337Z</time></trkpt><trkpt lat="47.27311398996379" lon="10.935659240732019"><ele>645.25</ele><time>2026-05-01T14:52:32.337Z</time></trkpt><trkpt lat="47.27308518996603" lon="10.935443345113985"><ele>645.5</ele><time>2026-05-01T14:52:33.353Z</time></trkpt><trkpt lat="47.27305730033687" lon="10.935238397996734"><ele>645.75</ele><time>2026-05-01T14:52:34.327Z</time></trkpt><trkpt lat="47.273031124766646" lon="10.935036299397327"><ele>646.0</ele><time>2026-05-01T14:52:35.337Z</time></trkpt><trkpt lat="47.273005618073334" lon="10.934826004586279"><ele>646.0</ele><time>2026-05-01T14:52:36.349Z</time></trkpt><trkpt lat="47.27298101685622" lon="10.934618043277707"><ele>646.0</ele><time>2026-05-01T14:52:37.347Z</time></trkpt><trkpt lat="47.2729571210078" lon="10.934407244109687"><ele>646.0</ele><time>2026-05-01T14:52:38.346Z</time></trkpt><trkpt lat="47.27293471275164" lon="10.934197529208234"><ele>646.0</ele><time>2026-05-01T14:52:39.36Z</time></trkpt><trkpt lat="47.27291547286821" lon="10.933986177378689"><ele>645.75</ele><time>2026-05-01T14:52:40.325Z</time></trkpt><trkpt lat="47.272898153247816" lon="10.933773415420447"><ele>645.5</ele><time>2026-05-01T14:52:41.337Z</time></trkpt><trkpt lat="47.27288395199879" lon="10.93355460572858"><ele>645.25</ele><time>2026-05-01T14:52:42.349Z</time></trkpt><trkpt lat="47.27286979505812" lon="10.933334298852289"><ele>645.0</ele><time>2026-05-01T14:52:43.327Z</time></trkpt><trkpt lat="47.272857664738694" lon="10.933115230481551"><ele>645.0</ele><time>2026-05-01T14:52:44.337Z</time></trkpt><trkpt lat="47.272850349756425" lon="10.932888611724664"><ele>645.0</ele><time>2026-05-01T14:52:45.35Z</time></trkpt><trkpt lat="47.272844638718475" lon="10.932665958044517"><ele>645.0</ele><time>2026-05-01T14:52:46.326Z</time></trkpt><trkpt lat="47.27284039945063" lon="10.932446264313295"><ele>645.0</ele><time>2026-05-01T14:52:47.337Z</time></trkpt><trkpt lat="47.27284062486138" lon="10.932228122252573"><ele>645.0</ele><time>2026-05-01T14:52:48.352Z</time></trkpt><trkpt lat="47.27284303677816" lon="10.932009776539385"><ele>645.0</ele><time>2026-05-01T14:52:49.327Z</time></trkpt><trkpt lat="47.27284745559376" lon="10.931792652362866"><ele>645.0</ele><time>2026-05-01T14:52:50.337Z</time></trkpt><trkpt lat="47.27285394611247" lon="10.931571870234839"><ele>645.0</ele><time>2026-05-01T14:52:51.348Z</time></trkpt><trkpt lat="47.272861404485504" lon="10.931351609790068"><ele>645.0</ele><time>2026-05-01T14:52:52.326Z</time></trkpt><trkpt lat="47.272871016204" lon="10.931131241956903"><ele>645.0</ele><time>2026-05-01T14:52:53.342Z</time></trkpt><trkpt lat="47.27288249166229" lon="10.930910339226834"><ele>645.0</ele><time>2026-05-01T14:52:54.349Z</time></trkpt><trkpt lat="47.272894815882324" lon="10.930687940694126"><ele>645.0</ele><time>2026-05-01T14:52:55.326Z</time></trkpt><trkpt lat="47.27290788560057" lon="10.930462024305147"><ele>645.0</ele><time>2026-05-01T14:52:56.343Z</time></trkpt><trkpt lat="47.2729211412824" lon="10.930232893724408"><ele>644.6666666666666</ele><time>2026-05-01T14:52:57.334Z</time></trkpt><trkpt lat="47.272934482988354" lon="10.93000227613819"><ele>644.3333333333333</ele><time>2026-05-01T14:52:58.326Z</time></trkpt><trkpt lat="47.27294794100827" lon="10.929766774480001"><ele>644.0</ele><time>2026-05-01T14:52:59.338Z</time></trkpt><trkpt lat="47.27296014007944" lon="10.92953222715615"><ele>644.0</ele><time>2026-05-01T14:53:00.331Z</time></trkpt><trkpt lat="47.27297215661063" lon="10.929301189178865"><ele>644.0</ele><time>2026-05-01T14:53:01.325Z</time></trkpt><trkpt lat="47.27298388001167" lon="10.92906470549398"><ele>644.0</ele><time>2026-05-01T14:53:02.349Z</time></trkpt><trkpt lat="47.27299349423176" lon="10.928823047521336"><ele>644.0</ele><time>2026-05-01T14:53:03.354Z</time></trkpt><trkpt lat="47.27300051479165" lon="10.928587699281216"><ele>644.0</ele><time>2026-05-01T14:53:04.328Z</time></trkpt><trkpt lat="47.27300702667126" lon="10.928353163306499"><ele>644.0</ele><time>2026-05-01T14:53:05.337Z</time></trkpt><trkpt lat="47.27301105385493" lon="10.928120896948373"><ele>644.0</ele><time>2026-05-01T14:53:06.349Z</time></trkpt><trkpt lat="47.2730130884835" lon="10.927892307104274"><ele>644.0</ele><time>2026-05-01T14:53:07.326Z</time></trkpt><trkpt lat="47.27301428718731" lon="10.927677073621945"><ele>644.0</ele><time>2026-05-01T14:53:08.339Z</time></trkpt><trkpt lat="47.27301393792859" lon="10.9274728737194"><ele>644.0</ele><time>2026-05-01T14:53:09.349Z</time></trkpt><trkpt lat="47.27301313835571" lon="10.927269529872445"><ele>644.25</ele><time>2026-05-01T14:53:10.333Z</time></trkpt><trkpt lat="47.273011868429855" lon="10.927059427249372"><ele>644.5</ele><time>2026-05-01T14:53:11.334Z</time></trkpt><trkpt lat="47.273006956150155" lon="10.926844512247335"><ele>644.75</ele><time>2026-05-01T14:53:12.359Z</time></trkpt><trkpt lat="47.273001718032006" lon="10.926630903282348"><ele>645.0</ele><time>2026-05-01T14:53:13.326Z</time></trkpt><trkpt lat="47.27299512799376" lon="10.926416405335292"><ele>645.0</ele><time>2026-05-01T14:53:14.338Z</time></trkpt><trkpt lat="47.27298734941956" lon="10.926198134101018"><ele>645.0</ele><time>2026-05-01T14:53:15.331Z</time></trkpt><trkpt lat="47.27297736988917" lon="10.925979213730164"><ele>645.0</ele><time>2026-05-01T14:53:16.339Z</time></trkpt><trkpt lat="47.27296644189674" lon="10.925757908307741"><ele>645.0</ele><time>2026-05-01T14:53:17.338Z</time></trkpt><trkpt lat="47.27295409101673" lon="10.925531724068117"><ele>645.3333333333334</ele><time>2026-05-01T14:53:18.326Z</time></trkpt><trkpt lat="47.272939891886644" lon="10.925299675015834"><ele>645.6666666666667</ele><time>2026-05-01T14:53:19.325Z</time></trkpt><trkpt lat="47.272923378637216" lon="10.925065697292098"><ele>646.0</ele><time>2026-05-01T14:53:20.326Z</time></trkpt><trkpt lat="47.272905782264196" lon="10.924830691791012"><ele>646.0</ele><time>2026-05-01T14:53:21.349Z</time></trkpt><trkpt lat="47.27288620240351" lon="10.924596482385672"><ele>646.0</ele><time>2026-05-01T14:53:22.326Z</time></trkpt><trkpt lat="47.27286542935896" lon="10.924365122275665"><ele>646.0</ele><time>2026-05-01T14:53:23.344Z</time></trkpt><trkpt lat="47.27284293496107" lon="10.924135256593036"><ele>646.3333333333334</ele><time>2026-05-01T14:53:24.329Z</time></trkpt><trkpt lat="47.27281958585557" lon="10.923908985928698"><ele>646.6666666666666</ele><time>2026-05-01T14:53:25.326Z</time></trkpt><trkpt lat="47.272794994321266" lon="10.923684519072307"><ele>647.0</ele><time>2026-05-01T14:53:26.337Z</time></trkpt><trkpt lat="47.27276884209692" lon="10.923464108465224"><ele>646.3333333333333</ele><time>2026-05-01T14:53:27.328Z</time></trkpt><trkpt lat="47.27274215796029" lon="10.923246638428672"><ele>645.6666666666666</ele><time>2026-05-01T14:53:28.326Z</time></trkpt><trkpt lat="47.27271336357391" lon="10.923026337019257"><ele>645.0</ele><time>2026-05-01T14:53:29.345Z</time></trkpt><trkpt lat="47.27268383433033" lon="10.92280539807888"><ele>645.0</ele><time>2026-05-01T14:53:30.351Z</time></trkpt><trkpt lat="47.272651325670026" lon="10.922581960735318"><ele>645.0</ele><time>2026-05-01T14:53:31.332Z</time></trkpt><trkpt lat="47.27261701629175" lon="10.922356846214132"><ele>645.0</ele><time>2026-05-01T14:53:32.345Z</time></trkpt><trkpt lat="47.272581956230184" lon="10.922128404706447"><ele>645.6666666666666</ele><time>2026-05-01T14:53:33.326Z</time></trkpt><trkpt lat="47.27254465862869" lon="10.921902106573917"><ele>646.3333333333333</ele><time>2026-05-01T14:53:34.341Z</time></trkpt><trkpt lat="47.27250492454074" lon="10.921674020539664"><ele>647.0</ele><time>2026-05-01T14:53:35.338Z</time></trkpt><trkpt lat="47.27246464190948" lon="10.921449522390184"><ele>649.6666666666666</ele><time>2026-05-01T14:53:36.349Z</time></trkpt><trkpt lat="47.27242321975409" lon="10.921227273584707"><ele>652.3333333333334</ele><time>2026-05-01T14:53:37.327Z</time></trkpt><trkpt lat="47.272382003101285" lon="10.921007249877988"><ele>655.0</ele><time>2026-05-01T14:53:38.342Z</time></trkpt><trkpt lat="47.272337634850544" lon="10.920788004899574"><ele>657.3333333333334</ele><time>2026-05-01T14:53:39.35Z</time></trkpt><trkpt lat="47.27229219236172" lon="10.920566626026543"><ele>659.6666666666666</ele><time>2026-05-01T14:53:40.334Z</time></trkpt><trkpt lat="47.27224441132936" lon="10.92034334360827"><ele>662.0</ele><time>2026-05-01T14:53:41.342Z</time></trkpt><trkpt lat="47.27219547303958" lon="10.920125834487118"><ele>658.0</ele><time>2026-05-01T14:53:42.326Z</time></trkpt><trkpt lat="47.272146393830525" lon="10.919908879722227"><ele>654.0</ele><time>2026-05-01T14:53:43.35Z</time></trkpt><trkpt lat="47.27209482968783" lon="10.919688927552604"><ele>650.0</ele><time>2026-05-01T14:53:44.345Z</time></trkpt><trkpt lat="47.272042850060465" lon="10.919473654176187"><ele>650.0</ele><time>2026-05-01T14:53:45.326Z</time></trkpt><trkpt lat="47.271988143712505" lon="10.919255141085225"><ele>650.0</ele><time>2026-05-01T14:53:46.328Z</time></trkpt><trkpt lat="47.271933506016516" lon="10.919038840283166"><ele>650.0</ele><time>2026-05-01T14:53:47.34Z</time></trkpt><trkpt lat="47.27187710963693" lon="10.918816446286295"><ele>650.3333333333333</ele><time>2026-05-01T14:53:48.352Z</time></trkpt><trkpt lat="47.27181955170249" lon="10.918596700497476"><ele>650.6666666666666</ele><time>2026-05-01T14:53:49.339Z</time></trkpt><trkpt lat="47.27176256631284" lon="10.91837596920585"><ele>651.0</ele><time>2026-05-01T14:53:50.34Z</time></trkpt><trkpt lat="47.27170451497501" lon="10.918151837156422"><ele>652.6666666666666</ele><time>2026-05-01T14:53:51.349Z</time></trkpt><trkpt lat="47.27164539845667" lon="10.917927947889643"><ele>654.3333333333333</ele><time>2026-05-01T14:53:52.34Z</time></trkpt><trkpt lat="47.271586226466034" lon="10.917701944314905"><ele>656.0</ele><time>2026-05-01T14:53:53.34Z</time></trkpt><trkpt lat="47.271527561300225" lon="10.917475250186412"><ele>658.0</ele><time>2026-05-01T14:53:54.331Z</time></trkpt><trkpt lat="47.27146868660058" lon="10.917246688847328"><ele>660.0</ele><time>2026-05-01T14:53:55.332Z</time></trkpt><trkpt lat="47.27141000250269" lon="10.917015710322685"><ele>662.0</ele><time>2026-05-01T14:53:56.347Z</time></trkpt><trkpt lat="47.27135180665268" lon="10.916781720040362"><ele>658.0</ele><time>2026-05-01T14:53:57.349Z</time></trkpt><trkpt lat="47.27129566639432" lon="10.91654920589155"><ele>654.0</ele><time>2026-05-01T14:53:58.325Z</time></trkpt><trkpt lat="47.271240939739776" lon="10.916312491460827"><ele>650.0</ele><time>2026-05-01T14:53:59.344Z</time></trkpt><trkpt lat="47.271187093131196" lon="10.916075487492044"><ele>650.6666666666666</ele><time>2026-05-01T14:54:00.352Z</time></trkpt><trkpt lat="47.271134346589676" lon="10.915841321517757"><ele>651.3333333333334</ele><time>2026-05-01T14:54:01.34Z</time></trkpt><trkpt lat="47.271084199752885" lon="10.915606556887003"><ele>652.0</ele><time>2026-05-01T14:54:02.338Z</time></trkpt><trkpt lat="47.27103573477695" lon="10.915367886746296"><ele>652.0</ele><time>2026-05-01T14:54:03.352Z</time></trkpt><trkpt lat="47.270986064126944" lon="10.915135917710877"><ele>652.0</ele><time>2026-05-01T14:54:04.328Z</time></trkpt><trkpt lat="47.27094098790813" lon="10.914902820846157"><ele>652.0</ele><time>2026-05-01T14:54:05.338Z</time></trkpt><trkpt lat="47.270898732275015" lon="10.914670091610878"><ele>654.0</ele><time>2026-05-01T14:54:06.353Z</time></trkpt><trkpt lat="47.270856774048106" lon="10.914437287194367"><ele>656.0</ele><time>2026-05-01T14:54:07.339Z</time></trkpt><trkpt lat="47.2708150396465" lon="10.914206017262037"><ele>658.0</ele><time>2026-05-01T14:54:08.34Z</time></trkpt><trkpt lat="47.27077483788165" lon="10.913983869069188"><ele>659.3333333333334</ele><time>2026-05-01T14:54:09.349Z</time></trkpt><trkpt lat="47.2707409772727" lon="10.91376463763081"><ele>660.6666666666666</ele><time>2026-05-01T14:54:10.333Z</time></trkpt><trkpt lat="47.270705355339" lon="10.913533794795526"><ele>662.0</ele><time>2026-05-01T14:54:11.337Z</time></trkpt><trkpt lat="47.27067124561324" lon="10.91329896725692"><ele>659.3333333333333</ele><time>2026-05-01T14:54:12.349Z</time></trkpt><trkpt lat="47.27063678048985" lon="10.913062355571688"><ele>656.6666666666666</ele><time>2026-05-01T14:54:13.327Z</time></trkpt><trkpt lat="47.270603695006024" lon="10.91282720552483"><ele>654.0</ele><time>2026-05-01T14:54:14.345Z</time></trkpt><trkpt lat="47.27057302488114" lon="10.912603467511556"><ele>653.6666666666666</ele><time>2026-05-01T14:54:15.325Z</time></trkpt><trkpt lat="47.27054186597835" lon="10.91237616341603"><ele>653.3333333333333</ele><time>2026-05-01T14:54:16.339Z</time></trkpt><trkpt lat="47.270509598055796" lon="10.912136511270592"><ele>653.0</ele><time>2026-05-01T14:54:17.337Z</time></trkpt><trkpt lat="47.27047632832778" lon="10.911885482869163"><ele>653.6666666666666</ele><time>2026-05-01T14:54:18.349Z</time></trkpt><trkpt lat="47.270441325684324" lon="10.911621379308613"><ele>654.3333333333334</ele><time>2026-05-01T14:54:19.328Z</time></trkpt><trkpt lat="47.27040525413251" lon="10.911355567860523"><ele>655.0</ele><time>2026-05-01T14:54:20.348Z</time></trkpt><trkpt lat="47.27037020838065" lon="10.91109894233978"><ele>656.3333333333334</ele><time>2026-05-01T14:54:21.349Z</time></trkpt><trkpt lat="47.27033515331909" lon="10.910844264933719"><ele>657.6666666666666</ele><time>2026-05-01T14:54:22.326Z</time></trkpt><trkpt lat="47.27029808494128" lon="10.910581477790185"><ele>659.0</ele><time>2026-05-01T14:54:23.337Z</time></trkpt><trkpt lat="47.270259882457204" lon="10.910325004784985"><ele>659.0</ele><time>2026-05-01T14:54:24.349Z</time></trkpt><trkpt lat="47.27021950253714" lon="10.91006253191531"><ele>659.0</ele><time>2026-05-01T14:54:25.325Z</time></trkpt><trkpt lat="47.270178903971974" lon="10.909803732648008"><ele>659.0</ele><time>2026-05-01T14:54:26.345Z</time></trkpt><trkpt lat="47.2701345150509" lon="10.909545173403163"><ele>659.0</ele><time>2026-05-01T14:54:27.351Z</time></trkpt><trkpt lat="47.27008829949261" lon="10.909279701232169"><ele>659.0</ele><time>2026-05-01T14:54:28.325Z</time></trkpt><trkpt lat="47.27003954978956" lon="10.909009820819525"><ele>659.0</ele><time>2026-05-01T14:54:29.34Z</time></trkpt><trkpt lat="47.26999187717822" lon="10.90876360393534"><ele>660.0</ele><time>2026-05-01T14:54:30.349Z</time></trkpt><trkpt lat="47.26994907385383" lon="10.908548772750065"><ele>661.0</ele><time>2026-05-01T14:54:31.339Z</time></trkpt><trkpt lat="47.26990688964931" lon="10.908340974428096"><ele>662.0</ele><time>2026-05-01T14:54:32.34Z</time></trkpt><trkpt lat="47.26986160394319" lon="10.90812565306405"><ele>662.0</ele><time>2026-05-01T14:54:33.336Z</time></trkpt><trkpt lat="47.26981505627001" lon="10.907914364209196"><ele>662.0</ele><time>2026-05-01T14:54:34.344Z</time></trkpt><trkpt lat="47.26976846095478" lon="10.907702858381539"><ele>662.0</ele><time>2026-05-01T14:54:35.338Z</time></trkpt><trkpt lat="47.26971757858812" lon="10.907486316862174"><ele>661.6666666666666</ele><time>2026-05-01T14:54:36.351Z</time></trkpt><trkpt lat="47.26966742853042" lon="10.907269662623088"><ele>661.3333333333334</ele><time>2026-05-01T14:54:37.327Z</time></trkpt><trkpt lat="47.269615019544695" lon="10.907059621296597"><ele>661.0</ele><time>2026-05-01T14:54:38.363Z</time></trkpt><trkpt lat="47.26956266187326" lon="10.906849788239091"><ele>660.3333333333334</ele><time>2026-05-01T14:54:39.351Z</time></trkpt><trkpt lat="47.26950836799535" lon="10.906634176978066"><ele>659.6666666666666</ele><time>2026-05-01T14:54:40.333Z</time></trkpt><trkpt lat="47.26945382141735" lon="10.906425380350058"><ele>659.0</ele><time>2026-05-01T14:54:41.338Z</time></trkpt><trkpt lat="47.269396310393425" lon="10.906210808503895"><ele>659.0</ele><time>2026-05-01T14:54:42.349Z</time></trkpt><trkpt lat="47.269337843922244" lon="10.905996673333181"><ele>659.0</ele><time>2026-05-01T14:54:43.328Z</time></trkpt><trkpt lat="47.26927923351302" lon="10.905789440802483"><ele>659.0</ele><time>2026-05-01T14:54:44.338Z</time></trkpt><trkpt lat="47.26921777330681" lon="10.905576114445454"><ele>661.6666666666666</ele><time>2026-05-01T14:54:45.326Z</time></trkpt><trkpt lat="47.26915600309021" lon="10.905365531912294"><ele>664.3333333333334</ele><time>2026-05-01T14:54:46.328Z</time></trkpt><trkpt lat="47.26909172350572" lon="10.905151336425181"><ele>667.0</ele><time>2026-05-01T14:54:47.332Z</time></trkpt><trkpt lat="47.26902740645349" lon="10.904947225066403"><ele>669.3333333333334</ele><time>2026-05-01T14:54:48.353Z</time></trkpt><trkpt lat="47.26896309630031" lon="10.904743137018162"><ele>671.6666666666666</ele><time>2026-05-01T14:54:49.327Z</time></trkpt><trkpt lat="47.26889884697522" lon="10.904539241604736"><ele>674.0</ele><time>2026-05-01T14:54:50.338Z</time></trkpt><trkpt lat="47.26883185904646" lon="10.904331283222623"><ele>662.0</ele><time>2026-05-01T14:54:51.329Z</time></trkpt><trkpt lat="47.268421077869206" lon="10.903167447049231"><ele>662.0</ele><time>2026-05-01T14:54:52.329Z</time></trkpt><trkpt lat="47.26834425" lon="10.902990683333334"><ele>662.0</ele><time>2026-05-01T14:54:53.34Z</time></trkpt><trkpt lat="47.26828691666666" lon="10.902769966666666"><ele>662.0</ele><time>2026-05-01T14:54:54.35Z</time></trkpt><trkpt lat="47.2682294" lon="10.902526833333331"><ele>664.0</ele><time>2026-05-01T14:54:55.327Z</time></trkpt><trkpt lat="47.26816906666666" lon="10.902270600000001"><ele>666.0</ele><time>2026-05-01T14:54:56.326Z</time></trkpt><trkpt lat="47.26809911666666" lon="10.902011966666665"><ele>668.0</ele><time>2026-05-01T14:54:57.349Z</time></trkpt><trkpt lat="47.268010966666665" lon="10.901757700000001"><ele>667.6666666666666</ele><time>2026-05-01T14:54:58.326Z</time></trkpt><trkpt lat="47.26791503333334" lon="10.901485133333331"><ele>667.3333333333334</ele><time>2026-05-01T14:54:59.34Z</time></trkpt><trkpt lat="47.267812883333335" lon="10.901199350000002"><ele>667.0</ele><time>2026-05-01T14:55:00.348Z</time></trkpt><trkpt lat="47.26770318333334" lon="10.900894166666667"><ele>667.0</ele><time>2026-05-01T14:55:01.329Z</time></trkpt><trkpt lat="47.26758875" lon="10.900571416666667"><ele>667.0</ele><time>2026-05-01T14:55:02.338Z</time></trkpt><trkpt lat="47.26746691666667" lon="10.900232783333335"><ele>666.0</ele><time>2026-05-01T14:55:03.351Z</time></trkpt><trkpt lat="47.26734378333334" lon="10.899883116666668"><ele>665.0</ele><time>2026-05-01T14:55:04.328Z</time></trkpt><trkpt lat="47.267221500000005" lon="10.899532866666668"><ele>661.0</ele><time>2026-05-01T14:55:05.326Z</time></trkpt><trkpt lat="47.26710081666667" lon="10.899185099999999"><ele>657.0</ele><time>2026-05-01T14:55:06.359Z</time></trkpt><trkpt lat="47.26698253333334" lon="10.898839149999999"><ele>657.0</ele><time>2026-05-01T14:55:07.326Z</time></trkpt><trkpt lat="47.26686708333333" lon="10.898497533333332"><ele>657.0</ele><time>2026-05-01T14:55:08.33Z</time></trkpt><trkpt lat="47.26675518333333" lon="10.8981567"><ele>657.5</ele><time>2026-05-01T14:55:09.349Z</time></trkpt><trkpt lat="47.26664651666667" lon="10.897813966666668"><ele>658.0</ele><time>2026-05-01T14:55:10.345Z</time></trkpt><trkpt lat="47.266539" lon="10.897467916666669"><ele>656.0</ele><time>2026-05-01T14:55:11.338Z</time></trkpt><trkpt lat="47.26643488333334" lon="10.89712"><ele>654.0</ele><time>2026-05-01T14:55:12.349Z</time></trkpt><trkpt lat="47.26633125" lon="10.896770433333332"><ele>654.5</ele><time>2026-05-01T14:55:13.325Z</time></trkpt><trkpt lat="47.26622783333334" lon="10.89642021666667"><ele>655.0</ele><time>2026-05-01T14:55:14.346Z</time></trkpt><trkpt lat="47.26612606666666" lon="10.896065483333333"><ele>657.5</ele><time>2026-05-01T14:55:15.349Z</time></trkpt><trkpt lat="47.26602616666668" lon="10.895707966666665"><ele>660.0</ele><time>2026-05-01T14:55:16.326Z</time></trkpt><trkpt lat="47.26592675" lon="10.895345100000002"><ele>661.5</ele><time>2026-05-01T14:55:17.338Z</time></trkpt><trkpt lat="47.265827050000006" lon="10.894980950000003"><ele>663.0</ele><time>2026-05-01T14:55:18.324Z</time></trkpt><trkpt lat="47.26573116666666" lon="10.894609183333333"><ele>659.5</ele><time>2026-05-01T14:55:19.347Z</time></trkpt><trkpt lat="47.26563816666667" lon="10.89423335"><ele>656.0</ele><time>2026-05-01T14:55:20.338Z</time></trkpt><trkpt lat="47.26554258333334" lon="10.893858416666669"><ele>656.0</ele><time>2026-05-01T14:55:21.349Z</time></trkpt><trkpt lat="47.265448799999994" lon="10.8934796"><ele>656.0</ele><time>2026-05-01T14:55:22.325Z</time></trkpt><trkpt lat="47.26535763333333" lon="10.893100900000002"><ele>657.5</ele><time>2026-05-01T14:55:23.345Z</time></trkpt><trkpt lat="47.26526906666666" lon="10.89272385"><ele>659.0</ele><time>2026-05-01T14:55:24.348Z</time></trkpt><trkpt lat="47.26518518333334" lon="10.892349249999999"><ele>661.0</ele><time>2026-05-01T14:55:25.339Z</time></trkpt><trkpt lat="47.26510209999999" lon="10.891977650000001"><ele>663.0</ele><time>2026-05-01T14:55:26.326Z</time></trkpt><trkpt lat="47.26502266666666" lon="10.891607616666667"><ele>663.0</ele><time>2026-05-01T14:55:27.349Z</time></trkpt><trkpt lat="47.26494436666667" lon="10.891242700000003"><ele>663.0</ele><time>2026-05-01T14:55:28.342Z</time></trkpt><trkpt lat="47.26486605" lon="10.890881966666667"><ele>663.0</ele><time>2026-05-01T14:55:29.338Z</time></trkpt><trkpt lat="47.26478851666668" lon="10.890526483333334"><ele>663.0</ele><time>2026-05-01T14:55:30.349Z</time></trkpt><trkpt lat="47.264711199999994" lon="10.890174466666668"><ele>663.0</ele><time>2026-05-01T14:55:31.342Z</time></trkpt><trkpt lat="47.264634883333336" lon="10.8898248"><ele>663.0</ele><time>2026-05-01T14:55:32.349Z</time></trkpt><trkpt lat="47.264557066666676" lon="10.889478200000001"><ele>662.0</ele><time>2026-05-01T14:55:33.352Z</time></trkpt><trkpt lat="47.26447968333334" lon="10.889135033333332"><ele>661.0</ele><time>2026-05-01T14:55:34.326Z</time></trkpt><trkpt lat="47.26440096666667" lon="10.888796716666665"><ele>661.0</ele><time>2026-05-01T14:55:35.328Z</time></trkpt><trkpt lat="47.26432028333334" lon="10.888457266666668"><ele>661.0</ele><time>2026-05-01T14:55:36.35Z</time></trkpt><trkpt lat="47.2642374" lon="10.888116049999999"><ele>660.5</ele><time>2026-05-01T14:55:37.34Z</time></trkpt><trkpt lat="47.264149566666674" lon="10.88776923333333"><ele>660.0</ele><time>2026-05-01T14:55:38.34Z</time></trkpt><trkpt lat="47.26406215" lon="10.887420733333332"><ele>662.0</ele><time>2026-05-01T14:55:39.349Z</time></trkpt><trkpt lat="47.263971966666666" lon="10.88706935"><ele>664.0</ele><time>2026-05-01T14:55:40.324Z</time></trkpt><trkpt lat="47.263875416666664" lon="10.886706516666667"><ele>666.5</ele><time>2026-05-01T14:55:41.338Z</time></trkpt><trkpt lat="47.26374561666666" lon="10.886351366666668"><ele>669.0</ele><time>2026-05-01T14:55:42.353Z</time></trkpt><trkpt lat="47.26358870000001" lon="10.886026466666667"><ele>671.0</ele><time>2026-05-01T14:55:43.328Z</time></trkpt><trkpt lat="47.26343548333333" lon="10.88571335"><ele>673.0</ele><time>2026-05-01T14:55:44.339Z</time></trkpt><trkpt lat="47.26328255000001" lon="10.885394049999999"><ele>673.5</ele><time>2026-05-01T14:55:45.349Z</time></trkpt><trkpt lat="47.263129600000006" lon="10.885074766666666"><ele>674.0</ele><time>2026-05-01T14:55:46.327Z</time></trkpt><trkpt lat="47.262976816666665" lon="10.8847558"><ele>669.5</ele><time>2026-05-01T14:55:47.338Z</time></trkpt><trkpt lat="47.26282371666667" lon="10.8844362"><ele>665.0</ele><time>2026-05-01T14:55:48.354Z</time></trkpt><trkpt lat="47.262670766666666" lon="10.884116916666668"><ele>662.0</ele><time>2026-05-01T14:55:49.345Z</time></trkpt><trkpt lat="47.26264293333334" lon="10.883807533333334"><ele>659.0</ele><time>2026-05-01T14:55:50.346Z</time></trkpt><trkpt lat="47.262658849999994" lon="10.883318516666668"><ele>659.0</ele><time>2026-05-01T14:55:51.327Z</time></trkpt><trkpt lat="47.26261073333333" lon="10.882901150000002"><ele>659.0</ele><time>2026-05-01T14:55:52.327Z</time></trkpt><trkpt lat="47.26252166666666" lon="10.882523449999999"><ele>662.0</ele><time>2026-05-01T14:55:53.34Z</time></trkpt><trkpt lat="47.26243594999999" lon="10.882162983333334"><ele>665.0</ele><time>2026-05-01T14:55:54.349Z</time></trkpt><trkpt lat="47.26233716666667" lon="10.881809766666667"><ele>664.0</ele><time>2026-05-01T14:55:55.326Z</time></trkpt><trkpt lat="47.26223728333333" lon="10.8814736"><ele>663.0</ele><time>2026-05-01T14:55:56.338Z</time></trkpt><trkpt lat="47.26211515" lon="10.8811596"><ele>664.5</ele><time>2026-05-01T14:55:57.35Z</time></trkpt><trkpt lat="47.26198038333333" lon="10.880863066666665"><ele>666.0</ele><time>2026-05-01T14:55:58.341Z</time></trkpt><trkpt lat="47.261847599999996" lon="10.8805716"><ele>666.0</ele><time>2026-05-01T14:55:59.341Z</time></trkpt><trkpt lat="47.261717733333334" lon="10.880278566666666"><ele>666.0</ele><time>2026-05-01T14:56:00.349Z</time></trkpt><trkpt lat="47.2615876" lon="10.879984950000003"><ele>666.0</ele><time>2026-05-01T14:56:01.327Z</time></trkpt><trkpt lat="47.26145759999999" lon="10.879691616666666"><ele>666.0</ele><time>2026-05-01T14:56:02.338Z</time></trkpt><trkpt lat="47.261356899999996" lon="10.879447"><ele>666.0</ele><time>2026-05-01T14:56:03.351Z</time></trkpt><trkpt lat="47.26127746666666" lon="10.879078333333334"><ele>664.0</ele><time>2026-05-01T14:56:04.327Z</time></trkpt><trkpt lat="47.26119425" lon="10.878662366666667"><ele>662.0</ele><time>2026-05-01T14:56:05.338Z</time></trkpt><trkpt lat="47.261117" lon="10.878249783333334"><ele>662.0</ele><time>2026-05-01T14:56:06.349Z</time></trkpt><trkpt lat="47.261026266666676" lon="10.87786375"><ele>662.0</ele><time>2026-05-01T14:56:07.328Z</time></trkpt><trkpt lat="47.2609173" lon="10.877446116666666"><ele>665.0</ele><time>2026-05-01T14:56:08.345Z</time></trkpt><trkpt lat="47.26081371666667" lon="10.87705395"><ele>668.0</ele><time>2026-05-01T14:56:09.35Z</time></trkpt><trkpt lat="47.26070573333333" lon="10.87667905"><ele>663.5</ele><time>2026-05-01T14:56:10.327Z</time></trkpt><trkpt lat="47.26059541666667" lon="10.876305649999999"><ele>659.0</ele><time>2026-05-01T14:56:11.338Z</time></trkpt><trkpt lat="47.26048071666668" lon="10.875940933333334"><ele>661.0</ele><time>2026-05-01T14:56:12.332Z</time></trkpt><trkpt lat="47.26036616666667" lon="10.875587250000002"><ele>663.0</ele><time>2026-05-01T14:56:13.328Z</time></trkpt><trkpt lat="47.260247899999996" lon="10.87524215"><ele>667.5</ele><time>2026-05-01T14:56:14.361Z</time></trkpt><trkpt lat="47.26012328333333" lon="10.874904916666665"><ele>672.0</ele><time>2026-05-01T14:56:15.35Z</time></trkpt><trkpt lat="47.25999343333333" lon="10.874574633333335"><ele>669.0</ele><time>2026-05-01T14:56:16.327Z</time></trkpt><trkpt lat="47.25986124999999" lon="10.874236000000002"><ele>666.0</ele><time>2026-05-01T14:56:17.338Z</time></trkpt><trkpt lat="47.25970601666666" lon="10.873926233333336"><ele>666.0</ele><time>2026-05-01T14:56:18.352Z</time></trkpt><trkpt lat="47.25953928333334" lon="10.873645849999999"><ele>666.0</ele><time>2026-05-01T14:56:19.328Z</time></trkpt><trkpt lat="47.25939243333334" lon="10.873340099999998"><ele>669.5</ele><time>2026-05-01T14:56:20.338Z</time></trkpt><trkpt lat="47.2592546" lon="10.873022583333334"><ele>673.0</ele><time>2026-05-01T14:56:21.349Z</time></trkpt><trkpt lat="47.25911691666666" lon="10.8727054"><ele>670.0</ele><time>2026-05-01T14:56:22.336Z</time></trkpt><trkpt lat="47.258979100000005" lon="10.872387883333332"><ele>667.0</ele><time>2026-05-01T14:56:23.333Z</time></trkpt><trkpt lat="47.25880024999999" lon="10.872033500000002"><ele>673.0</ele><time>2026-05-01T14:56:24.349Z</time></trkpt><trkpt lat="47.25864101666666" lon="10.871733916666667"><ele>679.0</ele><time>2026-05-01T14:56:25.339Z</time></trkpt><trkpt lat="47.258483766666664" lon="10.87143713333333"><ele>679.0</ele><time>2026-05-01T14:56:26.338Z</time></trkpt><trkpt lat="47.258316016666676" lon="10.871152966666667"><ele>679.0</ele><time>2026-05-01T14:56:27.349Z</time></trkpt><trkpt lat="47.25814733333333" lon="10.870868549999999"><ele>678.5</ele><time>2026-05-01T14:56:28.327Z</time></trkpt><trkpt lat="47.257972716666664" lon="10.870596366666666"><ele>678.0</ele><time>2026-05-01T14:56:29.325Z</time></trkpt><trkpt lat="47.2577935" lon="10.870328283333333"><ele>683.0</ele><time>2026-05-01T14:56:30.327Z</time></trkpt><trkpt lat="47.25760896666667" lon="10.870069766666667"><ele>688.0</ele><time>2026-05-01T14:56:31.327Z</time></trkpt><trkpt lat="47.257418916666666" lon="10.869814366666667"><ele>682.0</ele><time>2026-05-01T14:56:32.338Z</time></trkpt><trkpt lat="47.25723061666666" lon="10.869556616666667"><ele>676.0</ele><time>2026-05-01T14:56:33.35Z</time></trkpt><trkpt lat="47.25704260000001" lon="10.8693005"><ele>679.5</ele><time>2026-05-01T14:56:34.342Z</time></trkpt><trkpt lat="47.25685516666667" lon="10.869045783333336"><ele>683.0</ele><time>2026-05-01T14:56:35.34Z</time></trkpt><trkpt lat="47.25666631666666" lon="10.8687919"><ele>683.0</ele><time>2026-05-01T14:56:36.326Z</time></trkpt><trkpt lat="47.256479683333325" lon="10.868532550000001"><ele>683.0</ele><time>2026-05-01T14:56:37.325Z</time></trkpt><trkpt lat="47.256292116666664" lon="10.868268350000003"><ele>683.0</ele><time>2026-05-01T14:56:38.34Z</time></trkpt><trkpt lat="47.25610270000001" lon="10.8680053"><ele>683.0</ele><time>2026-05-01T14:56:39.327Z</time></trkpt><trkpt lat="47.25591536666668" lon="10.867744850000001"><ele>682.0</ele><time>2026-05-01T14:56:40.328Z</time></trkpt><trkpt lat="47.255727449999995" lon="10.867483083333331"><ele>681.0</ele><time>2026-05-01T14:56:41.324Z</time></trkpt><trkpt lat="47.25554293333333" lon="10.867213816666666"><ele>681.0</ele><time>2026-05-01T14:56:42.352Z</time></trkpt><trkpt lat="47.25536338333333" lon="10.866939766666668"><ele>681.0</ele><time>2026-05-01T14:56:43.342Z</time></trkpt><trkpt lat="47.25518958333334" lon="10.866663683333336"><ele>690.5</ele><time>2026-05-01T14:56:44.343Z</time></trkpt><trkpt lat="47.25502103333333" lon="10.866385199999998"><ele>700.0</ele><time>2026-05-01T14:56:45.349Z</time></trkpt><trkpt lat="47.254854933333334" lon="10.866108233333334"><ele>695.5</ele><time>2026-05-01T14:56:46.339Z</time></trkpt><trkpt lat="47.25469383333334" lon="10.865830033333335"><ele>691.0</ele><time>2026-05-01T14:56:47.338Z</time></trkpt><trkpt lat="47.25453304999999" lon="10.865549116666667"><ele>691.0</ele><time>2026-05-01T14:56:48.33Z</time></trkpt><trkpt lat="47.254372033333325" lon="10.8652682"><ele>691.0</ele><time>2026-05-01T14:56:49.326Z</time></trkpt><trkpt lat="47.25421128333335" lon="10.864986883333332"><ele>690.5</ele><time>2026-05-01T14:56:50.343Z</time></trkpt><trkpt lat="47.25405333333333" lon="10.864702833333334"><ele>690.0</ele><time>2026-05-01T14:56:51.348Z</time></trkpt><trkpt lat="47.25390061666667" lon="10.86441695"><ele>696.5</ele><time>2026-05-01T14:56:52.341Z</time></trkpt><trkpt lat="47.253751799999996" lon="10.864121733333333"><ele>703.0</ele><time>2026-05-01T14:56:53.343Z</time></trkpt><trkpt lat="47.253605533333335" lon="10.863821383333335"><ele>703.0</ele><time>2026-05-01T14:56:54.325Z</time></trkpt><trkpt lat="47.25346424999999" lon="10.863520549999999"><ele>703.0</ele><time>2026-05-01T14:56:55.326Z</time></trkpt><trkpt lat="47.253324983333336" lon="10.863214716666668"><ele>702.5</ele><time>2026-05-01T14:56:56.338Z</time></trkpt><trkpt lat="47.25318485" lon="10.862907033333332"><ele>702.0</ele><time>2026-05-01T14:56:57.329Z</time></trkpt><trkpt lat="47.2530448" lon="10.862599000000001"><ele>702.0</ele><time>2026-05-01T14:56:58.329Z</time></trkpt><trkpt lat="47.2529065" lon="10.862285216666665"><ele>702.0</ele><time>2026-05-01T14:56:59.329Z</time></trkpt><trkpt lat="47.25276865000001" lon="10.861971283333332"><ele>707.5</ele><time>2026-05-01T14:57:00.35Z</time></trkpt><trkpt lat="47.252629766666665" lon="10.861659266666667"><ele>713.0</ele><time>2026-05-01T14:57:01.327Z</time></trkpt><trkpt lat="47.25248701666666" lon="10.861347466666667"><ele>713.0</ele><time>2026-05-01T14:57:02.338Z</time></trkpt><trkpt lat="47.252338200000004" lon="10.861040916666665"><ele>713.0</ele><time>2026-05-01T14:57:03.352Z</time></trkpt><trkpt lat="47.25218281666667" lon="10.860738316666668"><ele>703.5</ele><time>2026-05-01T14:57:04.341Z</time></trkpt><trkpt lat="47.25202396666667" lon="10.86043875"><ele>694.0</ele><time>2026-05-01T14:57:05.339Z</time></trkpt><trkpt lat="47.25185849999999" lon="10.860144516666667"><ele>705.0</ele><time>2026-05-01T14:57:06.338Z</time></trkpt><trkpt lat="47.25168723333333" lon="10.859856549999998"><ele>716.0</ele><time>2026-05-01T14:57:07.33Z</time></trkpt><trkpt lat="47.251510966666665" lon="10.859575066666665"><ele>708.0</ele><time>2026-05-01T14:57:08.34Z</time></trkpt><trkpt lat="47.25132635" lon="10.859301666666665"><ele>700.0</ele><time>2026-05-01T14:57:09.336Z</time></trkpt><trkpt lat="47.25113806666666" lon="10.859034116666667"><ele>700.0</ele><time>2026-05-01T14:57:10.327Z</time></trkpt><trkpt lat="47.25094673333333" lon="10.858775383333333"><ele>700.0</ele><time>2026-05-01T14:57:11.328Z</time></trkpt><trkpt lat="47.250752049999996" lon="10.858527900000002"><ele>701.5</ele><time>2026-05-01T14:57:12.336Z</time></trkpt><trkpt lat="47.25055515000001" lon="10.858292033333331"><ele>703.0</ele><time>2026-05-01T14:57:13.328Z</time></trkpt><trkpt lat="47.250354383333324" lon="10.85806505"><ele>703.0</ele><time>2026-05-01T14:57:14.338Z</time></trkpt><trkpt lat="47.25015298333333" lon="10.857847966666668"><ele>703.0</ele><time>2026-05-01T14:57:15.336Z</time></trkpt><trkpt lat="47.24994851666667" lon="10.857641666666666"><ele>708.5</ele><time>2026-05-01T14:57:16.326Z</time></trkpt><trkpt lat="47.24974035" lon="10.857441300000001"><ele>714.0</ele><time>2026-05-01T14:57:17.326Z</time></trkpt><trkpt lat="47.249532066666674" lon="10.857250183333335"><ele>714.0</ele><time>2026-05-01T14:57:18.36Z</time></trkpt><trkpt lat="47.24932358333334" lon="10.8570619"><ele>714.0</ele><time>2026-05-01T14:57:19.327Z</time></trkpt><trkpt lat="47.24911218333333" lon="10.8568763"><ele>715.5</ele><time>2026-05-01T14:57:20.338Z</time></trkpt><trkpt lat="47.2489" lon="10.856697333333333"><ele>717.0</ele><time>2026-05-01T14:57:21.346Z</time></trkpt><trkpt lat="47.248689516666666" lon="10.856512833333333"><ele>717.0</ele><time>2026-05-01T14:57:22.327Z</time></trkpt><trkpt lat="47.248483050000004" lon="10.856321216666666"><ele>717.0</ele><time>2026-05-01T14:57:23.338Z</time></trkpt><trkpt lat="47.24827998333333" lon="10.856130199999999"><ele>720.0</ele><time>2026-05-01T14:57:24.338Z</time></trkpt><trkpt lat="47.24807951666667" lon="10.855936166666668"><ele>723.0</ele><time>2026-05-01T14:57:25.329Z</time></trkpt><trkpt lat="47.24788133333333" lon="10.855735466666665"><ele>723.0</ele><time>2026-05-01T14:57:26.326Z</time></trkpt><trkpt lat="47.24768600000001" lon="10.855531166666667"><ele>723.0</ele><time>2026-05-01T14:57:27.325Z</time></trkpt><trkpt lat="47.247493483333336" lon="10.8553191"><ele>725.5</ele><time>2026-05-01T14:57:28.328Z</time></trkpt><trkpt lat="47.24730315" lon="10.855103450000001"><ele>728.0</ele><time>2026-05-01T14:57:29.338Z</time></trkpt><trkpt lat="47.247115566666665" lon="10.854886333333331"><ele>728.0</ele><time>2026-05-01T14:57:30.341Z</time></trkpt><trkpt lat="47.24692778333333" lon="10.854664066666665"><ele>728.0</ele><time>2026-05-01T14:57:31.328Z</time></trkpt><trkpt lat="47.24674100000001" lon="10.854438183333333"><ele>723.5</ele><time>2026-05-01T14:57:32.328Z</time></trkpt><trkpt lat="47.24655741666667" lon="10.85420775"><ele>719.0</ele><time>2026-05-01T14:57:33.341Z</time></trkpt><trkpt lat="47.24637688333333" lon="10.853967933333335"><ele>719.0</ele><time>2026-05-01T14:57:34.329Z</time></trkpt><trkpt lat="47.246200699999996" lon="10.85372425"><ele>719.0</ele><time>2026-05-01T14:57:35.342Z</time></trkpt><trkpt lat="47.246027716666674" lon="10.8534779"><ele>722.5</ele><time>2026-05-01T14:57:36.346Z</time></trkpt><trkpt lat="47.24585534999999" lon="10.853223183333332"><ele>726.0</ele><time>2026-05-01T14:57:37.328Z</time></trkpt><trkpt lat="47.245685699999996" lon="10.852967650000002"><ele>723.5</ele><time>2026-05-01T14:57:38.339Z</time></trkpt><trkpt lat="47.24551498333334" lon="10.852712866666666"><ele>721.0</ele><time>2026-05-01T14:57:39.344Z</time></trkpt><trkpt lat="47.24533836666666" lon="10.852461983333333"><ele>721.0</ele><time>2026-05-01T14:57:40.328Z</time></trkpt><trkpt lat="47.24515985" lon="10.852214"><ele>721.0</ele><time>2026-05-01T14:57:41.338Z</time></trkpt><trkpt lat="47.24497793333333" lon="10.851968199999998"><ele>718.5</ele><time>2026-05-01T14:57:42.338Z</time></trkpt><trkpt lat="47.24479513333334" lon="10.851721999999999"><ele>716.0</ele><time>2026-05-01T14:57:43.326Z</time></trkpt><trkpt lat="47.24461038333334" lon="10.851478933333333"><ele>716.0</ele><time>2026-05-01T14:57:44.339Z</time></trkpt><trkpt lat="47.24442560000001" lon="10.851235"><ele>716.0</ele><time>2026-05-01T14:57:45.335Z</time></trkpt><trkpt lat="47.244240483333336" lon="10.850992583333335"><ele>716.5</ele><time>2026-05-01T14:57:46.328Z</time></trkpt><trkpt lat="47.24405521666666" lon="10.850742949999997"><ele>717.0</ele><time>2026-05-01T14:57:47.328Z</time></trkpt><trkpt lat="47.243866983333334" lon="10.850495466666667"><ele>717.0</ele><time>2026-05-01T14:57:48.347Z</time></trkpt><trkpt lat="47.243671899999995" lon="10.85025521666667"><ele>717.0</ele><time>2026-05-01T14:57:49.333Z</time></trkpt><trkpt lat="47.24347343333334" lon="10.850019233333335"><ele>716.5</ele><time>2026-05-01T14:57:50.361Z</time></trkpt><trkpt lat="47.2432743" lon="10.849784099999999"><ele>716.0</ele><time>2026-05-01T14:57:51.336Z</time></trkpt><trkpt lat="47.24307138333333" lon="10.849551033333332"><ele>716.0</ele><time>2026-05-01T14:57:52.328Z</time></trkpt><trkpt lat="47.2428683" lon="10.849320766666665"><ele>716.0</ele><time>2026-05-01T14:57:53.337Z</time></trkpt><trkpt lat="47.242668800000004" lon="10.849093016666666"><ele>715.5</ele><time>2026-05-01T14:57:54.336Z</time></trkpt><trkpt lat="47.24247025" lon="10.848863116666667"><ele>715.0</ele><time>2026-05-01T14:57:55.328Z</time></trkpt><trkpt lat="47.24227288333333" lon="10.848629283333333"><ele>716.5</ele><time>2026-05-01T14:57:56.339Z</time></trkpt><trkpt lat="47.24207371666666" lon="10.848400933333336"><ele>718.0</ele><time>2026-05-01T14:57:57.344Z</time></trkpt><trkpt lat="47.241873366666674" lon="10.848184633333334"><ele>718.0</ele><time>2026-05-01T14:57:58.336Z</time></trkpt><trkpt lat="47.24167633333333" lon="10.84798185"><ele>718.0</ele><time>2026-05-01T14:57:59.335Z</time></trkpt><trkpt lat="47.24148545" lon="10.847792383333335"><ele>715.3333333333334</ele><time>2026-05-01T14:58:00.339Z</time></trkpt><trkpt lat="47.24130216666667" lon="10.847613416666665"><ele>712.6666666666666</ele><time>2026-05-01T14:58:01.328Z</time></trkpt><trkpt lat="47.24112783333334" lon="10.8474456"><ele>710.0</ele><time>2026-05-01T14:58:02.335Z</time></trkpt><trkpt lat="47.24095923333333" lon="10.84728575"><ele>710.0</ele><time>2026-05-01T14:58:03.335Z</time></trkpt><trkpt lat="47.240799416666675" lon="10.8471407"><ele>710.0</ele><time>2026-05-01T14:58:04.328Z</time></trkpt><trkpt lat="47.24065135" lon="10.847008149999999"><ele>710.0</ele><time>2026-05-01T14:58:05.331Z</time></trkpt><trkpt lat="47.24052131666668" lon="10.846874566666667"><ele>710.0</ele><time>2026-05-01T14:58:06.34Z</time></trkpt><trkpt lat="47.2404085" lon="10.8467289"><ele>710.0</ele><time>2026-05-01T14:58:07.336Z</time></trkpt><trkpt lat="47.24032616666667" lon="10.846564966666666"><ele>710.0</ele><time>2026-05-01T14:58:08.324Z</time></trkpt><trkpt lat="47.24027976666666" lon="10.84638295"><ele>710.0</ele><time>2026-05-01T14:58:09.336Z</time></trkpt><trkpt lat="47.240281700000004" lon="10.84619625"><ele>710.0</ele><time>2026-05-01T14:58:10.326Z</time></trkpt><trkpt lat="47.24033063333333" lon="10.846022783333336"><ele>710.0</ele><time>2026-05-01T14:58:11.328Z</time></trkpt><trkpt lat="47.240423316666664" lon="10.845882383333333"><ele>710.0</ele><time>2026-05-01T14:58:12.332Z</time></trkpt><trkpt lat="47.24054808333334" lon="10.845801516666667"><ele>710.0</ele><time>2026-05-01T14:58:13.328Z</time></trkpt><trkpt lat="47.24068473333334" lon="10.845794000000001"><ele>711.25</ele><time>2026-05-01T14:58:14.331Z</time></trkpt><trkpt lat="47.24081448333333" lon="10.845853983333333"><ele>712.5</ele><time>2026-05-01T14:58:15.341Z</time></trkpt><trkpt lat="47.240921216666656" lon="10.8459792"><ele>713.75</ele><time>2026-05-01T14:58:16.328Z</time></trkpt><trkpt lat="47.240994349999994" lon="10.846157516666665"><ele>715.0</ele><time>2026-05-01T14:58:17.324Z</time></trkpt><trkpt lat="47.241035399999994" lon="10.846368683333333"><ele>715.0</ele><time>2026-05-01T14:58:18.326Z</time></trkpt><trkpt lat="47.241051066666664" lon="10.846602316666667"><ele>715.0</ele><time>2026-05-01T14:58:19.328Z</time></trkpt><trkpt lat="47.2410372" lon="10.846847533333333"><ele>715.0</ele><time>2026-05-01T14:58:20.328Z</time></trkpt><trkpt lat="47.24098918333334" lon="10.847097466666666"><ele>713.3333333333334</ele><time>2026-05-01T14:58:21.335Z</time></trkpt><trkpt lat="47.240903550000006" lon="10.847334249999998"><ele>711.6666666666666</ele><time>2026-05-01T14:58:22.328Z</time></trkpt><trkpt lat="47.2407821" lon="10.84754953333333"><ele>710.0</ele><time>2026-05-01T14:58:23.339Z</time></trkpt><trkpt lat="47.24063236666666" lon="10.847719549999999"><ele>706.0</ele><time>2026-05-01T14:58:24.336Z</time></trkpt><trkpt lat="47.240461149999994" lon="10.847828633333332"><ele>702.0</ele><time>2026-05-01T14:58:25.328Z</time></trkpt><trkpt lat="47.24027148333333" lon="10.847890133333333"><ele>698.0</ele><time>2026-05-01T14:58:26.332Z</time></trkpt><trkpt lat="47.24006615" lon="10.847905166666665"><ele>698.0</ele><time>2026-05-01T14:58:27.336Z</time></trkpt><trkpt lat="47.23984863333334" lon="10.847886866666666"><ele>698.0</ele><time>2026-05-01T14:58:28.332Z</time></trkpt><trkpt lat="47.23961633333333" lon="10.847852916666666"><ele>697.0</ele><time>2026-05-01T14:58:29.328Z</time></trkpt><trkpt lat="47.23937333333333" lon="10.847809666666668"><ele>696.0</ele><time>2026-05-01T14:58:30.327Z</time></trkpt><trkpt lat="47.23912371666667" lon="10.847767266666665"><ele>692.5</ele><time>2026-05-01T14:58:31.341Z</time></trkpt><trkpt lat="47.23886835" lon="10.847725400000002"><ele>689.0</ele><time>2026-05-01T14:58:32.332Z</time></trkpt><trkpt lat="47.238602333333326" lon="10.847685416666666"><ele>689.0</ele><time>2026-05-01T14:58:33.341Z</time></trkpt><trkpt lat="47.238333566666675" lon="10.847648399999999"><ele>689.0</ele><time>2026-05-01T14:58:34.328Z</time></trkpt><trkpt lat="47.238063849999996" lon="10.847606749999999"><ele>688.0</ele><time>2026-05-01T14:58:35.342Z</time></trkpt><trkpt lat="47.23779606666667" lon="10.847561633333333"><ele>687.0</ele><time>2026-05-01T14:58:36.336Z</time></trkpt><trkpt lat="47.23752326666666" lon="10.847515533333334"><ele>682.5</ele><time>2026-05-01T14:58:37.328Z</time></trkpt><trkpt lat="47.237252299999994" lon="10.847471399999998"><ele>678.0</ele><time>2026-05-01T14:58:38.327Z</time></trkpt><trkpt lat="47.23698155" lon="10.847433183333331"><ele>678.0</ele><time>2026-05-01T14:58:39.338Z</time></trkpt><trkpt lat="47.23672041666667" lon="10.847404316666667"><ele>678.0</ele><time>2026-05-01T14:58:40.324Z</time></trkpt><trkpt lat="47.23647413333333" lon="10.8473896"><ele>678.0</ele><time>2026-05-01T14:58:41.341Z</time></trkpt><trkpt lat="47.2362434" lon="10.847388683333334"><ele>678.0</ele><time>2026-05-01T14:58:42.341Z</time></trkpt><trkpt lat="47.236025" lon="10.84739995"><ele>678.0</ele><time>2026-05-01T14:58:43.336Z</time></trkpt><trkpt lat="47.235809800000006" lon="10.847420083333335"><ele>687.5</ele><time>2026-05-01T14:58:44.346Z</time></trkpt><trkpt lat="47.23558775" lon="10.847453733333333"><ele>697.0</ele><time>2026-05-01T14:58:45.345Z</time></trkpt><trkpt lat="47.23535843333334" lon="10.847503333333334"><ele>697.0</ele><time>2026-05-01T14:58:46.328Z</time></trkpt><trkpt lat="47.235129099999995" lon="10.847570499999998"><ele>697.0</ele><time>2026-05-01T14:58:47.327Z</time></trkpt><trkpt lat="47.2349082" lon="10.84764855"><ele>704.6666666666667</ele><time>2026-05-01T14:58:48.331Z</time></trkpt><trkpt lat="47.234701449999996" lon="10.847733566666665"><ele>712.3333333333334</ele><time>2026-05-01T14:58:49.331Z</time></trkpt><trkpt lat="47.234502066666664" lon="10.847827816666666"><ele>720.0</ele><time>2026-05-01T14:58:50.328Z</time></trkpt><trkpt lat="47.234310750000006" lon="10.847929316666667"><ele>720.0</ele><time>2026-05-01T14:58:51.336Z</time></trkpt><trkpt lat="47.23412673333334" lon="10.848036383333332"><ele>720.0</ele><time>2026-05-01T14:58:52.328Z</time></trkpt><trkpt lat="47.23394606666667" lon="10.848155733333334"><ele>720.0</ele><time>2026-05-01T14:58:53.341Z</time></trkpt><trkpt lat="47.23376939999999" lon="10.848287733333333"><ele>720.0</ele><time>2026-05-01T14:58:54.36Z</time></trkpt><trkpt lat="47.2336024" lon="10.848429066666666"><ele>720.0</ele><time>2026-05-01T14:58:55.331Z</time></trkpt><trkpt lat="47.23344624999999" lon="10.848571733333332"><ele>720.0</ele><time>2026-05-01T14:58:56.335Z</time></trkpt><trkpt lat="47.23329855" lon="10.848713316666666"><ele>720.0</ele><time>2026-05-01T14:58:57.336Z</time></trkpt><trkpt lat="47.23315485" lon="10.848855883333332"><ele>720.0</ele><time>2026-05-01T14:58:58.328Z</time></trkpt><trkpt lat="47.233016966666675" lon="10.84900705"><ele>720.0</ele><time>2026-05-01T14:58:59.338Z</time></trkpt><trkpt lat="47.23287988333333" lon="10.849169683333331"><ele>721.6666666666666</ele><time>2026-05-01T14:59:00.336Z</time></trkpt><trkpt lat="47.23273855" lon="10.849347233333333"><ele>723.3333333333333</ele><time>2026-05-01T14:59:01.326Z</time></trkpt><trkpt lat="47.23259473333332" lon="10.8495441"><ele>725.0</ele><time>2026-05-01T14:59:02.346Z</time></trkpt><trkpt lat="47.2324498" lon="10.8497581"><ele>725.0</ele><time>2026-05-01T14:59:03.324Z</time></trkpt><trkpt lat="47.23230964999999" lon="10.849978816666667"><ele>725.0</ele><time>2026-05-01T14:59:04.326Z</time></trkpt><trkpt lat="47.23218065" lon="10.850189766666665"><ele>725.0</ele><time>2026-05-01T14:59:05.331Z</time></trkpt><trkpt lat="47.23206176666666" lon="10.850394816666668"><ele>727.6666666666666</ele><time>2026-05-01T14:59:06.339Z</time></trkpt><trkpt lat="47.23195175000001" lon="10.8506031"><ele>730.3333333333334</ele><time>2026-05-01T14:59:07.331Z</time></trkpt><trkpt lat="47.231846733333334" lon="10.850814966666666"><ele>733.0</ele><time>2026-05-01T14:59:08.339Z</time></trkpt><trkpt lat="47.2317497" lon="10.851029850000002"><ele>733.0</ele><time>2026-05-01T14:59:09.336Z</time></trkpt><trkpt lat="47.23165805" lon="10.851244466666667"><ele>733.0</ele><time>2026-05-01T14:59:10.328Z</time></trkpt><trkpt lat="47.23157415000001" lon="10.8514598"><ele>733.0</ele><time>2026-05-01T14:59:11.339Z</time></trkpt><trkpt lat="47.231495233333334" lon="10.85167691666667"><ele>733.3333333333334</ele><time>2026-05-01T14:59:12.347Z</time></trkpt><trkpt lat="47.231422816666665" lon="10.851896600000002"><ele>733.6666666666666</ele><time>2026-05-01T14:59:13.328Z</time></trkpt><trkpt lat="47.23135358333334" lon="10.852120333333334"><ele>734.0</ele><time>2026-05-01T14:59:14.328Z</time></trkpt><trkpt lat="47.23128413333334" lon="10.852345166666666"><ele>734.0</ele><time>2026-05-01T14:59:15.336Z</time></trkpt><trkpt lat="47.23121604999999" lon="10.852572733333334"><ele>734.0</ele><time>2026-05-01T14:59:16.331Z</time></trkpt><trkpt lat="47.231156083333325" lon="10.852781416666668"><ele>734.0</ele><time>2026-05-01T14:59:17.328Z</time></trkpt><trkpt lat="47.2310994" lon="10.852982683333336"><ele>734.5</ele><time>2026-05-01T14:59:18.342Z</time></trkpt><trkpt lat="47.23104493333334" lon="10.853183516666666"><ele>735.0</ele><time>2026-05-01T14:59:19.331Z</time></trkpt><trkpt lat="47.23098815" lon="10.853370583333332"><ele>735.5</ele><time>2026-05-01T14:59:20.341Z</time></trkpt><trkpt lat="47.230929066666675" lon="10.853552716666664"><ele>736.0</ele><time>2026-05-01T14:59:21.335Z</time></trkpt><trkpt lat="47.230871199999996" lon="10.853730700000002"><ele>736.0</ele><time>2026-05-01T14:59:22.331Z</time></trkpt><trkpt lat="47.23081463333333" lon="10.853895633333332"><ele>736.0</ele><time>2026-05-01T14:59:23.339Z</time></trkpt><trkpt lat="47.23076076666666" lon="10.854046933333333"><ele>736.0</ele><time>2026-05-01T14:59:24.337Z</time></trkpt><trkpt lat="47.2307093" lon="10.854186333333333"><ele>736.0</ele><time>2026-05-01T14:59:25.328Z</time></trkpt><trkpt lat="47.23066318333334" lon="10.85429826666667"><ele>736.0</ele><time>2026-05-01T14:59:26.331Z</time></trkpt><trkpt lat="47.23062565" lon="10.854385116666666"><ele>735.7142857142858</ele><time>2026-05-01T14:59:27.336Z</time></trkpt><trkpt lat="47.230575683333335" lon="10.854492433333334"><ele>735.4285714285713</ele><time>2026-05-01T14:59:29.339Z</time></trkpt><trkpt lat="47.23052548333333" lon="10.854554383333335"><ele>735.1428571428571</ele><time>2026-05-01T14:59:31.329Z</time></trkpt><trkpt lat="47.23044383333333" lon="10.854582049999998"><ele>734.8571428571429</ele><time>2026-05-01T14:59:33.339Z</time></trkpt><trkpt lat="47.23037803333334" lon="10.854595233333336"><ele>734.5714285714287</ele><time>2026-05-01T14:59:34.328Z</time></trkpt><trkpt lat="47.23031689999999" lon="10.854633333333334"><ele>734.2857142857142</ele><time>2026-05-01T14:59:35.333Z</time></trkpt><trkpt lat="47.230269533333335" lon="10.854695633333332"><ele>734.0</ele><time>2026-05-01T14:59:36.336Z</time></trkpt><trkpt lat="47.23020808333334" lon="10.854820916666666"><ele>734.0</ele><time>2026-05-01T14:59:38.333Z</time></trkpt><trkpt lat="47.23022399468869" lon="10.854975934161269"><ele>734.0</ele><time>2026-05-01T14:59:40.328Z</time></trkpt><trkpt lat="47.23021385394036" lon="10.855157770658591"><ele>734.0</ele><time>2026-05-01T14:59:42.336Z</time></trkpt><trkpt lat="47.230170864127906" lon="10.855308089451022"><ele>734.0</ele><time>2026-05-01T14:59:44.324Z</time></trkpt><trkpt lat="47.23014049308795" lon="10.855404597455202"><ele>734.0</ele><time>2026-05-01T14:59:45.336Z</time></trkpt><trkpt lat="47.23004375000001" lon="10.855482033333331"><ele>733.75</ele><time>2026-05-01T14:59:46.329Z</time></trkpt><trkpt lat="47.22997128333333" lon="10.855605"><ele>733.5</ele><time>2026-05-01T14:59:47.339Z</time></trkpt><trkpt lat="47.229884866666666" lon="10.855733133333334"><ele>733.25</ele><time>2026-05-01T14:59:48.324Z</time></trkpt><trkpt lat="47.22979406666667" lon="10.855867249999998"><ele>733.0</ele><time>2026-05-01T14:59:49.328Z</time></trkpt><trkpt lat="47.229695899999996" lon="10.855997133333334"><ele>732.25</ele><time>2026-05-01T14:59:50.339Z</time></trkpt><trkpt lat="47.229597600000005" lon="10.856121083333335"><ele>731.5</ele><time>2026-05-01T14:59:51.336Z</time></trkpt><trkpt lat="47.229503550000004" lon="10.856246283333332"><ele>730.75</ele><time>2026-05-01T14:59:52.328Z</time></trkpt><trkpt lat="47.22940905000001" lon="10.856364333333334"><ele>730.0</ele><time>2026-05-01T14:59:53.325Z</time></trkpt><trkpt lat="47.22931271666666" lon="10.856474983333332"><ele>730.0</ele><time>2026-05-01T14:59:54.336Z</time></trkpt><trkpt lat="47.22921298333334" lon="10.856582066666666"><ele>730.0</ele><time>2026-05-01T14:59:55.328Z</time></trkpt><trkpt lat="47.22910323333334" lon="10.856686049999999"><ele>730.0</ele><time>2026-05-01T14:59:56.339Z</time></trkpt><trkpt lat="47.22898511666667" lon="10.856799816666667"><ele>730.0</ele><time>2026-05-01T14:59:57.342Z</time></trkpt><trkpt lat="47.228862183333334" lon="10.856916100000001"><ele>731.6666666666667</ele><time>2026-05-01T14:59:58.328Z</time></trkpt><trkpt lat="47.22873263333332" lon="10.857033716666669"><ele>733.3333333333334</ele><time>2026-05-01T14:59:59.327Z</time></trkpt><trkpt lat="47.228601733333335" lon="10.857152633333333"><ele>735.0</ele><time>2026-05-01T15:00:00.339Z</time></trkpt><trkpt lat="47.22847413333334" lon="10.857269899999999"><ele>735.0</ele><time>2026-05-01T15:00:01.329Z</time></trkpt><trkpt lat="47.22834934999999" lon="10.857390883333336"><ele>735.0</ele><time>2026-05-01T15:00:02.325Z</time></trkpt><trkpt lat="47.22823060000001" lon="10.857522933333332"><ele>735.0</ele><time>2026-05-01T15:00:03.341Z</time></trkpt><trkpt lat="47.22811846666667" lon="10.857655283333333"><ele>735.0</ele><time>2026-05-01T15:00:04.329Z</time></trkpt><trkpt lat="47.22801113333333" lon="10.857780566666667"><ele>735.0</ele><time>2026-05-01T15:00:05.331Z</time></trkpt><trkpt lat="47.22790911666666" lon="10.8579073"><ele>735.0</ele><time>2026-05-01T15:00:06.33Z</time></trkpt><trkpt lat="47.2278104" lon="10.858041600000002"><ele>735.0</ele><time>2026-05-01T15:00:07.342Z</time></trkpt><trkpt lat="47.227713316666666" lon="10.858185749999999"><ele>735.0</ele><time>2026-05-01T15:00:08.332Z</time></trkpt><trkpt lat="47.22762153333333" lon="10.858343466666668"><ele>737.5</ele><time>2026-05-01T15:00:09.335Z</time></trkpt><trkpt lat="47.227536949999994" lon="10.858514416666665"><ele>740.0</ele><time>2026-05-01T15:00:10.327Z</time></trkpt><trkpt lat="47.227456816666674" lon="10.8586881"><ele>742.5</ele><time>2026-05-01T15:00:11.339Z</time></trkpt><trkpt lat="47.22738258333334" lon="10.858859749999999"><ele>745.0</ele><time>2026-05-01T15:00:12.339Z</time></trkpt><trkpt lat="47.2273158" lon="10.859035683333332"><ele>741.25</ele><time>2026-05-01T15:00:13.327Z</time></trkpt><trkpt lat="47.22725688333334" lon="10.859220116666664"><ele>737.5</ele><time>2026-05-01T15:00:14.348Z</time></trkpt><trkpt lat="47.227198449999996" lon="10.859409316666666"><ele>733.75</ele><time>2026-05-01T15:00:15.344Z</time></trkpt><trkpt lat="47.22713436666666" lon="10.859596949999997"><ele>730.0</ele><time>2026-05-01T15:00:16.342Z</time></trkpt><trkpt lat="47.22706203333333" lon="10.859783999999998"><ele>730.0</ele><time>2026-05-01T15:00:17.336Z</time></trkpt><trkpt lat="47.2269808" lon="10.8599642"><ele>730.0</ele><time>2026-05-01T15:00:18.341Z</time></trkpt><trkpt lat="47.226889866666674" lon="10.860138583333333"><ele>730.0</ele><time>2026-05-01T15:00:19.327Z</time></trkpt><trkpt lat="47.22678788333332" lon="10.860295733333333"><ele>730.0</ele><time>2026-05-01T15:00:20.336Z</time></trkpt><trkpt lat="47.226672683333334" lon="10.860433566666666"><ele>733.0</ele><time>2026-05-01T15:00:21.339Z</time></trkpt><trkpt lat="47.226546883333334" lon="10.8605504"><ele>736.0</ele><time>2026-05-01T15:00:22.328Z</time></trkpt><trkpt lat="47.226410466666664" lon="10.860650683333331"><ele>739.0</ele><time>2026-05-01T15:00:23.33Z</time></trkpt><trkpt lat="47.22626711666666" lon="10.860731633333334"><ele>739.0</ele><time>2026-05-01T15:00:24.345Z</time></trkpt><trkpt lat="47.22611785000001" lon="10.860793383333332"><ele>739.0</ele><time>2026-05-01T15:00:25.331Z</time></trkpt><trkpt lat="47.22596826666666" lon="10.860849666666665"><ele>739.0</ele><time>2026-05-01T15:00:26.33Z</time></trkpt><trkpt lat="47.22581834182018" lon="10.860881166086896"><ele>739.0</ele><time>2026-05-01T15:00:27.337Z</time></trkpt><trkpt lat="47.22566950575379" lon="10.860935036477843"><ele>739.0</ele><time>2026-05-01T15:00:28.335Z</time></trkpt><trkpt lat="47.22552296643404" lon="10.8609883256801"><ele>739.0</ele><time>2026-05-01T15:00:29.331Z</time></trkpt><trkpt lat="47.225375409751905" lon="10.861041984840016"><ele>742.5</ele><time>2026-05-01T15:00:30.35Z</time></trkpt><trkpt lat="47.225228644896724" lon="10.861095356054117"><ele>746.0</ele><time>2026-05-01T15:00:31.33Z</time></trkpt><trkpt lat="47.22508505251512" lon="10.861149024736006"><ele>749.5</ele><time>2026-05-01T15:00:32.33Z</time></trkpt><trkpt lat="47.22494568981909" lon="10.861201683533965"><ele>753.0</ele><time>2026-05-01T15:00:33.342Z</time></trkpt><trkpt lat="47.22480839713652" lon="10.861250425365643"><ele>753.0</ele><time>2026-05-01T15:00:34.33Z</time></trkpt><trkpt lat="47.224671475309385" lon="10.861294927407023"><ele>753.0</ele><time>2026-05-01T15:00:35.332Z</time></trkpt><trkpt lat="47.22453594752781" lon="10.861337669894233"><ele>753.0</ele><time>2026-05-01T15:00:36.339Z</time></trkpt><trkpt lat="47.22439582721482" lon="10.861373029665385"><ele>753.0</ele><time>2026-05-01T15:00:37.33Z</time></trkpt><trkpt lat="47.224256672180545" lon="10.861394722562945"><ele>753.0</ele><time>2026-05-01T15:00:38.326Z</time></trkpt><trkpt lat="47.22411503767958" lon="10.861413828330216"><ele>753.0</ele><time>2026-05-01T15:00:39.325Z</time></trkpt><trkpt lat="47.223966" lon="10.861418174818423"><ele>753.0</ele><time>2026-05-01T15:00:40.33Z</time></trkpt><trkpt lat="47.223813783333334" lon="10.861434950000001"><ele>753.0</ele><time>2026-05-01T15:00:41.33Z</time></trkpt><trkpt lat="47.22365865" lon="10.861423433333334"><ele>754.0</ele><time>2026-05-01T15:00:42.341Z</time></trkpt><trkpt lat="47.223501996263664" lon="10.861372758164242"><ele>755.0</ele><time>2026-05-01T15:00:43.345Z</time></trkpt><trkpt lat="47.22334559266618" lon="10.861337081623148"><ele>756.0</ele><time>2026-05-01T15:00:44.332Z</time></trkpt><trkpt lat="47.22318798333334" lon="10.861315716666667"><ele>762.3333333333333</ele><time>2026-05-01T15:00:45.336Z</time></trkpt><trkpt lat="47.223032716666665" lon="10.861270150000001"><ele>768.6666666666666</ele><time>2026-05-01T15:00:46.332Z</time></trkpt><trkpt lat="47.22287576666666" lon="10.861230733333331"><ele>775.0</ele><time>2026-05-01T15:00:47.339Z</time></trkpt><trkpt lat="47.222722450000006" lon="10.86118605"><ele>775.0</ele><time>2026-05-01T15:00:48.324Z</time></trkpt><trkpt lat="47.22257081666667" lon="10.861135416666665"><ele>775.0</ele><time>2026-05-01T15:00:49.33Z</time></trkpt><trkpt lat="47.2224202" lon="10.861076233333332"><ele>775.0</ele><time>2026-05-01T15:00:50.331Z</time></trkpt><trkpt lat="47.222277483333336" lon="10.86100795"><ele>768.0</ele><time>2026-05-01T15:00:51.34Z</time></trkpt><trkpt lat="47.22214399999999" lon="10.860935933333332"><ele>761.0</ele><time>2026-05-01T15:00:52.33Z</time></trkpt><trkpt lat="47.222019" lon="10.860862733333333"><ele>754.0</ele><time>2026-05-01T15:00:53.33Z</time></trkpt><trkpt lat="47.22189825" lon="10.860791783333331"><ele>747.0</ele><time>2026-05-01T15:00:54.336Z</time></trkpt><trkpt lat="47.22177441666666" lon="10.860725683333332"><ele>747.0</ele><time>2026-05-01T15:00:55.33Z</time></trkpt><trkpt lat="47.22164773333334" lon="10.860662166666668"><ele>747.0</ele><time>2026-05-01T15:00:56.33Z</time></trkpt><trkpt lat="47.221523049999995" lon="10.860603399999999"><ele>747.0</ele><time>2026-05-01T15:00:57.335Z</time></trkpt><trkpt lat="47.221396516666665" lon="10.860560100000002"><ele>747.0</ele><time>2026-05-01T15:00:58.333Z</time></trkpt><trkpt lat="47.221266933333325" lon="10.860541033333334"><ele>745.25</ele><time>2026-05-01T15:00:59.331Z</time></trkpt><trkpt lat="47.22113836666668" lon="10.860550716666667"><ele>743.5</ele><time>2026-05-01T15:01:00.341Z</time></trkpt><trkpt lat="47.22101485" lon="10.860597283333334"><ele>741.75</ele><time>2026-05-01T15:01:01.33Z</time></trkpt><trkpt lat="47.22089983333334" lon="10.860678600000002"><ele>740.0</ele><time>2026-05-01T15:01:02.329Z</time></trkpt><trkpt lat="47.22079668333334" lon="10.860786133333333"><ele>740.0</ele><time>2026-05-01T15:01:03.341Z</time></trkpt><trkpt lat="47.22069736666667" lon="10.8609036"><ele>740.0</ele><time>2026-05-01T15:01:04.33Z</time></trkpt><trkpt lat="47.220595733333326" lon="10.861022949999997"><ele>740.0</ele><time>2026-05-01T15:01:05.339Z</time></trkpt><trkpt lat="47.22048758333334" lon="10.86114145"><ele>740.0</ele><time>2026-05-01T15:01:06.336Z</time></trkpt><trkpt lat="47.220373933333335" lon="10.8612545"><ele>739.5</ele><time>2026-05-01T15:01:07.33Z</time></trkpt><trkpt lat="47.220261966666676" lon="10.861370066666666"><ele>739.0</ele><time>2026-05-01T15:01:08.342Z</time></trkpt><trkpt lat="47.220152216666676" lon="10.861489766666667"><ele>738.5</ele><time>2026-05-01T15:01:09.337Z</time></trkpt><trkpt lat="47.22003908333333" lon="10.861610633333331"><ele>738.0</ele><time>2026-05-01T15:01:10.33Z</time></trkpt><trkpt lat="47.219927516666665" lon="10.861732533333335"><ele>737.5</ele><time>2026-05-01T15:01:11.332Z</time></trkpt><trkpt lat="47.219821316666675" lon="10.861856783333332"><ele>737.0</ele><time>2026-05-01T15:01:12.338Z</time></trkpt><trkpt lat="47.219727933333324" lon="10.861987783333332"><ele>736.5</ele><time>2026-05-01T15:01:13.33Z</time></trkpt><trkpt lat="47.219646366666666" lon="10.8621354"><ele>736.0</ele><time>2026-05-01T15:01:14.336Z</time></trkpt><trkpt lat="47.21957923333333" lon="10.862298200000001"><ele>736.0</ele><time>2026-05-01T15:01:15.332Z</time></trkpt><trkpt lat="47.21952836666666" lon="10.862467933333335"><ele>736.0</ele><time>2026-05-01T15:01:16.33Z</time></trkpt><trkpt lat="47.2194892" lon="10.86264633333333"><ele>736.0</ele><time>2026-05-01T15:01:17.33Z</time></trkpt><trkpt lat="47.21945170000001" lon="10.862824550000001"><ele>736.0</ele><time>2026-05-01T15:01:18.339Z</time></trkpt><trkpt lat="47.21941851666667" lon="10.863004116666664"><ele>736.5</ele><time>2026-05-01T15:01:19.332Z</time></trkpt><trkpt lat="47.219383916666665" lon="10.863181383333332"><ele>737.0</ele><time>2026-05-01T15:01:20.341Z</time></trkpt><trkpt lat="47.21935118333334" lon="10.863362299999999"><ele>737.5</ele><time>2026-05-01T15:01:21.328Z</time></trkpt><trkpt lat="47.21932176666666" lon="10.863543566666666"><ele>738.0</ele><time>2026-05-01T15:01:22.33Z</time></trkpt><trkpt lat="47.219295333333335" lon="10.863722016666669"><ele>739.5</ele><time>2026-05-01T15:01:23.33Z</time></trkpt><trkpt lat="47.219266950000005" lon="10.863903566666666"><ele>741.0</ele><time>2026-05-01T15:01:24.333Z</time></trkpt><trkpt lat="47.219238849999996" lon="10.864087866666667"><ele>742.5</ele><time>2026-05-01T15:01:25.33Z</time></trkpt><trkpt lat="47.21920858333333" lon="10.864267816666667"><ele>744.0</ele><time>2026-05-01T15:01:26.331Z</time></trkpt><trkpt lat="47.21917856666667" lon="10.864446483333332"><ele>747.75</ele><time>2026-05-01T15:01:27.339Z</time></trkpt><trkpt lat="47.2191456" lon="10.864624166666665"><ele>751.5</ele><time>2026-05-01T15:01:28.332Z</time></trkpt><trkpt lat="47.21910391666667" lon="10.864798116666668"><ele>755.25</ele><time>2026-05-01T15:01:29.324Z</time></trkpt><trkpt lat="47.219050216666666" lon="10.864958266666667"><ele>759.0</ele><time>2026-05-01T15:01:30.339Z</time></trkpt><trkpt lat="47.21898866666667" lon="10.865113666666666"><ele>760.25</ele><time>2026-05-01T15:01:31.331Z</time></trkpt><trkpt lat="47.21892716666667" lon="10.865265350000001"><ele>761.5</ele><time>2026-05-01T15:01:32.331Z</time></trkpt><trkpt lat="47.21886418333334" lon="10.865414533333334"><ele>762.75</ele><time>2026-05-01T15:01:33.334Z</time></trkpt><trkpt lat="47.218801416666665" lon="10.865557583333334"><ele>764.0</ele><time>2026-05-01T15:01:34.344Z</time></trkpt><trkpt lat="47.21872389756484" lon="10.865682799884274"><ele>764.0</ele><time>2026-05-01T15:01:35.33Z</time></trkpt><trkpt lat="47.218659302999306" lon="10.865820669323577"><ele>764.0</ele><time>2026-05-01T15:01:36.336Z</time></trkpt><trkpt lat="47.21859148999384" lon="10.865956857945985"><ele>764.0</ele><time>2026-05-01T15:01:37.331Z</time></trkpt><trkpt lat="47.21851764598527" lon="10.86608676533519"><ele>764.0</ele><time>2026-05-01T15:01:38.345Z</time></trkpt><trkpt lat="47.21844683333334" lon="10.866226483333334"><ele>763.75</ele><time>2026-05-01T15:01:39.337Z</time></trkpt><trkpt lat="47.21835666666666" lon="10.866335783333334"><ele>763.5</ele><time>2026-05-01T15:01:40.331Z</time></trkpt><trkpt lat="47.21826073333333" lon="10.866429766666666"><ele>763.25</ele><time>2026-05-01T15:01:41.332Z</time></trkpt><trkpt lat="47.21816011666666" lon="10.866503133333334"><ele>763.0</ele><time>2026-05-01T15:01:42.328Z</time></trkpt><trkpt lat="47.21805596666666" lon="10.866554399999998"><ele>762.6666666666667</ele><time>2026-05-01T15:01:43.344Z</time></trkpt><trkpt lat="47.21795632901096" lon="10.866567183270577"><ele>762.3333333333334</ele><time>2026-05-01T15:01:44.33Z</time></trkpt><trkpt lat="47.21787032008276" lon="10.866592183513655"><ele>762.0</ele><time>2026-05-01T15:01:45.339Z</time></trkpt><trkpt lat="47.217803599999996" lon="10.866625483333333"><ele>761.6666666666666</ele><time>2026-05-01T15:01:46.331Z</time></trkpt><trkpt lat="47.21774673333333" lon="10.866563233333332"><ele>761.3333333333333</ele><time>2026-05-01T15:01:48.341Z</time></trkpt><trkpt lat="47.217806350000004" lon="10.866500566666664"><ele>761.0</ele><time>2026-05-01T15:01:50.329Z</time></trkpt><trkpt lat="47.21786886666667" lon="10.866484816666665"><ele>760.9999999999999</ele><time>2026-05-01T15:01:51.337Z</time></trkpt><trkpt lat="47.217930933333335" lon="10.866452483333333"><ele>761.0</ele><time>2026-05-01T15:01:52.341Z</time></trkpt><trkpt lat="47.21799288333333" lon="10.866392966666668"><ele>761.0</ele><time>2026-05-01T15:01:53.333Z</time></trkpt><trkpt lat="47.218034733333326" lon="10.866307683333332"><ele>761.0</ele><time>2026-05-01T15:01:54.339Z</time></trkpt><trkpt lat="47.21805260989173" lon="10.866201382056744"><ele>761.0</ele><time>2026-05-01T15:01:55.331Z</time></trkpt><trkpt lat="47.21802327368461" lon="10.866089534178526"><ele>760.9999999999999</ele><time>2026-05-01T15:01:56.345Z</time></trkpt><trkpt lat="47.21796378333333" lon="10.86600715"><ele>761.0</ele><time>2026-05-01T15:01:57.337Z</time></trkpt><trkpt lat="47.21791885716188" lon="10.865909216815188"><ele>761.6666666666666</ele><time>2026-05-01T15:01:58.334Z</time></trkpt><trkpt lat="47.21783743647763" lon="10.865810840929871"><ele>762.3333333333333</ele><time>2026-05-01T15:01:59.332Z</time></trkpt><trkpt lat="47.21776064136221" lon="10.865797039029326"><ele>763.0</ele><time>2026-05-01T15:02:00.328Z</time></trkpt><trkpt lat="47.217691355069825" lon="10.865758068511271"><ele>763.6666666666666</ele><time>2026-05-01T15:02:01.332Z</time></trkpt><trkpt lat="47.21763388327315" lon="10.865718255173812"><ele>764.3333333333334</ele><time>2026-05-01T15:02:02.33Z</time></trkpt><trkpt lat="47.217549706994085" lon="10.865646486145497"><ele>765.0</ele><time>2026-05-01T15:02:04.331Z</time></trkpt><trkpt lat="47.21749361380038" lon="10.865557948915392"><ele>765.0</ele><time>2026-05-01T15:04:30.013Z</time></trkpt><trkpt lat="47.21742040589172" lon="10.865655179307373"><ele>765.0</ele><time>2026-05-01T15:04:31.988Z</time></trkpt><trkpt lat="47.21739149442716" lon="10.865742690194775"><ele>765.0</ele><time>2026-05-01T15:04:40.994Z</time></trkpt><trkpt lat="47.21745424228385" lon="10.86569424105663"><ele>765.0</ele><time>2026-05-01T15:04:51.997Z</time></trkpt></trkseg></trk></gpx>